<?xml version='1.0' encoding='UTF-8'?><gpx version="1.1" creator="JPX - https://github.com/jenetics/jpx" xmlns="http://www.topografix.com/GPX/1/1"><trk><trkseg><trkpt lat="43.63724184254985" lon="11.313889510752439"><ele>280.0</ele><time>2026-03-22T08:33:36Z</time></trkpt><trkpt lat="43.63716229606894" lon="11.313902028459449"><ele>280.0</ele><time>2026-03-22T08:33:38Z</time></trkpt><trkpt lat="43.63707999633133" lon="11.313886635186009"><ele>280.0</ele><time>2026-03-22T08:33:41Z</time></trkpt><trkpt lat="43.63699143874415" lon="11.313860624478314"><ele>280.0</ele><time>2026-03-22T08:33:43Z</time></trkpt><trkpt lat="43.63689664660392" lon="11.313776207312138"><ele>280.0</ele><time>2026-03-22T08:33:45Z</time></trkpt><trkpt lat="43.63684195323256" lon="11.313732552243795"><ele>280.0</ele><time>2026-03-22T08:33:46Z</time></trkpt><trkpt lat="43.636817043165564" lon="11.313590692051289"><ele>280.0</ele><time>2026-03-22T08:33:48Z</time></trkpt><trkpt lat="43.636889029895414" lon="11.313475296673756"><ele>280.0</ele><time>2026-03-22T08:33:50Z</time></trkpt><trkpt lat="43.63696257096332" lon="11.313426155504017"><ele>280.0</ele><time>2026-03-22T08:33:51.999Z</time></trkpt><trkpt lat="43.63701501010731" lon="11.31337574867317"><ele>280.0</ele><time>2026-03-22T08:33:53.999Z</time></trkpt><trkpt lat="43.637084272096644" lon="11.313318601060699"><ele>280.0</ele><time>2026-03-22T08:33:55.999Z</time></trkpt><trkpt lat="43.63720303860227" lon="11.313287798701062"><ele>280.0</ele><time>2026-03-22T08:33:57.999Z</time></trkpt><trkpt lat="43.637270559529455" lon="11.313291646270166"><ele>280.0</ele><time>2026-03-22T08:33:58.999Z</time></trkpt><trkpt lat="43.637332427282" lon="11.313321798374378"><ele>280.0</ele><time>2026-03-22T08:33:59.999Z</time></trkpt><trkpt lat="43.63738919899185" lon="11.31338416642338"><ele>280.0</ele><time>2026-03-22T08:34:00.999Z</time></trkpt><trkpt lat="43.637435385945196" lon="11.313454409969872"><ele>280.0</ele><time>2026-03-22T08:34:01.999Z</time></trkpt><trkpt lat="43.63749241186499" lon="11.313562709169556"><ele>280.0</ele><time>2026-03-22T08:34:03.999Z</time></trkpt><trkpt lat="43.63755446714581" lon="11.313510014827498"><ele>280.0</ele><time>2026-03-22T08:34:05.999Z</time></trkpt><trkpt lat="43.63761644992354" lon="11.313426035608819"><ele>280.0</ele><time>2026-03-22T08:34:07.999Z</time></trkpt><trkpt lat="43.637744683572286" lon="11.313387427289832"><ele>280.0</ele><time>2026-03-22T08:34:09.999Z</time></trkpt><trkpt lat="43.637826117225146" lon="11.313355898289027"><ele>280.0</ele><time>2026-03-22T08:34:10.999Z</time></trkpt><trkpt lat="43.63790942886546" lon="11.313324103289276"><ele>280.0</ele><time>2026-03-22T08:34:11.999Z</time></trkpt><trkpt lat="43.637995804501614" lon="11.31329000324011"><ele>280.0</ele><time>2026-03-22T08:34:12.999Z</time></trkpt><trkpt lat="43.638064298328665" lon="11.313267759745157"><ele>278.4</ele><time>2026-03-22T08:34:13.999Z</time></trkpt><trkpt lat="43.638148186239626" lon="11.31323649443072"><ele>276.8</ele><time>2026-03-22T08:34:14.999Z</time></trkpt><trkpt lat="43.63822765905657" lon="11.31320236569491"><ele>275.2</ele><time>2026-03-22T08:34:15.999Z</time></trkpt><trkpt lat="43.638326689947675" lon="11.31320604752088"><ele>273.6</ele><time>2026-03-22T08:34:16.999Z</time></trkpt><trkpt lat="43.63843049109885" lon="11.313201525755849"><ele>272.0</ele><time>2026-03-22T08:34:17.999Z</time></trkpt><trkpt lat="43.638541820866934" lon="11.313183573167509"><ele>273.0</ele><time>2026-03-22T08:34:18.999Z</time></trkpt><trkpt lat="43.638645444367484" lon="11.313161271087976"><ele>274.0</ele><time>2026-03-22T08:34:19.999Z</time></trkpt><trkpt lat="43.63874761554196" lon="11.31312660781768"><ele>275.0</ele><time>2026-03-22T08:34:20.999Z</time></trkpt><trkpt lat="43.63885039088415" lon="11.313098134756148"><ele>276.0</ele><time>2026-03-22T08:34:21.999Z</time></trkpt><trkpt lat="43.638957082715336" lon="11.313091713542024"><ele>277.0</ele><time>2026-03-22T08:34:22.999Z</time></trkpt><trkpt lat="43.63906540302405" lon="11.31308966298341"><ele>277.2</ele><time>2026-03-22T08:34:23.999Z</time></trkpt><trkpt lat="43.63917039389146" lon="11.313070014933176"><ele>277.4</ele><time>2026-03-22T08:34:24.999Z</time></trkpt><trkpt lat="43.639269023809014" lon="11.313048125663423"><ele>277.6</ele><time>2026-03-22T08:34:25.999Z</time></trkpt><trkpt lat="43.63935888874953" lon="11.31303485848416"><ele>277.8</ele><time>2026-03-22T08:34:26.999Z</time></trkpt><trkpt lat="43.63943167346577" lon="11.31300617194558"><ele>278.0</ele><time>2026-03-22T08:34:27.999Z</time></trkpt><trkpt lat="43.6395168542159" lon="11.312952267162585"><ele>278.0</ele><time>2026-03-22T08:34:28.999Z</time></trkpt><trkpt lat="43.63960963392485" lon="11.312900341129238"><ele>278.0</ele><time>2026-03-22T08:34:29.999Z</time></trkpt><trkpt lat="43.63970777104519" lon="11.31282166954392"><ele>278.0</ele><time>2026-03-22T08:34:30.999Z</time></trkpt><trkpt lat="43.63981746297433" lon="11.312786825654719"><ele>278.0</ele><time>2026-03-22T08:34:31.999Z</time></trkpt><trkpt lat="43.63991307865654" lon="11.312709361903492"><ele>278.0</ele><time>2026-03-22T08:34:32.999Z</time></trkpt><trkpt lat="43.64000359988152" lon="11.312662964871299"><ele>278.0</ele><time>2026-03-22T08:34:33.999Z</time></trkpt><trkpt lat="43.64006825057182" lon="11.312619010894553"><ele>278.0</ele><time>2026-03-22T08:34:34.999Z</time></trkpt><trkpt lat="43.640146085386604" lon="11.312602596664576"><ele>278.0</ele><time>2026-03-22T08:34:37.999Z</time></trkpt><trkpt lat="43.64010850011314" lon="11.312756621564102"><ele>278.0</ele><time>2026-03-22T08:34:41.999Z</time></trkpt><trkpt lat="43.64012704528122" lon="11.312905805498373"><ele>278.0</ele><time>2026-03-22T08:34:43.999Z</time></trkpt><trkpt lat="43.640209996459554" lon="11.312949290283598"><ele>278.0</ele><time>2026-03-22T08:34:44.999Z</time></trkpt><trkpt lat="43.640292817422335" lon="11.312890343194171"><ele>278.0</ele><time>2026-03-22T08:34:45.999Z</time></trkpt><trkpt lat="43.64036153489876" lon="11.312848673994441"><ele>278.0</ele><time>2026-03-22T08:34:46.999Z</time></trkpt><trkpt lat="43.640447796291895" lon="11.312805894663402"><ele>278.0</ele><time>2026-03-22T08:34:47.999Z</time></trkpt><trkpt lat="43.64053357299712" lon="11.312771069031466"><ele>278.0</ele><time>2026-03-22T08:34:48.999Z</time></trkpt><trkpt lat="43.64062682818485" lon="11.312725415630455"><ele>278.0</ele><time>2026-03-22T08:34:49.999Z</time></trkpt><trkpt lat="43.64072454208384" lon="11.312683696725664"><ele>277.25</ele><time>2026-03-22T08:34:50.999Z</time></trkpt><trkpt lat="43.64083975186612" lon="11.312645384454848"><ele>276.5</ele><time>2026-03-22T08:34:51.999Z</time></trkpt><trkpt lat="43.640950061920314" lon="11.312601487712586"><ele>275.75</ele><time>2026-03-22T08:34:52.999Z</time></trkpt><trkpt lat="43.64106856125196" lon="11.31255877419258"><ele>275.0</ele><time>2026-03-22T08:34:53.999Z</time></trkpt><trkpt lat="43.64118503055452" lon="11.312510293747161"><ele>272.75</ele><time>2026-03-22T08:34:54.999Z</time></trkpt><trkpt lat="43.64129509007284" lon="11.3124576974405"><ele>270.5</ele><time>2026-03-22T08:34:55.998Z</time></trkpt><trkpt lat="43.641405505534436" lon="11.312408075399576"><ele>268.25</ele><time>2026-03-22T08:34:56.998Z</time></trkpt><trkpt lat="43.64151876870411" lon="11.312366270370841"><ele>266.0</ele><time>2026-03-22T08:34:57.998Z</time></trkpt><trkpt lat="43.64162697969587" lon="11.312302155370624"><ele>266.0</ele><time>2026-03-22T08:34:58.998Z</time></trkpt><trkpt lat="43.64172156127304" lon="11.312214666439848"><ele>266.0</ele><time>2026-03-22T08:34:59.998Z</time></trkpt><trkpt lat="43.64180121948071" lon="11.312122887204387"><ele>266.0</ele><time>2026-03-22T08:35:00.998Z</time></trkpt><trkpt lat="43.641878619882746" lon="11.312035231509613"><ele>266.0</ele><time>2026-03-22T08:35:01.998Z</time></trkpt><trkpt lat="43.64194504285313" lon="11.311971086360327"><ele>266.0</ele><time>2026-03-22T08:35:02.998Z</time></trkpt><trkpt lat="43.64200485153832" lon="11.311918439477289"><ele>264.8</ele><time>2026-03-22T08:35:03.998Z</time></trkpt><trkpt lat="43.64211607513027" lon="11.311808482634"><ele>263.6</ele><time>2026-03-22T08:35:05.998Z</time></trkpt><trkpt lat="43.64218801132374" lon="11.311724297071809"><ele>262.4</ele><time>2026-03-22T08:35:06.998Z</time></trkpt><trkpt lat="43.642268517938724" lon="11.311635862596097"><ele>261.2</ele><time>2026-03-22T08:35:07.998Z</time></trkpt><trkpt lat="43.64235502354774" lon="11.311555684565217"><ele>260.0</ele><time>2026-03-22T08:35:08.998Z</time></trkpt><trkpt lat="43.642436087328775" lon="11.311475402983364"><ele>259.4</ele><time>2026-03-22T08:35:09.998Z</time></trkpt><trkpt lat="43.64251451002275" lon="11.311385747286884"><ele>258.8</ele><time>2026-03-22T08:35:10.998Z</time></trkpt><trkpt lat="43.64259259693139" lon="11.31129053068735"><ele>258.2</ele><time>2026-03-22T08:35:11.998Z</time></trkpt><trkpt lat="43.64266824148333" lon="11.311188251541644"><ele>257.6</ele><time>2026-03-22T08:35:12.998Z</time></trkpt><trkpt lat="43.64274654669877" lon="11.311078061396351"><ele>257.0</ele><time>2026-03-22T08:35:13.998Z</time></trkpt><trkpt lat="43.642819516492104" lon="11.310970652728763"><ele>257.0</ele><time>2026-03-22T08:35:14.998Z</time></trkpt><trkpt lat="43.64289727709208" lon="11.310862946920784"><ele>257.0</ele><time>2026-03-22T08:35:15.998Z</time></trkpt><trkpt lat="43.64297672237505" lon="11.310751130886487"><ele>257.0</ele><time>2026-03-22T08:35:16.998Z</time></trkpt><trkpt lat="43.6430543546721" lon="11.310640308788715"><ele>257.0</ele><time>2026-03-22T08:35:17.998Z</time></trkpt><trkpt lat="43.64312701981929" lon="11.310533727887982"><ele>257.0</ele><time>2026-03-22T08:35:18.998Z</time></trkpt><trkpt lat="43.643202091014466" lon="11.310422307099106"><ele>256.0</ele><time>2026-03-22T08:35:19.998Z</time></trkpt><trkpt lat="43.64327463282744" lon="11.310318188609198"><ele>255.0</ele><time>2026-03-22T08:35:20.998Z</time></trkpt><trkpt lat="43.64335012342641" lon="11.310209709976423"><ele>254.0</ele><time>2026-03-22T08:35:21.998Z</time></trkpt><trkpt lat="43.64342565217333" lon="11.310099226707237"><ele>253.0</ele><time>2026-03-22T08:35:22.998Z</time></trkpt><trkpt lat="43.64349750785752" lon="11.309996568560821"><ele>252.0</ele><time>2026-03-22T08:35:23.998Z</time></trkpt><trkpt lat="43.64357175244581" lon="11.309890410128808"><ele>251.25</ele><time>2026-03-22T08:35:24.998Z</time></trkpt><trkpt lat="43.64364623615521" lon="11.309779706762596"><ele>250.5</ele><time>2026-03-22T08:35:25.998Z</time></trkpt><trkpt lat="43.64371808345115" lon="11.309659877410189"><ele>249.75</ele><time>2026-03-22T08:35:26.998Z</time></trkpt><trkpt lat="43.64381469679271" lon="11.309527447603436"><ele>249.0</ele><time>2026-03-22T08:35:27.998Z</time></trkpt><trkpt lat="43.64391688148099" lon="11.309380802936644"><ele>249.0</ele><time>2026-03-22T08:35:28.998Z</time></trkpt><trkpt lat="43.644025726209904" lon="11.309229249074633"><ele>249.0</ele><time>2026-03-22T08:35:29.998Z</time></trkpt><trkpt lat="43.644134325396635" lon="11.309086012427773"><ele>249.0</ele><time>2026-03-22T08:35:30.998Z</time></trkpt><trkpt lat="43.644274082121235" lon="11.308883933558306"><ele>248.33333333333331</ele><time>2026-03-22T08:35:31.998Z</time></trkpt><trkpt lat="43.64439548664203" lon="11.308709527743622"><ele>247.66666666666666</ele><time>2026-03-22T08:35:33Z</time></trkpt><trkpt lat="43.64450639197115" lon="11.30854969486249"><ele>247.0</ele><time>2026-03-22T08:35:34Z</time></trkpt><trkpt lat="43.64461231190128" lon="11.308392862872134"><ele>249.66666666666666</ele><time>2026-03-22T08:35:35Z</time></trkpt><trkpt lat="43.64471878230432" lon="11.308239067837604"><ele>252.33333333333331</ele><time>2026-03-22T08:35:36Z</time></trkpt><trkpt lat="43.64483736605688" lon="11.308077863437092"><ele>255.0</ele><time>2026-03-22T08:35:37Z</time></trkpt><trkpt lat="43.64494695010149" lon="11.307922837215136"><ele>255.5</ele><time>2026-03-22T08:35:38Z</time></trkpt><trkpt lat="43.64505266272997" lon="11.307778329870446"><ele>256.0</ele><time>2026-03-22T08:35:39Z</time></trkpt><trkpt lat="43.64515271937241" lon="11.307640135542439"><ele>256.5</ele><time>2026-03-22T08:35:40Z</time></trkpt><trkpt lat="43.645249456729715" lon="11.307499100298307"><ele>257.0</ele><time>2026-03-22T08:35:41Z</time></trkpt><trkpt lat="43.64534838634464" lon="11.30735851446059"><ele>258.75</ele><time>2026-03-22T08:35:42Z</time></trkpt><trkpt lat="43.64544644421466" lon="11.307226455390841"><ele>260.5</ele><time>2026-03-22T08:35:43Z</time></trkpt><trkpt lat="43.64554431572444" lon="11.307090391578871"><ele>262.25</ele><time>2026-03-22T08:35:44Z</time></trkpt><trkpt lat="43.64563696041094" lon="11.306959487088953"><ele>264.0</ele><time>2026-03-22T08:35:45Z</time></trkpt><trkpt lat="43.64572074331925" lon="11.306835186030659"><ele>264.0</ele><time>2026-03-22T08:35:46Z</time></trkpt><trkpt lat="43.64579935169026" lon="11.306710120508901"><ele>264.0</ele><time>2026-03-22T08:35:47Z</time></trkpt><trkpt lat="43.64586695651176" lon="11.306579489418585"><ele>264.0</ele><time>2026-03-22T08:35:48Z</time></trkpt><trkpt lat="43.645910310847" lon="11.306425681039629"><ele>264.0</ele><time>2026-03-22T08:35:49Z</time></trkpt><trkpt lat="43.6459381186004" lon="11.306243628056071"><ele>263.75</ele><time>2026-03-22T08:35:50Z</time></trkpt><trkpt lat="43.64593942123237" lon="11.306057216167652"><ele>263.5</ele><time>2026-03-22T08:35:51Z</time></trkpt><trkpt lat="43.64593585277073" lon="11.305870074871823"><ele>263.25</ele><time>2026-03-22T08:35:52Z</time></trkpt><trkpt lat="43.645927933571265" lon="11.305672792514178"><ele>263.0</ele><time>2026-03-22T08:35:53Z</time></trkpt><trkpt lat="43.64591974851088" lon="11.305464307715285"><ele>262.33333333333337</ele><time>2026-03-22T08:35:54Z</time></trkpt><trkpt lat="43.645910943495444" lon="11.305244830122335"><ele>261.6666666666667</ele><time>2026-03-22T08:35:55Z</time></trkpt><trkpt lat="43.64590595834524" lon="11.305008484377682"><ele>261.0</ele><time>2026-03-22T08:35:55.999Z</time></trkpt><trkpt lat="43.64590450422199" lon="11.304782099909966"><ele>259.6666666666667</ele><time>2026-03-22T08:35:56.999Z</time></trkpt><trkpt lat="43.645903097785165" lon="11.304567406655414"><ele>258.33333333333337</ele><time>2026-03-22T08:35:57.999Z</time></trkpt><trkpt lat="43.645901399526274" lon="11.304333369842745"><ele>257.0</ele><time>2026-03-22T08:35:58.999Z</time></trkpt><trkpt lat="43.64589842889445" lon="11.30409893454618"><ele>257.33333333333337</ele><time>2026-03-22T08:35:59.999Z</time></trkpt><trkpt lat="43.645894405114745" lon="11.303865853262824"><ele>257.6666666666667</ele><time>2026-03-22T08:36:00.999Z</time></trkpt><trkpt lat="43.645890585856655" lon="11.303660554551673"><ele>258.0</ele><time>2026-03-22T08:36:01.999Z</time></trkpt><trkpt lat="43.645886010835106" lon="11.303459355361127"><ele>258.0</ele><time>2026-03-22T08:36:02.999Z</time></trkpt><trkpt lat="43.64588458015006" lon="11.303243125437263"><ele>258.0</ele><time>2026-03-22T08:36:03.999Z</time></trkpt><trkpt lat="43.64587987408655" lon="11.303019705602253"><ele>258.0</ele><time>2026-03-22T08:36:04.999Z</time></trkpt><trkpt lat="43.645876482103006" lon="11.30279340249393"><ele>260.0</ele><time>2026-03-22T08:36:05.999Z</time></trkpt><trkpt lat="43.64587471652753" lon="11.302588584672515"><ele>262.0</ele><time>2026-03-22T08:36:06.999Z</time></trkpt><trkpt lat="43.64587307211084" lon="11.302377507353322"><ele>264.0</ele><time>2026-03-22T08:36:07.999Z</time></trkpt><trkpt lat="43.64586940933301" lon="11.302169519578888"><ele>265.0</ele><time>2026-03-22T08:36:08.999Z</time></trkpt><trkpt lat="43.645852690568354" lon="11.301960661889524"><ele>266.0</ele><time>2026-03-22T08:36:09.999Z</time></trkpt><trkpt lat="43.64582127671803" lon="11.301741945327722"><ele>267.0</ele><time>2026-03-22T08:36:10.999Z</time></trkpt><trkpt lat="43.64578997187394" lon="11.301529700988967"><ele>267.5</ele><time>2026-03-22T08:36:11.999Z</time></trkpt><trkpt lat="43.64576149247878" lon="11.301332944686537"><ele>268.0</ele><time>2026-03-22T08:36:12.999Z</time></trkpt><trkpt lat="43.64573453700305" lon="11.301155120375626"><ele>268.5</ele><time>2026-03-22T08:36:13.999Z</time></trkpt><trkpt lat="43.64569313053796" lon="11.30096907795676"><ele>269.0</ele><time>2026-03-22T08:36:14.999Z</time></trkpt><trkpt lat="43.645615942614874" lon="11.300764518137626"><ele>268.6666666666667</ele><time>2026-03-22T08:36:15.999Z</time></trkpt><trkpt lat="43.645506657610454" lon="11.30055062405961"><ele>268.3333333333333</ele><time>2026-03-22T08:36:16.999Z</time></trkpt><trkpt lat="43.64540044423964" lon="11.300329806318253"><ele>268.0</ele><time>2026-03-22T08:36:17.999Z</time></trkpt><trkpt lat="43.64529481348194" lon="11.3001755276557"><ele>269.5</ele><time>2026-03-22T08:36:18.999Z</time></trkpt><trkpt lat="43.64521678156743" lon="11.300035137779734"><ele>271.0</ele><time>2026-03-22T08:36:19.999Z</time></trkpt><trkpt lat="43.64515001671223" lon="11.299896877125528"><ele>272.5</ele><time>2026-03-22T08:36:20.999Z</time></trkpt><trkpt lat="43.645100541027894" lon="11.299761020176057"><ele>274.0</ele><time>2026-03-22T08:36:21.999Z</time></trkpt><trkpt lat="43.645062522757286" lon="11.299623935341994"><ele>274.0</ele><time>2026-03-22T08:36:22.999Z</time></trkpt><trkpt lat="43.64503864952633" lon="11.299498824148094"><ele>274.0</ele><time>2026-03-22T08:36:23.999Z</time></trkpt><trkpt lat="43.64502613217977" lon="11.299396214066903"><ele>274.0</ele><time>2026-03-22T08:36:24.999Z</time></trkpt><trkpt lat="43.64502013163038" lon="11.299286973680053"><ele>274.0</ele><time>2026-03-22T08:36:25.999Z</time></trkpt><trkpt lat="43.64505690991668" lon="11.299137702290917"><ele>274.0</ele><time>2026-03-22T08:36:27.999Z</time></trkpt><trkpt lat="43.64509601102029" lon="11.299052305591475"><ele>274.0</ele><time>2026-03-22T08:36:29.999Z</time></trkpt><trkpt lat="43.6451238782359" lon="11.29896370296979"><ele>274.3333333333333</ele><time>2026-03-22T08:36:32.999Z</time></trkpt><trkpt lat="43.64515488700232" lon="11.298877135986116"><ele>274.66666666666663</ele><time>2026-03-22T08:36:37.999Z</time></trkpt><trkpt lat="43.64518862074815" lon="11.298780431582673"><ele>275.0</ele><time>2026-03-22T08:36:38.999Z</time></trkpt><trkpt lat="43.64523185845968" lon="11.298668331715204"><ele>275.3333333333333</ele><time>2026-03-22T08:36:39.999Z</time></trkpt><trkpt lat="43.64528111905693" lon="11.29855271865662"><ele>275.6666666666667</ele><time>2026-03-22T08:36:40.999Z</time></trkpt><trkpt lat="43.6453407946595" lon="11.298424100677186"><ele>276.0</ele><time>2026-03-22T08:36:41.999Z</time></trkpt><trkpt lat="43.6454002266341" lon="11.298300861115496"><ele>275.8333333333333</ele><time>2026-03-22T08:36:42.999Z</time></trkpt><trkpt lat="43.64544856087763" lon="11.298200778181481"><ele>275.6666666666667</ele><time>2026-03-22T08:36:43.999Z</time></trkpt><trkpt lat="43.64549567785627" lon="11.298102141556717"><ele>275.5</ele><time>2026-03-22T08:36:44.999Z</time></trkpt><trkpt lat="43.64553625856211" lon="11.29798928369941"><ele>275.33333333333337</ele><time>2026-03-22T08:36:45.999Z</time></trkpt><trkpt lat="43.6455570767354" lon="11.29790607468202"><ele>275.1666666666667</ele><time>2026-03-22T08:36:46.999Z</time></trkpt><trkpt lat="43.645565657432385" lon="11.297807731703639"><ele>275.0</ele><time>2026-03-22T08:36:48.999Z</time></trkpt><trkpt lat="43.64511704106396" lon="11.29723023798879"><ele>277.5</ele><time>2026-03-22T08:36:50.999Z</time></trkpt><trkpt lat="43.64511158455927" lon="11.297069279287802"><ele>280.0</ele><time>2026-03-22T08:36:51.999Z</time></trkpt><trkpt lat="43.64511736424598" lon="11.296894952499054"><ele>282.5</ele><time>2026-03-22T08:36:52.999Z</time></trkpt><trkpt lat="43.645138230591655" lon="11.296714034364749"><ele>285.0</ele><time>2026-03-22T08:36:53.999Z</time></trkpt><trkpt lat="43.64515046073031" lon="11.296554328512753"><ele>285.6</ele><time>2026-03-22T08:36:54.999Z</time></trkpt><trkpt lat="43.64515293535514" lon="11.296390876932394"><ele>286.2</ele><time>2026-03-22T08:36:55.999Z</time></trkpt><trkpt lat="43.6451547740769" lon="11.296247638967762"><ele>286.8</ele><time>2026-03-22T08:36:56.999Z</time></trkpt><trkpt lat="43.64514462071755" lon="11.296090008455174"><ele>287.4</ele><time>2026-03-22T08:36:57.999Z</time></trkpt><trkpt lat="43.64512003286398" lon="11.295946229786043"><ele>288.0</ele><time>2026-03-22T08:36:58.998Z</time></trkpt><trkpt lat="43.64511909249191" lon="11.295830534805294"><ele>288.0</ele><time>2026-03-22T08:36:59.998Z</time></trkpt><trkpt lat="43.64512059982406" lon="11.295734001337538"><ele>288.0</ele><time>2026-03-22T08:37:00.998Z</time></trkpt><trkpt lat="43.64508573550448" lon="11.295646816993184"><ele>288.0</ele><time>2026-03-22T08:37:01.998Z</time></trkpt><trkpt lat="43.64502813146383" lon="11.295536102938605"><ele>288.0</ele><time>2026-03-22T08:37:02.998Z</time></trkpt><trkpt lat="43.644988725573924" lon="11.295419979395241"><ele>288.0</ele><time>2026-03-22T08:37:03.998Z</time></trkpt><trkpt lat="43.644951297165164" lon="11.295305362402802"><ele>288.0</ele><time>2026-03-22T08:37:04.998Z</time></trkpt><trkpt lat="43.64489080537207" lon="11.295197701643653"><ele>287.5</ele><time>2026-03-22T08:37:05.998Z</time></trkpt><trkpt lat="43.644804620681036" lon="11.295079052570257"><ele>287.0</ele><time>2026-03-22T08:37:06.998Z</time></trkpt><trkpt lat="43.64473413488343" lon="11.294947976216614"><ele>286.5</ele><time>2026-03-22T08:37:07.998Z</time></trkpt><trkpt lat="43.64465728916715" lon="11.294841148390372"><ele>286.0</ele><time>2026-03-22T08:37:08.998Z</time></trkpt><trkpt lat="43.644542668219465" lon="11.294733764131939"><ele>286.75</ele><time>2026-03-22T08:37:09.998Z</time></trkpt><trkpt lat="43.64441567853361" lon="11.29462377201475"><ele>287.5</ele><time>2026-03-22T08:37:10.998Z</time></trkpt><trkpt lat="43.644283369705384" lon="11.294514901369265"><ele>288.25</ele><time>2026-03-22T08:37:11.998Z</time></trkpt><trkpt lat="43.64416825417732" lon="11.294425613171626"><ele>289.0</ele><time>2026-03-22T08:37:12.998Z</time></trkpt><trkpt lat="43.64406918982306" lon="11.294355921261046"><ele>289.0</ele><time>2026-03-22T08:37:13.998Z</time></trkpt><trkpt lat="43.643971342323745" lon="11.294270085734361"><ele>289.0</ele><time>2026-03-22T08:37:14.998Z</time></trkpt><trkpt lat="43.643872213707354" lon="11.29417554194019"><ele>289.0</ele><time>2026-03-22T08:37:15.998Z</time></trkpt><trkpt lat="43.643762549692084" lon="11.294068138885072"><ele>289.0</ele><time>2026-03-22T08:37:16.998Z</time></trkpt><trkpt lat="43.64364805677077" lon="11.293953424167784"><ele>288.0</ele><time>2026-03-22T08:37:17.998Z</time></trkpt><trkpt lat="43.643538512786854" lon="11.293835988860701"><ele>287.0</ele><time>2026-03-22T08:37:18.998Z</time></trkpt><trkpt lat="43.64343787268596" lon="11.293718940862293"><ele>286.0</ele><time>2026-03-22T08:37:19.998Z</time></trkpt><trkpt lat="43.64334381849115" lon="11.293626411984501"><ele>285.0</ele><time>2026-03-22T08:37:20.998Z</time></trkpt><trkpt lat="43.64324920184817" lon="11.293537777359694"><ele>285.0</ele><time>2026-03-22T08:37:21.998Z</time></trkpt><trkpt lat="43.64316173803881" lon="11.293448349918124"><ele>285.0</ele><time>2026-03-22T08:37:22.998Z</time></trkpt><trkpt lat="43.643090200072116" lon="11.293358936567987"><ele>285.0</ele><time>2026-03-22T08:37:23.998Z</time></trkpt><trkpt lat="43.64303795442273" lon="11.293252801740593"><ele>285.0</ele><time>2026-03-22T08:37:24.998Z</time></trkpt><trkpt lat="43.6430161409139" lon="11.293130320147936"><ele>285.0</ele><time>2026-03-22T08:37:25.998Z</time></trkpt><trkpt lat="43.64299967504742" lon="11.292959449402543"><ele>284.0</ele><time>2026-03-22T08:37:26.998Z</time></trkpt><trkpt lat="43.642986364681164" lon="11.292786562004105"><ele>283.0</ele><time>2026-03-22T08:37:27.998Z</time></trkpt><trkpt lat="43.64296640786651" lon="11.29261259238603"><ele>282.0</ele><time>2026-03-22T08:37:28.998Z</time></trkpt><trkpt lat="43.6429346882757" lon="11.292435227994739"><ele>281.0</ele><time>2026-03-22T08:37:29.998Z</time></trkpt><trkpt lat="43.64290489982287" lon="11.292269643575983"><ele>278.75</ele><time>2026-03-22T08:37:30.998Z</time></trkpt><trkpt lat="43.64287280383031" lon="11.292102642007453"><ele>276.5</ele><time>2026-03-22T08:37:31.998Z</time></trkpt><trkpt lat="43.64284625104672" lon="11.29194408212676"><ele>274.25</ele><time>2026-03-22T08:37:32.998Z</time></trkpt><trkpt lat="43.6428285082966" lon="11.291778527719996"><ele>272.0</ele><time>2026-03-22T08:37:33.998Z</time></trkpt><trkpt lat="43.64280541513161" lon="11.29159027099089"><ele>271.75</ele><time>2026-03-22T08:37:34.998Z</time></trkpt><trkpt lat="43.64278011184455" lon="11.29139231488329"><ele>271.5</ele><time>2026-03-22T08:37:35.998Z</time></trkpt><trkpt lat="43.642750005058005" lon="11.291196236340413"><ele>271.25</ele><time>2026-03-22T08:37:36.998Z</time></trkpt><trkpt lat="43.64272446666955" lon="11.29100274720336"><ele>271.0</ele><time>2026-03-22T08:37:37.998Z</time></trkpt><trkpt lat="43.64270049476153" lon="11.290829546424838"><ele>271.0</ele><time>2026-03-22T08:37:39Z</time></trkpt><trkpt lat="43.642671040606785" lon="11.290679245286933"><ele>271.0</ele><time>2026-03-22T08:37:40Z</time></trkpt><trkpt lat="43.64271498685289" lon="11.290492898843619"><ele>271.0</ele><time>2026-03-22T08:37:41Z</time></trkpt><trkpt lat="43.642677000492064" lon="11.290363050115054"><ele>271.0</ele><time>2026-03-22T08:37:42Z</time></trkpt><trkpt lat="43.64264704260833" lon="11.290232109189024"><ele>270.2</ele><time>2026-03-22T08:37:43Z</time></trkpt><trkpt lat="43.64262069792701" lon="11.290094970519622"><ele>269.40000000000003</ele><time>2026-03-22T08:37:44Z</time></trkpt><trkpt lat="43.64260367069852" lon="11.289960692337973"><ele>268.6</ele><time>2026-03-22T08:37:45Z</time></trkpt><trkpt lat="43.64258357308099" lon="11.289809832548919"><ele>267.8</ele><time>2026-03-22T08:37:46Z</time></trkpt><trkpt lat="43.64256293034548" lon="11.28965330009391"><ele>267.0</ele><time>2026-03-22T08:37:47Z</time></trkpt><trkpt lat="43.64254157192912" lon="11.289493217854824"><ele>266.4</ele><time>2026-03-22T08:37:48Z</time></trkpt><trkpt lat="43.64252156014948" lon="11.289343499507675"><ele>265.79999999999995</ele><time>2026-03-22T08:37:49Z</time></trkpt><trkpt lat="43.64250288992917" lon="11.28920381807259"><ele>265.2</ele><time>2026-03-22T08:37:50Z</time></trkpt><trkpt lat="43.64248315340941" lon="11.289056159219038"><ele>264.59999999999997</ele><time>2026-03-22T08:37:51Z</time></trkpt><trkpt lat="43.64246181094654" lon="11.288896485464143"><ele>264.0</ele><time>2026-03-22T08:37:52Z</time></trkpt><trkpt lat="43.64244001200393" lon="11.288733396839435"><ele>263.0</ele><time>2026-03-22T08:37:53Z</time></trkpt><trkpt lat="43.64241685765727" lon="11.288560167683958"><ele>262.0</ele><time>2026-03-22T08:37:54Z</time></trkpt><trkpt lat="43.64239462277719" lon="11.288393817045515"><ele>261.0</ele><time>2026-03-22T08:37:55Z</time></trkpt><trkpt lat="43.64237415597615" lon="11.288240694417667"><ele>260.0</ele><time>2026-03-22T08:37:56Z</time></trkpt><trkpt lat="43.64235381508201" lon="11.288088513779028"><ele>258.75</ele><time>2026-03-22T08:37:57Z</time></trkpt><trkpt lat="43.64233206317602" lon="11.287925777004746"><ele>257.5</ele><time>2026-03-22T08:37:58Z</time></trkpt><trkpt lat="43.64230881534109" lon="11.287751848161774"><ele>256.25</ele><time>2026-03-22T08:37:59Z</time></trkpt><trkpt lat="43.64228391604248" lon="11.287565564006405"><ele>255.0</ele><time>2026-03-22T08:37:59.999Z</time></trkpt><trkpt lat="43.642261136522606" lon="11.287395138495691"><ele>254.5</ele><time>2026-03-22T08:38:00.999Z</time></trkpt><trkpt lat="43.64224012773709" lon="11.287237566854415"><ele>254.0</ele><time>2026-03-22T08:38:01.999Z</time></trkpt><trkpt lat="43.642220101231665" lon="11.28708727722275"><ele>253.5</ele><time>2026-03-22T08:38:02.999Z</time></trkpt><trkpt lat="43.64219981114705" lon="11.28693501001007"><ele>253.0</ele><time>2026-03-22T08:38:03.999Z</time></trkpt><trkpt lat="43.64217763298516" lon="11.286768573272951"><ele>253.0</ele><time>2026-03-22T08:38:04.999Z</time></trkpt><trkpt lat="43.642155527497934" lon="11.286602682109672"><ele>253.0</ele><time>2026-03-22T08:38:05.999Z</time></trkpt><trkpt lat="43.642134554035955" lon="11.286445286230899"><ele>253.0</ele><time>2026-03-22T08:38:06.999Z</time></trkpt><trkpt lat="43.64211395777915" lon="11.28629072107885"><ele>253.0</ele><time>2026-03-22T08:38:07.999Z</time></trkpt><trkpt lat="43.64209263411573" lon="11.286134783654186"><ele>252.4</ele><time>2026-03-22T08:38:08.999Z</time></trkpt><trkpt lat="43.64207094934565" lon="11.285976282437197"><ele>251.8</ele><time>2026-03-22T08:38:09.999Z</time></trkpt><trkpt lat="43.64205066228366" lon="11.285827996743686"><ele>251.2</ele><time>2026-03-22T08:38:10.999Z</time></trkpt><trkpt lat="43.64203020905805" lon="11.285690711985591"><ele>250.6</ele><time>2026-03-22T08:38:11.999Z</time></trkpt><trkpt lat="43.64201078129775" lon="11.285552848852356"><ele>250.0</ele><time>2026-03-22T08:38:12.999Z</time></trkpt><trkpt lat="43.64199071072053" lon="11.285383397663534"><ele>249.25</ele><time>2026-03-22T08:38:13.999Z</time></trkpt><trkpt lat="43.64197340415891" lon="11.285189505058106"><ele>248.5</ele><time>2026-03-22T08:38:14.999Z</time></trkpt><trkpt lat="43.64197815973968" lon="11.28498965153942"><ele>247.75</ele><time>2026-03-22T08:38:15.999Z</time></trkpt><trkpt lat="43.64199623664283" lon="11.284781675846691"><ele>247.0</ele><time>2026-03-22T08:38:16.999Z</time></trkpt><trkpt lat="43.6420196756722" lon="11.28457019354766"><ele>247.0</ele><time>2026-03-22T08:38:17.999Z</time></trkpt><trkpt lat="43.64205860707807" lon="11.284357580040046"><ele>247.0</ele><time>2026-03-22T08:38:18.999Z</time></trkpt><trkpt lat="43.64206806427623" lon="11.284133866671274"><ele>247.0</ele><time>2026-03-22T08:38:19.999Z</time></trkpt><trkpt lat="43.642062025423556" lon="11.283937729870768"><ele>248.0</ele><time>2026-03-22T08:38:20.999Z</time></trkpt><trkpt lat="43.64205393838047" lon="11.283745111130573"><ele>249.0</ele><time>2026-03-22T08:38:21.999Z</time></trkpt><trkpt lat="43.64204692204103" lon="11.283598919460484"><ele>250.0</ele><time>2026-03-22T08:38:22.999Z</time></trkpt><trkpt lat="43.64202188148592" lon="11.283460251177646"><ele>251.0</ele><time>2026-03-22T08:38:23.999Z</time></trkpt><trkpt lat="43.64201580793994" lon="11.283348621773017"><ele>252.0</ele><time>2026-03-22T08:38:24.999Z</time></trkpt><trkpt lat="43.642005670662634" lon="11.283243477253235"><ele>251.75</ele><time>2026-03-22T08:38:25.999Z</time></trkpt><trkpt lat="43.64196890903631" lon="11.283097219934776"><ele>251.5</ele><time>2026-03-22T08:38:27.999Z</time></trkpt><trkpt lat="43.642152549653744" lon="11.282931086795756"><ele>251.25</ele><time>2026-03-22T08:38:31.999Z</time></trkpt><trkpt lat="43.64219698702108" lon="11.28284869665661"><ele>251.0</ele><time>2026-03-22T08:38:33.999Z</time></trkpt><trkpt lat="43.64225292888944" lon="11.282785003761225"><ele>251.0</ele><time>2026-03-22T08:38:35.999Z</time></trkpt><trkpt lat="43.64230540393416" lon="11.282715286736778"><ele>251.00000000000003</ele><time>2026-03-22T08:38:37.999Z</time></trkpt><trkpt lat="43.64234235159005" lon="11.282641746302751"><ele>251.00000000000003</ele><time>2026-03-22T08:38:39.999Z</time></trkpt><trkpt lat="43.64244513948374" lon="11.28253106119057"><ele>251.0</ele><time>2026-03-22T08:38:41.999Z</time></trkpt><trkpt lat="43.64250708046214" lon="11.282412929840566"><ele>251.0</ele><time>2026-03-22T08:38:43.999Z</time></trkpt><trkpt lat="43.642552703262446" lon="11.282324665486488"><ele>250.0</ele><time>2026-03-22T08:38:45.999Z</time></trkpt><trkpt lat="43.642608445557194" lon="11.282159281325924"><ele>249.00000000000003</ele><time>2026-03-22T08:38:47.999Z</time></trkpt><trkpt lat="43.64262244731254" lon="11.28203412109539"><ele>248.00000000000003</ele><time>2026-03-22T08:38:48.999Z</time></trkpt><trkpt lat="43.64263100782604" lon="11.281885159379216"><ele>247.0</ele><time>2026-03-22T08:38:49.999Z</time></trkpt><trkpt lat="43.642618060913755" lon="11.281728771259365"><ele>246.0</ele><time>2026-03-22T08:38:50.999Z</time></trkpt><trkpt lat="43.64259193183499" lon="11.281578622840403"><ele>244.25</ele><time>2026-03-22T08:38:51.999Z</time></trkpt><trkpt lat="43.642556593773506" lon="11.281413286475138"><ele>242.5</ele><time>2026-03-22T08:38:52.999Z</time></trkpt><trkpt lat="43.64252071638247" lon="11.281228771781937"><ele>240.75</ele><time>2026-03-22T08:38:53.999Z</time></trkpt><trkpt lat="43.6424831225092" lon="11.28103119157153"><ele>239.0</ele><time>2026-03-22T08:38:54.999Z</time></trkpt><trkpt lat="43.64245431724345" lon="11.280846456001584"><ele>239.0</ele><time>2026-03-22T08:38:55.999Z</time></trkpt><trkpt lat="43.64241938524389" lon="11.280655692539982"><ele>239.0</ele><time>2026-03-22T08:38:56.999Z</time></trkpt><trkpt lat="43.64237952830441" lon="11.28045162923097"><ele>239.0</ele><time>2026-03-22T08:38:57.999Z</time></trkpt><trkpt lat="43.64234289042037" lon="11.280264519878516"><ele>239.0</ele><time>2026-03-22T08:38:58.999Z</time></trkpt><trkpt lat="43.64231162405269" lon="11.28006603430032"><ele>237.75</ele><time>2026-03-22T08:38:59.999Z</time></trkpt><trkpt lat="43.64227968942936" lon="11.279878596227759"><ele>236.5</ele><time>2026-03-22T08:39:00.999Z</time></trkpt><trkpt lat="43.642244338995475" lon="11.27968566707726"><ele>235.25</ele><time>2026-03-22T08:39:01.998Z</time></trkpt><trkpt lat="43.64220879120328" lon="11.279504721733124"><ele>234.0</ele><time>2026-03-22T08:39:02.998Z</time></trkpt><trkpt lat="43.64217839872867" lon="11.27933366713965"><ele>234.39999999999998</ele><time>2026-03-22T08:39:03.998Z</time></trkpt><trkpt lat="43.64214998772349" lon="11.279175137608524"><ele>234.79999999999998</ele><time>2026-03-22T08:39:04.998Z</time></trkpt><trkpt lat="43.642125594198355" lon="11.279046610997582"><ele>235.20000000000002</ele><time>2026-03-22T08:39:05.998Z</time></trkpt><trkpt lat="43.642107192857615" lon="11.278936764325925"><ele>235.60000000000002</ele><time>2026-03-22T08:39:06.998Z</time></trkpt><trkpt lat="43.64211536795688" lon="11.278760954582545"><ele>236.0</ele><time>2026-03-22T08:39:08.998Z</time></trkpt><trkpt lat="43.642166811385295" lon="11.27865090561349"><ele>236.00000000000003</ele><time>2026-03-22T08:39:10.998Z</time></trkpt><trkpt lat="43.64217564714192" lon="11.278538424777523"><ele>236.0</ele><time>2026-03-22T08:39:13.998Z</time></trkpt><trkpt lat="43.642215971831554" lon="11.278452097744516"><ele>236.0</ele><time>2026-03-22T08:39:15.998Z</time></trkpt><trkpt lat="43.642267763949135" lon="11.278339112958195"><ele>236.0</ele><time>2026-03-22T08:39:17.998Z</time></trkpt><trkpt lat="43.64232476173076" lon="11.278260954958453"><ele>236.00000000000003</ele><time>2026-03-22T08:39:20.998Z</time></trkpt><trkpt lat="43.64239172922186" lon="11.278231723689245"><ele>236.0</ele><time>2026-03-22T08:39:22.998Z</time></trkpt><trkpt lat="43.642470113687196" lon="11.278119265454098"><ele>236.20000000000002</ele><time>2026-03-22T08:39:30.998Z</time></trkpt><trkpt lat="43.64258929748963" lon="11.2780543344928"><ele>236.40000000000003</ele><time>2026-03-22T08:39:32.998Z</time></trkpt><trkpt lat="43.642651593962924" lon="11.278040369584229"><ele>236.6</ele><time>2026-03-22T08:39:33.998Z</time></trkpt><trkpt lat="43.64276654759759" lon="11.277983027314482"><ele>236.8</ele><time>2026-03-22T08:39:35.998Z</time></trkpt><trkpt lat="43.64284772575063" lon="11.277937207990364"><ele>237.0</ele><time>2026-03-22T08:39:36.998Z</time></trkpt><trkpt lat="43.64293235087734" lon="11.277906302101343"><ele>237.0</ele><time>2026-03-22T08:39:37.998Z</time></trkpt><trkpt lat="43.64300347507549" lon="11.277896334330189"><ele>237.0</ele><time>2026-03-22T08:39:38.998Z</time></trkpt><trkpt lat="43.64308003338019" lon="11.27787835049475"><ele>237.0</ele><time>2026-03-22T08:39:39.998Z</time></trkpt><trkpt lat="43.6431832893217" lon="11.277826565065311"><ele>237.0</ele><time>2026-03-22T08:39:41.998Z</time></trkpt><trkpt lat="43.643297920801274" lon="11.277836985550318"><ele>237.0</ele><time>2026-03-22T08:39:44Z</time></trkpt><trkpt lat="43.64340079305746" lon="11.277845781545716"><ele>237.0</ele><time>2026-03-22T08:39:46Z</time></trkpt><trkpt lat="43.64351456029806" lon="11.27790947118562"><ele>237.0</ele><time>2026-03-22T08:39:48Z</time></trkpt><trkpt lat="43.643589656609215" lon="11.277923219144014"><ele>237.0</ele><time>2026-03-22T08:39:50Z</time></trkpt><trkpt lat="43.643488176465254" lon="11.277883830327902"><ele>237.0</ele><time>2026-03-22T08:40:03.999Z</time></trkpt><trkpt lat="43.64338744248527" lon="11.277846204939143"><ele>237.0</ele><time>2026-03-22T08:40:05.999Z</time></trkpt><trkpt lat="43.64327540430874" lon="11.277830954272419"><ele>237.0</ele><time>2026-03-22T08:40:07.999Z</time></trkpt><trkpt lat="43.64315920599858" lon="11.277837251868048"><ele>237.0</ele><time>2026-03-22T08:40:09.999Z</time></trkpt><trkpt lat="43.64308247705261" lon="11.277851656264348"><ele>237.0</ele><time>2026-03-22T08:40:10.999Z</time></trkpt><trkpt lat="43.64301296120003" lon="11.27789065770334"><ele>237.0</ele><time>2026-03-22T08:40:11.999Z</time></trkpt><trkpt lat="43.64289915242501" lon="11.277926280826716"><ele>237.0</ele><time>2026-03-22T08:40:13.999Z</time></trkpt><trkpt lat="43.64282031069404" lon="11.27795434975635"><ele>238.33333333333334</ele><time>2026-03-22T08:40:14.999Z</time></trkpt><trkpt lat="43.642739832859924" lon="11.277998507727132"><ele>239.66666666666669</ele><time>2026-03-22T08:40:15.999Z</time></trkpt><trkpt lat="43.6426612286236" lon="11.27804475483291"><ele>241.0</ele><time>2026-03-22T08:40:16.999Z</time></trkpt><trkpt lat="43.642559524520784" lon="11.278081315472617"><ele>242.33333333333334</ele><time>2026-03-22T08:40:18.999Z</time></trkpt><trkpt lat="43.64248582173097" lon="11.278069779301381"><ele>243.66666666666669</ele><time>2026-03-22T08:40:21.999Z</time></trkpt><trkpt lat="43.64241907276663" lon="11.278015602282872"><ele>245.0</ele><time>2026-03-22T08:40:38.999Z</time></trkpt><trkpt lat="43.64234867659549" lon="11.277918914137098"><ele>245.0</ele><time>2026-03-22T08:40:40.999Z</time></trkpt><trkpt lat="43.64236360218776" lon="11.27775759737168"><ele>245.0</ele><time>2026-03-22T08:40:42.999Z</time></trkpt><trkpt lat="43.64240606335861" lon="11.277661450273408"><ele>245.0</ele><time>2026-03-22T08:40:43.999Z</time></trkpt><trkpt lat="43.64243059239754" lon="11.277537197618443"><ele>245.0</ele><time>2026-03-22T08:40:44.999Z</time></trkpt><trkpt lat="43.64246845961661" lon="11.27743849666895"><ele>245.0</ele><time>2026-03-22T08:40:45.999Z</time></trkpt><trkpt lat="43.64253789254999" lon="11.27732775927143"><ele>244.6</ele><time>2026-03-22T08:40:46.999Z</time></trkpt><trkpt lat="43.642596826800286" lon="11.27720586285953"><ele>244.2</ele><time>2026-03-22T08:40:47.999Z</time></trkpt><trkpt lat="43.642630044160214" lon="11.277117373606828"><ele>243.8</ele><time>2026-03-22T08:40:48.999Z</time></trkpt><trkpt lat="43.64269614530668" lon="11.276996219176642"><ele>243.4</ele><time>2026-03-22T08:40:51.999Z</time></trkpt><trkpt lat="43.64273991002109" lon="11.276873228281918"><ele>243.0</ele><time>2026-03-22T08:40:53.999Z</time></trkpt><trkpt lat="43.642750660565255" lon="11.276771423849016"><ele>243.0</ele><time>2026-03-22T08:40:55.999Z</time></trkpt><trkpt lat="43.64275115788711" lon="11.27668152986351"><ele>243.0</ele><time>2026-03-22T08:40:57.999Z</time></trkpt><trkpt lat="43.64283028907851" lon="11.276635014427528"><ele>243.0</ele><time>2026-03-22T08:40:59.999Z</time></trkpt><trkpt lat="43.642902432078564" lon="11.276633858519455"><ele>243.0</ele><time>2026-03-22T08:41:00.999Z</time></trkpt><trkpt lat="43.64297326629266" lon="11.276612664692273"><ele>243.0</ele><time>2026-03-22T08:41:01.999Z</time></trkpt><trkpt lat="43.64306841465004" lon="11.276512115590169"><ele>243.0</ele><time>2026-03-22T08:41:03.999Z</time></trkpt><trkpt lat="43.64310643291096" lon="11.276417809647658"><ele>242.0</ele><time>2026-03-22T08:41:04.998Z</time></trkpt><trkpt lat="43.643150469335055" lon="11.276318888854183"><ele>241.0</ele><time>2026-03-22T08:41:05.998Z</time></trkpt><trkpt lat="43.643194863908036" lon="11.276222062283516"><ele>240.0</ele><time>2026-03-22T08:41:06.998Z</time></trkpt><trkpt lat="43.64323518476954" lon="11.276152242731209"><ele>239.0</ele><time>2026-03-22T08:41:07.998Z</time></trkpt><trkpt lat="43.6432705832493" lon="11.27605906528844"><ele>238.0</ele><time>2026-03-22T08:41:09.998Z</time></trkpt><trkpt lat="43.64332990980195" lon="11.275931317512276"><ele>237.0</ele><time>2026-03-22T08:41:12.998Z</time></trkpt><trkpt lat="43.64342553725309" lon="11.275783367315237"><ele>237.0</ele><time>2026-03-22T08:41:14.998Z</time></trkpt><trkpt lat="43.64349215297867" lon="11.275683162685574"><ele>237.0</ele><time>2026-03-22T08:41:15.998Z</time></trkpt><trkpt lat="43.64354571167754" lon="11.275593046619694"><ele>237.0</ele><time>2026-03-22T08:41:16.998Z</time></trkpt><trkpt lat="43.64360317308277" lon="11.27550407290863"><ele>237.0</ele><time>2026-03-22T08:41:18.998Z</time></trkpt><trkpt lat="43.643653798927" lon="11.275426571424271"><ele>237.0</ele><time>2026-03-22T08:41:20.998Z</time></trkpt><trkpt lat="43.643699941794786" lon="11.275362077498439"><ele>237.0</ele><time>2026-03-22T08:41:21.998Z</time></trkpt><trkpt lat="43.64375043868411" lon="11.275280412602118"><ele>237.0</ele><time>2026-03-22T08:41:22.998Z</time></trkpt><trkpt lat="43.643790409106956" lon="11.275188751281808"><ele>237.0</ele><time>2026-03-22T08:41:23.998Z</time></trkpt><trkpt lat="43.64382975118586" lon="11.27502977167164"><ele>237.0</ele><time>2026-03-22T08:41:24.998Z</time></trkpt><trkpt lat="43.64389337520135" lon="11.274849437580063"><ele>237.0</ele><time>2026-03-22T08:41:25.998Z</time></trkpt><trkpt lat="43.64396433544736" lon="11.274684652673434"><ele>237.0</ele><time>2026-03-22T08:41:26.998Z</time></trkpt><trkpt lat="43.644014107474234" lon="11.274552679279262"><ele>237.0</ele><time>2026-03-22T08:41:27.998Z</time></trkpt><trkpt lat="43.64405291778077" lon="11.274450685230201"><ele>237.0</ele><time>2026-03-22T08:41:28.998Z</time></trkpt><trkpt lat="43.64408975524444" lon="11.274339036984482"><ele>237.0</ele><time>2026-03-22T08:41:29.998Z</time></trkpt><trkpt lat="43.644127841653265" lon="11.274230203566447"><ele>237.0</ele><time>2026-03-22T08:41:30.998Z</time></trkpt><trkpt lat="43.644153010015145" lon="11.274137913605099"><ele>237.0</ele><time>2026-03-22T08:41:31.998Z</time></trkpt><trkpt lat="43.64416190942886" lon="11.274040158639517"><ele>235.33333333333334</ele><time>2026-03-22T08:41:32.998Z</time></trkpt><trkpt lat="43.64417171495408" lon="11.273930612186646"><ele>233.66666666666669</ele><time>2026-03-22T08:41:33.998Z</time></trkpt><trkpt lat="43.64419016386662" lon="11.273834201918698"><ele>232.0</ele><time>2026-03-22T08:41:34.998Z</time></trkpt><trkpt lat="43.644233396524484" lon="11.273746031593031"><ele>230.33333333333334</ele><time>2026-03-22T08:41:35.998Z</time></trkpt><trkpt lat="43.64427341542309" lon="11.273669317874"><ele>228.66666666666669</ele><time>2026-03-22T08:41:36.998Z</time></trkpt><trkpt lat="43.6443123764909" lon="11.273523333871157"><ele>227.0</ele><time>2026-03-22T08:41:38.998Z</time></trkpt><trkpt lat="43.64428294987273" lon="11.273405534756346"><ele>227.0</ele><time>2026-03-22T08:41:40.998Z</time></trkpt><trkpt lat="43.64438058356345" lon="11.273235921224094"><ele>227.0</ele><time>2026-03-22T08:41:42.998Z</time></trkpt><trkpt lat="43.644472218573185" lon="11.27314013355887"><ele>227.0</ele><time>2026-03-22T08:41:43.998Z</time></trkpt><trkpt lat="43.64453954585802" lon="11.272999207001057"><ele>227.0</ele><time>2026-03-22T08:41:44.998Z</time></trkpt><trkpt lat="43.644587854333665" lon="11.272849692940142"><ele>224.5</ele><time>2026-03-22T08:41:45.998Z</time></trkpt><trkpt lat="43.6446390809527" lon="11.272701417811712"><ele>222.0</ele><time>2026-03-22T08:41:46.998Z</time></trkpt><trkpt lat="43.64469388150099" lon="11.272555192259158"><ele>219.5</ele><time>2026-03-22T08:41:47.998Z</time></trkpt><trkpt lat="43.644738698636395" lon="11.272412945334208"><ele>217.0</ele><time>2026-03-22T08:41:49Z</time></trkpt><trkpt lat="43.64477607242899" lon="11.272268317321224"><ele>214.75</ele><time>2026-03-22T08:41:50Z</time></trkpt><trkpt lat="43.64482204128306" lon="11.272122412281886"><ele>212.5</ele><time>2026-03-22T08:41:51Z</time></trkpt><trkpt lat="43.64487315660972" lon="11.271969670577985"><ele>210.25</ele><time>2026-03-22T08:41:52Z</time></trkpt><trkpt lat="43.64493466970505" lon="11.2718078674412"><ele>208.0</ele><time>2026-03-22T08:41:53Z</time></trkpt><trkpt lat="43.64498084053357" lon="11.27166217576798"><ele>208.0</ele><time>2026-03-22T08:41:54Z</time></trkpt><trkpt lat="43.64501037814906" lon="11.271526547573101"><ele>208.0</ele><time>2026-03-22T08:41:55Z</time></trkpt><trkpt lat="43.64502834275987" lon="11.271388278544398"><ele>208.0</ele><time>2026-03-22T08:41:56Z</time></trkpt><trkpt lat="43.64504539727857" lon="11.27124142793036"><ele>208.0</ele><time>2026-03-22T08:41:57Z</time></trkpt><trkpt lat="43.64506861937612" lon="11.271083190825676"><ele>208.0</ele><time>2026-03-22T08:41:58Z</time></trkpt><trkpt lat="43.645099755487465" lon="11.270934689076048"><ele>206.5</ele><time>2026-03-22T08:41:59Z</time></trkpt><trkpt lat="43.645147242424045" lon="11.270795427708787"><ele>205.0</ele><time>2026-03-22T08:42:00Z</time></trkpt><trkpt lat="43.64520837697473" lon="11.270640352283072"><ele>203.5</ele><time>2026-03-22T08:42:01Z</time></trkpt><trkpt lat="43.64526696053459" lon="11.270483001253787"><ele>202.0</ele><time>2026-03-22T08:42:02Z</time></trkpt><trkpt lat="43.64531692033154" lon="11.270328413431889"><ele>200.5</ele><time>2026-03-22T08:42:03Z</time></trkpt><trkpt lat="43.64535912852436" lon="11.270167457185622"><ele>199.0</ele><time>2026-03-22T08:42:04Z</time></trkpt><trkpt lat="43.64539566179775" lon="11.270015006894537"><ele>197.5</ele><time>2026-03-22T08:42:04.999Z</time></trkpt><trkpt lat="43.64544467112392" lon="11.269895446503622"><ele>196.0</ele><time>2026-03-22T08:42:05.999Z</time></trkpt><trkpt lat="43.64550759568143" lon="11.269768172369956"><ele>194.20000000000002</ele><time>2026-03-22T08:42:06.999Z</time></trkpt><trkpt lat="43.64557960493417" lon="11.269649981617341"><ele>192.4</ele><time>2026-03-22T08:42:07.999Z</time></trkpt><trkpt lat="43.64565310251574" lon="11.269562788391266"><ele>190.6</ele><time>2026-03-22T08:42:08.999Z</time></trkpt><trkpt lat="43.64572011184955" lon="11.269484832917543"><ele>188.8</ele><time>2026-03-22T08:42:09.999Z</time></trkpt><trkpt lat="43.64579439257339" lon="11.269428918630458"><ele>187.0</ele><time>2026-03-22T08:42:10.999Z</time></trkpt><trkpt lat="43.64588932233861" lon="11.26940433233562"><ele>187.0</ele><time>2026-03-22T08:42:11.999Z</time></trkpt><trkpt lat="43.64598786656746" lon="11.269390483797144"><ele>187.0</ele><time>2026-03-22T08:42:12.999Z</time></trkpt><trkpt lat="43.64605310440897" lon="11.26936364114941"><ele>187.0</ele><time>2026-03-22T08:42:13.999Z</time></trkpt><trkpt lat="43.64611928753142" lon="11.269297796029356"><ele>187.0</ele><time>2026-03-22T08:42:15.999Z</time></trkpt><trkpt lat="43.646107995611814" lon="11.26939606298584"><ele>187.0</ele><time>2026-03-22T08:42:34.999Z</time></trkpt><trkpt lat="43.64605114477597" lon="11.26953197021802"><ele>187.0</ele><time>2026-03-22T08:42:36.999Z</time></trkpt><trkpt lat="43.64599919885132" lon="11.26963493532365"><ele>187.0</ele><time>2026-03-22T08:42:38.999Z</time></trkpt><trkpt lat="43.64596363027566" lon="11.269739546783256"><ele>187.0</ele><time>2026-03-22T08:42:40.999Z</time></trkpt><trkpt lat="43.64595811758841" lon="11.269868643187309"><ele>187.0</ele><time>2026-03-22T08:42:42.999Z</time></trkpt><trkpt lat="43.64589682351106" lon="11.270004923313099"><ele>187.0</ele><time>2026-03-22T08:42:45.999Z</time></trkpt><trkpt lat="43.645881841306476" lon="11.27012826565826"><ele>187.0</ele><time>2026-03-22T08:42:47.999Z</time></trkpt><trkpt lat="43.645863360911875" lon="11.270286377323567"><ele>188.5</ele><time>2026-03-22T08:42:49.999Z</time></trkpt><trkpt lat="43.64582964454059" lon="11.270367430066704"><ele>190.0</ele><time>2026-03-22T08:42:50.999Z</time></trkpt><trkpt lat="43.645763679686965" lon="11.270448867424978"><ele>191.5</ele><time>2026-03-22T08:42:51.999Z</time></trkpt><trkpt lat="43.64570672208699" lon="11.270526358855689"><ele>193.0</ele><time>2026-03-22T08:42:52.999Z</time></trkpt><trkpt lat="43.64570385258123" lon="11.270648709588755"><ele>194.49999999999997</ele><time>2026-03-22T08:42:54.999Z</time></trkpt><trkpt lat="43.64571390833053" lon="11.270791801950095"><ele>196.0</ele><time>2026-03-22T08:42:55.999Z</time></trkpt><trkpt lat="43.645716989752835" lon="11.270956939239522"><ele>196.0</ele><time>2026-03-22T08:42:56.999Z</time></trkpt><trkpt lat="43.645724662589004" lon="11.271056531614617"><ele>196.0</ele><time>2026-03-22T08:42:57.999Z</time></trkpt><trkpt lat="43.6457311706553" lon="11.271160088055606"><ele>196.0</ele><time>2026-03-22T08:42:59.999Z</time></trkpt><trkpt lat="43.64571948932615" lon="11.271334102777816"><ele>196.0</ele><time>2026-03-22T08:43:01.999Z</time></trkpt><trkpt lat="43.645767199790015" lon="11.271521424530663"><ele>196.0</ele><time>2026-03-22T08:43:04.999Z</time></trkpt><trkpt lat="43.64581507427613" lon="11.271646610569922"><ele>196.49999999999997</ele><time>2026-03-22T08:43:05.999Z</time></trkpt><trkpt lat="43.6458442544535" lon="11.271747600613297"><ele>197.0</ele><time>2026-03-22T08:43:06.999Z</time></trkpt><trkpt lat="43.64583282726824" lon="11.271898157564964"><ele>197.5</ele><time>2026-03-22T08:43:08.998Z</time></trkpt><trkpt lat="43.64584258228308" lon="11.271992059349465"><ele>198.0</ele><time>2026-03-22T08:43:10.998Z</time></trkpt><trkpt lat="43.645841652611196" lon="11.27209945744755"><ele>198.49999999999997</ele><time>2026-03-22T08:43:13.998Z</time></trkpt><trkpt lat="43.64584345408625" lon="11.272196302026174"><ele>199.0</ele><time>2026-03-22T08:43:18.998Z</time></trkpt><trkpt lat="43.64586172841281" lon="11.27234272813306"><ele>200.2</ele><time>2026-03-22T08:43:21.998Z</time></trkpt><trkpt lat="43.64588255102504" lon="11.272447321434308"><ele>201.39999999999998</ele><time>2026-03-22T08:43:22.998Z</time></trkpt><trkpt lat="43.64592824591294" lon="11.272569785754902"><ele>202.6</ele><time>2026-03-22T08:43:23.998Z</time></trkpt><trkpt lat="43.64599067605544" lon="11.272713463590529"><ele>203.8</ele><time>2026-03-22T08:43:24.998Z</time></trkpt><trkpt lat="43.64605359842206" lon="11.272815645451212"><ele>205.0</ele><time>2026-03-22T08:43:25.998Z</time></trkpt><trkpt lat="43.64615232403437" lon="11.272834750656118"><ele>202.49999999999997</ele><time>2026-03-22T08:43:27.998Z</time></trkpt><trkpt lat="43.646218894611515" lon="11.272865144859132"><ele>200.0</ele><time>2026-03-22T08:43:28.998Z</time></trkpt><trkpt lat="43.64626933103698" lon="11.272925803824279"><ele>197.5</ele><time>2026-03-22T08:43:29.999Z</time></trkpt><trkpt lat="43.64631200846409" lon="11.273080247421976"><ele>195.0</ele><time>2026-03-22T08:43:31.999Z</time></trkpt><trkpt lat="43.64630110818122" lon="11.273166265538746"><ele>192.5</ele><time>2026-03-22T08:43:32.999Z</time></trkpt><trkpt lat="43.64627009375921" lon="11.273270082216962"><ele>190.0</ele><time>2026-03-22T08:43:33.999Z</time></trkpt><trkpt lat="43.646247081333996" lon="11.27340507632785"><ele>190.0</ele><time>2026-03-22T08:43:34.999Z</time></trkpt><trkpt lat="43.64622861529669" lon="11.273564179476208"><ele>190.0</ele><time>2026-03-22T08:43:35.999Z</time></trkpt><trkpt lat="43.64623394065849" lon="11.273705338022895"><ele>190.0</ele><time>2026-03-22T08:43:36.999Z</time></trkpt><trkpt lat="43.64625516879105" lon="11.273803931436229"><ele>190.0</ele><time>2026-03-22T08:43:37.999Z</time></trkpt><trkpt lat="43.64629942448496" lon="11.273895622510562"><ele>190.0</ele><time>2026-03-22T08:43:38.999Z</time></trkpt><trkpt lat="43.64635305419476" lon="11.274000709035604"><ele>190.5</ele><time>2026-03-22T08:43:39.999Z</time></trkpt><trkpt lat="43.64639413839379" lon="11.27406667523065"><ele>191.0</ele><time>2026-03-22T08:43:40.999Z</time></trkpt><trkpt lat="43.64645030651958" lon="11.274137622554823"><ele>191.5</ele><time>2026-03-22T08:43:42.999Z</time></trkpt><trkpt lat="43.64648381277426" lon="11.274253982716472"><ele>192.0</ele><time>2026-03-22T08:43:44.999Z</time></trkpt><trkpt lat="43.64646653550255" lon="11.274382572858658"><ele>192.49999999999997</ele><time>2026-03-22T08:43:46.999Z</time></trkpt><trkpt lat="43.64642379451922" lon="11.274466703027825"><ele>193.0</ele><time>2026-03-22T08:43:48.999Z</time></trkpt><trkpt lat="43.6463704273335" lon="11.274523760671936"><ele>193.0</ele><time>2026-03-22T08:43:49.999Z</time></trkpt><trkpt lat="43.646292083075565" lon="11.274604975915738"><ele>193.0</ele><time>2026-03-22T08:43:51.999Z</time></trkpt><trkpt lat="43.64631675110329" lon="11.27469090343344"><ele>193.0</ele><time>2026-03-22T08:43:54Z</time></trkpt><trkpt lat="43.64638242314094" lon="11.274739907247408"><ele>193.0</ele><time>2026-03-22T08:43:56Z</time></trkpt><trkpt lat="43.64647897937849" lon="11.274797978127868"><ele>193.0</ele><time>2026-03-22T08:43:58Z</time></trkpt><trkpt lat="43.64654609364359" lon="11.274914951128542"><ele>192.99999999999997</ele><time>2026-03-22T08:44:00Z</time></trkpt><trkpt lat="43.64661921288223" lon="11.274977557935479"><ele>193.0</ele><time>2026-03-22T08:44:03Z</time></trkpt><trkpt lat="43.64669068388382" lon="11.27509327740311"><ele>193.0</ele><time>2026-03-22T08:44:05Z</time></trkpt><trkpt lat="43.646714450269805" lon="11.275175668991311"><ele>193.0</ele><time>2026-03-22T08:44:06Z</time></trkpt><trkpt lat="43.64677218748135" lon="11.275242706907536"><ele>192.99999999999997</ele><time>2026-03-22T08:44:07.001Z</time></trkpt><trkpt lat="43.64683923166678" lon="11.275300538332315"><ele>193.0</ele><time>2026-03-22T08:44:08Z</time></trkpt><trkpt lat="43.646934496735014" lon="11.275436025486522"><ele>189.8</ele><time>2026-03-22T08:44:10Z</time></trkpt><trkpt lat="43.64697595801146" lon="11.275553093144758"><ele>186.60000000000002</ele><time>2026-03-22T08:44:11Z</time></trkpt><trkpt lat="43.64700347638423" lon="11.275681371773459"><ele>183.39999999999998</ele><time>2026-03-22T08:44:12Z</time></trkpt><trkpt lat="43.647025611419245" lon="11.275801222571754"><ele>180.2</ele><time>2026-03-22T08:44:13Z</time></trkpt><trkpt lat="43.64703998508718" lon="11.275892262712432"><ele>177.0</ele><time>2026-03-22T08:44:14Z</time></trkpt><trkpt lat="43.64706727177692" lon="11.276077611787398"><ele>177.0</ele><time>2026-03-22T08:44:16Z</time></trkpt><trkpt lat="43.647124830222836" lon="11.276209781406052"><ele>177.0</ele><time>2026-03-22T08:44:18Z</time></trkpt><trkpt lat="43.647236928977435" lon="11.27627339599606"><ele>177.0</ele><time>2026-03-22T08:44:20Z</time></trkpt><trkpt lat="43.64730132666621" lon="11.276321202032543"><ele>177.0</ele><time>2026-03-22T08:44:21Z</time></trkpt><trkpt lat="43.64735927668827" lon="11.276382085274507"><ele>177.0</ele><time>2026-03-22T08:44:22Z</time></trkpt><trkpt lat="43.64742147862628" lon="11.276441886884735"><ele>176.66666666666666</ele><time>2026-03-22T08:44:23Z</time></trkpt><trkpt lat="43.64749619726007" lon="11.27650410763232"><ele>176.33333333333334</ele><time>2026-03-22T08:44:24Z</time></trkpt><trkpt lat="43.64756195956807" lon="11.27653003961743"><ele>176.0</ele><time>2026-03-22T08:44:25Z</time></trkpt><trkpt lat="43.64764349745486" lon="11.276545227048855"><ele>175.66666666666669</ele><time>2026-03-22T08:44:26Z</time></trkpt><trkpt lat="43.64771944739502" lon="11.276552615905747"><ele>175.33333333333334</ele><time>2026-03-22T08:44:27Z</time></trkpt><trkpt lat="43.64779584231682" lon="11.276611282299985"><ele>175.0</ele><time>2026-03-22T08:44:29Z</time></trkpt><trkpt lat="43.647785615726825" lon="11.276704126755646"><ele>175.0</ele><time>2026-03-22T08:44:30Z</time></trkpt><trkpt lat="43.647740790270625" lon="11.276802625710241"><ele>175.0</ele><time>2026-03-22T08:44:31Z</time></trkpt><trkpt lat="43.647694917653666" lon="11.276885449888669"><ele>175.0</ele><time>2026-03-22T08:44:32Z</time></trkpt><trkpt lat="43.647696812279605" lon="11.276976633257993"><ele>175.0</ele><time>2026-03-22T08:44:34Z</time></trkpt><trkpt lat="43.647722503564886" lon="11.277076186888833"><ele>175.0</ele><time>2026-03-22T08:44:36Z</time></trkpt><trkpt lat="43.64777392418335" lon="11.277178193719047"><ele>175.0</ele><time>2026-03-22T08:45:24.999Z</time></trkpt><trkpt lat="43.64781975455484" lon="11.277255774376846"><ele>175.0</ele><time>2026-03-22T08:45:25.999Z</time></trkpt><trkpt lat="43.64786372673534" lon="11.277345990857924"><ele>175.0</ele><time>2026-03-22T08:45:26.999Z</time></trkpt><trkpt lat="43.647894962949756" lon="11.277536956948822"><ele>175.0</ele><time>2026-03-22T08:45:28.999Z</time></trkpt><trkpt lat="43.64794990104748" lon="11.27763167627415"><ele>175.0</ele><time>2026-03-22T08:45:29.999Z</time></trkpt><trkpt lat="43.64802044054287" lon="11.277742402237728"><ele>175.0</ele><time>2026-03-22T08:45:31.999Z</time></trkpt><trkpt lat="43.648054388243196" lon="11.277827852127894"><ele>175.0</ele><time>2026-03-22T08:45:32.999Z</time></trkpt><trkpt lat="43.64809507153234" lon="11.277920880816632"><ele>175.0</ele><time>2026-03-22T08:45:33.999Z</time></trkpt><trkpt lat="43.648131376569076" lon="11.278020245113854"><ele>175.0</ele><time>2026-03-22T08:45:34.999Z</time></trkpt><trkpt lat="43.64817000991977" lon="11.278172325945784"><ele>175.0</ele><time>2026-03-22T08:45:36.999Z</time></trkpt><trkpt lat="43.64817008907057" lon="11.278275812033753"><ele>175.0</ele><time>2026-03-22T08:45:37.999Z</time></trkpt><trkpt lat="43.64818348075375" lon="11.278468216019053"><ele>176.5</ele><time>2026-03-22T08:45:39.999Z</time></trkpt><trkpt lat="43.648164068560426" lon="11.278594729982247"><ele>178.0</ele><time>2026-03-22T08:45:40.999Z</time></trkpt><trkpt lat="43.64817293954923" lon="11.278710436385971"><ele>179.5</ele><time>2026-03-22T08:45:41.999Z</time></trkpt><trkpt lat="43.6482087647665" lon="11.278786504507053"><ele>181.0</ele><time>2026-03-22T08:45:42.999Z</time></trkpt><trkpt lat="43.648310952173276" lon="11.278891955599622"><ele>182.5</ele><time>2026-03-22T08:45:44.999Z</time></trkpt><trkpt lat="43.64834640347558" lon="11.278971862818244"><ele>184.0</ele><time>2026-03-22T08:45:45.999Z</time></trkpt><trkpt lat="43.64837392245697" lon="11.2790573266415"><ele>186.2</ele><time>2026-03-22T08:45:46.999Z</time></trkpt><trkpt lat="43.64842290350335" lon="11.279131764071407"><ele>188.39999999999998</ele><time>2026-03-22T08:45:47.999Z</time></trkpt><trkpt lat="43.64848601236203" lon="11.279259283503567"><ele>190.6</ele><time>2026-03-22T08:45:48.999Z</time></trkpt><trkpt lat="43.648520188377084" lon="11.279386941055902"><ele>192.8</ele><time>2026-03-22T08:45:49.999Z</time></trkpt><trkpt lat="43.64856025888466" lon="11.279511107081579"><ele>195.0</ele><time>2026-03-22T08:45:50.999Z</time></trkpt><trkpt lat="43.648619359420316" lon="11.27959750275073"><ele>194.8</ele><time>2026-03-22T08:45:51.999Z</time></trkpt><trkpt lat="43.64867382920373" lon="11.279662450954719"><ele>194.6</ele><time>2026-03-22T08:45:52.999Z</time></trkpt><trkpt lat="43.64866725820112" lon="11.279856002906563"><ele>194.39999999999998</ele><time>2026-03-22T08:45:54.999Z</time></trkpt><trkpt lat="43.64865830962195" lon="11.279994414796926"><ele>194.2</ele><time>2026-03-22T08:45:55.999Z</time></trkpt><trkpt lat="43.64866822516307" lon="11.28009003977752"><ele>194.0</ele><time>2026-03-22T08:45:56.999Z</time></trkpt><trkpt lat="43.64869217576844" lon="11.280232042701082"><ele>195.50000000000003</ele><time>2026-03-22T08:45:58.999Z</time></trkpt><trkpt lat="43.6487122296968" lon="11.280334184458981"><ele>197.0</ele><time>2026-03-22T08:46:00Z</time></trkpt><trkpt lat="43.64872416507276" lon="11.280425477123673"><ele>198.5</ele><time>2026-03-22T08:46:01Z</time></trkpt><trkpt lat="43.648738449285" lon="11.28053901200148"><ele>200.0</ele><time>2026-03-22T08:46:02Z</time></trkpt><trkpt lat="43.64875084527711" lon="11.280659484143719"><ele>201.50000000000003</ele><time>2026-03-22T08:46:03Z</time></trkpt><trkpt lat="43.64877341323995" lon="11.280773788107226"><ele>203.0</ele><time>2026-03-22T08:46:04Z</time></trkpt><trkpt lat="43.64879017565537" lon="11.280875028444154"><ele>203.66666666666669</ele><time>2026-03-22T08:46:05Z</time></trkpt><trkpt lat="43.648805335506765" lon="11.280974333156886"><ele>204.33333333333334</ele><time>2026-03-22T08:46:06Z</time></trkpt><trkpt lat="43.6488181466415" lon="11.281066193687364"><ele>205.0</ele><time>2026-03-22T08:46:07Z</time></trkpt><trkpt lat="43.648842101364146" lon="11.281229989279264"><ele>205.66666666666669</ele><time>2026-03-22T08:46:09Z</time></trkpt><trkpt lat="43.648846886476086" lon="11.281332657571443"><ele>206.33333333333334</ele><time>2026-03-22T08:46:10Z</time></trkpt><trkpt lat="43.64886405765638" lon="11.281453653774495"><ele>207.0</ele><time>2026-03-22T08:46:11Z</time></trkpt><trkpt lat="43.648878524827595" lon="11.281591532390287"><ele>207.39999999999998</ele><time>2026-03-22T08:46:12Z</time></trkpt><trkpt lat="43.6488935560228" lon="11.281719797013068"><ele>207.79999999999998</ele><time>2026-03-22T08:46:13Z</time></trkpt><trkpt lat="43.64890706496165" lon="11.281846465280747"><ele>208.2</ele><time>2026-03-22T08:46:14Z</time></trkpt><trkpt lat="43.648920019536995" lon="11.281967421312023"><ele>208.6</ele><time>2026-03-22T08:46:15Z</time></trkpt><trkpt lat="43.64893305057741" lon="11.282079093356545"><ele>209.0</ele><time>2026-03-22T08:46:16Z</time></trkpt><trkpt lat="43.648962954357934" lon="11.282265910580598"><ele>209.6</ele><time>2026-03-22T08:46:18Z</time></trkpt><trkpt lat="43.64895548916121" lon="11.282370514759329"><ele>210.2</ele><time>2026-03-22T08:46:19Z</time></trkpt><trkpt lat="43.648895493509386" lon="11.282462286276466"><ele>210.79999999999998</ele><time>2026-03-22T08:46:20Z</time></trkpt><trkpt lat="43.64885018213127" lon="11.282575405455828"><ele>211.39999999999998</ele><time>2026-03-22T08:46:21Z</time></trkpt><trkpt lat="43.64879998340444" lon="11.282709043020148"><ele>212.0</ele><time>2026-03-22T08:46:22Z</time></trkpt><trkpt lat="43.64873261530944" lon="11.28283567188659"><ele>212.0</ele><time>2026-03-22T08:46:23Z</time></trkpt><trkpt lat="43.64867730989316" lon="11.282966633804586"><ele>212.0</ele><time>2026-03-22T08:46:24Z</time></trkpt><trkpt lat="43.648628776271785" lon="11.28310244853657"><ele>212.0</ele><time>2026-03-22T08:46:25Z</time></trkpt><trkpt lat="43.64857868622308" lon="11.283229428202084"><ele>212.0</ele><time>2026-03-22T08:46:26Z</time></trkpt><trkpt lat="43.648515938880244" lon="11.283323777324409"><ele>212.0</ele><time>2026-03-22T08:46:27Z</time></trkpt><trkpt lat="43.64847200903057" lon="11.283432254837257"><ele>213.66666666666669</ele><time>2026-03-22T08:46:28Z</time></trkpt><trkpt lat="43.64842981260533" lon="11.283528185018625"><ele>215.33333333333334</ele><time>2026-03-22T08:46:29Z</time></trkpt><trkpt lat="43.648369348784094" lon="11.28361309185808"><ele>217.0</ele><time>2026-03-22T08:46:30Z</time></trkpt><trkpt lat="43.64834477866317" lon="11.283721109702563"><ele>218.66666666666669</ele><time>2026-03-22T08:46:31Z</time></trkpt><trkpt lat="43.64831910614864" lon="11.28382251002815"><ele>220.33333333333334</ele><time>2026-03-22T08:46:32Z</time></trkpt><trkpt lat="43.64830664106044" lon="11.283949334951446"><ele>222.0</ele><time>2026-03-22T08:46:33Z</time></trkpt><trkpt lat="43.64831304092435" lon="11.284075664818852"><ele>223.33333333333334</ele><time>2026-03-22T08:46:34Z</time></trkpt><trkpt lat="43.648334305421" lon="11.284183601237794"><ele>224.66666666666669</ele><time>2026-03-22T08:46:35Z</time></trkpt><trkpt lat="43.64832836623463" lon="11.28429299003404"><ele>226.0</ele><time>2026-03-22T08:46:36Z</time></trkpt><trkpt lat="43.64835655325415" lon="11.28439998322423"><ele>227.33333333333334</ele><time>2026-03-22T08:46:37Z</time></trkpt><trkpt lat="43.64837960065667" lon="11.284540250202115"><ele>228.66666666666669</ele><time>2026-03-22T08:46:38Z</time></trkpt><trkpt lat="43.64840409866053" lon="11.284677051753903"><ele>230.0</ele><time>2026-03-22T08:46:39Z</time></trkpt><trkpt lat="43.64842879826687" lon="11.284811552335318"><ele>230.75</ele><time>2026-03-22T08:46:40Z</time></trkpt><trkpt lat="43.64845743697524" lon="11.28497309003631"><ele>231.5</ele><time>2026-03-22T08:46:41Z</time></trkpt><trkpt lat="43.6484755862207" lon="11.285151899288847"><ele>232.25</ele><time>2026-03-22T08:46:42Z</time></trkpt><trkpt lat="43.64851684764628" lon="11.28532141645461"><ele>233.0</ele><time>2026-03-22T08:46:43Z</time></trkpt><trkpt lat="43.64854354595861" lon="11.285480562952674"><ele>233.0</ele><time>2026-03-22T08:46:44Z</time></trkpt><trkpt lat="43.648581803954606" lon="11.285643961347853"><ele>233.0</ele><time>2026-03-22T08:46:45Z</time></trkpt><trkpt lat="43.64861419921668" lon="11.285797131691114"><ele>233.0</ele><time>2026-03-22T08:46:46Z</time></trkpt><trkpt lat="43.6486427907477" lon="11.285948152434386"><ele>233.0</ele><time>2026-03-22T08:46:47Z</time></trkpt><trkpt lat="43.64867792910641" lon="11.286092288107517"><ele>233.0</ele><time>2026-03-22T08:46:48Z</time></trkpt><trkpt lat="43.648710518039096" lon="11.286253289236369"><ele>233.0</ele><time>2026-03-22T08:46:49Z</time></trkpt><trkpt lat="43.648743575434246" lon="11.286407750596492"><ele>233.0</ele><time>2026-03-22T08:46:50Z</time></trkpt><trkpt lat="43.648769691917366" lon="11.286548661852763"><ele>233.0</ele><time>2026-03-22T08:46:51Z</time></trkpt><trkpt lat="43.64879837876094" lon="11.286663842313287"><ele>233.0</ele><time>2026-03-22T08:46:52Z</time></trkpt><trkpt lat="43.64886584677189" lon="11.286751200439987"><ele>234.4</ele><time>2026-03-22T08:46:53Z</time></trkpt><trkpt lat="43.64892546190334" lon="11.286796271295517"><ele>235.8</ele><time>2026-03-22T08:46:55Z</time></trkpt><trkpt lat="43.649036232735895" lon="11.286907861806878"><ele>237.2</ele><time>2026-03-22T08:46:57Z</time></trkpt><trkpt lat="43.64911938841462" lon="11.286994268275118"><ele>238.6</ele><time>2026-03-22T08:46:58Z</time></trkpt><trkpt lat="43.64920535923521" lon="11.28704463921273"><ele>240.0</ele><time>2026-03-22T08:46:59Z</time></trkpt><trkpt lat="43.649270004985986" lon="11.287109722232668"><ele>240.0</ele><time>2026-03-22T08:47:00Z</time></trkpt><trkpt lat="43.64936483195673" lon="11.287177116779286"><ele>240.0</ele><time>2026-03-22T08:47:01Z</time></trkpt><trkpt lat="43.64947108152757" lon="11.287223547178552"><ele>240.0</ele><time>2026-03-22T08:47:02Z</time></trkpt><trkpt lat="43.64955903602479" lon="11.287280855384957"><ele>240.0</ele><time>2026-03-22T08:47:03Z</time></trkpt><trkpt lat="43.6496495243377" lon="11.28733541260799"><ele>240.0</ele><time>2026-03-22T08:47:04Z</time></trkpt><trkpt lat="43.64976077342713" lon="11.28740226735516"><ele>240.5</ele><time>2026-03-22T08:47:05Z</time></trkpt><trkpt lat="43.649867956488585" lon="11.287470802585075"><ele>241.0</ele><time>2026-03-22T08:47:06Z</time></trkpt><trkpt lat="43.649985378927184" lon="11.287542394437802"><ele>241.5</ele><time>2026-03-22T08:47:07Z</time></trkpt><trkpt lat="43.65010738542632" lon="11.287647973508857"><ele>242.0</ele><time>2026-03-22T08:47:08Z</time></trkpt><trkpt lat="43.65022818600466" lon="11.287707823017394"><ele>240.8</ele><time>2026-03-22T08:47:09Z</time></trkpt><trkpt lat="43.65030455183487" lon="11.287762769376684"><ele>239.6</ele><time>2026-03-22T08:47:10Z</time></trkpt><trkpt lat="43.65038267838829" lon="11.287817613749192"><ele>238.40000000000003</ele><time>2026-03-22T08:47:12Z</time></trkpt><trkpt lat="43.65046308506754" lon="11.287971990739724"><ele>237.20000000000002</ele><time>2026-03-22T08:47:26.999Z</time></trkpt><trkpt lat="43.65047785175766" lon="11.288110433703146"><ele>236.0</ele><time>2026-03-22T08:47:28.999Z</time></trkpt><trkpt lat="43.65045232944566" lon="11.288207460721972"><ele>235.4</ele><time>2026-03-22T08:47:30.999Z</time></trkpt><trkpt lat="43.65036892603586" lon="11.2882758241487"><ele>234.8</ele><time>2026-03-22T08:47:31.999Z</time></trkpt><trkpt lat="43.650296171408" lon="11.288390778712568"><ele>234.20000000000002</ele><time>2026-03-22T08:47:32.999Z</time></trkpt><trkpt lat="43.65023809899943" lon="11.2885064473244"><ele>233.60000000000002</ele><time>2026-03-22T08:47:33.999Z</time></trkpt><trkpt lat="43.650180529108546" lon="11.288608320972775"><ele>233.0</ele><time>2026-03-22T08:47:34.999Z</time></trkpt><trkpt lat="43.650128650452224" lon="11.288695239973997"><ele>235.4</ele><time>2026-03-22T08:47:35.999Z</time></trkpt><trkpt lat="43.650071607569714" lon="11.288795647747422"><ele>237.8</ele><time>2026-03-22T08:47:36.999Z</time></trkpt><trkpt lat="43.650017465549666" lon="11.288899586714791"><ele>240.2</ele><time>2026-03-22T08:47:37.999Z</time></trkpt><trkpt lat="43.649946958595905" lon="11.289029100573773"><ele>242.6</ele><time>2026-03-22T08:47:38.999Z</time></trkpt><trkpt lat="43.64985472774836" lon="11.289183605122167"><ele>245.0</ele><time>2026-03-22T08:47:39.999Z</time></trkpt><trkpt lat="43.64975991450076" lon="11.289346367722388"><ele>245.25</ele><time>2026-03-22T08:47:40.999Z</time></trkpt><trkpt lat="43.64967226256781" lon="11.289519011041799"><ele>245.5</ele><time>2026-03-22T08:47:41.999Z</time></trkpt><trkpt lat="43.6496064762562" lon="11.289653091741167"><ele>245.75</ele><time>2026-03-22T08:47:42.999Z</time></trkpt><trkpt lat="43.649545250862495" lon="11.289798025461758"><ele>246.0</ele><time>2026-03-22T08:47:43.999Z</time></trkpt><trkpt lat="43.64948065747736" lon="11.28993864523675"><ele>249.33333333333331</ele><time>2026-03-22T08:47:44.999Z</time></trkpt><trkpt lat="43.649414908270586" lon="11.290092644839762"><ele>252.66666666666666</ele><time>2026-03-22T08:47:45.999Z</time></trkpt><trkpt lat="43.6493434579783" lon="11.29026402522545"><ele>256.0</ele><time>2026-03-22T08:47:46.999Z</time></trkpt><trkpt lat="43.6492453633378" lon="11.290473654799774"><ele>256.0</ele><time>2026-03-22T08:47:47.999Z</time></trkpt><trkpt lat="43.64915549497778" lon="11.290652054381358"><ele>256.0</ele><time>2026-03-22T08:47:48.999Z</time></trkpt><trkpt lat="43.649089584008415" lon="11.290771269715956"><ele>256.0</ele><time>2026-03-22T08:47:49.999Z</time></trkpt><trkpt lat="43.64904465409247" lon="11.29090186838374"><ele>256.0</ele><time>2026-03-22T08:47:50.999Z</time></trkpt><trkpt lat="43.64898580238063" lon="11.291002317276245"><ele>256.0</ele><time>2026-03-22T08:47:51.999Z</time></trkpt><trkpt lat="43.6489580237808" lon="11.291130135192276"><ele>256.0</ele><time>2026-03-22T08:47:52.999Z</time></trkpt><trkpt lat="43.648914217740355" lon="11.291249187032586"><ele>256.0</ele><time>2026-03-22T08:47:53.999Z</time></trkpt><trkpt lat="43.6488709889964" lon="11.291397252613995"><ele>256.0</ele><time>2026-03-22T08:47:54.999Z</time></trkpt><trkpt lat="43.648833880385546" lon="11.29156315703883"><ele>256.0</ele><time>2026-03-22T08:47:55.999Z</time></trkpt><trkpt lat="43.64880197971962" lon="11.291754096494666"><ele>255.33333333333331</ele><time>2026-03-22T08:47:56.999Z</time></trkpt><trkpt lat="43.64877938295674" lon="11.291962883018918"><ele>254.66666666666669</ele><time>2026-03-22T08:47:57.999Z</time></trkpt><trkpt lat="43.648751642021544" lon="11.292212835556661"><ele>254.0</ele><time>2026-03-22T08:47:58.999Z</time></trkpt><trkpt lat="43.64871690683584" lon="11.292457305667432"><ele>254.0</ele><time>2026-03-22T08:47:59.999Z</time></trkpt><trkpt lat="43.6486779352743" lon="11.292741260450232"><ele>254.0</ele><time>2026-03-22T08:48:00.999Z</time></trkpt><trkpt lat="43.64864345416309" lon="11.292973924085677"><ele>254.0</ele><time>2026-03-22T08:48:01.999Z</time></trkpt><trkpt lat="43.64861587373794" lon="11.293194251684534"><ele>256.59999999999997</ele><time>2026-03-22T08:48:02.999Z</time></trkpt><trkpt lat="43.64859545574646" lon="11.293370237433411"><ele>259.2</ele><time>2026-03-22T08:48:03.999Z</time></trkpt><trkpt lat="43.64857541691724" lon="11.29355099954484"><ele>261.79999999999995</ele><time>2026-03-22T08:48:04.999Z</time></trkpt><trkpt lat="43.648560230131544" lon="11.293701036863013"><ele>264.4</ele><time>2026-03-22T08:48:06.001Z</time></trkpt><trkpt lat="43.64854805063642" lon="11.293805907303215"><ele>267.0</ele><time>2026-03-22T08:48:07.001Z</time></trkpt><trkpt lat="43.64852351609626" lon="11.29391619165695"><ele>267.0</ele><time>2026-03-22T08:48:09.001Z</time></trkpt><trkpt lat="43.648471633211216" lon="11.294044929394062"><ele>267.0</ele><time>2026-03-22T08:48:11.001Z</time></trkpt><trkpt lat="43.64842298188534" lon="11.29413199472969"><ele>267.0</ele><time>2026-03-22T08:48:23Z</time></trkpt><trkpt lat="43.64847301320414" lon="11.2940414618604"><ele>267.0</ele><time>2026-03-22T08:48:32Z</time></trkpt><trkpt lat="43.64854266261681" lon="11.29398547613109"><ele>267.0</ele><time>2026-03-22T08:48:33Z</time></trkpt><trkpt lat="43.64855776490701" lon="11.293861997926852"><ele>267.0</ele><time>2026-03-22T08:48:34Z</time></trkpt><trkpt lat="43.64857403986699" lon="11.293695302584569"><ele>267.0</ele><time>2026-03-22T08:48:36Z</time></trkpt><trkpt lat="43.64858401675453" lon="11.293599875885384"><ele>267.0</ele><time>2026-03-22T08:48:37Z</time></trkpt><trkpt lat="43.64860765061313" lon="11.293436051547094"><ele>267.0</ele><time>2026-03-22T08:48:39Z</time></trkpt><trkpt lat="43.6486152055051" lon="11.293344688898326"><ele>267.0</ele><time>2026-03-22T08:48:40Z</time></trkpt><trkpt lat="43.64862592748065" lon="11.29325243851215"><ele>267.0</ele><time>2026-03-22T08:48:41Z</time></trkpt><trkpt lat="43.64863675549067" lon="11.293141995911652"><ele>267.0</ele><time>2026-03-22T08:48:42Z</time></trkpt><trkpt lat="43.64864430100366" lon="11.293042412441238"><ele>264.4</ele><time>2026-03-22T08:48:43Z</time></trkpt><trkpt lat="43.648669015927524" lon="11.292860108572352"><ele>261.79999999999995</ele><time>2026-03-22T08:48:45Z</time></trkpt><trkpt lat="43.64868243205235" lon="11.292763971365527"><ele>259.2</ele><time>2026-03-22T08:48:46Z</time></trkpt><trkpt lat="43.64872352621168" lon="11.292662281439057"><ele>256.59999999999997</ele><time>2026-03-22T08:48:47Z</time></trkpt><trkpt lat="43.64873913194668" lon="11.292545011858195"><ele>254.0</ele><time>2026-03-22T08:48:48Z</time></trkpt><trkpt lat="43.64873867930491" lon="11.292425700358717"><ele>254.0</ele><time>2026-03-22T08:48:49Z</time></trkpt><trkpt lat="43.64877118484794" lon="11.292303195051392"><ele>253.99999999999997</ele><time>2026-03-22T08:48:50Z</time></trkpt><trkpt lat="43.64877399522618" lon="11.29216749023669"><ele>253.99999999999997</ele><time>2026-03-22T08:48:51Z</time></trkpt><trkpt lat="43.64879793186134" lon="11.292047850492697"><ele>254.0</ele><time>2026-03-22T08:48:52Z</time></trkpt><trkpt lat="43.64881060941642" lon="11.29191524329371"><ele>254.0</ele><time>2026-03-22T08:48:53Z</time></trkpt><trkpt lat="43.6488230805554" lon="11.291784795158293"><ele>254.00000000000003</ele><time>2026-03-22T08:48:54Z</time></trkpt><trkpt lat="43.64884134465126" lon="11.291659386896281"><ele>254.0</ele><time>2026-03-22T08:48:55Z</time></trkpt><trkpt lat="43.64886184741833" lon="11.291536633010153"><ele>254.0</ele><time>2026-03-22T08:48:56Z</time></trkpt><trkpt lat="43.64888726562426" lon="11.291418460385293"><ele>254.0</ele><time>2026-03-22T08:48:57Z</time></trkpt><trkpt lat="43.64891736825257" lon="11.291307667680124"><ele>254.00000000000003</ele><time>2026-03-22T08:48:58Z</time></trkpt><trkpt lat="43.64895431311495" lon="11.291194311269054"><ele>254.0</ele><time>2026-03-22T08:48:59Z</time></trkpt><trkpt lat="43.64898928567509" lon="11.291094015599647"><ele>254.33333333333334</ele><time>2026-03-22T08:49:00Z</time></trkpt><trkpt lat="43.64902544537706" lon="11.290997404479546"><ele>254.66666666666669</ele><time>2026-03-22T08:49:01Z</time></trkpt><trkpt lat="43.64906525593393" lon="11.290908966791493"><ele>255.0</ele><time>2026-03-22T08:49:02Z</time></trkpt><trkpt lat="43.64910445507994" lon="11.290825216402943"><ele>255.33333333333331</ele><time>2026-03-22T08:49:03Z</time></trkpt><trkpt lat="43.64914093786361" lon="11.290747269621303"><ele>255.66666666666666</ele><time>2026-03-22T08:49:04Z</time></trkpt><trkpt lat="43.64918447422328" lon="11.290654252619484"><ele>256.0</ele><time>2026-03-22T08:49:05Z</time></trkpt><trkpt lat="43.64921194493659" lon="11.29055303458402"><ele>255.99999999999997</ele><time>2026-03-22T08:49:06Z</time></trkpt><trkpt lat="43.649254113092745" lon="11.290463024848089"><ele>256.0</ele><time>2026-03-22T08:49:07Z</time></trkpt><trkpt lat="43.64929626474541" lon="11.290369460924497"><ele>256.0</ele><time>2026-03-22T08:49:08Z</time></trkpt><trkpt lat="43.64933822987209" lon="11.29027743336048"><ele>256.0</ele><time>2026-03-22T08:49:09Z</time></trkpt><trkpt lat="43.64940451420172" lon="11.290180145574423"><ele>255.99999999999997</ele><time>2026-03-22T08:49:10Z</time></trkpt><trkpt lat="43.64945824548452" lon="11.290068048111266"><ele>256.0</ele><time>2026-03-22T08:49:11Z</time></trkpt><trkpt lat="43.64949369669997" lon="11.289953783844528"><ele>254.33333333333331</ele><time>2026-03-22T08:49:12Z</time></trkpt><trkpt lat="43.64955676338057" lon="11.289858790172966"><ele>252.66666666666666</ele><time>2026-03-22T08:49:13Z</time></trkpt><trkpt lat="43.649607278501534" lon="11.289747951173904"><ele>251.0</ele><time>2026-03-22T08:49:14Z</time></trkpt><trkpt lat="43.64965454825046" lon="11.289644233087598"><ele>249.33333333333331</ele><time>2026-03-22T08:49:15Z</time></trkpt><trkpt lat="43.64969526619514" lon="11.289555089750325"><ele>247.66666666666666</ele><time>2026-03-22T08:49:16Z</time></trkpt><trkpt lat="43.64973868595319" lon="11.289460316395438"><ele>246.0</ele><time>2026-03-22T08:49:17Z</time></trkpt><trkpt lat="43.64977491802301" lon="11.289384584413224"><ele>246.0</ele><time>2026-03-22T08:49:18Z</time></trkpt><trkpt lat="43.649821608472976" lon="11.28928876683745"><ele>246.0</ele><time>2026-03-22T08:49:19Z</time></trkpt><trkpt lat="43.64987009072305" lon="11.289198630853143"><ele>246.0</ele><time>2026-03-22T08:49:20Z</time></trkpt><trkpt lat="43.649923698740814" lon="11.289107785395625"><ele>246.0</ele><time>2026-03-22T08:49:21Z</time></trkpt><trkpt lat="43.64998017700425" lon="11.289012542511914"><ele>246.0</ele><time>2026-03-22T08:49:22Z</time></trkpt><trkpt lat="43.6500329047853" lon="11.288921750290204"><ele>246.0</ele><time>2026-03-22T08:49:22.999Z</time></trkpt><trkpt lat="43.65008068449447" lon="11.288837622830172"><ele>245.83333333333334</ele><time>2026-03-22T08:49:23.999Z</time></trkpt><trkpt lat="43.650126056768" lon="11.288756890957616"><ele>245.66666666666669</ele><time>2026-03-22T08:49:24.999Z</time></trkpt><trkpt lat="43.65017427698316" lon="11.288670880185412"><ele>245.5</ele><time>2026-03-22T08:49:25.999Z</time></trkpt><trkpt lat="43.65021820036915" lon="11.288593512295542"><ele>245.33333333333334</ele><time>2026-03-22T08:49:26.999Z</time></trkpt><trkpt lat="43.65025110042797" lon="11.288518642710649"><ele>245.16666666666669</ele><time>2026-03-22T08:49:27.999Z</time></trkpt><trkpt lat="43.65029042655609" lon="11.288443596774172"><ele>245.0</ele><time>2026-03-22T08:49:28.999Z</time></trkpt><trkpt lat="43.65038530921725" lon="11.288332554665415"><ele>243.50000000000003</ele><time>2026-03-22T08:49:30.999Z</time></trkpt><trkpt lat="43.65044362938446" lon="11.288224350950868"><ele>242.0</ele><time>2026-03-22T08:49:32.999Z</time></trkpt><trkpt lat="43.65049927013993" lon="11.288144046022909"><ele>240.5</ele><time>2026-03-22T08:49:34.999Z</time></trkpt><trkpt lat="43.65049032664588" lon="11.287975281311667"><ele>239.0</ele><time>2026-03-22T08:49:36.999Z</time></trkpt><trkpt lat="43.65045492727154" lon="11.287896677156924"><ele>237.50000000000003</ele><time>2026-03-22T08:49:37.999Z</time></trkpt><trkpt lat="43.650419577970084" lon="11.287814728775583"><ele>236.0</ele><time>2026-03-22T08:49:38.999Z</time></trkpt><trkpt lat="43.650392651259665" lon="11.2877352405913"><ele>236.0</ele><time>2026-03-22T08:49:41.999Z</time></trkpt><trkpt lat="43.65044944444427" lon="11.287588915347314"><ele>236.00000000000003</ele><time>2026-03-22T08:49:46.999Z</time></trkpt><trkpt lat="43.65050328507015" lon="11.287492914974793"><ele>236.00000000000003</ele><time>2026-03-22T08:49:48.999Z</time></trkpt><trkpt lat="43.6505728098601" lon="11.287412699642186"><ele>236.0</ele><time>2026-03-22T08:50:19Z</time></trkpt><trkpt lat="43.65065655361507" lon="11.287308935740388"><ele>236.0</ele><time>2026-03-22T08:50:21Z</time></trkpt><trkpt lat="43.65071094535798" lon="11.287248050233883"><ele>235.66666666666669</ele><time>2026-03-22T08:50:22Z</time></trkpt><trkpt lat="43.65077183699592" lon="11.28718259282769"><ele>235.33333333333334</ele><time>2026-03-22T08:50:23Z</time></trkpt><trkpt lat="43.650841237127906" lon="11.287103925564667"><ele>235.0</ele><time>2026-03-22T08:50:24Z</time></trkpt><trkpt lat="43.65090867007528" lon="11.287025139200928"><ele>234.66666666666669</ele><time>2026-03-22T08:50:25Z</time></trkpt><trkpt lat="43.650979989092605" lon="11.286939334680342"><ele>234.33333333333334</ele><time>2026-03-22T08:50:26Z</time></trkpt><trkpt lat="43.651023880424205" lon="11.286862016687564"><ele>234.0</ele><time>2026-03-22T08:50:27Z</time></trkpt><trkpt lat="43.65106635669176" lon="11.286767609021243"><ele>234.33333333333334</ele><time>2026-03-22T08:50:29Z</time></trkpt><trkpt lat="43.65114995387478" lon="11.28671911366498"><ele>234.66666666666669</ele><time>2026-03-22T08:50:32Z</time></trkpt><trkpt lat="43.65122088329945" lon="11.2866703963074"><ele>235.0</ele><time>2026-03-22T08:50:34Z</time></trkpt><trkpt lat="43.65128298283248" lon="11.28663677081816"><ele>235.33333333333334</ele><time>2026-03-22T08:50:36Z</time></trkpt><trkpt lat="43.65136505399862" lon="11.28655205619017"><ele>235.66666666666669</ele><time>2026-03-22T08:50:38Z</time></trkpt><trkpt lat="43.651451037620994" lon="11.286513740488319"><ele>236.0</ele><time>2026-03-22T08:50:40Z</time></trkpt><trkpt lat="43.65157304387806" lon="11.28648418029674"><ele>237.00000000000003</ele><time>2026-03-22T08:50:42Z</time></trkpt><trkpt lat="43.6516201925996" lon="11.286419647286149"><ele>238.0</ele><time>2026-03-22T08:50:44Z</time></trkpt><trkpt lat="43.65166651472959" lon="11.286346943168386"><ele>239.0</ele><time>2026-03-22T08:50:47Z</time></trkpt><trkpt lat="43.6517035265863" lon="11.286241988593341"><ele>240.0</ele><time>2026-03-22T08:50:49Z</time></trkpt><trkpt lat="43.65173656089022" lon="11.286115247902934"><ele>241.00000000000003</ele><time>2026-03-22T08:50:51Z</time></trkpt><trkpt lat="43.65175411512246" lon="11.285990266442168"><ele>242.0</ele><time>2026-03-22T08:50:53Z</time></trkpt><trkpt lat="43.65179724164184" lon="11.285835160225632"><ele>242.0</ele><time>2026-03-22T08:50:55Z</time></trkpt><trkpt lat="43.65184592246306" lon="11.285764785729345"><ele>242.0</ele><time>2026-03-22T08:50:56Z</time></trkpt><trkpt lat="43.651898054230095" lon="11.285694213701714"><ele>242.0</ele><time>2026-03-22T08:50:57Z</time></trkpt><trkpt lat="43.65200777713834" lon="11.285620985472816"><ele>242.0</ele><time>2026-03-22T08:50:59Z</time></trkpt><trkpt lat="43.6521072670904" lon="11.285626661259398"><ele>242.0</ele><time>2026-03-22T08:51:01Z</time></trkpt><trkpt lat="43.65221392887451" lon="11.28564729780702"><ele>239.33333333333334</ele><time>2026-03-22T08:51:03Z</time></trkpt><trkpt lat="43.6522641665723" lon="11.2855542700004"><ele>236.66666666666669</ele><time>2026-03-22T08:51:05Z</time></trkpt><trkpt lat="43.65228273462635" lon="11.285454487599038"><ele>234.0</ele><time>2026-03-22T08:51:06Z</time></trkpt><trkpt lat="43.65229843479958" lon="11.285362716771807"><ele>231.33333333333331</ele><time>2026-03-22T08:51:07Z</time></trkpt><trkpt lat="43.65233058753659" lon="11.285260833192973"><ele>228.66666666666666</ele><time>2026-03-22T08:51:08Z</time></trkpt><trkpt lat="43.65236596665097" lon="11.285159914127275"><ele>226.0</ele><time>2026-03-22T08:51:09Z</time></trkpt><trkpt lat="43.652398066063995" lon="11.285053743307909"><ele>225.99999999999997</ele><time>2026-03-22T08:51:10Z</time></trkpt><trkpt lat="43.65243338078631" lon="11.28493010617872"><ele>226.0</ele><time>2026-03-22T08:51:11Z</time></trkpt><trkpt lat="43.652464018572644" lon="11.28481831412941"><ele>226.0</ele><time>2026-03-22T08:51:12Z</time></trkpt><trkpt lat="43.65249542123262" lon="11.28469875556883"><ele>226.0</ele><time>2026-03-22T08:51:13Z</time></trkpt><trkpt lat="43.65253010303473" lon="11.284594779265683"><ele>225.99999999999997</ele><time>2026-03-22T08:51:14Z</time></trkpt><trkpt lat="43.65256737589547" lon="11.284484043079255"><ele>226.0</ele><time>2026-03-22T08:51:15Z</time></trkpt><trkpt lat="43.65259746119429" lon="11.284372803493323"><ele>225.20000000000002</ele><time>2026-03-22T08:51:16Z</time></trkpt><trkpt lat="43.65262805993211" lon="11.284264002024093"><ele>224.40000000000003</ele><time>2026-03-22T08:51:17Z</time></trkpt><trkpt lat="43.65265814889003" lon="11.284161864657463"><ele>223.6</ele><time>2026-03-22T08:51:18Z</time></trkpt><trkpt lat="43.65269130389034" lon="11.284048504235523"><ele>222.8</ele><time>2026-03-22T08:51:20Z</time></trkpt><trkpt lat="43.65270658039102" lon="11.283958839463413"><ele>222.0</ele><time>2026-03-22T08:51:22Z</time></trkpt><trkpt lat="43.65273732640405" lon="11.2837833117715"><ele>221.8</ele><time>2026-03-22T08:51:24Z</time></trkpt><trkpt lat="43.65278008432669" lon="11.283657052597867"><ele>221.6</ele><time>2026-03-22T08:51:25Z</time></trkpt><trkpt lat="43.65282015106062" lon="11.283542453140205"><ele>221.40000000000003</ele><time>2026-03-22T08:51:26Z</time></trkpt><trkpt lat="43.65285350143258" lon="11.28341360011917"><ele>221.20000000000002</ele><time>2026-03-22T08:51:27Z</time></trkpt><trkpt lat="43.65288182541363" lon="11.283285998395863"><ele>221.0</ele><time>2026-03-22T08:51:28Z</time></trkpt><trkpt lat="43.65291476689896" lon="11.283161262491504"><ele>220.4</ele><time>2026-03-22T08:51:28.999Z</time></trkpt><trkpt lat="43.65294935361" lon="11.283043946424772"><ele>219.8</ele><time>2026-03-22T08:51:29.999Z</time></trkpt><trkpt lat="43.65297438554404" lon="11.282923337802922"><ele>219.20000000000002</ele><time>2026-03-22T08:51:30.999Z</time></trkpt><trkpt lat="43.65299139365092" lon="11.282791568822137"><ele>218.60000000000002</ele><time>2026-03-22T08:51:31.999Z</time></trkpt><trkpt lat="43.65300782569092" lon="11.282655150262414"><ele>218.0</ele><time>2026-03-22T08:51:32.999Z</time></trkpt><trkpt lat="43.653021244198214" lon="11.282504976698567"><ele>218.0</ele><time>2026-03-22T08:51:33.999Z</time></trkpt><trkpt lat="43.65302807125601" lon="11.282352429778365"><ele>218.0</ele><time>2026-03-22T08:51:34.999Z</time></trkpt><trkpt lat="43.653043237696956" lon="11.282196467960523"><ele>218.0</ele><time>2026-03-22T08:51:35.999Z</time></trkpt><trkpt lat="43.653053985639694" lon="11.282040592401689"><ele>218.0</ele><time>2026-03-22T08:51:36.999Z</time></trkpt><trkpt lat="43.65306889321827" lon="11.2818879570133"><ele>218.0</ele><time>2026-03-22T08:51:37.999Z</time></trkpt><trkpt lat="43.653083008037356" lon="11.281731874299455"><ele>218.2</ele><time>2026-03-22T08:51:38.999Z</time></trkpt><trkpt lat="43.6530948123268" lon="11.281582058478065"><ele>218.4</ele><time>2026-03-22T08:51:39.999Z</time></trkpt><trkpt lat="43.65310204329306" lon="11.2814299904386"><ele>218.59999999999997</ele><time>2026-03-22T08:51:40.999Z</time></trkpt><trkpt lat="43.65311073518491" lon="11.281283114329147"><ele>218.79999999999998</ele><time>2026-03-22T08:51:41.999Z</time></trkpt><trkpt lat="43.65310547519961" lon="11.281144899062655"><ele>219.0</ele><time>2026-03-22T08:51:42.999Z</time></trkpt><trkpt lat="43.653076645486955" lon="11.280998652116198"><ele>220.75</ele><time>2026-03-22T08:51:43.999Z</time></trkpt><trkpt lat="43.653054789297286" lon="11.280856632789527"><ele>222.5</ele><time>2026-03-22T08:51:44.999Z</time></trkpt><trkpt lat="43.65303350926034" lon="11.280695102458276"><ele>224.25</ele><time>2026-03-22T08:51:45.999Z</time></trkpt><trkpt lat="43.653011330076914" lon="11.280519631890877"><ele>226.0</ele><time>2026-03-22T08:51:46.999Z</time></trkpt><trkpt lat="43.65298231431151" lon="11.280318519938453"><ele>228.0</ele><time>2026-03-22T08:51:47.999Z</time></trkpt><trkpt lat="43.65295122595426" lon="11.280096176410012"><ele>230.0</ele><time>2026-03-22T08:51:48.999Z</time></trkpt><trkpt lat="43.65292084119381" lon="11.279883725497832"><ele>232.0</ele><time>2026-03-22T08:51:49.999Z</time></trkpt><trkpt lat="43.652884340320156" lon="11.27967812467743"><ele>232.33333333333331</ele><time>2026-03-22T08:51:50.999Z</time></trkpt><trkpt lat="43.65284123388506" lon="11.279458643135705"><ele>232.66666666666669</ele><time>2026-03-22T08:51:51.999Z</time></trkpt><trkpt lat="43.65280506806548" lon="11.279266019261687"><ele>233.0</ele><time>2026-03-22T08:51:52.999Z</time></trkpt><trkpt lat="43.652754711153406" lon="11.279022760509193"><ele>234.33333333333334</ele><time>2026-03-22T08:51:53.999Z</time></trkpt><trkpt lat="43.652705565938916" lon="11.27877540076859"><ele>235.66666666666669</ele><time>2026-03-22T08:51:54.999Z</time></trkpt><trkpt lat="43.652652807890355" lon="11.278580974302393"><ele>237.0</ele><time>2026-03-22T08:51:55.999Z</time></trkpt><trkpt lat="43.65259513704441" lon="11.2784169407256"><ele>237.0</ele><time>2026-03-22T08:51:56.999Z</time></trkpt><trkpt lat="43.652539944707" lon="11.278254837196796"><ele>237.0</ele><time>2026-03-22T08:51:57.999Z</time></trkpt><trkpt lat="43.65249643015455" lon="11.278079580323785"><ele>237.0</ele><time>2026-03-22T08:51:58.999Z</time></trkpt><trkpt lat="43.652503527815774" lon="11.27789145195897"><ele>237.0</ele><time>2026-03-22T08:51:59.999Z</time></trkpt><trkpt lat="43.65248474161232" lon="11.277722088238438"><ele>236.8</ele><time>2026-03-22T08:52:00.999Z</time></trkpt><trkpt lat="43.65247445011651" lon="11.27755678674531"><ele>236.6</ele><time>2026-03-22T08:52:01.999Z</time></trkpt><trkpt lat="43.652470947192135" lon="11.277396379579297"><ele>236.40000000000003</ele><time>2026-03-22T08:52:02.999Z</time></trkpt><trkpt lat="43.65247388623512" lon="11.277249641620855"><ele>236.20000000000002</ele><time>2026-03-22T08:52:03.999Z</time></trkpt><trkpt lat="43.65247767742892" lon="11.277108152456803"><ele>236.0</ele><time>2026-03-22T08:52:04.999Z</time></trkpt><trkpt lat="43.65248036908188" lon="11.276971562320986"><ele>235.60000000000002</ele><time>2026-03-22T08:52:05.999Z</time></trkpt><trkpt lat="43.65248218039983" lon="11.276840085745354"><ele>235.20000000000002</ele><time>2026-03-22T08:52:06.999Z</time></trkpt><trkpt lat="43.65248933298035" lon="11.276702501435905"><ele>234.79999999999998</ele><time>2026-03-22T08:52:07.999Z</time></trkpt><trkpt lat="43.652504707392204" lon="11.27657784944091"><ele>234.39999999999998</ele><time>2026-03-22T08:52:08.999Z</time></trkpt><trkpt lat="43.65253397279952" lon="11.276466893635831"><ele>234.0</ele><time>2026-03-22T08:52:09.999Z</time></trkpt><trkpt lat="43.65257488301281" lon="11.276351897748636"><ele>234.0</ele><time>2026-03-22T08:52:10.999Z</time></trkpt><trkpt lat="43.65263333984944" lon="11.276255453243056"><ele>233.99999999999997</ele><time>2026-03-22T08:52:11.999Z</time></trkpt><trkpt lat="43.652702226943056" lon="11.276164882696584"><ele>233.99999999999997</ele><time>2026-03-22T08:52:12.999Z</time></trkpt><trkpt lat="43.65277912406078" lon="11.276078868955427"><ele>234.0</ele><time>2026-03-22T08:52:13.999Z</time></trkpt><trkpt lat="43.65286108495861" lon="11.2759888914703"><ele>234.0</ele><time>2026-03-22T08:52:14.999Z</time></trkpt><trkpt lat="43.65294236695652" lon="11.275900464141296"><ele>235.0</ele><time>2026-03-22T08:52:15.999Z</time></trkpt><trkpt lat="43.65302310268834" lon="11.275812281513845"><ele>235.99999999999997</ele><time>2026-03-22T08:52:16.999Z</time></trkpt><trkpt lat="43.65310522387931" lon="11.275722369498217"><ele>236.99999999999997</ele><time>2026-03-22T08:52:18Z</time></trkpt><trkpt lat="43.65317623015313" lon="11.275641189415362"><ele>238.0</ele><time>2026-03-22T08:52:19Z</time></trkpt><trkpt lat="43.65323856138873" lon="11.275569927463236"><ele>239.0</ele><time>2026-03-22T08:52:20Z</time></trkpt><trkpt lat="43.6533112438542" lon="11.275482114596084"><ele>239.33333333333334</ele><time>2026-03-22T08:52:21Z</time></trkpt><trkpt lat="43.653369452855614" lon="11.275391399639215"><ele>239.66666666666669</ele><time>2026-03-22T08:52:22Z</time></trkpt><trkpt lat="43.65341862539508" lon="11.275283737550502"><ele>240.0</ele><time>2026-03-22T08:52:23Z</time></trkpt><trkpt lat="43.65342535594656" lon="11.275143001428287"><ele>240.33333333333331</ele><time>2026-03-22T08:52:24Z</time></trkpt><trkpt lat="43.65344660683949" lon="11.275026993259766"><ele>240.66666666666666</ele><time>2026-03-22T08:52:25Z</time></trkpt><trkpt lat="43.653480820481896" lon="11.274933209716496"><ele>241.0</ele><time>2026-03-22T08:52:26Z</time></trkpt><trkpt lat="43.65351342426278" lon="11.274771663152082"><ele>240.8</ele><time>2026-03-22T08:52:28Z</time></trkpt><trkpt lat="43.65354081272335" lon="11.274635219394005"><ele>240.60000000000002</ele><time>2026-03-22T08:52:30Z</time></trkpt><trkpt lat="43.65356989467289" lon="11.27449031143299"><ele>240.4</ele><time>2026-03-22T08:52:32Z</time></trkpt><trkpt lat="43.653599331886284" lon="11.274344295739512"><ele>240.2</ele><time>2026-03-22T08:52:34Z</time></trkpt><trkpt lat="43.653635253507055" lon="11.274176623797299"><ele>240.0</ele><time>2026-03-22T08:52:36Z</time></trkpt><trkpt lat="43.653659648951226" lon="11.27406275269984"><ele>240.0</ele><time>2026-03-22T08:52:37Z</time></trkpt><trkpt lat="43.65368208968462" lon="11.273958005756631"><ele>240.0</ele><time>2026-03-22T08:52:38Z</time></trkpt><trkpt lat="43.65371030327047" lon="11.27383191650814"><ele>240.0</ele><time>2026-03-22T08:52:39Z</time></trkpt><trkpt lat="43.65374157255774" lon="11.273697573806485"><ele>240.0</ele><time>2026-03-22T08:52:40Z</time></trkpt><trkpt lat="43.653773918447186" lon="11.273566122810449"><ele>240.0</ele><time>2026-03-22T08:52:41Z</time></trkpt><trkpt lat="43.653806778863036" lon="11.273450589353454"><ele>240.5</ele><time>2026-03-22T08:52:42Z</time></trkpt><trkpt lat="43.65384751493367" lon="11.27334874650473"><ele>241.0</ele><time>2026-03-22T08:52:43Z</time></trkpt><trkpt lat="43.65389531046193" lon="11.273269260593572"><ele>241.5</ele><time>2026-03-22T08:52:44Z</time></trkpt><trkpt lat="43.653939311914286" lon="11.273175625638041"><ele>242.0</ele><time>2026-03-22T08:52:45Z</time></trkpt><trkpt lat="43.653990768271115" lon="11.273086072195564"><ele>242.5</ele><time>2026-03-22T08:52:46Z</time></trkpt><trkpt lat="43.654032551193076" lon="11.273005167475313"><ele>243.0</ele><time>2026-03-22T08:52:47Z</time></trkpt><trkpt lat="43.65409358322091" lon="11.27291143041179"><ele>243.0</ele><time>2026-03-22T08:52:48Z</time></trkpt><trkpt lat="43.65415874309714" lon="11.272834833520582"><ele>243.0</ele><time>2026-03-22T08:52:49Z</time></trkpt><trkpt lat="43.654218225697406" lon="11.272712458187588"><ele>243.0</ele><time>2026-03-22T08:52:50Z</time></trkpt><trkpt lat="43.654286728450835" lon="11.272605578840972"><ele>243.0</ele><time>2026-03-22T08:52:51Z</time></trkpt><trkpt lat="43.654363162654214" lon="11.272493247188008"><ele>243.0</ele><time>2026-03-22T08:52:52Z</time></trkpt><trkpt lat="43.65443568774686" lon="11.272369153952745"><ele>242.8</ele><time>2026-03-22T08:52:53Z</time></trkpt><trkpt lat="43.65449808803675" lon="11.27223909382357"><ele>242.60000000000002</ele><time>2026-03-22T08:52:54Z</time></trkpt><trkpt lat="43.654538638842354" lon="11.272105897503165"><ele>242.39999999999998</ele><time>2026-03-22T08:52:55Z</time></trkpt><trkpt lat="43.65456318555088" lon="11.2719900070086"><ele>242.2</ele><time>2026-03-22T08:52:56Z</time></trkpt><trkpt lat="43.65457504091412" lon="11.271879359275216"><ele>242.0</ele><time>2026-03-22T08:52:57Z</time></trkpt><trkpt lat="43.65458927457912" lon="11.271777636947405"><ele>242.00000000000003</ele><time>2026-03-22T08:52:58Z</time></trkpt><trkpt lat="43.65459342692115" lon="11.271666107846844"><ele>242.0</ele><time>2026-03-22T08:52:59Z</time></trkpt><trkpt lat="43.65458995109461" lon="11.271569319769092"><ele>242.0</ele><time>2026-03-22T08:53:00Z</time></trkpt><trkpt lat="43.654583545997426" lon="11.271473539896117"><ele>242.0</ele><time>2026-03-22T08:53:01Z</time></trkpt><trkpt lat="43.65457390481153" lon="11.271368042433918"><ele>242.00000000000003</ele><time>2026-03-22T08:53:02Z</time></trkpt><trkpt lat="43.65456287651514" lon="11.271263330477673"><ele>242.0</ele><time>2026-03-22T08:53:03Z</time></trkpt><trkpt lat="43.654551357062324" lon="11.271153954928021"><ele>241.50000000000003</ele><time>2026-03-22T08:53:04Z</time></trkpt><trkpt lat="43.65453915835467" lon="11.271038130134484"><ele>241.0</ele><time>2026-03-22T08:53:05Z</time></trkpt><trkpt lat="43.654527731464725" lon="11.270929633542483"><ele>240.5</ele><time>2026-03-22T08:53:06Z</time></trkpt><trkpt lat="43.654515744328094" lon="11.270817141771458"><ele>240.0</ele><time>2026-03-22T08:53:07Z</time></trkpt><trkpt lat="43.65450547728659" lon="11.270722257959497"><ele>239.50000000000003</ele><time>2026-03-22T08:53:08Z</time></trkpt><trkpt lat="43.65449366076032" lon="11.270613054294529"><ele>239.0</ele><time>2026-03-22T08:53:09Z</time></trkpt><trkpt lat="43.65448034444347" lon="11.270489990317857"><ele>238.6</ele><time>2026-03-22T08:53:10Z</time></trkpt><trkpt lat="43.65446267771195" lon="11.270347008599067"><ele>238.2</ele><time>2026-03-22T08:53:11Z</time></trkpt><trkpt lat="43.654431587666465" lon="11.270212132625483"><ele>237.79999999999998</ele><time>2026-03-22T08:53:12Z</time></trkpt><trkpt lat="43.65438512884264" lon="11.270097910025815"><ele>237.39999999999998</ele><time>2026-03-22T08:53:13Z</time></trkpt><trkpt lat="43.654347233349895" lon="11.269990240911895"><ele>237.0</ele><time>2026-03-22T08:53:14Z</time></trkpt><trkpt lat="43.654309492660936" lon="11.269884761510202"><ele>237.0</ele><time>2026-03-22T08:53:15Z</time></trkpt><trkpt lat="43.65428026096127" lon="11.269801526614312"><ele>237.0</ele><time>2026-03-22T08:53:16Z</time></trkpt><trkpt lat="43.65424903121452" lon="11.269705872719396"><ele>237.0</ele><time>2026-03-22T08:53:17Z</time></trkpt><trkpt lat="43.65421798235987" lon="11.269606377569332"><ele>237.0</ele><time>2026-03-22T08:53:18Z</time></trkpt><trkpt lat="43.65418653907386" lon="11.269504513739514"><ele>237.0</ele><time>2026-03-22T08:53:19Z</time></trkpt><trkpt lat="43.65415481392288" lon="11.269399369066443"><ele>237.0</ele><time>2026-03-22T08:53:20Z</time></trkpt><trkpt lat="43.65412338058232" lon="11.269294600459274"><ele>236.39999999999998</ele><time>2026-03-22T08:53:21Z</time></trkpt><trkpt lat="43.65409589503412" lon="11.269202990023421"><ele>235.79999999999998</ele><time>2026-03-22T08:53:22Z</time></trkpt><trkpt lat="43.65407114525542" lon="11.269120498061401"><ele>235.2</ele><time>2026-03-22T08:53:23Z</time></trkpt><trkpt lat="43.654023305186534" lon="11.26896970759681"><ele>234.6</ele><time>2026-03-22T08:53:25Z</time></trkpt><trkpt lat="43.65397165603943" lon="11.268807888618284"><ele>234.0</ele><time>2026-03-22T08:53:27Z</time></trkpt><trkpt lat="43.653944093765496" lon="11.268721534866195"><ele>233.66666666666666</ele><time>2026-03-22T08:53:28Z</time></trkpt><trkpt lat="43.653916388618015" lon="11.268634733458404"><ele>233.33333333333331</ele><time>2026-03-22T08:53:29Z</time></trkpt><trkpt lat="43.65388620213812" lon="11.268534569954078"><ele>233.0</ele><time>2026-03-22T08:53:30Z</time></trkpt><trkpt lat="43.65385685186572" lon="11.268434551481114"><ele>232.66666666666666</ele><time>2026-03-22T08:53:31Z</time></trkpt><trkpt lat="43.653823513037935" lon="11.268323472982917"><ele>232.33333333333331</ele><time>2026-03-22T08:53:32Z</time></trkpt><trkpt lat="43.65378760515199" lon="11.268212487405256"><ele>232.0</ele><time>2026-03-22T08:53:32.999Z</time></trkpt><trkpt lat="43.6537521603855" lon="11.268103325972726"><ele>231.66666666666666</ele><time>2026-03-22T08:53:33.999Z</time></trkpt><trkpt lat="43.65371883335472" lon="11.268012570805087"><ele>231.33333333333331</ele><time>2026-03-22T08:53:34.999Z</time></trkpt><trkpt lat="43.653663564339425" lon="11.267848223434806"><ele>231.0</ele><time>2026-03-22T08:53:36.999Z</time></trkpt><trkpt lat="43.653644176178084" lon="11.267759919693006"><ele>230.66666666666669</ele><time>2026-03-22T08:53:37.999Z</time></trkpt><trkpt lat="43.653631436068714" lon="11.267659451059489"><ele>230.33333333333334</ele><time>2026-03-22T08:53:38.999Z</time></trkpt><trkpt lat="43.653602377517714" lon="11.267569316765554"><ele>230.0</ele><time>2026-03-22T08:53:39.999Z</time></trkpt><trkpt lat="43.65361059387186" lon="11.26746913207656"><ele>230.0</ele><time>2026-03-22T08:53:40.999Z</time></trkpt><trkpt lat="43.65362707867956" lon="11.267360618187146"><ele>230.0</ele><time>2026-03-22T08:53:41.999Z</time></trkpt><trkpt lat="43.6536627148782" lon="11.267241161722968"><ele>230.0</ele><time>2026-03-22T08:53:42.999Z</time></trkpt><trkpt lat="43.65370475342743" lon="11.267108993907618"><ele>230.0</ele><time>2026-03-22T08:53:43.999Z</time></trkpt><trkpt lat="43.653723709083685" lon="11.266969985508819"><ele>230.0</ele><time>2026-03-22T08:53:44.999Z</time></trkpt><trkpt lat="43.653778127235256" lon="11.266845952610778"><ele>229.66666666666669</ele><time>2026-03-22T08:53:45.999Z</time></trkpt><trkpt lat="43.65380738910099" lon="11.266709545853379"><ele>229.33333333333334</ele><time>2026-03-22T08:53:46.999Z</time></trkpt><trkpt lat="43.65382947956971" lon="11.266596490964092"><ele>229.0</ele><time>2026-03-22T08:53:47.999Z</time></trkpt><trkpt lat="43.65385904610787" lon="11.266510695768691"><ele>228.66666666666669</ele><time>2026-03-22T08:53:48.999Z</time></trkpt><trkpt lat="43.653878647977805" lon="11.266425808161305"><ele>228.33333333333334</ele><time>2026-03-22T08:53:49.999Z</time></trkpt><trkpt lat="43.653871388305866" lon="11.266309532799472"><ele>228.0</ele><time>2026-03-22T08:53:50.999Z</time></trkpt><trkpt lat="43.65385325265142" lon="11.266212206475553"><ele>228.0</ele><time>2026-03-22T08:53:51.999Z</time></trkpt><trkpt lat="43.65381371110915" lon="11.266139076380874"><ele>228.0</ele><time>2026-03-22T08:53:52.999Z</time></trkpt><trkpt lat="43.653823478232006" lon="11.266046222555957"><ele>228.0</ele><time>2026-03-22T08:53:53.999Z</time></trkpt><trkpt lat="43.65384123615043" lon="11.26593631716168"><ele>228.0</ele><time>2026-03-22T08:53:54.999Z</time></trkpt><trkpt lat="43.653843945260284" lon="11.26584657282466"><ele>228.0</ele><time>2026-03-22T08:53:55.999Z</time></trkpt><trkpt lat="43.653880387413246" lon="11.265713895037157"><ele>228.0</ele><time>2026-03-22T08:53:57.999Z</time></trkpt><trkpt lat="43.653911640229296" lon="11.265601249624115"><ele>227.33333333333334</ele><time>2026-03-22T08:53:59.999Z</time></trkpt><trkpt lat="43.65396261056738" lon="11.2654782531156"><ele>226.66666666666669</ele><time>2026-03-22T08:54:01.999Z</time></trkpt><trkpt lat="43.65404741559593" lon="11.265387322472648"><ele>226.0</ele><time>2026-03-22T08:54:03.999Z</time></trkpt><trkpt lat="43.65411335594753" lon="11.265349994510112"><ele>225.33333333333334</ele><time>2026-03-22T08:54:04.999Z</time></trkpt><trkpt lat="43.65418898514841" lon="11.265309089544303"><ele>224.66666666666669</ele><time>2026-03-22T08:54:05.999Z</time></trkpt><trkpt lat="43.65425775523589" lon="11.265271310092393"><ele>224.0</ele><time>2026-03-22T08:54:06.999Z</time></trkpt><trkpt lat="43.654325198764916" lon="11.265227832026017"><ele>224.0</ele><time>2026-03-22T08:54:07.999Z</time></trkpt><trkpt lat="43.65442084861199" lon="11.265141221254973"><ele>223.99999999999997</ele><time>2026-03-22T08:54:09.999Z</time></trkpt><trkpt lat="43.65447988276696" lon="11.265031715353434"><ele>223.99999999999997</ele><time>2026-03-22T08:54:11.999Z</time></trkpt><trkpt lat="43.65448909535259" lon="11.264924848575586"><ele>224.0</ele><time>2026-03-22T08:54:12.999Z</time></trkpt><trkpt lat="43.654486334694724" lon="11.26479234219486"><ele>224.0</ele><time>2026-03-22T08:54:13.999Z</time></trkpt><trkpt lat="43.654479639701016" lon="11.264671477085773"><ele>222.16666666666669</ele><time>2026-03-22T08:54:14.999Z</time></trkpt><trkpt lat="43.654466281725874" lon="11.264554620415284"><ele>220.33333333333334</ele><time>2026-03-22T08:54:15.999Z</time></trkpt><trkpt lat="43.65446863903533" lon="11.264463631698831"><ele>218.5</ele><time>2026-03-22T08:54:16.999Z</time></trkpt><trkpt lat="43.65447717316752" lon="11.264356806545342"><ele>216.66666666666669</ele><time>2026-03-22T08:54:18.999Z</time></trkpt><trkpt lat="43.65448383406776" lon="11.264204179382691"><ele>214.83333333333334</ele><time>2026-03-22T08:54:20.999Z</time></trkpt><trkpt lat="43.654487009752685" lon="11.26410479691181"><ele>213.0</ele><time>2026-03-22T08:54:21.999Z</time></trkpt><trkpt lat="43.65449104465177" lon="11.264017224995335"><ele>212.5</ele><time>2026-03-22T08:54:22.999Z</time></trkpt><trkpt lat="43.65450881878753" lon="11.263852428276644"><ele>212.0</ele><time>2026-03-22T08:54:25Z</time></trkpt><trkpt lat="43.65455473503148" lon="11.263770714491022"><ele>211.5</ele><time>2026-03-22T08:54:26Z</time></trkpt><trkpt lat="43.65461029616407" lon="11.263680364254231"><ele>211.0</ele><time>2026-03-22T08:54:27Z</time></trkpt><trkpt lat="43.65468228787625" lon="11.263601588686495"><ele>210.5</ele><time>2026-03-22T08:54:28Z</time></trkpt><trkpt lat="43.6547398017975" lon="11.263537628936215"><ele>210.0</ele><time>2026-03-22T08:54:29Z</time></trkpt><trkpt lat="43.65480027945201" lon="11.263491810108913"><ele>210.0</ele><time>2026-03-22T08:54:31Z</time></trkpt><trkpt lat="43.65472793723103" lon="11.263299851209396"><ele>210.0</ele><time>2026-03-22T08:55:25Z</time></trkpt><trkpt lat="43.654816148343784" lon="11.263295415980433"><ele>210.0</ele><time>2026-03-22T08:55:49.999Z</time></trkpt><trkpt lat="43.65489906106991" lon="11.263315287751858"><ele>210.0</ele><time>2026-03-22T08:55:51.999Z</time></trkpt><trkpt lat="43.65495347261034" lon="11.263255512850757"><ele>210.0</ele><time>2026-03-22T08:55:52.999Z</time></trkpt><trkpt lat="43.65500829583003" lon="11.263169856448028"><ele>210.0</ele><time>2026-03-22T08:55:53.999Z</time></trkpt><trkpt lat="43.65508209633058" lon="11.263125523105208"><ele>210.0</ele><time>2026-03-22T08:55:54.999Z</time></trkpt><trkpt lat="43.65512559476304" lon="11.263018032007976"><ele>210.0</ele><time>2026-03-22T08:55:55.999Z</time></trkpt><trkpt lat="43.65515236089682" lon="11.26288105300387"><ele>210.0</ele><time>2026-03-22T08:55:56.999Z</time></trkpt><trkpt lat="43.65516265243502" lon="11.262764838623031"><ele>210.0</ele><time>2026-03-22T08:55:57.999Z</time></trkpt><trkpt lat="43.65517490853249" lon="11.262645837721669"><ele>210.0</ele><time>2026-03-22T08:55:58.999Z</time></trkpt><trkpt lat="43.65519527798128" lon="11.262527842230833"><ele>208.0</ele><time>2026-03-22T08:55:59.999Z</time></trkpt><trkpt lat="43.65522055305634" lon="11.262417286730235"><ele>206.0</ele><time>2026-03-22T08:56:00.999Z</time></trkpt><trkpt lat="43.655254348222954" lon="11.262296627374964"><ele>204.0</ele><time>2026-03-22T08:56:01.999Z</time></trkpt><trkpt lat="43.65529568223627" lon="11.262180208671253"><ele>202.0</ele><time>2026-03-22T08:56:02.999Z</time></trkpt><trkpt lat="43.65534170433801" lon="11.262058237046608"><ele>200.0</ele><time>2026-03-22T08:56:03.999Z</time></trkpt><trkpt lat="43.65538788125529" lon="11.261934710246889"><ele>196.6</ele><time>2026-03-22T08:56:04.999Z</time></trkpt><trkpt lat="43.65542939949498" lon="11.261812310555987"><ele>193.2</ele><time>2026-03-22T08:56:05.999Z</time></trkpt><trkpt lat="43.65547307612279" lon="11.261683547929419"><ele>189.8</ele><time>2026-03-22T08:56:06.999Z</time></trkpt><trkpt lat="43.65551753843224" lon="11.261552661897364"><ele>186.4</ele><time>2026-03-22T08:56:07.999Z</time></trkpt><trkpt lat="43.655558559163374" lon="11.261435039267736"><ele>183.0</ele><time>2026-03-22T08:56:08.999Z</time></trkpt><trkpt lat="43.65559425699059" lon="11.26133442142077"><ele>181.83333333333334</ele><time>2026-03-22T08:56:09.999Z</time></trkpt><trkpt lat="43.65562320784989" lon="11.261254746209675"><ele>180.66666666666666</ele><time>2026-03-22T08:56:10.999Z</time></trkpt><trkpt lat="43.65565480182444" lon="11.261167796811524"><ele>179.5</ele><time>2026-03-22T08:56:11.999Z</time></trkpt><trkpt lat="43.655686587099225" lon="11.26108038525845"><ele>178.33333333333331</ele><time>2026-03-22T08:56:12.999Z</time></trkpt><trkpt lat="43.65571996702684" lon="11.260981523975483"><ele>177.16666666666666</ele><time>2026-03-22T08:56:13.999Z</time></trkpt><trkpt lat="43.655750862690425" lon="11.26089043770697"><ele>176.0</ele><time>2026-03-22T08:56:14.999Z</time></trkpt><trkpt lat="43.65581326421608" lon="11.260753896342598"><ele>176.0</ele><time>2026-03-22T08:56:16.999Z</time></trkpt><trkpt lat="43.65587156168275" lon="11.260671313764696"><ele>176.0</ele><time>2026-03-22T08:56:18.999Z</time></trkpt><trkpt lat="43.655982949063734" lon="11.260649391855225"><ele>176.0</ele><time>2026-03-22T08:56:20.999Z</time></trkpt><trkpt lat="43.656082700611265" lon="11.260724485835489"><ele>176.0</ele><time>2026-03-22T08:56:22.999Z</time></trkpt><trkpt lat="43.65615661188301" lon="11.260850329922913"><ele>176.0</ele><time>2026-03-22T08:56:24.999Z</time></trkpt><trkpt lat="43.65619872239711" lon="11.260938135581847"><ele>174.0</ele><time>2026-03-22T08:56:25.999Z</time></trkpt><trkpt lat="43.65625054629294" lon="11.261044974766623"><ele>172.0</ele><time>2026-03-22T08:56:26.999Z</time></trkpt><trkpt lat="43.65629690753689" lon="11.261150792147234"><ele>170.0</ele><time>2026-03-22T08:56:27.999Z</time></trkpt><trkpt lat="43.65634230003601" lon="11.261252597513776"><ele>168.0</ele><time>2026-03-22T08:56:28.999Z</time></trkpt><trkpt lat="43.65639179256162" lon="11.261353431659488"><ele>166.0</ele><time>2026-03-22T08:56:30Z</time></trkpt><trkpt lat="43.65644578387691" lon="11.261458341182546"><ele>166.0</ele><time>2026-03-22T08:56:31Z</time></trkpt><trkpt lat="43.656500223651435" lon="11.261564841045088"><ele>166.0</ele><time>2026-03-22T08:56:32Z</time></trkpt><trkpt lat="43.65656907911179" lon="11.261670951405335"><ele>166.0</ele><time>2026-03-22T08:56:33Z</time></trkpt><trkpt lat="43.65664492936527" lon="11.261762915559173"><ele>166.0</ele><time>2026-03-22T08:56:34Z</time></trkpt><trkpt lat="43.65671110029421" lon="11.26185265736556"><ele>166.0</ele><time>2026-03-22T08:56:35Z</time></trkpt><trkpt lat="43.656775322468654" lon="11.26195062024615"><ele>166.0</ele><time>2026-03-22T08:56:36Z</time></trkpt><trkpt lat="43.65683363344613" lon="11.262071594983905"><ele>166.0</ele><time>2026-03-22T08:56:37Z</time></trkpt><trkpt lat="43.656881292552136" lon="11.262198353707843"><ele>166.0</ele><time>2026-03-22T08:56:38Z</time></trkpt><trkpt lat="43.6569127512615" lon="11.262324785989499"><ele>166.0</ele><time>2026-03-22T08:56:39Z</time></trkpt><trkpt lat="43.65693608040274" lon="11.262459225391344"><ele>166.0</ele><time>2026-03-22T08:56:40Z</time></trkpt><trkpt lat="43.65695089158507" lon="11.26259329287674"><ele>166.83333333333334</ele><time>2026-03-22T08:56:41Z</time></trkpt><trkpt lat="43.65695398250856" lon="11.26271521695457"><ele>167.66666666666669</ele><time>2026-03-22T08:56:42Z</time></trkpt><trkpt lat="43.65694986817399" lon="11.262820738004462"><ele>168.5</ele><time>2026-03-22T08:56:43Z</time></trkpt><trkpt lat="43.65694919489152" lon="11.262927830928348"><ele>169.33333333333334</ele><time>2026-03-22T08:56:44Z</time></trkpt><trkpt lat="43.65696290451692" lon="11.263030051393065"><ele>170.16666666666666</ele><time>2026-03-22T08:56:45Z</time></trkpt><trkpt lat="43.65699495678015" lon="11.263121807185954"><ele>171.0</ele><time>2026-03-22T08:56:46Z</time></trkpt><trkpt lat="43.657050862449715" lon="11.26318268210869"><ele>168.57142857142856</ele><time>2026-03-22T08:56:47Z</time></trkpt><trkpt lat="43.657122800327635" lon="11.26321137767032"><ele>166.14285714285714</ele><time>2026-03-22T08:56:48Z</time></trkpt><trkpt lat="43.65718717315424" lon="11.263207586907544"><ele>163.71428571428572</ele><time>2026-03-22T08:56:49Z</time></trkpt><trkpt lat="43.65727239317186" lon="11.263177603677963"><ele>161.28571428571428</ele><time>2026-03-22T08:56:51Z</time></trkpt><trkpt lat="43.65731713910713" lon="11.263111510632394"><ele>158.85714285714286</ele><time>2026-03-22T08:56:54Z</time></trkpt><trkpt lat="43.6573699090093" lon="11.263044077816733"><ele>156.42857142857142</ele><time>2026-03-22T08:56:56Z</time></trkpt><trkpt lat="43.65738072633088" lon="11.262939194925448"><ele>154.0</ele><time>2026-03-22T08:56:57Z</time></trkpt><trkpt lat="43.65741768587885" lon="11.262836397857258"><ele>152.66666666666669</ele><time>2026-03-22T08:56:58Z</time></trkpt><trkpt lat="43.6574353316084" lon="11.26272835667109"><ele>151.33333333333334</ele><time>2026-03-22T08:56:59Z</time></trkpt><trkpt lat="43.65743915045297" lon="11.26261703026068"><ele>150.0</ele><time>2026-03-22T08:57:00Z</time></trkpt><trkpt lat="43.65743372387629" lon="11.26251586088237"><ele>148.66666666666666</ele><time>2026-03-22T08:57:01Z</time></trkpt><trkpt lat="43.65741751641636" lon="11.26240716815028"><ele>147.33333333333331</ele><time>2026-03-22T08:57:02Z</time></trkpt><trkpt lat="43.65738664969069" lon="11.262291896501711"><ele>146.0</ele><time>2026-03-22T08:57:03Z</time></trkpt><trkpt lat="43.65738755325662" lon="11.262154904712826"><ele>145.6</ele><time>2026-03-22T08:57:04Z</time></trkpt><trkpt lat="43.65737097830465" lon="11.262010976925435"><ele>145.2</ele><time>2026-03-22T08:57:05Z</time></trkpt><trkpt lat="43.65735444306705" lon="11.2618707523013"><ele>144.8</ele><time>2026-03-22T08:57:06Z</time></trkpt><trkpt lat="43.65734232926996" lon="11.261751259396803"><ele>144.4</ele><time>2026-03-22T08:57:07Z</time></trkpt><trkpt lat="43.65733888360114" lon="11.261615463052172"><ele>144.0</ele><time>2026-03-22T08:57:08Z</time></trkpt><trkpt lat="43.65734335782783" lon="11.26146041598703"><ele>143.75</ele><time>2026-03-22T08:57:09Z</time></trkpt><trkpt lat="43.6573850668695" lon="11.261308785517341"><ele>143.5</ele><time>2026-03-22T08:57:10Z</time></trkpt><trkpt lat="43.657426957570095" lon="11.261152123481718"><ele>143.25</ele><time>2026-03-22T08:57:11Z</time></trkpt><trkpt lat="43.657460678254814" lon="11.260999079663996"><ele>143.0</ele><time>2026-03-22T08:57:12Z</time></trkpt><trkpt lat="43.65749264414843" lon="11.260856899795947"><ele>143.0</ele><time>2026-03-22T08:57:13Z</time></trkpt><trkpt lat="43.6575125938117" lon="11.260720479657909"><ele>143.0</ele><time>2026-03-22T08:57:14Z</time></trkpt><trkpt lat="43.65752404816892" lon="11.260581109860224"><ele>143.0</ele><time>2026-03-22T08:57:15Z</time></trkpt><trkpt lat="43.65752813361496" lon="11.26044023442491"><ele>143.0</ele><time>2026-03-22T08:57:16Z</time></trkpt><trkpt lat="43.65753679423596" lon="11.260294194052058"><ele>143.0</ele><time>2026-03-22T08:57:17Z</time></trkpt><trkpt lat="43.65752165644654" lon="11.260147941966013"><ele>142.0</ele><time>2026-03-22T08:57:18Z</time></trkpt><trkpt lat="43.65750974123555" lon="11.260013885744785"><ele>141.0</ele><time>2026-03-22T08:57:19Z</time></trkpt><trkpt lat="43.65750018541618" lon="11.259885421223437"><ele>140.0</ele><time>2026-03-22T08:57:20Z</time></trkpt><trkpt lat="43.657492826697194" lon="11.25976437029204"><ele>139.0</ele><time>2026-03-22T08:57:21Z</time></trkpt><trkpt lat="43.657485377884996" lon="11.259641837396954"><ele>138.0</ele><time>2026-03-22T08:57:22Z</time></trkpt><trkpt lat="43.65746811086659" lon="11.259522165158494"><ele>136.8</ele><time>2026-03-22T08:57:23Z</time></trkpt><trkpt lat="43.65745877217624" lon="11.259403608826565"><ele>135.60000000000002</ele><time>2026-03-22T08:57:24Z</time></trkpt><trkpt lat="43.65745314201961" lon="11.259272590041077"><ele>134.39999999999998</ele><time>2026-03-22T08:57:25Z</time></trkpt><trkpt lat="43.657446133322736" lon="11.259143461743196"><ele>133.2</ele><time>2026-03-22T08:57:26Z</time></trkpt><trkpt lat="43.65743891674678" lon="11.25901795548315"><ele>132.0</ele><time>2026-03-22T08:57:27Z</time></trkpt><trkpt lat="43.657437639684304" lon="11.258898312639559"><ele>131.83333333333334</ele><time>2026-03-22T08:57:28Z</time></trkpt><trkpt lat="43.657422583266516" lon="11.258797115111959"><ele>131.66666666666666</ele><time>2026-03-22T08:57:29Z</time></trkpt><trkpt lat="43.65741417080418" lon="11.258705299153261"><ele>131.5</ele><time>2026-03-22T08:57:30Z</time></trkpt><trkpt lat="43.65740907576555" lon="11.25854227993383"><ele>131.33333333333331</ele><time>2026-03-22T08:57:32Z</time></trkpt><trkpt lat="43.657399017910315" lon="11.258426217990273"><ele>131.16666666666666</ele><time>2026-03-22T08:57:34Z</time></trkpt><trkpt lat="43.65738509754252" lon="11.258318840201914"><ele>131.0</ele><time>2026-03-22T08:57:37Z</time></trkpt><trkpt lat="43.657272855053236" lon="11.25832291232543"><ele>131.0</ele><time>2026-03-22T08:57:38Z</time></trkpt><trkpt lat="43.657207880311944" lon="11.258328815322018"><ele>131.0</ele><time>2026-03-22T08:57:39Z</time></trkpt><trkpt lat="43.657049655208105" lon="11.25831027038896"><ele>131.0</ele><time>2026-03-22T08:57:40.999Z</time></trkpt><trkpt lat="43.656959062454774" lon="11.258294386960857"><ele>131.0</ele><time>2026-03-22T08:57:41.999Z</time></trkpt><trkpt lat="43.65686460794179" lon="11.258260182177729"><ele>131.0</ele><time>2026-03-22T08:57:42.999Z</time></trkpt><trkpt lat="43.65675409729926" lon="11.258203493744915"><ele>131.0</ele><time>2026-03-22T08:57:43.999Z</time></trkpt><trkpt lat="43.65663451648868" lon="11.258126488901366"><ele>131.0</ele><time>2026-03-22T08:57:44.999Z</time></trkpt><trkpt lat="43.65649701961653" lon="11.258063945818662"><ele>131.0</ele><time>2026-03-22T08:57:45.999Z</time></trkpt><trkpt lat="43.65631724681541" lon="11.258009996085923"><ele>131.66666666666666</ele><time>2026-03-22T08:57:46.999Z</time></trkpt><trkpt lat="43.656108152916275" lon="11.257974768372787"><ele>132.33333333333334</ele><time>2026-03-22T08:57:47.999Z</time></trkpt><trkpt lat="43.65600288512975" lon="11.257951192587223"><ele>133.0</ele><time>2026-03-22T08:57:48.999Z</time></trkpt><trkpt lat="43.65579105094016" lon="11.257916241697046"><ele>133.0</ele><time>2026-03-22T08:57:49.999Z</time></trkpt><trkpt lat="43.65561574659721" lon="11.257889643952025"><ele>133.0</ele><time>2026-03-22T08:57:50.999Z</time></trkpt><trkpt lat="43.65545339353961" lon="11.257873604667076"><ele>133.0</ele><time>2026-03-22T08:57:51.999Z</time></trkpt><trkpt lat="43.65529563167271" lon="11.257907942380884"><ele>134.0</ele><time>2026-03-22T08:57:52.999Z</time></trkpt><trkpt lat="43.655141675684405" lon="11.25798557908527"><ele>135.0</ele><time>2026-03-22T08:57:53.999Z</time></trkpt><trkpt lat="43.65498459941845" lon="11.258118234426664"><ele>136.0</ele><time>2026-03-22T08:57:54.999Z</time></trkpt><trkpt lat="43.65483982949303" lon="11.258184311592213"><ele>136.66666666666669</ele><time>2026-03-22T08:57:55.999Z</time></trkpt><trkpt lat="43.6546878333254" lon="11.258191396517798"><ele>137.33333333333334</ele><time>2026-03-22T08:57:56.999Z</time></trkpt><trkpt lat="43.654521512547" lon="11.258202338458082"><ele>138.0</ele><time>2026-03-22T08:57:57.999Z</time></trkpt><trkpt lat="43.654353791466406" lon="11.258222506555505"><ele>138.0</ele><time>2026-03-22T08:57:58.999Z</time></trkpt><trkpt lat="43.654196428938334" lon="11.258277641995125"><ele>138.0</ele><time>2026-03-22T08:57:59.999Z</time></trkpt><trkpt lat="43.654040351281694" lon="11.25833416916565"><ele>138.0</ele><time>2026-03-22T08:58:00.999Z</time></trkpt><trkpt lat="43.65388405112356" lon="11.258409768431337"><ele>138.0</ele><time>2026-03-22T08:58:01.999Z</time></trkpt><trkpt lat="43.65372704757175" lon="11.258496222925793"><ele>138.0</ele><time>2026-03-22T08:58:02.999Z</time></trkpt><trkpt lat="43.6535822882374" lon="11.25856193633389"><ele>138.0</ele><time>2026-03-22T08:58:03.999Z</time></trkpt><trkpt lat="43.65344402833902" lon="11.258626681192611"><ele>137.25</ele><time>2026-03-22T08:58:04.999Z</time></trkpt><trkpt lat="43.65330625346961" lon="11.258682655726442"><ele>136.5</ele><time>2026-03-22T08:58:05.999Z</time></trkpt><trkpt lat="43.6531621699373" lon="11.258716154392431"><ele>135.75</ele><time>2026-03-22T08:58:06.999Z</time></trkpt><trkpt lat="43.65301833488269" lon="11.25869447202852"><ele>135.0</ele><time>2026-03-22T08:58:07.999Z</time></trkpt><trkpt lat="43.65287165502763" lon="11.258685913469233"><ele>134.75</ele><time>2026-03-22T08:58:08.999Z</time></trkpt><trkpt lat="43.65272815486558" lon="11.258675371715023"><ele>134.5</ele><time>2026-03-22T08:58:09.999Z</time></trkpt><trkpt lat="43.652579845861815" lon="11.25866455675627"><ele>134.25</ele><time>2026-03-22T08:58:10.999Z</time></trkpt><trkpt lat="43.652426785413375" lon="11.258651606787355"><ele>134.0</ele><time>2026-03-22T08:58:11.999Z</time></trkpt><trkpt lat="43.65226441999322" lon="11.25863786954961"><ele>134.0</ele><time>2026-03-22T08:58:12.999Z</time></trkpt><trkpt lat="43.652097140799086" lon="11.258639878519137"><ele>134.0</ele><time>2026-03-22T08:58:13.999Z</time></trkpt><trkpt lat="43.651942682385595" lon="11.258619058461218"><ele>134.0</ele><time>2026-03-22T08:58:14.999Z</time></trkpt><trkpt lat="43.651799887316415" lon="11.258601429449229"><ele>134.0</ele><time>2026-03-22T08:58:15.999Z</time></trkpt><trkpt lat="43.6516681314886" lon="11.258586676074623"><ele>134.0</ele><time>2026-03-22T08:58:16.999Z</time></trkpt><trkpt lat="43.65153259724012" lon="11.258576997535673"><ele>134.0</ele><time>2026-03-22T08:58:17.999Z</time></trkpt><trkpt lat="43.65139146115163" lon="11.258564186881443"><ele>134.0</ele><time>2026-03-22T08:58:18.999Z</time></trkpt><trkpt lat="43.65125568167223" lon="11.25855531885784"><ele>134.5</ele><time>2026-03-22T08:58:19.999Z</time></trkpt><trkpt lat="43.6511219648586" lon="11.2585667000386"><ele>135.0</ele><time>2026-03-22T08:58:20.999Z</time></trkpt><trkpt lat="43.65099163152753" lon="11.25860396477121"><ele>135.5</ele><time>2026-03-22T08:58:21.999Z</time></trkpt><trkpt lat="43.65085628477748" lon="11.258674605230778"><ele>136.0</ele><time>2026-03-22T08:58:22.999Z</time></trkpt><trkpt lat="43.650726522694114" lon="11.258771764619304"><ele>136.0</ele><time>2026-03-22T08:58:23.999Z</time></trkpt><trkpt lat="43.6506033901032" lon="11.258905917689209"><ele>136.0</ele><time>2026-03-22T08:58:24.999Z</time></trkpt><trkpt lat="43.65048928928239" lon="11.259049789893758"><ele>136.0</ele><time>2026-03-22T08:58:25.999Z</time></trkpt><trkpt lat="43.65038503880334" lon="11.259183035401218"><ele>136.5</ele><time>2026-03-22T08:58:26.999Z</time></trkpt><trkpt lat="43.650290173908616" lon="11.259307377153121"><ele>137.0</ele><time>2026-03-22T08:58:27.999Z</time></trkpt><trkpt lat="43.650195463977035" lon="11.25942418504817"><ele>137.5</ele><time>2026-03-22T08:58:28.999Z</time></trkpt><trkpt lat="43.65010765331641" lon="11.259530295063083"><ele>138.0</ele><time>2026-03-22T08:58:29.999Z</time></trkpt><trkpt lat="43.65001099656376" lon="11.259583350509978"><ele>138.0</ele><time>2026-03-22T08:58:30.999Z</time></trkpt><trkpt lat="43.64991195283294" lon="11.25960483885436"><ele>138.0</ele><time>2026-03-22T08:58:31.999Z</time></trkpt><trkpt lat="43.64980861188539" lon="11.259602100589309"><ele>138.0</ele><time>2026-03-22T08:58:32.999Z</time></trkpt><trkpt lat="43.649687862135345" lon="11.259585612014499"><ele>138.0</ele><time>2026-03-22T08:58:33.999Z</time></trkpt><trkpt lat="43.64956285401987" lon="11.25957831873336"><ele>138.20000000000002</ele><time>2026-03-22T08:58:35Z</time></trkpt><trkpt lat="43.64944101025363" lon="11.259567545099953"><ele>138.4</ele><time>2026-03-22T08:58:36Z</time></trkpt><trkpt lat="43.649336792324604" lon="11.259562787307047"><ele>138.60000000000002</ele><time>2026-03-22T08:58:37Z</time></trkpt><trkpt lat="43.64923113028617" lon="11.259561298459934"><ele>138.8</ele><time>2026-03-22T08:58:38Z</time></trkpt><trkpt lat="43.64912922627058" lon="11.259554086620918"><ele>139.0</ele><time>2026-03-22T08:58:39Z</time></trkpt><trkpt lat="43.649026641936786" lon="11.259546925410614"><ele>139.0</ele><time>2026-03-22T08:58:40Z</time></trkpt><trkpt lat="43.648925670131604" lon="11.2595418793325"><ele>139.0</ele><time>2026-03-22T08:58:41Z</time></trkpt><trkpt lat="43.648833093821075" lon="11.259528972484373"><ele>139.0</ele><time>2026-03-22T08:58:42Z</time></trkpt><trkpt lat="43.64875291934409" lon="11.259530082694052"><ele>139.0</ele><time>2026-03-22T08:58:43Z</time></trkpt><trkpt lat="43.648673629917" lon="11.259536798578033"><ele>139.0</ele><time>2026-03-22T08:58:44Z</time></trkpt><trkpt lat="43.64856107632292" lon="11.259558992779665"><ele>139.2</ele><time>2026-03-22T08:58:46Z</time></trkpt><trkpt lat="43.64847687504388" lon="11.259469467965904"><ele>139.4</ele><time>2026-03-22T08:58:48Z</time></trkpt><trkpt lat="43.648387709443924" lon="11.259388033590039"><ele>139.6</ele><time>2026-03-22T08:58:50Z</time></trkpt><trkpt lat="43.64831781374878" lon="11.259323584767033"><ele>139.8</ele><time>2026-03-22T08:58:51Z</time></trkpt><trkpt lat="43.64823778836599" lon="11.259252589894487"><ele>140.0</ele><time>2026-03-22T08:58:52Z</time></trkpt><trkpt lat="43.648162259778125" lon="11.25919289200353"><ele>140.0</ele><time>2026-03-22T08:58:53Z</time></trkpt><trkpt lat="43.648094050275546" lon="11.259137041631133"><ele>140.0</ele><time>2026-03-22T08:58:54Z</time></trkpt><trkpt lat="43.64803559324431" lon="11.25909238041225"><ele>140.0</ele><time>2026-03-22T08:58:55Z</time></trkpt><trkpt lat="43.64794452994498" lon="11.259041054890474"><ele>140.0</ele><time>2026-03-22T08:58:57Z</time></trkpt><trkpt lat="43.64788697688127" lon="11.25896814979159"><ele>140.0</ele><time>2026-03-22T08:58:59Z</time></trkpt><trkpt lat="43.64783284839157" lon="11.258918414261913"><ele>140.0</ele><time>2026-03-22T08:59:01Z</time></trkpt><trkpt lat="43.647704932417646" lon="11.259094135722647"><ele>140.2</ele><time>2026-03-22T08:59:02Z</time></trkpt><trkpt lat="43.64760874816153" lon="11.25916531111409"><ele>140.4</ele><time>2026-03-22T08:59:04Z</time></trkpt><trkpt lat="43.64753958680136" lon="11.259198529817686"><ele>140.6</ele><time>2026-03-22T08:59:06Z</time></trkpt><trkpt lat="43.647452994295" lon="11.259244294098705"><ele>140.8</ele><time>2026-03-22T08:59:08Z</time></trkpt><trkpt lat="43.64743542650495" lon="11.259405163819046"><ele>141.0</ele><time>2026-03-22T08:59:09Z</time></trkpt><trkpt lat="43.64733809310274" lon="11.259517729521672"><ele>141.0</ele><time>2026-03-22T08:59:11Z</time></trkpt><trkpt lat="43.64727718209115" lon="11.25959351705163"><ele>141.0</ele><time>2026-03-22T08:59:12Z</time></trkpt><trkpt lat="43.6472062184906" lon="11.25967129456408"><ele>141.0</ele><time>2026-03-22T08:59:13Z</time></trkpt><trkpt lat="43.647118100644526" lon="11.259766855803099"><ele>141.0</ele><time>2026-03-22T08:59:14Z</time></trkpt><trkpt lat="43.64702321299227" lon="11.259865254975935"><ele>141.0</ele><time>2026-03-22T08:59:15Z</time></trkpt><trkpt lat="43.6469289836149" lon="11.259956168330648"><ele>141.16666666666666</ele><time>2026-03-22T08:59:16Z</time></trkpt><trkpt lat="43.64685070129365" lon="11.2600259748447"><ele>141.33333333333334</ele><time>2026-03-22T08:59:17Z</time></trkpt><trkpt lat="43.64677075392411" lon="11.260084408742964"><ele>141.5</ele><time>2026-03-22T08:59:18Z</time></trkpt><trkpt lat="43.646699613210004" lon="11.260115400680728"><ele>141.66666666666669</ele><time>2026-03-22T08:59:19Z</time></trkpt><trkpt lat="43.646615385301295" lon="11.260130379569087"><ele>141.83333333333334</ele><time>2026-03-22T08:59:20Z</time></trkpt><trkpt lat="43.64654765806641" lon="11.260134946654528"><ele>142.0</ele><time>2026-03-22T08:59:21Z</time></trkpt><trkpt lat="43.64648014008171" lon="11.260157498693555"><ele>142.0</ele><time>2026-03-22T08:59:22Z</time></trkpt><trkpt lat="43.64641132943753" lon="11.260213529068052"><ele>142.0</ele><time>2026-03-22T08:59:23Z</time></trkpt><trkpt lat="43.646337515644106" lon="11.260262434589162"><ele>142.0</ele><time>2026-03-22T08:59:24Z</time></trkpt><trkpt lat="43.646206088978204" lon="11.260218435719285"><ele>142.0</ele><time>2026-03-22T08:59:26Z</time></trkpt><trkpt lat="43.64612009184162" lon="11.260214871391446"><ele>142.0</ele><time>2026-03-22T08:59:27Z</time></trkpt><trkpt lat="43.64601731825504" lon="11.26030439180064"><ele>144.0</ele><time>2026-03-22T08:59:29Z</time></trkpt><trkpt lat="43.64600346365476" lon="11.260392002977857"><ele>146.0</ele><time>2026-03-22T08:59:30Z</time></trkpt><trkpt lat="43.64598671221809" lon="11.260496360887856"><ele>148.0</ele><time>2026-03-22T08:59:31Z</time></trkpt><trkpt lat="43.64595854019575" lon="11.260584363277244"><ele>150.0</ele><time>2026-03-22T08:59:32Z</time></trkpt><trkpt lat="43.64587195325666" lon="11.260638690801915"><ele>152.0</ele><time>2026-03-22T08:59:34Z</time></trkpt><trkpt lat="43.645776734907216" lon="11.260542887060758"><ele>154.0</ele><time>2026-03-22T08:59:36Z</time></trkpt><trkpt lat="43.645730444018135" lon="11.260475490626085"><ele>154.0</ele><time>2026-03-22T08:59:37Z</time></trkpt><trkpt lat="43.645653788577185" lon="11.26044085070818"><ele>154.0</ele><time>2026-03-22T08:59:39Z</time></trkpt><trkpt lat="43.645566234604914" lon="11.260560596133876"><ele>154.0</ele><time>2026-03-22T08:59:40.999Z</time></trkpt><trkpt lat="43.64552501796926" lon="11.260654942806628"><ele>154.0</ele><time>2026-03-22T08:59:41.999Z</time></trkpt><trkpt lat="43.64547585091522" lon="11.2607749062833"><ele>154.0</ele><time>2026-03-22T08:59:42.999Z</time></trkpt><trkpt lat="43.64542670369435" lon="11.260885412802425"><ele>155.2</ele><time>2026-03-22T08:59:43.999Z</time></trkpt><trkpt lat="43.64536935415774" lon="11.260951371380155"><ele>156.4</ele><time>2026-03-22T08:59:44.999Z</time></trkpt><trkpt lat="43.645298763606505" lon="11.26103400249239"><ele>157.6</ele><time>2026-03-22T08:59:45.999Z</time></trkpt><trkpt lat="43.645172807778785" lon="11.261089709920148"><ele>158.8</ele><time>2026-03-22T08:59:47.999Z</time></trkpt><trkpt lat="43.64506925174838" lon="11.261121571305262"><ele>160.0</ele><time>2026-03-22T08:59:48.999Z</time></trkpt><trkpt lat="43.64493951770453" lon="11.26113357664333"><ele>163.33333333333334</ele><time>2026-03-22T08:59:49.999Z</time></trkpt><trkpt lat="43.644829129948256" lon="11.261152831151938"><ele>166.66666666666669</ele><time>2026-03-22T08:59:50.999Z</time></trkpt><trkpt lat="43.64474220114365" lon="11.261191897722094"><ele>170.0</ele><time>2026-03-22T08:59:51.999Z</time></trkpt><trkpt lat="43.64465620985377" lon="11.261237327697145"><ele>173.33333333333334</ele><time>2026-03-22T08:59:52.999Z</time></trkpt><trkpt lat="43.64459504441274" lon="11.261298062054697"><ele>176.66666666666666</ele><time>2026-03-22T08:59:53.999Z</time></trkpt><trkpt lat="43.64455133309805" lon="11.261375945261111"><ele>180.0</ele><time>2026-03-22T08:59:54.999Z</time></trkpt><trkpt lat="43.64449894014778" lon="11.261506472683656"><ele>183.0</ele><time>2026-03-22T08:59:55.999Z</time></trkpt><trkpt lat="43.6444382064651" lon="11.261647277380428"><ele>186.0</ele><time>2026-03-22T08:59:56.999Z</time></trkpt><trkpt lat="43.64438397418424" lon="11.261788448742385"><ele>189.0</ele><time>2026-03-22T08:59:57.999Z</time></trkpt><trkpt lat="43.644320893301135" lon="11.261914401915625"><ele>192.0</ele><time>2026-03-22T08:59:58.999Z</time></trkpt><trkpt lat="43.644253991003254" lon="11.262025889214426"><ele>192.0</ele><time>2026-03-22T08:59:59.999Z</time></trkpt><trkpt lat="43.6441927262759" lon="11.262132542965166"><ele>192.0</ele><time>2026-03-22T09:00:00.999Z</time></trkpt><trkpt lat="43.644142417703016" lon="11.262228021011174"><ele>192.0</ele><time>2026-03-22T09:00:01.999Z</time></trkpt><trkpt lat="43.644089068305064" lon="11.262386159689882"><ele>192.0</ele><time>2026-03-22T09:00:03.999Z</time></trkpt><trkpt lat="43.643986506404126" lon="11.262483841858744"><ele>192.0</ele><time>2026-03-22T09:00:05.999Z</time></trkpt><trkpt lat="43.64391677770734" lon="11.262511155484832"><ele>193.16666666666666</ele><time>2026-03-22T09:00:06.999Z</time></trkpt><trkpt lat="43.643838285215466" lon="11.262522272798028"><ele>194.33333333333331</ele><time>2026-03-22T09:00:07.999Z</time></trkpt><trkpt lat="43.64374687003391" lon="11.262505495316177"><ele>195.5</ele><time>2026-03-22T09:00:08.999Z</time></trkpt><trkpt lat="43.64363577704069" lon="11.262491658716884"><ele>196.66666666666666</ele><time>2026-03-22T09:00:09.999Z</time></trkpt><trkpt lat="43.643549720325204" lon="11.26250941422656"><ele>197.83333333333331</ele><time>2026-03-22T09:00:10.999Z</time></trkpt><trkpt lat="43.64348561850168" lon="11.262526953989605"><ele>199.0</ele><time>2026-03-22T09:00:11.999Z</time></trkpt><trkpt lat="43.6433950799395" lon="11.262515469083958"><ele>199.16666666666666</ele><time>2026-03-22T09:00:13.999Z</time></trkpt><trkpt lat="43.64331597445501" lon="11.262447368767928"><ele>199.33333333333331</ele><time>2026-03-22T09:00:15.999Z</time></trkpt><trkpt lat="43.64321469424263" lon="11.262372013181695"><ele>199.5</ele><time>2026-03-22T09:00:17.999Z</time></trkpt><trkpt lat="43.6431543559524" lon="11.26233510803604"><ele>199.66666666666669</ele><time>2026-03-22T09:00:18.999Z</time></trkpt><trkpt lat="43.64309305580542" lon="11.262305557496946"><ele>199.83333333333334</ele><time>2026-03-22T09:00:19.999Z</time></trkpt><trkpt lat="43.64299318342982" lon="11.262244299489385"><ele>200.0</ele><time>2026-03-22T09:00:21.999Z</time></trkpt><trkpt lat="43.64291248259598" lon="11.262189245077298"><ele>200.0</ele><time>2026-03-22T09:00:23.999Z</time></trkpt><trkpt lat="43.6428474947975" lon="11.262183324051406"><ele>200.0</ele><time>2026-03-22T09:00:38.999Z</time></trkpt><trkpt lat="43.64273986188548" lon="11.262129977104708"><ele>200.0</ele><time>2026-03-22T09:00:41Z</time></trkpt><trkpt lat="43.64262408230343" lon="11.262083156007614"><ele>200.0</ele><time>2026-03-22T09:00:43Z</time></trkpt><trkpt lat="43.64254894042601" lon="11.262043231074236"><ele>200.0</ele><time>2026-03-22T09:00:44Z</time></trkpt><trkpt lat="43.64245414365196" lon="11.26198965083831"><ele>202.4</ele><time>2026-03-22T09:00:45Z</time></trkpt><trkpt lat="43.64237039843575" lon="11.261935571820299"><ele>204.8</ele><time>2026-03-22T09:00:46Z</time></trkpt><trkpt lat="43.64230771253663" lon="11.261892593502658"><ele>207.2</ele><time>2026-03-22T09:00:47Z</time></trkpt><trkpt lat="43.64224758645543" lon="11.261852368730173"><ele>209.6</ele><time>2026-03-22T09:00:48Z</time></trkpt><trkpt lat="43.642142079171514" lon="11.261778597760259"><ele>212.0</ele><time>2026-03-22T09:00:50Z</time></trkpt><trkpt lat="43.64202815530281" lon="11.261696755397178"><ele>212.00000000000003</ele><time>2026-03-22T09:00:52Z</time></trkpt><trkpt lat="43.641970327459624" lon="11.261658230450871"><ele>212.0</ele><time>2026-03-22T09:00:53Z</time></trkpt><trkpt lat="43.64190816577452" lon="11.261616820432115"><ele>212.0</ele><time>2026-03-22T09:00:54Z</time></trkpt><trkpt lat="43.64184099388984" lon="11.26157295817712"><ele>212.0</ele><time>2026-03-22T09:00:55Z</time></trkpt><trkpt lat="43.641767729670235" lon="11.261504830348528"><ele>212.00000000000003</ele><time>2026-03-22T09:00:56Z</time></trkpt><trkpt lat="43.64169008554048" lon="11.26144034465026"><ele>212.0</ele><time>2026-03-22T09:00:57Z</time></trkpt><trkpt lat="43.641622751491305" lon="11.261390831794495"><ele>211.16666666666669</ele><time>2026-03-22T09:00:58Z</time></trkpt><trkpt lat="43.64155877132898" lon="11.261338590353494"><ele>210.33333333333334</ele><time>2026-03-22T09:00:59Z</time></trkpt><trkpt lat="43.64150051740913" lon="11.261281509071528"><ele>209.5</ele><time>2026-03-22T09:01:00Z</time></trkpt><trkpt lat="43.64139950554801" lon="11.261191599273706"><ele>208.66666666666669</ele><time>2026-03-22T09:01:02Z</time></trkpt><trkpt lat="43.641312611389566" lon="11.261111800487363"><ele>207.83333333333334</ele><time>2026-03-22T09:01:04Z</time></trkpt><trkpt lat="43.64124763397098" lon="11.26108533550021"><ele>207.0</ele><time>2026-03-22T09:01:50.999Z</time></trkpt><trkpt lat="43.641117585795065" lon="11.26106417002992"><ele>207.0</ele><time>2026-03-22T09:01:52.999Z</time></trkpt><trkpt lat="43.64099831970438" lon="11.261040149869281"><ele>207.0</ele><time>2026-03-22T09:01:53.999Z</time></trkpt><trkpt lat="43.64085921823443" lon="11.261013156134817"><ele>207.0</ele><time>2026-03-22T09:01:54.999Z</time></trkpt><trkpt lat="43.64071483006808" lon="11.260983729212287"><ele>207.0</ele><time>2026-03-22T09:01:55.999Z</time></trkpt><trkpt lat="43.64058383924048" lon="11.260960326134777"><ele>207.0</ele><time>2026-03-22T09:01:56.999Z</time></trkpt><trkpt lat="43.640466650012804" lon="11.260936528968552"><ele>207.0</ele><time>2026-03-22T09:01:57.999Z</time></trkpt><trkpt lat="43.64034907336146" lon="11.260996073698331"><ele>207.0</ele><time>2026-03-22T09:01:58.999Z</time></trkpt><trkpt lat="43.64026325605176" lon="11.260996704382087"><ele>207.0</ele><time>2026-03-22T09:01:59.999Z</time></trkpt><trkpt lat="43.64018974860432" lon="11.261011166190453"><ele>207.0</ele><time>2026-03-22T09:02:00.999Z</time></trkpt><trkpt lat="43.64008047046215" lon="11.261075009762498"><ele>206.16666666666666</ele><time>2026-03-22T09:02:02.999Z</time></trkpt><trkpt lat="43.640006996920604" lon="11.26113771808305"><ele>205.33333333333331</ele><time>2026-03-22T09:02:03.999Z</time></trkpt><trkpt lat="43.6399326127235" lon="11.261219084328713"><ele>204.5</ele><time>2026-03-22T09:02:04.999Z</time></trkpt><trkpt lat="43.63989219237376" lon="11.261297105813775"><ele>203.66666666666666</ele><time>2026-03-22T09:02:05.999Z</time></trkpt><trkpt lat="43.639775443836314" lon="11.261303986242144"><ele>202.83333333333331</ele><time>2026-03-22T09:02:06.999Z</time></trkpt><trkpt lat="43.63971669993233" lon="11.261357826023795"><ele>202.0</ele><time>2026-03-22T09:02:07.999Z</time></trkpt><trkpt lat="43.63961585056332" lon="11.261400326181995"><ele>202.0</ele><time>2026-03-22T09:02:09.999Z</time></trkpt><trkpt lat="43.639596040766655" lon="11.261277951848168"><ele>202.0</ele><time>2026-03-22T09:02:10.999Z</time></trkpt><trkpt lat="43.63953599224908" lon="11.261242399519992"><ele>202.0</ele><time>2026-03-22T09:02:11.999Z</time></trkpt><trkpt lat="43.63941198120957" lon="11.261178984263857"><ele>202.0</ele><time>2026-03-22T09:02:13.999Z</time></trkpt><trkpt lat="43.6393371630544" lon="11.261135708826957"><ele>202.0</ele><time>2026-03-22T09:02:14.999Z</time></trkpt><trkpt lat="43.6392239158468" lon="11.26105532047052"><ele>204.39999999999998</ele><time>2026-03-22T09:02:16.999Z</time></trkpt><trkpt lat="43.639153111909934" lon="11.260989678214179"><ele>206.79999999999998</ele><time>2026-03-22T09:02:17.999Z</time></trkpt><trkpt lat="43.63908689291306" lon="11.260922261347844"><ele>209.2</ele><time>2026-03-22T09:02:18.999Z</time></trkpt><trkpt lat="43.63899926730393" lon="11.260831867354996"><ele>211.6</ele><time>2026-03-22T09:02:19.999Z</time></trkpt><trkpt lat="43.63891904608591" lon="11.260749111687181"><ele>214.0</ele><time>2026-03-22T09:02:20.999Z</time></trkpt><trkpt lat="43.63885295374486" lon="11.260677634769555"><ele>213.66666666666666</ele><time>2026-03-22T09:02:21.999Z</time></trkpt><trkpt lat="43.63879259046188" lon="11.260612640629612"><ele>213.33333333333331</ele><time>2026-03-22T09:02:22.999Z</time></trkpt><trkpt lat="43.63872318026245" lon="11.26053806142503"><ele>213.0</ele><time>2026-03-22T09:02:23.999Z</time></trkpt><trkpt lat="43.63865207142089" lon="11.260468198629349"><ele>212.66666666666669</ele><time>2026-03-22T09:02:24.999Z</time></trkpt><trkpt lat="43.638590748155984" lon="11.26041905489722"><ele>212.33333333333334</ele><time>2026-03-22T09:02:25.999Z</time></trkpt><trkpt lat="43.63852298158243" lon="11.260377612197232"><ele>212.0</ele><time>2026-03-22T09:02:26.999Z</time></trkpt><trkpt lat="43.63842934213527" lon="11.260354793758149"><ele>214.66666666666669</ele><time>2026-03-22T09:02:28.999Z</time></trkpt><trkpt lat="43.63836534171938" lon="11.260320108693788"><ele>217.33333333333334</ele><time>2026-03-22T09:02:29.999Z</time></trkpt><trkpt lat="43.638284674150675" lon="11.260289472182256"><ele>220.0</ele><time>2026-03-22T09:02:30.999Z</time></trkpt><trkpt lat="43.638197538844075" lon="11.26026805191436"><ele>222.66666666666669</ele><time>2026-03-22T09:02:31.999Z</time></trkpt><trkpt lat="43.63810517749929" lon="11.260243446313245"><ele>225.33333333333334</ele><time>2026-03-22T09:02:32.999Z</time></trkpt><trkpt lat="43.63800385814307" lon="11.260217881465158"><ele>228.0</ele><time>2026-03-22T09:02:33.999Z</time></trkpt><trkpt lat="43.63791725258504" lon="11.260194451538279"><ele>228.0</ele><time>2026-03-22T09:02:34.999Z</time></trkpt><trkpt lat="43.63783895234792" lon="11.260174711260593"><ele>228.0</ele><time>2026-03-22T09:02:35.999Z</time></trkpt><trkpt lat="43.63774435774884" lon="11.260152080191153"><ele>228.0</ele><time>2026-03-22T09:02:36.999Z</time></trkpt><trkpt lat="43.637641061243706" lon="11.260126763180537"><ele>228.0</ele><time>2026-03-22T09:02:37.999Z</time></trkpt><trkpt lat="43.63753725722415" lon="11.260098968849881"><ele>228.0</ele><time>2026-03-22T09:02:38.999Z</time></trkpt><trkpt lat="43.63742768531937" lon="11.260071770508613"><ele>230.2</ele><time>2026-03-22T09:02:39.999Z</time></trkpt><trkpt lat="43.63732389848695" lon="11.260045388303714"><ele>232.4</ele><time>2026-03-22T09:02:40.999Z</time></trkpt><trkpt lat="43.63722551764282" lon="11.260010058002665"><ele>234.59999999999997</ele><time>2026-03-22T09:02:41.999Z</time></trkpt><trkpt lat="43.63711121550263" lon="11.259978054561339"><ele>236.79999999999998</ele><time>2026-03-22T09:02:42.999Z</time></trkpt><trkpt lat="43.63699644343668" lon="11.259967912472733"><ele>239.0</ele><time>2026-03-22T09:02:43.999Z</time></trkpt><trkpt lat="43.636884394868055" lon="11.259927356294076"><ele>240.39999999999998</ele><time>2026-03-22T09:02:44.999Z</time></trkpt><trkpt lat="43.63677574738503" lon="11.25989996253954"><ele>241.79999999999998</ele><time>2026-03-22T09:02:45.999Z</time></trkpt><trkpt lat="43.636667113569295" lon="11.259873432889457"><ele>243.20000000000002</ele><time>2026-03-22T09:02:47Z</time></trkpt><trkpt lat="43.636561914736006" lon="11.259848385550585"><ele>244.60000000000002</ele><time>2026-03-22T09:02:48Z</time></trkpt><trkpt lat="43.63645228123834" lon="11.259821782670533"><ele>246.0</ele><time>2026-03-22T09:02:49Z</time></trkpt><trkpt lat="43.63635373961824" lon="11.259797229112129"><ele>246.0</ele><time>2026-03-22T09:02:50Z</time></trkpt><trkpt lat="43.63625825710279" lon="11.259801634905664"><ele>246.00000000000003</ele><time>2026-03-22T09:02:51Z</time></trkpt><trkpt lat="43.63617518129991" lon="11.259793664971568"><ele>246.00000000000003</ele><time>2026-03-22T09:02:52Z</time></trkpt><trkpt lat="43.63608411591152" lon="11.259804202104515"><ele>246.0</ele><time>2026-03-22T09:02:53Z</time></trkpt><trkpt lat="43.635982339445995" lon="11.259824987022164"><ele>246.0</ele><time>2026-03-22T09:02:54Z</time></trkpt><trkpt lat="43.63588295240185" lon="11.259816412299305"><ele>246.33333333333334</ele><time>2026-03-22T09:02:55Z</time></trkpt><trkpt lat="43.63579079433627" lon="11.259827962886694"><ele>246.66666666666669</ele><time>2026-03-22T09:02:56Z</time></trkpt><trkpt lat="43.635710631733126" lon="11.25985906269261"><ele>247.0</ele><time>2026-03-22T09:02:57Z</time></trkpt><trkpt lat="43.63564039932157" lon="11.259856872185903"><ele>247.33333333333334</ele><time>2026-03-22T09:02:58Z</time></trkpt><trkpt lat="43.63554590445955" lon="11.259846174673227"><ele>247.66666666666669</ele><time>2026-03-22T09:03:00Z</time></trkpt><trkpt lat="43.63546755964661" lon="11.259829629281846"><ele>248.0</ele><time>2026-03-22T09:03:02Z</time></trkpt><trkpt lat="43.63541477008954" lon="11.259772795702856"><ele>248.33333333333334</ele><time>2026-03-22T09:03:03Z</time></trkpt><trkpt lat="43.63538260223111" lon="11.259664930834793"><ele>248.66666666666669</ele><time>2026-03-22T09:03:04Z</time></trkpt><trkpt lat="43.635314408922206" lon="11.259599475643494"><ele>249.0</ele><time>2026-03-22T09:03:05Z</time></trkpt><trkpt lat="43.63525441291418" lon="11.259518176022848"><ele>249.33333333333331</ele><time>2026-03-22T09:03:06Z</time></trkpt><trkpt lat="43.635181530169234" lon="11.2594292023409"><ele>249.66666666666666</ele><time>2026-03-22T09:03:07Z</time></trkpt><trkpt lat="43.63510883572756" lon="11.259350468252844"><ele>250.0</ele><time>2026-03-22T09:03:08Z</time></trkpt><trkpt lat="43.63502617521127" lon="11.259285686237503"><ele>250.0</ele><time>2026-03-22T09:03:09Z</time></trkpt><trkpt lat="43.63494622114562" lon="11.259235601409483"><ele>250.0</ele><time>2026-03-22T09:03:10Z</time></trkpt><trkpt lat="43.63485733024008" lon="11.25920580257951"><ele>250.0</ele><time>2026-03-22T09:03:11Z</time></trkpt><trkpt lat="43.63476372763759" lon="11.259191988108496"><ele>250.0</ele><time>2026-03-22T09:03:12Z</time></trkpt><trkpt lat="43.634662775333155" lon="11.259175794816073"><ele>250.0</ele><time>2026-03-22T09:03:13Z</time></trkpt><trkpt lat="43.634573016702944" lon="11.25916405576059"><ele>250.0</ele><time>2026-03-22T09:03:14Z</time></trkpt><trkpt lat="43.634479829191" lon="11.259144432200687"><ele>250.0</ele><time>2026-03-22T09:03:15Z</time></trkpt><trkpt lat="43.63439904511019" lon="11.25912170811821"><ele>250.0</ele><time>2026-03-22T09:03:16Z</time></trkpt><trkpt lat="43.634326434454074" lon="11.259095031225321"><ele>250.0</ele><time>2026-03-22T09:03:17Z</time></trkpt><trkpt lat="43.63426514813575" lon="11.259056536101811"><ele>250.0</ele><time>2026-03-22T09:03:18Z</time></trkpt><trkpt lat="43.63416556588805" lon="11.258921602441616"><ele>250.66666666666666</ele><time>2026-03-22T09:03:20Z</time></trkpt><trkpt lat="43.634118053235774" lon="11.258817198774635"><ele>251.33333333333331</ele><time>2026-03-22T09:03:21Z</time></trkpt><trkpt lat="43.634068719934916" lon="11.258721995141647"><ele>252.0</ele><time>2026-03-22T09:03:22Z</time></trkpt><trkpt lat="43.63401100760842" lon="11.258630156817887"><ele>252.66666666666669</ele><time>2026-03-22T09:03:23Z</time></trkpt><trkpt lat="43.633976009148576" lon="11.258530601435636"><ele>253.33333333333334</ele><time>2026-03-22T09:03:24Z</time></trkpt><trkpt lat="43.6339373387533" lon="11.258434543813257"><ele>254.0</ele><time>2026-03-22T09:03:25Z</time></trkpt><trkpt lat="43.63389449796284" lon="11.258314275144986"><ele>254.0</ele><time>2026-03-22T09:03:26Z</time></trkpt><trkpt lat="43.63383135858859" lon="11.258175404575217"><ele>254.0</ele><time>2026-03-22T09:03:27Z</time></trkpt><trkpt lat="43.63377569083161" lon="11.257999945264164"><ele>254.0</ele><time>2026-03-22T09:03:28Z</time></trkpt><trkpt lat="43.63371842011427" lon="11.25782815425488"><ele>254.0</ele><time>2026-03-22T09:03:29Z</time></trkpt><trkpt lat="43.63366174772931" lon="11.257664906304575"><ele>255.0</ele><time>2026-03-22T09:03:30Z</time></trkpt><trkpt lat="43.633611097073214" lon="11.257518233028152"><ele>256.0</ele><time>2026-03-22T09:03:31Z</time></trkpt><trkpt lat="43.63356476843516" lon="11.257379235083354"><ele>257.0</ele><time>2026-03-22T09:03:32Z</time></trkpt><trkpt lat="43.63352002097003" lon="11.257237739715961"><ele>258.0</ele><time>2026-03-22T09:03:33Z</time></trkpt><trkpt lat="43.63347257696549" lon="11.25709688185554"><ele>259.25</ele><time>2026-03-22T09:03:34Z</time></trkpt><trkpt lat="43.63342170530265" lon="11.256953919391243"><ele>260.5</ele><time>2026-03-22T09:03:35Z</time></trkpt><trkpt lat="43.63337036610479" lon="11.256807508470121"><ele>261.75</ele><time>2026-03-22T09:03:36Z</time></trkpt><trkpt lat="43.63332101549739" lon="11.256660754865393"><ele>263.0</ele><time>2026-03-22T09:03:37Z</time></trkpt><trkpt lat="43.63328218187267" lon="11.256530622160927"><ele>263.4</ele><time>2026-03-22T09:03:38Z</time></trkpt><trkpt lat="43.63323656862055" lon="11.25640429384927"><ele>263.8</ele><time>2026-03-22T09:03:39Z</time></trkpt><trkpt lat="43.63319662445705" lon="11.25628338219765"><ele>264.2</ele><time>2026-03-22T09:03:40Z</time></trkpt><trkpt lat="43.63315474116301" lon="11.256164353952764"><ele>264.6</ele><time>2026-03-22T09:03:41Z</time></trkpt><trkpt lat="43.63311611158938" lon="11.256047037467313"><ele>265.0</ele><time>2026-03-22T09:03:42Z</time></trkpt><trkpt lat="43.63307275216486" lon="11.255927100014123"><ele>265.0</ele><time>2026-03-22T09:03:43Z</time></trkpt><trkpt lat="43.63303686073147" lon="11.255809532096773"><ele>265.0</ele><time>2026-03-22T09:03:44Z</time></trkpt><trkpt lat="43.63299846436233" lon="11.255694735619448"><ele>265.0</ele><time>2026-03-22T09:03:45Z</time></trkpt><trkpt lat="43.632963343770264" lon="11.255589220301532"><ele>265.0</ele><time>2026-03-22T09:03:46Z</time></trkpt><trkpt lat="43.632936138655424" lon="11.255506844918493"><ele>265.0</ele><time>2026-03-22T09:03:47Z</time></trkpt><trkpt lat="43.632900275680214" lon="11.255421327607612"><ele>265.0</ele><time>2026-03-22T09:03:48Z</time></trkpt><trkpt lat="43.63284446123111" lon="11.255359297939805"><ele>265.16666666666663</ele><time>2026-03-22T09:03:49Z</time></trkpt><trkpt lat="43.63277027584516" lon="11.255322574725154"><ele>265.3333333333333</ele><time>2026-03-22T09:03:50Z</time></trkpt><trkpt lat="43.6326830330952" lon="11.255294299604357"><ele>265.5</ele><time>2026-03-22T09:03:51Z</time></trkpt><trkpt lat="43.6325962143712" lon="11.255270116798092"><ele>265.6666666666667</ele><time>2026-03-22T09:03:52Z</time></trkpt><trkpt lat="43.63250598374012" lon="11.255248933239377"><ele>265.83333333333337</ele><time>2026-03-22T09:03:53Z</time></trkpt><trkpt lat="43.632412918157485" lon="11.255220631754518"><ele>266.0</ele><time>2026-03-22T09:03:53.999Z</time></trkpt><trkpt lat="43.632323753835855" lon="11.255192652884443"><ele>266.0</ele><time>2026-03-22T09:03:54.999Z</time></trkpt><trkpt lat="43.6322404186862" lon="11.255131054962211"><ele>266.0</ele><time>2026-03-22T09:03:55.999Z</time></trkpt><trkpt lat="43.63216594985743" lon="11.255092011861942"><ele>266.0</ele><time>2026-03-22T09:03:56.999Z</time></trkpt><trkpt lat="43.63210262898035" lon="11.255058185856369"><ele>266.0</ele><time>2026-03-22T09:03:57.999Z</time></trkpt><trkpt lat="43.63197595964948" lon="11.25497308438978"><ele>266.0</ele><time>2026-03-22T09:03:59.999Z</time></trkpt><trkpt lat="43.63192243865503" lon="11.254899015319118"><ele>266.40000000000003</ele><time>2026-03-22T09:04:00.999Z</time></trkpt><trkpt lat="43.63185163380298" lon="11.254805510368147"><ele>266.8</ele><time>2026-03-22T09:04:01.999Z</time></trkpt><trkpt lat="43.63178386342053" lon="11.2547133730368"><ele>267.20000000000005</ele><time>2026-03-22T09:04:02.999Z</time></trkpt><trkpt lat="43.63172003021909" lon="11.254625824987306"><ele>267.6</ele><time>2026-03-22T09:04:03.999Z</time></trkpt><trkpt lat="43.63165719574878" lon="11.254531162879989"><ele>268.0</ele><time>2026-03-22T09:04:04.999Z</time></trkpt><trkpt lat="43.631611123713135" lon="11.254417333945883"><ele>268.0</ele><time>2026-03-22T09:04:05.999Z</time></trkpt><trkpt lat="43.63155161335964" lon="11.254342580805448"><ele>268.0</ele><time>2026-03-22T09:04:06.999Z</time></trkpt><trkpt lat="43.63148296527586" lon="11.254257331694474"><ele>268.0</ele><time>2026-03-22T09:04:07.999Z</time></trkpt><trkpt lat="43.63140815724224" lon="11.254199006321173"><ele>268.0</ele><time>2026-03-22T09:04:08.999Z</time></trkpt><trkpt lat="43.63134128350677" lon="11.254170354159157"><ele>268.0</ele><time>2026-03-22T09:04:09.999Z</time></trkpt><trkpt lat="43.631258853315124" lon="11.254124120631486"><ele>268.0</ele><time>2026-03-22T09:04:11.999Z</time></trkpt><trkpt lat="43.63124746344667" lon="11.253956118922634"><ele>266.57142857142856</ele><time>2026-03-22T09:04:15.999Z</time></trkpt><trkpt lat="43.63125853953828" lon="11.25386946068333"><ele>265.1428571428571</ele><time>2026-03-22T09:04:16.999Z</time></trkpt><trkpt lat="43.63127309932112" lon="11.253776779938992"><ele>263.71428571428567</ele><time>2026-03-22T09:04:17.999Z</time></trkpt><trkpt lat="43.63129385240718" lon="11.253682188413569"><ele>262.2857142857143</ele><time>2026-03-22T09:04:18.999Z</time></trkpt><trkpt lat="43.631315835353945" lon="11.253581430223125"><ele>260.85714285714283</ele><time>2026-03-22T09:04:19.999Z</time></trkpt><trkpt lat="43.6313370513758" lon="11.25347339736443"><ele>259.4285714285714</ele><time>2026-03-22T09:04:20.999Z</time></trkpt><trkpt lat="43.63135622703211" lon="11.25336665121062"><ele>258.0</ele><time>2026-03-22T09:04:21.999Z</time></trkpt><trkpt lat="43.63138429954791" lon="11.253249070136613"><ele>258.0</ele><time>2026-03-22T09:04:22.999Z</time></trkpt><trkpt lat="43.63141318880497" lon="11.253132079721624"><ele>258.0</ele><time>2026-03-22T09:04:23.999Z</time></trkpt><trkpt lat="43.63143946197466" lon="11.25302065377428"><ele>258.0</ele><time>2026-03-22T09:04:24.999Z</time></trkpt><trkpt lat="43.63146510679038" lon="11.252920057440168"><ele>258.0</ele><time>2026-03-22T09:04:25.999Z</time></trkpt><trkpt lat="43.63148978623179" lon="11.252810786098275"><ele>258.0</ele><time>2026-03-22T09:04:26.999Z</time></trkpt><trkpt lat="43.6315169781308" lon="11.252695877789096"><ele>258.0</ele><time>2026-03-22T09:04:27.999Z</time></trkpt><trkpt lat="43.63154729272839" lon="11.25257653127203"><ele>255.33333333333334</ele><time>2026-03-22T09:04:28.999Z</time></trkpt><trkpt lat="43.6315720987262" lon="11.252469057551261"><ele>252.66666666666669</ele><time>2026-03-22T09:04:29.999Z</time></trkpt><trkpt lat="43.63159753182299" lon="11.252359939772536"><ele>250.0</ele><time>2026-03-22T09:04:30.999Z</time></trkpt><trkpt lat="43.63162391510752" lon="11.252252153557631"><ele>247.33333333333334</ele><time>2026-03-22T09:04:31.999Z</time></trkpt><trkpt lat="43.63164450633092" lon="11.252149421446846"><ele>244.66666666666669</ele><time>2026-03-22T09:04:32.999Z</time></trkpt><trkpt lat="43.63164245788453" lon="11.25204213960787"><ele>242.0</ele><time>2026-03-22T09:04:33.999Z</time></trkpt><trkpt lat="43.631629615528006" lon="11.251925161408492"><ele>242.39999999999998</ele><time>2026-03-22T09:04:34.999Z</time></trkpt><trkpt lat="43.63163011940459" lon="11.251787588935258"><ele>242.79999999999998</ele><time>2026-03-22T09:04:35.999Z</time></trkpt><trkpt lat="43.63163998120453" lon="11.251675715503888"><ele>243.2</ele><time>2026-03-22T09:04:36.999Z</time></trkpt><trkpt lat="43.6316414331944" lon="11.25153955911572"><ele>243.6</ele><time>2026-03-22T09:04:37.999Z</time></trkpt><trkpt lat="43.63161103210795" lon="11.251407637192443"><ele>244.0</ele><time>2026-03-22T09:04:38.999Z</time></trkpt><trkpt lat="43.63156913138604" lon="11.251268764453283"><ele>244.0</ele><time>2026-03-22T09:04:39.999Z</time></trkpt><trkpt lat="43.63152028951921" lon="11.251138063665142"><ele>243.99999999999997</ele><time>2026-03-22T09:04:40.999Z</time></trkpt><trkpt lat="43.63147161533219" lon="11.25098153833246"><ele>243.99999999999997</ele><time>2026-03-22T09:04:41.999Z</time></trkpt><trkpt lat="43.63143008694552" lon="11.250823478920362"><ele>244.0</ele><time>2026-03-22T09:04:42.999Z</time></trkpt><trkpt lat="43.63140225131835" lon="11.25070401572456"><ele>244.0</ele><time>2026-03-22T09:04:43.999Z</time></trkpt><trkpt lat="43.631390619761355" lon="11.250611107537903"><ele>246.16666666666666</ele><time>2026-03-22T09:04:44.999Z</time></trkpt><trkpt lat="43.63137819721897" lon="11.250523171297099"><ele>248.33333333333331</ele><time>2026-03-22T09:04:45.999Z</time></trkpt><trkpt lat="43.63135827491378" lon="11.250417947716087"><ele>250.5</ele><time>2026-03-22T09:04:47.999Z</time></trkpt><trkpt lat="43.63131675546335" lon="11.250298293850488"><ele>252.66666666666669</ele><time>2026-03-22T09:04:49.999Z</time></trkpt><trkpt lat="43.6312854920775" lon="11.250215799071826"><ele>254.83333333333334</ele><time>2026-03-22T09:04:50.999Z</time></trkpt><trkpt lat="43.63124355779366" lon="11.250108799443035"><ele>257.0</ele><time>2026-03-22T09:04:52Z</time></trkpt><trkpt lat="43.63120217113752" lon="11.249993105284801"><ele>257.0</ele><time>2026-03-22T09:04:53Z</time></trkpt><trkpt lat="43.63116998967524" lon="11.249875226832593"><ele>257.0</ele><time>2026-03-22T09:04:54Z</time></trkpt><trkpt lat="43.631128894197744" lon="11.249755949407573"><ele>257.0</ele><time>2026-03-22T09:04:55Z</time></trkpt><trkpt lat="43.63109212356532" lon="11.249649503388287"><ele>257.0</ele><time>2026-03-22T09:04:56Z</time></trkpt><trkpt lat="43.63106615092011" lon="11.249538591946457"><ele>257.0</ele><time>2026-03-22T09:04:57Z</time></trkpt><trkpt lat="43.63105112119409" lon="11.249446108105396"><ele>257.0</ele><time>2026-03-22T09:04:58Z</time></trkpt><trkpt lat="43.63103545278201" lon="11.249358652492344"><ele>258.1428571428571</ele><time>2026-03-22T09:04:59Z</time></trkpt><trkpt lat="43.63103495123219" lon="11.249253003282764"><ele>259.2857142857143</ele><time>2026-03-22T09:05:00Z</time></trkpt><trkpt lat="43.631039899205305" lon="11.249145533473445"><ele>260.42857142857144</ele><time>2026-03-22T09:05:01Z</time></trkpt><trkpt lat="43.63102699481853" lon="11.24904643728658"><ele>261.57142857142856</ele><time>2026-03-22T09:05:02Z</time></trkpt><trkpt lat="43.63101369759115" lon="11.248957467369777"><ele>262.7142857142857</ele><time>2026-03-22T09:05:03Z</time></trkpt><trkpt lat="43.63104307079544" lon="11.248872896352456"><ele>263.85714285714283</ele><time>2026-03-22T09:05:05Z</time></trkpt><trkpt lat="43.63111514273893" lon="11.248891201121703"><ele>265.0</ele><time>2026-03-22T09:05:07Z</time></trkpt><trkpt lat="43.63119762903461" lon="11.248848477631647"><ele>266.5</ele><time>2026-03-22T09:05:09Z</time></trkpt><trkpt lat="43.63128237636076" lon="11.248778225566163"><ele>268.0</ele><time>2026-03-22T09:05:11Z</time></trkpt><trkpt lat="43.63136365815566" lon="11.248715840654093"><ele>269.5</ele><time>2026-03-22T09:05:13Z</time></trkpt><trkpt lat="43.631390054115826" lon="11.248635047925097"><ele>271.0</ele><time>2026-03-22T09:05:15Z</time></trkpt><trkpt lat="43.63137537942579" lon="11.248542031883561"><ele>272.5</ele><time>2026-03-22T09:05:17Z</time></trkpt><trkpt lat="43.63134157827266" lon="11.248412338409606"><ele>274.0</ele><time>2026-03-22T09:05:19Z</time></trkpt><trkpt lat="43.631297443031436" lon="11.248293758122019"><ele>274.0</ele><time>2026-03-22T09:05:21Z</time></trkpt><trkpt lat="43.63127444628152" lon="11.248198337267292"><ele>274.0</ele><time>2026-03-22T09:05:22Z</time></trkpt><trkpt lat="43.63124941808927" lon="11.248085551324426"><ele>274.0</ele><time>2026-03-22T09:05:23Z</time></trkpt><trkpt lat="43.63122144484542" lon="11.247973098302902"><ele>274.0</ele><time>2026-03-22T09:05:24Z</time></trkpt><trkpt lat="43.63118728844869" lon="11.247863704217645"><ele>274.0</ele><time>2026-03-22T09:05:25Z</time></trkpt><trkpt lat="43.63117011715508" lon="11.247744573581855"><ele>274.0</ele><time>2026-03-22T09:05:26Z</time></trkpt><trkpt lat="43.63112518847918" lon="11.247622090755796"><ele>274.2</ele><time>2026-03-22T09:05:27Z</time></trkpt><trkpt lat="43.63109728522375" lon="11.247500277715341"><ele>274.4</ele><time>2026-03-22T09:05:28Z</time></trkpt><trkpt lat="43.6310618814878" lon="11.247368757896565"><ele>274.6</ele><time>2026-03-22T09:05:29Z</time></trkpt><trkpt lat="43.63102476999816" lon="11.247226685851974"><ele>274.8</ele><time>2026-03-22T09:05:30Z</time></trkpt><trkpt lat="43.6310063038059" lon="11.247062563548834"><ele>275.0</ele><time>2026-03-22T09:05:31Z</time></trkpt><trkpt lat="43.630954110030075" lon="11.24690520732422"><ele>276.4</ele><time>2026-03-22T09:05:32Z</time></trkpt><trkpt lat="43.63092064667677" lon="11.246752389107678"><ele>277.8</ele><time>2026-03-22T09:05:33Z</time></trkpt><trkpt lat="43.630888336087104" lon="11.246602682533046"><ele>279.2</ele><time>2026-03-22T09:05:34Z</time></trkpt><trkpt lat="43.63085204539705" lon="11.246459942446995"><ele>280.6</ele><time>2026-03-22T09:05:35Z</time></trkpt><trkpt lat="43.63082192021245" lon="11.246335138121205"><ele>282.0</ele><time>2026-03-22T09:05:36Z</time></trkpt><trkpt lat="43.63078255347278" lon="11.246235164673635"><ele>283.8</ele><time>2026-03-22T09:05:37Z</time></trkpt><trkpt lat="43.63075882504394" lon="11.246124182472508"><ele>285.6</ele><time>2026-03-22T09:05:38Z</time></trkpt><trkpt lat="43.63076050955959" lon="11.245973233284241"><ele>287.40000000000003</ele><time>2026-03-22T09:05:40Z</time></trkpt><trkpt lat="43.63084170127021" lon="11.245828369499337"><ele>289.2</ele><time>2026-03-22T09:05:49Z</time></trkpt><trkpt lat="43.63089723843061" lon="11.245760364231527"><ele>291.0</ele><time>2026-03-22T09:05:50Z</time></trkpt><trkpt lat="43.63095781992028" lon="11.24568893536572"><ele>290.5</ele><time>2026-03-22T09:05:51Z</time></trkpt><trkpt lat="43.63101387976438" lon="11.24561436274198"><ele>290.0</ele><time>2026-03-22T09:05:52Z</time></trkpt><trkpt lat="43.631066916732635" lon="11.245525152128184"><ele>289.5</ele><time>2026-03-22T09:05:53Z</time></trkpt><trkpt lat="43.63111517301779" lon="11.245446982136585"><ele>289.0</ele><time>2026-03-22T09:05:54Z</time></trkpt><trkpt lat="43.63116208810453" lon="11.245369669351817"><ele>288.5</ele><time>2026-03-22T09:05:55Z</time></trkpt><trkpt lat="43.63120332210884" lon="11.245302543134795"><ele>288.0</ele><time>2026-03-22T09:05:56Z</time></trkpt><trkpt lat="43.631244192705715" lon="11.245200570264238"><ele>290.6</ele><time>2026-03-22T09:05:57.999Z</time></trkpt><trkpt lat="43.631123400494765" lon="11.245029410080368"><ele>293.20000000000005</ele><time>2026-03-22T09:06:01.999Z</time></trkpt><trkpt lat="43.63111796723672" lon="11.244931630467807"><ele>295.8</ele><time>2026-03-22T09:06:02.999Z</time></trkpt><trkpt lat="43.63111234983492" lon="11.244820007951981"><ele>298.40000000000003</ele><time>2026-03-22T09:06:03.999Z</time></trkpt><trkpt lat="43.631103544331516" lon="11.244682604882573"><ele>301.0</ele><time>2026-03-22T09:06:04.999Z</time></trkpt><trkpt lat="43.631085377642755" lon="11.244538302836489"><ele>302.40000000000003</ele><time>2026-03-22T09:06:05.999Z</time></trkpt><trkpt lat="43.63106602642999" lon="11.244390875485658"><ele>303.8</ele><time>2026-03-22T09:06:06.999Z</time></trkpt><trkpt lat="43.631048857143156" lon="11.244240119425237"><ele>305.20000000000005</ele><time>2026-03-22T09:06:07.999Z</time></trkpt><trkpt lat="43.63103142806851" lon="11.244089226240595"><ele>306.6</ele><time>2026-03-22T09:06:08.999Z</time></trkpt><trkpt lat="43.631009179195296" lon="11.243945160669009"><ele>308.0</ele><time>2026-03-22T09:06:09.999Z</time></trkpt><trkpt lat="43.630970624461895" lon="11.243789666510471"><ele>308.5</ele><time>2026-03-22T09:06:10.999Z</time></trkpt><trkpt lat="43.63092591631557" lon="11.24364145543416"><ele>309.0</ele><time>2026-03-22T09:06:11.999Z</time></trkpt><trkpt lat="43.63087822455199" lon="11.243497906877854"><ele>309.5</ele><time>2026-03-22T09:06:12.999Z</time></trkpt><trkpt lat="43.63081841262101" lon="11.24334908474747"><ele>310.0</ele><time>2026-03-22T09:06:13.999Z</time></trkpt><trkpt lat="43.63076688434877" lon="11.243189657759965"><ele>311.0</ele><time>2026-03-22T09:06:14.999Z</time></trkpt><trkpt lat="43.63071758350419" lon="11.24303587442923"><ele>312.0</ele><time>2026-03-22T09:06:15.999Z</time></trkpt><trkpt lat="43.63068086099607" lon="11.242924841218375"><ele>313.0</ele><time>2026-03-22T09:06:16.999Z</time></trkpt><trkpt lat="43.63065465046567" lon="11.242841284630014"><ele>314.0</ele><time>2026-03-22T09:06:17.999Z</time></trkpt><trkpt lat="43.630635204050186" lon="11.242756810492878"><ele>315.0</ele><time>2026-03-22T09:06:18.999Z</time></trkpt><trkpt lat="43.630565380351676" lon="11.242739130899908"><ele>316.0</ele><time>2026-03-22T09:06:21.999Z</time></trkpt><trkpt lat="43.63047457157702" lon="11.242867218257448"><ele>316.0</ele><time>2026-03-22T09:06:23.999Z</time></trkpt><trkpt lat="43.630403835642795" lon="11.242949713881098"><ele>316.0</ele><time>2026-03-22T09:06:24.999Z</time></trkpt><trkpt lat="43.63033877760922" lon="11.243015592739363"><ele>316.0</ele><time>2026-03-22T09:06:25.999Z</time></trkpt><trkpt lat="43.63027648011154" lon="11.243033219491693"><ele>316.0</ele><time>2026-03-22T09:06:27.999Z</time></trkpt><trkpt lat="43.630231862134615" lon="11.24290721661365"><ele>316.0</ele><time>2026-03-22T09:06:29.999Z</time></trkpt><trkpt lat="43.63020933111643" lon="11.242749821522642"><ele>318.8</ele><time>2026-03-22T09:06:30.999Z</time></trkpt><trkpt lat="43.630170610451486" lon="11.242565934293273"><ele>321.6</ele><time>2026-03-22T09:06:31.999Z</time></trkpt><trkpt lat="43.63012894652177" lon="11.24243040502721"><ele>324.4</ele><time>2026-03-22T09:06:32.999Z</time></trkpt><trkpt lat="43.630065793975895" lon="11.242462937738816"><ele>327.2</ele><time>2026-03-22T09:06:36.999Z</time></trkpt><trkpt lat="43.63003710755729" lon="11.242548272290573"><ele>330.0</ele><time>2026-03-22T09:06:39.999Z</time></trkpt><trkpt lat="43.629994025699276" lon="11.242646371720303"><ele>330.0</ele><time>2026-03-22T09:06:41.999Z</time></trkpt><trkpt lat="43.62992127590738" lon="11.242785130886567"><ele>330.0</ele><time>2026-03-22T09:06:43.999Z</time></trkpt><trkpt lat="43.629876007551594" lon="11.242885098551437"><ele>330.0</ele><time>2026-03-22T09:06:45.999Z</time></trkpt><trkpt lat="43.629814175154216" lon="11.242988277326727"><ele>330.0</ele><time>2026-03-22T09:06:47.999Z</time></trkpt><trkpt lat="43.62973983123439" lon="11.243114220911995"><ele>330.0</ele><time>2026-03-22T09:06:49.999Z</time></trkpt><trkpt lat="43.629644221074216" lon="11.243229666836145"><ele>330.1666666666667</ele><time>2026-03-22T09:06:51.999Z</time></trkpt><trkpt lat="43.629583477949" lon="11.243270516271021"><ele>330.3333333333333</ele><time>2026-03-22T09:06:52.999Z</time></trkpt><trkpt lat="43.629496861273545" lon="11.243318612302593"><ele>330.5</ele><time>2026-03-22T09:07:04Z</time></trkpt><trkpt lat="43.629419984117334" lon="11.243339506546434"><ele>330.66666666666663</ele><time>2026-03-22T09:07:05Z</time></trkpt><trkpt lat="43.629320099825335" lon="11.243380249120559"><ele>330.8333333333333</ele><time>2026-03-22T09:07:06Z</time></trkpt><trkpt lat="43.629223203156194" lon="11.2434155128653"><ele>331.0</ele><time>2026-03-22T09:07:07Z</time></trkpt><trkpt lat="43.62910893765375" lon="11.24345342451131"><ele>332.5</ele><time>2026-03-22T09:07:08Z</time></trkpt><trkpt lat="43.62898847588709" lon="11.243508922368317"><ele>334.0</ele><time>2026-03-22T09:07:09Z</time></trkpt><trkpt lat="43.62888248387954" lon="11.243586325134917"><ele>335.5</ele><time>2026-03-22T09:07:10Z</time></trkpt><trkpt lat="43.62878461194533" lon="11.243670389607562"><ele>337.0</ele><time>2026-03-22T09:07:11Z</time></trkpt><trkpt lat="43.628683639404365" lon="11.243748810839879"><ele>337.8</ele><time>2026-03-22T09:07:12Z</time></trkpt><trkpt lat="43.628608502570295" lon="11.243801457319462"><ele>338.6</ele><time>2026-03-22T09:07:13Z</time></trkpt><trkpt lat="43.6285160523061" lon="11.243875819605856"><ele>339.40000000000003</ele><time>2026-03-22T09:07:15Z</time></trkpt><trkpt lat="43.62842745548879" lon="11.243950383776696"><ele>340.20000000000005</ele><time>2026-03-22T09:07:17Z</time></trkpt><trkpt lat="43.62837785345325" lon="11.244042919954635"><ele>341.0</ele><time>2026-03-22T09:07:20Z</time></trkpt><trkpt lat="43.62832273995379" lon="11.244133675531764"><ele>341.0</ele><time>2026-03-22T09:07:22Z</time></trkpt><trkpt lat="43.62827411267167" lon="11.244249784294437"><ele>341.0</ele><time>2026-03-22T09:07:24Z</time></trkpt><trkpt lat="43.628224437802295" lon="11.24437247892796"><ele>341.0</ele><time>2026-03-22T09:07:26Z</time></trkpt><trkpt lat="43.628176767135464" lon="11.244501284722137"><ele>341.0</ele><time>2026-03-22T09:07:28Z</time></trkpt><trkpt lat="43.62814271086619" lon="11.244629202202182"><ele>341.0</ele><time>2026-03-22T09:07:30Z</time></trkpt><trkpt lat="43.62808142546873" lon="11.244777821964801"><ele>340.0</ele><time>2026-03-22T09:07:32Z</time></trkpt><trkpt lat="43.628033474481974" lon="11.244879125252865"><ele>339.0</ele><time>2026-03-22T09:07:33Z</time></trkpt><trkpt lat="43.62798291708832" lon="11.244989866900431"><ele>338.0</ele><time>2026-03-22T09:07:34Z</time></trkpt><trkpt lat="43.62792065023851" lon="11.2451318136146"><ele>337.0</ele><time>2026-03-22T09:07:35Z</time></trkpt><trkpt lat="43.62786260685959" lon="11.245258477225477"><ele>336.0</ele><time>2026-03-22T09:07:36Z</time></trkpt><trkpt lat="43.62782191026295" lon="11.245349618270554"><ele>336.8333333333333</ele><time>2026-03-22T09:07:37Z</time></trkpt><trkpt lat="43.62778171738827" lon="11.245434781217519"><ele>337.6666666666667</ele><time>2026-03-22T09:07:38Z</time></trkpt><trkpt lat="43.62773874610896" lon="11.245530718205277"><ele>338.5</ele><time>2026-03-22T09:07:39Z</time></trkpt><trkpt lat="43.62770308098923" lon="11.245620211940627"><ele>339.33333333333337</ele><time>2026-03-22T09:07:40Z</time></trkpt><trkpt lat="43.62763319524266" lon="11.245753147391403"><ele>340.1666666666667</ele><time>2026-03-22T09:07:42Z</time></trkpt><trkpt lat="43.627572488294085" lon="11.24585636611123"><ele>341.0</ele><time>2026-03-22T09:07:44Z</time></trkpt><trkpt lat="43.62751281068183" lon="11.245892043165368"><ele>341.0</ele><time>2026-03-22T09:07:45Z</time></trkpt><trkpt lat="43.62744850856276" lon="11.245922471992086"><ele>341.0</ele><time>2026-03-22T09:07:46Z</time></trkpt><trkpt lat="43.6273884162713" lon="11.245952970290048"><ele>341.0</ele><time>2026-03-22T09:07:47Z</time></trkpt><trkpt lat="43.62727525507832" lon="11.246026932434738"><ele>341.0</ele><time>2026-03-22T09:07:49Z</time></trkpt><trkpt lat="43.62715189379399" lon="11.24608279520903"><ele>341.0</ele><time>2026-03-22T09:07:51Z</time></trkpt><trkpt lat="43.62708039121476" lon="11.246117784360553"><ele>341.0</ele><time>2026-03-22T09:07:52Z</time></trkpt><trkpt lat="43.62701376687824" lon="11.246146482575085"><ele>341.0</ele><time>2026-03-22T09:07:53Z</time></trkpt><trkpt lat="43.62694767987537" lon="11.246177013209486"><ele>341.0</ele><time>2026-03-22T09:07:54Z</time></trkpt><trkpt lat="43.62687904830395" lon="11.246206907578964"><ele>341.0</ele><time>2026-03-22T09:07:55Z</time></trkpt><trkpt lat="43.62678430474824" lon="11.246195785844854"><ele>341.0</ele><time>2026-03-22T09:07:57Z</time></trkpt><trkpt lat="43.62671023130653" lon="11.246253881050068"><ele>341.0</ele><time>2026-03-22T09:08:01Z</time></trkpt><trkpt lat="43.626652505950155" lon="11.246299153898008"><ele>341.33333333333337</ele><time>2026-03-22T09:08:01.999Z</time></trkpt><trkpt lat="43.62658011630067" lon="11.246360616248117"><ele>341.6666666666667</ele><time>2026-03-22T09:08:02.999Z</time></trkpt><trkpt lat="43.62650508303707" lon="11.246450744494828"><ele>342.0</ele><time>2026-03-22T09:08:03.999Z</time></trkpt><trkpt lat="43.62643457943085" lon="11.24654198179148"><ele>342.3333333333333</ele><time>2026-03-22T09:08:04.999Z</time></trkpt><trkpt lat="43.62637757818582" lon="11.246615647822502"><ele>342.66666666666663</ele><time>2026-03-22T09:08:05.999Z</time></trkpt><trkpt lat="43.62631504531131" lon="11.246692278174633"><ele>343.0</ele><time>2026-03-22T09:08:06.999Z</time></trkpt><trkpt lat="43.626257214743596" lon="11.246753602316655"><ele>341.5</ele><time>2026-03-22T09:08:07.999Z</time></trkpt><trkpt lat="43.62618982934366" lon="11.246806541961607"><ele>340.0</ele><time>2026-03-22T09:08:08.999Z</time></trkpt><trkpt lat="43.62612305249531" lon="11.246844403826806"><ele>338.5</ele><time>2026-03-22T09:08:09.999Z</time></trkpt><trkpt lat="43.62604457267497" lon="11.246878570087908"><ele>337.0</ele><time>2026-03-22T09:08:10.999Z</time></trkpt><trkpt lat="43.62595208953529" lon="11.246903620133265"><ele>335.5</ele><time>2026-03-22T09:08:11.999Z</time></trkpt><trkpt lat="43.62585230825766" lon="11.246937794079178"><ele>334.0</ele><time>2026-03-22T09:08:12.999Z</time></trkpt><trkpt lat="43.625748922703025" lon="11.24696878110874"><ele>333.79999999999995</ele><time>2026-03-22T09:08:13.999Z</time></trkpt><trkpt lat="43.62564984647145" lon="11.246992836790449"><ele>333.59999999999997</ele><time>2026-03-22T09:08:14.999Z</time></trkpt><trkpt lat="43.625552516050284" lon="11.247005940860943"><ele>333.4</ele><time>2026-03-22T09:08:15.999Z</time></trkpt><trkpt lat="43.62543241296213" lon="11.247022087733232"><ele>333.2</ele><time>2026-03-22T09:08:16.999Z</time></trkpt><trkpt lat="43.62532621221572" lon="11.24706068015035"><ele>333.0</ele><time>2026-03-22T09:08:17.999Z</time></trkpt><trkpt lat="43.625225117215145" lon="11.2471176148993"><ele>332.59999999999997</ele><time>2026-03-22T09:08:18.999Z</time></trkpt><trkpt lat="43.62512819479245" lon="11.247181933999146"><ele>332.2</ele><time>2026-03-22T09:08:19.999Z</time></trkpt><trkpt lat="43.62503000075129" lon="11.247243750338413"><ele>331.8</ele><time>2026-03-22T09:08:20.999Z</time></trkpt><trkpt lat="43.62493811787705" lon="11.247299910319006"><ele>331.4</ele><time>2026-03-22T09:08:21.999Z</time></trkpt><trkpt lat="43.62485237039321" lon="11.247350951163183"><ele>331.0</ele><time>2026-03-22T09:08:22.999Z</time></trkpt><trkpt lat="43.624775565971824" lon="11.247389041121956"><ele>331.0</ele><time>2026-03-22T09:08:23.999Z</time></trkpt><trkpt lat="43.62469606952622" lon="11.247432186926362"><ele>331.0</ele><time>2026-03-22T09:08:24.999Z</time></trkpt><trkpt lat="43.62462143064839" lon="11.247486504517429"><ele>331.0</ele><time>2026-03-22T09:08:25.999Z</time></trkpt><trkpt lat="43.62454096313404" lon="11.247563536909333"><ele>331.0</ele><time>2026-03-22T09:08:26.999Z</time></trkpt><trkpt lat="43.62444766962488" lon="11.247654014830601"><ele>331.0</ele><time>2026-03-22T09:08:27.999Z</time></trkpt><trkpt lat="43.624359238398526" lon="11.247741266977586"><ele>328.8</ele><time>2026-03-22T09:08:28.999Z</time></trkpt><trkpt lat="43.624266553059606" lon="11.247834043943097"><ele>326.6</ele><time>2026-03-22T09:08:29.999Z</time></trkpt><trkpt lat="43.62418442829981" lon="11.247922457170134"><ele>324.4</ele><time>2026-03-22T09:08:30.999Z</time></trkpt><trkpt lat="43.624108547402166" lon="11.247997377508558"><ele>322.2</ele><time>2026-03-22T09:08:31.999Z</time></trkpt><trkpt lat="43.624035427300754" lon="11.248062340493284"><ele>320.0</ele><time>2026-03-22T09:08:32.999Z</time></trkpt><trkpt lat="43.62397342955401" lon="11.248117318566807"><ele>320.0</ele><time>2026-03-22T09:08:33.999Z</time></trkpt><trkpt lat="43.62391289089324" lon="11.248174539093009"><ele>320.0</ele><time>2026-03-22T09:08:34.999Z</time></trkpt><trkpt lat="43.62383401264639" lon="11.248254492484367"><ele>320.0</ele><time>2026-03-22T09:08:36.999Z</time></trkpt><trkpt lat="43.62378029226623" lon="11.248340648668224"><ele>320.0</ele><time>2026-03-22T09:08:39.999Z</time></trkpt><trkpt lat="43.62372854164498" lon="11.248277196542205"><ele>320.0</ele><time>2026-03-22T09:08:42.999Z</time></trkpt><trkpt lat="43.62368118360695" lon="11.24820762736923"><ele>320.0</ele><time>2026-03-22T09:08:44.999Z</time></trkpt><trkpt lat="43.62362902459346" lon="11.248141627494338"><ele>319.1666666666667</ele><time>2026-03-22T09:08:46.999Z</time></trkpt><trkpt lat="43.623565007307235" lon="11.248055204269187"><ele>318.33333333333337</ele><time>2026-03-22T09:08:48.999Z</time></trkpt><trkpt lat="43.62349665138663" lon="11.247980196683782"><ele>317.5</ele><time>2026-03-22T09:08:50.999Z</time></trkpt><trkpt lat="43.623449441372586" lon="11.247900347585398"><ele>316.6666666666667</ele><time>2026-03-22T09:08:52.999Z</time></trkpt><trkpt lat="43.62341228516443" lon="11.247823383625136"><ele>315.8333333333333</ele><time>2026-03-22T09:08:54.999Z</time></trkpt><trkpt lat="43.62336374444232" lon="11.247748122133029"><ele>315.0</ele><time>2026-03-22T09:08:57.999Z</time></trkpt><trkpt lat="43.62329216753032" lon="11.24761946495588"><ele>315.0</ele><time>2026-03-22T09:09:03Z</time></trkpt><trkpt lat="43.62326267927513" lon="11.247516497417418"><ele>315.0</ele><time>2026-03-22T09:09:04Z</time></trkpt><trkpt lat="43.62322919574877" lon="11.247420923820211"><ele>315.0</ele><time>2026-03-22T09:09:05Z</time></trkpt><trkpt lat="43.6231973103071" lon="11.247327022845173"><ele>315.0</ele><time>2026-03-22T09:09:06Z</time></trkpt><trkpt lat="43.62317206865944" lon="11.247241356820515"><ele>315.0</ele><time>2026-03-22T09:09:07Z</time></trkpt><trkpt lat="43.62314586394372" lon="11.247098470726172"><ele>315.0</ele><time>2026-03-22T09:09:09Z</time></trkpt><trkpt lat="43.62312545089061" lon="11.246991550358882"><ele>315.8</ele><time>2026-03-22T09:09:12Z</time></trkpt><trkpt lat="43.62310747693082" lon="11.246893619540746"><ele>316.6</ele><time>2026-03-22T09:09:15Z</time></trkpt><trkpt lat="43.62306988368745" lon="11.246684484835805"><ele>317.4</ele><time>2026-03-22T09:09:21Z</time></trkpt><trkpt lat="43.62305182329275" lon="11.246583955141233"><ele>318.2</ele><time>2026-03-22T09:09:22Z</time></trkpt><trkpt lat="43.62303245625776" lon="11.246479174223584"><ele>319.0</ele><time>2026-03-22T09:09:24Z</time></trkpt><trkpt lat="43.622803324866666" lon="11.24659864135602"><ele>319.0</ele><time>2026-03-22T09:09:27Z</time></trkpt><trkpt lat="43.622728215778714" lon="11.246660832128804"><ele>319.0</ele><time>2026-03-22T09:09:28Z</time></trkpt><trkpt lat="43.62263440862035" lon="11.246729110922866"><ele>319.0</ele><time>2026-03-22T09:09:29Z</time></trkpt><trkpt lat="43.62255116115616" lon="11.246794873904882"><ele>319.0</ele><time>2026-03-22T09:09:30Z</time></trkpt><trkpt lat="43.62247154612487" lon="11.246857371608442"><ele>319.0</ele><time>2026-03-22T09:09:31Z</time></trkpt><trkpt lat="43.6223890087612" lon="11.246925033530907"><ele>319.0</ele><time>2026-03-22T09:09:32Z</time></trkpt><trkpt lat="43.622303837200185" lon="11.246989168659523"><ele>319.0</ele><time>2026-03-22T09:09:33Z</time></trkpt><trkpt lat="43.62221720078653" lon="11.247058210252895"><ele>319.0</ele><time>2026-03-22T09:09:34Z</time></trkpt><trkpt lat="43.62213724536649" lon="11.247119877580477"><ele>319.0</ele><time>2026-03-22T09:09:35Z</time></trkpt><trkpt lat="43.622060454661465" lon="11.24718021728934"><ele>319.0</ele><time>2026-03-22T09:09:36Z</time></trkpt><trkpt lat="43.62198238523214" lon="11.24723127415386"><ele>319.66666666666663</ele><time>2026-03-22T09:09:37Z</time></trkpt><trkpt lat="43.62190155753484" lon="11.247281325783788"><ele>320.3333333333333</ele><time>2026-03-22T09:09:38Z</time></trkpt><trkpt lat="43.62181989746961" lon="11.247342882606295"><ele>321.0</ele><time>2026-03-22T09:09:39Z</time></trkpt><trkpt lat="43.621748119315626" lon="11.2474102077073"><ele>321.6666666666667</ele><time>2026-03-22T09:09:40Z</time></trkpt><trkpt lat="43.62168346159566" lon="11.247465502232902"><ele>322.33333333333337</ele><time>2026-03-22T09:09:41Z</time></trkpt><trkpt lat="43.62161878881743" lon="11.247518026579868"><ele>323.0</ele><time>2026-03-22T09:09:42Z</time></trkpt><trkpt lat="43.62155117486091" lon="11.247573732745982"><ele>323.59999999999997</ele><time>2026-03-22T09:09:43Z</time></trkpt><trkpt lat="43.62149452611455" lon="11.247617125420787"><ele>324.2</ele><time>2026-03-22T09:09:44Z</time></trkpt><trkpt lat="43.62140497333575" lon="11.247681602279654"><ele>324.8</ele><time>2026-03-22T09:09:46Z</time></trkpt><trkpt lat="43.621322738016744" lon="11.247761546222272"><ele>325.4</ele><time>2026-03-22T09:09:48Z</time></trkpt><trkpt lat="43.621283774584676" lon="11.247899119441989"><ele>326.0</ele><time>2026-03-22T09:09:50Z</time></trkpt><trkpt lat="43.62118641056603" lon="11.24794007203971"><ele>328.0</ele><time>2026-03-22T09:09:52Z</time></trkpt><trkpt lat="43.62108106648398" lon="11.2479837253401"><ele>330.0</ele><time>2026-03-22T09:09:54Z</time></trkpt><trkpt lat="43.62096563061388" lon="11.248018918348784"><ele>332.0</ele><time>2026-03-22T09:09:56Z</time></trkpt><trkpt lat="43.62090236913139" lon="11.248063569132524"><ele>334.0</ele><time>2026-03-22T09:09:57Z</time></trkpt><trkpt lat="43.620848259826396" lon="11.248119162815591"><ele>336.0</ele><time>2026-03-22T09:09:58Z</time></trkpt><trkpt lat="43.62074655581718" lon="11.24820155748316"><ele>336.3333333333333</ele><time>2026-03-22T09:10:00Z</time></trkpt><trkpt lat="43.62068984868663" lon="11.248253413904267"><ele>336.6666666666667</ele><time>2026-03-22T09:10:01Z</time></trkpt><trkpt lat="43.62062163833944" lon="11.248320436855424"><ele>337.0</ele><time>2026-03-22T09:10:02Z</time></trkpt><trkpt lat="43.62056621639946" lon="11.24838247908202"><ele>337.33333333333337</ele><time>2026-03-22T09:10:03Z</time></trkpt><trkpt lat="43.620503618264" lon="11.248403747723659"><ele>337.6666666666667</ele><time>2026-03-22T09:10:05Z</time></trkpt><trkpt lat="43.620401434511884" lon="11.248280947994285"><ele>338.0</ele><time>2026-03-22T09:10:06.999Z</time></trkpt><trkpt lat="43.62031344777337" lon="11.248212522835868"><ele>339.0</ele><time>2026-03-22T09:10:07.999Z</time></trkpt><trkpt lat="43.62021774661056" lon="11.248139142033988"><ele>340.0</ele><time>2026-03-22T09:10:08.999Z</time></trkpt><trkpt lat="43.62015825397185" lon="11.248091267427231"><ele>341.0</ele><time>2026-03-22T09:10:09.999Z</time></trkpt><trkpt lat="43.620086597676334" lon="11.248111322655836"><ele>342.0</ele><time>2026-03-22T09:10:14.999Z</time></trkpt><trkpt lat="43.620023585498615" lon="11.248222303865145"><ele>343.0</ele><time>2026-03-22T09:10:16.999Z</time></trkpt><trkpt lat="43.61998694198407" lon="11.24839295242654"><ele>344.16666666666663</ele><time>2026-03-22T09:10:18.999Z</time></trkpt><trkpt lat="43.61996956102206" lon="11.248481031246685"><ele>345.3333333333333</ele><time>2026-03-22T09:10:19.999Z</time></trkpt><trkpt lat="43.619952540216666" lon="11.24862638652975"><ele>346.5</ele><time>2026-03-22T09:10:21.999Z</time></trkpt><trkpt lat="43.619950252487" lon="11.248717395359131"><ele>347.6666666666667</ele><time>2026-03-22T09:10:22.999Z</time></trkpt><trkpt lat="43.619950543088606" lon="11.248836984951705"><ele>348.83333333333337</ele><time>2026-03-22T09:10:23.999Z</time></trkpt><trkpt lat="43.61995040517571" lon="11.24899153681287"><ele>350.0</ele><time>2026-03-22T09:10:24.999Z</time></trkpt><trkpt lat="43.619949516990076" lon="11.249170681632636"><ele>350.25</ele><time>2026-03-22T09:10:25.999Z</time></trkpt><trkpt lat="43.619950575770076" lon="11.249373898758927"><ele>350.5</ele><time>2026-03-22T09:10:26.999Z</time></trkpt><trkpt lat="43.619950846154" lon="11.24957519092078"><ele>350.75</ele><time>2026-03-22T09:10:27.999Z</time></trkpt><trkpt lat="43.619951903792675" lon="11.249770244744749"><ele>351.0</ele><time>2026-03-22T09:10:28.999Z</time></trkpt><trkpt lat="43.619954228446666" lon="11.249949895200768"><ele>352.5</ele><time>2026-03-22T09:10:29.999Z</time></trkpt><trkpt lat="43.619954570140216" lon="11.250146010067601"><ele>354.0</ele><time>2026-03-22T09:10:30.999Z</time></trkpt><trkpt lat="43.61995524043961" lon="11.250337201921589"><ele>355.5</ele><time>2026-03-22T09:10:31.999Z</time></trkpt><trkpt lat="43.61995648797781" lon="11.250512443873543"><ele>357.0</ele><time>2026-03-22T09:10:32.999Z</time></trkpt><trkpt lat="43.619958780130176" lon="11.250662674648598"><ele>357.6666666666667</ele><time>2026-03-22T09:10:33.999Z</time></trkpt><trkpt lat="43.619960164454284" lon="11.250788983203158"><ele>358.3333333333333</ele><time>2026-03-22T09:10:34.999Z</time></trkpt><trkpt lat="43.61995146513037" lon="11.25089777952686"><ele>359.0</ele><time>2026-03-22T09:10:35.999Z</time></trkpt><trkpt lat="43.61993004834059" lon="11.25098321197481"><ele>359.66666666666663</ele><time>2026-03-22T09:10:36.999Z</time></trkpt><trkpt lat="43.619820931421025" lon="11.251067189152872"><ele>360.3333333333333</ele><time>2026-03-22T09:10:38.999Z</time></trkpt><trkpt lat="43.619747158579486" lon="11.251060999458584"><ele>361.0</ele><time>2026-03-22T09:10:39.999Z</time></trkpt><trkpt lat="43.61967298429878" lon="11.250989368191217"><ele>361.0</ele><time>2026-03-22T09:10:40.999Z</time></trkpt><trkpt lat="43.61958639596997" lon="11.250939201424345"><ele>361.0</ele><time>2026-03-22T09:10:41.999Z</time></trkpt><trkpt lat="43.61951102190018" lon="11.250838567943452"><ele>361.0</ele><time>2026-03-22T09:10:42.999Z</time></trkpt><trkpt lat="43.619440622787224" lon="11.250714668066255"><ele>361.0</ele><time>2026-03-22T09:10:43.999Z</time></trkpt><trkpt lat="43.61937051032508" lon="11.25058556278129"><ele>361.0</ele><time>2026-03-22T09:10:44.999Z</time></trkpt><trkpt lat="43.61930330171284" lon="11.250474912192733"><ele>363.0</ele><time>2026-03-22T09:10:45.999Z</time></trkpt><trkpt lat="43.619245737964945" lon="11.250374131468309"><ele>365.0</ele><time>2026-03-22T09:10:46.999Z</time></trkpt><trkpt lat="43.61915905717024" lon="11.250337718832558"><ele>367.0</ele><time>2026-03-22T09:10:47.999Z</time></trkpt><trkpt lat="43.61906923095938" lon="11.250381424099722"><ele>369.0</ele><time>2026-03-22T09:10:48.999Z</time></trkpt><trkpt lat="43.618990458415944" lon="11.250464704309492"><ele>371.0</ele><time>2026-03-22T09:10:49.999Z</time></trkpt><trkpt lat="43.61889787510698" lon="11.250542446848561"><ele>371.5</ele><time>2026-03-22T09:10:50.999Z</time></trkpt><trkpt lat="43.61880242848257" lon="11.250638242793233"><ele>372.0</ele><time>2026-03-22T09:10:51.999Z</time></trkpt><trkpt lat="43.618698630787335" lon="11.25073737863596"><ele>372.5</ele><time>2026-03-22T09:10:52.999Z</time></trkpt><trkpt lat="43.618591636725675" lon="11.250818158973777"><ele>373.0</ele><time>2026-03-22T09:10:53.999Z</time></trkpt><trkpt lat="43.6184781261459" lon="11.250872331089363"><ele>375.59999999999997</ele><time>2026-03-22T09:10:54.999Z</time></trkpt><trkpt lat="43.61836150991991" lon="11.250923512026327"><ele>378.2</ele><time>2026-03-22T09:10:55.999Z</time></trkpt><trkpt lat="43.61826004408569" lon="11.250973861375117"><ele>380.8</ele><time>2026-03-22T09:10:56.999Z</time></trkpt><trkpt lat="43.618187635031425" lon="11.2510390120072"><ele>383.4</ele><time>2026-03-22T09:10:57.999Z</time></trkpt><trkpt lat="43.61815325979871" lon="11.251143068158934"><ele>386.0</ele><time>2026-03-22T09:10:58.999Z</time></trkpt><trkpt lat="43.6181350097835" lon="11.251227876285833"><ele>386.0</ele><time>2026-03-22T09:10:59.999Z</time></trkpt><trkpt lat="43.61813991564544" lon="11.251330222939584"><ele>386.0</ele><time>2026-03-22T09:11:00.999Z</time></trkpt><trkpt lat="43.61816082091903" lon="11.251436699706703"><ele>386.0</ele><time>2026-03-22T09:11:01.999Z</time></trkpt><trkpt lat="43.61817945596906" lon="11.251558067392526"><ele>386.0</ele><time>2026-03-22T09:11:02.999Z</time></trkpt><trkpt lat="43.61818761134587" lon="11.251699201640402"><ele>386.0</ele><time>2026-03-22T09:11:03.999Z</time></trkpt><trkpt lat="43.618179981875976" lon="11.251853779919177"><ele>387.75</ele><time>2026-03-22T09:11:04.999Z</time></trkpt><trkpt lat="43.61815526762991" lon="11.252028310866475"><ele>389.5</ele><time>2026-03-22T09:11:05.999Z</time></trkpt><trkpt lat="43.618136644192695" lon="11.252222272055814"><ele>391.25</ele><time>2026-03-22T09:11:06.999Z</time></trkpt><trkpt lat="43.61812340825179" lon="11.252423650563411"><ele>393.0</ele><time>2026-03-22T09:11:07.999Z</time></trkpt><trkpt lat="43.61810764886048" lon="11.252588702378725"><ele>394.0</ele><time>2026-03-22T09:11:09Z</time></trkpt><trkpt lat="43.618075195798134" lon="11.252717600036725"><ele>395.0</ele><time>2026-03-22T09:11:10Z</time></trkpt><trkpt lat="43.61801201714552" lon="11.252823923430961"><ele>396.0</ele><time>2026-03-22T09:11:11Z</time></trkpt><trkpt lat="43.61790571001102" lon="11.252868784697336"><ele>397.0</ele><time>2026-03-22T09:11:12Z</time></trkpt><trkpt lat="43.61781493638054" lon="11.25293496703516"><ele>398.0</ele><time>2026-03-22T09:11:13Z</time></trkpt><trkpt lat="43.61772808545943" lon="11.252995881722542"><ele>400.0</ele><time>2026-03-22T09:11:14Z</time></trkpt><trkpt lat="43.617648093814964" lon="11.253048696595567"><ele>402.0</ele><time>2026-03-22T09:11:15Z</time></trkpt><trkpt lat="43.61756455920658" lon="11.253094172265484"><ele>404.0</ele><time>2026-03-22T09:11:16Z</time></trkpt><trkpt lat="43.617472891655204" lon="11.253133235698042"><ele>406.0</ele><time>2026-03-22T09:11:17Z</time></trkpt><trkpt lat="43.6173741538623" lon="11.253139782693768"><ele>408.0</ele><time>2026-03-22T09:11:18Z</time></trkpt><trkpt lat="43.6172739741261" lon="11.253098594658043"><ele>408.75</ele><time>2026-03-22T09:11:19Z</time></trkpt><trkpt lat="43.61716130193775" lon="11.253044384928492"><ele>409.5</ele><time>2026-03-22T09:11:20Z</time></trkpt><trkpt lat="43.6170412696613" lon="11.25300611957933"><ele>410.25</ele><time>2026-03-22T09:11:21Z</time></trkpt><trkpt lat="43.6169148405549" lon="11.25295384291106"><ele>411.0</ele><time>2026-03-22T09:11:22Z</time></trkpt><trkpt lat="43.61677996891974" lon="11.252910373992126"><ele>412.4</ele><time>2026-03-22T09:11:23Z</time></trkpt><trkpt lat="43.61666190327019" lon="11.252873032499252"><ele>413.8</ele><time>2026-03-22T09:11:24Z</time></trkpt><trkpt lat="43.6165569654296" lon="11.25283878387498"><ele>415.2</ele><time>2026-03-22T09:11:25Z</time></trkpt><trkpt lat="43.616456413581886" lon="11.252826320007223"><ele>416.59999999999997</ele><time>2026-03-22T09:11:26Z</time></trkpt><trkpt lat="43.6163627442145" lon="11.252847159391411"><ele>418.0</ele><time>2026-03-22T09:11:27Z</time></trkpt><trkpt lat="43.61625637430891" lon="11.252880888554305"><ele>418.0</ele><time>2026-03-22T09:11:28Z</time></trkpt><trkpt lat="43.61616174467042" lon="11.252992253629657"><ele>418.0</ele><time>2026-03-22T09:11:29Z</time></trkpt><trkpt lat="43.616048343784584" lon="11.253082526571147"><ele>418.0</ele><time>2026-03-22T09:11:30Z</time></trkpt><trkpt lat="43.615926823982946" lon="11.25316265426916"><ele>418.0</ele><time>2026-03-22T09:11:31Z</time></trkpt><trkpt lat="43.615799597049595" lon="11.253232197818123"><ele>416.25</ele><time>2026-03-22T09:11:32Z</time></trkpt><trkpt lat="43.615666369934544" lon="11.253274486788769"><ele>414.5</ele><time>2026-03-22T09:11:33Z</time></trkpt><trkpt lat="43.61555775515751" lon="11.253366666516818"><ele>412.75</ele><time>2026-03-22T09:11:34Z</time></trkpt><trkpt lat="43.61545505510902" lon="11.25346126931714"><ele>411.0</ele><time>2026-03-22T09:11:35Z</time></trkpt><trkpt lat="43.615362622320795" lon="11.253584044056264"><ele>412.75</ele><time>2026-03-22T09:11:36Z</time></trkpt><trkpt lat="43.6152750903563" lon="11.253712300452538"><ele>414.5</ele><time>2026-03-22T09:11:37Z</time></trkpt><trkpt lat="43.615172320663234" lon="11.253814253456584"><ele>416.25</ele><time>2026-03-22T09:11:38Z</time></trkpt><trkpt lat="43.61504902335892" lon="11.253866016184434"><ele>418.0</ele><time>2026-03-22T09:11:39Z</time></trkpt><trkpt lat="43.61493935666655" lon="11.253899451100098"><ele>418.0</ele><time>2026-03-22T09:11:40Z</time></trkpt><trkpt lat="43.6148282751531" lon="11.253945845480946"><ele>418.0</ele><time>2026-03-22T09:11:41Z</time></trkpt><trkpt lat="43.61471413285619" lon="11.253949499140433"><ele>418.0</ele><time>2026-03-22T09:11:42Z</time></trkpt><trkpt lat="43.614598952110185" lon="11.253904474588952"><ele>418.0</ele><time>2026-03-22T09:11:43Z</time></trkpt><trkpt lat="43.6145016521515" lon="11.253794662850261"><ele>420.5</ele><time>2026-03-22T09:11:44Z</time></trkpt><trkpt lat="43.61438179282291" lon="11.25371276255406"><ele>423.0</ele><time>2026-03-22T09:11:45Z</time></trkpt><trkpt lat="43.614263331465196" lon="11.25360548289452"><ele>425.5</ele><time>2026-03-22T09:11:46Z</time></trkpt><trkpt lat="43.61413730060039" lon="11.253502480579455"><ele>428.0</ele><time>2026-03-22T09:11:47Z</time></trkpt><trkpt lat="43.61400582428404" lon="11.253403102746145"><ele>428.0</ele><time>2026-03-22T09:11:48Z</time></trkpt><trkpt lat="43.61388038399672" lon="11.253305980989294"><ele>428.0</ele><time>2026-03-22T09:11:49Z</time></trkpt><trkpt lat="43.61376006718591" lon="11.253204418809231"><ele>428.0</ele><time>2026-03-22T09:11:50Z</time></trkpt><trkpt lat="43.613646879723724" lon="11.253102681109462"><ele>428.0</ele><time>2026-03-22T09:11:51Z</time></trkpt><trkpt lat="43.61353449700555" lon="11.252992849573081"><ele>429.79999999999995</ele><time>2026-03-22T09:11:52Z</time></trkpt><trkpt lat="43.61342835266276" lon="11.252875147061705"><ele>431.59999999999997</ele><time>2026-03-22T09:11:53Z</time></trkpt><trkpt lat="43.61335743697396" lon="11.252758403123035"><ele>433.40000000000003</ele><time>2026-03-22T09:11:54Z</time></trkpt><trkpt lat="43.613300254864576" lon="11.252694551761937"><ele>435.20000000000005</ele><time>2026-03-22T09:11:56Z</time></trkpt><trkpt lat="43.613277568123685" lon="11.252590057774974"><ele>437.0</ele><time>2026-03-22T09:12:09Z</time></trkpt><trkpt lat="43.61318842191309" lon="11.252506665622676"><ele>437.0</ele><time>2026-03-22T09:12:11.999Z</time></trkpt><trkpt lat="43.61309571707854" lon="11.25244311896247"><ele>437.00000000000006</ele><time>2026-03-22T09:12:13.999Z</time></trkpt><trkpt lat="43.61301580622575" lon="11.25239912862771"><ele>437.00000000000006</ele><time>2026-03-22T09:12:15.999Z</time></trkpt><trkpt lat="43.612911038150585" lon="11.252342131321528"><ele>437.0</ele><time>2026-03-22T09:12:17.999Z</time></trkpt><trkpt lat="43.612824415051975" lon="11.252295011419768"><ele>437.0</ele><time>2026-03-22T09:12:20.999Z</time></trkpt><trkpt lat="43.612679438523266" lon="11.252216139340971"><ele>440.0</ele><time>2026-03-22T09:12:22.999Z</time></trkpt><trkpt lat="43.61260285074597" lon="11.252174473120945"><ele>443.00000000000006</ele><time>2026-03-22T09:12:23.999Z</time></trkpt><trkpt lat="43.61249577824483" lon="11.252116222155982"><ele>446.00000000000006</ele><time>2026-03-22T09:12:25.999Z</time></trkpt><trkpt lat="43.6124049933418" lon="11.252067162175292"><ele>449.0</ele><time>2026-03-22T09:12:27.999Z</time></trkpt><trkpt lat="43.61234517308537" lon="11.252038850586827"><ele>452.0</ele><time>2026-03-22T09:12:28.999Z</time></trkpt><trkpt lat="43.6122543827899" lon="11.25200436290116"><ele>451.99999999999994</ele><time>2026-03-22T09:12:30.999Z</time></trkpt><trkpt lat="43.612179299528954" lon="11.251989061408466"><ele>452.0</ele><time>2026-03-22T09:12:32.999Z</time></trkpt><trkpt lat="43.61210768907676" lon="11.251985982673581"><ele>452.0</ele><time>2026-03-22T09:12:33.999Z</time></trkpt><trkpt lat="43.612024299171225" lon="11.25198539624845"><ele>452.0</ele><time>2026-03-22T09:12:34.999Z</time></trkpt><trkpt lat="43.61193933738895" lon="11.251985396268424"><ele>451.99999999999994</ele><time>2026-03-22T09:12:36.999Z</time></trkpt><trkpt lat="43.61186299386132" lon="11.251977760880246"><ele>452.0</ele><time>2026-03-22T09:12:38.999Z</time></trkpt><trkpt lat="43.61179698420568" lon="11.251966358225218"><ele>452.75</ele><time>2026-03-22T09:12:40.999Z</time></trkpt><trkpt lat="43.61181673886716" lon="11.251622233815805"><ele>453.5</ele><time>2026-03-22T09:12:45.999Z</time></trkpt><trkpt lat="43.611814895894966" lon="11.251532144446005"><ele>454.25</ele><time>2026-03-22T09:12:47.999Z</time></trkpt><trkpt lat="43.61177138753769" lon="11.251440328224973"><ele>455.0</ele><time>2026-03-22T09:12:49.999Z</time></trkpt><trkpt lat="43.61175017224112" lon="11.251317423312845"><ele>453.42857142857144</ele><time>2026-03-22T09:12:51.999Z</time></trkpt><trkpt lat="43.611757166241716" lon="11.25122929166367"><ele>451.8571428571429</ele><time>2026-03-22T09:12:52.999Z</time></trkpt><trkpt lat="43.61177045450236" lon="11.251140769359173"><ele>450.2857142857143</ele><time>2026-03-22T09:12:53.999Z</time></trkpt><trkpt lat="43.6117787144586" lon="11.251023130040833"><ele>448.7142857142857</ele><time>2026-03-22T09:12:54.999Z</time></trkpt><trkpt lat="43.61178271743989" lon="11.25093142176962"><ele>447.14285714285717</ele><time>2026-03-22T09:12:55.999Z</time></trkpt><trkpt lat="43.61181606176505" lon="11.250846554441136"><ele>445.57142857142856</ele><time>2026-03-22T09:12:56.999Z</time></trkpt><trkpt lat="43.61184080512325" lon="11.250717991939986"><ele>444.0</ele><time>2026-03-22T09:12:58.999Z</time></trkpt><trkpt lat="43.61181937752813" lon="11.250591794516371"><ele>441.5</ele><time>2026-03-22T09:13:00.999Z</time></trkpt><trkpt lat="43.61174592726399" lon="11.250499152661652"><ele>439.0</ele><time>2026-03-22T09:13:02.999Z</time></trkpt><trkpt lat="43.61169423979011" lon="11.250365319564354"><ele>436.5</ele><time>2026-03-22T09:13:04.999Z</time></trkpt><trkpt lat="43.61163826558956" lon="11.25019664028108"><ele>434.0</ele><time>2026-03-22T09:13:06.999Z</time></trkpt><trkpt lat="43.61163757894757" lon="11.250024488868661"><ele>434.0</ele><time>2026-03-22T09:13:08.999Z</time></trkpt><trkpt lat="43.6116340995794" lon="11.249934401560564"><ele>434.0</ele><time>2026-03-22T09:13:09.999Z</time></trkpt><trkpt lat="43.61159918320314" lon="11.249816363763363"><ele>434.0</ele><time>2026-03-22T09:13:11.999Z</time></trkpt><trkpt lat="43.61158150360722" lon="11.249653170173984"><ele>434.0</ele><time>2026-03-22T09:13:13.999Z</time></trkpt><trkpt lat="43.61161628056879" lon="11.249503116508292"><ele>434.0</ele><time>2026-03-22T09:13:16Z</time></trkpt><trkpt lat="43.611615348407206" lon="11.249360496936593"><ele>431.8333333333333</ele><time>2026-03-22T09:13:18Z</time></trkpt><trkpt lat="43.61159870582448" lon="11.249201705419763"><ele>429.66666666666663</ele><time>2026-03-22T09:13:20Z</time></trkpt><trkpt lat="43.611615253622745" lon="11.249110355513361"><ele>427.5</ele><time>2026-03-22T09:13:21Z</time></trkpt><trkpt lat="43.61165679520451" lon="11.249034841682485"><ele>425.33333333333337</ele><time>2026-03-22T09:13:23Z</time></trkpt><trkpt lat="43.61170000783884" lon="11.248913428070834"><ele>423.1666666666667</ele><time>2026-03-22T09:13:25Z</time></trkpt><trkpt lat="43.61172543455777" lon="11.248812155207126"><ele>421.0</ele><time>2026-03-22T09:13:27Z</time></trkpt><trkpt lat="43.611653269765625" lon="11.24876074081333"><ele>421.00000000000006</ele><time>2026-03-22T09:13:31Z</time></trkpt><trkpt lat="43.61157486982427" lon="11.248766991602048"><ele>421.0</ele><time>2026-03-22T09:13:47Z</time></trkpt><trkpt lat="43.61153186594128" lon="11.248837697837413"><ele>421.0</ele><time>2026-03-22T09:13:50Z</time></trkpt><trkpt lat="43.61148567378777" lon="11.248912331661291"><ele>421.0</ele><time>2026-03-22T09:13:52Z</time></trkpt><trkpt lat="43.611436309935705" lon="11.248998862719542"><ele>421.00000000000006</ele><time>2026-03-22T09:13:53Z</time></trkpt><trkpt lat="43.61139458760073" lon="11.249105913463456"><ele>421.0</ele><time>2026-03-22T09:13:54Z</time></trkpt><trkpt lat="43.6113334219424" lon="11.24922037165918"><ele>421.00000000000006</ele><time>2026-03-22T09:13:56Z</time></trkpt><trkpt lat="43.611231615448986" lon="11.24932154319901"><ele>421.0</ele><time>2026-03-22T09:13:58Z</time></trkpt><trkpt lat="43.611163992475426" lon="11.249357314389416"><ele>421.0</ele><time>2026-03-22T09:13:59Z</time></trkpt><trkpt lat="43.61108356148289" lon="11.249379367660685"><ele>421.0</ele><time>2026-03-22T09:14:00Z</time></trkpt><trkpt lat="43.61100822929233" lon="11.249381052153792"><ele>421.00000000000006</ele><time>2026-03-22T09:14:01Z</time></trkpt><trkpt lat="43.610937184023456" lon="11.249389889174928"><ele>421.0</ele><time>2026-03-22T09:14:02Z</time></trkpt><trkpt lat="43.610831813860685" lon="11.249367590785946"><ele>419.20000000000005</ele><time>2026-03-22T09:14:04Z</time></trkpt><trkpt lat="43.61078044475924" lon="11.249315521487581"><ele>417.40000000000003</ele><time>2026-03-22T09:14:05Z</time></trkpt><trkpt lat="43.61069342956256" lon="11.24923816691751"><ele>415.6</ele><time>2026-03-22T09:14:06Z</time></trkpt><trkpt lat="43.61060268786124" lon="11.249149783317948"><ele>413.8</ele><time>2026-03-22T09:14:07Z</time></trkpt><trkpt lat="43.61054688930278" lon="11.24905393438662"><ele>412.0</ele><time>2026-03-22T09:14:08Z</time></trkpt><trkpt lat="43.61047649899266" lon="11.248935338692922"><ele>410.20000000000005</ele><time>2026-03-22T09:14:09Z</time></trkpt><trkpt lat="43.6103861928912" lon="11.248823689264647"><ele>408.4</ele><time>2026-03-22T09:14:10Z</time></trkpt><trkpt lat="43.61030545855644" lon="11.248712074415177"><ele>406.6</ele><time>2026-03-22T09:14:11Z</time></trkpt><trkpt lat="43.61023896582731" lon="11.248608027559632"><ele>404.79999999999995</ele><time>2026-03-22T09:14:12Z</time></trkpt><trkpt lat="43.61016370013227" lon="11.248519043776222"><ele>403.0</ele><time>2026-03-22T09:14:13Z</time></trkpt><trkpt lat="43.61009343617337" lon="11.248418774507599"><ele>406.25</ele><time>2026-03-22T09:14:14Z</time></trkpt><trkpt lat="43.61001621461536" lon="11.248293771338865"><ele>409.5</ele><time>2026-03-22T09:14:15Z</time></trkpt><trkpt lat="43.60993581388748" lon="11.248154018552192"><ele>412.75</ele><time>2026-03-22T09:14:16Z</time></trkpt><trkpt lat="43.6098495587155" lon="11.248035761280894"><ele>416.0</ele><time>2026-03-22T09:14:17Z</time></trkpt><trkpt lat="43.60977697013474" lon="11.247924277287021"><ele>415.99999999999994</ele><time>2026-03-22T09:14:18Z</time></trkpt><trkpt lat="43.60971709103466" lon="11.247804888486252"><ele>416.0</ele><time>2026-03-22T09:14:18.999Z</time></trkpt><trkpt lat="43.609676237893964" lon="11.247694451942863"><ele>416.0</ele><time>2026-03-22T09:14:19.999Z</time></trkpt><trkpt lat="43.609638695704035" lon="11.247609053428604"><ele>416.0</ele><time>2026-03-22T09:14:20.999Z</time></trkpt><trkpt lat="43.609587330892246" lon="11.24754704293237"><ele>415.99999999999994</ele><time>2026-03-22T09:14:21.999Z</time></trkpt><trkpt lat="43.60952185641455" lon="11.247508098703522"><ele>416.0</ele><time>2026-03-22T09:14:22.999Z</time></trkpt><trkpt lat="43.60945321488403" lon="11.247469436347053"><ele>417.66666666666663</ele><time>2026-03-22T09:14:23.999Z</time></trkpt><trkpt lat="43.609346216365026" lon="11.247452047350146"><ele>419.3333333333333</ele><time>2026-03-22T09:14:25.999Z</time></trkpt><trkpt lat="43.609255820719525" lon="11.247481025547764"><ele>421.0</ele><time>2026-03-22T09:14:26.999Z</time></trkpt><trkpt lat="43.60918299691513" lon="11.24751594080187"><ele>422.66666666666663</ele><time>2026-03-22T09:14:27.999Z</time></trkpt><trkpt lat="43.609112362847156" lon="11.247551522511406"><ele>424.3333333333333</ele><time>2026-03-22T09:14:28.999Z</time></trkpt><trkpt lat="43.609038949904985" lon="11.24758795556228"><ele>426.0</ele><time>2026-03-22T09:14:29.999Z</time></trkpt><trkpt lat="43.608963176917676" lon="11.247599009745677"><ele>426.0</ele><time>2026-03-22T09:14:30.999Z</time></trkpt><trkpt lat="43.60887840486767" lon="11.247589794257184"><ele>426.0</ele><time>2026-03-22T09:14:31.999Z</time></trkpt><trkpt lat="43.6087970856561" lon="11.247570796641089"><ele>426.0</ele><time>2026-03-22T09:14:32.999Z</time></trkpt><trkpt lat="43.60872571699808" lon="11.247558654407223"><ele>426.0</ele><time>2026-03-22T09:14:33.999Z</time></trkpt><trkpt lat="43.60862329786463" lon="11.24753301646628"><ele>426.0</ele><time>2026-03-22T09:14:35.999Z</time></trkpt><trkpt lat="43.60859068268036" lon="11.247454163107664"><ele>426.0</ele><time>2026-03-22T09:14:36.999Z</time></trkpt><trkpt lat="43.60857757864516" lon="11.247347552527282"><ele>425.0</ele><time>2026-03-22T09:14:37.999Z</time></trkpt><trkpt lat="43.60854353288321" lon="11.247226552646893"><ele>424.0</ele><time>2026-03-22T09:14:38.999Z</time></trkpt><trkpt lat="43.60847691584789" lon="11.247094019503594"><ele>423.0</ele><time>2026-03-22T09:14:39.999Z</time></trkpt><trkpt lat="43.60841260236785" lon="11.246945788647194"><ele>422.0</ele><time>2026-03-22T09:14:40.999Z</time></trkpt><trkpt lat="43.60839092127474" lon="11.24682242577583"><ele>421.0</ele><time>2026-03-22T09:14:41.999Z</time></trkpt><trkpt lat="43.608343698457716" lon="11.246702510927344"><ele>421.0</ele><time>2026-03-22T09:14:42.999Z</time></trkpt><trkpt lat="43.60829597737863" lon="11.246579987742237"><ele>421.0</ele><time>2026-03-22T09:14:43.999Z</time></trkpt><trkpt lat="43.608235187141844" lon="11.246495696150685"><ele>421.0</ele><time>2026-03-22T09:14:44.999Z</time></trkpt><trkpt lat="43.60816553479141" lon="11.246414113929728"><ele>421.0</ele><time>2026-03-22T09:14:45.999Z</time></trkpt><trkpt lat="43.6080731044939" lon="11.24632174414785"><ele>421.0</ele><time>2026-03-22T09:14:46.999Z</time></trkpt><trkpt lat="43.60798286034746" lon="11.246238956345737"><ele>422.4</ele><time>2026-03-22T09:14:47.999Z</time></trkpt><trkpt lat="43.60789203720207" lon="11.246165077253382"><ele>423.8</ele><time>2026-03-22T09:14:48.999Z</time></trkpt><trkpt lat="43.60780926337702" lon="11.24606069873893"><ele>425.19999999999993</ele><time>2026-03-22T09:14:49.999Z</time></trkpt><trkpt lat="43.60772529801637" lon="11.245979405118684"><ele>426.59999999999997</ele><time>2026-03-22T09:14:50.999Z</time></trkpt><trkpt lat="43.607648271625294" lon="11.245880838821876"><ele>428.0</ele><time>2026-03-22T09:14:51.999Z</time></trkpt><trkpt lat="43.60757733954925" lon="11.24576625823939"><ele>428.0</ele><time>2026-03-22T09:14:52.999Z</time></trkpt><trkpt lat="43.60749334784668" lon="11.245672506951326"><ele>427.99999999999994</ele><time>2026-03-22T09:14:53.999Z</time></trkpt><trkpt lat="43.60740699640126" lon="11.245567388395926"><ele>427.99999999999994</ele><time>2026-03-22T09:14:54.999Z</time></trkpt><trkpt lat="43.607313669745366" lon="11.245471590352166"><ele>428.0</ele><time>2026-03-22T09:14:55.999Z</time></trkpt><trkpt lat="43.60722356931509" lon="11.245391546186823"><ele>428.0</ele><time>2026-03-22T09:14:56.999Z</time></trkpt><trkpt lat="43.607134252197795" lon="11.24530494043145"><ele>425.79999999999995</ele><time>2026-03-22T09:14:57.999Z</time></trkpt><trkpt lat="43.60705537224831" lon="11.245214520338507"><ele>423.59999999999997</ele><time>2026-03-22T09:14:58.999Z</time></trkpt><trkpt lat="43.60697516272202" lon="11.245137940639749"><ele>421.4</ele><time>2026-03-22T09:14:59.999Z</time></trkpt><trkpt lat="43.60688827151724" lon="11.245051501319322"><ele>419.20000000000005</ele><time>2026-03-22T09:15:00.999Z</time></trkpt><trkpt lat="43.60681026784925" lon="11.24497320904064"><ele>417.0</ele><time>2026-03-22T09:15:01.999Z</time></trkpt><trkpt lat="43.60672013558158" lon="11.24490091450946"><ele>417.0</ele><time>2026-03-22T09:15:02.999Z</time></trkpt><trkpt lat="43.60663989512719" lon="11.244840181106303"><ele>417.0</ele><time>2026-03-22T09:15:03.999Z</time></trkpt><trkpt lat="43.6065670290243" lon="11.244818481935404"><ele>417.0</ele><time>2026-03-22T09:15:04.999Z</time></trkpt><trkpt lat="43.60649717777385" lon="11.24481644459903"><ele>417.0</ele><time>2026-03-22T09:15:05.999Z</time></trkpt><trkpt lat="43.6064074589311" lon="11.244819173139996"><ele>417.0</ele><time>2026-03-22T09:15:06.999Z</time></trkpt><trkpt lat="43.6063228037294" lon="11.244851959322444"><ele>417.0</ele><time>2026-03-22T09:15:07.999Z</time></trkpt><trkpt lat="43.60622271558961" lon="11.244898643844731"><ele>416.20000000000005</ele><time>2026-03-22T09:15:08.999Z</time></trkpt><trkpt lat="43.60614249366331" lon="11.244938982890172"><ele>415.4</ele><time>2026-03-22T09:15:09.999Z</time></trkpt><trkpt lat="43.60604967465467" lon="11.2449864996688"><ele>414.6</ele><time>2026-03-22T09:15:10.999Z</time></trkpt><trkpt lat="43.605964856516614" lon="11.245051170378924"><ele>413.79999999999995</ele><time>2026-03-22T09:15:11.999Z</time></trkpt><trkpt lat="43.60589221860664" lon="11.245104959652373"><ele>413.0</ele><time>2026-03-22T09:15:12.999Z</time></trkpt><trkpt lat="43.60581586227802" lon="11.245163665076568"><ele>413.0</ele><time>2026-03-22T09:15:13.999Z</time></trkpt><trkpt lat="43.60575875763347" lon="11.245237850655583"><ele>413.0</ele><time>2026-03-22T09:15:14.999Z</time></trkpt><trkpt lat="43.605652447957695" lon="11.245267207568448"><ele>413.0</ele><time>2026-03-22T09:15:16.999Z</time></trkpt><trkpt lat="43.60557650465125" lon="11.245207178467025"><ele>413.0</ele><time>2026-03-22T09:15:17.999Z</time></trkpt><trkpt lat="43.60548950438682" lon="11.24512071539229"><ele>413.0</ele><time>2026-03-22T09:15:18.999Z</time></trkpt><trkpt lat="43.6053974753028" lon="11.245039272663911"><ele>415.0</ele><time>2026-03-22T09:15:19.999Z</time></trkpt><trkpt lat="43.605310315240445" lon="11.244972842968195"><ele>417.0</ele><time>2026-03-22T09:15:21Z</time></trkpt><trkpt lat="43.605239144082944" lon="11.244873911866339"><ele>419.0</ele><time>2026-03-22T09:15:22Z</time></trkpt><trkpt lat="43.60515908867081" lon="11.244791339274295"><ele>421.0</ele><time>2026-03-22T09:15:23Z</time></trkpt><trkpt lat="43.60509220286286" lon="11.244697802080722"><ele>423.0</ele><time>2026-03-22T09:15:24Z</time></trkpt><trkpt lat="43.60503863217434" lon="11.244638742358603"><ele>419.3333333333333</ele><time>2026-03-22T09:15:25Z</time></trkpt><trkpt lat="43.60498291398502" lon="11.244571106602695"><ele>415.66666666666663</ele><time>2026-03-22T09:15:26Z</time></trkpt><trkpt lat="43.60492533759433" lon="11.244509390548478"><ele>412.0</ele><time>2026-03-22T09:15:27Z</time></trkpt><trkpt lat="43.60485606055917" lon="11.244410198437068"><ele>408.3333333333333</ele><time>2026-03-22T09:15:28Z</time></trkpt><trkpt lat="43.60480858461204" lon="11.24430393388466"><ele>404.66666666666663</ele><time>2026-03-22T09:15:29Z</time></trkpt><trkpt lat="43.604770497154185" lon="11.244186267447818"><ele>401.0</ele><time>2026-03-22T09:15:30Z</time></trkpt><trkpt lat="43.60473994803171" lon="11.244080131698986"><ele>398.0</ele><time>2026-03-22T09:15:31Z</time></trkpt><trkpt lat="43.60473407901128" lon="11.243905903185546"><ele>395.0</ele><time>2026-03-22T09:15:33Z</time></trkpt><trkpt lat="43.60470732319294" lon="11.243715586397244"><ele>392.0</ele><time>2026-03-22T09:15:35Z</time></trkpt><trkpt lat="43.60467294364317" lon="11.243628765870291"><ele>389.0</ele><time>2026-03-22T09:15:36Z</time></trkpt><trkpt lat="43.60462510438959" lon="11.243461123381554"><ele>388.99999999999994</ele><time>2026-03-22T09:15:38Z</time></trkpt><trkpt lat="43.60456879653912" lon="11.24338940409317"><ele>389.0</ele><time>2026-03-22T09:15:39Z</time></trkpt><trkpt lat="43.6045112176429" lon="11.243321541119514"><ele>389.0</ele><time>2026-03-22T09:15:40Z</time></trkpt><trkpt lat="43.60444323853639" lon="11.24323154466911"><ele>389.0</ele><time>2026-03-22T09:15:41Z</time></trkpt><trkpt lat="43.60438360182573" lon="11.24311772536666"><ele>388.99999999999994</ele><time>2026-03-22T09:15:42Z</time></trkpt><trkpt lat="43.60433004114521" lon="11.243013535029323"><ele>389.0</ele><time>2026-03-22T09:15:43Z</time></trkpt><trkpt lat="43.60427602309365" lon="11.242920430070182"><ele>389.6</ele><time>2026-03-22T09:15:44Z</time></trkpt><trkpt lat="43.604203540790586" lon="11.242858316013981"><ele>390.2</ele><time>2026-03-22T09:15:45Z</time></trkpt><trkpt lat="43.60411110415373" lon="11.24279098386115"><ele>390.8</ele><time>2026-03-22T09:15:46Z</time></trkpt><trkpt lat="43.60403026250017" lon="11.242707061734086"><ele>391.40000000000003</ele><time>2026-03-22T09:15:47Z</time></trkpt><trkpt lat="43.6039609271486" lon="11.24261587536576"><ele>392.0</ele><time>2026-03-22T09:15:48Z</time></trkpt><trkpt lat="43.60390754612449" lon="11.242554701664039"><ele>392.0</ele><time>2026-03-22T09:15:49Z</time></trkpt><trkpt lat="43.60381857550943" lon="11.242467006826821"><ele>392.0</ele><time>2026-03-22T09:15:51Z</time></trkpt><trkpt lat="43.603743384140955" lon="11.242447216666392"><ele>392.0</ele><time>2026-03-22T09:15:52Z</time></trkpt><trkpt lat="43.6036651010574" lon="11.242414669532891"><ele>392.0</ele><time>2026-03-22T09:15:53Z</time></trkpt><trkpt lat="43.60357866556517" lon="11.242375800696676"><ele>392.0</ele><time>2026-03-22T09:15:54Z</time></trkpt><trkpt lat="43.60348770316521" lon="11.242267989795694"><ele>390.0</ele><time>2026-03-22T09:15:56Z</time></trkpt><trkpt lat="43.60338542935532" lon="11.24222829600333"><ele>388.0</ele><time>2026-03-22T09:15:58Z</time></trkpt><trkpt lat="43.60325494976064" lon="11.242184578154303"><ele>386.0</ele><time>2026-03-22T09:16:38.999Z</time></trkpt><trkpt lat="43.60313254737678" lon="11.242104027127136"><ele>384.0</ele><time>2026-03-22T09:16:39.999Z</time></trkpt><trkpt lat="43.60298763819823" lon="11.242034771054207"><ele>383.3333333333333</ele><time>2026-03-22T09:16:40.999Z</time></trkpt><trkpt lat="43.602828681333506" lon="11.241993860199143"><ele>382.66666666666663</ele><time>2026-03-22T09:16:41.999Z</time></trkpt><trkpt lat="43.60263683463737" lon="11.241924390434457"><ele>382.0</ele><time>2026-03-22T09:16:42.999Z</time></trkpt><trkpt lat="43.60246296988387" lon="11.241859326981997"><ele>382.0</ele><time>2026-03-22T09:16:43.999Z</time></trkpt><trkpt lat="43.60230528941639" lon="11.241808036866036"><ele>382.0</ele><time>2026-03-22T09:16:44.999Z</time></trkpt><trkpt lat="43.60217112587733" lon="11.241754074889728"><ele>382.0</ele><time>2026-03-22T09:16:45.999Z</time></trkpt><trkpt lat="43.60204253826416" lon="11.241714229559175"><ele>382.0</ele><time>2026-03-22T09:16:46.999Z</time></trkpt><trkpt lat="43.60193256363449" lon="11.241687226096273"><ele>383.0</ele><time>2026-03-22T09:16:47.999Z</time></trkpt><trkpt lat="43.6018350063688" lon="11.241678746502473"><ele>384.0</ele><time>2026-03-22T09:16:48.999Z</time></trkpt><trkpt lat="43.60173187681715" lon="11.24167061181583"><ele>385.0</ele><time>2026-03-22T09:16:49.999Z</time></trkpt><trkpt lat="43.60162848627394" lon="11.241666416187222"><ele>386.0</ele><time>2026-03-22T09:16:50.999Z</time></trkpt><trkpt lat="43.60153224530704" lon="11.241669360391185"><ele>387.0</ele><time>2026-03-22T09:16:51.999Z</time></trkpt><trkpt lat="43.601461105034325" lon="11.241660790042578"><ele>387.0</ele><time>2026-03-22T09:16:52.999Z</time></trkpt><trkpt lat="43.601353035348836" lon="11.241681324121375"><ele>387.0</ele><time>2026-03-22T09:16:54.999Z</time></trkpt><trkpt lat="43.60130674069124" lon="11.241751320170842"><ele>387.0</ele><time>2026-03-22T09:16:56.999Z</time></trkpt><trkpt lat="43.60127008538112" lon="11.241919204875128"><ele>387.0</ele><time>2026-03-22T09:17:01.999Z</time></trkpt><trkpt lat="43.60124252646733" lon="11.24205282140173"><ele>387.0</ele><time>2026-03-22T09:17:03.999Z</time></trkpt><trkpt lat="43.601209303563095" lon="11.242215216923897"><ele>386.5</ele><time>2026-03-22T09:17:05.999Z</time></trkpt><trkpt lat="43.601188410748584" lon="11.242311199824554"><ele>386.0</ele><time>2026-03-22T09:17:06.999Z</time></trkpt><trkpt lat="43.60116696341558" lon="11.242409730176565"><ele>385.5</ele><time>2026-03-22T09:17:07.999Z</time></trkpt><trkpt lat="43.601148759951855" lon="11.242512313877752"><ele>385.0</ele><time>2026-03-22T09:17:08.999Z</time></trkpt><trkpt lat="43.601136458309306" lon="11.24262222214479"><ele>384.5</ele><time>2026-03-22T09:17:09.999Z</time></trkpt><trkpt lat="43.60113615004136" lon="11.24273310357802"><ele>384.0</ele><time>2026-03-22T09:17:10.999Z</time></trkpt><trkpt lat="43.60114328194766" lon="11.242910780888115"><ele>385.57142857142856</ele><time>2026-03-22T09:17:12.999Z</time></trkpt><trkpt lat="43.601166688616125" lon="11.243001905938694"><ele>387.1428571428571</ele><time>2026-03-22T09:17:13.999Z</time></trkpt><trkpt lat="43.60120773741363" lon="11.24307198658324"><ele>388.71428571428567</ele><time>2026-03-22T09:17:14.999Z</time></trkpt><trkpt lat="43.60124696559325" lon="11.24314143904545"><ele>390.2857142857143</ele><time>2026-03-22T09:17:15.999Z</time></trkpt><trkpt lat="43.60130514082567" lon="11.243207481589181"><ele>391.8571428571429</ele><time>2026-03-22T09:17:16.999Z</time></trkpt><trkpt lat="43.60136894510868" lon="11.24328571254589"><ele>393.4285714285714</ele><time>2026-03-22T09:17:17.999Z</time></trkpt><trkpt lat="43.60141383185929" lon="11.243381993345036"><ele>395.0</ele><time>2026-03-22T09:17:18.999Z</time></trkpt><trkpt lat="43.60146468563007" lon="11.243473711729743"><ele>395.99999999999994</ele><time>2026-03-22T09:17:19.999Z</time></trkpt><trkpt lat="43.601504605468804" lon="11.243562408017754"><ele>397.0</ele><time>2026-03-22T09:17:20.999Z</time></trkpt><trkpt lat="43.60155327093547" lon="11.243657395246398"><ele>398.0</ele><time>2026-03-22T09:17:21.999Z</time></trkpt><trkpt lat="43.60161680952046" lon="11.24375096945161"><ele>399.0</ele><time>2026-03-22T09:17:22.999Z</time></trkpt><trkpt lat="43.601677218660434" lon="11.243840772511772"><ele>399.99999999999994</ele><time>2026-03-22T09:17:23.999Z</time></trkpt><trkpt lat="43.60173466591923" lon="11.243935542126387"><ele>401.0</ele><time>2026-03-22T09:17:24.999Z</time></trkpt><trkpt lat="43.601772872991354" lon="11.244024582959167"><ele>402.49999999999994</ele><time>2026-03-22T09:17:26Z</time></trkpt><trkpt lat="43.60179801894515" lon="11.24410515149037"><ele>404.0</ele><time>2026-03-22T09:17:27Z</time></trkpt><trkpt lat="43.60181016707036" lon="11.244227425779725"><ele>405.5</ele><time>2026-03-22T09:17:29Z</time></trkpt><trkpt lat="43.601765435900376" lon="11.244311528662763"><ele>407.0</ele><time>2026-03-22T09:17:31Z</time></trkpt><trkpt lat="43.601670311027725" lon="11.244373064382808"><ele>408.49999999999994</ele><time>2026-03-22T09:17:33Z</time></trkpt><trkpt lat="43.60159485006945" lon="11.244433831765225"><ele>410.0</ele><time>2026-03-22T09:17:34Z</time></trkpt><trkpt lat="43.60151758553573" lon="11.24449421242802"><ele>409.99999999999994</ele><time>2026-03-22T09:17:35Z</time></trkpt><trkpt lat="43.60144094608585" lon="11.244554094995214"><ele>410.0</ele><time>2026-03-22T09:17:36Z</time></trkpt><trkpt lat="43.60136748617396" lon="11.244611493149552"><ele>410.0</ele><time>2026-03-22T09:17:37Z</time></trkpt><trkpt lat="43.60129880117208" lon="11.244665160436881"><ele>410.0</ele><time>2026-03-22T09:17:38Z</time></trkpt><trkpt lat="43.60123193788608" lon="11.244717404354963"><ele>409.99999999999994</ele><time>2026-03-22T09:17:39Z</time></trkpt><trkpt lat="43.60116169807523" lon="11.244772919611123"><ele>410.0</ele><time>2026-03-22T09:17:40Z</time></trkpt><trkpt lat="43.601097269199144" lon="11.244824328931124"><ele>407.99999999999994</ele><time>2026-03-22T09:17:41Z</time></trkpt><trkpt lat="43.60102942391386" lon="11.244880153271335"><ele>406.0</ele><time>2026-03-22T09:17:42Z</time></trkpt><trkpt lat="43.60096610248955" lon="11.244933385070826"><ele>404.0</ele><time>2026-03-22T09:17:43Z</time></trkpt><trkpt lat="43.60090190124692" lon="11.244988433882547"><ele>402.0</ele><time>2026-03-22T09:17:44Z</time></trkpt><trkpt lat="43.600825466871754" lon="11.245053971737494"><ele>399.99999999999994</ele><time>2026-03-22T09:17:45Z</time></trkpt><trkpt lat="43.60074562515009" lon="11.24512243113028"><ele>398.0</ele><time>2026-03-22T09:17:46Z</time></trkpt><trkpt lat="43.600676023273465" lon="11.245182110459332"><ele>397.99999999999994</ele><time>2026-03-22T09:17:47Z</time></trkpt><trkpt lat="43.6005913613227" lon="11.245254702974394"><ele>398.0</ele><time>2026-03-22T09:17:49Z</time></trkpt><trkpt lat="43.60052928474014" lon="11.245274208261575"><ele>398.0</ele><time>2026-03-22T09:17:53Z</time></trkpt><trkpt lat="43.60048066312186" lon="11.24514737929331"><ele>398.0</ele><time>2026-03-22T09:17:54Z</time></trkpt><trkpt lat="43.60044990310387" lon="11.245037832707302"><ele>397.99999999999994</ele><time>2026-03-22T09:17:55Z</time></trkpt><trkpt lat="43.60039594584023" lon="11.244936865640584"><ele>398.0</ele><time>2026-03-22T09:17:56Z</time></trkpt><trkpt lat="43.600325542586525" lon="11.244837333001016"><ele>395.3333333333333</ele><time>2026-03-22T09:17:57Z</time></trkpt><trkpt lat="43.60026388328317" lon="11.244731308746534"><ele>392.66666666666663</ele><time>2026-03-22T09:17:58Z</time></trkpt><trkpt lat="43.60020824751627" lon="11.244629962237235"><ele>390.0</ele><time>2026-03-22T09:17:59Z</time></trkpt><trkpt lat="43.60015807778703" lon="11.244544044168011"><ele>387.3333333333333</ele><time>2026-03-22T09:18:00Z</time></trkpt><trkpt lat="43.600105120091676" lon="11.244458941633766"><ele>384.66666666666663</ele><time>2026-03-22T09:18:01Z</time></trkpt><trkpt lat="43.6000504466655" lon="11.24437909974086"><ele>382.0</ele><time>2026-03-22T09:18:02Z</time></trkpt><trkpt lat="43.59998511486887" lon="11.244258906980026"><ele>382.0</ele><time>2026-03-22T09:18:04Z</time></trkpt><trkpt lat="43.599890070444644" lon="11.244228174691457"><ele>382.0</ele><time>2026-03-22T09:18:12Z</time></trkpt><trkpt lat="43.5997919641747" lon="11.244285220375353"><ele>382.0</ele><time>2026-03-22T09:18:14Z</time></trkpt><trkpt lat="43.59971326289843" lon="11.24435779179599"><ele>382.0</ele><time>2026-03-22T09:18:16Z</time></trkpt><trkpt lat="43.59962462532316" lon="11.244449110335575"><ele>382.0</ele><time>2026-03-22T09:18:18Z</time></trkpt><trkpt lat="43.59955636642273" lon="11.244483405900999"><ele>381.7142857142857</ele><time>2026-03-22T09:18:19Z</time></trkpt><trkpt lat="43.59948938543042" lon="11.244503881263528"><ele>381.4285714285714</ele><time>2026-03-22T09:18:20Z</time></trkpt><trkpt lat="43.599425381755935" lon="11.244521656884746"><ele>381.1428571428571</ele><time>2026-03-22T09:18:21Z</time></trkpt><trkpt lat="43.599350358358684" lon="11.244542922281674"><ele>380.8571428571429</ele><time>2026-03-22T09:18:22Z</time></trkpt><trkpt lat="43.59928695335184" lon="11.24459148479301"><ele>380.57142857142856</ele><time>2026-03-22T09:18:23Z</time></trkpt><trkpt lat="43.599222204780126" lon="11.244649739576161"><ele>380.2857142857143</ele><time>2026-03-22T09:18:25Z</time></trkpt><trkpt lat="43.59915562993947" lon="11.244661495078612"><ele>380.0</ele><time>2026-03-22T09:18:26.999Z</time></trkpt><trkpt lat="43.59909605030896" lon="11.244695634137507"><ele>380.0</ele><time>2026-03-22T09:18:28.999Z</time></trkpt><trkpt lat="43.5990190647175" lon="11.244694897440194"><ele>380.0</ele><time>2026-03-22T09:18:31.999Z</time></trkpt><trkpt lat="43.59892797833296" lon="11.24472071188484"><ele>380.0</ele><time>2026-03-22T09:18:34.999Z</time></trkpt><trkpt lat="43.598826889889914" lon="11.24480158032767"><ele>380.0</ele><time>2026-03-22T09:18:37.999Z</time></trkpt><trkpt lat="43.59876174589129" lon="11.24484625140314"><ele>380.0</ele><time>2026-03-22T09:18:38.999Z</time></trkpt><trkpt lat="43.59868138497177" lon="11.244872537022573"><ele>380.0</ele><time>2026-03-22T09:18:39.999Z</time></trkpt><trkpt lat="43.59861032334761" lon="11.24491985778217"><ele>377.6666666666667</ele><time>2026-03-22T09:18:40.999Z</time></trkpt><trkpt lat="43.5985456481118" lon="11.244993623807478"><ele>375.33333333333337</ele><time>2026-03-22T09:18:41.999Z</time></trkpt><trkpt lat="43.59848156915841" lon="11.245071499956165"><ele>373.0</ele><time>2026-03-22T09:18:42.999Z</time></trkpt><trkpt lat="43.59841278381742" lon="11.245149620634168"><ele>370.6666666666667</ele><time>2026-03-22T09:18:43.999Z</time></trkpt><trkpt lat="43.59834227530726" lon="11.245216721046642"><ele>368.3333333333333</ele><time>2026-03-22T09:18:44.999Z</time></trkpt><trkpt lat="43.5982651091382" lon="11.245287154739984"><ele>366.0</ele><time>2026-03-22T09:18:45.999Z</time></trkpt><trkpt lat="43.59819289594406" lon="11.245363510795839"><ele>366.0</ele><time>2026-03-22T09:18:46.999Z</time></trkpt><trkpt lat="43.598123552806236" lon="11.245459180160132"><ele>366.0</ele><time>2026-03-22T09:18:47.999Z</time></trkpt><trkpt lat="43.598050223005984" lon="11.24554570103704"><ele>366.0</ele><time>2026-03-22T09:18:48.999Z</time></trkpt><trkpt lat="43.597979459590775" lon="11.245630061728605"><ele>366.0</ele><time>2026-03-22T09:18:49.999Z</time></trkpt><trkpt lat="43.59791443079986" lon="11.245705397474936"><ele>366.0</ele><time>2026-03-22T09:18:50.999Z</time></trkpt><trkpt lat="43.59785233067246" lon="11.245771784786632"><ele>363.0</ele><time>2026-03-22T09:18:51.999Z</time></trkpt><trkpt lat="43.59780336460503" lon="11.245831647125012"><ele>360.0</ele><time>2026-03-22T09:18:52.999Z</time></trkpt><trkpt lat="43.597749706429525" lon="11.245910673322676"><ele>357.0</ele><time>2026-03-22T09:18:54.999Z</time></trkpt><trkpt lat="43.597709991171726" lon="11.246024245369492"><ele>354.0</ele><time>2026-03-22T09:18:59.999Z</time></trkpt><trkpt lat="43.597683670985276" lon="11.246109854162883"><ele>351.0</ele><time>2026-03-22T09:19:03.999Z</time></trkpt><trkpt lat="43.59761171835903" lon="11.24610179482593"><ele>348.0</ele><time>2026-03-22T09:19:07.999Z</time></trkpt><trkpt lat="43.59750253963695" lon="11.24601013908034"><ele>348.0</ele><time>2026-03-22T09:19:09.999Z</time></trkpt><trkpt lat="43.597423744368186" lon="11.245966221333742"><ele>348.0</ele><time>2026-03-22T09:19:10.999Z</time></trkpt><trkpt lat="43.597355013737044" lon="11.24592481606166"><ele>348.0</ele><time>2026-03-22T09:19:11.999Z</time></trkpt><trkpt lat="43.59730272633153" lon="11.245864980325718"><ele>348.0</ele><time>2026-03-22T09:19:12.999Z</time></trkpt><trkpt lat="43.597253324468014" lon="11.245792920892686"><ele>348.0</ele><time>2026-03-22T09:19:13.999Z</time></trkpt><trkpt lat="43.597190357108836" lon="11.245722442665855"><ele>348.0</ele><time>2026-03-22T09:19:14.999Z</time></trkpt><trkpt lat="43.59712282234572" lon="11.245660573190623"><ele>348.3333333333333</ele><time>2026-03-22T09:19:15.999Z</time></trkpt><trkpt lat="43.59706473914325" lon="11.245601940307584"><ele>348.6666666666667</ele><time>2026-03-22T09:19:16.999Z</time></trkpt><trkpt lat="43.59700465443539" lon="11.245530062619892"><ele>349.0</ele><time>2026-03-22T09:19:17.999Z</time></trkpt><trkpt lat="43.596957895478305" lon="11.245463539654633"><ele>349.33333333333337</ele><time>2026-03-22T09:19:18.999Z</time></trkpt><trkpt lat="43.596911645972305" lon="11.245378392091979"><ele>349.6666666666667</ele><time>2026-03-22T09:19:19.999Z</time></trkpt><trkpt lat="43.59687284702252" lon="11.24526595209241"><ele>350.0</ele><time>2026-03-22T09:19:20.999Z</time></trkpt><trkpt lat="43.596846408868664" lon="11.24514295850692"><ele>348.5</ele><time>2026-03-22T09:19:21.999Z</time></trkpt><trkpt lat="43.596824633738585" lon="11.245038427542566"><ele>347.0</ele><time>2026-03-22T09:19:22.999Z</time></trkpt><trkpt lat="43.59680218661256" lon="11.244947237524539"><ele>345.5</ele><time>2026-03-22T09:19:23.999Z</time></trkpt><trkpt lat="43.59678602131423" lon="11.244856550685961"><ele>344.0</ele><time>2026-03-22T09:19:24.999Z</time></trkpt><trkpt lat="43.596768879454814" lon="11.244746164831339"><ele>342.5</ele><time>2026-03-22T09:19:25.999Z</time></trkpt><trkpt lat="43.59675141545279" lon="11.244627763714247"><ele>341.0</ele><time>2026-03-22T09:19:26.999Z</time></trkpt><trkpt lat="43.59673683849887" lon="11.24453139536343"><ele>340.0</ele><time>2026-03-22T09:19:27.999Z</time></trkpt><trkpt lat="43.596721044837814" lon="11.244418711964418"><ele>339.0</ele><time>2026-03-22T09:19:28.999Z</time></trkpt><trkpt lat="43.59670140054356" lon="11.24431357660777"><ele>338.0</ele><time>2026-03-22T09:19:29.999Z</time></trkpt><trkpt lat="43.596684878489455" lon="11.244211708739057"><ele>337.0</ele><time>2026-03-22T09:19:30.998Z</time></trkpt><trkpt lat="43.59666759358197" lon="11.244107964112168"><ele>336.0</ele><time>2026-03-22T09:19:32Z</time></trkpt><trkpt lat="43.59665494818233" lon="11.244008872062302"><ele>335.0</ele><time>2026-03-22T09:19:33Z</time></trkpt><trkpt lat="43.59663541729458" lon="11.243898073453783"><ele>334.1666666666667</ele><time>2026-03-22T09:19:34Z</time></trkpt><trkpt lat="43.596615091984766" lon="11.243785774122268"><ele>333.33333333333337</ele><time>2026-03-22T09:19:35Z</time></trkpt><trkpt lat="43.59659443497633" lon="11.243670714174113"><ele>332.5</ele><time>2026-03-22T09:19:36Z</time></trkpt><trkpt lat="43.596573408017065" lon="11.243570442358365"><ele>331.6666666666667</ele><time>2026-03-22T09:19:37Z</time></trkpt><trkpt lat="43.596552907151114" lon="11.243462972601833"><ele>330.8333333333333</ele><time>2026-03-22T09:19:38Z</time></trkpt><trkpt lat="43.59653394585196" lon="11.243350722545484"><ele>330.0</ele><time>2026-03-22T09:19:39Z</time></trkpt><trkpt lat="43.59651240565479" lon="11.243219930575696"><ele>329.6</ele><time>2026-03-22T09:19:40Z</time></trkpt><trkpt lat="43.596493274752625" lon="11.243093865002026"><ele>329.2</ele><time>2026-03-22T09:19:41Z</time></trkpt><trkpt lat="43.596469544415505" lon="11.24295865477979"><ele>328.79999999999995</ele><time>2026-03-22T09:19:42Z</time></trkpt><trkpt lat="43.596453126253934" lon="11.242845111919406"><ele>328.4</ele><time>2026-03-22T09:19:43Z</time></trkpt><trkpt lat="43.596433983975764" lon="11.242731258986842"><ele>328.0</ele><time>2026-03-22T09:19:44Z</time></trkpt><trkpt lat="43.59640753972735" lon="11.242608428225443"><ele>328.0</ele><time>2026-03-22T09:19:45Z</time></trkpt><trkpt lat="43.596382928674856" lon="11.242489933248457"><ele>328.0</ele><time>2026-03-22T09:19:46Z</time></trkpt><trkpt lat="43.596353948207714" lon="11.242351155778163"><ele>328.0</ele><time>2026-03-22T09:19:47Z</time></trkpt><trkpt lat="43.59632372146377" lon="11.242222316111528"><ele>328.0</ele><time>2026-03-22T09:19:48Z</time></trkpt><trkpt lat="43.596302239706006" lon="11.242105237911694"><ele>328.0</ele><time>2026-03-22T09:19:49Z</time></trkpt><trkpt lat="43.59628377597625" lon="11.242002350853834"><ele>327.66666666666663</ele><time>2026-03-22T09:19:50Z</time></trkpt><trkpt lat="43.596255945715924" lon="11.241898003533972"><ele>327.3333333333333</ele><time>2026-03-22T09:19:51Z</time></trkpt><trkpt lat="43.59622958827098" lon="11.24178634095962"><ele>327.0</ele><time>2026-03-22T09:19:52Z</time></trkpt><trkpt lat="43.59621139956257" lon="11.241691556044373"><ele>326.6666666666667</ele><time>2026-03-22T09:19:53Z</time></trkpt><trkpt lat="43.596201410422125" lon="11.241600988810045"><ele>326.33333333333337</ele><time>2026-03-22T09:19:54Z</time></trkpt><trkpt lat="43.596185521284546" lon="11.241502563391863"><ele>326.0</ele><time>2026-03-22T09:19:55Z</time></trkpt><trkpt lat="43.59616089324745" lon="11.241392785232906"><ele>324.6666666666667</ele><time>2026-03-22T09:19:56Z</time></trkpt><trkpt lat="43.596137407886914" lon="11.241296485379408"><ele>323.33333333333337</ele><time>2026-03-22T09:19:57Z</time></trkpt><trkpt lat="43.59611016336869" lon="11.24117799978061"><ele>322.0</ele><time>2026-03-22T09:19:58Z</time></trkpt><trkpt lat="43.59608522936738" lon="11.241068840283827"><ele>320.6666666666667</ele><time>2026-03-22T09:19:59Z</time></trkpt><trkpt lat="43.59606320141801" lon="11.240957620090034"><ele>319.3333333333333</ele><time>2026-03-22T09:20:00Z</time></trkpt><trkpt lat="43.59605049781134" lon="11.24083960418788"><ele>318.0</ele><time>2026-03-22T09:20:01Z</time></trkpt><trkpt lat="43.59604285009058" lon="11.240724839385"><ele>317.0</ele><time>2026-03-22T09:20:02Z</time></trkpt><trkpt lat="43.59603630865979" lon="11.240622297737044"><ele>316.0</ele><time>2026-03-22T09:20:03Z</time></trkpt><trkpt lat="43.59603678844174" lon="11.240522015592811"><ele>315.0</ele><time>2026-03-22T09:20:04Z</time></trkpt><trkpt lat="43.596043911731684" lon="11.240398787963981"><ele>314.0</ele><time>2026-03-22T09:20:06Z</time></trkpt><trkpt lat="43.59602548258173" lon="11.24026793209528"><ele>313.0</ele><time>2026-03-22T09:20:08Z</time></trkpt><trkpt lat="43.59598146036789" lon="11.240114753436156"><ele>313.0</ele><time>2026-03-22T09:20:10Z</time></trkpt><trkpt lat="43.59596546245964" lon="11.240012505440701"><ele>313.0</ele><time>2026-03-22T09:20:11Z</time></trkpt><trkpt lat="43.59595398248905" lon="11.239877077738008"><ele>313.0</ele><time>2026-03-22T09:20:12Z</time></trkpt><trkpt lat="43.595953381118775" lon="11.239732957631595"><ele>313.0</ele><time>2026-03-22T09:20:13Z</time></trkpt><trkpt lat="43.59594319004026" lon="11.239577657911362"><ele>313.0</ele><time>2026-03-22T09:20:14Z</time></trkpt><trkpt lat="43.59592665098913" lon="11.239431783612767"><ele>312.4</ele><time>2026-03-22T09:20:15Z</time></trkpt><trkpt lat="43.595917416323324" lon="11.239288704673644"><ele>311.8</ele><time>2026-03-22T09:20:16Z</time></trkpt><trkpt lat="43.595901025063114" lon="11.239146034679438"><ele>311.2</ele><time>2026-03-22T09:20:17Z</time></trkpt><trkpt lat="43.59588464816612" lon="11.239011352890467"><ele>310.6</ele><time>2026-03-22T09:20:18Z</time></trkpt><trkpt lat="43.59586142202524" lon="11.238868486775015"><ele>310.0</ele><time>2026-03-22T09:20:19Z</time></trkpt><trkpt lat="43.595841509820005" lon="11.238754141486705"><ele>309.66666666666663</ele><time>2026-03-22T09:20:20Z</time></trkpt><trkpt lat="43.595820333070506" lon="11.238662373786358"><ele>309.3333333333333</ele><time>2026-03-22T09:20:21Z</time></trkpt><trkpt lat="43.59576112658091" lon="11.238563143816533"><ele>309.0</ele><time>2026-03-22T09:20:23Z</time></trkpt><trkpt lat="43.5956713140676" lon="11.238515087708947"><ele>308.6666666666667</ele><time>2026-03-22T09:20:25Z</time></trkpt><trkpt lat="43.59560112350218" lon="11.23843479679653"><ele>308.33333333333337</ele><time>2026-03-22T09:20:27Z</time></trkpt><trkpt lat="43.595572445071625" lon="11.238313624539705"><ele>308.0</ele><time>2026-03-22T09:20:28Z</time></trkpt><trkpt lat="43.595530516122366" lon="11.238194444802208"><ele>307.5</ele><time>2026-03-22T09:20:29Z</time></trkpt><trkpt lat="43.5954826281965" lon="11.238089932474132"><ele>307.0</ele><time>2026-03-22T09:20:30Z</time></trkpt><trkpt lat="43.595435356982684" lon="11.23798730145436"><ele>306.5</ele><time>2026-03-22T09:20:31Z</time></trkpt><trkpt lat="43.59539436998087" lon="11.237891124056706"><ele>306.0</ele><time>2026-03-22T09:20:32Z</time></trkpt><trkpt lat="43.59535214981911" lon="11.237786329597244"><ele>305.5</ele><time>2026-03-22T09:20:32.999Z</time></trkpt><trkpt lat="43.59528726440338" lon="11.237679360236893"><ele>305.0</ele><time>2026-03-22T09:20:33.999Z</time></trkpt><trkpt lat="43.59523830648423" lon="11.237612036836016"><ele>307.1666666666667</ele><time>2026-03-22T09:20:34.999Z</time></trkpt><trkpt lat="43.59521142135377" lon="11.237521031705882"><ele>309.33333333333337</ele><time>2026-03-22T09:20:35.999Z</time></trkpt><trkpt lat="43.59519543342948" lon="11.237404620308235"><ele>311.5</ele><time>2026-03-22T09:20:36.999Z</time></trkpt><trkpt lat="43.59517044648235" lon="11.237301972440505"><ele>313.6666666666667</ele><time>2026-03-22T09:20:37.999Z</time></trkpt><trkpt lat="43.59513796489799" lon="11.237222859836494"><ele>315.8333333333333</ele><time>2026-03-22T09:20:38.999Z</time></trkpt><trkpt lat="43.595076780137006" lon="11.237119407680076"><ele>318.0</ele><time>2026-03-22T09:20:40.999Z</time></trkpt><trkpt lat="43.59497493335526" lon="11.237066941674012"><ele>318.0</ele><time>2026-03-22T09:20:42.999Z</time></trkpt><trkpt lat="43.59489833204874" lon="11.237043273860902"><ele>318.0</ele><time>2026-03-22T09:20:43.999Z</time></trkpt><trkpt lat="43.59480316249768" lon="11.236989235521168"><ele>318.0</ele><time>2026-03-22T09:20:44.999Z</time></trkpt><trkpt lat="43.594702481220175" lon="11.236917962365876"><ele>318.0</ele><time>2026-03-22T09:20:45.999Z</time></trkpt><trkpt lat="43.59461478217406" lon="11.236860544105134"><ele>318.0</ele><time>2026-03-22T09:20:46.999Z</time></trkpt><trkpt lat="43.59454098136427" lon="11.236813675860443"><ele>319.2</ele><time>2026-03-22T09:20:47.999Z</time></trkpt><trkpt lat="43.59445196469997" lon="11.236755318508328"><ele>320.4</ele><time>2026-03-22T09:20:48.999Z</time></trkpt><trkpt lat="43.594387678575345" lon="11.236711070076487"><ele>321.59999999999997</ele><time>2026-03-22T09:20:49.999Z</time></trkpt><trkpt lat="43.594322407299146" lon="11.236642632949215"><ele>322.8</ele><time>2026-03-22T09:20:57.999Z</time></trkpt><trkpt lat="43.59436001857141" lon="11.236448081505433"><ele>324.0</ele><time>2026-03-22T09:20:59.999Z</time></trkpt><trkpt lat="43.594387680899885" lon="11.236328730829573"><ele>324.0</ele><time>2026-03-22T09:21:01.999Z</time></trkpt><trkpt lat="43.594295489499366" lon="11.236430475163262"><ele>324.0</ele><time>2026-03-22T09:21:07.999Z</time></trkpt><trkpt lat="43.59428736739616" lon="11.236517644605868"><ele>324.0</ele><time>2026-03-22T09:21:08.999Z</time></trkpt><trkpt lat="43.59427332827256" lon="11.23661405291012"><ele>324.0</ele><time>2026-03-22T09:21:09.999Z</time></trkpt><trkpt lat="43.59426359117059" lon="11.23671542444476"><ele>324.0</ele><time>2026-03-22T09:21:10.999Z</time></trkpt><trkpt lat="43.59425342872803" lon="11.236818097567786"><ele>324.0</ele><time>2026-03-22T09:21:11.999Z</time></trkpt><trkpt lat="43.59424400175878" lon="11.2369142443396"><ele>324.5</ele><time>2026-03-22T09:21:12.999Z</time></trkpt><trkpt lat="43.59423690021512" lon="11.237009872434392"><ele>325.0</ele><time>2026-03-22T09:21:13.999Z</time></trkpt><trkpt lat="43.59421941399716" lon="11.237135185412045"><ele>325.5</ele><time>2026-03-22T09:21:15.999Z</time></trkpt><trkpt lat="43.59422115710592" lon="11.237251739066654"><ele>326.0</ele><time>2026-03-22T09:21:19.999Z</time></trkpt><trkpt lat="43.59427370005109" lon="11.237343428328892"><ele>326.5</ele><time>2026-03-22T09:21:22.999Z</time></trkpt><trkpt lat="43.59430317670029" lon="11.237432558921963"><ele>327.0</ele><time>2026-03-22T09:21:24.999Z</time></trkpt><trkpt lat="43.59432526360009" lon="11.237551987121751"><ele>327.6666666666667</ele><time>2026-03-22T09:21:25.999Z</time></trkpt><trkpt lat="43.594348919487786" lon="11.237683679472042"><ele>328.3333333333333</ele><time>2026-03-22T09:21:26.999Z</time></trkpt><trkpt lat="43.59437591683585" lon="11.23779534703661"><ele>329.0</ele><time>2026-03-22T09:21:27.999Z</time></trkpt><trkpt lat="43.59439672385232" lon="11.237894984765843"><ele>329.66666666666663</ele><time>2026-03-22T09:21:28.999Z</time></trkpt><trkpt lat="43.59441578717437" lon="11.237979283442344"><ele>330.3333333333333</ele><time>2026-03-22T09:21:29.999Z</time></trkpt><trkpt lat="43.594427288769865" lon="11.238079135874584"><ele>331.0</ele><time>2026-03-22T09:21:33.999Z</time></trkpt><trkpt lat="43.59446957257618" lon="11.238179132525458"><ele>329.20000000000005</ele><time>2026-03-22T09:21:35.999Z</time></trkpt><trkpt lat="43.594545682500005" lon="11.238329640680577"><ele>327.40000000000003</ele><time>2026-03-22T09:21:38Z</time></trkpt><trkpt lat="43.59459752951979" lon="11.238429530398689"><ele>325.6</ele><time>2026-03-22T09:21:39Z</time></trkpt><trkpt lat="43.59465188123548" lon="11.23854158759379"><ele>323.8</ele><time>2026-03-22T09:21:40Z</time></trkpt><trkpt lat="43.59468589379689" lon="11.238678817354515"><ele>322.0</ele><time>2026-03-22T09:21:41Z</time></trkpt><trkpt lat="43.59469379035253" lon="11.238846089489025"><ele>323.0</ele><time>2026-03-22T09:21:42Z</time></trkpt><trkpt lat="43.59470489141906" lon="11.239036064149532"><ele>324.0</ele><time>2026-03-22T09:21:43Z</time></trkpt><trkpt lat="43.594716442785625" lon="11.239270958550076"><ele>325.0</ele><time>2026-03-22T09:21:44Z</time></trkpt><trkpt lat="43.59472847812711" lon="11.239484484620418"><ele>325.0</ele><time>2026-03-22T09:21:45Z</time></trkpt><trkpt lat="43.59474586399232" lon="11.23966701150779"><ele>325.0</ele><time>2026-03-22T09:21:46Z</time></trkpt><trkpt lat="43.59476670380243" lon="11.239842659191247"><ele>325.0</ele><time>2026-03-22T09:21:47Z</time></trkpt><trkpt lat="43.59479680023239" lon="11.24003787549161"><ele>325.0</ele><time>2026-03-22T09:21:48Z</time></trkpt><trkpt lat="43.59483243784939" lon="11.240260560717738"><ele>326.0</ele><time>2026-03-22T09:21:49Z</time></trkpt><trkpt lat="43.59485056587594" lon="11.240498272503732"><ele>327.0</ele><time>2026-03-22T09:21:50Z</time></trkpt><trkpt lat="43.594860481691136" lon="11.240709065337226"><ele>328.0</ele><time>2026-03-22T09:21:51Z</time></trkpt><trkpt lat="43.59487448646388" lon="11.240895119323149"><ele>329.2</ele><time>2026-03-22T09:21:52Z</time></trkpt><trkpt lat="43.59488386723195" lon="11.241071011898935"><ele>330.4</ele><time>2026-03-22T09:21:53Z</time></trkpt><trkpt lat="43.59488583080092" lon="11.24123649941005"><ele>331.59999999999997</ele><time>2026-03-22T09:21:54Z</time></trkpt><trkpt lat="43.59487621534012" lon="11.24137963044142"><ele>332.79999999999995</ele><time>2026-03-22T09:21:55Z</time></trkpt><trkpt lat="43.594852372385745" lon="11.241504471137477"><ele>334.0</ele><time>2026-03-22T09:21:56Z</time></trkpt><trkpt lat="43.594823050450735" lon="11.241622604336737"><ele>334.79999999999995</ele><time>2026-03-22T09:21:57Z</time></trkpt><trkpt lat="43.59478327152507" lon="11.241769963253445"><ele>335.59999999999997</ele><time>2026-03-22T09:21:58Z</time></trkpt><trkpt lat="43.59474468882651" lon="11.241899421019529"><ele>336.4</ele><time>2026-03-22T09:21:59Z</time></trkpt><trkpt lat="43.5947079723777" lon="11.242016434736405"><ele>337.2</ele><time>2026-03-22T09:22:00Z</time></trkpt><trkpt lat="43.59466785462075" lon="11.242116936026553"><ele>338.0</ele><time>2026-03-22T09:22:01Z</time></trkpt><trkpt lat="43.59462615091431" lon="11.24220142307765"><ele>335.0</ele><time>2026-03-22T09:22:02Z</time></trkpt><trkpt lat="43.59414560290623" lon="11.24203246879231"><ele>335.0</ele><time>2026-03-22T09:22:03Z</time></trkpt><trkpt lat="43.594012714047786" lon="11.242102080512812"><ele>335.0</ele><time>2026-03-22T09:22:04Z</time></trkpt><trkpt lat="43.5938585431302" lon="11.242185633572603"><ele>335.0</ele><time>2026-03-22T09:22:05Z</time></trkpt><trkpt lat="43.59373637954383" lon="11.242247961755751"><ele>335.0</ele><time>2026-03-22T09:22:06Z</time></trkpt><trkpt lat="43.59362832956038" lon="11.242296516713804"><ele>334.8</ele><time>2026-03-22T09:22:07Z</time></trkpt><trkpt lat="43.593521995463234" lon="11.242345682066855"><ele>334.6</ele><time>2026-03-22T09:22:08Z</time></trkpt><trkpt lat="43.59342903618041" lon="11.242386847284857"><ele>334.4</ele><time>2026-03-22T09:22:09Z</time></trkpt><trkpt lat="43.593357719532335" lon="11.24240962784669"><ele>334.2</ele><time>2026-03-22T09:22:10Z</time></trkpt><trkpt lat="43.59326333133194" lon="11.242368594566855"><ele>334.0</ele><time>2026-03-22T09:22:12Z</time></trkpt><trkpt lat="43.593229049662646" lon="11.242280261543215"><ele>334.0</ele><time>2026-03-22T09:22:13Z</time></trkpt><trkpt lat="43.593196275933394" lon="11.24216478326913"><ele>334.0</ele><time>2026-03-22T09:22:14Z</time></trkpt><trkpt lat="43.59316342358081" lon="11.242047531777821"><ele>334.0</ele><time>2026-03-22T09:22:15Z</time></trkpt><trkpt lat="43.59312399703715" lon="11.241926552153744"><ele>334.0</ele><time>2026-03-22T09:22:16Z</time></trkpt><trkpt lat="43.593073025513604" lon="11.24179706690421"><ele>334.0</ele><time>2026-03-22T09:22:17Z</time></trkpt><trkpt lat="43.5930148326551" lon="11.241675871011799"><ele>334.0</ele><time>2026-03-22T09:22:18Z</time></trkpt><trkpt lat="43.592961753048456" lon="11.241576613816674"><ele>334.0</ele><time>2026-03-22T09:22:19Z</time></trkpt><trkpt lat="43.592908014595864" lon="11.24146465552126"><ele>334.0</ele><time>2026-03-22T09:22:20Z</time></trkpt><trkpt lat="43.59287083746622" lon="11.241391537159277"><ele>334.0</ele><time>2026-03-22T09:22:21Z</time></trkpt><trkpt lat="43.592834891397494" lon="11.24131144120123"><ele>334.0</ele><time>2026-03-22T09:22:22Z</time></trkpt><trkpt lat="43.59279805685594" lon="11.2412305075149"><ele>334.0</ele><time>2026-03-22T09:22:23Z</time></trkpt><trkpt lat="43.592756035175675" lon="11.241130274799865"><ele>329.8</ele><time>2026-03-22T09:22:24Z</time></trkpt><trkpt lat="43.59271187453978" lon="11.241022419991674"><ele>325.59999999999997</ele><time>2026-03-22T09:22:25Z</time></trkpt><trkpt lat="43.59266941391755" lon="11.24092339160335"><ele>321.4</ele><time>2026-03-22T09:22:26Z</time></trkpt><trkpt lat="43.592623358351474" lon="11.240811190619626"><ele>317.2</ele><time>2026-03-22T09:22:27Z</time></trkpt><trkpt lat="43.592585914860145" lon="11.240710707279552"><ele>313.0</ele><time>2026-03-22T09:22:28Z</time></trkpt><trkpt lat="43.592533223962306" lon="11.240591184660095"><ele>311.0</ele><time>2026-03-22T09:22:29Z</time></trkpt><trkpt lat="43.59249088133808" lon="11.24048729291491"><ele>309.0</ele><time>2026-03-22T09:22:30Z</time></trkpt><trkpt lat="43.59244612946405" lon="11.240379223484908"><ele>307.0</ele><time>2026-03-22T09:22:31Z</time></trkpt><trkpt lat="43.59240420372219" lon="11.24028027723074"><ele>305.0</ele><time>2026-03-22T09:22:32Z</time></trkpt><trkpt lat="43.5923639381085" lon="11.240178310962065"><ele>303.0</ele><time>2026-03-22T09:22:33Z</time></trkpt><trkpt lat="43.592322272536045" lon="11.240077032058414"><ele>301.0</ele><time>2026-03-22T09:22:34Z</time></trkpt><trkpt lat="43.592284751105005" lon="11.23999705977297"><ele>301.0</ele><time>2026-03-22T09:22:35Z</time></trkpt><trkpt lat="43.59224126831395" lon="11.239902733477049"><ele>301.0</ele><time>2026-03-22T09:22:36Z</time></trkpt><trkpt lat="43.59220017230249" lon="11.239801845271787"><ele>301.0</ele><time>2026-03-22T09:22:36.999Z</time></trkpt><trkpt lat="43.59215890238214" lon="11.239687826832535"><ele>301.0</ele><time>2026-03-22T09:22:37.999Z</time></trkpt><trkpt lat="43.59211607278344" lon="11.239577400735511"><ele>301.0</ele><time>2026-03-22T09:22:38.999Z</time></trkpt><trkpt lat="43.592084633367065" lon="11.239472277783092"><ele>301.0</ele><time>2026-03-22T09:22:39.999Z</time></trkpt><trkpt lat="43.592057638629534" lon="11.239363517443769"><ele>299.3333333333333</ele><time>2026-03-22T09:22:40.999Z</time></trkpt><trkpt lat="43.592027832442206" lon="11.239250365201539"><ele>297.66666666666663</ele><time>2026-03-22T09:22:41.999Z</time></trkpt><trkpt lat="43.59200758258044" lon="11.239157287462772"><ele>296.0</ele><time>2026-03-22T09:22:42.999Z</time></trkpt><trkpt lat="43.591985733937676" lon="11.239039600078861"><ele>294.3333333333333</ele><time>2026-03-22T09:22:43.999Z</time></trkpt><trkpt lat="43.59196048092897" lon="11.238905469258373"><ele>292.6666666666667</ele><time>2026-03-22T09:22:44.999Z</time></trkpt><trkpt lat="43.59193393992209" lon="11.238822391809423"><ele>291.0</ele><time>2026-03-22T09:22:45.999Z</time></trkpt><trkpt lat="43.59190322404681" lon="11.238739457577656"><ele>290.5</ele><time>2026-03-22T09:22:46.999Z</time></trkpt><trkpt lat="43.59187687701227" lon="11.23862718521583"><ele>290.0</ele><time>2026-03-22T09:22:47.999Z</time></trkpt><trkpt lat="43.591860394788846" lon="11.23851915102441"><ele>289.5</ele><time>2026-03-22T09:22:48.999Z</time></trkpt><trkpt lat="43.59184443206829" lon="11.238409989678127"><ele>289.0</ele><time>2026-03-22T09:22:49.999Z</time></trkpt><trkpt lat="43.59182850557861" lon="11.238306581076657"><ele>288.5</ele><time>2026-03-22T09:22:50.999Z</time></trkpt><trkpt lat="43.59180097512762" lon="11.238157913764415"><ele>288.0</ele><time>2026-03-22T09:22:52.999Z</time></trkpt><trkpt lat="43.59174978732453" lon="11.238092802402175"><ele>288.00000000000006</ele><time>2026-03-22T09:23:12.999Z</time></trkpt><trkpt lat="43.591674829652916" lon="11.238123688854719"><ele>288.0</ele><time>2026-03-22T09:23:17.999Z</time></trkpt><trkpt lat="43.591608768839805" lon="11.238074868542306"><ele>288.0</ele><time>2026-03-22T09:23:20.999Z</time></trkpt><trkpt lat="43.591571983978994" lon="11.237995325190179"><ele>288.0</ele><time>2026-03-22T09:23:22.999Z</time></trkpt><trkpt lat="43.59155240674284" lon="11.23790700679736"><ele>288.0</ele><time>2026-03-22T09:23:24.999Z</time></trkpt><trkpt lat="43.59150384699747" lon="11.237795693565213"><ele>288.00000000000006</ele><time>2026-03-22T09:23:31.999Z</time></trkpt><trkpt lat="43.591456050470626" lon="11.237731714280415"><ele>288.0</ele><time>2026-03-22T09:23:33.999Z</time></trkpt><trkpt lat="43.591397240549355" lon="11.23768074456213"><ele>288.0</ele><time>2026-03-22T09:23:35.999Z</time></trkpt><trkpt lat="43.5913439388634" lon="11.237623749849764"><ele>288.0</ele><time>2026-03-22T09:23:38.999Z</time></trkpt><trkpt lat="43.59126744295854" lon="11.237607092855118"><ele>288.0</ele><time>2026-03-22T09:23:41.998Z</time></trkpt><trkpt lat="43.59119421542603" lon="11.237568611783832"><ele>288.0</ele><time>2026-03-22T09:23:45Z</time></trkpt><trkpt lat="43.59113212897802" lon="11.237495713506743"><ele>288.0</ele><time>2026-03-22T09:23:47Z</time></trkpt><trkpt lat="43.591080122467574" lon="11.237381383820017"><ele>288.0</ele><time>2026-03-22T09:23:49Z</time></trkpt><trkpt lat="43.5910360930578" lon="11.237273092500375"><ele>288.6666666666667</ele><time>2026-03-22T09:23:51Z</time></trkpt><trkpt lat="43.59099450745506" lon="11.237196829944757"><ele>289.3333333333333</ele><time>2026-03-22T09:23:54Z</time></trkpt><trkpt lat="43.59098271191367" lon="11.237323716412627"><ele>290.0</ele><time>2026-03-22T09:23:57Z</time></trkpt><trkpt lat="43.59100801155687" lon="11.237414721586697"><ele>290.66666666666663</ele><time>2026-03-22T09:23:59Z</time></trkpt><trkpt lat="43.591001844852585" lon="11.237541929285976"><ele>291.3333333333333</ele><time>2026-03-22T09:24:02Z</time></trkpt><trkpt lat="43.59098576667974" lon="11.237681022060737"><ele>292.0</ele><time>2026-03-22T09:24:04Z</time></trkpt><trkpt lat="43.59097390288538" lon="11.237856522090965"><ele>292.6</ele><time>2026-03-22T09:24:06Z</time></trkpt><trkpt lat="43.59095821105239" lon="11.23795853694142"><ele>293.2</ele><time>2026-03-22T09:24:07Z</time></trkpt><trkpt lat="43.590913302885276" lon="11.238120142193097"><ele>293.8</ele><time>2026-03-22T09:24:09Z</time></trkpt><trkpt lat="43.590899779302354" lon="11.23823401576445"><ele>294.4</ele><time>2026-03-22T09:24:10Z</time></trkpt><trkpt lat="43.5908910680066" lon="11.238342228907467"><ele>295.0</ele><time>2026-03-22T09:24:11Z</time></trkpt><trkpt lat="43.590867239746046" lon="11.238530485967996"><ele>295.3333333333333</ele><time>2026-03-22T09:24:13Z</time></trkpt><trkpt lat="43.59084753846144" lon="11.23864896117673"><ele>295.66666666666663</ele><time>2026-03-22T09:24:14Z</time></trkpt><trkpt lat="43.590825577886015" lon="11.238747770614665"><ele>296.0</ele><time>2026-03-22T09:24:15Z</time></trkpt><trkpt lat="43.59080688268477" lon="11.23885049237669"><ele>296.3333333333333</ele><time>2026-03-22T09:24:16Z</time></trkpt><trkpt lat="43.59079550041322" lon="11.238969651356495"><ele>296.6666666666667</ele><time>2026-03-22T09:24:17Z</time></trkpt><trkpt lat="43.590780371467574" lon="11.23908230621529"><ele>297.0</ele><time>2026-03-22T09:24:18Z</time></trkpt><trkpt lat="43.59075487211569" lon="11.239177201358451"><ele>297.6</ele><time>2026-03-22T09:24:19Z</time></trkpt><trkpt lat="43.59069041088146" lon="11.23925927040013"><ele>298.2</ele><time>2026-03-22T09:24:21Z</time></trkpt><trkpt lat="43.590577925610916" lon="11.23933503692477"><ele>298.8</ele><time>2026-03-22T09:24:23Z</time></trkpt><trkpt lat="43.59050585100884" lon="11.2394202342099"><ele>299.4</ele><time>2026-03-22T09:24:24Z</time></trkpt><trkpt lat="43.590441157106305" lon="11.23951709465849"><ele>300.0</ele><time>2026-03-22T09:24:25Z</time></trkpt><trkpt lat="43.59039341024703" lon="11.23957712134222"><ele>299.8333333333333</ele><time>2026-03-22T09:24:26Z</time></trkpt><trkpt lat="43.59033634666353" lon="11.23962738024154"><ele>299.6666666666667</ele><time>2026-03-22T09:24:27Z</time></trkpt><trkpt lat="43.590289102581046" lon="11.23975458366224"><ele>299.5</ele><time>2026-03-22T09:24:29Z</time></trkpt><trkpt lat="43.590293121843985" lon="11.239912906217663"><ele>299.33333333333337</ele><time>2026-03-22T09:24:31Z</time></trkpt><trkpt lat="43.59031943066252" lon="11.240012899518279"><ele>299.1666666666667</ele><time>2026-03-22T09:24:32Z</time></trkpt><trkpt lat="43.590352574873485" lon="11.240115910164238"><ele>299.0</ele><time>2026-03-22T09:24:33Z</time></trkpt><trkpt lat="43.59036194168534" lon="11.240246691411775"><ele>299.0</ele><time>2026-03-22T09:24:34Z</time></trkpt><trkpt lat="43.59036535223437" lon="11.240389394033539"><ele>299.0</ele><time>2026-03-22T09:24:35Z</time></trkpt><trkpt lat="43.5903632759633" lon="11.240496058189485"><ele>299.0</ele><time>2026-03-22T09:24:36Z</time></trkpt><trkpt lat="43.590309905645405" lon="11.240621174759818"><ele>299.0</ele><time>2026-03-22T09:24:38Z</time></trkpt><trkpt lat="43.59025449227362" lon="11.240681367009474"><ele>299.0</ele><time>2026-03-22T09:24:39Z</time></trkpt><trkpt lat="43.59019478999398" lon="11.240739305258513"><ele>299.0</ele><time>2026-03-22T09:24:40Z</time></trkpt><trkpt lat="43.59007030396779" lon="11.24079734505966"><ele>302.5</ele><time>2026-03-22T09:24:42Z</time></trkpt><trkpt lat="43.59000097966535" lon="11.240801065351596"><ele>306.0</ele><time>2026-03-22T09:24:42.999Z</time></trkpt><trkpt lat="43.589938814566686" lon="11.240783073889162"><ele>309.5</ele><time>2026-03-22T09:24:44.999Z</time></trkpt><trkpt lat="43.58990919519218" lon="11.240647603214926"><ele>313.0</ele><time>2026-03-22T09:24:54.999Z</time></trkpt><trkpt lat="43.58985985480173" lon="11.240582296403224"><ele>316.5</ele><time>2026-03-22T09:24:56.999Z</time></trkpt><trkpt lat="43.589766957661055" lon="11.240550148215881"><ele>320.0</ele><time>2026-03-22T09:24:59.999Z</time></trkpt><trkpt lat="43.589697539538484" lon="11.240497362120086"><ele>320.5</ele><time>2026-03-22T09:25:02.999Z</time></trkpt><trkpt lat="43.58961277741983" lon="11.240443320837139"><ele>321.0</ele><time>2026-03-22T09:25:20.999Z</time></trkpt><trkpt lat="43.58954732311168" lon="11.24039383156763"><ele>321.5</ele><time>2026-03-22T09:25:21.999Z</time></trkpt><trkpt lat="43.58946983586806" lon="11.240340151663059"><ele>322.0</ele><time>2026-03-22T09:25:22.999Z</time></trkpt><trkpt lat="43.58939971629682" lon="11.24030406616311"><ele>322.5</ele><time>2026-03-22T09:25:23.999Z</time></trkpt><trkpt lat="43.589328438131226" lon="11.240295556443924"><ele>323.0</ele><time>2026-03-22T09:25:24.999Z</time></trkpt><trkpt lat="43.589233605071534" lon="11.2402755948657"><ele>326.83333333333337</ele><time>2026-03-22T09:25:25.999Z</time></trkpt><trkpt lat="43.589141020563446" lon="11.240240892968524"><ele>330.6666666666667</ele><time>2026-03-22T09:25:26.999Z</time></trkpt><trkpt lat="43.589048952067955" lon="11.240203181120712"><ele>334.5</ele><time>2026-03-22T09:25:27.999Z</time></trkpt><trkpt lat="43.588958914145465" lon="11.240211614508974"><ele>338.3333333333333</ele><time>2026-03-22T09:25:29.999Z</time></trkpt><trkpt lat="43.58892547240151" lon="11.240346373102014"><ele>342.16666666666663</ele><time>2026-03-22T09:25:31.999Z</time></trkpt><trkpt lat="43.5888921471861" lon="11.24042104719961"><ele>346.0</ele><time>2026-03-22T09:25:32.999Z</time></trkpt><trkpt lat="43.58882832898532" lon="11.24048569207383"><ele>346.0</ele><time>2026-03-22T09:25:33.999Z</time></trkpt><trkpt lat="43.58871971620635" lon="11.240562901423601"><ele>346.0</ele><time>2026-03-22T09:25:34.999Z</time></trkpt><trkpt lat="43.588620113562655" lon="11.240643038594103"><ele>346.0</ele><time>2026-03-22T09:25:35.999Z</time></trkpt><trkpt lat="43.588576370623755" lon="11.240710582016913"><ele>346.0</ele><time>2026-03-22T09:25:36.999Z</time></trkpt><trkpt lat="43.5884702943488" lon="11.240805393949218"><ele>346.0</ele><time>2026-03-22T09:25:38.999Z</time></trkpt><trkpt lat="43.58839855498569" lon="11.24085237216946"><ele>346.0</ele><time>2026-03-22T09:26:00Z</time></trkpt><trkpt lat="43.58835408955389" lon="11.24075964805338"><ele>346.0</ele><time>2026-03-22T09:26:05Z</time></trkpt><trkpt lat="43.58836818106191" lon="11.240668964922765"><ele>346.0</ele><time>2026-03-22T09:26:07Z</time></trkpt><trkpt lat="43.58836538513032" lon="11.24055349754744"><ele>346.0</ele><time>2026-03-22T09:26:09Z</time></trkpt><trkpt lat="43.588321391368915" lon="11.240456881849338"><ele>346.0</ele><time>2026-03-22T09:26:11Z</time></trkpt><trkpt lat="43.58834499474685" lon="11.240356096767785"><ele>346.0</ele><time>2026-03-22T09:26:13Z</time></trkpt><trkpt lat="43.588339885135085" lon="11.240261588629325"><ele>347.66666666666663</ele><time>2026-03-22T09:26:27Z</time></trkpt><trkpt lat="43.588315564226505" lon="11.240177841898834"><ele>349.3333333333333</ele><time>2026-03-22T09:26:30Z</time></trkpt><trkpt lat="43.58829922315976" lon="11.24008389949099"><ele>351.0</ele><time>2026-03-22T09:26:32Z</time></trkpt><trkpt lat="43.58826821916369" lon="11.239958232370851"><ele>352.6666666666667</ele><time>2026-03-22T09:26:34Z</time></trkpt><trkpt lat="43.58825455293512" lon="11.239867679269857"><ele>354.33333333333337</ele><time>2026-03-22T09:26:39Z</time></trkpt><trkpt lat="43.588296100405415" lon="11.239990034348304"><ele>356.0</ele><time>2026-03-22T09:29:57.998Z</time></trkpt><trkpt lat="43.58831770675804" lon="11.2400784578324"><ele>356.0</ele><time>2026-03-22T09:29:59.998Z</time></trkpt><trkpt lat="43.58832933308485" lon="11.240187180948011"><ele>356.0</ele><time>2026-03-22T09:30:03Z</time></trkpt><trkpt lat="43.58834373635552" lon="11.240304065146558"><ele>356.0</ele><time>2026-03-22T09:30:06Z</time></trkpt><trkpt lat="43.58832698060861" lon="11.240395346801714"><ele>356.0</ele><time>2026-03-22T09:30:08Z</time></trkpt><trkpt lat="43.588355377625994" lon="11.240499466894724"><ele>356.0</ele><time>2026-03-22T09:30:11Z</time></trkpt><trkpt lat="43.58838227072773" lon="11.240614321880832"><ele>356.0</ele><time>2026-03-22T09:30:14Z</time></trkpt><trkpt lat="43.58836607264568" lon="11.240710908747817"><ele>354.33333333333337</ele><time>2026-03-22T09:30:16Z</time></trkpt><trkpt lat="43.58835690309038" lon="11.2407989090414"><ele>352.6666666666667</ele><time>2026-03-22T09:30:18Z</time></trkpt><trkpt lat="43.588335143959135" lon="11.24089882860787"><ele>351.0</ele><time>2026-03-22T09:30:47Z</time></trkpt><trkpt lat="43.58827716692629" lon="11.24093420217593"><ele>349.3333333333333</ele><time>2026-03-22T09:30:50Z</time></trkpt><trkpt lat="43.588180031836785" lon="11.240981399322047"><ele>347.66666666666663</ele><time>2026-03-22T09:30:53Z</time></trkpt><trkpt lat="43.588086123351964" lon="11.241025886445383"><ele>346.0</ele><time>2026-03-22T09:30:54.999Z</time></trkpt><trkpt lat="43.58802866060615" lon="11.241062783133597"><ele>346.0</ele><time>2026-03-22T09:30:56.999Z</time></trkpt><trkpt lat="43.58795225709373" lon="11.241103104903926"><ele>346.0</ele><time>2026-03-22T09:30:59.999Z</time></trkpt><trkpt lat="43.587869353085374" lon="11.241026582649434"><ele>346.0</ele><time>2026-03-22T09:31:35.999Z</time></trkpt><trkpt lat="43.58783735389903" lon="11.240932442441828"><ele>346.0</ele><time>2026-03-22T09:31:36.999Z</time></trkpt><trkpt lat="43.58779668746422" lon="11.240849110442726"><ele>346.0</ele><time>2026-03-22T09:31:37.999Z</time></trkpt><trkpt lat="43.587755660872624" lon="11.240779892396109"><ele>346.0</ele><time>2026-03-22T09:31:38.999Z</time></trkpt><trkpt lat="43.58771219805417" lon="11.240714429124475"><ele>346.5</ele><time>2026-03-22T09:31:39.999Z</time></trkpt><trkpt lat="43.587650555952465" lon="11.240656721287749"><ele>347.0</ele><time>2026-03-22T09:31:40.999Z</time></trkpt><trkpt lat="43.587581730619156" lon="11.24059977475564"><ele>347.5</ele><time>2026-03-22T09:31:41.999Z</time></trkpt><trkpt lat="43.58750601987155" lon="11.240527238586736"><ele>348.0</ele><time>2026-03-22T09:31:42.999Z</time></trkpt><trkpt lat="43.587445797069634" lon="11.240443991132523"><ele>348.5</ele><time>2026-03-22T09:31:43.999Z</time></trkpt><trkpt lat="43.587384033635026" lon="11.24036958537883"><ele>349.0</ele><time>2026-03-22T09:31:44.999Z</time></trkpt><trkpt lat="43.58728607843044" lon="11.240273423351969"><ele>349.0</ele><time>2026-03-22T09:31:46.999Z</time></trkpt><trkpt lat="43.587217517355214" lon="11.240234366590462"><ele>349.0</ele><time>2026-03-22T09:31:47.999Z</time></trkpt><trkpt lat="43.58713591202542" lon="11.240153894484449"><ele>349.0</ele><time>2026-03-22T09:31:48.999Z</time></trkpt><trkpt lat="43.58703947232436" lon="11.240067435178382"><ele>349.0</ele><time>2026-03-22T09:31:49.999Z</time></trkpt><trkpt lat="43.586948395513986" lon="11.240008894830389"><ele>349.0</ele><time>2026-03-22T09:31:50.999Z</time></trkpt><trkpt lat="43.586879968253" lon="11.239946752277683"><ele>349.4</ele><time>2026-03-22T09:31:51.999Z</time></trkpt><trkpt lat="43.586763983718136" lon="11.239866858274844"><ele>349.79999999999995</ele><time>2026-03-22T09:31:53.999Z</time></trkpt><trkpt lat="43.58668080376055" lon="11.239822481155372"><ele>350.20000000000005</ele><time>2026-03-22T09:31:54.999Z</time></trkpt><trkpt lat="43.58658301650527" lon="11.2397651652096"><ele>350.6</ele><time>2026-03-22T09:31:55.999Z</time></trkpt><trkpt lat="43.58649303322819" lon="11.23970884904102"><ele>351.0</ele><time>2026-03-22T09:31:56.999Z</time></trkpt><trkpt lat="43.58642317269529" lon="11.239656829591818"><ele>351.0</ele><time>2026-03-22T09:31:57.999Z</time></trkpt><trkpt lat="43.58635805225926" lon="11.239586025645306"><ele>351.0</ele><time>2026-03-22T09:31:58.999Z</time></trkpt><trkpt lat="43.58628981932665" lon="11.239502538352427"><ele>351.0</ele><time>2026-03-22T09:31:59.998Z</time></trkpt><trkpt lat="43.58621155285903" lon="11.239414257699705"><ele>351.0</ele><time>2026-03-22T09:32:00.998Z</time></trkpt><trkpt lat="43.58613843288289" lon="11.239339937690971"><ele>351.0</ele><time>2026-03-22T09:32:01.998Z</time></trkpt><trkpt lat="43.58608697047952" lon="11.23928138634221"><ele>351.0</ele><time>2026-03-22T09:32:02.998Z</time></trkpt><trkpt lat="43.58603214431328" lon="11.23921231817935"><ele>349.0</ele><time>2026-03-22T09:32:03.998Z</time></trkpt><trkpt lat="43.585980044443374" lon="11.239115966580554"><ele>347.0</ele><time>2026-03-22T09:32:04.998Z</time></trkpt><trkpt lat="43.58592892445047" lon="11.239021486482791"><ele>345.0</ele><time>2026-03-22T09:32:05.998Z</time></trkpt><trkpt lat="43.585892648711884" lon="11.238938894092808"><ele>343.0</ele><time>2026-03-22T09:32:06.998Z</time></trkpt><trkpt lat="43.58586498451121" lon="11.238849749800902"><ele>341.0</ele><time>2026-03-22T09:32:08Z</time></trkpt><trkpt lat="43.58584013236779" lon="11.238755226178636"><ele>339.0</ele><time>2026-03-22T09:32:09Z</time></trkpt><trkpt lat="43.5858210356929" lon="11.23866398792303"><ele>339.0</ele><time>2026-03-22T09:32:10Z</time></trkpt><trkpt lat="43.58580014220388" lon="11.238551484721397"><ele>339.0</ele><time>2026-03-22T09:32:11Z</time></trkpt><trkpt lat="43.585775159602896" lon="11.238444219559513"><ele>339.0</ele><time>2026-03-22T09:32:12Z</time></trkpt><trkpt lat="43.58574086767008" lon="11.238340273350477"><ele>339.0</ele><time>2026-03-22T09:32:13Z</time></trkpt><trkpt lat="43.58569321286453" lon="11.238215667153348"><ele>339.0</ele><time>2026-03-22T09:32:14Z</time></trkpt><trkpt lat="43.58562845460826" lon="11.238076337958033"><ele>338.8333333333333</ele><time>2026-03-22T09:32:15Z</time></trkpt><trkpt lat="43.58557311504908" lon="11.237931218679197"><ele>338.6666666666667</ele><time>2026-03-22T09:32:16Z</time></trkpt><trkpt lat="43.58553270844153" lon="11.237834674389998"><ele>338.5</ele><time>2026-03-22T09:32:17Z</time></trkpt><trkpt lat="43.58548781640925" lon="11.237759313765789"><ele>338.33333333333337</ele><time>2026-03-22T09:32:18Z</time></trkpt><trkpt lat="43.58540698730277" lon="11.237734607505578"><ele>338.1666666666667</ele><time>2026-03-22T09:32:20Z</time></trkpt><trkpt lat="43.58534143566455" lon="11.237730281873905"><ele>338.0</ele><time>2026-03-22T09:32:21Z</time></trkpt><trkpt lat="43.58524323771782" lon="11.237643824745835"><ele>336.79999999999995</ele><time>2026-03-22T09:32:23Z</time></trkpt><trkpt lat="43.58515041578199" lon="11.237519410685966"><ele>335.6</ele><time>2026-03-22T09:32:25Z</time></trkpt><trkpt lat="43.585086760155654" lon="11.237483738419627"><ele>334.4</ele><time>2026-03-22T09:32:26Z</time></trkpt><trkpt lat="43.58502671043563" lon="11.237444332430666"><ele>333.20000000000005</ele><time>2026-03-22T09:32:27Z</time></trkpt><trkpt lat="43.58493287267255" lon="11.237312727218251"><ele>332.0</ele><time>2026-03-22T09:32:29Z</time></trkpt><trkpt lat="43.58487638347806" lon="11.237253002691725"><ele>331.6</ele><time>2026-03-22T09:32:30Z</time></trkpt><trkpt lat="43.58481151335433" lon="11.237131265684408"><ele>331.20000000000005</ele><time>2026-03-22T09:32:32Z</time></trkpt><trkpt lat="43.58482134678294" lon="11.23701314922284"><ele>330.8</ele><time>2026-03-22T09:32:33Z</time></trkpt><trkpt lat="43.58483068821057" lon="11.23691075983114"><ele>330.4</ele><time>2026-03-22T09:32:34Z</time></trkpt><trkpt lat="43.584805982783394" lon="11.236812038023443"><ele>330.0</ele><time>2026-03-22T09:32:36Z</time></trkpt><trkpt lat="43.58470606351541" lon="11.23671405877317"><ele>330.0</ele><time>2026-03-22T09:32:38Z</time></trkpt><trkpt lat="43.58465321880186" lon="11.236637212234726"><ele>330.0</ele><time>2026-03-22T09:32:39Z</time></trkpt><trkpt lat="43.58461695870227" lon="11.236562759267567"><ele>330.0</ele><time>2026-03-22T09:32:40Z</time></trkpt><trkpt lat="43.584586118452464" lon="11.23646903923028"><ele>330.0</ele><time>2026-03-22T09:32:42Z</time></trkpt><trkpt lat="43.58469170374817" lon="11.236398528837617"><ele>330.0</ele><time>2026-03-22T09:33:01.999Z</time></trkpt><trkpt lat="43.58476646372227" lon="11.236328450936751"><ele>330.0</ele><time>2026-03-22T09:33:03.999Z</time></trkpt><trkpt lat="43.58476535127469" lon="11.236223776433535"><ele>328.5</ele><time>2026-03-22T09:33:05.999Z</time></trkpt><trkpt lat="43.58471528724542" lon="11.236081073052148"><ele>327.0</ele><time>2026-03-22T09:33:07.999Z</time></trkpt><trkpt lat="43.58469025345994" lon="11.23595655139856"><ele>325.5</ele><time>2026-03-22T09:33:09.999Z</time></trkpt><trkpt lat="43.58466595944598" lon="11.23584467667333"><ele>324.0</ele><time>2026-03-22T09:33:39.999Z</time></trkpt><trkpt lat="43.58465222515764" lon="11.23575489522277"><ele>322.5</ele><time>2026-03-22T09:33:40.999Z</time></trkpt><trkpt lat="43.58462866279536" lon="11.23566686027803"><ele>321.0</ele><time>2026-03-22T09:33:41.999Z</time></trkpt><trkpt lat="43.58460465882726" lon="11.235582664875773"><ele>317.0</ele><time>2026-03-22T09:33:42.999Z</time></trkpt><trkpt lat="43.58455973275438" lon="11.235447250441899"><ele>313.0</ele><time>2026-03-22T09:33:44.999Z</time></trkpt><trkpt lat="43.584462082404634" lon="11.235378967078429"><ele>309.0</ele><time>2026-03-22T09:33:46.999Z</time></trkpt><trkpt lat="43.58437670314195" lon="11.235256684363906"><ele>305.0</ele><time>2026-03-22T09:33:48.999Z</time></trkpt><trkpt lat="43.58433033839663" lon="11.23508624139254"><ele>305.0</ele><time>2026-03-22T09:33:50.999Z</time></trkpt><trkpt lat="43.58431270909398" lon="11.235002472374001"><ele>305.0</ele><time>2026-03-22T09:33:51.999Z</time></trkpt><trkpt lat="43.584334138863866" lon="11.234901423585875"><ele>305.0</ele><time>2026-03-22T09:33:53.999Z</time></trkpt><trkpt lat="43.58443972133494" lon="11.234846902888112"><ele>305.0</ele><time>2026-03-22T09:33:55.999Z</time></trkpt><trkpt lat="43.58450760033397" lon="11.23478728351101"><ele>305.0</ele><time>2026-03-22T09:33:57.999Z</time></trkpt><trkpt lat="43.58460110765914" lon="11.234735256397212"><ele>305.0</ele><time>2026-03-22T09:34:05.998Z</time></trkpt><trkpt lat="43.584687705547495" lon="11.234695946730438"><ele>302.83333333333337</ele><time>2026-03-22T09:34:06.998Z</time></trkpt><trkpt lat="43.5847773424586" lon="11.23465159410302"><ele>300.6666666666667</ele><time>2026-03-22T09:34:07.998Z</time></trkpt><trkpt lat="43.58484469920951" lon="11.23461458917784"><ele>298.5</ele><time>2026-03-22T09:34:08.998Z</time></trkpt><trkpt lat="43.584918510671486" lon="11.234579207298976"><ele>296.3333333333333</ele><time>2026-03-22T09:34:09.998Z</time></trkpt><trkpt lat="43.58500189151633" lon="11.234555014646043"><ele>294.16666666666663</ele><time>2026-03-22T09:34:10.998Z</time></trkpt><trkpt lat="43.58508312043026" lon="11.234515268404976"><ele>292.0</ele><time>2026-03-22T09:34:11.998Z</time></trkpt><trkpt lat="43.58516428141341" lon="11.234457697131827"><ele>292.0</ele><time>2026-03-22T09:34:13Z</time></trkpt><trkpt lat="43.585246618783046" lon="11.234381076358751"><ele>292.0</ele><time>2026-03-22T09:34:14Z</time></trkpt><trkpt lat="43.585332266730866" lon="11.234299842743129"><ele>292.0</ele><time>2026-03-22T09:34:15Z</time></trkpt><trkpt lat="43.58542567968968" lon="11.234230529222692"><ele>292.0</ele><time>2026-03-22T09:34:16Z</time></trkpt><trkpt lat="43.585486300818076" lon="11.234185811453301"><ele>292.0</ele><time>2026-03-22T09:34:17Z</time></trkpt><trkpt lat="43.58554711014555" lon="11.234103278725708"><ele>292.16666666666663</ele><time>2026-03-22T09:34:19Z</time></trkpt><trkpt lat="43.585506880484644" lon="11.234006642352643"><ele>292.3333333333333</ele><time>2026-03-22T09:34:22Z</time></trkpt><trkpt lat="43.58544099400313" lon="11.233884493844505"><ele>292.5</ele><time>2026-03-22T09:34:24Z</time></trkpt><trkpt lat="43.58540095320497" lon="11.233767604177213"><ele>292.6666666666667</ele><time>2026-03-22T09:34:25Z</time></trkpt><trkpt lat="43.58536672116177" lon="11.23367716194371"><ele>292.83333333333337</ele><time>2026-03-22T09:34:26Z</time></trkpt><trkpt lat="43.58533242862421" lon="11.233599168257404"><ele>293.0</ele><time>2026-03-22T09:34:27Z</time></trkpt><trkpt lat="43.58524593597676" lon="11.233447254388585"><ele>291.83333333333337</ele><time>2026-03-22T09:34:29Z</time></trkpt><trkpt lat="43.58518998260421" lon="11.23337347021333"><ele>290.6666666666667</ele><time>2026-03-22T09:34:30Z</time></trkpt><trkpt lat="43.5851451185531" lon="11.233297940809143"><ele>289.5</ele><time>2026-03-22T09:34:31Z</time></trkpt><trkpt lat="43.58510818370196" lon="11.233207095399685"><ele>288.3333333333333</ele><time>2026-03-22T09:34:32Z</time></trkpt><trkpt lat="43.58507341766602" lon="11.23310637118971"><ele>287.16666666666663</ele><time>2026-03-22T09:34:33Z</time></trkpt><trkpt lat="43.58501967399143" lon="11.23302121335468"><ele>286.0</ele><time>2026-03-22T09:34:34Z</time></trkpt><trkpt lat="43.58496042492087" lon="11.232955528684501"><ele>284.8</ele><time>2026-03-22T09:34:35Z</time></trkpt><trkpt lat="43.58489403617604" lon="11.23286381415849"><ele>283.6</ele><time>2026-03-22T09:34:36Z</time></trkpt><trkpt lat="43.584835832695" lon="11.232731893435208"><ele>282.4</ele><time>2026-03-22T09:34:37Z</time></trkpt><trkpt lat="43.584780258877814" lon="11.232604085238071"><ele>281.2</ele><time>2026-03-22T09:34:38Z</time></trkpt><trkpt lat="43.58472849001854" lon="11.232491638220562"><ele>280.0</ele><time>2026-03-22T09:34:39Z</time></trkpt><trkpt lat="43.584683646769484" lon="11.232376783565126"><ele>277.16666666666663</ele><time>2026-03-22T09:34:40Z</time></trkpt><trkpt lat="43.58463261562471" lon="11.23227561369245"><ele>274.3333333333333</ele><time>2026-03-22T09:34:41Z</time></trkpt><trkpt lat="43.584559276455444" lon="11.232183245571825"><ele>271.5</ele><time>2026-03-22T09:34:42Z</time></trkpt><trkpt lat="43.58448406388763" lon="11.232105141380256"><ele>268.6666666666667</ele><time>2026-03-22T09:34:43Z</time></trkpt><trkpt lat="43.58442967619659" lon="11.232018614927497"><ele>265.83333333333337</ele><time>2026-03-22T09:34:44Z</time></trkpt><trkpt lat="43.58440269446453" lon="11.231918747703299"><ele>263.0</ele><time>2026-03-22T09:34:45Z</time></trkpt><trkpt lat="43.58440312986717" lon="11.231809456992478"><ele>261.5</ele><time>2026-03-22T09:34:46Z</time></trkpt><trkpt lat="43.58440018017721" lon="11.231700666206565"><ele>260.0</ele><time>2026-03-22T09:34:47Z</time></trkpt><trkpt lat="43.58437252377521" lon="11.23161167610318"><ele>258.5</ele><time>2026-03-22T09:34:48Z</time></trkpt><trkpt lat="43.58435386680674" lon="11.231502784882606"><ele>257.0</ele><time>2026-03-22T09:34:50Z</time></trkpt><trkpt lat="43.584428726561036" lon="11.231432839574717"><ele>255.50000000000003</ele><time>2026-03-22T09:34:52Z</time></trkpt><trkpt lat="43.584521931286524" lon="11.231332975534226"><ele>254.0</ele><time>2026-03-22T09:34:54Z</time></trkpt><trkpt lat="43.58457808345304" lon="11.231258170219979"><ele>252.2</ele><time>2026-03-22T09:34:55Z</time></trkpt><trkpt lat="43.58463818267415" lon="11.231168636560742"><ele>250.39999999999998</ele><time>2026-03-22T09:34:56Z</time></trkpt><trkpt lat="43.584689794323175" lon="11.231063861625339"><ele>248.6</ele><time>2026-03-22T09:34:57Z</time></trkpt><trkpt lat="43.5847563258874" lon="11.2309642789485"><ele>246.8</ele><time>2026-03-22T09:34:58Z</time></trkpt><trkpt lat="43.584826052359176" lon="11.230867596003183"><ele>245.0</ele><time>2026-03-22T09:34:59Z</time></trkpt><trkpt lat="43.58490472767669" lon="11.23077963394556"><ele>245.0</ele><time>2026-03-22T09:35:00Z</time></trkpt><trkpt lat="43.584967879675276" lon="11.230674820748359"><ele>245.0</ele><time>2026-03-22T09:35:01Z</time></trkpt><trkpt lat="43.58501216044159" lon="11.230594915685456"><ele>245.0</ele><time>2026-03-22T09:35:02Z</time></trkpt><trkpt lat="43.585035493465426" lon="11.230471478495415"><ele>245.0</ele><time>2026-03-22T09:35:03.999Z</time></trkpt><trkpt lat="43.5850005354055" lon="11.230351847792933"><ele>245.0</ele><time>2026-03-22T09:35:05.999Z</time></trkpt><trkpt lat="43.584942614412014" lon="11.230166561540566"><ele>243.2</ele><time>2026-03-22T09:35:07.999Z</time></trkpt><trkpt lat="43.58492020783098" lon="11.230069461037552"><ele>241.4</ele><time>2026-03-22T09:35:08.999Z</time></trkpt><trkpt lat="43.58493657090895" lon="11.229910033787915"><ele>239.60000000000002</ele><time>2026-03-22T09:35:10.999Z</time></trkpt><trkpt lat="43.585005978577634" lon="11.229840762749578"><ele>237.8</ele><time>2026-03-22T09:35:11.999Z</time></trkpt><trkpt lat="43.58505288739051" lon="11.229725637715392"><ele>236.0</ele><time>2026-03-22T09:35:12.999Z</time></trkpt><trkpt lat="43.5851111825413" lon="11.22962601419932"><ele>235.0</ele><time>2026-03-22T09:35:13.999Z</time></trkpt><trkpt lat="43.58517430234665" lon="11.229526160453759"><ele>234.00000000000003</ele><time>2026-03-22T09:35:14.999Z</time></trkpt><trkpt lat="43.58523797902972" lon="11.229428385017798"><ele>233.00000000000003</ele><time>2026-03-22T09:35:15.999Z</time></trkpt><trkpt lat="43.585305285636764" lon="11.229346714734383"><ele>232.0</ele><time>2026-03-22T09:35:16.999Z</time></trkpt><trkpt lat="43.58535309967418" lon="11.229237142878334"><ele>231.0</ele><time>2026-03-22T09:35:17.999Z</time></trkpt><trkpt lat="43.58540669632228" lon="11.229155172215062"><ele>231.0</ele><time>2026-03-22T09:35:18.999Z</time></trkpt><trkpt lat="43.58545036735841" lon="11.229079431622607"><ele>231.0</ele><time>2026-03-22T09:35:19.999Z</time></trkpt><trkpt lat="43.58550544796734" lon="11.229007812968135"><ele>231.0</ele><time>2026-03-22T09:35:20.999Z</time></trkpt><trkpt lat="43.58552474916136" lon="11.228907189397704"><ele>231.0</ele><time>2026-03-22T09:35:21.999Z</time></trkpt><trkpt lat="43.58554184323906" lon="11.228803520381305"><ele>231.0</ele><time>2026-03-22T09:35:22.999Z</time></trkpt><trkpt lat="43.58553354046549" lon="11.228681322198234"><ele>231.0</ele><time>2026-03-22T09:35:23.999Z</time></trkpt><trkpt lat="43.58552094733417" lon="11.22855941291393"><ele>230.0</ele><time>2026-03-22T09:35:24.999Z</time></trkpt><trkpt lat="43.58551720406121" lon="11.228445617103628"><ele>229.0</ele><time>2026-03-22T09:35:25.999Z</time></trkpt><trkpt lat="43.585525089558445" lon="11.228322604843127"><ele>228.0</ele><time>2026-03-22T09:35:26.999Z</time></trkpt><trkpt lat="43.585543480015" lon="11.228193058080322"><ele>227.0</ele><time>2026-03-22T09:35:27.999Z</time></trkpt><trkpt lat="43.58557107857591" lon="11.228080258851655"><ele>226.0</ele><time>2026-03-22T09:35:28.999Z</time></trkpt><trkpt lat="43.585603275352426" lon="11.227976724088146"><ele>225.0</ele><time>2026-03-22T09:35:29.999Z</time></trkpt><trkpt lat="43.58564674628493" lon="11.227866768024194"><ele>223.6</ele><time>2026-03-22T09:35:30.999Z</time></trkpt><trkpt lat="43.585703357299245" lon="11.227764977776234"><ele>222.2</ele><time>2026-03-22T09:35:31.999Z</time></trkpt><trkpt lat="43.58576800022753" lon="11.22766695580279"><ele>220.8</ele><time>2026-03-22T09:35:32.999Z</time></trkpt><trkpt lat="43.58583249796162" lon="11.227567398273154"><ele>219.4</ele><time>2026-03-22T09:35:33.999Z</time></trkpt><trkpt lat="43.58590229849325" lon="11.227472285422719"><ele>218.0</ele><time>2026-03-22T09:35:34.999Z</time></trkpt><trkpt lat="43.58598432618089" lon="11.227377271022583"><ele>219.0</ele><time>2026-03-22T09:35:35.999Z</time></trkpt><trkpt lat="43.58607773876324" lon="11.227274016647488"><ele>220.0</ele><time>2026-03-22T09:35:36.999Z</time></trkpt><trkpt lat="43.58616881617962" lon="11.22716660787315"><ele>221.0</ele><time>2026-03-22T09:35:37.999Z</time></trkpt><trkpt lat="43.58621748641148" lon="11.22708264474879"><ele>222.0</ele><time>2026-03-22T09:35:38.999Z</time></trkpt><trkpt lat="43.58622209206995" lon="11.22694403550918"><ele>223.0</ele><time>2026-03-22T09:35:40.999Z</time></trkpt><trkpt lat="43.58614264143771" lon="11.226824231238139"><ele>222.99999999999997</ele><time>2026-03-22T09:35:42.999Z</time></trkpt><trkpt lat="43.586066326181246" lon="11.22680540680966"><ele>223.0</ele><time>2026-03-22T09:35:43.999Z</time></trkpt><trkpt lat="43.58598074228886" lon="11.22675473527237"><ele>223.0</ele><time>2026-03-22T09:35:45.999Z</time></trkpt><trkpt lat="43.58591763062059" lon="11.2267142416977"><ele>223.0</ele><time>2026-03-22T09:35:54.999Z</time></trkpt><trkpt lat="43.585812595877094" lon="11.22663522489155"><ele>222.99999999999997</ele><time>2026-03-22T09:35:56.999Z</time></trkpt><trkpt lat="43.5857516909594" lon="11.22658122175081"><ele>223.0</ele><time>2026-03-22T09:35:57.999Z</time></trkpt><trkpt lat="43.58567063742995" lon="11.226495125867322"><ele>223.66666666666666</ele><time>2026-03-22T09:35:59.999Z</time></trkpt><trkpt lat="43.585688008073234" lon="11.226393215059963"><ele>224.33333333333331</ele><time>2026-03-22T09:36:00.999Z</time></trkpt><trkpt lat="43.58566196592887" lon="11.226282920533148"><ele>225.0</ele><time>2026-03-22T09:36:01.999Z</time></trkpt><trkpt lat="43.58561953313471" lon="11.226164919112062"><ele>225.66666666666669</ele><time>2026-03-22T09:36:02.999Z</time></trkpt><trkpt lat="43.58560375228884" lon="11.226061244914847"><ele>226.33333333333334</ele><time>2026-03-22T09:36:03.999Z</time></trkpt><trkpt lat="43.58556898844881" lon="11.225914160810872"><ele>227.0</ele><time>2026-03-22T09:36:05.999Z</time></trkpt><trkpt lat="43.585577393821936" lon="11.225799144667373"><ele>227.0</ele><time>2026-03-22T09:36:07.998Z</time></trkpt><trkpt lat="43.585644720600165" lon="11.22565108444677"><ele>227.0</ele><time>2026-03-22T09:36:09.998Z</time></trkpt><trkpt lat="43.58569059118513" lon="11.225578615864979"><ele>227.0</ele><time>2026-03-22T09:36:10.998Z</time></trkpt><trkpt lat="43.58575281488179" lon="11.225490428381613"><ele>227.0</ele><time>2026-03-22T09:36:11.998Z</time></trkpt><trkpt lat="43.585841502096685" lon="11.225362204579973"><ele>227.0</ele><time>2026-03-22T09:36:12.998Z</time></trkpt><trkpt lat="43.58594780764677" lon="11.225201012381584"><ele>227.0</ele><time>2026-03-22T09:36:13.998Z</time></trkpt><trkpt lat="43.586069825746144" lon="11.225018330195097"><ele>227.0</ele><time>2026-03-22T09:36:14.998Z</time></trkpt><trkpt lat="43.58620824679346" lon="11.224846804012696"><ele>227.0</ele><time>2026-03-22T09:36:15.998Z</time></trkpt><trkpt lat="43.5863204709164" lon="11.224667688030088"><ele>225.66666666666669</ele><time>2026-03-22T09:36:16.998Z</time></trkpt><trkpt lat="43.58644452873102" lon="11.224473059277502"><ele>224.33333333333331</ele><time>2026-03-22T09:36:18Z</time></trkpt><trkpt lat="43.58652636997289" lon="11.224332657873786"><ele>223.0</ele><time>2026-03-22T09:36:19Z</time></trkpt><trkpt lat="43.586628110385824" lon="11.22416784908457"><ele>223.0</ele><time>2026-03-22T09:36:20Z</time></trkpt><trkpt lat="43.58673657922976" lon="11.223992243109258"><ele>223.0</ele><time>2026-03-22T09:36:21Z</time></trkpt><trkpt lat="43.586836229921914" lon="11.223838044591727"><ele>223.0</ele><time>2026-03-22T09:36:22Z</time></trkpt><trkpt lat="43.586920206958695" lon="11.223708099178548"><ele>223.0</ele><time>2026-03-22T09:36:23Z</time></trkpt><trkpt lat="43.58699751603447" lon="11.223588471799328"><ele>224.60000000000002</ele><time>2026-03-22T09:36:24Z</time></trkpt><trkpt lat="43.58706395299499" lon="11.223485667824368"><ele>226.20000000000002</ele><time>2026-03-22T09:36:25Z</time></trkpt><trkpt lat="43.58711292901099" lon="11.22340988280787"><ele>227.8</ele><time>2026-03-22T09:36:26Z</time></trkpt><trkpt lat="43.58716381177917" lon="11.223338050939901"><ele>229.4</ele><time>2026-03-22T09:36:28Z</time></trkpt><trkpt lat="43.587067278643666" lon="11.223155315072109"><ele>231.0</ele><time>2026-03-22T09:36:31Z</time></trkpt><trkpt lat="43.586995029386884" lon="11.222991582886626"><ele>226.5</ele><time>2026-03-22T09:36:32Z</time></trkpt><trkpt lat="43.586900287746424" lon="11.222827971380855"><ele>222.0</ele><time>2026-03-22T09:36:33Z</time></trkpt><trkpt lat="43.58682680584734" lon="11.222645571003262"><ele>217.5</ele><time>2026-03-22T09:36:34Z</time></trkpt><trkpt lat="43.58674496022649" lon="11.222483952969075"><ele>213.0</ele><time>2026-03-22T09:36:35Z</time></trkpt><trkpt lat="43.58667403749509" lon="11.222336246860078"><ele>212.0</ele><time>2026-03-22T09:36:36Z</time></trkpt><trkpt lat="43.58660687003731" lon="11.222196670318665"><ele>211.0</ele><time>2026-03-22T09:36:37Z</time></trkpt><trkpt lat="43.58655288606643" lon="11.222051409060416"><ele>210.0</ele><time>2026-03-22T09:36:38Z</time></trkpt><trkpt lat="43.58645001610615" lon="11.221959766281769"><ele>209.0</ele><time>2026-03-22T09:36:39Z</time></trkpt><trkpt lat="43.58635237004736" lon="11.221857286030357"><ele>209.0</ele><time>2026-03-22T09:36:40Z</time></trkpt><trkpt lat="43.58627140690891" lon="11.221734412239044"><ele>209.0</ele><time>2026-03-22T09:36:41Z</time></trkpt><trkpt lat="43.58618168546753" lon="11.221646332085486"><ele>209.0</ele><time>2026-03-22T09:36:42Z</time></trkpt><trkpt lat="43.586101911601205" lon="11.221542898742834"><ele>209.0</ele><time>2026-03-22T09:36:43Z</time></trkpt><trkpt lat="43.58601461082105" lon="11.221447617737525"><ele>206.79999999999998</ele><time>2026-03-22T09:36:44Z</time></trkpt><trkpt lat="43.58593492634561" lon="11.221356435791531"><ele>204.6</ele><time>2026-03-22T09:36:45Z</time></trkpt><trkpt lat="43.58587255462718" lon="11.221274727365323"><ele>202.4</ele><time>2026-03-22T09:36:46Z</time></trkpt><trkpt lat="43.58584064701712" lon="11.221161812527406"><ele>200.2</ele><time>2026-03-22T09:36:47Z</time></trkpt><trkpt lat="43.58582333907425" lon="11.22104756129607"><ele>198.0</ele><time>2026-03-22T09:36:48Z</time></trkpt><trkpt lat="43.58581222521525" lon="11.220904605353686"><ele>198.0</ele><time>2026-03-22T09:36:49Z</time></trkpt><trkpt lat="43.58582499807953" lon="11.220768259354383"><ele>198.0</ele><time>2026-03-22T09:36:50Z</time></trkpt><trkpt lat="43.58586303393033" lon="11.220632474728154"><ele>198.0</ele><time>2026-03-22T09:36:51Z</time></trkpt><trkpt lat="43.58588816891296" lon="11.220499184372422"><ele>198.0</ele><time>2026-03-22T09:36:52Z</time></trkpt><trkpt lat="43.58589576688814" lon="11.220376613723671"><ele>198.0</ele><time>2026-03-22T09:36:53Z</time></trkpt><trkpt lat="43.58591160518378" lon="11.220287305094661"><ele>197.4</ele><time>2026-03-22T09:36:54Z</time></trkpt><trkpt lat="43.585897900843946" lon="11.220162193636098"><ele>196.8</ele><time>2026-03-22T09:36:56Z</time></trkpt><trkpt lat="43.5858639336551" lon="11.220064595249061"><ele>196.2</ele><time>2026-03-22T09:37:19.999Z</time></trkpt><trkpt lat="43.58582096134191" lon="11.219909992586894"><ele>195.6</ele><time>2026-03-22T09:37:21.999Z</time></trkpt><trkpt lat="43.58578843997648" lon="11.219788741373726"><ele>195.0</ele><time>2026-03-22T09:37:22.999Z</time></trkpt><trkpt lat="43.585755947278756" lon="11.219675081135897"><ele>194.66666666666666</ele><time>2026-03-22T09:37:23.999Z</time></trkpt><trkpt lat="43.58573270302513" lon="11.219584287774284"><ele>194.33333333333331</ele><time>2026-03-22T09:37:24.999Z</time></trkpt><trkpt lat="43.58570872496813" lon="11.219456554898727"><ele>194.0</ele><time>2026-03-22T09:37:26.999Z</time></trkpt><trkpt lat="43.58572430753399" lon="11.219544725784216"><ele>193.66666666666666</ele><time>2026-03-22T09:37:45.999Z</time></trkpt><trkpt lat="43.58574405298874" lon="11.219631384293361"><ele>193.33333333333331</ele><time>2026-03-22T09:37:49.999Z</time></trkpt><trkpt lat="43.58577335800404" lon="11.219735984275768"><ele>193.0</ele><time>2026-03-22T09:37:52.999Z</time></trkpt><trkpt lat="43.585291459747054" lon="11.219643932700968"><ele>194.66666666666666</ele><time>2026-03-22T09:38:07.999Z</time></trkpt><trkpt lat="43.58521837745091" lon="11.219546196729103"><ele>196.33333333333331</ele><time>2026-03-22T09:38:08.999Z</time></trkpt><trkpt lat="43.58515061919643" lon="11.219475044283666"><ele>198.0</ele><time>2026-03-22T09:38:09.999Z</time></trkpt><trkpt lat="43.58508647080265" lon="11.219411893385217"><ele>199.66666666666669</ele><time>2026-03-22T09:38:10.999Z</time></trkpt><trkpt lat="43.585036647847026" lon="11.219347193872075"><ele>201.33333333333334</ele><time>2026-03-22T09:38:11.999Z</time></trkpt><trkpt lat="43.58502186930412" lon="11.219203355719328"><ele>203.0</ele><time>2026-03-22T09:38:13.998Z</time></trkpt><trkpt lat="43.58494000198583" lon="11.219197224189015"><ele>203.0</ele><time>2026-03-22T09:38:15.998Z</time></trkpt><trkpt lat="43.58486042058908" lon="11.219357210714833"><ele>203.0</ele><time>2026-03-22T09:38:17.998Z</time></trkpt><trkpt lat="43.58480353837014" lon="11.219404263575361"><ele>203.0</ele><time>2026-03-22T09:38:18.998Z</time></trkpt><trkpt lat="43.584715326881295" lon="11.219422329108315"><ele>203.0</ele><time>2026-03-22T09:38:19.998Z</time></trkpt><trkpt lat="43.58463208713908" lon="11.21942157832902"><ele>203.0</ele><time>2026-03-22T09:38:20.998Z</time></trkpt><trkpt lat="43.584553780957926" lon="11.219431252570423"><ele>204.5</ele><time>2026-03-22T09:38:21.998Z</time></trkpt><trkpt lat="43.58445197185933" lon="11.21948664255438"><ele>206.0</ele><time>2026-03-22T09:38:24Z</time></trkpt><trkpt lat="43.584368638668344" lon="11.219607268258384"><ele>207.5</ele><time>2026-03-22T09:38:26Z</time></trkpt><trkpt lat="43.58430052186272" lon="11.2197071455055"><ele>209.0</ele><time>2026-03-22T09:38:27Z</time></trkpt><trkpt lat="43.58421389415412" lon="11.21982999852793"><ele>209.79999999999998</ele><time>2026-03-22T09:38:28Z</time></trkpt><trkpt lat="43.58414010689329" lon="11.219934662752268"><ele>210.6</ele><time>2026-03-22T09:38:29Z</time></trkpt><trkpt lat="43.58406094700342" lon="11.220036989955458"><ele>211.4</ele><time>2026-03-22T09:38:30Z</time></trkpt><trkpt lat="43.58398156533745" lon="11.220143875116491"><ele>212.2</ele><time>2026-03-22T09:38:31Z</time></trkpt><trkpt lat="43.5839081585807" lon="11.220243362766205"><ele>213.0</ele><time>2026-03-22T09:38:32Z</time></trkpt><trkpt lat="43.58383467460837" lon="11.220345517301702"><ele>213.0</ele><time>2026-03-22T09:38:33Z</time></trkpt><trkpt lat="43.58377559545022" lon="11.220436482570435"><ele>213.0</ele><time>2026-03-22T09:38:34Z</time></trkpt><trkpt lat="43.58372427505254" lon="11.22051370305666"><ele>213.0</ele><time>2026-03-22T09:38:35Z</time></trkpt><trkpt lat="43.58365261536356" lon="11.220590766526403"><ele>213.0</ele><time>2026-03-22T09:38:37Z</time></trkpt><trkpt lat="43.5835699627501" lon="11.22058300608143"><ele>213.0</ele><time>2026-03-22T09:38:39Z</time></trkpt><trkpt lat="43.583468766303994" lon="11.220574130940046"><ele>213.0</ele><time>2026-03-22T09:38:41Z</time></trkpt><trkpt lat="43.58340161343399" lon="11.220569524921693"><ele>216.0</ele><time>2026-03-22T09:38:50Z</time></trkpt><trkpt lat="43.58339105518608" lon="11.220695138007859"><ele>219.0</ele><time>2026-03-22T09:38:53Z</time></trkpt><trkpt lat="43.58339834632134" lon="11.22078420963999"><ele>222.0</ele><time>2026-03-22T09:38:54Z</time></trkpt><trkpt lat="43.58337534917706" lon="11.220906759987203"><ele>225.0</ele><time>2026-03-22T09:38:55Z</time></trkpt><trkpt lat="43.58334463547393" lon="11.22101660132835"><ele>228.0</ele><time>2026-03-22T09:38:56Z</time></trkpt><trkpt lat="43.583298306264844" lon="11.221110722638157"><ele>231.0</ele><time>2026-03-22T09:38:57Z</time></trkpt><trkpt lat="43.58325336466264" lon="11.221225217469312"><ele>231.0</ele><time>2026-03-22T09:38:58Z</time></trkpt><trkpt lat="43.583218803069386" lon="11.22134012437189"><ele>231.0</ele><time>2026-03-22T09:38:59Z</time></trkpt><trkpt lat="43.583183273688185" lon="11.221439109776194"><ele>231.0</ele><time>2026-03-22T09:39:00Z</time></trkpt><trkpt lat="43.583133993791094" lon="11.22150606069763"><ele>231.0</ele><time>2026-03-22T09:39:01Z</time></trkpt><trkpt lat="43.58307730728574" lon="11.221583496958939"><ele>231.0</ele><time>2026-03-22T09:39:02Z</time></trkpt><trkpt lat="43.583033702806595" lon="11.221692041670373"><ele>231.0</ele><time>2026-03-22T09:39:03Z</time></trkpt><trkpt lat="43.583014683525754" lon="11.221796807797185"><ele>231.8</ele><time>2026-03-22T09:39:04Z</time></trkpt><trkpt lat="43.58300168689813" lon="11.221891982610098"><ele>232.60000000000002</ele><time>2026-03-22T09:39:05Z</time></trkpt><trkpt lat="43.5829298781651" lon="11.221938898001968"><ele>233.4</ele><time>2026-03-22T09:39:08Z</time></trkpt><trkpt lat="43.58286146317003" lon="11.221781958307757"><ele>234.2</ele><time>2026-03-22T09:39:10Z</time></trkpt><trkpt lat="43.582811448345076" lon="11.221689066932493"><ele>235.0</ele><time>2026-03-22T09:39:11Z</time></trkpt><trkpt lat="43.58276758026551" lon="11.221566802142505"><ele>236.16666666666666</ele><time>2026-03-22T09:39:12Z</time></trkpt><trkpt lat="43.58276740040083" lon="11.221440016842374"><ele>237.33333333333331</ele><time>2026-03-22T09:39:12.999Z</time></trkpt><trkpt lat="43.58275292891412" lon="11.22132642612808"><ele>238.5</ele><time>2026-03-22T09:39:13.999Z</time></trkpt><trkpt lat="43.58271619766485" lon="11.221220536071414"><ele>239.66666666666669</ele><time>2026-03-22T09:39:14.999Z</time></trkpt><trkpt lat="43.58266741430449" lon="11.221118029896429"><ele>240.83333333333334</ele><time>2026-03-22T09:39:15.999Z</time></trkpt><trkpt lat="43.58263900963902" lon="11.221030292874945"><ele>242.0</ele><time>2026-03-22T09:39:16.999Z</time></trkpt><trkpt lat="43.582631198016294" lon="11.220936927517037"><ele>242.0</ele><time>2026-03-22T09:39:17.999Z</time></trkpt><trkpt lat="43.58261750233314" lon="11.220838055759826"><ele>241.99999999999997</ele><time>2026-03-22T09:39:18.999Z</time></trkpt><trkpt lat="43.58260057048366" lon="11.22074669140194"><ele>242.0</ele><time>2026-03-22T09:39:19.999Z</time></trkpt><trkpt lat="43.58257659664709" lon="11.220664505512637"><ele>242.0</ele><time>2026-03-22T09:39:20.999Z</time></trkpt><trkpt lat="43.582529512477585" lon="11.220587860031612"><ele>241.99999999999997</ele><time>2026-03-22T09:39:21.999Z</time></trkpt><trkpt lat="43.582482414023545" lon="11.220514672072644"><ele>242.0</ele><time>2026-03-22T09:39:22.999Z</time></trkpt><trkpt lat="43.58242150896" lon="11.220415958573577"><ele>242.0</ele><time>2026-03-22T09:39:24.999Z</time></trkpt><trkpt lat="43.5823717318789" lon="11.220322829302493"><ele>241.66666666666669</ele><time>2026-03-22T09:39:27.999Z</time></trkpt><trkpt lat="43.58232355221914" lon="11.220232620715425"><ele>241.33333333333334</ele><time>2026-03-22T09:39:29.999Z</time></trkpt><trkpt lat="43.58225877577836" lon="11.220105598857222"><ele>241.0</ele><time>2026-03-22T09:39:31.999Z</time></trkpt><trkpt lat="43.58221167525276" lon="11.220029290765797"><ele>240.66666666666669</ele><time>2026-03-22T09:39:32.999Z</time></trkpt><trkpt lat="43.58215436872179" lon="11.219976018378723"><ele>240.33333333333334</ele><time>2026-03-22T09:39:33.999Z</time></trkpt><trkpt lat="43.58209686289876" lon="11.21992339074392"><ele>240.0</ele><time>2026-03-22T09:39:34.999Z</time></trkpt><trkpt lat="43.58199645049431" lon="11.219811753570287"><ele>240.0</ele><time>2026-03-22T09:39:36.999Z</time></trkpt><trkpt lat="43.58194890367189" lon="11.219714702723222"><ele>240.0</ele><time>2026-03-22T09:39:37.999Z</time></trkpt><trkpt lat="43.58190246400013" lon="11.219604390281619"><ele>240.0</ele><time>2026-03-22T09:39:38.999Z</time></trkpt><trkpt lat="43.58185285215926" lon="11.219494820902408"><ele>240.0</ele><time>2026-03-22T09:39:39.999Z</time></trkpt><trkpt lat="43.58180280946004" lon="11.219402432732892"><ele>240.0</ele><time>2026-03-22T09:39:40.999Z</time></trkpt><trkpt lat="43.58175641991249" lon="11.21932927321775"><ele>240.0</ele><time>2026-03-22T09:39:41.999Z</time></trkpt><trkpt lat="43.581718018480615" lon="11.219257703006328"><ele>240.0</ele><time>2026-03-22T09:39:45.999Z</time></trkpt><trkpt lat="43.58171777447139" lon="11.219162415131098"><ele>240.0</ele><time>2026-03-22T09:40:02.999Z</time></trkpt><trkpt lat="43.58177332389705" lon="11.219020666974076"><ele>240.0</ele><time>2026-03-22T09:40:04.999Z</time></trkpt><trkpt lat="43.581836301468485" lon="11.218907719654302"><ele>240.0</ele><time>2026-03-22T09:40:05.999Z</time></trkpt><trkpt lat="43.58190298434855" lon="11.218791069653925"><ele>240.0</ele><time>2026-03-22T09:40:06.999Z</time></trkpt><trkpt lat="43.5819701793328" lon="11.218659778493977"><ele>235.25</ele><time>2026-03-22T09:40:07.999Z</time></trkpt><trkpt lat="43.58204427899158" lon="11.21850738655056"><ele>230.5</ele><time>2026-03-22T09:40:08.999Z</time></trkpt><trkpt lat="43.58212011833854" lon="11.218355262788414"><ele>225.75</ele><time>2026-03-22T09:40:09.999Z</time></trkpt><trkpt lat="43.58219311461153" lon="11.218213953872512"><ele>221.0</ele><time>2026-03-22T09:40:10.999Z</time></trkpt><trkpt lat="43.58225667497404" lon="11.218093689733704"><ele>220.33333333333334</ele><time>2026-03-22T09:40:11.999Z</time></trkpt><trkpt lat="43.582315880417696" lon="11.217991058477999"><ele>219.66666666666669</ele><time>2026-03-22T09:40:12.999Z</time></trkpt><trkpt lat="43.5823646013883" lon="11.217896375442702"><ele>219.0</ele><time>2026-03-22T09:40:13.999Z</time></trkpt><trkpt lat="43.582410098347104" lon="11.217808916916407"><ele>218.33333333333331</ele><time>2026-03-22T09:40:14.999Z</time></trkpt><trkpt lat="43.58244510871327" lon="11.217731310664158"><ele>217.66666666666666</ele><time>2026-03-22T09:40:15.999Z</time></trkpt><trkpt lat="43.58246688694472" lon="11.21764414476571"><ele>217.0</ele><time>2026-03-22T09:40:16.999Z</time></trkpt><trkpt lat="43.58247612212247" lon="11.217532513079332"><ele>216.99999999999997</ele><time>2026-03-22T09:40:17.999Z</time></trkpt><trkpt lat="43.58246749141657" lon="11.217423157139072"><ele>217.0</ele><time>2026-03-22T09:40:18.998Z</time></trkpt><trkpt lat="43.582431816034195" lon="11.217317882315061"><ele>217.0</ele><time>2026-03-22T09:40:19.998Z</time></trkpt><trkpt lat="43.58240795751849" lon="11.217232605719616"><ele>217.0</ele><time>2026-03-22T09:40:20.998Z</time></trkpt><trkpt lat="43.58235526992833" lon="11.21715998678542"><ele>216.99999999999997</ele><time>2026-03-22T09:40:21.998Z</time></trkpt><trkpt lat="43.5822602915298" lon="11.217144910075618"><ele>217.0</ele><time>2026-03-22T09:40:22.998Z</time></trkpt><trkpt lat="43.582170684778" lon="11.217117056689377"><ele>216.39999999999998</ele><time>2026-03-22T09:40:23.998Z</time></trkpt><trkpt lat="43.582070629389854" lon="11.217098353005516"><ele>215.79999999999998</ele><time>2026-03-22T09:40:24.998Z</time></trkpt><trkpt lat="43.581985114876005" lon="11.217095967131625"><ele>215.2</ele><time>2026-03-22T09:40:25.998Z</time></trkpt><trkpt lat="43.58190654316283" lon="11.217089852236983"><ele>214.6</ele><time>2026-03-22T09:40:26.998Z</time></trkpt><trkpt lat="43.58183953292235" lon="11.217088898188601"><ele>214.0</ele><time>2026-03-22T09:40:27.998Z</time></trkpt><trkpt lat="43.58174887724162" lon="11.216976765033216"><ele>213.83333333333331</ele><time>2026-03-22T09:40:30Z</time></trkpt><trkpt lat="43.58177020730066" lon="11.21686756048079"><ele>213.66666666666666</ele><time>2026-03-22T09:40:31Z</time></trkpt><trkpt lat="43.58177890624491" lon="11.216694601527129"><ele>213.5</ele><time>2026-03-22T09:40:33Z</time></trkpt><trkpt lat="43.581757590607225" lon="11.216606256208918"><ele>213.33333333333331</ele><time>2026-03-22T09:40:34Z</time></trkpt><trkpt lat="43.58171467425803" lon="11.216535520929776"><ele>213.16666666666666</ele><time>2026-03-22T09:40:35Z</time></trkpt><trkpt lat="43.581665714000735" lon="11.216450659388302"><ele>213.0</ele><time>2026-03-22T09:40:36Z</time></trkpt><trkpt lat="43.58158789483918" lon="11.216405198678922"><ele>213.0</ele><time>2026-03-22T09:40:37Z</time></trkpt><trkpt lat="43.58152789961075" lon="11.216334412701604"><ele>213.0</ele><time>2026-03-22T09:40:38Z</time></trkpt><trkpt lat="43.58149169063608" lon="11.216247199558296"><ele>213.0</ele><time>2026-03-22T09:40:39Z</time></trkpt><trkpt lat="43.581481363618714" lon="11.216129761123513"><ele>213.0</ele><time>2026-03-22T09:40:40Z</time></trkpt><trkpt lat="43.581488430676416" lon="11.215997149179262"><ele>213.0</ele><time>2026-03-22T09:40:41Z</time></trkpt><trkpt lat="43.58150008470306" lon="11.215847657300875"><ele>213.0</ele><time>2026-03-22T09:40:42Z</time></trkpt><trkpt lat="43.58150047122637" lon="11.215689286838446"><ele>212.75</ele><time>2026-03-22T09:40:43Z</time></trkpt><trkpt lat="43.58149789968316" lon="11.21552737680804"><ele>212.5</ele><time>2026-03-22T09:40:44Z</time></trkpt><trkpt lat="43.581499633636376" lon="11.215352733510548"><ele>212.25</ele><time>2026-03-22T09:40:45Z</time></trkpt><trkpt lat="43.58150067795913" lon="11.215177179607512"><ele>212.0</ele><time>2026-03-22T09:40:46Z</time></trkpt><trkpt lat="43.58149860050149" lon="11.215007966566196"><ele>212.0</ele><time>2026-03-22T09:40:47Z</time></trkpt><trkpt lat="43.58150040023382" lon="11.214858924739316"><ele>212.0</ele><time>2026-03-22T09:40:48Z</time></trkpt><trkpt lat="43.581501478743775" lon="11.214720141954611"><ele>212.0</ele><time>2026-03-22T09:40:49Z</time></trkpt><trkpt lat="43.58149818195741" lon="11.214597291772103"><ele>212.0</ele><time>2026-03-22T09:40:50Z</time></trkpt><trkpt lat="43.58149343128209" lon="11.214483218742801"><ele>212.0</ele><time>2026-03-22T09:40:51Z</time></trkpt><trkpt lat="43.581482916483196" lon="11.21437643892308"><ele>210.50000000000003</ele><time>2026-03-22T09:40:52Z</time></trkpt><trkpt lat="43.58146774404961" lon="11.214264325029953"><ele>209.0</ele><time>2026-03-22T09:40:53Z</time></trkpt><trkpt lat="43.58144738165095" lon="11.2141686595178"><ele>207.5</ele><time>2026-03-22T09:40:54Z</time></trkpt><trkpt lat="43.581413040292034" lon="11.21407488966692"><ele>206.0</ele><time>2026-03-22T09:40:55Z</time></trkpt><trkpt lat="43.581371162975024" lon="11.213981836108733"><ele>204.50000000000003</ele><time>2026-03-22T09:40:56Z</time></trkpt><trkpt lat="43.58132140915997" lon="11.213900948725191"><ele>203.0</ele><time>2026-03-22T09:40:57Z</time></trkpt><trkpt lat="43.581263499651676" lon="11.213811867546665"><ele>199.25</ele><time>2026-03-22T09:40:58Z</time></trkpt><trkpt lat="43.58116915917591" lon="11.213725977993262"><ele>195.5</ele><time>2026-03-22T09:40:59Z</time></trkpt><trkpt lat="43.58105568515151" lon="11.213667673591862"><ele>191.75</ele><time>2026-03-22T09:41:00Z</time></trkpt><trkpt lat="43.58094150224284" lon="11.213639953099278"><ele>188.0</ele><time>2026-03-22T09:41:01Z</time></trkpt><trkpt lat="43.58083313882285" lon="11.213629035259567"><ele>188.0</ele><time>2026-03-22T09:41:02Z</time></trkpt><trkpt lat="43.58073183428284" lon="11.213644726900565"><ele>188.0</ele><time>2026-03-22T09:41:03Z</time></trkpt><trkpt lat="43.58064761087678" lon="11.213656627277393"><ele>188.0</ele><time>2026-03-22T09:41:04Z</time></trkpt><trkpt lat="43.580574729244795" lon="11.213656454375842"><ele>188.0</ele><time>2026-03-22T09:41:05Z</time></trkpt><trkpt lat="43.580511544915204" lon="11.213666270227888"><ele>188.0</ele><time>2026-03-22T09:41:06Z</time></trkpt><trkpt lat="43.58046038284794" lon="11.213611541248664"><ele>188.0</ele><time>2026-03-22T09:41:07Z</time></trkpt><trkpt lat="43.58042128666715" lon="11.213520179156792"><ele>188.0</ele><time>2026-03-22T09:41:08Z</time></trkpt><trkpt lat="43.58040095472268" lon="11.21339808539147"><ele>188.0</ele><time>2026-03-22T09:41:09Z</time></trkpt><trkpt lat="43.5803733320872" lon="11.213259448516624"><ele>188.0</ele><time>2026-03-22T09:41:10Z</time></trkpt><trkpt lat="43.580327976443506" lon="11.213106000646718"><ele>188.0</ele><time>2026-03-22T09:41:11Z</time></trkpt><trkpt lat="43.58028304367311" lon="11.212956918450232"><ele>188.0</ele><time>2026-03-22T09:41:12Z</time></trkpt><trkpt lat="43.58024746870918" lon="11.21281375845395"><ele>186.0</ele><time>2026-03-22T09:41:13Z</time></trkpt><trkpt lat="43.58019373306455" lon="11.212550873389842"><ele>184.0</ele><time>2026-03-22T09:41:15Z</time></trkpt><trkpt lat="43.580168016188814" lon="11.212441443706178"><ele>182.0</ele><time>2026-03-22T09:41:16Z</time></trkpt><trkpt lat="43.58015112736053" lon="11.212356248658436"><ele>180.0</ele><time>2026-03-22T09:41:17Z</time></trkpt><trkpt lat="43.5801319218918" lon="11.212262676809294"><ele>178.0</ele><time>2026-03-22T09:41:18.999Z</time></trkpt><trkpt lat="43.58008353383237" lon="11.212160322864564"><ele>177.4</ele><time>2026-03-22T09:41:38.999Z</time></trkpt><trkpt lat="43.57999948093063" lon="11.21215810640752"><ele>176.8</ele><time>2026-03-22T09:41:39.999Z</time></trkpt><trkpt lat="43.57989793159789" lon="11.212168634879761"><ele>176.2</ele><time>2026-03-22T09:41:40.999Z</time></trkpt><trkpt lat="43.57978180995262" lon="11.212207088373907"><ele>175.6</ele><time>2026-03-22T09:41:41.999Z</time></trkpt><trkpt lat="43.57965659942285" lon="11.212259760242528"><ele>175.0</ele><time>2026-03-22T09:41:42.999Z</time></trkpt><trkpt lat="43.57951660685167" lon="11.212324777399122"><ele>175.0</ele><time>2026-03-22T09:41:43.999Z</time></trkpt><trkpt lat="43.57939263377217" lon="11.212384796873037"><ele>175.0</ele><time>2026-03-22T09:41:44.999Z</time></trkpt><trkpt lat="43.57927615561194" lon="11.212444949353255"><ele>175.0</ele><time>2026-03-22T09:41:45.999Z</time></trkpt><trkpt lat="43.57915403578812" lon="11.212508015336564"><ele>175.0</ele><time>2026-03-22T09:41:46.999Z</time></trkpt><trkpt lat="43.579026852423304" lon="11.212573696246489"><ele>175.0</ele><time>2026-03-22T09:41:47.999Z</time></trkpt><trkpt lat="43.57890780516377" lon="11.212672659935775"><ele>175.0</ele><time>2026-03-22T09:41:48.999Z</time></trkpt><trkpt lat="43.57877796211807" lon="11.21274991951565"><ele>175.0</ele><time>2026-03-22T09:41:49.999Z</time></trkpt><trkpt lat="43.578649797109456" lon="11.212848588543418"><ele>175.0</ele><time>2026-03-22T09:41:50.999Z</time></trkpt><trkpt lat="43.57852793350801" lon="11.212963270482419"><ele>175.25</ele><time>2026-03-22T09:41:51.999Z</time></trkpt><trkpt lat="43.57839047719895" lon="11.213069593686166"><ele>175.5</ele><time>2026-03-22T09:41:52.999Z</time></trkpt><trkpt lat="43.57829087628243" lon="11.213215885718029"><ele>175.75</ele><time>2026-03-22T09:41:53.999Z</time></trkpt><trkpt lat="43.57819206018884" lon="11.213343776074616"><ele>176.0</ele><time>2026-03-22T09:41:54.999Z</time></trkpt><trkpt lat="43.57809449010628" lon="11.213471613995603"><ele>176.0</ele><time>2026-03-22T09:41:55.999Z</time></trkpt><trkpt lat="43.578001509339806" lon="11.21359343892057"><ele>176.0</ele><time>2026-03-22T09:41:56.999Z</time></trkpt><trkpt lat="43.57790485975273" lon="11.213723109826418"><ele>176.0</ele><time>2026-03-22T09:41:57.999Z</time></trkpt><trkpt lat="43.57780536690649" lon="11.21385828545427"><ele>176.0</ele><time>2026-03-22T09:41:58.999Z</time></trkpt><trkpt lat="43.57770887033057" lon="11.213989576453386"><ele>175.75</ele><time>2026-03-22T09:41:59.999Z</time></trkpt><trkpt lat="43.5776184324126" lon="11.214109339332527"><ele>175.5</ele><time>2026-03-22T09:42:00.999Z</time></trkpt><trkpt lat="43.5775381816605" lon="11.214211494580644"><ele>175.25</ele><time>2026-03-22T09:42:01.999Z</time></trkpt><trkpt lat="43.57745784721259" lon="11.214302697481568"><ele>175.0</ele><time>2026-03-22T09:42:02.999Z</time></trkpt><trkpt lat="43.57736172572923" lon="11.21438402662945"><ele>175.0</ele><time>2026-03-22T09:42:03.999Z</time></trkpt><trkpt lat="43.577249690604596" lon="11.214451212345981"><ele>175.0</ele><time>2026-03-22T09:42:04.999Z</time></trkpt><trkpt lat="43.57712375654948" lon="11.2145084215072"><ele>175.0</ele><time>2026-03-22T09:42:05.999Z</time></trkpt><trkpt lat="43.57698424221101" lon="11.214560926631895"><ele>175.0</ele><time>2026-03-22T09:42:06.999Z</time></trkpt><trkpt lat="43.57683400920205" lon="11.214615205403442"><ele>174.5</ele><time>2026-03-22T09:42:07.999Z</time></trkpt><trkpt lat="43.57669150544204" lon="11.214683433604106"><ele>174.0</ele><time>2026-03-22T09:42:08.999Z</time></trkpt><trkpt lat="43.57656673999728" lon="11.214759621692755"><ele>173.5</ele><time>2026-03-22T09:42:09.999Z</time></trkpt><trkpt lat="43.57643483019334" lon="11.21483794263412"><ele>173.0</ele><time>2026-03-22T09:42:10.999Z</time></trkpt><trkpt lat="43.57629979307606" lon="11.214897103221029"><ele>174.0</ele><time>2026-03-22T09:42:11.999Z</time></trkpt><trkpt lat="43.57616158296717" lon="11.214952507244838"><ele>175.0</ele><time>2026-03-22T09:42:12.999Z</time></trkpt><trkpt lat="43.5760191013108" lon="11.215008139995756"><ele>176.0</ele><time>2026-03-22T09:42:13.999Z</time></trkpt><trkpt lat="43.575892904167745" lon="11.21505913289082"><ele>177.0</ele><time>2026-03-22T09:42:14.999Z</time></trkpt><trkpt lat="43.57576588586912" lon="11.215117114700321"><ele>177.0</ele><time>2026-03-22T09:42:15.999Z</time></trkpt><trkpt lat="43.575633871302095" lon="11.215181528417842"><ele>177.0</ele><time>2026-03-22T09:42:16.999Z</time></trkpt><trkpt lat="43.57549815090237" lon="11.215247997098748"><ele>177.0</ele><time>2026-03-22T09:42:17.999Z</time></trkpt><trkpt lat="43.57535641552304" lon="11.215310637626034"><ele>177.0</ele><time>2026-03-22T09:42:18.999Z</time></trkpt><trkpt lat="43.575207044798994" lon="11.215370085995536"><ele>176.66666666666666</ele><time>2026-03-22T09:42:19.999Z</time></trkpt><trkpt lat="43.57505087261892" lon="11.215429620966793"><ele>176.33333333333331</ele><time>2026-03-22T09:42:20.999Z</time></trkpt><trkpt lat="43.57489904241692" lon="11.215483812296593"><ele>176.0</ele><time>2026-03-22T09:42:21.999Z</time></trkpt><trkpt lat="43.57474472632187" lon="11.215535654117238"><ele>176.0</ele><time>2026-03-22T09:42:22.999Z</time></trkpt><trkpt lat="43.5745958448131" lon="11.215586762775864"><ele>176.0</ele><time>2026-03-22T09:42:23.999Z</time></trkpt><trkpt lat="43.574436418657235" lon="11.21565799542963"><ele>176.0</ele><time>2026-03-22T09:42:24.998Z</time></trkpt><trkpt lat="43.57429816352261" lon="11.215734420510929"><ele>176.33333333333331</ele><time>2026-03-22T09:42:25.998Z</time></trkpt><trkpt lat="43.57415122970659" lon="11.215797948414199"><ele>176.66666666666666</ele><time>2026-03-22T09:42:26.998Z</time></trkpt><trkpt lat="43.57400473134415" lon="11.21585852365484"><ele>177.0</ele><time>2026-03-22T09:42:27.998Z</time></trkpt><trkpt lat="43.57386234533681" lon="11.215923396265058"><ele>177.0</ele><time>2026-03-22T09:42:28.998Z</time></trkpt><trkpt lat="43.573734930667364" lon="11.215988574762685"><ele>177.0</ele><time>2026-03-22T09:42:29.998Z</time></trkpt><trkpt lat="43.573607586200964" lon="11.216068395017038"><ele>177.0</ele><time>2026-03-22T09:42:30.998Z</time></trkpt><trkpt lat="43.57348442257229" lon="11.216156083167714"><ele>177.0</ele><time>2026-03-22T09:42:31.998Z</time></trkpt><trkpt lat="43.573361601394446" lon="11.216249628651218"><ele>177.5</ele><time>2026-03-22T09:42:32.998Z</time></trkpt><trkpt lat="43.573237204267485" lon="11.216348343369765"><ele>178.0</ele><time>2026-03-22T09:42:33.998Z</time></trkpt><trkpt lat="43.57310835876782" lon="11.216453217280174"><ele>178.5</ele><time>2026-03-22T09:42:34.998Z</time></trkpt><trkpt lat="43.572960782443076" lon="11.216514950472469"><ele>179.0</ele><time>2026-03-22T09:42:36Z</time></trkpt><trkpt lat="43.57280322049563" lon="11.216554370708083"><ele>180.5</ele><time>2026-03-22T09:42:37Z</time></trkpt><trkpt lat="43.57266047313758" lon="11.216567189207105"><ele>182.0</ele><time>2026-03-22T09:42:38Z</time></trkpt><trkpt lat="43.57252253127802" lon="11.216562581209786"><ele>183.5</ele><time>2026-03-22T09:42:39Z</time></trkpt><trkpt lat="43.57240019625678" lon="11.216538991326596"><ele>185.0</ele><time>2026-03-22T09:42:40Z</time></trkpt><trkpt lat="43.572271277777965" lon="11.216496403517842"><ele>183.75</ele><time>2026-03-22T09:42:41Z</time></trkpt><trkpt lat="43.5721429013764" lon="11.216429665102805"><ele>182.5</ele><time>2026-03-22T09:42:42Z</time></trkpt><trkpt lat="43.57201367151382" lon="11.216347699385548"><ele>181.25</ele><time>2026-03-22T09:42:43Z</time></trkpt><trkpt lat="43.571895125648226" lon="11.216246922044412"><ele>180.0</ele><time>2026-03-22T09:42:44Z</time></trkpt><trkpt lat="43.5717984224791" lon="11.216131427469062"><ele>180.0</ele><time>2026-03-22T09:42:45Z</time></trkpt><trkpt lat="43.571711875407736" lon="11.216018256240362"><ele>180.0</ele><time>2026-03-22T09:42:46Z</time></trkpt><trkpt lat="43.57163759786198" lon="11.215915200561117"><ele>180.0</ele><time>2026-03-22T09:42:47Z</time></trkpt><trkpt lat="43.57156606480286" lon="11.215816591765385"><ele>180.0</ele><time>2026-03-22T09:42:48Z</time></trkpt><trkpt lat="43.571493215022386" lon="11.215723687389588"><ele>180.0</ele><time>2026-03-22T09:42:49Z</time></trkpt><trkpt lat="43.571425099707916" lon="11.215631792639869"><ele>179.83333333333334</ele><time>2026-03-22T09:42:50Z</time></trkpt><trkpt lat="43.571364236001365" lon="11.215546869638166"><ele>179.66666666666666</ele><time>2026-03-22T09:42:51Z</time></trkpt><trkpt lat="43.5713021461438" lon="11.21546583480142"><ele>179.5</ele><time>2026-03-22T09:42:52Z</time></trkpt><trkpt lat="43.57124660265168" lon="11.215392451541843"><ele>179.33333333333331</ele><time>2026-03-22T09:42:53Z</time></trkpt><trkpt lat="43.57119871313572" lon="11.215311382167602"><ele>179.16666666666666</ele><time>2026-03-22T09:42:54Z</time></trkpt><trkpt lat="43.57114754861614" lon="11.215246121053612"><ele>179.0</ele><time>2026-03-22T09:42:55Z</time></trkpt><trkpt lat="43.571006771004946" lon="11.215345774561447"><ele>179.75</ele><time>2026-03-22T09:42:56Z</time></trkpt><trkpt lat="43.570910183091165" lon="11.2153978520698"><ele>180.5</ele><time>2026-03-22T09:42:57Z</time></trkpt><trkpt lat="43.57080614176713" lon="11.215467192204725"><ele>181.25</ele><time>2026-03-22T09:42:58Z</time></trkpt><trkpt lat="43.57069960238551" lon="11.215530024386933"><ele>182.0</ele><time>2026-03-22T09:42:59Z</time></trkpt><trkpt lat="43.57058965163793" lon="11.215581750247843"><ele>182.0</ele><time>2026-03-22T09:43:00Z</time></trkpt><trkpt lat="43.57047796484562" lon="11.215631582341361"><ele>182.0</ele><time>2026-03-22T09:43:01Z</time></trkpt><trkpt lat="43.570365819746655" lon="11.215682994915301"><ele>182.0</ele><time>2026-03-22T09:43:02Z</time></trkpt><trkpt lat="43.570254369671446" lon="11.215735144818154"><ele>182.0</ele><time>2026-03-22T09:43:03Z</time></trkpt><trkpt lat="43.57013722638951" lon="11.2157861430014"><ele>182.0</ele><time>2026-03-22T09:43:04Z</time></trkpt><trkpt lat="43.570024997883614" lon="11.215834981602399"><ele>182.0</ele><time>2026-03-22T09:43:05Z</time></trkpt><trkpt lat="43.56991565602295" lon="11.21589042931098"><ele>182.0</ele><time>2026-03-22T09:43:06Z</time></trkpt><trkpt lat="43.569806948602064" lon="11.215950140840082"><ele>182.0</ele><time>2026-03-22T09:43:07Z</time></trkpt><trkpt lat="43.56970094828141" lon="11.216002447961806"><ele>182.0</ele><time>2026-03-22T09:43:08Z</time></trkpt><trkpt lat="43.56958912916898" lon="11.216050627256026"><ele>182.0</ele><time>2026-03-22T09:43:09Z</time></trkpt><trkpt lat="43.56947999938408" lon="11.21609859817747"><ele>182.0</ele><time>2026-03-22T09:43:10Z</time></trkpt><trkpt lat="43.569366023205035" lon="11.216141512050731"><ele>182.0</ele><time>2026-03-22T09:43:11Z</time></trkpt><trkpt lat="43.56924766434279" lon="11.21617943125686"><ele>182.25</ele><time>2026-03-22T09:43:12Z</time></trkpt><trkpt lat="43.56913165308785" lon="11.21621214088242"><ele>182.5</ele><time>2026-03-22T09:43:13Z</time></trkpt><trkpt lat="43.569006265797505" lon="11.216244844971017"><ele>182.75</ele><time>2026-03-22T09:43:14Z</time></trkpt><trkpt lat="43.56888736301381" lon="11.216277067072738"><ele>183.0</ele><time>2026-03-22T09:43:15Z</time></trkpt><trkpt lat="43.56878199216498" lon="11.216311221662158"><ele>184.2</ele><time>2026-03-22T09:43:16Z</time></trkpt><trkpt lat="43.568684706638805" lon="11.216345385600027"><ele>185.4</ele><time>2026-03-22T09:43:17Z</time></trkpt><trkpt lat="43.56858883303351" lon="11.216367661252983"><ele>186.6</ele><time>2026-03-22T09:43:18Z</time></trkpt><trkpt lat="43.56849212090588" lon="11.21639225372896"><ele>187.79999999999998</ele><time>2026-03-22T09:43:19Z</time></trkpt><trkpt lat="43.5683963833878" lon="11.216424436473808"><ele>189.0</ele><time>2026-03-22T09:43:20Z</time></trkpt><trkpt lat="43.56830029404566" lon="11.216455810584888"><ele>189.0</ele><time>2026-03-22T09:43:21Z</time></trkpt><trkpt lat="43.56820040607433" lon="11.216483247358559"><ele>189.0</ele><time>2026-03-22T09:43:22Z</time></trkpt><trkpt lat="43.56811341853939" lon="11.216510885212841"><ele>189.0</ele><time>2026-03-22T09:43:23Z</time></trkpt><trkpt lat="43.568026782239365" lon="11.216542101713292"><ele>189.0</ele><time>2026-03-22T09:43:24Z</time></trkpt><trkpt lat="43.56793552942485" lon="11.21658086409813"><ele>189.0</ele><time>2026-03-22T09:43:24.999Z</time></trkpt><trkpt lat="43.56784143168195" lon="11.216633548314704"><ele>188.5</ele><time>2026-03-22T09:43:25.999Z</time></trkpt><trkpt lat="43.56776047887563" lon="11.216698051098863"><ele>188.0</ele><time>2026-03-22T09:43:26.999Z</time></trkpt><trkpt lat="43.567696613837136" lon="11.216763829607698"><ele>187.5</ele><time>2026-03-22T09:43:27.999Z</time></trkpt><trkpt lat="43.567641340875966" lon="11.216827644653476"><ele>187.0</ele><time>2026-03-22T09:43:28.999Z</time></trkpt><trkpt lat="43.56758936876558" lon="11.216877991606546"><ele>186.5</ele><time>2026-03-22T09:43:29.999Z</time></trkpt><trkpt lat="43.567506102546595" lon="11.216950015610482"><ele>186.0</ele><time>2026-03-22T09:43:31.999Z</time></trkpt><trkpt lat="43.56741794389166" lon="11.21703647309045"><ele>186.0</ele><time>2026-03-22T09:43:33.999Z</time></trkpt><trkpt lat="43.56734685452759" lon="11.217142417540268"><ele>186.0</ele><time>2026-03-22T09:43:35.999Z</time></trkpt><trkpt lat="43.5672954413635" lon="11.217207104141918"><ele>186.0</ele><time>2026-03-22T09:43:37.999Z</time></trkpt><trkpt lat="43.56726210862937" lon="11.21729364707403"><ele>186.0</ele><time>2026-03-22T09:43:40.999Z</time></trkpt><trkpt lat="43.56719871674144" lon="11.217302265149447"><ele>186.0</ele><time>2026-03-22T09:45:27Z</time></trkpt><trkpt lat="43.567147769263684" lon="11.217240127491749"><ele>186.0</ele><time>2026-03-22T09:45:32.999Z</time></trkpt><trkpt lat="43.567100341642416" lon="11.217125149820673"><ele>186.0</ele><time>2026-03-22T09:45:38.999Z</time></trkpt><trkpt lat="43.56722380180163" lon="11.217252293779135"><ele>186.0</ele><time>2026-03-22T09:46:04.425Z</time></trkpt><trkpt lat="43.56726555853466" lon="11.217364102360502"><ele>186.0</ele><time>2026-03-22T09:46:10.424Z</time></trkpt><trkpt lat="43.56722057729238" lon="11.217255068789743"><ele>186.0</ele><time>2026-03-22T09:46:45.02Z</time></trkpt><trkpt lat="43.56734203280646" lon="11.21729769884077"><ele>185.4</ele><time>2026-03-22T09:57:04.998Z</time></trkpt><trkpt lat="43.567309703997616" lon="11.217430559510824"><ele>184.8</ele><time>2026-03-22T10:01:26Z</time></trkpt><trkpt lat="43.56734920331706" lon="11.217553300865681"><ele>184.20000000000002</ele><time>2026-03-22T10:01:28Z</time></trkpt><trkpt lat="43.56739518914831" lon="11.217625990053593"><ele>183.60000000000002</ele><time>2026-03-22T10:01:29Z</time></trkpt><trkpt lat="43.567472131985404" lon="11.217749403697688"><ele>183.0</ele><time>2026-03-22T10:01:31Z</time></trkpt><trkpt lat="43.56749521373518" lon="11.217831896480424"><ele>183.0</ele><time>2026-03-22T10:01:32Z</time></trkpt><trkpt lat="43.567538994239385" lon="11.217898901961235"><ele>183.0</ele><time>2026-03-22T10:01:33Z</time></trkpt><trkpt lat="43.567583563229206" lon="11.217966793956709"><ele>183.0</ele><time>2026-03-22T10:01:34Z</time></trkpt><trkpt lat="43.56763089871035" lon="11.218031651380809"><ele>183.0</ele><time>2026-03-22T10:01:35Z</time></trkpt><trkpt lat="43.5676858107619" lon="11.218086438125004"><ele>183.0</ele><time>2026-03-22T10:01:36Z</time></trkpt><trkpt lat="43.56777868017171" lon="11.218143110221353"><ele>183.0</ele><time>2026-03-22T10:01:38Z</time></trkpt><trkpt lat="43.56768957850897" lon="11.218295142208651"><ele>183.16666666666666</ele><time>2026-03-22T10:01:41Z</time></trkpt><trkpt lat="43.56767867297534" lon="11.218431152551627"><ele>183.33333333333334</ele><time>2026-03-22T10:01:42Z</time></trkpt><trkpt lat="43.56762310949846" lon="11.218528252849946"><ele>183.5</ele><time>2026-03-22T10:01:43Z</time></trkpt><trkpt lat="43.56757668923446" lon="11.218610395858434"><ele>183.66666666666669</ele><time>2026-03-22T10:01:44Z</time></trkpt><trkpt lat="43.567530730547574" lon="11.21869240053306"><ele>183.83333333333334</ele><time>2026-03-22T10:01:45Z</time></trkpt><trkpt lat="43.56744970445007" lon="11.218746534904811"><ele>184.0</ele><time>2026-03-22T10:01:46Z</time></trkpt><trkpt lat="43.56740456581847" lon="11.218827538120756"><ele>184.0</ele><time>2026-03-22T10:01:47Z</time></trkpt><trkpt lat="43.56735659035956" lon="11.218909345291161"><ele>184.0</ele><time>2026-03-22T10:01:48Z</time></trkpt><trkpt lat="43.56729913845641" lon="11.218997805978992"><ele>184.0</ele><time>2026-03-22T10:01:49Z</time></trkpt><trkpt lat="43.56724002611958" lon="11.219078664843675"><ele>184.0</ele><time>2026-03-22T10:01:50Z</time></trkpt><trkpt lat="43.56717729101286" lon="11.219146220656892"><ele>184.0</ele><time>2026-03-22T10:01:51Z</time></trkpt><trkpt lat="43.567116457843355" lon="11.219192681067783"><ele>184.0</ele><time>2026-03-22T10:01:52Z</time></trkpt><trkpt lat="43.56705272898294" lon="11.219236696207268"><ele>184.0</ele><time>2026-03-22T10:01:53Z</time></trkpt><trkpt lat="43.5669876676406" lon="11.219281806955617"><ele>184.0</ele><time>2026-03-22T10:01:54Z</time></trkpt><trkpt lat="43.56691202909707" lon="11.219331827301401"><ele>184.0</ele><time>2026-03-22T10:01:55Z</time></trkpt><trkpt lat="43.566830755056706" lon="11.219385574453193"><ele>184.0</ele><time>2026-03-22T10:01:56Z</time></trkpt><trkpt lat="43.56675428521726" lon="11.219441602186016"><ele>184.0</ele><time>2026-03-22T10:01:57Z</time></trkpt><trkpt lat="43.56666131443327" lon="11.219513563591349"><ele>184.0</ele><time>2026-03-22T10:01:58Z</time></trkpt><trkpt lat="43.566555695248546" lon="11.219601567655488"><ele>184.0</ele><time>2026-03-22T10:01:59Z</time></trkpt><trkpt lat="43.566448778172024" lon="11.219693875122044"><ele>184.0</ele><time>2026-03-22T10:02:00Z</time></trkpt><trkpt lat="43.566335842753766" lon="11.219794204593166"><ele>184.0</ele><time>2026-03-22T10:02:01Z</time></trkpt><trkpt lat="43.56622156779517" lon="11.219901239664015"><ele>184.0</ele><time>2026-03-22T10:02:02Z</time></trkpt><trkpt lat="43.56613066914016" lon="11.219988674608263"><ele>184.0</ele><time>2026-03-22T10:02:03Z</time></trkpt><trkpt lat="43.5660523790565" lon="11.220064566211791"><ele>184.0</ele><time>2026-03-22T10:02:04Z</time></trkpt><trkpt lat="43.56597910416442" lon="11.220135320465278"><ele>184.0</ele><time>2026-03-22T10:02:04.999Z</time></trkpt><trkpt lat="43.5659049307376" lon="11.220206800746048"><ele>184.0</ele><time>2026-03-22T10:02:05.999Z</time></trkpt><trkpt lat="43.56583028824321" lon="11.22027647392932"><ele>184.0</ele><time>2026-03-22T10:02:06.999Z</time></trkpt><trkpt lat="43.565754502156054" lon="11.220346889347645"><ele>184.0</ele><time>2026-03-22T10:02:07.999Z</time></trkpt><trkpt lat="43.56567729263182" lon="11.220418353322033"><ele>184.0</ele><time>2026-03-22T10:02:08.999Z</time></trkpt><trkpt lat="43.56559962190157" lon="11.220487245885108"><ele>184.0</ele><time>2026-03-22T10:02:09.999Z</time></trkpt><trkpt lat="43.56552108592988" lon="11.220555939752531"><ele>184.0</ele><time>2026-03-22T10:02:10.999Z</time></trkpt><trkpt lat="43.56544372585855" lon="11.22062609794429"><ele>184.0</ele><time>2026-03-22T10:02:11.999Z</time></trkpt><trkpt lat="43.565369921404525" lon="11.220703294153331"><ele>185.0</ele><time>2026-03-22T10:02:12.999Z</time></trkpt><trkpt lat="43.565295604101856" lon="11.220791606389739"><ele>186.0</ele><time>2026-03-22T10:02:13.999Z</time></trkpt><trkpt lat="43.56522378198363" lon="11.220887918770005"><ele>187.0</ele><time>2026-03-22T10:02:14.999Z</time></trkpt><trkpt lat="43.565151325598436" lon="11.220992375375673"><ele>188.0</ele><time>2026-03-22T10:02:15.999Z</time></trkpt><trkpt lat="43.56508363985125" lon="11.22109810492657"><ele>189.0</ele><time>2026-03-22T10:02:16.999Z</time></trkpt><trkpt lat="43.565018126164574" lon="11.221208651017836"><ele>189.0</ele><time>2026-03-22T10:02:17.999Z</time></trkpt><trkpt lat="43.56495384579526" lon="11.221321343679953"><ele>189.0</ele><time>2026-03-22T10:02:18.999Z</time></trkpt><trkpt lat="43.56489321408826" lon="11.221432593641035"><ele>189.0</ele><time>2026-03-22T10:02:19.999Z</time></trkpt><trkpt lat="43.564834100854135" lon="11.221551064913108"><ele>189.0</ele><time>2026-03-22T10:02:20.999Z</time></trkpt><trkpt lat="43.564775468485294" lon="11.22167311093471"><ele>189.0</ele><time>2026-03-22T10:02:21.999Z</time></trkpt><trkpt lat="43.56472341552447" lon="11.221812127585501"><ele>188.25</ele><time>2026-03-22T10:02:22.999Z</time></trkpt><trkpt lat="43.564714289924325" lon="11.221996070952674"><ele>187.5</ele><time>2026-03-22T10:02:23.999Z</time></trkpt><trkpt lat="43.56472406165305" lon="11.222164328635797"><ele>186.75</ele><time>2026-03-22T10:02:24.999Z</time></trkpt><trkpt lat="43.56472777971757" lon="11.222307569449002"><ele>186.0</ele><time>2026-03-22T10:02:25.999Z</time></trkpt><trkpt lat="43.56473103733967" lon="11.222433071431205"><ele>186.0</ele><time>2026-03-22T10:02:26.999Z</time></trkpt><trkpt lat="43.56473776367172" lon="11.222640041444603"><ele>186.0</ele><time>2026-03-22T10:02:27.999Z</time></trkpt><trkpt lat="43.56474292450285" lon="11.222792452095735"><ele>186.0</ele><time>2026-03-22T10:02:28.999Z</time></trkpt><trkpt lat="43.56474811577762" lon="11.222945761788942"><ele>186.0</ele><time>2026-03-22T10:02:29.999Z</time></trkpt><trkpt lat="43.56475346090504" lon="11.22310361509816"><ele>185.5</ele><time>2026-03-22T10:02:30.999Z</time></trkpt><trkpt lat="43.564757044180176" lon="11.22328285199377"><ele>185.0</ele><time>2026-03-22T10:02:31.999Z</time></trkpt><trkpt lat="43.5647597969658" lon="11.223477223928366"><ele>184.5</ele><time>2026-03-22T10:02:32.999Z</time></trkpt><trkpt lat="43.564762255168475" lon="11.223650795671743"><ele>184.0</ele><time>2026-03-22T10:02:33.999Z</time></trkpt><trkpt lat="43.56476530275827" lon="11.223825047294874"><ele>185.0</ele><time>2026-03-22T10:02:34.999Z</time></trkpt><trkpt lat="43.56476958081838" lon="11.223997184673346"><ele>186.0</ele><time>2026-03-22T10:02:35.999Z</time></trkpt><trkpt lat="43.5647700501209" lon="11.224175270296703"><ele>187.0</ele><time>2026-03-22T10:02:36.999Z</time></trkpt><trkpt lat="43.56475955630433" lon="11.224348857236066"><ele>188.0</ele><time>2026-03-22T10:02:37.999Z</time></trkpt><trkpt lat="43.564743352324825" lon="11.22449129296636"><ele>188.0</ele><time>2026-03-22T10:02:38.999Z</time></trkpt><trkpt lat="43.56472859786074" lon="11.224644567008973"><ele>188.0</ele><time>2026-03-22T10:02:39.999Z</time></trkpt><trkpt lat="43.56472514939095" lon="11.224808760855504"><ele>188.0</ele><time>2026-03-22T10:02:40.999Z</time></trkpt><trkpt lat="43.5647265160031" lon="11.224969010805276"><ele>188.0</ele><time>2026-03-22T10:02:41.999Z</time></trkpt><trkpt lat="43.564727478671536" lon="11.225135345963318"><ele>189.25</ele><time>2026-03-22T10:02:42.999Z</time></trkpt><trkpt lat="43.56473297648282" lon="11.225305823974129"><ele>190.5</ele><time>2026-03-22T10:02:43.999Z</time></trkpt><trkpt lat="43.564709439724496" lon="11.225460284438615"><ele>191.75</ele><time>2026-03-22T10:02:44.999Z</time></trkpt><trkpt lat="43.564694054078586" lon="11.22561429488175"><ele>193.0</ele><time>2026-03-22T10:02:45.999Z</time></trkpt><trkpt lat="43.56467433337312" lon="11.225767942473533"><ele>192.2</ele><time>2026-03-22T10:02:46.999Z</time></trkpt><trkpt lat="43.56466075644827" lon="11.225924926761085"><ele>191.4</ele><time>2026-03-22T10:02:47.999Z</time></trkpt><trkpt lat="43.56461625186614" lon="11.226072090692426"><ele>190.6</ele><time>2026-03-22T10:02:48.999Z</time></trkpt><trkpt lat="43.564581010610695" lon="11.226221788404654"><ele>189.79999999999998</ele><time>2026-03-22T10:02:49.999Z</time></trkpt><trkpt lat="43.56455444552409" lon="11.226348393488367"><ele>189.0</ele><time>2026-03-22T10:02:50.999Z</time></trkpt><trkpt lat="43.56450711931116" lon="11.22645039391592"><ele>189.66666666666666</ele><time>2026-03-22T10:02:51.999Z</time></trkpt><trkpt lat="43.564467656960765" lon="11.226571476226702"><ele>190.33333333333331</ele><time>2026-03-22T10:02:52.999Z</time></trkpt><trkpt lat="43.56440515142742" lon="11.22664780625085"><ele>191.0</ele><time>2026-03-22T10:02:53.999Z</time></trkpt><trkpt lat="43.564357126171636" lon="11.226723643965656"><ele>191.66666666666666</ele><time>2026-03-22T10:02:54.999Z</time></trkpt><trkpt lat="43.56430959377311" lon="11.226814286024982"><ele>192.33333333333331</ele><time>2026-03-22T10:02:55.999Z</time></trkpt><trkpt lat="43.56425912966319" lon="11.226895172228877"><ele>193.0</ele><time>2026-03-22T10:02:56.999Z</time></trkpt><trkpt lat="43.56420623311766" lon="11.226986721747906"><ele>193.0</ele><time>2026-03-22T10:02:57.999Z</time></trkpt><trkpt lat="43.56415216269183" lon="11.227076753054334"><ele>193.0</ele><time>2026-03-22T10:02:58.999Z</time></trkpt><trkpt lat="43.56409028437911" lon="11.22716023329175"><ele>193.0</ele><time>2026-03-22T10:02:59.999Z</time></trkpt><trkpt lat="43.564010321333726" lon="11.227240939714312"><ele>193.0</ele><time>2026-03-22T10:03:00.999Z</time></trkpt><trkpt lat="43.563917104366354" lon="11.227304243322155"><ele>193.0</ele><time>2026-03-22T10:03:01.999Z</time></trkpt><trkpt lat="43.563816968515525" lon="11.227351067816056"><ele>193.5</ele><time>2026-03-22T10:03:02.999Z</time></trkpt><trkpt lat="43.56371551778842" lon="11.227408415173343"><ele>194.0</ele><time>2026-03-22T10:03:03.999Z</time></trkpt><trkpt lat="43.56361281301727" lon="11.227472332209032"><ele>194.5</ele><time>2026-03-22T10:03:04.999Z</time></trkpt><trkpt lat="43.563505230827424" lon="11.227544946354206"><ele>195.0</ele><time>2026-03-22T10:03:05.999Z</time></trkpt><trkpt lat="43.56340140323139" lon="11.227620389053566"><ele>195.0</ele><time>2026-03-22T10:03:06.999Z</time></trkpt><trkpt lat="43.56330717249199" lon="11.22768950696733"><ele>195.0</ele><time>2026-03-22T10:03:07.999Z</time></trkpt><trkpt lat="43.563229580202844" lon="11.227740462991218"><ele>195.0</ele><time>2026-03-22T10:03:08.999Z</time></trkpt><trkpt lat="43.563164437760534" lon="11.227785962911458"><ele>195.0</ele><time>2026-03-22T10:03:09.998Z</time></trkpt><trkpt lat="43.56306907985151" lon="11.227863043763913"><ele>195.0</ele><time>2026-03-22T10:03:11.998Z</time></trkpt><trkpt lat="43.5630029536235" lon="11.227884592354982"><ele>195.0</ele><time>2026-03-22T10:03:13.998Z</time></trkpt><trkpt lat="43.56301980133569" lon="11.228074204292428"><ele>196.0</ele><time>2026-03-22T10:03:15.998Z</time></trkpt><trkpt lat="43.56311305793753" lon="11.228179204075316"><ele>197.0</ele><time>2026-03-22T10:03:17.998Z</time></trkpt><trkpt lat="43.563174541103784" lon="11.228220274581767"><ele>198.0</ele><time>2026-03-22T10:03:18.998Z</time></trkpt><trkpt lat="43.5632271745448" lon="11.228268328585525"><ele>199.0</ele><time>2026-03-22T10:03:20.998Z</time></trkpt><trkpt lat="43.56327035880237" lon="11.228354869188328"><ele>200.0</ele><time>2026-03-22T10:03:24.998Z</time></trkpt><trkpt lat="43.56324557399155" lon="11.228504724219839"><ele>201.0</ele><time>2026-03-22T10:03:29Z</time></trkpt><trkpt lat="43.56326023850228" lon="11.228590261454253"><ele>201.0</ele><time>2026-03-22T10:03:38Z</time></trkpt><trkpt lat="43.56328158863304" lon="11.228710770052917"><ele>201.0</ele><time>2026-03-22T10:03:52Z</time></trkpt><trkpt lat="43.56333892344726" lon="11.228816373987918"><ele>201.0</ele><time>2026-03-22T10:03:54Z</time></trkpt><trkpt lat="43.56341174693576" lon="11.228867812628426"><ele>201.0</ele><time>2026-03-22T10:03:56Z</time></trkpt><trkpt lat="43.56345643223911" lon="11.228947430851147"><ele>201.0</ele><time>2026-03-22T10:03:57Z</time></trkpt><trkpt lat="43.563501098724174" lon="11.229034558144248"><ele>201.0</ele><time>2026-03-22T10:03:58Z</time></trkpt><trkpt lat="43.56352907748534" lon="11.229178708282523"><ele>202.16666666666666</ele><time>2026-03-22T10:04:00Z</time></trkpt><trkpt lat="43.563518650632794" lon="11.229289684569794"><ele>203.33333333333331</ele><time>2026-03-22T10:04:02Z</time></trkpt><trkpt lat="43.56355385926548" lon="11.229390562038622"><ele>204.5</ele><time>2026-03-22T10:04:04Z</time></trkpt><trkpt lat="43.56358349661378" lon="11.229489057205749"><ele>205.66666666666666</ele><time>2026-03-22T10:04:07Z</time></trkpt><trkpt lat="43.563584469182594" lon="11.229604900575664"><ele>206.83333333333331</ele><time>2026-03-22T10:04:09.999Z</time></trkpt><trkpt lat="43.56361488925255" lon="11.229719993092425"><ele>208.0</ele><time>2026-03-22T10:04:11.999Z</time></trkpt><trkpt lat="43.56369476793865" lon="11.229793272129607"><ele>207.66666666666666</ele><time>2026-03-22T10:04:13.999Z</time></trkpt><trkpt lat="43.56375240756465" lon="11.22985995230695"><ele>207.33333333333331</ele><time>2026-03-22T10:04:15.999Z</time></trkpt><trkpt lat="43.563801074174094" lon="11.229994648908198"><ele>207.0</ele><time>2026-03-22T10:04:17.999Z</time></trkpt><trkpt lat="43.563821830791184" lon="11.230094923630903"><ele>206.66666666666669</ele><time>2026-03-22T10:04:18.999Z</time></trkpt><trkpt lat="43.5638358950654" lon="11.230198335762184"><ele>206.33333333333334</ele><time>2026-03-22T10:04:19.999Z</time></trkpt><trkpt lat="43.56386890950585" lon="11.230305300794198"><ele>206.0</ele><time>2026-03-22T10:04:20.999Z</time></trkpt><trkpt lat="43.56388863274887" lon="11.230438674569871"><ele>206.0</ele><time>2026-03-22T10:04:22.999Z</time></trkpt><trkpt lat="43.56388917318656" lon="11.230574598841452"><ele>206.0</ele><time>2026-03-22T10:04:24.999Z</time></trkpt><trkpt lat="43.56390964654347" lon="11.230771132877836"><ele>206.0</ele><time>2026-03-22T10:04:26.999Z</time></trkpt><trkpt lat="43.56392914673221" lon="11.230886309927536"><ele>206.0</ele><time>2026-03-22T10:04:27.999Z</time></trkpt><trkpt lat="43.56393569992412" lon="11.23098111645807"><ele>206.0</ele><time>2026-03-22T10:04:28.999Z</time></trkpt><trkpt lat="43.5639482664577" lon="11.231081861650114"><ele>207.20000000000002</ele><time>2026-03-22T10:04:29.999Z</time></trkpt><trkpt lat="43.56395112536573" lon="11.231183215152113"><ele>208.4</ele><time>2026-03-22T10:04:30.999Z</time></trkpt><trkpt lat="43.56395480497896" lon="11.231293228024683"><ele>209.6</ele><time>2026-03-22T10:04:31.999Z</time></trkpt><trkpt lat="43.56396281378348" lon="11.231414522405903"><ele>210.8</ele><time>2026-03-22T10:04:32.999Z</time></trkpt><trkpt lat="43.56398811123465" lon="11.231569224477179"><ele>212.0</ele><time>2026-03-22T10:04:34.999Z</time></trkpt><trkpt lat="43.56402579120737" lon="11.23170047052803"><ele>213.83333333333334</ele><time>2026-03-22T10:04:36.999Z</time></trkpt><trkpt lat="43.564119393807445" lon="11.231796433487602"><ele>215.66666666666669</ele><time>2026-03-22T10:04:38.999Z</time></trkpt><trkpt lat="43.564174565655385" lon="11.231854052529405"><ele>217.5</ele><time>2026-03-22T10:04:39.999Z</time></trkpt><trkpt lat="43.564237741803886" lon="11.231945876236143"><ele>219.33333333333331</ele><time>2026-03-22T10:04:41.999Z</time></trkpt><trkpt lat="43.564271374509715" lon="11.232042925261942"><ele>221.16666666666666</ele><time>2026-03-22T10:04:43.999Z</time></trkpt><trkpt lat="43.56433050047531" lon="11.23208906264769"><ele>223.0</ele><time>2026-03-22T10:04:45.999Z</time></trkpt><trkpt lat="43.56441257887357" lon="11.232136632369505"><ele>222.99999999999997</ele><time>2026-03-22T10:04:47.999Z</time></trkpt><trkpt lat="43.5644195991954" lon="11.232264961982821"><ele>223.0</ele><time>2026-03-22T10:04:49.999Z</time></trkpt><trkpt lat="43.56434101711178" lon="11.232351044209599"><ele>223.0</ele><time>2026-03-22T10:04:51.999Z</time></trkpt><trkpt lat="43.5643017511014" lon="11.232456070369533"><ele>223.0</ele><time>2026-03-22T10:04:53.999Z</time></trkpt><trkpt lat="43.56425843365648" lon="11.23251990252018"><ele>222.99999999999997</ele><time>2026-03-22T10:04:54.999Z</time></trkpt><trkpt lat="43.564189074806634" lon="11.232592128249255"><ele>223.0</ele><time>2026-03-22T10:04:56.999Z</time></trkpt><trkpt lat="43.56411502667414" lon="11.23260517411031"><ele>225.49999999999997</ele><time>2026-03-22T10:04:58.999Z</time></trkpt><trkpt lat="43.564056138181016" lon="11.232642308384197"><ele>228.0</ele><time>2026-03-22T10:05:00.999Z</time></trkpt><trkpt lat="43.564005425200214" lon="11.23272419485125"><ele>230.5</ele><time>2026-03-22T10:05:02.999Z</time></trkpt><trkpt lat="43.56391054463822" lon="11.232801327190844"><ele>233.0</ele><time>2026-03-22T10:05:04.999Z</time></trkpt><trkpt lat="43.56386682571962" lon="11.232948295109818"><ele>235.49999999999997</ele><time>2026-03-22T10:05:06.999Z</time></trkpt><trkpt lat="43.56386153587228" lon="11.23304899414183"><ele>238.0</ele><time>2026-03-22T10:05:08.999Z</time></trkpt><trkpt lat="43.563827276933765" lon="11.23315522377669"><ele>239.16666666666666</ele><time>2026-03-22T10:05:54Z</time></trkpt><trkpt lat="43.56381373632915" lon="11.233278699394667"><ele>240.33333333333331</ele><time>2026-03-22T10:05:56Z</time></trkpt><trkpt lat="43.5637597059689" lon="11.23335118018026"><ele>241.5</ele><time>2026-03-22T10:05:58Z</time></trkpt><trkpt lat="43.563700555542965" lon="11.233439263852118"><ele>242.66666666666669</ele><time>2026-03-22T10:06:00Z</time></trkpt><trkpt lat="43.56366504657746" lon="11.233535133629859"><ele>243.83333333333334</ele><time>2026-03-22T10:06:02Z</time></trkpt><trkpt lat="43.56360739088046" lon="11.23363869337077"><ele>245.0</ele><time>2026-03-22T10:06:04Z</time></trkpt><trkpt lat="43.56352860564887" lon="11.233672451039633"><ele>249.6</ele><time>2026-03-22T10:06:06Z</time></trkpt><trkpt lat="43.56344914105211" lon="11.233619320060981"><ele>254.2</ele><time>2026-03-22T10:06:08Z</time></trkpt><trkpt lat="43.56338156221002" lon="11.233494648540308"><ele>258.8</ele><time>2026-03-22T10:06:09.999Z</time></trkpt><trkpt lat="43.56329254334737" lon="11.233393815383565"><ele>263.4</ele><time>2026-03-22T10:06:11.999Z</time></trkpt><trkpt lat="43.563227147937575" lon="11.233356683457465"><ele>268.0</ele><time>2026-03-22T10:06:12.999Z</time></trkpt><trkpt lat="43.563155705294896" lon="11.23332048185023"><ele>268.0</ele><time>2026-03-22T10:06:13.999Z</time></trkpt><trkpt lat="43.563079912364906" lon="11.233283583371177"><ele>268.0</ele><time>2026-03-22T10:06:14.999Z</time></trkpt><trkpt lat="43.56298541571378" lon="11.233301153228801"><ele>268.0</ele><time>2026-03-22T10:06:16.999Z</time></trkpt><trkpt lat="43.562917557232716" lon="11.233311055668347"><ele>268.0</ele><time>2026-03-22T10:06:18.999Z</time></trkpt><trkpt lat="43.56291249740169" lon="11.2334266244945"><ele>268.0</ele><time>2026-03-22T10:06:31.999Z</time></trkpt><trkpt lat="43.562890492275635" lon="11.233540536323527"><ele>268.0</ele><time>2026-03-22T10:06:33.999Z</time></trkpt><trkpt lat="43.562823856000364" lon="11.23363856301799"><ele>270.66666666666663</ele><time>2026-03-22T10:06:35.999Z</time></trkpt><trkpt lat="43.56277035978323" lon="11.23375834666922"><ele>273.3333333333333</ele><time>2026-03-22T10:06:37.999Z</time></trkpt><trkpt lat="43.5627340119735" lon="11.233868275890282"><ele>276.0</ele><time>2026-03-22T10:06:39.999Z</time></trkpt><trkpt lat="43.562709242831325" lon="11.233983785435132"><ele>278.6666666666667</ele><time>2026-03-22T10:06:43.999Z</time></trkpt><trkpt lat="43.562684205396366" lon="11.234093095103576"><ele>281.33333333333337</ele><time>2026-03-22T10:06:46.999Z</time></trkpt><trkpt lat="43.56266049151115" lon="11.234193146907964"><ele>284.0</ele><time>2026-03-22T10:06:48.999Z</time></trkpt><trkpt lat="43.56264336287867" lon="11.234360347840656"><ele>284.6666666666667</ele><time>2026-03-22T10:06:50.999Z</time></trkpt><trkpt lat="43.56263912906078" lon="11.234465089271218"><ele>285.33333333333337</ele><time>2026-03-22T10:06:51.999Z</time></trkpt><trkpt lat="43.562632395385265" lon="11.23456412522624"><ele>286.0</ele><time>2026-03-22T10:06:52.999Z</time></trkpt><trkpt lat="43.562618339163734" lon="11.234668800169189"><ele>286.6666666666667</ele><time>2026-03-22T10:06:53.999Z</time></trkpt><trkpt lat="43.56258290867345" lon="11.234773552723365"><ele>287.3333333333333</ele><time>2026-03-22T10:06:54.999Z</time></trkpt><trkpt lat="43.56255977737035" lon="11.23489335483394"><ele>288.0</ele><time>2026-03-22T10:06:55.999Z</time></trkpt><trkpt lat="43.56256690184674" lon="11.235005486823637"><ele>288.1666666666667</ele><time>2026-03-22T10:06:56.999Z</time></trkpt><trkpt lat="43.56261284577971" lon="11.23512082584892"><ele>288.3333333333333</ele><time>2026-03-22T10:06:57.999Z</time></trkpt><trkpt lat="43.562655218954085" lon="11.235217618808486"><ele>288.5</ele><time>2026-03-22T10:06:58.999Z</time></trkpt><trkpt lat="43.56269789113069" lon="11.235339342302932"><ele>288.66666666666663</ele><time>2026-03-22T10:06:59.999Z</time></trkpt><trkpt lat="43.56272305270767" lon="11.235434580117687"><ele>288.8333333333333</ele><time>2026-03-22T10:07:00.999Z</time></trkpt><trkpt lat="43.56274303176511" lon="11.235550792066444"><ele>289.0</ele><time>2026-03-22T10:07:01.999Z</time></trkpt><trkpt lat="43.562762648938715" lon="11.235724332609877"><ele>289.8333333333333</ele><time>2026-03-22T10:07:03.999Z</time></trkpt><trkpt lat="43.56274468271457" lon="11.235810607408697"><ele>290.66666666666663</ele><time>2026-03-22T10:07:04.999Z</time></trkpt><trkpt lat="43.56270610611007" lon="11.235901973395023"><ele>291.5</ele><time>2026-03-22T10:07:05.999Z</time></trkpt><trkpt lat="43.562676458428236" lon="11.235978628941075"><ele>292.3333333333333</ele><time>2026-03-22T10:07:06.999Z</time></trkpt><trkpt lat="43.56271995652869" lon="11.236114386509875"><ele>293.1666666666667</ele><time>2026-03-22T10:07:08.999Z</time></trkpt><trkpt lat="43.562770019665365" lon="11.236196890408129"><ele>294.0</ele><time>2026-03-22T10:07:09.999Z</time></trkpt><trkpt lat="43.562784409169026" lon="11.23635828597505"><ele>294.0</ele><time>2026-03-22T10:07:10.999Z</time></trkpt><trkpt lat="43.562832112131545" lon="11.236434608350205"><ele>294.0</ele><time>2026-03-22T10:07:11.999Z</time></trkpt><trkpt lat="43.56288708561389" lon="11.236561662843956"><ele>294.0</ele><time>2026-03-22T10:07:13.999Z</time></trkpt><trkpt lat="43.56291957456435" lon="11.236664723139349"><ele>294.0</ele><time>2026-03-22T10:07:15.999Z</time></trkpt><trkpt lat="43.562945477360515" lon="11.236777640980291"><ele>294.0</ele><time>2026-03-22T10:07:19.998Z</time></trkpt><trkpt lat="43.563002952447604" lon="11.236960060196418"><ele>293.5</ele><time>2026-03-22T10:07:21.998Z</time></trkpt><trkpt lat="43.563016086068664" lon="11.23708403222989"><ele>293.0</ele><time>2026-03-22T10:07:22.998Z</time></trkpt><trkpt lat="43.563035212140264" lon="11.237180823225678"><ele>292.5</ele><time>2026-03-22T10:07:23.998Z</time></trkpt><trkpt lat="43.563058368521006" lon="11.237291011276671"><ele>292.0</ele><time>2026-03-22T10:07:24.998Z</time></trkpt><trkpt lat="43.563108426620545" lon="11.237407420976648"><ele>291.5</ele><time>2026-03-22T10:07:25.998Z</time></trkpt><trkpt lat="43.563176713529145" lon="11.237508178718972"><ele>291.0</ele><time>2026-03-22T10:07:26.998Z</time></trkpt><trkpt lat="43.56323658519041" lon="11.237583300192625"><ele>293.5</ele><time>2026-03-22T10:07:27.998Z</time></trkpt><trkpt lat="43.56331212996623" lon="11.23766153478878"><ele>296.0</ele><time>2026-03-22T10:07:29.998Z</time></trkpt><trkpt lat="43.563349350036695" lon="11.23776085625704"><ele>298.5</ele><time>2026-03-22T10:07:31.998Z</time></trkpt><trkpt lat="43.563385052577964" lon="11.237855029646987"><ele>301.0</ele><time>2026-03-22T10:07:36.998Z</time></trkpt><trkpt lat="43.56341540206514" lon="11.23793524703059"><ele>303.5</ele><time>2026-03-22T10:07:42Z</time></trkpt><trkpt lat="43.563474323837916" lon="11.238077564965579"><ele>306.0</ele><time>2026-03-22T10:07:44Z</time></trkpt><trkpt lat="43.56356107026611" lon="11.238196201101319"><ele>307.8333333333333</ele><time>2026-03-22T10:07:46Z</time></trkpt><trkpt lat="43.563605012380094" lon="11.238265060142313"><ele>309.6666666666667</ele><time>2026-03-22T10:07:47Z</time></trkpt><trkpt lat="43.563663980683515" lon="11.238320851739825"><ele>311.5</ele><time>2026-03-22T10:07:48Z</time></trkpt><trkpt lat="43.56373783089737" lon="11.238362579445432"><ele>313.33333333333337</ele><time>2026-03-22T10:07:49Z</time></trkpt><trkpt lat="43.563803374965204" lon="11.23844394288143"><ele>315.1666666666667</ele><time>2026-03-22T10:07:50Z</time></trkpt><trkpt lat="43.56386845720731" lon="11.23850201287393"><ele>317.0</ele><time>2026-03-22T10:07:51Z</time></trkpt><trkpt lat="43.56391156844509" lon="11.238622371791969"><ele>317.4</ele><time>2026-03-22T10:07:53Z</time></trkpt><trkpt lat="43.563853078846925" lon="11.238763325201335"><ele>317.79999999999995</ele><time>2026-03-22T10:07:55Z</time></trkpt><trkpt lat="43.563824535592325" lon="11.238870732264418"><ele>318.2</ele><time>2026-03-22T10:07:56Z</time></trkpt><trkpt lat="43.56380403091123" lon="11.238989112911163"><ele>318.59999999999997</ele><time>2026-03-22T10:07:57Z</time></trkpt><trkpt lat="43.56379634466131" lon="11.239077230022307"><ele>319.0</ele><time>2026-03-22T10:07:58Z</time></trkpt><trkpt lat="43.563872270552274" lon="11.23922141188855"><ele>319.8571428571429</ele><time>2026-03-22T10:08:00Z</time></trkpt><trkpt lat="43.56392328090726" lon="11.239279910005378"><ele>320.71428571428567</ele><time>2026-03-22T10:08:01Z</time></trkpt><trkpt lat="43.56398198512573" lon="11.239353349938177"><ele>321.57142857142856</ele><time>2026-03-22T10:08:02Z</time></trkpt><trkpt lat="43.56404596343" lon="11.239424825113606"><ele>322.42857142857144</ele><time>2026-03-22T10:08:03Z</time></trkpt><trkpt lat="43.56409929645815" lon="11.239498367628157"><ele>323.28571428571433</ele><time>2026-03-22T10:08:04Z</time></trkpt><trkpt lat="43.56412663339848" lon="11.239579809468982"><ele>324.1428571428571</ele><time>2026-03-22T10:08:05Z</time></trkpt><trkpt lat="43.56412182886914" lon="11.239677231895417"><ele>325.0</ele><time>2026-03-22T10:08:06Z</time></trkpt><trkpt lat="43.56411749183218" lon="11.239773405271078"><ele>325.0</ele><time>2026-03-22T10:08:07Z</time></trkpt><trkpt lat="43.564106728717505" lon="11.239859416118392"><ele>325.0</ele><time>2026-03-22T10:08:08Z</time></trkpt><trkpt lat="43.564084999454245" lon="11.239951853754318"><ele>325.0</ele><time>2026-03-22T10:08:10Z</time></trkpt><trkpt lat="43.564045077016694" lon="11.240023559866776"><ele>325.0</ele><time>2026-03-22T10:08:15Z</time></trkpt><trkpt lat="43.56399616519155" lon="11.24008458245623"><ele>325.0</ele><time>2026-03-22T10:08:16.999Z</time></trkpt><trkpt lat="43.56392489644912" lon="11.240218864286774"><ele>325.0</ele><time>2026-03-22T10:08:18.999Z</time></trkpt><trkpt lat="43.56388289190597" lon="11.240300927809807"><ele>325.0</ele><time>2026-03-22T10:08:19.999Z</time></trkpt><trkpt lat="43.56382768409346" lon="11.240389787415477"><ele>325.0</ele><time>2026-03-22T10:08:20.999Z</time></trkpt><trkpt lat="43.56377611772258" lon="11.240482206809249"><ele>325.0</ele><time>2026-03-22T10:08:21.999Z</time></trkpt><trkpt lat="43.56370371166199" lon="11.240555757377438"><ele>325.0</ele><time>2026-03-22T10:08:22.999Z</time></trkpt><trkpt lat="43.56362423623803" lon="11.240608430618847"><ele>325.0</ele><time>2026-03-22T10:08:23.999Z</time></trkpt><trkpt lat="43.56355682126024" lon="11.240679503308622"><ele>325.0</ele><time>2026-03-22T10:08:24.999Z</time></trkpt><trkpt lat="43.56350482687774" lon="11.24073581761295"><ele>326.0</ele><time>2026-03-22T10:08:25.999Z</time></trkpt><trkpt lat="43.5634224735982" lon="11.240853973917055"><ele>327.0</ele><time>2026-03-22T10:08:27.999Z</time></trkpt><trkpt lat="43.563380996535784" lon="11.240927168906316"><ele>328.0</ele><time>2026-03-22T10:08:28.999Z</time></trkpt><trkpt lat="43.56333631094307" lon="11.241015910549846"><ele>329.0</ele><time>2026-03-22T10:08:29.999Z</time></trkpt><trkpt lat="43.56329279077044" lon="11.241119452510373"><ele>330.0</ele><time>2026-03-22T10:08:30.999Z</time></trkpt><trkpt lat="43.56325972500933" lon="11.241225649044171"><ele>331.0</ele><time>2026-03-22T10:08:31.999Z</time></trkpt><trkpt lat="43.563239487296826" lon="11.241403236714932"><ele>332.4</ele><time>2026-03-22T10:08:33.999Z</time></trkpt><trkpt lat="43.56324381289283" lon="11.241495590848697"><ele>333.8</ele><time>2026-03-22T10:08:34.999Z</time></trkpt><trkpt lat="43.563269294734724" lon="11.241610466837654"><ele>335.2</ele><time>2026-03-22T10:08:35.999Z</time></trkpt><trkpt lat="43.56329434678717" lon="11.241724556850345"><ele>336.59999999999997</ele><time>2026-03-22T10:08:36.999Z</time></trkpt><trkpt lat="43.5633208605805" lon="11.241863038189054"><ele>338.0</ele><time>2026-03-22T10:08:37.999Z</time></trkpt><trkpt lat="43.56335035072888" lon="11.24201706476098"><ele>338.0</ele><time>2026-03-22T10:08:38.999Z</time></trkpt><trkpt lat="43.56338291043696" lon="11.242177776453111"><ele>338.0</ele><time>2026-03-22T10:08:39.999Z</time></trkpt><trkpt lat="43.563422315749335" lon="11.242335610201042"><ele>338.0</ele><time>2026-03-22T10:08:40.999Z</time></trkpt><trkpt lat="43.563474233713265" lon="11.24249470032611"><ele>338.0</ele><time>2026-03-22T10:08:41.999Z</time></trkpt><trkpt lat="43.563518990439306" lon="11.242627851577458"><ele>339.59999999999997</ele><time>2026-03-22T10:08:42.999Z</time></trkpt><trkpt lat="43.56355423933276" lon="11.24275361824707"><ele>341.2</ele><time>2026-03-22T10:08:43.999Z</time></trkpt><trkpt lat="43.56359038247222" lon="11.242898871326922"><ele>342.8</ele><time>2026-03-22T10:08:44.999Z</time></trkpt><trkpt lat="43.563617595772634" lon="11.243030911620982"><ele>344.4</ele><time>2026-03-22T10:08:45.999Z</time></trkpt><trkpt lat="43.563638008959494" lon="11.243162348476208"><ele>346.0</ele><time>2026-03-22T10:08:46.999Z</time></trkpt><trkpt lat="43.563646082811324" lon="11.243276509938392"><ele>346.25</ele><time>2026-03-22T10:08:47.999Z</time></trkpt><trkpt lat="43.563629381317334" lon="11.243393681782091"><ele>346.5</ele><time>2026-03-22T10:08:49.999Z</time></trkpt><trkpt lat="43.56362146868271" lon="11.243507187993846"><ele>346.75</ele><time>2026-03-22T10:08:51.999Z</time></trkpt><trkpt lat="43.56361696200263" lon="11.24365270470378"><ele>347.0</ele><time>2026-03-22T10:08:53.999Z</time></trkpt><trkpt lat="43.56389935874624" lon="11.243785549291337"><ele>347.0</ele><time>2026-03-22T10:08:54.999Z</time></trkpt><trkpt lat="43.56396864225595" lon="11.243901978715076"><ele>347.0</ele><time>2026-03-22T10:08:55.999Z</time></trkpt><trkpt lat="43.56401686009025" lon="11.244014998538509"><ele>347.0</ele><time>2026-03-22T10:08:56.999Z</time></trkpt><trkpt lat="43.56405964545839" lon="11.244129561567215"><ele>347.0</ele><time>2026-03-22T10:08:57.999Z</time></trkpt><trkpt lat="43.56410349266647" lon="11.244261968671546"><ele>347.0</ele><time>2026-03-22T10:08:58.999Z</time></trkpt><trkpt lat="43.564137820359136" lon="11.244397746237636"><ele>348.75</ele><time>2026-03-22T10:08:59.999Z</time></trkpt><trkpt lat="43.56415894638379" lon="11.244543425782247"><ele>350.5</ele><time>2026-03-22T10:09:00.999Z</time></trkpt><trkpt lat="43.5641662247072" lon="11.244689345690354"><ele>352.25</ele><time>2026-03-22T10:09:01.999Z</time></trkpt><trkpt lat="43.56418077565142" lon="11.244846313806002"><ele>354.0</ele><time>2026-03-22T10:09:02.999Z</time></trkpt><trkpt lat="43.56420573613376" lon="11.24501114098284"><ele>356.5</ele><time>2026-03-22T10:09:03.999Z</time></trkpt><trkpt lat="43.56423991322498" lon="11.245181024950476"><ele>359.0</ele><time>2026-03-22T10:09:04.999Z</time></trkpt><trkpt lat="43.56427087881917" lon="11.245313601662003"><ele>361.5</ele><time>2026-03-22T10:09:05.999Z</time></trkpt><trkpt lat="43.564296768682915" lon="11.245431732406258"><ele>364.0</ele><time>2026-03-22T10:09:06.999Z</time></trkpt><trkpt lat="43.5641651494195" lon="11.245618278157474"><ele>365.75</ele><time>2026-03-22T10:09:07.999Z</time></trkpt><trkpt lat="43.56416672051008" lon="11.245726811538805"><ele>367.5</ele><time>2026-03-22T10:09:08.999Z</time></trkpt><trkpt lat="43.56414425936488" lon="11.245915823106078"><ele>369.25</ele><time>2026-03-22T10:09:10.999Z</time></trkpt><trkpt lat="43.564106854468385" lon="11.245986995279292"><ele>371.0</ele><time>2026-03-22T10:09:11.999Z</time></trkpt><trkpt lat="43.56439708186003" lon="11.246195458789957"><ele>371.0</ele><time>2026-03-22T10:09:12.999Z</time></trkpt><trkpt lat="43.56444527494207" lon="11.24631829902201"><ele>371.0</ele><time>2026-03-22T10:09:13.999Z</time></trkpt><trkpt lat="43.56449755884667" lon="11.24645925271898"><ele>371.0</ele><time>2026-03-22T10:09:14.999Z</time></trkpt><trkpt lat="43.564538870945654" lon="11.246596193029871"><ele>371.0</ele><time>2026-03-22T10:09:15.999Z</time></trkpt><trkpt lat="43.56455838065514" lon="11.24672753502023"><ele>371.0</ele><time>2026-03-22T10:09:16.999Z</time></trkpt><trkpt lat="43.56455875922718" lon="11.246868847199726"><ele>371.33333333333337</ele><time>2026-03-22T10:09:17.999Z</time></trkpt><trkpt lat="43.564550975291475" lon="11.246990211575406"><ele>371.6666666666667</ele><time>2026-03-22T10:09:18.999Z</time></trkpt><trkpt lat="43.56452849003865" lon="11.24707542381625"><ele>372.0</ele><time>2026-03-22T10:09:19.999Z</time></trkpt><trkpt lat="43.56450356512401" lon="11.24716776670984"><ele>372.3333333333333</ele><time>2026-03-22T10:09:20.999Z</time></trkpt><trkpt lat="43.564469030913706" lon="11.247295673884302"><ele>372.66666666666663</ele><time>2026-03-22T10:09:21.999Z</time></trkpt><trkpt lat="43.56444946666219" lon="11.247437732223577"><ele>373.0</ele><time>2026-03-22T10:09:22.999Z</time></trkpt><trkpt lat="43.56446145540021" lon="11.24759507198483"><ele>375.4</ele><time>2026-03-22T10:09:23.999Z</time></trkpt><trkpt lat="43.5644881472101" lon="11.24775361537383"><ele>377.79999999999995</ele><time>2026-03-22T10:09:24.999Z</time></trkpt><trkpt lat="43.564502787234254" lon="11.247879699151783"><ele>380.2</ele><time>2026-03-22T10:09:25.998Z</time></trkpt><trkpt lat="43.564490691351914" lon="11.248001118861865"><ele>382.6</ele><time>2026-03-22T10:09:26.998Z</time></trkpt><trkpt lat="43.564441922375785" lon="11.248146763938635"><ele>385.0</ele><time>2026-03-22T10:09:27.998Z</time></trkpt><trkpt lat="43.564378048679586" lon="11.248318482147532"><ele>385.6</ele><time>2026-03-22T10:09:28.998Z</time></trkpt><trkpt lat="43.5643193942151" lon="11.248472456187264"><ele>386.2</ele><time>2026-03-22T10:09:29.998Z</time></trkpt><trkpt lat="43.56426772920277" lon="11.248607175522102"><ele>386.79999999999995</ele><time>2026-03-22T10:09:30.998Z</time></trkpt><trkpt lat="43.56423889468824" lon="11.248754017854456"><ele>387.4</ele><time>2026-03-22T10:09:31.998Z</time></trkpt><trkpt lat="43.56421952235559" lon="11.248892787962099"><ele>388.0</ele><time>2026-03-22T10:09:32.998Z</time></trkpt><trkpt lat="43.56419298342472" lon="11.249019024987964"><ele>388.79999999999995</ele><time>2026-03-22T10:09:33.998Z</time></trkpt><trkpt lat="43.564158097618396" lon="11.249137524404377"><ele>389.6</ele><time>2026-03-22T10:09:34.998Z</time></trkpt><trkpt lat="43.56410462286174" lon="11.249242259714944"><ele>390.4</ele><time>2026-03-22T10:09:35.998Z</time></trkpt><trkpt lat="43.56403546136793" lon="11.249351700207217"><ele>391.20000000000005</ele><time>2026-03-22T10:09:36.998Z</time></trkpt><trkpt lat="43.563955853611205" lon="11.24945507173135"><ele>392.0</ele><time>2026-03-22T10:09:37.998Z</time></trkpt><trkpt lat="43.56387553550019" lon="11.249558607459933"><ele>392.0</ele><time>2026-03-22T10:09:38.998Z</time></trkpt><trkpt lat="43.563811558697736" lon="11.249678021428142"><ele>392.0</ele><time>2026-03-22T10:09:39.998Z</time></trkpt><trkpt lat="43.563770329130044" lon="11.249795930606467"><ele>392.0</ele><time>2026-03-22T10:09:40.998Z</time></trkpt><trkpt lat="43.563729759416006" lon="11.249901882938127"><ele>392.0</ele><time>2026-03-22T10:09:41.998Z</time></trkpt><trkpt lat="43.563685658735515" lon="11.2500059379903"><ele>392.0</ele><time>2026-03-22T10:09:42.998Z</time></trkpt><trkpt lat="43.56364704726766" lon="11.25012638986709"><ele>390.40000000000003</ele><time>2026-03-22T10:09:43.998Z</time></trkpt><trkpt lat="43.56362682115574" lon="11.250270586938596"><ele>388.8</ele><time>2026-03-22T10:09:44.998Z</time></trkpt><trkpt lat="43.56361370255806" lon="11.250407392419369"><ele>387.2</ele><time>2026-03-22T10:09:46Z</time></trkpt><trkpt lat="43.56360517029072" lon="11.250503024692446"><ele>385.6</ele><time>2026-03-22T10:09:47Z</time></trkpt><trkpt lat="43.56360852609792" lon="11.250680797453636"><ele>384.0</ele><time>2026-03-22T10:09:49Z</time></trkpt><trkpt lat="43.56364312092266" lon="11.25076373446146"><ele>382.8333333333333</ele><time>2026-03-22T10:09:50Z</time></trkpt><trkpt lat="43.5636864444235" lon="11.250850564850177"><ele>381.6666666666667</ele><time>2026-03-22T10:09:51Z</time></trkpt><trkpt lat="43.56371752779185" lon="11.250934545498747"><ele>380.5</ele><time>2026-03-22T10:09:52Z</time></trkpt><trkpt lat="43.56370507951012" lon="11.251030017652658"><ele>379.33333333333337</ele><time>2026-03-22T10:09:53Z</time></trkpt><trkpt lat="43.563664241015374" lon="11.251136797322879"><ele>378.1666666666667</ele><time>2026-03-22T10:09:54Z</time></trkpt><trkpt lat="43.56360848633724" lon="11.251246353592727"><ele>377.0</ele><time>2026-03-22T10:09:55Z</time></trkpt><trkpt lat="43.56354979291284" lon="11.251316937989538"><ele>377.0</ele><time>2026-03-22T10:09:56Z</time></trkpt><trkpt lat="43.56348189109572" lon="11.251359994863632"><ele>377.0</ele><time>2026-03-22T10:09:57Z</time></trkpt><trkpt lat="43.56342283529321" lon="11.251462089517352"><ele>377.0</ele><time>2026-03-22T10:09:59Z</time></trkpt><trkpt lat="43.56347012778519" lon="11.251643327102702"><ele>377.0</ele><time>2026-03-22T10:10:01Z</time></trkpt><trkpt lat="43.563496958326716" lon="11.251744462674058"><ele>377.0</ele><time>2026-03-22T10:10:02Z</time></trkpt><trkpt lat="43.56349305146159" lon="11.251841460400666"><ele>376.33333333333337</ele><time>2026-03-22T10:10:03Z</time></trkpt><trkpt lat="43.56346708839441" lon="11.251959394689342"><ele>375.6666666666667</ele><time>2026-03-22T10:10:04Z</time></trkpt><trkpt lat="43.56344262665705" lon="11.25204346072681"><ele>375.0</ele><time>2026-03-22T10:10:05Z</time></trkpt><trkpt lat="43.56340019337835" lon="11.252109410534958"><ele>374.3333333333333</ele><time>2026-03-22T10:10:06Z</time></trkpt><trkpt lat="43.56332639309746" lon="11.252169994953451"><ele>373.66666666666663</ele><time>2026-03-22T10:10:07Z</time></trkpt><trkpt lat="43.563230356731324" lon="11.252208416635494"><ele>373.0</ele><time>2026-03-22T10:10:08Z</time></trkpt><trkpt lat="43.56311575781145" lon="11.252218486410948"><ele>373.0</ele><time>2026-03-22T10:10:09Z</time></trkpt><trkpt lat="43.5630110939637" lon="11.252225540361577"><ele>373.0</ele><time>2026-03-22T10:10:10Z</time></trkpt><trkpt lat="43.562911565888236" lon="11.252253264925784"><ele>373.0</ele><time>2026-03-22T10:10:11Z</time></trkpt><trkpt lat="43.56280248662595" lon="11.25233679375962"><ele>373.0</ele><time>2026-03-22T10:10:12Z</time></trkpt><trkpt lat="43.562672001467114" lon="11.25244489645816"><ele>372.4</ele><time>2026-03-22T10:10:13Z</time></trkpt><trkpt lat="43.56257115356673" lon="11.252531486774656"><ele>371.79999999999995</ele><time>2026-03-22T10:10:14Z</time></trkpt><trkpt lat="43.562503703457296" lon="11.252608525573239"><ele>371.2</ele><time>2026-03-22T10:10:15Z</time></trkpt><trkpt lat="43.56244228106689" lon="11.25266103428592"><ele>370.6</ele><time>2026-03-22T10:10:16Z</time></trkpt><trkpt lat="43.5623654206957" lon="11.252709935063088"><ele>370.0</ele><time>2026-03-22T10:10:17Z</time></trkpt><trkpt lat="43.5622864711547" lon="11.252764316674915"><ele>370.0</ele><time>2026-03-22T10:10:18Z</time></trkpt><trkpt lat="43.562208977391684" lon="11.252806004933928"><ele>370.0</ele><time>2026-03-22T10:10:19Z</time></trkpt><trkpt lat="43.56211793612322" lon="11.252843598166292"><ele>370.0</ele><time>2026-03-22T10:10:20Z</time></trkpt><trkpt lat="43.56202426911769" lon="11.252886112973224"><ele>370.0</ele><time>2026-03-22T10:10:20.999Z</time></trkpt><trkpt lat="43.56191423466967" lon="11.25293973015476"><ele>370.0</ele><time>2026-03-22T10:10:21.999Z</time></trkpt><trkpt lat="43.56179510410453" lon="11.252970730031176"><ele>370.0</ele><time>2026-03-22T10:10:22.999Z</time></trkpt><trkpt lat="43.56168721606823" lon="11.25301728684036"><ele>370.0</ele><time>2026-03-22T10:10:23.999Z</time></trkpt><trkpt lat="43.56160004528176" lon="11.253099449436327"><ele>370.0</ele><time>2026-03-22T10:10:24.999Z</time></trkpt><trkpt lat="43.5615009042731" lon="11.253140502552842"><ele>370.0</ele><time>2026-03-22T10:10:25.999Z</time></trkpt><trkpt lat="43.561416484108754" lon="11.253190749622686"><ele>370.0</ele><time>2026-03-22T10:10:26.999Z</time></trkpt><trkpt lat="43.56132787781054" lon="11.25323977905206"><ele>370.0</ele><time>2026-03-22T10:10:27.999Z</time></trkpt><trkpt lat="43.56125135696109" lon="11.253305525597387"><ele>370.0</ele><time>2026-03-22T10:10:28.999Z</time></trkpt><trkpt lat="43.56117274188093" lon="11.253343398370927"><ele>370.0</ele><time>2026-03-22T10:10:29.999Z</time></trkpt><trkpt lat="43.561088031719244" lon="11.25336676059104"><ele>370.0</ele><time>2026-03-22T10:10:30.999Z</time></trkpt><trkpt lat="43.56102478321606" lon="11.253422987182303"><ele>370.0</ele><time>2026-03-22T10:10:31.999Z</time></trkpt><trkpt lat="43.560952460265426" lon="11.2534354950671"><ele>370.0</ele><time>2026-03-22T10:10:33.999Z</time></trkpt><trkpt lat="43.56099273439863" lon="11.25364259615097"><ele>370.8333333333333</ele><time>2026-03-22T10:10:36.999Z</time></trkpt><trkpt lat="43.56101794568311" lon="11.253728016237408"><ele>371.66666666666663</ele><time>2026-03-22T10:10:46.999Z</time></trkpt><trkpt lat="43.561050852066714" lon="11.253853563282865"><ele>372.5</ele><time>2026-03-22T10:10:48.999Z</time></trkpt><trkpt lat="43.56107435654012" lon="11.253959629196485"><ele>373.3333333333333</ele><time>2026-03-22T10:10:49.999Z</time></trkpt><trkpt lat="43.561097636107455" lon="11.254061456964374"><ele>374.1666666666667</ele><time>2026-03-22T10:10:50.999Z</time></trkpt><trkpt lat="43.561119476805366" lon="11.254152688683984"><ele>375.0</ele><time>2026-03-22T10:10:51.999Z</time></trkpt><trkpt lat="43.56114463711948" lon="11.254275818164368"><ele>375.3333333333333</ele><time>2026-03-22T10:10:53.999Z</time></trkpt><trkpt lat="43.56115310411215" lon="11.254370698335402"><ele>375.6666666666667</ele><time>2026-03-22T10:10:55.999Z</time></trkpt><trkpt lat="43.561155263771916" lon="11.25447773372969"><ele>376.0</ele><time>2026-03-22T10:10:56.999Z</time></trkpt><trkpt lat="43.56118345652401" lon="11.25458609087015"><ele>376.33333333333337</ele><time>2026-03-22T10:10:57.999Z</time></trkpt><trkpt lat="43.56125142219454" lon="11.254656898720379"><ele>376.6666666666667</ele><time>2026-03-22T10:10:58.999Z</time></trkpt><trkpt lat="43.56134082711509" lon="11.254705588429157"><ele>377.0</ele><time>2026-03-22T10:10:59.999Z</time></trkpt><trkpt lat="43.561431967492496" lon="11.254732388856437"><ele>377.5</ele><time>2026-03-22T10:11:00.999Z</time></trkpt><trkpt lat="43.56153916466001" lon="11.254739513909497"><ele>378.0</ele><time>2026-03-22T10:11:01.999Z</time></trkpt><trkpt lat="43.561630317891996" lon="11.254735880901414"><ele>378.5</ele><time>2026-03-22T10:11:02.999Z</time></trkpt><trkpt lat="43.56170605146527" lon="11.254729533602653"><ele>379.0</ele><time>2026-03-22T10:11:03.999Z</time></trkpt><trkpt lat="43.56178388813329" lon="11.25472578603501"><ele>379.5</ele><time>2026-03-22T10:11:04.999Z</time></trkpt><trkpt lat="43.56184766825119" lon="11.254731456089731"><ele>380.0</ele><time>2026-03-22T10:11:05.999Z</time></trkpt><trkpt lat="43.56194036996817" lon="11.254753122204889"><ele>379.75</ele><time>2026-03-22T10:11:07.999Z</time></trkpt><trkpt lat="43.56201864622004" lon="11.254790781729781"><ele>379.5</ele><time>2026-03-22T10:11:11.999Z</time></trkpt><trkpt lat="43.56208701448383" lon="11.254864356102964"><ele>379.25</ele><time>2026-03-22T10:11:13.999Z</time></trkpt><trkpt lat="43.56215117060313" lon="11.254946586603248"><ele>379.0</ele><time>2026-03-22T10:11:15.999Z</time></trkpt><trkpt lat="43.56242699258979" lon="11.254566450667383"><ele>380.5</ele><time>2026-03-22T10:11:16.999Z</time></trkpt><trkpt lat="43.562490746473856" lon="11.254551779677108"><ele>382.0</ele><time>2026-03-22T10:11:17.999Z</time></trkpt><trkpt lat="43.562555449079" lon="11.254552929929444"><ele>383.5</ele><time>2026-03-22T10:11:18.999Z</time></trkpt><trkpt lat="43.562703175800756" lon="11.254547629212249"><ele>385.0</ele><time>2026-03-22T10:11:20.999Z</time></trkpt><trkpt lat="43.56278671358681" lon="11.254537317896206"><ele>386.50000000000006</ele><time>2026-03-22T10:11:21.999Z</time></trkpt><trkpt lat="43.56287015414387" lon="11.2545700963235"><ele>388.0</ele><time>2026-03-22T10:11:23.999Z</time></trkpt><trkpt lat="43.5629365674852" lon="11.254612926177833"><ele>390.00000000000006</ele><time>2026-03-22T10:11:24.999Z</time></trkpt><trkpt lat="43.56301934065584" lon="11.254642867023087"><ele>392.0</ele><time>2026-03-22T10:11:25.999Z</time></trkpt><trkpt lat="43.563081488494866" lon="11.254626492869786"><ele>394.0</ele><time>2026-03-22T10:11:26.999Z</time></trkpt><trkpt lat="43.56319590103468" lon="11.25461069970897"><ele>396.0</ele><time>2026-03-22T10:11:28.999Z</time></trkpt><trkpt lat="43.56326471774011" lon="11.254654912050238"><ele>398.00000000000006</ele><time>2026-03-22T10:11:29.999Z</time></trkpt><trkpt lat="43.563330490465376" lon="11.25469448145299"><ele>400.0</ele><time>2026-03-22T10:11:30.999Z</time></trkpt><trkpt lat="43.56337474085504" lon="11.254760194694597"><ele>400.8</ele><time>2026-03-22T10:11:31.999Z</time></trkpt><trkpt lat="43.563440550625955" lon="11.254890942090226"><ele>401.6</ele><time>2026-03-22T10:11:33.998Z</time></trkpt><trkpt lat="43.56357246846331" lon="11.254940692788368"><ele>402.4</ele><time>2026-03-22T10:11:35.998Z</time></trkpt><trkpt lat="43.56366258982499" lon="11.2549531145692"><ele>403.2</ele><time>2026-03-22T10:11:36.998Z</time></trkpt><trkpt lat="43.56375973275531" lon="11.254973327401865"><ele>404.0</ele><time>2026-03-22T10:11:37.998Z</time></trkpt><trkpt lat="43.56385962939796" lon="11.254998639956025"><ele>406.3333333333333</ele><time>2026-03-22T10:11:38.998Z</time></trkpt><trkpt lat="43.563923707918725" lon="11.25502195256513"><ele>408.66666666666663</ele><time>2026-03-22T10:11:39.998Z</time></trkpt><trkpt lat="43.564013002670016" lon="11.255130021595216"><ele>411.0</ele><time>2026-03-22T10:11:41.998Z</time></trkpt><trkpt lat="43.56405159073719" lon="11.25521602764972"><ele>413.33333333333337</ele><time>2026-03-22T10:11:42.998Z</time></trkpt><trkpt lat="43.56410293855438" lon="11.255314900966702"><ele>415.6666666666667</ele><time>2026-03-22T10:11:43.998Z</time></trkpt><trkpt lat="43.5641522391019" lon="11.255383773372026"><ele>418.0</ele><time>2026-03-22T10:11:44.998Z</time></trkpt><trkpt lat="43.564204762174946" lon="11.255436226495723"><ele>418.00000000000006</ele><time>2026-03-22T10:11:45.998Z</time></trkpt><trkpt lat="43.56430848976467" lon="11.255465831985608"><ele>418.0</ele><time>2026-03-22T10:11:48.998Z</time></trkpt><trkpt lat="43.56435723653651" lon="11.255403584413422"><ele>418.0</ele><time>2026-03-22T10:11:49.998Z</time></trkpt><trkpt lat="43.56440079614858" lon="11.255327176786851"><ele>418.0</ele><time>2026-03-22T10:11:50.998Z</time></trkpt><trkpt lat="43.56444835373279" lon="11.25525464546786"><ele>418.00000000000006</ele><time>2026-03-22T10:11:52Z</time></trkpt><trkpt lat="43.56448878216942" lon="11.255151240582967"><ele>418.0</ele><time>2026-03-22T10:11:54Z</time></trkpt><trkpt lat="43.56457279219365" lon="11.255110615764627"><ele>419.0</ele><time>2026-03-22T10:11:56Z</time></trkpt><trkpt lat="43.56471039025695" lon="11.255121804707075"><ele>420.0</ele><time>2026-03-22T10:11:58Z</time></trkpt><trkpt lat="43.5647744056873" lon="11.255105883382683"><ele>421.0</ele><time>2026-03-22T10:11:59Z</time></trkpt><trkpt lat="43.56483867486102" lon="11.255058773796295"><ele>422.0</ele><time>2026-03-22T10:12:00Z</time></trkpt><trkpt lat="43.5649178814354" lon="11.25499197830817"><ele>423.0</ele><time>2026-03-22T10:12:01Z</time></trkpt><trkpt lat="43.56502480485128" lon="11.25491786955185"><ele>423.0</ele><time>2026-03-22T10:12:02Z</time></trkpt><trkpt lat="43.56513828028968" lon="11.25487281846321"><ele>423.0</ele><time>2026-03-22T10:12:03Z</time></trkpt><trkpt lat="43.5652545021803" lon="11.254833650151362"><ele>423.0</ele><time>2026-03-22T10:12:04Z</time></trkpt><trkpt lat="43.56537808274586" lon="11.254788444185657"><ele>423.0</ele><time>2026-03-22T10:12:05Z</time></trkpt><trkpt lat="43.56549490350428" lon="11.254740143550046"><ele>423.75</ele><time>2026-03-22T10:12:06Z</time></trkpt><trkpt lat="43.56561464544392" lon="11.254690502309813"><ele>424.5</ele><time>2026-03-22T10:12:07Z</time></trkpt><trkpt lat="43.56572452325379" lon="11.25463698250428"><ele>425.25</ele><time>2026-03-22T10:12:08Z</time></trkpt><trkpt lat="43.5658313568138" lon="11.254578299158538"><ele>426.0</ele><time>2026-03-22T10:12:09Z</time></trkpt><trkpt lat="43.56594663427569" lon="11.254543721617987"><ele>426.0</ele><time>2026-03-22T10:12:10Z</time></trkpt><trkpt lat="43.56606927377378" lon="11.25449115774667"><ele>426.0</ele><time>2026-03-22T10:12:11Z</time></trkpt><trkpt lat="43.566195400503105" lon="11.254436320321574"><ele>426.0</ele><time>2026-03-22T10:12:12Z</time></trkpt><trkpt lat="43.56631430487825" lon="11.254382301110224"><ele>426.0</ele><time>2026-03-22T10:12:13Z</time></trkpt><trkpt lat="43.56642514159605" lon="11.254338412042324"><ele>429.4</ele><time>2026-03-22T10:12:14Z</time></trkpt><trkpt lat="43.566536302950276" lon="11.254295704552508"><ele>432.8</ele><time>2026-03-22T10:12:15Z</time></trkpt><trkpt lat="43.56662913484796" lon="11.254260896648699"><ele>436.19999999999993</ele><time>2026-03-22T10:12:16Z</time></trkpt><trkpt lat="43.566714355707084" lon="11.25422572350775"><ele>439.59999999999997</ele><time>2026-03-22T10:12:17Z</time></trkpt><trkpt lat="43.56678892773802" lon="11.254193580630366"><ele>443.0</ele><time>2026-03-22T10:12:18Z</time></trkpt><trkpt lat="43.56689304672657" lon="11.254142413896101"><ele>442.99999999999994</ele><time>2026-03-22T10:12:20Z</time></trkpt><trkpt lat="43.56699521583763" lon="11.254081049402274"><ele>443.0</ele><time>2026-03-22T10:12:49.999Z</time></trkpt><trkpt lat="43.56705789769795" lon="11.254026041607403"><ele>443.0</ele><time>2026-03-22T10:12:50.999Z</time></trkpt><trkpt lat="43.56712291483331" lon="11.253981569757402"><ele>443.0</ele><time>2026-03-22T10:12:51.999Z</time></trkpt><trkpt lat="43.56719848573978" lon="11.253948829324182"><ele>442.99999999999994</ele><time>2026-03-22T10:12:52.999Z</time></trkpt><trkpt lat="43.56727985591517" lon="11.253954883008571"><ele>443.0</ele><time>2026-03-22T10:12:53.999Z</time></trkpt><trkpt lat="43.56736118332112" lon="11.2539357074958"><ele>443.2</ele><time>2026-03-22T10:12:54.999Z</time></trkpt><trkpt lat="43.56744716065489" lon="11.25391743980472"><ele>443.4</ele><time>2026-03-22T10:12:55.999Z</time></trkpt><trkpt lat="43.56755214820548" lon="11.253899197964444"><ele>443.59999999999997</ele><time>2026-03-22T10:12:56.999Z</time></trkpt><trkpt lat="43.56766945106843" lon="11.253883724092843"><ele>443.79999999999995</ele><time>2026-03-22T10:12:57.999Z</time></trkpt><trkpt lat="43.56776516536843" lon="11.253880521109172"><ele>444.0</ele><time>2026-03-22T10:12:58.999Z</time></trkpt><trkpt lat="43.56784134768425" lon="11.253894353513349"><ele>443.5</ele><time>2026-03-22T10:12:59.999Z</time></trkpt><trkpt lat="43.56791928088447" lon="11.253902670353227"><ele>443.0</ele><time>2026-03-22T10:13:00.999Z</time></trkpt><trkpt lat="43.5680133568244" lon="11.253958608557515"><ele>442.5</ele><time>2026-03-22T10:13:02.999Z</time></trkpt><trkpt lat="43.567968582239615" lon="11.25404368107048"><ele>442.0</ele><time>2026-03-22T10:13:04.999Z</time></trkpt><trkpt lat="43.567999315770486" lon="11.254135751533486"><ele>441.5</ele><time>2026-03-22T10:13:06.999Z</time></trkpt><trkpt lat="43.568041291875836" lon="11.254254825328658"><ele>441.0</ele><time>2026-03-22T10:13:08.999Z</time></trkpt><trkpt lat="43.5680817960198" lon="11.254342572315203"><ele>445.5</ele><time>2026-03-22T10:13:09.999Z</time></trkpt><trkpt lat="43.56824423266065" lon="11.25477635839518"><ele>450.0</ele><time>2026-03-22T10:13:10.999Z</time></trkpt><trkpt lat="43.56885520576427" lon="11.254570411524556"><ele>446.4</ele><time>2026-03-22T10:13:15.999Z</time></trkpt><trkpt lat="43.56892553605501" lon="11.25469099534122"><ele>442.8</ele><time>2026-03-22T10:13:17.999Z</time></trkpt><trkpt lat="43.56892402165277" lon="11.254782904148724"><ele>439.20000000000005</ele><time>2026-03-22T10:13:18.999Z</time></trkpt><trkpt lat="43.568884961001324" lon="11.25489494738101"><ele>435.6</ele><time>2026-03-22T10:13:19.999Z</time></trkpt><trkpt lat="43.56882081945624" lon="11.255031371257074"><ele>432.0</ele><time>2026-03-22T10:13:20.999Z</time></trkpt><trkpt lat="43.568743493657486" lon="11.25518291551654"><ele>432.0</ele><time>2026-03-22T10:13:21.999Z</time></trkpt><trkpt lat="43.568699608521136" lon="11.255291414083372"><ele>432.0</ele><time>2026-03-22T10:13:22.999Z</time></trkpt><trkpt lat="43.56867734161287" lon="11.25538623752059"><ele>432.0</ele><time>2026-03-22T10:13:23.999Z</time></trkpt><trkpt lat="43.56865162119893" lon="11.2555303403323"><ele>432.0</ele><time>2026-03-22T10:13:25.999Z</time></trkpt><trkpt lat="43.56864217386832" lon="11.255620042991254"><ele>432.0</ele><time>2026-03-22T10:13:26.999Z</time></trkpt><trkpt lat="43.56865821071287" lon="11.255727138202891"><ele>432.0</ele><time>2026-03-22T10:13:27.999Z</time></trkpt><trkpt lat="43.568683630490156" lon="11.255872010751695"><ele>432.0</ele><time>2026-03-22T10:13:28.999Z</time></trkpt><trkpt lat="43.5687349911256" lon="11.256028750256926"><ele>432.0</ele><time>2026-03-22T10:13:29.999Z</time></trkpt><trkpt lat="43.56879996674382" lon="11.256181113862501"><ele>432.0</ele><time>2026-03-22T10:13:30.999Z</time></trkpt><trkpt lat="43.568839095981346" lon="11.25633752340369"><ele>432.0</ele><time>2026-03-22T10:13:31.999Z</time></trkpt><trkpt lat="43.568886948144716" lon="11.256480211139168"><ele>432.0</ele><time>2026-03-22T10:13:32.999Z</time></trkpt><trkpt lat="43.568940636899256" lon="11.256608660776466"><ele>432.00000000000006</ele><time>2026-03-22T10:13:33.999Z</time></trkpt><trkpt lat="43.56900541363563" lon="11.256708509905296"><ele>432.00000000000006</ele><time>2026-03-22T10:13:34.999Z</time></trkpt><trkpt lat="43.5690436163954" lon="11.256805545375206"><ele>432.0</ele><time>2026-03-22T10:13:35.999Z</time></trkpt><trkpt lat="43.569084917461765" lon="11.256897424455296"><ele>432.0</ele><time>2026-03-22T10:13:36.999Z</time></trkpt><trkpt lat="43.56913150735463" lon="11.257010755446792"><ele>432.0</ele><time>2026-03-22T10:13:37.999Z</time></trkpt><trkpt lat="43.569169596529996" lon="11.257130509551365"><ele>432.0</ele><time>2026-03-22T10:13:38.999Z</time></trkpt><trkpt lat="43.56919155658087" lon="11.257219653534817"><ele>432.0</ele><time>2026-03-22T10:13:39.999Z</time></trkpt><trkpt lat="43.56921617503292" lon="11.25734061115646"><ele>432.0</ele><time>2026-03-22T10:13:40.998Z</time></trkpt><trkpt lat="43.56924081199864" lon="11.257464896127031"><ele>432.0</ele><time>2026-03-22T10:13:41.998Z</time></trkpt><trkpt lat="43.56926515187548" lon="11.257587682421086"><ele>432.0</ele><time>2026-03-22T10:13:42.998Z</time></trkpt><trkpt lat="43.56928650055512" lon="11.257700956979527"><ele>431.0</ele><time>2026-03-22T10:13:43.998Z</time></trkpt><trkpt lat="43.56930428102729" lon="11.257796664234428"><ele>430.00000000000006</ele><time>2026-03-22T10:13:44.998Z</time></trkpt><trkpt lat="43.56934253392902" lon="11.25791751744492"><ele>429.00000000000006</ele><time>2026-03-22T10:13:45.998Z</time></trkpt><trkpt lat="43.56936767550231" lon="11.2580468370572"><ele>428.0</ele><time>2026-03-22T10:13:46.998Z</time></trkpt><trkpt lat="43.56939661650612" lon="11.258178448292716"><ele>427.0</ele><time>2026-03-22T10:13:47.998Z</time></trkpt><trkpt lat="43.56945256133293" lon="11.258289465936512"><ele>424.6666666666667</ele><time>2026-03-22T10:13:48.998Z</time></trkpt><trkpt lat="43.56949651375208" lon="11.258402621195906"><ele>422.33333333333337</ele><time>2026-03-22T10:13:49.998Z</time></trkpt><trkpt lat="43.569527296019984" lon="11.25852295165398"><ele>420.0</ele><time>2026-03-22T10:13:50.998Z</time></trkpt><trkpt lat="43.56956621963915" lon="11.258643961121699"><ele>417.66666666666663</ele><time>2026-03-22T10:13:51.998Z</time></trkpt><trkpt lat="43.569594531074884" lon="11.258748151487923"><ele>415.3333333333333</ele><time>2026-03-22T10:13:52.998Z</time></trkpt><trkpt lat="43.569614100719434" lon="11.258848988725875"><ele>413.0</ele><time>2026-03-22T10:13:53.998Z</time></trkpt><trkpt lat="43.56961444998036" lon="11.259012733692858"><ele>411.0</ele><time>2026-03-22T10:13:55.998Z</time></trkpt><trkpt lat="43.56953217544993" lon="11.259090586609418"><ele>409.0</ele><time>2026-03-22T10:13:58Z</time></trkpt><trkpt lat="43.569418086844564" lon="11.259102811070239"><ele>407.0</ele><time>2026-03-22T10:14:00Z</time></trkpt><trkpt lat="43.56933344341658" lon="11.259099312189777"><ele>405.0</ele><time>2026-03-22T10:14:01Z</time></trkpt><trkpt lat="43.56921458067138" lon="11.259122529988929"><ele>403.0</ele><time>2026-03-22T10:14:02Z</time></trkpt><trkpt lat="43.569126979635556" lon="11.259090470779135"><ele>402.50000000000006</ele><time>2026-03-22T10:14:03Z</time></trkpt><trkpt lat="43.569054934507136" lon="11.25907198820161"><ele>402.0</ele><time>2026-03-22T10:14:04Z</time></trkpt><trkpt lat="43.5689926667279" lon="11.259031704049441"><ele>401.5</ele><time>2026-03-22T10:14:05Z</time></trkpt><trkpt lat="43.56890111503709" lon="11.258966271717634"><ele>401.0</ele><time>2026-03-22T10:14:07Z</time></trkpt><trkpt lat="43.568800878978905" lon="11.258949694274028"><ele>400.50000000000006</ele><time>2026-03-22T10:14:09Z</time></trkpt><trkpt lat="43.568747462317646" lon="11.259009509517108"><ele>400.0</ele><time>2026-03-22T10:14:10Z</time></trkpt><trkpt lat="43.568727563797445" lon="11.259139652410063"><ele>400.00000000000006</ele><time>2026-03-22T10:14:11Z</time></trkpt><trkpt lat="43.56878010623251" lon="11.259261842932212"><ele>400.0</ele><time>2026-03-22T10:14:12Z</time></trkpt><trkpt lat="43.56881226765114" lon="11.259356205026315"><ele>400.0</ele><time>2026-03-22T10:14:13Z</time></trkpt><trkpt lat="43.568843572778064" lon="11.259447262076481"><ele>400.0</ele><time>2026-03-22T10:14:14Z</time></trkpt><trkpt lat="43.568882445771905" lon="11.259548517257057"><ele>400.00000000000006</ele><time>2026-03-22T10:14:15Z</time></trkpt><trkpt lat="43.56891767374638" lon="11.259629624133622"><ele>400.0</ele><time>2026-03-22T10:14:16Z</time></trkpt><trkpt lat="43.56896500408377" lon="11.259715514867976"><ele>396.83333333333337</ele><time>2026-03-22T10:14:17Z</time></trkpt><trkpt lat="43.56900902286499" lon="11.259785390327702"><ele>393.6666666666667</ele><time>2026-03-22T10:14:18Z</time></trkpt><trkpt lat="43.56906788972085" lon="11.259870062955436"><ele>390.5</ele><time>2026-03-22T10:14:19Z</time></trkpt><trkpt lat="43.56911560994894" lon="11.259934417117394"><ele>387.33333333333337</ele><time>2026-03-22T10:14:20Z</time></trkpt><trkpt lat="43.56916840190465" lon="11.260005609610692"><ele>384.1666666666667</ele><time>2026-03-22T10:14:21Z</time></trkpt><trkpt lat="43.56929191135851" lon="11.260008128360024"><ele>381.0</ele><time>2026-03-22T10:14:22Z</time></trkpt><trkpt lat="43.56937704792023" lon="11.260041674267155"><ele>381.0</ele><time>2026-03-22T10:14:23Z</time></trkpt><trkpt lat="43.569455339007966" lon="11.260072522871344"><ele>381.0</ele><time>2026-03-22T10:14:24Z</time></trkpt><trkpt lat="43.5695346116934" lon="11.260103263158209"><ele>381.0</ele><time>2026-03-22T10:14:25Z</time></trkpt><trkpt lat="43.56960168602422" lon="11.260126855187814"><ele>381.0</ele><time>2026-03-22T10:14:26Z</time></trkpt><trkpt lat="43.56968893887062" lon="11.260148830115167"><ele>381.0</ele><time>2026-03-22T10:14:27Z</time></trkpt><trkpt lat="43.56976849392307" lon="11.260158673478179"><ele>381.0</ele><time>2026-03-22T10:14:28Z</time></trkpt><trkpt lat="43.569874512664" lon="11.260141915806472"><ele>381.8</ele><time>2026-03-22T10:14:30Z</time></trkpt><trkpt lat="43.57001048790458" lon="11.260162821617955"><ele>382.6</ele><time>2026-03-22T10:14:32Z</time></trkpt><trkpt lat="43.570096237939794" lon="11.260147000696541"><ele>383.4</ele><time>2026-03-22T10:14:33Z</time></trkpt><trkpt lat="43.57017385628653" lon="11.26020070237874"><ele>384.2</ele><time>2026-03-22T10:14:33.999Z</time></trkpt><trkpt lat="43.57023911497663" lon="11.26024772404431"><ele>385.0</ele><time>2026-03-22T10:14:34.999Z</time></trkpt><trkpt lat="43.57029769584382" lon="11.260321675865075"><ele>385.00000000000006</ele><time>2026-03-22T10:14:35.999Z</time></trkpt><trkpt lat="43.57032385233924" lon="11.260423651053994"><ele>385.0</ele><time>2026-03-22T10:14:36.999Z</time></trkpt><trkpt lat="43.57034935977484" lon="11.260522555363082"><ele>385.0</ele><time>2026-03-22T10:14:37.999Z</time></trkpt><trkpt lat="43.570361261543596" lon="11.260617370066736"><ele>385.0</ele><time>2026-03-22T10:14:38.999Z</time></trkpt><trkpt lat="43.5703646498948" lon="11.260742547864037"><ele>385.00000000000006</ele><time>2026-03-22T10:14:39.999Z</time></trkpt><trkpt lat="43.57035676006609" lon="11.26086360397326"><ele>385.0</ele><time>2026-03-22T10:14:40.999Z</time></trkpt><trkpt lat="43.570346571226466" lon="11.260963654262753"><ele>384.6666666666667</ele><time>2026-03-22T10:14:41.999Z</time></trkpt><trkpt lat="43.57033730844468" lon="11.261122341442615"><ele>384.33333333333337</ele><time>2026-03-22T10:14:43.999Z</time></trkpt><trkpt lat="43.57033041694938" lon="11.261241192309697"><ele>384.0</ele><time>2026-03-22T10:14:45.999Z</time></trkpt><trkpt lat="43.57035212911391" lon="11.261337853300864"><ele>383.6666666666667</ele><time>2026-03-22T10:14:46.999Z</time></trkpt><trkpt lat="43.57036693865395" lon="11.261441642093777"><ele>383.33333333333337</ele><time>2026-03-22T10:14:47.999Z</time></trkpt><trkpt lat="43.57038110473499" lon="11.261562303669384"><ele>383.0</ele><time>2026-03-22T10:14:48.999Z</time></trkpt><trkpt lat="43.57039795529" lon="11.261707485996714"><ele>383.0</ele><time>2026-03-22T10:14:49.999Z</time></trkpt><trkpt lat="43.57042429831339" lon="11.261863686155008"><ele>383.0</ele><time>2026-03-22T10:14:50.999Z</time></trkpt><trkpt lat="43.57045523469074" lon="11.262020794463963"><ele>383.0</ele><time>2026-03-22T10:14:51.999Z</time></trkpt><trkpt lat="43.57048915854054" lon="11.26216606422265"><ele>383.0</ele><time>2026-03-22T10:14:52.999Z</time></trkpt><trkpt lat="43.57052228781409" lon="11.262296556667506"><ele>383.0</ele><time>2026-03-22T10:14:53.999Z</time></trkpt><trkpt lat="43.57056190160409" lon="11.262430257550838"><ele>383.2</ele><time>2026-03-22T10:14:54.999Z</time></trkpt><trkpt lat="43.57060852752228" lon="11.262538878948085"><ele>383.4</ele><time>2026-03-22T10:14:55.999Z</time></trkpt><trkpt lat="43.57064455469021" lon="11.262644075466053"><ele>383.59999999999997</ele><time>2026-03-22T10:14:56.999Z</time></trkpt><trkpt lat="43.570664958063624" lon="11.262736672059587"><ele>383.79999999999995</ele><time>2026-03-22T10:14:57.999Z</time></trkpt><trkpt lat="43.5706727498975" lon="11.262906707357887"><ele>384.0</ele><time>2026-03-22T10:14:59.999Z</time></trkpt><trkpt lat="43.57062117326761" lon="11.263013344296246"><ele>384.0</ele><time>2026-03-22T10:15:01.999Z</time></trkpt><trkpt lat="43.57046230774007" lon="11.263046208825552"><ele>384.0</ele><time>2026-03-22T10:15:03.999Z</time></trkpt><trkpt lat="43.57034123447623" lon="11.263048187157134"><ele>384.0</ele><time>2026-03-22T10:15:04.999Z</time></trkpt><trkpt lat="43.57023579223823" lon="11.263037349703474"><ele>384.0</ele><time>2026-03-22T10:15:05.999Z</time></trkpt><trkpt lat="43.570155325351294" lon="11.263038556009096"><ele>382.0</ele><time>2026-03-22T10:15:06.999Z</time></trkpt><trkpt lat="43.57003276979891" lon="11.263098659772506"><ele>380.0</ele><time>2026-03-22T10:15:08.999Z</time></trkpt><trkpt lat="43.56998872980192" lon="11.263199100102574"><ele>378.0</ele><time>2026-03-22T10:15:09.999Z</time></trkpt><trkpt lat="43.56996369438364" lon="11.263342383663492"><ele>376.0</ele><time>2026-03-22T10:15:10.999Z</time></trkpt><trkpt lat="43.56994618823891" lon="11.263467593886816"><ele>374.0</ele><time>2026-03-22T10:15:11.999Z</time></trkpt><trkpt lat="43.56991945059637" lon="11.263588092424431"><ele>374.0</ele><time>2026-03-22T10:15:12.999Z</time></trkpt><trkpt lat="43.5698823395555" lon="11.263680401221716"><ele>374.0</ele><time>2026-03-22T10:15:13.999Z</time></trkpt><trkpt lat="43.56979275915952" lon="11.263722117531323"><ele>374.0</ele><time>2026-03-22T10:15:14.999Z</time></trkpt><trkpt lat="43.569700017566696" lon="11.263752305391524"><ele>374.0</ele><time>2026-03-22T10:15:15.999Z</time></trkpt><trkpt lat="43.56961910412032" lon="11.263792772311014"><ele>374.0</ele><time>2026-03-22T10:15:16.999Z</time></trkpt><trkpt lat="43.569554584375766" lon="11.26385959626397"><ele>374.0</ele><time>2026-03-22T10:15:17.999Z</time></trkpt><trkpt lat="43.569474213396546" lon="11.263931653704201"><ele>373.5</ele><time>2026-03-22T10:15:18.999Z</time></trkpt><trkpt lat="43.5694396714055" lon="11.264095802461007"><ele>373.0</ele><time>2026-03-22T10:15:19.999Z</time></trkpt><trkpt lat="43.56940706896132" lon="11.264204027915019"><ele>372.5</ele><time>2026-03-22T10:15:20.999Z</time></trkpt><trkpt lat="43.56937231687712" lon="11.264281955144499"><ele>372.0</ele><time>2026-03-22T10:15:21.999Z</time></trkpt><trkpt lat="43.569328132051005" lon="11.264377668030509"><ele>371.5</ele><time>2026-03-22T10:15:22.999Z</time></trkpt><trkpt lat="43.56925620830523" lon="11.264447617298504"><ele>371.0</ele><time>2026-03-22T10:15:23.999Z</time></trkpt><trkpt lat="43.569197629058884" lon="11.264504127428703"><ele>371.0</ele><time>2026-03-22T10:15:24.999Z</time></trkpt><trkpt lat="43.56911136937828" lon="11.26454322944764"><ele>371.0</ele><time>2026-03-22T10:15:25.999Z</time></trkpt><trkpt lat="43.56902782043474" lon="11.264559470418646"><ele>371.0</ele><time>2026-03-22T10:15:26.999Z</time></trkpt><trkpt lat="43.56892821025502" lon="11.264535195556364"><ele>371.0</ele><time>2026-03-22T10:15:27.999Z</time></trkpt><trkpt lat="43.56883195802263" lon="11.264473586583014"><ele>371.0</ele><time>2026-03-22T10:15:28.999Z</time></trkpt><trkpt lat="43.568749391293316" lon="11.264422490882708"><ele>370.1666666666667</ele><time>2026-03-22T10:15:29.999Z</time></trkpt><trkpt lat="43.56867450805086" lon="11.264427774215344"><ele>369.33333333333337</ele><time>2026-03-22T10:15:30.999Z</time></trkpt><trkpt lat="43.568608797994976" lon="11.264456572564582"><ele>368.5</ele><time>2026-03-22T10:15:31.999Z</time></trkpt><trkpt lat="43.56853347264302" lon="11.264488076083174"><ele>367.6666666666667</ele><time>2026-03-22T10:15:32.999Z</time></trkpt><trkpt lat="43.56846910447222" lon="11.264561198358283"><ele>366.8333333333333</ele><time>2026-03-22T10:15:33.999Z</time></trkpt><trkpt lat="43.56840698473563" lon="11.264631546794005"><ele>366.0</ele><time>2026-03-22T10:15:34.999Z</time></trkpt><trkpt lat="43.56832461817998" lon="11.264723786401127"><ele>368.0</ele><time>2026-03-22T10:15:35.999Z</time></trkpt><trkpt lat="43.568237411205274" lon="11.264820704679666"><ele>370.0</ele><time>2026-03-22T10:15:36.999Z</time></trkpt><trkpt lat="43.56815829626899" lon="11.264908629707591"><ele>372.0</ele><time>2026-03-22T10:15:37.999Z</time></trkpt><trkpt lat="43.56809075952071" lon="11.264989270112562"><ele>374.0</ele><time>2026-03-22T10:15:38.999Z</time></trkpt><trkpt lat="43.568028561260334" lon="11.265082371572756"><ele>376.0</ele><time>2026-03-22T10:15:39.999Z</time></trkpt><trkpt lat="43.56797879593648" lon="11.265197564998878"><ele>376.0</ele><time>2026-03-22T10:15:40.999Z</time></trkpt><trkpt lat="43.567943342034276" lon="11.265324997060311"><ele>376.0</ele><time>2026-03-22T10:15:41.999Z</time></trkpt><trkpt lat="43.567902280918915" lon="11.26542376878574"><ele>376.0</ele><time>2026-03-22T10:15:42.999Z</time></trkpt><trkpt lat="43.56783856027702" lon="11.265535259944656"><ele>376.0</ele><time>2026-03-22T10:15:43.999Z</time></trkpt><trkpt lat="43.567769507086496" lon="11.265671165031502"><ele>376.0</ele><time>2026-03-22T10:15:44.999Z</time></trkpt><trkpt lat="43.56770721853226" lon="11.265804499071605"><ele>374.20000000000005</ele><time>2026-03-22T10:15:45.999Z</time></trkpt><trkpt lat="43.5676615905192" lon="11.265942361644063"><ele>372.40000000000003</ele><time>2026-03-22T10:15:46.999Z</time></trkpt><trkpt lat="43.567624974896084" lon="11.266088058628036"><ele>370.6</ele><time>2026-03-22T10:15:47.999Z</time></trkpt><trkpt lat="43.567601260672504" lon="11.266229444185386"><ele>368.8</ele><time>2026-03-22T10:15:48.998Z</time></trkpt><trkpt lat="43.56759327003391" lon="11.2663494585118"><ele>367.0</ele><time>2026-03-22T10:15:49.998Z</time></trkpt><trkpt lat="43.567613331038935" lon="11.266496650048861"><ele>367.0</ele><time>2026-03-22T10:15:51.998Z</time></trkpt><trkpt lat="43.56762651377462" lon="11.26660056634716"><ele>367.0</ele><time>2026-03-22T10:15:53.998Z</time></trkpt><trkpt lat="43.567675446582165" lon="11.266787786124276"><ele>367.0</ele><time>2026-03-22T10:15:55.998Z</time></trkpt><trkpt lat="43.567729607514075" lon="11.266911453925204"><ele>367.0</ele><time>2026-03-22T10:15:56.998Z</time></trkpt><trkpt lat="43.56780647965453" lon="11.267047715928356"><ele>369.40000000000003</ele><time>2026-03-22T10:15:57.998Z</time></trkpt><trkpt lat="43.5678873900919" lon="11.267163566605154"><ele>371.8</ele><time>2026-03-22T10:15:58.998Z</time></trkpt><trkpt lat="43.567967677580846" lon="11.267266205057084"><ele>374.2</ele><time>2026-03-22T10:15:59.998Z</time></trkpt><trkpt lat="43.56804300309233" lon="11.267351371008901"><ele>376.6</ele><time>2026-03-22T10:16:00.998Z</time></trkpt><trkpt lat="43.56810535477399" lon="11.267409519788526"><ele>379.0</ele><time>2026-03-22T10:16:01.998Z</time></trkpt><trkpt lat="43.5681680157252" lon="11.267520607961787"><ele>379.0</ele><time>2026-03-22T10:16:04Z</time></trkpt><trkpt lat="43.568116908135565" lon="11.26760188746384"><ele>379.0</ele><time>2026-03-22T10:16:06Z</time></trkpt><trkpt lat="43.5680380043077" lon="11.26758435730867"><ele>379.0</ele><time>2026-03-22T10:16:07Z</time></trkpt><trkpt lat="43.567967343120266" lon="11.267587910654655"><ele>379.0</ele><time>2026-03-22T10:16:08Z</time></trkpt><trkpt lat="43.567883404392184" lon="11.26756732628745"><ele>379.0</ele><time>2026-03-22T10:16:09Z</time></trkpt><trkpt lat="43.56779546530034" lon="11.26759305610378"><ele>379.0</ele><time>2026-03-22T10:16:10Z</time></trkpt><trkpt lat="43.56770076883125" lon="11.26763245265848"><ele>377.4</ele><time>2026-03-22T10:16:11Z</time></trkpt><trkpt lat="43.56760187473064" lon="11.267669543927605"><ele>375.79999999999995</ele><time>2026-03-22T10:16:12Z</time></trkpt><trkpt lat="43.567508802027476" lon="11.267699154721054"><ele>374.20000000000005</ele><time>2026-03-22T10:16:13Z</time></trkpt><trkpt lat="43.56743168051825" lon="11.26773820708464"><ele>372.6</ele><time>2026-03-22T10:16:14Z</time></trkpt><trkpt lat="43.567342946211625" lon="11.26779614460687"><ele>371.0</ele><time>2026-03-22T10:16:15Z</time></trkpt><trkpt lat="43.567242047774535" lon="11.267868784926653"><ele>371.0</ele><time>2026-03-22T10:16:16Z</time></trkpt><trkpt lat="43.5671405850174" lon="11.267950611915767"><ele>371.0</ele><time>2026-03-22T10:16:17Z</time></trkpt><trkpt lat="43.5670450643668" lon="11.268032637617674"><ele>371.0</ele><time>2026-03-22T10:16:18Z</time></trkpt><trkpt lat="43.56694579642199" lon="11.268101185825076"><ele>371.0</ele><time>2026-03-22T10:16:19Z</time></trkpt><trkpt lat="43.5668520109396" lon="11.26816931821775"><ele>371.0</ele><time>2026-03-22T10:16:20Z</time></trkpt><trkpt lat="43.56674768815897" lon="11.26821134728196"><ele>372.5</ele><time>2026-03-22T10:16:21Z</time></trkpt><trkpt lat="43.56662825534373" lon="11.268233719824561"><ele>374.0</ele><time>2026-03-22T10:16:22Z</time></trkpt><trkpt lat="43.566503430734514" lon="11.268262949946237"><ele>375.5</ele><time>2026-03-22T10:16:23Z</time></trkpt><trkpt lat="43.566369512384874" lon="11.268308267768653"><ele>377.0</ele><time>2026-03-22T10:16:24Z</time></trkpt><trkpt lat="43.5662455140548" lon="11.26834731976712"><ele>376.8</ele><time>2026-03-22T10:16:25Z</time></trkpt><trkpt lat="43.56612833616986" lon="11.268366707977622"><ele>376.6</ele><time>2026-03-22T10:16:26Z</time></trkpt><trkpt lat="43.56601502179974" lon="11.268401855207044"><ele>376.40000000000003</ele><time>2026-03-22T10:16:27Z</time></trkpt><trkpt lat="43.56592690922975" lon="11.268496718924874"><ele>376.20000000000005</ele><time>2026-03-22T10:16:28Z</time></trkpt><trkpt lat="43.56584149706307" lon="11.268571072518005"><ele>376.0</ele><time>2026-03-22T10:16:29Z</time></trkpt><trkpt lat="43.5657688511789" lon="11.268641735331002"><ele>376.0</ele><time>2026-03-22T10:16:30Z</time></trkpt><trkpt lat="43.565699697274184" lon="11.268700647583481"><ele>376.0</ele><time>2026-03-22T10:16:31Z</time></trkpt><trkpt lat="43.565632031699494" lon="11.268716004740856"><ele>376.0</ele><time>2026-03-22T10:16:32Z</time></trkpt><trkpt lat="43.56554697701021" lon="11.268760797292758"><ele>376.0</ele><time>2026-03-22T10:16:34Z</time></trkpt><trkpt lat="43.5654889659198" lon="11.268806712489724"><ele>376.0</ele><time>2026-03-22T10:16:38Z</time></trkpt><trkpt lat="43.56542598445444" lon="11.268822886369172"><ele>376.0</ele><time>2026-03-22T10:16:41Z</time></trkpt><trkpt lat="43.56537765220573" lon="11.269262540085695"><ele>377.66666666666663</ele><time>2026-03-22T10:16:49.999Z</time></trkpt><trkpt lat="43.56533192020581" lon="11.269352893860951"><ele>379.3333333333333</ele><time>2026-03-22T10:16:50.999Z</time></trkpt><trkpt lat="43.56528699163109" lon="11.269436188194913"><ele>381.0</ele><time>2026-03-22T10:16:51.999Z</time></trkpt><trkpt lat="43.56524600433165" lon="11.269519329480636"><ele>382.66666666666663</ele><time>2026-03-22T10:16:52.999Z</time></trkpt><trkpt lat="43.565194815483046" lon="11.26958209790449"><ele>384.3333333333333</ele><time>2026-03-22T10:16:53.999Z</time></trkpt><trkpt lat="43.56507343030853" lon="11.269676198710025"><ele>386.0</ele><time>2026-03-22T10:16:55.999Z</time></trkpt><trkpt lat="43.56500673876619" lon="11.269771179503305"><ele>382.6</ele><time>2026-03-22T10:16:56.999Z</time></trkpt><trkpt lat="43.56493373320379" lon="11.26988987866365"><ele>379.20000000000005</ele><time>2026-03-22T10:16:57.999Z</time></trkpt><trkpt lat="43.564851568977545" lon="11.26998511450306"><ele>375.79999999999995</ele><time>2026-03-22T10:16:58.999Z</time></trkpt><trkpt lat="43.56476220730923" lon="11.270054495497137"><ele>372.4</ele><time>2026-03-22T10:16:59.999Z</time></trkpt><trkpt lat="43.56467658519648" lon="11.270116383362438"><ele>369.0</ele><time>2026-03-22T10:17:00.999Z</time></trkpt><trkpt lat="43.5645908849851" lon="11.270170558857817"><ele>370.5</ele><time>2026-03-22T10:17:01.999Z</time></trkpt><trkpt lat="43.564511032086486" lon="11.27020917619859"><ele>372.0</ele><time>2026-03-22T10:17:02.999Z</time></trkpt><trkpt lat="43.56443071392548" lon="11.270267322519087"><ele>373.5</ele><time>2026-03-22T10:17:03.999Z</time></trkpt><trkpt lat="43.56434616267178" lon="11.270301634116601"><ele>375.0</ele><time>2026-03-22T10:17:04.999Z</time></trkpt><trkpt lat="43.56426117284141" lon="11.27031138140983"><ele>376.5</ele><time>2026-03-22T10:17:05.999Z</time></trkpt><trkpt lat="43.56417846110572" lon="11.27034652321496"><ele>378.0</ele><time>2026-03-22T10:17:06.999Z</time></trkpt><trkpt lat="43.56409644781198" lon="11.270431910164415"><ele>378.0</ele><time>2026-03-22T10:17:07.999Z</time></trkpt><trkpt lat="43.564026396946325" lon="11.270482631955515"><ele>378.0</ele><time>2026-03-22T10:17:08.999Z</time></trkpt><trkpt lat="43.563948383909995" lon="11.270475461632053"><ele>378.0</ele><time>2026-03-22T10:17:09.999Z</time></trkpt><trkpt lat="43.56385228524301" lon="11.27044596903189"><ele>378.0</ele><time>2026-03-22T10:17:10.999Z</time></trkpt><trkpt lat="43.56375195707862" lon="11.270443377329457"><ele>378.0</ele><time>2026-03-22T10:17:11.999Z</time></trkpt><trkpt lat="43.563661672065535" lon="11.270508353785594"><ele>377.79999999999995</ele><time>2026-03-22T10:17:12.999Z</time></trkpt><trkpt lat="43.563573513079064" lon="11.270602799734638"><ele>377.6</ele><time>2026-03-22T10:17:13.999Z</time></trkpt><trkpt lat="43.5635028914207" lon="11.27066562438577"><ele>377.4</ele><time>2026-03-22T10:17:14.999Z</time></trkpt><trkpt lat="43.56344497329829" lon="11.270699749425091"><ele>377.20000000000005</ele><time>2026-03-22T10:17:15.999Z</time></trkpt><trkpt lat="43.56336656420472" lon="11.27081477994046"><ele>377.0</ele><time>2026-03-22T10:17:17.999Z</time></trkpt><trkpt lat="43.56336163079286" lon="11.27093369035218"><ele>373.8</ele><time>2026-03-22T10:17:18.999Z</time></trkpt><trkpt lat="43.563368630211635" lon="11.271047672184759"><ele>370.6</ele><time>2026-03-22T10:17:19.999Z</time></trkpt><trkpt lat="43.56340470817463" lon="11.27115164380929"><ele>367.40000000000003</ele><time>2026-03-22T10:17:20.999Z</time></trkpt><trkpt lat="43.56345307151489" lon="11.27123649675997"><ele>364.20000000000005</ele><time>2026-03-22T10:17:21.999Z</time></trkpt><trkpt lat="43.56347083132921" lon="11.271403933262565"><ele>361.0</ele><time>2026-03-22T10:17:23.999Z</time></trkpt><trkpt lat="43.56339254477158" lon="11.271536780535177"><ele>358.8333333333333</ele><time>2026-03-22T10:17:25.999Z</time></trkpt><trkpt lat="43.563315752016294" lon="11.27155004675677"><ele>356.66666666666663</ele><time>2026-03-22T10:17:26.999Z</time></trkpt><trkpt lat="43.56322797592352" lon="11.271545695376778"><ele>354.5</ele><time>2026-03-22T10:17:27.999Z</time></trkpt><trkpt lat="43.563162192719666" lon="11.271556666643594"><ele>352.3333333333333</ele><time>2026-03-22T10:17:28.999Z</time></trkpt><trkpt lat="43.56303100502637" lon="11.271557935754847"><ele>350.1666666666667</ele><time>2026-03-22T10:17:30.999Z</time></trkpt><trkpt lat="43.56295447941737" lon="11.271540979204731"><ele>348.0</ele><time>2026-03-22T10:17:31.999Z</time></trkpt><trkpt lat="43.56286561880781" lon="11.271539380586898"><ele>347.8333333333333</ele><time>2026-03-22T10:17:32.999Z</time></trkpt><trkpt lat="43.56278367486161" lon="11.271562180750681"><ele>347.6666666666667</ele><time>2026-03-22T10:17:33.999Z</time></trkpt><trkpt lat="43.562726907186864" lon="11.27164893653599"><ele>347.5</ele><time>2026-03-22T10:17:35.999Z</time></trkpt><trkpt lat="43.562643520908566" lon="11.271681094525752"><ele>347.33333333333337</ele><time>2026-03-22T10:17:39.999Z</time></trkpt><trkpt lat="43.56255517617011" lon="11.271713976166254"><ele>347.1666666666667</ele><time>2026-03-22T10:17:41.999Z</time></trkpt><trkpt lat="43.5624667172164" lon="11.27174740800163"><ele>347.0</ele><time>2026-03-22T10:17:42.999Z</time></trkpt><trkpt lat="43.562366480665055" lon="11.27176594517487"><ele>347.0</ele><time>2026-03-22T10:17:43.999Z</time></trkpt><trkpt lat="43.56227881106148" lon="11.271760959190985"><ele>347.0</ele><time>2026-03-22T10:17:44.999Z</time></trkpt><trkpt lat="43.56220665130267" lon="11.271742913815464"><ele>347.0</ele><time>2026-03-22T10:17:45.999Z</time></trkpt><trkpt lat="43.56214110157922" lon="11.271723588033321"><ele>347.0</ele><time>2026-03-22T10:17:46.999Z</time></trkpt><trkpt lat="43.5620724115071" lon="11.271687758787394"><ele>347.0</ele><time>2026-03-22T10:17:47.999Z</time></trkpt><trkpt lat="43.5620126734562" lon="11.271621840263514"><ele>347.0</ele><time>2026-03-22T10:17:48.999Z</time></trkpt><trkpt lat="43.56196562735004" lon="11.27154011469433"><ele>345.5</ele><time>2026-03-22T10:17:49.999Z</time></trkpt><trkpt lat="43.56192577107419" lon="11.271443881043965"><ele>344.0</ele><time>2026-03-22T10:17:50.999Z</time></trkpt><trkpt lat="43.56185867616998" lon="11.271379031850692"><ele>342.5</ele><time>2026-03-22T10:17:51.999Z</time></trkpt><trkpt lat="43.56179504310252" lon="11.271336884765866"><ele>341.0</ele><time>2026-03-22T10:17:52.999Z</time></trkpt><trkpt lat="43.5616862235102" lon="11.27134552417783"><ele>339.5</ele><time>2026-03-22T10:17:54.998Z</time></trkpt><trkpt lat="43.5615987391559" lon="11.271379566002565"><ele>338.0</ele><time>2026-03-22T10:17:55.998Z</time></trkpt><trkpt lat="43.56148784711075" lon="11.271417362489123"><ele>338.0</ele><time>2026-03-22T10:17:56.998Z</time></trkpt><trkpt lat="43.561405514185424" lon="11.271429505252193"><ele>338.0</ele><time>2026-03-22T10:17:57.998Z</time></trkpt><trkpt lat="43.561318726237026" lon="11.271470907532834"><ele>338.0</ele><time>2026-03-22T10:17:59.998Z</time></trkpt><trkpt lat="43.561211066380864" lon="11.27145446120561"><ele>338.0</ele><time>2026-03-22T10:18:01.998Z</time></trkpt><trkpt lat="43.56115371134271" lon="11.271404892212187"><ele>338.0</ele><time>2026-03-22T10:18:02.998Z</time></trkpt><trkpt lat="43.561087928272556" lon="11.27135981231254"><ele>338.0</ele><time>2026-03-22T10:18:03.998Z</time></trkpt><trkpt lat="43.560945804759584" lon="11.271416853328802"><ele>336.0</ele><time>2026-03-22T10:18:05.998Z</time></trkpt><trkpt lat="43.560862870263286" lon="11.271458618421539"><ele>334.0</ele><time>2026-03-22T10:18:06.998Z</time></trkpt><trkpt lat="43.560790793635334" lon="11.27148557142732"><ele>332.0</ele><time>2026-03-22T10:18:07.998Z</time></trkpt><trkpt lat="43.56075075950566" lon="11.27155315771032"><ele>330.0</ele><time>2026-03-22T10:18:08.998Z</time></trkpt><trkpt lat="43.56064996389193" lon="11.271641094548126"><ele>328.0</ele><time>2026-03-22T10:18:11Z</time></trkpt><trkpt lat="43.560526447260024" lon="11.271677723461444"><ele>328.0</ele><time>2026-03-22T10:18:13Z</time></trkpt><trkpt lat="43.56046227564826" lon="11.271675631723522"><ele>328.0</ele><time>2026-03-22T10:18:14Z</time></trkpt><trkpt lat="43.560392000503455" lon="11.271668641983453"><ele>328.0</ele><time>2026-03-22T10:18:15Z</time></trkpt><trkpt lat="43.56030762754119" lon="11.271660964866264"><ele>328.0</ele><time>2026-03-22T10:18:16Z</time></trkpt><trkpt lat="43.56021046475308" lon="11.271664484560267"><ele>328.0</ele><time>2026-03-22T10:18:17Z</time></trkpt><trkpt lat="43.560130261988135" lon="11.271661338008512"><ele>328.0</ele><time>2026-03-22T10:18:18Z</time></trkpt><trkpt lat="43.55998901921778" lon="11.271681630156408"><ele>326.4285714285714</ele><time>2026-03-22T10:18:20Z</time></trkpt><trkpt lat="43.55991754529095" lon="11.271691900744624"><ele>324.85714285714283</ele><time>2026-03-22T10:18:21Z</time></trkpt><trkpt lat="43.55985030449277" lon="11.27171267478114"><ele>323.2857142857143</ele><time>2026-03-22T10:18:22Z</time></trkpt><trkpt lat="43.55978715262878" lon="11.27173952371749"><ele>321.71428571428567</ele><time>2026-03-22T10:18:23Z</time></trkpt><trkpt lat="43.559723968764864" lon="11.271763535894468"><ele>320.1428571428571</ele><time>2026-03-22T10:18:24Z</time></trkpt><trkpt lat="43.559638206656096" lon="11.27177983852772"><ele>318.57142857142856</ele><time>2026-03-22T10:18:25Z</time></trkpt><trkpt lat="43.55956221777577" lon="11.27177956039838"><ele>317.0</ele><time>2026-03-22T10:18:26Z</time></trkpt><trkpt lat="43.559488041903315" lon="11.271805950509846"><ele>314.33333333333337</ele><time>2026-03-22T10:18:27Z</time></trkpt><trkpt lat="43.55942689476392" lon="11.271829575348471"><ele>311.6666666666667</ele><time>2026-03-22T10:18:28Z</time></trkpt><trkpt lat="43.559312123726954" lon="11.271845182353232"><ele>309.0</ele><time>2026-03-22T10:18:30Z</time></trkpt><trkpt lat="43.55924201898362" lon="11.271851773248585"><ele>306.3333333333333</ele><time>2026-03-22T10:18:31Z</time></trkpt><trkpt lat="43.55911941120598" lon="11.271886891360362"><ele>303.66666666666663</ele><time>2026-03-22T10:18:33Z</time></trkpt><trkpt lat="43.55905218587625" lon="11.27192135030321"><ele>301.0</ele><time>2026-03-22T10:18:34Z</time></trkpt><trkpt lat="43.55898711016194" lon="11.271973793367884"><ele>301.0</ele><time>2026-03-22T10:18:35Z</time></trkpt><trkpt lat="43.55888794613222" lon="11.271992256421097"><ele>301.0</ele><time>2026-03-22T10:18:37Z</time></trkpt><trkpt lat="43.55876926489256" lon="11.271997875281354"><ele>301.0</ele><time>2026-03-22T10:18:39Z</time></trkpt><trkpt lat="43.558745816278226" lon="11.272133324744162"><ele>301.0</ele><time>2026-03-22T10:18:41Z</time></trkpt><trkpt lat="43.55874560607487" lon="11.27227663155739"><ele>301.0</ele><time>2026-03-22T10:18:43Z</time></trkpt><trkpt lat="43.55882128141849" lon="11.272381204697663"><ele>298.2</ele><time>2026-03-22T10:18:45Z</time></trkpt><trkpt lat="43.55894026568269" lon="11.27243515789412"><ele>295.40000000000003</ele><time>2026-03-22T10:18:47Z</time></trkpt><trkpt lat="43.559008648486405" lon="11.272465529171265"><ele>292.6</ele><time>2026-03-22T10:18:48Z</time></trkpt><trkpt lat="43.559075922432065" lon="11.272504934342633"><ele>289.8</ele><time>2026-03-22T10:18:49Z</time></trkpt><trkpt lat="43.559174457669855" lon="11.272551176098833"><ele>287.0</ele><time>2026-03-22T10:18:51Z</time></trkpt><trkpt lat="43.559308119951744" lon="11.27257792925916"><ele>287.0</ele><time>2026-03-22T10:18:52.999Z</time></trkpt><trkpt lat="43.559360086105706" lon="11.27262893580509"><ele>287.0</ele><time>2026-03-22T10:18:53.999Z</time></trkpt><trkpt lat="43.55940695226096" lon="11.272697117218337"><ele>287.0</ele><time>2026-03-22T10:18:54.999Z</time></trkpt><trkpt lat="43.55945140494637" lon="11.272793267169758"><ele>287.0</ele><time>2026-03-22T10:18:55.999Z</time></trkpt><trkpt lat="43.5595013162448" lon="11.272926159353078"><ele>287.0</ele><time>2026-03-22T10:18:57.999Z</time></trkpt><trkpt lat="43.5595472457348" lon="11.273010242665366"><ele>287.0</ele><time>2026-03-22T10:18:59.999Z</time></trkpt><trkpt lat="43.55962167783425" lon="11.273082226039056"><ele>287.6</ele><time>2026-03-22T10:19:01.999Z</time></trkpt><trkpt lat="43.55973098261644" lon="11.273105910914191"><ele>288.2</ele><time>2026-03-22T10:19:03.999Z</time></trkpt><trkpt lat="43.55983245440772" lon="11.273172876124825"><ele>288.8</ele><time>2026-03-22T10:19:05.999Z</time></trkpt><trkpt lat="43.5599410401925" lon="11.27321752306174"><ele>289.4</ele><time>2026-03-22T10:19:07.999Z</time></trkpt><trkpt lat="43.56000650525769" lon="11.273256210193349"><ele>290.0</ele><time>2026-03-22T10:19:09.999Z</time></trkpt><trkpt lat="43.56011643323608" lon="11.273257664012535"><ele>290.0</ele><time>2026-03-22T10:19:12.999Z</time></trkpt><trkpt lat="43.56020302472965" lon="11.273272072735267"><ele>290.0</ele><time>2026-03-22T10:19:13.999Z</time></trkpt><trkpt lat="43.56027215583742" lon="11.273308746640426"><ele>290.0</ele><time>2026-03-22T10:19:14.999Z</time></trkpt><trkpt lat="43.56032706029275" lon="11.273378910529733"><ele>290.0</ele><time>2026-03-22T10:19:15.999Z</time></trkpt><trkpt lat="43.56039032045235" lon="11.273440367450315"><ele>290.0</ele><time>2026-03-22T10:19:17.999Z</time></trkpt><trkpt lat="43.56046249530412" lon="11.273449984537901"><ele>290.0</ele><time>2026-03-22T10:19:18.999Z</time></trkpt><trkpt lat="43.56053785853294" lon="11.27345719348705"><ele>291.1666666666667</ele><time>2026-03-22T10:19:19.999Z</time></trkpt><trkpt lat="43.56062401012661" lon="11.273462607970306"><ele>292.33333333333337</ele><time>2026-03-22T10:19:20.999Z</time></trkpt><trkpt lat="43.5606970945621" lon="11.273473788576798"><ele>293.5</ele><time>2026-03-22T10:19:21.999Z</time></trkpt><trkpt lat="43.5607608572271" lon="11.273489835384671"><ele>294.6666666666667</ele><time>2026-03-22T10:19:22.999Z</time></trkpt><trkpt lat="43.56088480965921" lon="11.273556664785048"><ele>295.8333333333333</ele><time>2026-03-22T10:19:24.999Z</time></trkpt><trkpt lat="43.560945915314896" lon="11.273647448325445"><ele>297.0</ele><time>2026-03-22T10:19:26.999Z</time></trkpt><trkpt lat="43.56092248715574" lon="11.273821871364433"><ele>297.0</ele><time>2026-03-22T10:19:28.999Z</time></trkpt><trkpt lat="43.56088567640607" lon="11.273928491296571"><ele>297.0</ele><time>2026-03-22T10:19:29.999Z</time></trkpt><trkpt lat="43.5608539743003" lon="11.274041992809405"><ele>297.0</ele><time>2026-03-22T10:19:30.999Z</time></trkpt><trkpt lat="43.56083297705003" lon="11.274158977101465"><ele>297.0</ele><time>2026-03-22T10:19:31.999Z</time></trkpt><trkpt lat="43.56083637904778" lon="11.27425100740542"><ele>297.0</ele><time>2026-03-22T10:19:32.999Z</time></trkpt><trkpt lat="43.56085679865928" lon="11.274364346372144"><ele>297.0</ele><time>2026-03-22T10:19:33.999Z</time></trkpt><trkpt lat="43.56088421910669" lon="11.274470038895412"><ele>299.6</ele><time>2026-03-22T10:19:34.999Z</time></trkpt><trkpt lat="43.560903699329366" lon="11.274586090756038"><ele>302.2</ele><time>2026-03-22T10:19:35.999Z</time></trkpt><trkpt lat="43.560922166630945" lon="11.274678510808121"><ele>304.8</ele><time>2026-03-22T10:19:36.999Z</time></trkpt><trkpt lat="43.56099424620504" lon="11.274838466435789"><ele>307.4</ele><time>2026-03-22T10:19:38.999Z</time></trkpt><trkpt lat="43.56104139125307" lon="11.274964816268284"><ele>310.0</ele><time>2026-03-22T10:19:39.999Z</time></trkpt><trkpt lat="43.561089355835676" lon="11.275105980410023"><ele>310.8333333333333</ele><time>2026-03-22T10:19:40.999Z</time></trkpt><trkpt lat="43.561135618492784" lon="11.275212470473416"><ele>311.66666666666663</ele><time>2026-03-22T10:19:41.999Z</time></trkpt><trkpt lat="43.561179342399875" lon="11.27531302659932"><ele>312.5</ele><time>2026-03-22T10:19:42.999Z</time></trkpt><trkpt lat="43.56120910795512" lon="11.275392174788431"><ele>313.3333333333333</ele><time>2026-03-22T10:19:43.999Z</time></trkpt><trkpt lat="43.561240318131176" lon="11.275478948086644"><ele>314.1666666666667</ele><time>2026-03-22T10:19:44.999Z</time></trkpt><trkpt lat="43.561275586866266" lon="11.275574187462444"><ele>315.0</ele><time>2026-03-22T10:19:45.999Z</time></trkpt><trkpt lat="43.56133101245295" lon="11.275672713741207"><ele>319.4</ele><time>2026-03-22T10:19:46.999Z</time></trkpt><trkpt lat="43.561399605625965" lon="11.275745858362937"><ele>323.8</ele><time>2026-03-22T10:19:47.999Z</time></trkpt><trkpt lat="43.56146886624487" lon="11.2758738702107"><ele>328.20000000000005</ele><time>2026-03-22T10:19:49.999Z</time></trkpt><trkpt lat="43.56150463488016" lon="11.275989765264894"><ele>332.6</ele><time>2026-03-22T10:19:50.999Z</time></trkpt><trkpt lat="43.561548570136004" lon="11.276126366055193"><ele>337.0</ele><time>2026-03-22T10:19:51.999Z</time></trkpt><trkpt lat="43.56159024627983" lon="11.276279123331925"><ele>337.0</ele><time>2026-03-22T10:19:52.999Z</time></trkpt><trkpt lat="43.561620887055085" lon="11.276414087038138"><ele>337.0</ele><time>2026-03-22T10:19:53.999Z</time></trkpt><trkpt lat="43.5616648337818" lon="11.27652869137843"><ele>337.0</ele><time>2026-03-22T10:19:54.999Z</time></trkpt><trkpt lat="43.56169923944995" lon="11.27664230072781"><ele>337.0</ele><time>2026-03-22T10:19:55.999Z</time></trkpt><trkpt lat="43.56172624485391" lon="11.276743738540938"><ele>337.0</ele><time>2026-03-22T10:19:56.999Z</time></trkpt><trkpt lat="43.56174259356829" lon="11.276865505894458"><ele>337.20000000000005</ele><time>2026-03-22T10:19:57.999Z</time></trkpt><trkpt lat="43.561759742510596" lon="11.276985372599409"><ele>337.4</ele><time>2026-03-22T10:19:58.999Z</time></trkpt><trkpt lat="43.56183363307727" lon="11.277146684993658"><ele>337.6</ele><time>2026-03-22T10:20:00.999Z</time></trkpt><trkpt lat="43.56188829186062" lon="11.277255750896174"><ele>337.79999999999995</ele><time>2026-03-22T10:20:01.999Z</time></trkpt><trkpt lat="43.561948832049914" lon="11.27737388969691"><ele>338.0</ele><time>2026-03-22T10:20:02.999Z</time></trkpt><trkpt lat="43.562008107707" lon="11.277494323711975"><ele>342.59999999999997</ele><time>2026-03-22T10:20:03.999Z</time></trkpt><trkpt lat="43.562070026437276" lon="11.277613263428726"><ele>347.2</ele><time>2026-03-22T10:20:04.999Z</time></trkpt><trkpt lat="43.56213165558423" lon="11.27772337879025"><ele>351.8</ele><time>2026-03-22T10:20:05.999Z</time></trkpt><trkpt lat="43.56219345974382" lon="11.277832672557665"><ele>356.4</ele><time>2026-03-22T10:20:06.999Z</time></trkpt><trkpt lat="43.56226153879668" lon="11.277952504115147"><ele>361.0</ele><time>2026-03-22T10:20:07.999Z</time></trkpt><trkpt lat="43.56234188159498" lon="11.278081419998642"><ele>360.6</ele><time>2026-03-22T10:20:08.999Z</time></trkpt><trkpt lat="43.56241736958112" lon="11.27820777216197"><ele>360.20000000000005</ele><time>2026-03-22T10:20:09.999Z</time></trkpt><trkpt lat="43.562472748880445" lon="11.2783156687775"><ele>359.79999999999995</ele><time>2026-03-22T10:20:10.998Z</time></trkpt><trkpt lat="43.562524228662625" lon="11.278417823412344"><ele>359.4</ele><time>2026-03-22T10:20:11.998Z</time></trkpt><trkpt lat="43.56254989817741" lon="11.278508812237588"><ele>359.0</ele><time>2026-03-22T10:20:12.998Z</time></trkpt><trkpt lat="43.56261263801646" lon="11.27861325999827"><ele>359.0</ele><time>2026-03-22T10:20:14.998Z</time></trkpt><trkpt lat="43.56268101169728" lon="11.278686358790036"><ele>359.0</ele><time>2026-03-22T10:20:16Z</time></trkpt><trkpt lat="43.56273370740277" lon="11.278756034347767"><ele>359.0</ele><time>2026-03-22T10:20:17Z</time></trkpt><trkpt lat="43.562777751070925" lon="11.278818986044376"><ele>359.0</ele><time>2026-03-22T10:20:18Z</time></trkpt><trkpt lat="43.56288071539295" lon="11.278890644356517"><ele>359.0</ele><time>2026-03-22T10:20:20Z</time></trkpt><trkpt lat="43.563014812960475" lon="11.27893469010886"><ele>361.2</ele><time>2026-03-22T10:20:22Z</time></trkpt><trkpt lat="43.563119738767774" lon="11.278940110573679"><ele>363.4</ele><time>2026-03-22T10:20:23Z</time></trkpt><trkpt lat="43.56323872597225" lon="11.278933667319105"><ele>365.6</ele><time>2026-03-22T10:20:24Z</time></trkpt><trkpt lat="43.56335128321769" lon="11.278937531561192"><ele>367.8</ele><time>2026-03-22T10:20:25Z</time></trkpt><trkpt lat="43.56343072909085" lon="11.278941499256398"><ele>370.0</ele><time>2026-03-22T10:20:26Z</time></trkpt><trkpt lat="43.56350456079849" lon="11.279000377702697"><ele>370.0</ele><time>2026-03-22T10:20:28Z</time></trkpt><trkpt lat="43.563488031652085" lon="11.279103744741068"><ele>370.0</ele><time>2026-03-22T10:21:53.999Z</time></trkpt><trkpt lat="43.563518824912485" lon="11.27920749704513"><ele>370.0</ele><time>2026-03-22T10:21:54.999Z</time></trkpt><trkpt lat="43.5635587958976" lon="11.279338964115757"><ele>370.0</ele><time>2026-03-22T10:21:55.999Z</time></trkpt><trkpt lat="43.56353350083044" lon="11.279503749027699"><ele>370.0</ele><time>2026-03-22T10:21:56.999Z</time></trkpt><trkpt lat="43.56364838270696" lon="11.27963025833594"><ele>371.0</ele><time>2026-03-22T10:21:58.999Z</time></trkpt><trkpt lat="43.563719894728806" lon="11.279660173259371"><ele>372.0</ele><time>2026-03-22T10:21:59.999Z</time></trkpt><trkpt lat="43.56378693211832" lon="11.279712160124024"><ele>373.0</ele><time>2026-03-22T10:22:00.999Z</time></trkpt><trkpt lat="43.56385171078728" lon="11.27976376723998"><ele>374.0</ele><time>2026-03-22T10:22:01.999Z</time></trkpt><trkpt lat="43.56392717936056" lon="11.279825443653454"><ele>375.0</ele><time>2026-03-22T10:22:02.999Z</time></trkpt><trkpt lat="43.56401462026345" lon="11.2799036520543"><ele>376.0</ele><time>2026-03-22T10:22:03.999Z</time></trkpt><trkpt lat="43.564101063534196" lon="11.279985693165628"><ele>376.8</ele><time>2026-03-22T10:22:04.999Z</time></trkpt><trkpt lat="43.564185751206765" lon="11.280083400059354"><ele>377.6</ele><time>2026-03-22T10:22:05.999Z</time></trkpt><trkpt lat="43.56424863126049" lon="11.280166113256449"><ele>378.4</ele><time>2026-03-22T10:22:06.999Z</time></trkpt><trkpt lat="43.56429874297266" lon="11.28026862933379"><ele>379.2</ele><time>2026-03-22T10:22:07.999Z</time></trkpt><trkpt lat="43.56434220867453" lon="11.280379025980817"><ele>380.0</ele><time>2026-03-22T10:22:08.999Z</time></trkpt><trkpt lat="43.56437745483878" lon="11.280490254628695"><ele>380.0</ele><time>2026-03-22T10:22:09.999Z</time></trkpt><trkpt lat="43.564399450344354" lon="11.280582883541404"><ele>380.0</ele><time>2026-03-22T10:22:11.999Z</time></trkpt><trkpt lat="43.56429217246295" lon="11.28071058642288"><ele>380.0</ele><time>2026-03-22T10:22:13.999Z</time></trkpt><trkpt lat="43.56418713413937" lon="11.28077285564009"><ele>380.0</ele><time>2026-03-22T10:22:14.999Z</time></trkpt><trkpt lat="43.56409667061095" lon="11.280888853235897"><ele>381.0</ele><time>2026-03-22T10:22:15.999Z</time></trkpt><trkpt lat="43.564020241201575" lon="11.281014329393322"><ele>382.0</ele><time>2026-03-22T10:22:16.999Z</time></trkpt><trkpt lat="43.563941206795334" lon="11.28109311208463"><ele>383.0</ele><time>2026-03-22T10:22:17.999Z</time></trkpt><trkpt lat="43.5638798216162" lon="11.281148610027351"><ele>384.0</ele><time>2026-03-22T10:22:18.999Z</time></trkpt><trkpt lat="43.56381590893713" lon="11.281234455131056"><ele>384.99999999999994</ele><time>2026-03-22T10:22:21Z</time></trkpt><trkpt lat="43.56380159277204" lon="11.28132901844547"><ele>386.0</ele><time>2026-03-22T10:22:22Z</time></trkpt><trkpt lat="43.563815039862156" lon="11.28142271395109"><ele>388.4</ele><time>2026-03-22T10:22:23Z</time></trkpt><trkpt lat="43.56384298389766" lon="11.28150424071839"><ele>390.8</ele><time>2026-03-22T10:22:24Z</time></trkpt><trkpt lat="43.5638787579671" lon="11.281598276322985"><ele>393.2</ele><time>2026-03-22T10:22:25Z</time></trkpt><trkpt lat="43.56394300944022" lon="11.281715088611739"><ele>395.59999999999997</ele><time>2026-03-22T10:22:26Z</time></trkpt><trkpt lat="43.564003784761944" lon="11.281852410198526"><ele>398.0</ele><time>2026-03-22T10:22:27Z</time></trkpt><trkpt lat="43.564058725743564" lon="11.281993189922133"><ele>398.0</ele><time>2026-03-22T10:22:28Z</time></trkpt><trkpt lat="43.564107514153996" lon="11.282128441711896"><ele>398.0</ele><time>2026-03-22T10:22:29Z</time></trkpt><trkpt lat="43.5641571741389" lon="11.282280962418351"><ele>398.0</ele><time>2026-03-22T10:22:30Z</time></trkpt><trkpt lat="43.564198093172735" lon="11.282434624834023"><ele>398.0</ele><time>2026-03-22T10:22:31Z</time></trkpt><trkpt lat="43.5642254257478" lon="11.282560233198899"><ele>398.0</ele><time>2026-03-22T10:22:32Z</time></trkpt><trkpt lat="43.56424359602901" lon="11.282679425333127"><ele>400.0</ele><time>2026-03-22T10:22:33Z</time></trkpt><trkpt lat="43.56425399938437" lon="11.282824954681736"><ele>402.0</ele><time>2026-03-22T10:22:34Z</time></trkpt><trkpt lat="43.56427482884517" lon="11.282936734072138"><ele>404.0</ele><time>2026-03-22T10:22:35Z</time></trkpt><trkpt lat="43.56430090969094" lon="11.283033283458732"><ele>406.0</ele><time>2026-03-22T10:22:36Z</time></trkpt><trkpt lat="43.564350669549015" lon="11.283149563531572"><ele>408.0</ele><time>2026-03-22T10:22:37Z</time></trkpt><trkpt lat="43.56439552347431" lon="11.283268970104238"><ele>408.8333333333333</ele><time>2026-03-22T10:22:38Z</time></trkpt><trkpt lat="43.564446215415636" lon="11.283394236282412"><ele>409.66666666666663</ele><time>2026-03-22T10:22:39Z</time></trkpt><trkpt lat="43.56448565294702" lon="11.283511932779982"><ele>410.5</ele><time>2026-03-22T10:22:40Z</time></trkpt><trkpt lat="43.56451462612378" lon="11.283627534397343"><ele>411.3333333333333</ele><time>2026-03-22T10:22:41Z</time></trkpt><trkpt lat="43.56451491331193" lon="11.283716997564825"><ele>412.16666666666663</ele><time>2026-03-22T10:22:42Z</time></trkpt><trkpt lat="43.564509654866455" lon="11.283835675773572"><ele>413.0</ele><time>2026-03-22T10:22:43Z</time></trkpt><trkpt lat="43.564528847637135" lon="11.28399709165308"><ele>416.75</ele><time>2026-03-22T10:22:44Z</time></trkpt><trkpt lat="43.564559424874666" lon="11.284182410869185"><ele>420.5</ele><time>2026-03-22T10:22:45Z</time></trkpt><trkpt lat="43.56460013764991" lon="11.284372507269092"><ele>424.25</ele><time>2026-03-22T10:22:46Z</time></trkpt><trkpt lat="43.56464195701212" lon="11.284536457015774"><ele>428.0</ele><time>2026-03-22T10:22:47Z</time></trkpt><trkpt lat="43.56467456362476" lon="11.284699786906486"><ele>429.4</ele><time>2026-03-22T10:22:48Z</time></trkpt><trkpt lat="43.56470476344381" lon="11.284858057063731"><ele>430.79999999999995</ele><time>2026-03-22T10:22:49Z</time></trkpt><trkpt lat="43.56473231415152" lon="11.28500290263203"><ele>432.2</ele><time>2026-03-22T10:22:50Z</time></trkpt><trkpt lat="43.56475137429018" lon="11.28514452772331"><ele>433.6</ele><time>2026-03-22T10:22:51Z</time></trkpt><trkpt lat="43.56474749931457" lon="11.285274572281086"><ele>435.0</ele><time>2026-03-22T10:22:52Z</time></trkpt><trkpt lat="43.56474618908003" lon="11.285398493050783"><ele>435.0</ele><time>2026-03-22T10:22:53Z</time></trkpt><trkpt lat="43.56474673264085" lon="11.285506242143866"><ele>435.0</ele><time>2026-03-22T10:22:54Z</time></trkpt><trkpt lat="43.56476475363938" lon="11.285648426309315"><ele>435.0</ele><time>2026-03-22T10:22:55Z</time></trkpt><trkpt lat="43.564784923810095" lon="11.28578149733745"><ele>435.0</ele><time>2026-03-22T10:22:56Z</time></trkpt><trkpt lat="43.564785616739584" lon="11.285914250381522"><ele>435.0</ele><time>2026-03-22T10:22:57Z</time></trkpt><trkpt lat="43.564767977811236" lon="11.28602933695151"><ele>436.5</ele><time>2026-03-22T10:22:58Z</time></trkpt><trkpt lat="43.56474057867626" lon="11.286173236611912"><ele>438.0</ele><time>2026-03-22T10:22:59Z</time></trkpt><trkpt lat="43.564709942748316" lon="11.28635163170867"><ele>439.5</ele><time>2026-03-22T10:23:00Z</time></trkpt><trkpt lat="43.564681198901035" lon="11.286522932638144"><ele>441.0</ele><time>2026-03-22T10:23:01Z</time></trkpt><trkpt lat="43.56465297692181" lon="11.286702373547106"><ele>441.0</ele><time>2026-03-22T10:23:02Z</time></trkpt><trkpt lat="43.56464515274552" lon="11.286910393924826"><ele>441.0</ele><time>2026-03-22T10:23:03Z</time></trkpt><trkpt lat="43.56465310163623" lon="11.287088985733519"><ele>441.0</ele><time>2026-03-22T10:23:04Z</time></trkpt><trkpt lat="43.564662260649506" lon="11.28723942874822"><ele>441.0</ele><time>2026-03-22T10:23:05Z</time></trkpt><trkpt lat="43.564655302185486" lon="11.287373445885844"><ele>441.20000000000005</ele><time>2026-03-22T10:23:06Z</time></trkpt><trkpt lat="43.56462721250034" lon="11.28748920035444"><ele>441.40000000000003</ele><time>2026-03-22T10:23:07Z</time></trkpt><trkpt lat="43.56458760706014" lon="11.287613668207648"><ele>441.6</ele><time>2026-03-22T10:23:08Z</time></trkpt><trkpt lat="43.564541340310576" lon="11.287752908766816"><ele>441.8</ele><time>2026-03-22T10:23:09Z</time></trkpt><trkpt lat="43.564497453409246" lon="11.287883714214672"><ele>442.0</ele><time>2026-03-22T10:23:10Z</time></trkpt><trkpt lat="43.564465865528206" lon="11.287976918499783"><ele>443.8</ele><time>2026-03-22T10:23:11Z</time></trkpt><trkpt lat="43.5644204319066" lon="11.288097705181885"><ele>445.6</ele><time>2026-03-22T10:23:13Z</time></trkpt><trkpt lat="43.56438233685286" lon="11.288196167901178"><ele>447.40000000000003</ele><time>2026-03-22T10:23:14.999Z</time></trkpt><trkpt lat="43.56434679298671" lon="11.288288036568362"><ele>449.20000000000005</ele><time>2026-03-22T10:23:17.999Z</time></trkpt><trkpt lat="43.56443801471867" lon="11.288447808675942"><ele>451.0</ele><time>2026-03-22T10:23:18.999Z</time></trkpt><trkpt lat="43.5645105849347" lon="11.288571884677648"><ele>450.6666666666667</ele><time>2026-03-22T10:23:20.999Z</time></trkpt><trkpt lat="43.56457220950904" lon="11.288678546115463"><ele>450.33333333333337</ele><time>2026-03-22T10:23:22.999Z</time></trkpt><trkpt lat="43.56456154485623" lon="11.28877208349705"><ele>450.0</ele><time>2026-03-22T10:23:23.999Z</time></trkpt><trkpt lat="43.56459076406402" lon="11.288867463199976"><ele>449.66666666666663</ele><time>2026-03-22T10:23:24.999Z</time></trkpt><trkpt lat="43.56462163666511" lon="11.288964023654191"><ele>449.3333333333333</ele><time>2026-03-22T10:23:25.999Z</time></trkpt><trkpt lat="43.56466121768886" lon="11.289080320676286"><ele>449.0</ele><time>2026-03-22T10:23:26.999Z</time></trkpt><trkpt lat="43.56471590687021" lon="11.28923654810729"><ele>451.0</ele><time>2026-03-22T10:23:27.999Z</time></trkpt><trkpt lat="43.5647779153304" lon="11.289413147523128"><ele>453.0</ele><time>2026-03-22T10:23:28.999Z</time></trkpt><trkpt lat="43.56483624344193" lon="11.289579265291856"><ele>455.0</ele><time>2026-03-22T10:23:29.999Z</time></trkpt><trkpt lat="43.56489028584364" lon="11.289734094433946"><ele>457.0</ele><time>2026-03-22T10:23:30.999Z</time></trkpt><trkpt lat="43.56493951883422" lon="11.289878813157799"><ele>457.00000000000006</ele><time>2026-03-22T10:23:31.999Z</time></trkpt><trkpt lat="43.56498670612639" lon="11.290017518652851"><ele>457.0</ele><time>2026-03-22T10:23:32.999Z</time></trkpt><trkpt lat="43.565021294331665" lon="11.290119189464816"><ele>457.0</ele><time>2026-03-22T10:23:33.999Z</time></trkpt><trkpt lat="43.565053475045396" lon="11.290211340635159"><ele>457.0</ele><time>2026-03-22T10:23:34.999Z</time></trkpt><trkpt lat="43.565084509999295" lon="11.290292969145208"><ele>457.00000000000006</ele><time>2026-03-22T10:23:35.999Z</time></trkpt><trkpt lat="43.565120576656454" lon="11.29037729773731"><ele>457.0</ele><time>2026-03-22T10:23:38.999Z</time></trkpt><trkpt lat="43.5650580248536" lon="11.29038897239127"><ele>457.00000000000006</ele><time>2026-03-22T10:23:39.999Z</time></trkpt><trkpt lat="43.56501068419541" lon="11.290446883184572"><ele>457.0</ele><time>2026-03-22T10:23:40.999Z</time></trkpt><trkpt lat="43.56496209027709" lon="11.290528032887776"><ele>457.0</ele><time>2026-03-22T10:23:41.999Z</time></trkpt><trkpt lat="43.56488845973491" lon="11.290577528355525"><ele>457.0</ele><time>2026-03-22T10:23:42.999Z</time></trkpt><trkpt lat="43.56480570179567" lon="11.290656442512818"><ele>457.00000000000006</ele><time>2026-03-22T10:23:43.999Z</time></trkpt><trkpt lat="43.5647124356054" lon="11.290732203517184"><ele>457.0</ele><time>2026-03-22T10:23:44.999Z</time></trkpt><trkpt lat="43.56461269480772" lon="11.290812581382433"><ele>456.8</ele><time>2026-03-22T10:23:45.999Z</time></trkpt><trkpt lat="43.56451239619587" lon="11.290891714635588"><ele>456.6</ele><time>2026-03-22T10:23:46.999Z</time></trkpt><trkpt lat="43.56441583978425" lon="11.290968193148904"><ele>456.40000000000003</ele><time>2026-03-22T10:23:47.999Z</time></trkpt><trkpt lat="43.56432492847786" lon="11.291044244045672"><ele>456.20000000000005</ele><time>2026-03-22T10:23:48.999Z</time></trkpt><trkpt lat="43.564245940272585" lon="11.291136788820157"><ele>456.0</ele><time>2026-03-22T10:23:49.999Z</time></trkpt><trkpt lat="43.56420025415702" lon="11.291265782805961"><ele>457.4</ele><time>2026-03-22T10:23:50.999Z</time></trkpt><trkpt lat="43.564254312802916" lon="11.291445548134424"><ele>458.8</ele><time>2026-03-22T10:23:51.999Z</time></trkpt><trkpt lat="43.56429293796952" lon="11.291565694080619"><ele>460.19999999999993</ele><time>2026-03-22T10:23:52.999Z</time></trkpt><trkpt lat="43.56430620200994" lon="11.291673829687959"><ele>461.59999999999997</ele><time>2026-03-22T10:23:53.999Z</time></trkpt><trkpt lat="43.56428212426698" lon="11.291777213376148"><ele>463.0</ele><time>2026-03-22T10:23:54.999Z</time></trkpt><trkpt lat="43.564238394257444" lon="11.291866973105712"><ele>463.0</ele><time>2026-03-22T10:23:55.999Z</time></trkpt><trkpt lat="43.5641586274969" lon="11.29192347005478"><ele>462.99999999999994</ele><time>2026-03-22T10:23:56.999Z</time></trkpt><trkpt lat="43.5640592077284" lon="11.291944511909444"><ele>462.99999999999994</ele><time>2026-03-22T10:23:57.999Z</time></trkpt><trkpt lat="43.56394858696737" lon="11.291980988480326"><ele>463.0</ele><time>2026-03-22T10:23:58.999Z</time></trkpt><trkpt lat="43.56383060306871" lon="11.292015873523965"><ele>463.0</ele><time>2026-03-22T10:23:59.999Z</time></trkpt><trkpt lat="43.56370908486194" lon="11.29204959767389"><ele>463.4</ele><time>2026-03-22T10:24:00.999Z</time></trkpt><trkpt lat="43.56359650722229" lon="11.292118158313388"><ele>463.79999999999995</ele><time>2026-03-22T10:24:01.999Z</time></trkpt><trkpt lat="43.56350973025678" lon="11.29217551308626"><ele>464.2</ele><time>2026-03-22T10:24:02.999Z</time></trkpt><trkpt lat="43.5634218689774" lon="11.292241315613355"><ele>464.6</ele><time>2026-03-22T10:24:03.999Z</time></trkpt><trkpt lat="43.5633337396103" lon="11.292312492566364"><ele>465.0</ele><time>2026-03-22T10:24:04.999Z</time></trkpt><trkpt lat="43.56324887863433" lon="11.292393137371949"><ele>467.75</ele><time>2026-03-22T10:24:05.999Z</time></trkpt><trkpt lat="43.563164058445324" lon="11.29249273575323"><ele>470.5</ele><time>2026-03-22T10:24:06.999Z</time></trkpt><trkpt lat="43.56308198722966" lon="11.292603363798492"><ele>473.25</ele><time>2026-03-22T10:24:07.999Z</time></trkpt><trkpt lat="43.56300413856382" lon="11.292726076567757"><ele>476.0</ele><time>2026-03-22T10:24:08.999Z</time></trkpt><trkpt lat="43.5629267797999" lon="11.292853274528209"><ele>477.0</ele><time>2026-03-22T10:24:09.999Z</time></trkpt><trkpt lat="43.56285230665222" lon="11.292984175958493"><ele>478.0</ele><time>2026-03-22T10:24:10.999Z</time></trkpt><trkpt lat="43.5627848728693" lon="11.293123658071778"><ele>479.0</ele><time>2026-03-22T10:24:11.999Z</time></trkpt><trkpt lat="43.562724395816964" lon="11.293256654938165"><ele>480.0</ele><time>2026-03-22T10:24:12.999Z</time></trkpt><trkpt lat="43.56266535141199" lon="11.293402930681333"><ele>482.0</ele><time>2026-03-22T10:24:13.999Z</time></trkpt><trkpt lat="43.56260862244788" lon="11.29355694729081"><ele>484.0</ele><time>2026-03-22T10:24:14.999Z</time></trkpt><trkpt lat="43.56255565222147" lon="11.293707209157374"><ele>486.0</ele><time>2026-03-22T10:24:15.999Z</time></trkpt><trkpt lat="43.56250640575499" lon="11.293858232558213"><ele>488.0</ele><time>2026-03-22T10:24:16.999Z</time></trkpt><trkpt lat="43.562463853127504" lon="11.294005896539439"><ele>489.0</ele><time>2026-03-22T10:24:17.999Z</time></trkpt><trkpt lat="43.56242685298351" lon="11.29414499989562"><ele>490.0</ele><time>2026-03-22T10:24:18.999Z</time></trkpt><trkpt lat="43.56238561414429" lon="11.294305536274685"><ele>491.0</ele><time>2026-03-22T10:24:19.999Z</time></trkpt><trkpt lat="43.562339025726146" lon="11.294508998296758"><ele>492.0</ele><time>2026-03-22T10:24:20.999Z</time></trkpt><trkpt lat="43.56230064956529" lon="11.294709934194307"><ele>492.75</ele><time>2026-03-22T10:24:21.999Z</time></trkpt><trkpt lat="43.56227581058878" lon="11.294899680878425"><ele>493.5</ele><time>2026-03-22T10:24:22.999Z</time></trkpt><trkpt lat="43.562262335993395" lon="11.295087825282438"><ele>494.25</ele><time>2026-03-22T10:24:23.999Z</time></trkpt><trkpt lat="43.56225218476331" lon="11.295238561877973"><ele>495.0</ele><time>2026-03-22T10:24:24.999Z</time></trkpt><trkpt lat="43.562228059880894" lon="11.29534280228337"><ele>495.0</ele><time>2026-03-22T10:24:25.999Z</time></trkpt><trkpt lat="43.56218831370796" lon="11.295428896392448"><ele>495.0</ele><time>2026-03-22T10:24:27Z</time></trkpt><trkpt lat="43.56211743294103" lon="11.295474844098175"><ele>495.0</ele><time>2026-03-22T10:24:28Z</time></trkpt><trkpt lat="43.5620274305393" lon="11.295506457853355"><ele>495.0</ele><time>2026-03-22T10:24:29Z</time></trkpt><trkpt lat="43.5619259715259" lon="11.295531218372806"><ele>495.0</ele><time>2026-03-22T10:24:30Z</time></trkpt><trkpt lat="43.56182420895951" lon="11.295563854351506"><ele>498.5</ele><time>2026-03-22T10:24:31Z</time></trkpt><trkpt lat="43.56172387916386" lon="11.2955999154353"><ele>502.0</ele><time>2026-03-22T10:24:32Z</time></trkpt><trkpt lat="43.561618187391694" lon="11.295652699190526"><ele>505.5</ele><time>2026-03-22T10:24:33Z</time></trkpt><trkpt lat="43.56151152342745" lon="11.295736783054487"><ele>509.0</ele><time>2026-03-22T10:24:34Z</time></trkpt><trkpt lat="43.56140415197838" lon="11.295847460987915"><ele>509.0</ele><time>2026-03-22T10:24:35Z</time></trkpt><trkpt lat="43.561300076098995" lon="11.295951689562973"><ele>509.0</ele><time>2026-03-22T10:24:36Z</time></trkpt><trkpt lat="43.56118982628222" lon="11.296048926887426"><ele>509.0</ele><time>2026-03-22T10:24:37Z</time></trkpt><trkpt lat="43.56107449244638" lon="11.29613720285977"><ele>509.0</ele><time>2026-03-22T10:24:38Z</time></trkpt><trkpt lat="43.56095619564118" lon="11.296213073613776"><ele>508.0</ele><time>2026-03-22T10:24:39Z</time></trkpt><trkpt lat="43.56083025648057" lon="11.296289157945584"><ele>507.0</ele><time>2026-03-22T10:24:40Z</time></trkpt><trkpt lat="43.56071413867404" lon="11.296351808579235"><ele>506.0</ele><time>2026-03-22T10:24:41Z</time></trkpt><trkpt lat="43.560598933505865" lon="11.296416830569633"><ele>505.0</ele><time>2026-03-22T10:24:42Z</time></trkpt><trkpt lat="43.56048375592638" lon="11.296479630368356"><ele>504.0</ele><time>2026-03-22T10:24:43Z</time></trkpt><trkpt lat="43.560363623701896" lon="11.29654141812527"><ele>503.0</ele><time>2026-03-22T10:24:44Z</time></trkpt><trkpt lat="43.56024608918832" lon="11.296600522503358"><ele>502.0</ele><time>2026-03-22T10:24:45Z</time></trkpt><trkpt lat="43.560130456092416" lon="11.296658670277454"><ele>501.0</ele><time>2026-03-22T10:24:46Z</time></trkpt><trkpt lat="43.56001138893562" lon="11.29668448562286"><ele>501.0</ele><time>2026-03-22T10:24:47Z</time></trkpt><trkpt lat="43.559885377839535" lon="11.296688746107959"><ele>501.0</ele><time>2026-03-22T10:24:48Z</time></trkpt><trkpt lat="43.55975400688482" lon="11.296707784031382"><ele>501.0</ele><time>2026-03-22T10:24:49Z</time></trkpt><trkpt lat="43.55962615743574" lon="11.296702593836503"><ele>501.0</ele><time>2026-03-22T10:24:50Z</time></trkpt><trkpt lat="43.55949812255945" lon="11.296680229131685"><ele>501.25</ele><time>2026-03-22T10:24:51Z</time></trkpt><trkpt lat="43.5593707725437" lon="11.296691660541889"><ele>501.5</ele><time>2026-03-22T10:24:52Z</time></trkpt><trkpt lat="43.559247362232654" lon="11.296732744349335"><ele>501.75</ele><time>2026-03-22T10:24:53Z</time></trkpt><trkpt lat="43.55912568120126" lon="11.296779563014692"><ele>502.0</ele><time>2026-03-22T10:24:54Z</time></trkpt><trkpt lat="43.55900499615029" lon="11.296832887558901"><ele>502.0</ele><time>2026-03-22T10:24:55Z</time></trkpt><trkpt lat="43.558895731365524" lon="11.296883619122534"><ele>502.0</ele><time>2026-03-22T10:24:56Z</time></trkpt><trkpt lat="43.55877531719035" lon="11.29692829511257"><ele>502.0</ele><time>2026-03-22T10:24:57Z</time></trkpt><trkpt lat="43.55864193463896" lon="11.296954662464756"><ele>502.0</ele><time>2026-03-22T10:24:58Z</time></trkpt><trkpt lat="43.558512576107525" lon="11.296976726073268"><ele>502.0</ele><time>2026-03-22T10:24:59Z</time></trkpt><trkpt lat="43.55838344876904" lon="11.29700998485005"><ele>502.0</ele><time>2026-03-22T10:25:00Z</time></trkpt><trkpt lat="43.55826207271385" lon="11.297063740896538"><ele>502.0</ele><time>2026-03-22T10:25:01Z</time></trkpt><trkpt lat="43.55813705275145" lon="11.297135552779242"><ele>502.0</ele><time>2026-03-22T10:25:02Z</time></trkpt><trkpt lat="43.55802058749826" lon="11.297207613419804"><ele>501.40000000000003</ele><time>2026-03-22T10:25:03Z</time></trkpt><trkpt lat="43.557910594060886" lon="11.297280509894486"><ele>500.80000000000007</ele><time>2026-03-22T10:25:04Z</time></trkpt><trkpt lat="43.55780714250053" lon="11.297356299858501"><ele>500.2</ele><time>2026-03-22T10:25:05Z</time></trkpt><trkpt lat="43.557710429565134" lon="11.297411885079542"><ele>499.6</ele><time>2026-03-22T10:25:06Z</time></trkpt><trkpt lat="43.55761120774082" lon="11.297426842381007"><ele>499.0</ele><time>2026-03-22T10:25:07Z</time></trkpt><trkpt lat="43.55749471910068" lon="11.297404417944428"><ele>499.0</ele><time>2026-03-22T10:25:08Z</time></trkpt><trkpt lat="43.55736802298297" lon="11.29738809260251"><ele>499.0</ele><time>2026-03-22T10:25:09Z</time></trkpt><trkpt lat="43.55723409296813" lon="11.297380263261049"><ele>499.0</ele><time>2026-03-22T10:25:10Z</time></trkpt><trkpt lat="43.55709634386112" lon="11.297389802707437"><ele>499.0</ele><time>2026-03-22T10:25:11Z</time></trkpt><trkpt lat="43.55695084554858" lon="11.297432483687997"><ele>497.5</ele><time>2026-03-22T10:25:12Z</time></trkpt><trkpt lat="43.55682054241924" lon="11.297483066869171"><ele>496.0</ele><time>2026-03-22T10:25:13Z</time></trkpt><trkpt lat="43.556689088177244" lon="11.297535033839365"><ele>494.5</ele><time>2026-03-22T10:25:14Z</time></trkpt><trkpt lat="43.55655836683842" lon="11.297576928303723"><ele>493.0</ele><time>2026-03-22T10:25:15Z</time></trkpt><trkpt lat="43.55642622149409" lon="11.297600278238297"><ele>493.0</ele><time>2026-03-22T10:25:16Z</time></trkpt><trkpt lat="43.55628827187583" lon="11.297618447526201"><ele>493.0</ele><time>2026-03-22T10:25:16.999Z</time></trkpt><trkpt lat="43.55615759213288" lon="11.297639316801623"><ele>493.0</ele><time>2026-03-22T10:25:17.999Z</time></trkpt><trkpt lat="43.55603164411955" lon="11.297666552348645"><ele>493.0</ele><time>2026-03-22T10:25:18.999Z</time></trkpt><trkpt lat="43.55590118436787" lon="11.297701926921926"><ele>491.5</ele><time>2026-03-22T10:25:19.999Z</time></trkpt><trkpt lat="43.55577232846927" lon="11.29774069547614"><ele>490.0</ele><time>2026-03-22T10:25:20.999Z</time></trkpt><trkpt lat="43.55564513866261" lon="11.297777896759303"><ele>488.5</ele><time>2026-03-22T10:25:21.999Z</time></trkpt><trkpt lat="43.55552075910833" lon="11.297814276079794"><ele>487.0</ele><time>2026-03-22T10:25:22.999Z</time></trkpt><trkpt lat="43.55539225979167" lon="11.297851860374454"><ele>485.75</ele><time>2026-03-22T10:25:23.999Z</time></trkpt><trkpt lat="43.5552623018288" lon="11.29789356500753"><ele>484.5</ele><time>2026-03-22T10:25:24.999Z</time></trkpt><trkpt lat="43.55511772666372" lon="11.29795042948429"><ele>483.25</ele><time>2026-03-22T10:25:25.999Z</time></trkpt><trkpt lat="43.55496956974236" lon="11.298025574905747"><ele>482.0</ele><time>2026-03-22T10:25:26.999Z</time></trkpt><trkpt lat="43.554826273663174" lon="11.298121894138237"><ele>482.0</ele><time>2026-03-22T10:25:27.999Z</time></trkpt><trkpt lat="43.55470774802466" lon="11.298215160865247"><ele>482.0</ele><time>2026-03-22T10:25:28.999Z</time></trkpt><trkpt lat="43.554594472057396" lon="11.298327486234339"><ele>482.0</ele><time>2026-03-22T10:25:29.999Z</time></trkpt><trkpt lat="43.55447820498241" lon="11.298469982479437"><ele>482.0</ele><time>2026-03-22T10:25:30.999Z</time></trkpt><trkpt lat="43.554358544178356" lon="11.298623084219846"><ele>482.0</ele><time>2026-03-22T10:25:31.999Z</time></trkpt><trkpt lat="43.55423622500583" lon="11.298729909483246"><ele>482.0</ele><time>2026-03-22T10:25:32.999Z</time></trkpt><trkpt lat="43.554102937320025" lon="11.29880095092711"><ele>482.0</ele><time>2026-03-22T10:25:33.999Z</time></trkpt><trkpt lat="43.553946452843164" lon="11.298831261383423"><ele>482.0</ele><time>2026-03-22T10:25:34.999Z</time></trkpt><trkpt lat="43.55375619103551" lon="11.298814778935647"><ele>483.3333333333333</ele><time>2026-03-22T10:25:35.999Z</time></trkpt><trkpt lat="43.553594720496086" lon="11.298830401589935"><ele>484.66666666666663</ele><time>2026-03-22T10:25:36.999Z</time></trkpt><trkpt lat="43.55344234046439" lon="11.298837552978766"><ele>486.0</ele><time>2026-03-22T10:25:37.999Z</time></trkpt><trkpt lat="43.55330386087262" lon="11.298900991499307"><ele>488.5</ele><time>2026-03-22T10:25:38.999Z</time></trkpt><trkpt lat="43.5531916776765" lon="11.298985544015158"><ele>491.0</ele><time>2026-03-22T10:25:39.999Z</time></trkpt><trkpt lat="43.55309546200842" lon="11.299106224404216"><ele>493.5</ele><time>2026-03-22T10:25:40.999Z</time></trkpt><trkpt lat="43.55302523225706" lon="11.29926603118306"><ele>496.0</ele><time>2026-03-22T10:25:41.999Z</time></trkpt><trkpt lat="43.55296847001748" lon="11.2994085598937"><ele>496.0</ele><time>2026-03-22T10:25:42.999Z</time></trkpt><trkpt lat="43.55291256586377" lon="11.299563023699717"><ele>496.0</ele><time>2026-03-22T10:25:43.999Z</time></trkpt><trkpt lat="43.55286055320399" lon="11.299707758633794"><ele>496.0</ele><time>2026-03-22T10:25:44.999Z</time></trkpt><trkpt lat="43.552811260899894" lon="11.299836537470334"><ele>496.0</ele><time>2026-03-22T10:25:45.999Z</time></trkpt><trkpt lat="43.5527477744633" lon="11.299980820980421"><ele>497.25</ele><time>2026-03-22T10:25:46.999Z</time></trkpt><trkpt lat="43.5526730150052" lon="11.30014301969929"><ele>498.5</ele><time>2026-03-22T10:25:47.999Z</time></trkpt><trkpt lat="43.552598739701786" lon="11.300297824211933"><ele>499.75</ele><time>2026-03-22T10:25:48.999Z</time></trkpt><trkpt lat="43.55252704230641" lon="11.300453693744418"><ele>501.0</ele><time>2026-03-22T10:25:49.999Z</time></trkpt><trkpt lat="43.552458289263214" lon="11.300614402768572"><ele>501.0</ele><time>2026-03-22T10:25:50.999Z</time></trkpt><trkpt lat="43.552386571876454" lon="11.300785515120271"><ele>501.0</ele><time>2026-03-22T10:25:51.999Z</time></trkpt><trkpt lat="43.55231461288388" lon="11.30095889061192"><ele>501.0</ele><time>2026-03-22T10:25:52.999Z</time></trkpt><trkpt lat="43.55224791826218" lon="11.301137412453095"><ele>501.0</ele><time>2026-03-22T10:25:53.999Z</time></trkpt><trkpt lat="43.552192990405594" lon="11.301331097369243"><ele>499.66666666666663</ele><time>2026-03-22T10:25:54.999Z</time></trkpt><trkpt lat="43.55215142814907" lon="11.30150284328945"><ele>498.3333333333333</ele><time>2026-03-22T10:25:55.999Z</time></trkpt><trkpt lat="43.55208744396106" lon="11.301739395052389"><ele>497.0</ele><time>2026-03-22T10:25:56.999Z</time></trkpt><trkpt lat="43.55201574421212" lon="11.301950510321651"><ele>496.0</ele><time>2026-03-22T10:25:57.999Z</time></trkpt><trkpt lat="43.551927358215096" lon="11.30217684066991"><ele>495.0</ele><time>2026-03-22T10:25:58.999Z</time></trkpt><trkpt lat="43.551886735750195" lon="11.302275067718016"><ele>494.0</ele><time>2026-03-22T10:25:59.999Z</time></trkpt><trkpt lat="43.55182257630124" lon="11.302428918394348"><ele>493.0</ele><time>2026-03-22T10:26:00.999Z</time></trkpt><trkpt lat="43.55176430944268" lon="11.302561503983535"><ele>494.59999999999997</ele><time>2026-03-22T10:26:01.999Z</time></trkpt><trkpt lat="43.551699170196514" lon="11.302681622145625"><ele>496.19999999999993</ele><time>2026-03-22T10:26:02.999Z</time></trkpt><trkpt lat="43.55162953436458" lon="11.302784273755673"><ele>497.8</ele><time>2026-03-22T10:26:03.999Z</time></trkpt><trkpt lat="43.55155260927327" lon="11.302874753576296"><ele>499.4</ele><time>2026-03-22T10:26:04.999Z</time></trkpt><trkpt lat="43.551473243644715" lon="11.302948726677817"><ele>501.0</ele><time>2026-03-22T10:26:05.999Z</time></trkpt><trkpt lat="43.55137760515351" lon="11.303030105866915"><ele>501.5</ele><time>2026-03-22T10:26:06.999Z</time></trkpt><trkpt lat="43.55129369224166" lon="11.303098426061773"><ele>502.0</ele><time>2026-03-22T10:26:07.999Z</time></trkpt><trkpt lat="43.551180742410025" lon="11.30319447867539"><ele>502.5</ele><time>2026-03-22T10:26:08.999Z</time></trkpt><trkpt lat="43.551081640645094" lon="11.303289817378985"><ele>503.0</ele><time>2026-03-22T10:26:09.999Z</time></trkpt><trkpt lat="43.55097102421422" lon="11.303401049030493"><ele>501.5</ele><time>2026-03-22T10:26:10.999Z</time></trkpt><trkpt lat="43.550861491487574" lon="11.303521607287982"><ele>500.0</ele><time>2026-03-22T10:26:11.999Z</time></trkpt><trkpt lat="43.550751684803544" lon="11.303654878066672"><ele>498.5</ele><time>2026-03-22T10:26:12.999Z</time></trkpt><trkpt lat="43.55064404110366" lon="11.30378665615742"><ele>497.0</ele><time>2026-03-22T10:26:13.999Z</time></trkpt><trkpt lat="43.550538055977725" lon="11.303916234114157"><ele>495.5</ele><time>2026-03-22T10:26:14.999Z</time></trkpt><trkpt lat="43.55043418417907" lon="11.304040657139375"><ele>494.0</ele><time>2026-03-22T10:26:15.999Z</time></trkpt><trkpt lat="43.55033588647838" lon="11.304155509187442"><ele>492.5</ele><time>2026-03-22T10:26:16.999Z</time></trkpt><trkpt lat="43.55023532507097" lon="11.304265634250736"><ele>491.0</ele><time>2026-03-22T10:26:17.999Z</time></trkpt><trkpt lat="43.55013500881277" lon="11.304372102851003"><ele>491.0</ele><time>2026-03-22T10:26:18.999Z</time></trkpt><trkpt lat="43.550033400143036" lon="11.304469361521292"><ele>491.0</ele><time>2026-03-22T10:26:19.999Z</time></trkpt><trkpt lat="43.549926179011514" lon="11.304575423375288"><ele>491.0</ele><time>2026-03-22T10:26:20.999Z</time></trkpt><trkpt lat="43.5498116934216" lon="11.304688893346999"><ele>491.0</ele><time>2026-03-22T10:26:21.999Z</time></trkpt><trkpt lat="43.54970157170814" lon="11.30480836956682"><ele>488.25</ele><time>2026-03-22T10:26:22.999Z</time></trkpt><trkpt lat="43.549595545531965" lon="11.304936976522638"><ele>485.5</ele><time>2026-03-22T10:26:23.999Z</time></trkpt><trkpt lat="43.54949860451455" lon="11.305060213282628"><ele>482.75</ele><time>2026-03-22T10:26:24.999Z</time></trkpt><trkpt lat="43.549398663332276" lon="11.305182141307323"><ele>480.0</ele><time>2026-03-22T10:26:25.999Z</time></trkpt><trkpt lat="43.54929914257349" lon="11.305303053419637"><ele>480.0</ele><time>2026-03-22T10:26:26.999Z</time></trkpt><trkpt lat="43.549200871991424" lon="11.30543465103787"><ele>480.0</ele><time>2026-03-22T10:26:27.999Z</time></trkpt><trkpt lat="43.54910784264438" lon="11.30556697118582"><ele>480.0</ele><time>2026-03-22T10:26:28.999Z</time></trkpt><trkpt lat="43.54901654094746" lon="11.305695889797935"><ele>480.0</ele><time>2026-03-22T10:26:29.999Z</time></trkpt><trkpt lat="43.54892371910577" lon="11.305822161502613"><ele>478.2</ele><time>2026-03-22T10:26:30.999Z</time></trkpt><trkpt lat="43.54883306645942" lon="11.305946522759436"><ele>476.4</ele><time>2026-03-22T10:26:32Z</time></trkpt><trkpt lat="43.54875658559862" lon="11.306049794126098"><ele>474.6</ele><time>2026-03-22T10:26:33Z</time></trkpt><trkpt lat="43.548684088237906" lon="11.306141363044855"><ele>472.8</ele><time>2026-03-22T10:26:34Z</time></trkpt><trkpt lat="43.548607206008704" lon="11.306240027388355"><ele>471.0</ele><time>2026-03-22T10:26:35Z</time></trkpt><trkpt lat="43.548522131060764" lon="11.306346105986286"><ele>471.6</ele><time>2026-03-22T10:26:36Z</time></trkpt><trkpt lat="43.5484354569519" lon="11.306451433504613"><ele>472.20000000000005</ele><time>2026-03-22T10:26:37Z</time></trkpt><trkpt lat="43.54835430347894" lon="11.306544119273603"><ele>472.79999999999995</ele><time>2026-03-22T10:26:38Z</time></trkpt><trkpt lat="43.548278223224884" lon="11.306596324561577"><ele>473.4</ele><time>2026-03-22T10:26:39Z</time></trkpt><trkpt lat="43.548195822669385" lon="11.306615268451019"><ele>474.0</ele><time>2026-03-22T10:26:40Z</time></trkpt><trkpt lat="43.54809432348319" lon="11.306536308761519"><ele>474.0</ele><time>2026-03-22T10:26:41Z</time></trkpt><trkpt lat="43.54800795047351" lon="11.306442234282443"><ele>474.0</ele><time>2026-03-22T10:26:42Z</time></trkpt><trkpt lat="43.547903209806215" lon="11.306378574728926"><ele>474.0</ele><time>2026-03-22T10:26:43Z</time></trkpt><trkpt lat="43.54779820417397" lon="11.306347525028675"><ele>474.0</ele><time>2026-03-22T10:26:44Z</time></trkpt><trkpt lat="43.54768769220394" lon="11.306358649485043"><ele>474.0</ele><time>2026-03-22T10:26:45Z</time></trkpt><trkpt lat="43.54757068683495" lon="11.306397290509096"><ele>472.25</ele><time>2026-03-22T10:26:46Z</time></trkpt><trkpt lat="43.54744055816217" lon="11.306436845278172"><ele>470.5</ele><time>2026-03-22T10:26:47Z</time></trkpt><trkpt lat="43.54731296030336" lon="11.306513684671902"><ele>468.75</ele><time>2026-03-22T10:26:48Z</time></trkpt><trkpt lat="43.54719111835631" lon="11.306597993490104"><ele>467.0</ele><time>2026-03-22T10:26:49Z</time></trkpt><trkpt lat="43.54708510556296" lon="11.30667044994514"><ele>464.20000000000005</ele><time>2026-03-22T10:26:50Z</time></trkpt><trkpt lat="43.54699006054263" lon="11.306729991489123"><ele>461.40000000000003</ele><time>2026-03-22T10:26:51Z</time></trkpt><trkpt lat="43.54689862441942" lon="11.306791013837119"><ele>458.59999999999997</ele><time>2026-03-22T10:26:52Z</time></trkpt><trkpt lat="43.54680820027356" lon="11.306890704104564"><ele>455.79999999999995</ele><time>2026-03-22T10:26:53Z</time></trkpt><trkpt lat="43.54674686840884" lon="11.307041620265906"><ele>453.0</ele><time>2026-03-22T10:26:54Z</time></trkpt><trkpt lat="43.54670260486637" lon="11.307223811999926"><ele>453.75</ele><time>2026-03-22T10:26:55Z</time></trkpt><trkpt lat="43.546658420961414" lon="11.307391728793206"><ele>454.5</ele><time>2026-03-22T10:26:56Z</time></trkpt><trkpt lat="43.54661727705208" lon="11.307547611328658"><ele>455.25</ele><time>2026-03-22T10:26:57Z</time></trkpt><trkpt lat="43.54656629439562" lon="11.307684400701612"><ele>456.0</ele><time>2026-03-22T10:26:58Z</time></trkpt><trkpt lat="43.546492232748804" lon="11.307791035397623"><ele>456.0</ele><time>2026-03-22T10:26:59Z</time></trkpt><trkpt lat="43.54638971519288" lon="11.307892589710722"><ele>456.0</ele><time>2026-03-22T10:27:00Z</time></trkpt><trkpt lat="43.54629132205034" lon="11.308028529965698"><ele>456.0</ele><time>2026-03-22T10:27:01Z</time></trkpt><trkpt lat="43.546203498435084" lon="11.308180841684123"><ele>456.0</ele><time>2026-03-22T10:27:02Z</time></trkpt><trkpt lat="43.5461223464009" lon="11.30831024801809"><ele>453.75</ele><time>2026-03-22T10:27:03Z</time></trkpt><trkpt lat="43.54602819188941" lon="11.308423230481605"><ele>451.5</ele><time>2026-03-22T10:27:04Z</time></trkpt><trkpt lat="43.545936993870065" lon="11.308533757531105"><ele>449.25</ele><time>2026-03-22T10:27:05Z</time></trkpt><trkpt lat="43.54586053861206" lon="11.308670217736887"><ele>447.0</ele><time>2026-03-22T10:27:06Z</time></trkpt><trkpt lat="43.54579330763866" lon="11.30882574323555"><ele>448.75</ele><time>2026-03-22T10:27:07Z</time></trkpt><trkpt lat="43.545724972961516" lon="11.30897910730437"><ele>450.5</ele><time>2026-03-22T10:27:08Z</time></trkpt><trkpt lat="43.545654707196206" lon="11.309125457381594"><ele>452.25</ele><time>2026-03-22T10:27:09Z</time></trkpt><trkpt lat="43.54558634066482" lon="11.309267653266124"><ele>454.0</ele><time>2026-03-22T10:27:10Z</time></trkpt><trkpt lat="43.54552113682572" lon="11.309397214659107"><ele>454.0</ele><time>2026-03-22T10:27:11Z</time></trkpt><trkpt lat="43.545458018455996" lon="11.30952629669003"><ele>454.0</ele><time>2026-03-22T10:27:12Z</time></trkpt><trkpt lat="43.54541369529741" lon="11.309672093161556"><ele>454.0</ele><time>2026-03-22T10:27:13Z</time></trkpt><trkpt lat="43.54538642776306" lon="11.30980471698484"><ele>454.0</ele><time>2026-03-22T10:27:14Z</time></trkpt><trkpt lat="43.545377338032345" lon="11.309942371256637"><ele>454.0</ele><time>2026-03-22T10:27:15Z</time></trkpt><trkpt lat="43.545373671692744" lon="11.310043282897615"><ele>452.79999999999995</ele><time>2026-03-22T10:27:16Z</time></trkpt><trkpt lat="43.5453756931064" lon="11.310179440348962"><ele>451.59999999999997</ele><time>2026-03-22T10:27:18Z</time></trkpt><trkpt lat="43.54536543484194" lon="11.310310408962543"><ele>450.4</ele><time>2026-03-22T10:27:20Z</time></trkpt><trkpt lat="43.54528955501451" lon="11.310439516069517"><ele>449.2</ele><time>2026-03-22T10:27:21.999Z</time></trkpt><trkpt lat="43.54525717317252" lon="11.310533094863807"><ele>448.0</ele><time>2026-03-22T10:27:22.999Z</time></trkpt><trkpt lat="43.545229447252915" lon="11.310660046340331"><ele>448.0</ele><time>2026-03-22T10:27:23.999Z</time></trkpt><trkpt lat="43.54520268105854" lon="11.310816408073757"><ele>448.0</ele><time>2026-03-22T10:27:24.999Z</time></trkpt><trkpt lat="43.54516904133389" lon="11.311010903744402"><ele>448.0</ele><time>2026-03-22T10:27:25.999Z</time></trkpt><trkpt lat="43.545133200296405" lon="11.311208169248001"><ele>448.0</ele><time>2026-03-22T10:27:26.999Z</time></trkpt><trkpt lat="43.54510045673172" lon="11.311384634497248"><ele>448.5</ele><time>2026-03-22T10:27:27.999Z</time></trkpt><trkpt lat="43.545059759805255" lon="11.311548001588356"><ele>449.0</ele><time>2026-03-22T10:27:28.999Z</time></trkpt><trkpt lat="43.54499658187216" lon="11.311687673476927"><ele>449.5</ele><time>2026-03-22T10:27:29.999Z</time></trkpt><trkpt lat="43.544915286500654" lon="11.311821989921652"><ele>450.0</ele><time>2026-03-22T10:27:30.999Z</time></trkpt><trkpt lat="43.54481348238067" lon="11.311923574583545"><ele>450.0</ele><time>2026-03-22T10:27:31.999Z</time></trkpt><trkpt lat="43.54469997601246" lon="11.312037069349003"><ele>450.0</ele><time>2026-03-22T10:27:32.999Z</time></trkpt><trkpt lat="43.54458515486488" lon="11.31215109184994"><ele>450.0</ele><time>2026-03-22T10:27:33.999Z</time></trkpt><trkpt lat="43.54446567345657" lon="11.312268817624627"><ele>450.0</ele><time>2026-03-22T10:27:34.999Z</time></trkpt><trkpt lat="43.54434421674813" lon="11.312389246400938"><ele>449.5</ele><time>2026-03-22T10:27:35.999Z</time></trkpt><trkpt lat="43.54422615186896" lon="11.312508266720524"><ele>449.0</ele><time>2026-03-22T10:27:36.999Z</time></trkpt><trkpt lat="43.544113157239984" lon="11.312620241182973"><ele>448.5</ele><time>2026-03-22T10:27:37.999Z</time></trkpt><trkpt lat="43.54401528964008" lon="11.312715597210811"><ele>448.0</ele><time>2026-03-22T10:27:38.999Z</time></trkpt><trkpt lat="43.54392505520769" lon="11.312804507983305"><ele>448.0</ele><time>2026-03-22T10:27:39.999Z</time></trkpt><trkpt lat="43.54384763016916" lon="11.312893589058076"><ele>447.99999999999994</ele><time>2026-03-22T10:27:40.999Z</time></trkpt><trkpt lat="43.54378489847888" lon="11.313007210975137"><ele>447.99999999999994</ele><time>2026-03-22T10:27:41.999Z</time></trkpt><trkpt lat="43.543748232539556" lon="11.313129702198154"><ele>448.0</ele><time>2026-03-22T10:27:42.999Z</time></trkpt><trkpt lat="43.54375515002685" lon="11.31327265802235"><ele>448.0</ele><time>2026-03-22T10:27:43.999Z</time></trkpt><trkpt lat="43.543808508039525" lon="11.313408518640934"><ele>449.25</ele><time>2026-03-22T10:27:44.999Z</time></trkpt><trkpt lat="43.543849751787505" lon="11.313561614276836"><ele>450.5</ele><time>2026-03-22T10:27:45.999Z</time></trkpt><trkpt lat="43.543891612149004" lon="11.313716998735703"><ele>451.75</ele><time>2026-03-22T10:27:46.999Z</time></trkpt><trkpt lat="43.54393101804579" lon="11.313867124928668"><ele>453.0</ele><time>2026-03-22T10:27:47.999Z</time></trkpt><trkpt lat="43.54396555231486" lon="11.3140152092748"><ele>453.3333333333333</ele><time>2026-03-22T10:27:48.999Z</time></trkpt><trkpt lat="43.543969220073016" lon="11.314137990166575"><ele>453.66666666666663</ele><time>2026-03-22T10:27:49.999Z</time></trkpt><trkpt lat="43.54395348224239" lon="11.314239399639385"><ele>454.0</ele><time>2026-03-22T10:27:50.999Z</time></trkpt><trkpt lat="43.54392916707088" lon="11.314329113818998"><ele>454.3333333333333</ele><time>2026-03-22T10:27:51.999Z</time></trkpt><trkpt lat="43.54389338693494" lon="11.314432391066113"><ele>454.66666666666663</ele><time>2026-03-22T10:27:52.999Z</time></trkpt><trkpt lat="43.543854979175045" lon="11.314533451559896"><ele>455.0</ele><time>2026-03-22T10:27:53.999Z</time></trkpt><trkpt lat="43.54379872216237" lon="11.314628282134843"><ele>455.0</ele><time>2026-03-22T10:27:54.999Z</time></trkpt><trkpt lat="43.54372272710571" lon="11.314705705569517"><ele>455.0</ele><time>2026-03-22T10:27:55.999Z</time></trkpt><trkpt lat="43.543643211586684" lon="11.314779681331204"><ele>455.0</ele><time>2026-03-22T10:27:56.999Z</time></trkpt><trkpt lat="43.54355822700505" lon="11.314858921395151"><ele>455.0</ele><time>2026-03-22T10:27:57.999Z</time></trkpt><trkpt lat="43.54347198932405" lon="11.314939420372683"><ele>455.0</ele><time>2026-03-22T10:27:58.999Z</time></trkpt><trkpt lat="43.54338795013311" lon="11.315016003858053"><ele>453.8</ele><time>2026-03-22T10:27:59.999Z</time></trkpt><trkpt lat="43.54330504743901" lon="11.315084923055775"><ele>452.6</ele><time>2026-03-22T10:28:00.999Z</time></trkpt><trkpt lat="43.5432195891485" lon="11.315147984841085"><ele>451.4</ele><time>2026-03-22T10:28:01.999Z</time></trkpt><trkpt lat="43.54312649722426" lon="11.315203473249401"><ele>450.2</ele><time>2026-03-22T10:28:02.999Z</time></trkpt><trkpt lat="43.543022799091716" lon="11.315245170848668"><ele>449.0</ele><time>2026-03-22T10:28:03.999Z</time></trkpt><trkpt lat="43.542922592660815" lon="11.31529355322373"><ele>445.5</ele><time>2026-03-22T10:28:04.999Z</time></trkpt><trkpt lat="43.542818884332895" lon="11.31534283962742"><ele>442.0</ele><time>2026-03-22T10:28:05.999Z</time></trkpt><trkpt lat="43.542707654425904" lon="11.315395134560166"><ele>438.5</ele><time>2026-03-22T10:28:06.999Z</time></trkpt><trkpt lat="43.54259362541791" lon="11.315448745498244"><ele>435.0</ele><time>2026-03-22T10:28:07.999Z</time></trkpt><trkpt lat="43.54247529490901" lon="11.31550185567282"><ele>435.0</ele><time>2026-03-22T10:28:08.999Z</time></trkpt><trkpt lat="43.542360631374876" lon="11.31555335358121"><ele>435.0</ele><time>2026-03-22T10:28:09.999Z</time></trkpt><trkpt lat="43.54224613336713" lon="11.315605758229186"><ele>435.0</ele><time>2026-03-22T10:28:10.999Z</time></trkpt><trkpt lat="43.54213680495984" lon="11.315655859551102"><ele>435.0</ele><time>2026-03-22T10:28:11.999Z</time></trkpt><trkpt lat="43.54203650239044" lon="11.315721922832504"><ele>435.8</ele><time>2026-03-22T10:28:12.999Z</time></trkpt><trkpt lat="43.54193815286807" lon="11.315757246970552"><ele>436.6</ele><time>2026-03-22T10:28:13.999Z</time></trkpt><trkpt lat="43.54183911168583" lon="11.315783348597444"><ele>437.4</ele><time>2026-03-22T10:28:14.999Z</time></trkpt><trkpt lat="43.5417434277743" lon="11.315790381844351"><ele>438.2</ele><time>2026-03-22T10:28:15.999Z</time></trkpt><trkpt lat="43.541654084367075" lon="11.315784765594245"><ele>439.0</ele><time>2026-03-22T10:28:16.999Z</time></trkpt><trkpt lat="43.541573250398365" lon="11.315761703347743"><ele>439.00000000000006</ele><time>2026-03-22T10:28:17.999Z</time></trkpt><trkpt lat="43.54149745969951" lon="11.315722189706834"><ele>439.0</ele><time>2026-03-22T10:28:18.999Z</time></trkpt><trkpt lat="43.541432771981256" lon="11.315695923573484"><ele>439.0</ele><time>2026-03-22T10:28:19.999Z</time></trkpt><trkpt lat="43.54135224634402" lon="11.31568378563305"><ele>439.0</ele><time>2026-03-22T10:28:20.999Z</time></trkpt><trkpt lat="43.54125758073247" lon="11.315651701475455"><ele>439.00000000000006</ele><time>2026-03-22T10:28:21.999Z</time></trkpt><trkpt lat="43.54115016180116" lon="11.315640713098789"><ele>439.0</ele><time>2026-03-22T10:28:22.999Z</time></trkpt><trkpt lat="43.54104947562193" lon="11.315655124128492"><ele>438.79999999999995</ele><time>2026-03-22T10:28:23.999Z</time></trkpt><trkpt lat="43.54095619346477" lon="11.315687550039767"><ele>438.59999999999997</ele><time>2026-03-22T10:28:24.999Z</time></trkpt><trkpt lat="43.54086018535529" lon="11.315733595554422"><ele>438.4</ele><time>2026-03-22T10:28:25.999Z</time></trkpt><trkpt lat="43.54074930630092" lon="11.315771848434034"><ele>438.2</ele><time>2026-03-22T10:28:26.999Z</time></trkpt><trkpt lat="43.54064761487907" lon="11.315852215306602"><ele>438.0</ele><time>2026-03-22T10:28:27.999Z</time></trkpt><trkpt lat="43.540555295901314" lon="11.315945666133738"><ele>438.0</ele><time>2026-03-22T10:28:28.999Z</time></trkpt><trkpt lat="43.540463782888466" lon="11.316048558359773"><ele>438.0</ele><time>2026-03-22T10:28:29.999Z</time></trkpt><trkpt lat="43.54037654685338" lon="11.31616815352512"><ele>438.0</ele><time>2026-03-22T10:28:30.999Z</time></trkpt><trkpt lat="43.54032128736201" lon="11.316328320160284"><ele>438.0</ele><time>2026-03-22T10:28:31.999Z</time></trkpt><trkpt lat="43.540251351584416" lon="11.31645735565136"><ele>440.0</ele><time>2026-03-22T10:28:32.999Z</time></trkpt><trkpt lat="43.54016341559133" lon="11.316553546645343"><ele>442.0</ele><time>2026-03-22T10:28:33.999Z</time></trkpt><trkpt lat="43.540077833555095" lon="11.316655520768773"><ele>444.0</ele><time>2026-03-22T10:28:34.999Z</time></trkpt><trkpt lat="43.53996693033233" lon="11.316713328588136"><ele>446.0</ele><time>2026-03-22T10:28:35.999Z</time></trkpt><trkpt lat="43.53985206771074" lon="11.316745697013596"><ele>446.0</ele><time>2026-03-22T10:28:36.999Z</time></trkpt><trkpt lat="43.53974019934928" lon="11.316769240198747"><ele>446.0</ele><time>2026-03-22T10:28:38Z</time></trkpt><trkpt lat="43.539634682538306" lon="11.31679552737983"><ele>446.0</ele><time>2026-03-22T10:28:39Z</time></trkpt><trkpt lat="43.53954608972058" lon="11.316833593702231"><ele>446.0</ele><time>2026-03-22T10:28:40Z</time></trkpt><trkpt lat="43.539470317717914" lon="11.31687335853007"><ele>446.0</ele><time>2026-03-22T10:28:41Z</time></trkpt><trkpt lat="43.53940783885007" lon="11.316908496248601"><ele>445.4</ele><time>2026-03-22T10:28:42Z</time></trkpt><trkpt lat="43.539321666954365" lon="11.316963101635174"><ele>444.8</ele><time>2026-03-22T10:28:44Z</time></trkpt><trkpt lat="43.539263939705314" lon="11.317023989190359"><ele>444.19999999999993</ele><time>2026-03-22T10:28:53Z</time></trkpt><trkpt lat="43.539259388040456" lon="11.317143574088044"><ele>443.59999999999997</ele><time>2026-03-22T10:28:55Z</time></trkpt><trkpt lat="43.539380215213065" lon="11.317253603511197"><ele>443.0</ele><time>2026-03-22T10:28:57Z</time></trkpt><trkpt lat="43.53945823010684" lon="11.317280760700243"><ele>446.0</ele><time>2026-03-22T10:28:58Z</time></trkpt><trkpt lat="43.53954953631966" lon="11.317312038891101"><ele>448.99999999999994</ele><time>2026-03-22T10:28:59Z</time></trkpt><trkpt lat="43.539636579675246" lon="11.317342699994132"><ele>451.99999999999994</ele><time>2026-03-22T10:29:00Z</time></trkpt><trkpt lat="43.53972988106183" lon="11.317375410084162"><ele>455.0</ele><time>2026-03-22T10:29:01Z</time></trkpt><trkpt lat="43.539835307600725" lon="11.31739384960883"><ele>458.0</ele><time>2026-03-22T10:29:02Z</time></trkpt><trkpt lat="43.53994877385561" lon="11.31739401204733"><ele>458.4</ele><time>2026-03-22T10:29:03Z</time></trkpt><trkpt lat="43.54005356370302" lon="11.317402141586996"><ele>458.79999999999995</ele><time>2026-03-22T10:29:04Z</time></trkpt><trkpt lat="43.540138904134444" lon="11.317437720150426"><ele>459.2</ele><time>2026-03-22T10:29:05Z</time></trkpt><trkpt lat="43.540228830745264" lon="11.317504190745558"><ele>459.6</ele><time>2026-03-22T10:29:06Z</time></trkpt><trkpt lat="43.540330749624914" lon="11.317500119274031"><ele>460.0</ele><time>2026-03-22T10:29:07Z</time></trkpt><trkpt lat="43.540431238110784" lon="11.317603309839003"><ele>462.25</ele><time>2026-03-22T10:29:08Z</time></trkpt><trkpt lat="43.54055142321248" lon="11.317629163521332"><ele>464.5</ele><time>2026-03-22T10:29:09Z</time></trkpt><trkpt lat="43.540685690204" lon="11.317643231699565"><ele>466.75</ele><time>2026-03-22T10:29:10Z</time></trkpt><trkpt lat="43.54081815446586" lon="11.317647380453813"><ele>469.0</ele><time>2026-03-22T10:29:11Z</time></trkpt><trkpt lat="43.540944125538935" lon="11.317658549791984"><ele>469.0</ele><time>2026-03-22T10:29:12Z</time></trkpt><trkpt lat="43.54105416744404" lon="11.31766747351709"><ele>469.0</ele><time>2026-03-22T10:29:13Z</time></trkpt><trkpt lat="43.5411707887288" lon="11.31767332075963"><ele>469.0</ele><time>2026-03-22T10:29:14Z</time></trkpt><trkpt lat="43.54128504414118" lon="11.31768539872353"><ele>469.0</ele><time>2026-03-22T10:29:15Z</time></trkpt><trkpt lat="43.54139848047326" lon="11.31770141911777"><ele>470.0</ele><time>2026-03-22T10:29:16Z</time></trkpt><trkpt lat="43.541500659751414" lon="11.317758481534861"><ele>471.0</ele><time>2026-03-22T10:29:17Z</time></trkpt><trkpt lat="43.541591342265654" lon="11.317808649958952"><ele>472.0</ele><time>2026-03-22T10:29:18Z</time></trkpt><trkpt lat="43.541658671550216" lon="11.317860780713444"><ele>473.0</ele><time>2026-03-22T10:29:19Z</time></trkpt><trkpt lat="43.541726882153064" lon="11.317909029790085"><ele>474.0</ele><time>2026-03-22T10:29:20Z</time></trkpt><trkpt lat="43.54180509517085" lon="11.317964116514846"><ele>474.0</ele><time>2026-03-22T10:29:21Z</time></trkpt><trkpt lat="43.541881415939805" lon="11.318015573156812"><ele>474.0</ele><time>2026-03-22T10:29:22Z</time></trkpt><trkpt lat="43.54196060149728" lon="11.318068477863417"><ele>474.0</ele><time>2026-03-22T10:29:23Z</time></trkpt><trkpt lat="43.54204979145928" lon="11.318125439284298"><ele>474.0</ele><time>2026-03-22T10:29:24Z</time></trkpt><trkpt lat="43.54214893541787" lon="11.318167723776465"><ele>474.0</ele><time>2026-03-22T10:29:25Z</time></trkpt><trkpt lat="43.54225107912898" lon="11.318156308750421"><ele>475.2</ele><time>2026-03-22T10:29:25.999Z</time></trkpt><trkpt lat="43.542346993730106" lon="11.318142520148056"><ele>476.4</ele><time>2026-03-22T10:29:26.999Z</time></trkpt><trkpt lat="43.5424399281957" lon="11.318098145321995"><ele>477.6</ele><time>2026-03-22T10:29:27.999Z</time></trkpt><trkpt lat="43.54252629957092" lon="11.318016701905918"><ele>478.8</ele><time>2026-03-22T10:29:28.999Z</time></trkpt><trkpt lat="43.54260921884213" lon="11.317926807174619"><ele>480.0</ele><time>2026-03-22T10:29:29.999Z</time></trkpt><trkpt lat="43.54268237602775" lon="11.31783368719196"><ele>480.0</ele><time>2026-03-22T10:29:30.999Z</time></trkpt><trkpt lat="43.54274928384464" lon="11.317757526133466"><ele>480.0</ele><time>2026-03-22T10:29:31.999Z</time></trkpt><trkpt lat="43.542811420623075" lon="11.317697281734898"><ele>480.0</ele><time>2026-03-22T10:29:32.999Z</time></trkpt><trkpt lat="43.542874210165365" lon="11.317640108524147"><ele>480.0</ele><time>2026-03-22T10:29:33.999Z</time></trkpt><trkpt lat="43.542963731244804" lon="11.317701196236383"><ele>480.0</ele><time>2026-03-22T10:29:34.999Z</time></trkpt><trkpt lat="43.54305787898629" lon="11.3177269898641"><ele>480.0</ele><time>2026-03-22T10:29:35.999Z</time></trkpt><trkpt lat="43.5431488000068" lon="11.317740423324627"><ele>481.3333333333333</ele><time>2026-03-22T10:29:36.999Z</time></trkpt><trkpt lat="43.543194916232835" lon="11.317806401264093"><ele>482.66666666666663</ele><time>2026-03-22T10:29:37.999Z</time></trkpt><trkpt lat="43.54320256865006" lon="11.317928164844052"><ele>484.0</ele><time>2026-03-22T10:29:40.999Z</time></trkpt><trkpt lat="43.54315422682579" lon="11.318050175314621"><ele>485.3333333333333</ele><time>2026-03-22T10:29:42.999Z</time></trkpt><trkpt lat="43.54310473859559" lon="11.318148380000327"><ele>486.66666666666663</ele><time>2026-03-22T10:29:43.999Z</time></trkpt><trkpt lat="43.543046110605744" lon="11.318248050871423"><ele>488.0</ele><time>2026-03-22T10:29:44.999Z</time></trkpt><trkpt lat="43.54297402067743" lon="11.318350652562597"><ele>488.0</ele><time>2026-03-22T10:29:45.999Z</time></trkpt><trkpt lat="43.54288398884078" lon="11.318452331337925"><ele>488.0</ele><time>2026-03-22T10:29:46.999Z</time></trkpt><trkpt lat="43.54278547992232" lon="11.318555405083478"><ele>488.0</ele><time>2026-03-22T10:29:47.999Z</time></trkpt><trkpt lat="43.54269009690253" lon="11.31865613222703"><ele>488.0</ele><time>2026-03-22T10:29:48.999Z</time></trkpt><trkpt lat="43.54259029150254" lon="11.318763043714"><ele>488.0</ele><time>2026-03-22T10:29:49.999Z</time></trkpt><trkpt lat="43.54248765394103" lon="11.318874061976906"><ele>488.0</ele><time>2026-03-22T10:29:50.999Z</time></trkpt><trkpt lat="43.54237714753888" lon="11.318990696645468"><ele>488.0</ele><time>2026-03-22T10:29:51.999Z</time></trkpt><trkpt lat="43.54225824072811" lon="11.319114652902774"><ele>488.0</ele><time>2026-03-22T10:29:52.999Z</time></trkpt><trkpt lat="43.54213917047574" lon="11.31923877953342"><ele>489.25</ele><time>2026-03-22T10:29:53.999Z</time></trkpt><trkpt lat="43.54202045591974" lon="11.319362535374607"><ele>490.5</ele><time>2026-03-22T10:29:54.999Z</time></trkpt><trkpt lat="43.541902410376245" lon="11.31948703270041"><ele>491.75</ele><time>2026-03-22T10:29:55.999Z</time></trkpt><trkpt lat="43.541788447620846" lon="11.319606995498965"><ele>493.0</ele><time>2026-03-22T10:29:56.999Z</time></trkpt><trkpt lat="43.541676503579616" lon="11.319719616764852"><ele>493.5</ele><time>2026-03-22T10:29:57.999Z</time></trkpt><trkpt lat="43.54157531135105" lon="11.319820608871966"><ele>494.0</ele><time>2026-03-22T10:29:58.999Z</time></trkpt><trkpt lat="43.54147739305618" lon="11.319918016213085"><ele>494.5</ele><time>2026-03-22T10:29:59.999Z</time></trkpt><trkpt lat="43.541386679314314" lon="11.320008256605801"><ele>495.0</ele><time>2026-03-22T10:30:00.999Z</time></trkpt><trkpt lat="43.54129993579341" lon="11.320097891673564"><ele>495.0</ele><time>2026-03-22T10:30:01.999Z</time></trkpt><trkpt lat="43.54121622812513" lon="11.320189829040759"><ele>495.0</ele><time>2026-03-22T10:30:02.999Z</time></trkpt><trkpt lat="43.54113155603366" lon="11.32028565830211"><ele>495.0</ele><time>2026-03-22T10:30:03.999Z</time></trkpt><trkpt lat="43.54104058556175" lon="11.320391078511978"><ele>495.0</ele><time>2026-03-22T10:30:04.999Z</time></trkpt><trkpt lat="43.54095256939784" lon="11.320525487673716"><ele>497.5</ele><time>2026-03-22T10:30:05.999Z</time></trkpt><trkpt lat="43.54088091528798" lon="11.320677945226157"><ele>500.0</ele><time>2026-03-22T10:30:06.999Z</time></trkpt><trkpt lat="43.540809616415125" lon="11.320843039133539"><ele>502.5</ele><time>2026-03-22T10:30:07.999Z</time></trkpt><trkpt lat="43.54073714292192" lon="11.321019520590866"><ele>505.0</ele><time>2026-03-22T10:30:08.999Z</time></trkpt><trkpt lat="43.540663182038074" lon="11.32119848267756"><ele>505.0</ele><time>2026-03-22T10:30:09.999Z</time></trkpt><trkpt lat="43.54058865339227" lon="11.32137787329554"><ele>505.0</ele><time>2026-03-22T10:30:10.999Z</time></trkpt><trkpt lat="43.54050481300637" lon="11.321559220281303"><ele>505.0</ele><time>2026-03-22T10:30:11.999Z</time></trkpt><trkpt lat="43.54041883975898" lon="11.321740271063371"><ele>507.25</ele><time>2026-03-22T10:30:12.999Z</time></trkpt><trkpt lat="43.540343705870576" lon="11.321891493566996"><ele>509.5</ele><time>2026-03-22T10:30:13.999Z</time></trkpt><trkpt lat="43.54027538443566" lon="11.32206262567957"><ele>511.75</ele><time>2026-03-22T10:30:14.999Z</time></trkpt><trkpt lat="43.54022624098296" lon="11.322232486898145"><ele>514.0</ele><time>2026-03-22T10:30:15.999Z</time></trkpt><trkpt lat="43.540198216865114" lon="11.322389917803184"><ele>514.0</ele><time>2026-03-22T10:30:16.999Z</time></trkpt><trkpt lat="43.540171307977495" lon="11.322516756750396"><ele>514.0</ele><time>2026-03-22T10:30:17.999Z</time></trkpt><trkpt lat="43.54013339154367" lon="11.322615387266795"><ele>514.0</ele><time>2026-03-22T10:30:18.999Z</time></trkpt><trkpt lat="43.54006761107768" lon="11.322686422773309"><ele>514.0</ele><time>2026-03-22T10:30:19.999Z</time></trkpt><trkpt lat="43.539976843077454" lon="11.322759039802891"><ele>514.0</ele><time>2026-03-22T10:30:20.999Z</time></trkpt><trkpt lat="43.53989004325222" lon="11.322850110960776"><ele>514.0</ele><time>2026-03-22T10:30:21.999Z</time></trkpt><trkpt lat="43.53979307939756" lon="11.322965438389323"><ele>514.0</ele><time>2026-03-22T10:30:22.999Z</time></trkpt><trkpt lat="43.539699820668766" lon="11.323087065153219"><ele>514.0</ele><time>2026-03-22T10:30:23.999Z</time></trkpt><trkpt lat="43.539612439283324" lon="11.323248968453271"><ele>514.0</ele><time>2026-03-22T10:30:24.999Z</time></trkpt><trkpt lat="43.53953891972131" lon="11.32340290214931"><ele>511.75</ele><time>2026-03-22T10:30:25.999Z</time></trkpt><trkpt lat="43.53946060265969" lon="11.323564873411915"><ele>509.5</ele><time>2026-03-22T10:30:26.999Z</time></trkpt><trkpt lat="43.53938727975223" lon="11.323718661109174"><ele>507.25</ele><time>2026-03-22T10:30:27.999Z</time></trkpt><trkpt lat="43.53932087673156" lon="11.32387463879513"><ele>505.0</ele><time>2026-03-22T10:30:28.999Z</time></trkpt><trkpt lat="43.53925419874213" lon="11.32401536488719"><ele>505.0</ele><time>2026-03-22T10:30:29.999Z</time></trkpt><trkpt lat="43.539182691789605" lon="11.324145453122444"><ele>505.0</ele><time>2026-03-22T10:30:30.999Z</time></trkpt><trkpt lat="43.53911130212476" lon="11.324284569176417"><ele>505.0</ele><time>2026-03-22T10:30:31.999Z</time></trkpt><trkpt lat="43.539050132519996" lon="11.324445776351517"><ele>505.0</ele><time>2026-03-22T10:30:32.999Z</time></trkpt><trkpt lat="43.53904761605617" lon="11.324643022781146"><ele>506.0</ele><time>2026-03-22T10:30:33.999Z</time></trkpt><trkpt lat="43.539001613362224" lon="11.324795681873825"><ele>507.0</ele><time>2026-03-22T10:30:34.999Z</time></trkpt><trkpt lat="43.53895389452823" lon="11.324940515605533"><ele>508.0</ele><time>2026-03-22T10:30:35.999Z</time></trkpt><trkpt lat="43.5389062365754" lon="11.325077458607579"><ele>509.0</ele><time>2026-03-22T10:30:36.999Z</time></trkpt><trkpt lat="43.53880936040469" lon="11.325193624849044"><ele>509.0</ele><time>2026-03-22T10:30:37.999Z</time></trkpt><trkpt lat="43.538754832851005" lon="11.325350514353753"><ele>509.0</ele><time>2026-03-22T10:30:38.999Z</time></trkpt><trkpt lat="43.538705572238214" lon="11.325509548902712"><ele>509.0</ele><time>2026-03-22T10:30:39.999Z</time></trkpt><trkpt lat="43.538662991483164" lon="11.325674498530887"><ele>509.0</ele><time>2026-03-22T10:30:40.999Z</time></trkpt><trkpt lat="43.53863285315107" lon="11.325849770025611"><ele>508.0</ele><time>2026-03-22T10:30:41.999Z</time></trkpt><trkpt lat="43.53861960129913" lon="11.326019355756392"><ele>507.0</ele><time>2026-03-22T10:30:42.998Z</time></trkpt><trkpt lat="43.53864128233952" lon="11.326200103703515"><ele>506.0</ele><time>2026-03-22T10:30:44Z</time></trkpt><trkpt lat="43.538668197895525" lon="11.326352170243624"><ele>505.0</ele><time>2026-03-22T10:30:45Z</time></trkpt><trkpt lat="43.53869376166604" lon="11.326500159593605"><ele>508.0</ele><time>2026-03-22T10:30:46Z</time></trkpt><trkpt lat="43.538727200178954" lon="11.32665522506501"><ele>511.0</ele><time>2026-03-22T10:30:47Z</time></trkpt><trkpt lat="43.53876293411527" lon="11.326787745954196"><ele>514.0</ele><time>2026-03-22T10:30:48Z</time></trkpt><trkpt lat="43.538782772237134" lon="11.326934452152782"><ele>517.0</ele><time>2026-03-22T10:30:49Z</time></trkpt><trkpt lat="43.5387762843587" lon="11.32707985743845"><ele>520.0</ele><time>2026-03-22T10:30:50Z</time></trkpt><trkpt lat="43.53874476200871" lon="11.327218819642756"><ele>517.75</ele><time>2026-03-22T10:30:51Z</time></trkpt><trkpt lat="43.53870394241261" lon="11.327369934942965"><ele>515.5</ele><time>2026-03-22T10:30:52Z</time></trkpt><trkpt lat="43.53865434591782" lon="11.327518274360367"><ele>513.25</ele><time>2026-03-22T10:30:53Z</time></trkpt><trkpt lat="43.53858021609056" lon="11.327649456253482"><ele>511.0</ele><time>2026-03-22T10:30:54Z</time></trkpt><trkpt lat="43.53849601829755" lon="11.327803371234298"><ele>511.0</ele><time>2026-03-22T10:30:55Z</time></trkpt><trkpt lat="43.53841846359762" lon="11.32792154815986"><ele>511.0</ele><time>2026-03-22T10:30:56Z</time></trkpt><trkpt lat="43.53834757380695" lon="11.328028781978514"><ele>511.0</ele><time>2026-03-22T10:30:57Z</time></trkpt><trkpt lat="43.53829082310083" lon="11.328118391004807"><ele>511.0</ele><time>2026-03-22T10:30:58Z</time></trkpt><trkpt lat="43.538243310574465" lon="11.32819428883736"><ele>511.0</ele><time>2026-03-22T10:30:59Z</time></trkpt><trkpt lat="43.53818981079495" lon="11.328277878714381"><ele>513.2</ele><time>2026-03-22T10:31:00Z</time></trkpt><trkpt lat="43.53812805903572" lon="11.328378249147645"><ele>515.4000000000001</ele><time>2026-03-22T10:31:01Z</time></trkpt><trkpt lat="43.53807074805585" lon="11.328485204021234"><ele>517.6</ele><time>2026-03-22T10:31:02Z</time></trkpt><trkpt lat="43.53802752535052" lon="11.328602622065581"><ele>519.8000000000001</ele><time>2026-03-22T10:31:03Z</time></trkpt><trkpt lat="43.53800450401684" lon="11.32872544058791"><ele>522.0</ele><time>2026-03-22T10:31:04Z</time></trkpt><trkpt lat="43.537987126291334" lon="11.328865322432298"><ele>523.5</ele><time>2026-03-22T10:31:05Z</time></trkpt><trkpt lat="43.53797224396611" lon="11.329012151170403"><ele>525.0</ele><time>2026-03-22T10:31:06Z</time></trkpt><trkpt lat="43.53796382996999" lon="11.329171193067884"><ele>526.5</ele><time>2026-03-22T10:31:07Z</time></trkpt><trkpt lat="43.53796145019251" lon="11.3293330099263"><ele>528.0</ele><time>2026-03-22T10:31:08Z</time></trkpt><trkpt lat="43.53797113699388" lon="11.329501581448785"><ele>528.0</ele><time>2026-03-22T10:31:09Z</time></trkpt><trkpt lat="43.53798446714272" lon="11.329677655514278"><ele>528.0</ele><time>2026-03-22T10:31:10Z</time></trkpt><trkpt lat="43.537999207427234" lon="11.329849510600008"><ele>528.0</ele><time>2026-03-22T10:31:11Z</time></trkpt><trkpt lat="43.538017419381" lon="11.330027501161538"><ele>528.0</ele><time>2026-03-22T10:31:12Z</time></trkpt><trkpt lat="43.538033549966954" lon="11.330193657457114"><ele>527.4</ele><time>2026-03-22T10:31:13Z</time></trkpt><trkpt lat="43.538044687021966" lon="11.330354544952929"><ele>526.8</ele><time>2026-03-22T10:31:14Z</time></trkpt><trkpt lat="43.53805510724287" lon="11.330514148546971"><ele>526.2</ele><time>2026-03-22T10:31:15Z</time></trkpt><trkpt lat="43.53806704200277" lon="11.330667458219924"><ele>525.6</ele><time>2026-03-22T10:31:16Z</time></trkpt><trkpt lat="43.53807799189159" lon="11.33080137961772"><ele>525.0</ele><time>2026-03-22T10:31:17Z</time></trkpt><trkpt lat="43.538089769622346" lon="11.330938906808006"><ele>523.8333333333334</ele><time>2026-03-22T10:31:18Z</time></trkpt><trkpt lat="43.53810191762759" lon="11.331070639424684"><ele>522.6666666666666</ele><time>2026-03-22T10:31:19Z</time></trkpt><trkpt lat="43.5381140879943" lon="11.331202614662317"><ele>521.5</ele><time>2026-03-22T10:31:20Z</time></trkpt><trkpt lat="43.53811336268762" lon="11.331315905241317"><ele>520.3333333333333</ele><time>2026-03-22T10:31:21Z</time></trkpt><trkpt lat="43.53809673293457" lon="11.331428792191966"><ele>519.1666666666666</ele><time>2026-03-22T10:31:22Z</time></trkpt><trkpt lat="43.53806731801156" lon="11.331541951765246"><ele>518.0</ele><time>2026-03-22T10:31:23Z</time></trkpt><trkpt lat="43.53803439633729" lon="11.331659235473683"><ele>517.1999999999999</ele><time>2026-03-22T10:31:24Z</time></trkpt><trkpt lat="43.53799667730462" lon="11.331756754639311"><ele>516.4</ele><time>2026-03-22T10:31:25Z</time></trkpt><trkpt lat="43.537941349914355" lon="11.331865122337074"><ele>515.5999999999999</ele><time>2026-03-22T10:31:26Z</time></trkpt><trkpt lat="43.53787676297905" lon="11.331972299798327"><ele>514.8</ele><time>2026-03-22T10:31:27Z</time></trkpt><trkpt lat="43.53779615391448" lon="11.332082437307598"><ele>514.0</ele><time>2026-03-22T10:31:28Z</time></trkpt><trkpt lat="43.53771594426667" lon="11.332198956501134"><ele>512.75</ele><time>2026-03-22T10:31:29Z</time></trkpt><trkpt lat="43.53763706843608" lon="11.332333942422315"><ele>511.5</ele><time>2026-03-22T10:31:30Z</time></trkpt><trkpt lat="43.53757631414363" lon="11.332500235281385"><ele>510.25</ele><time>2026-03-22T10:31:31Z</time></trkpt><trkpt lat="43.537526371794165" lon="11.33266573210277"><ele>509.0</ele><time>2026-03-22T10:31:32Z</time></trkpt><trkpt lat="43.537472786706196" lon="11.332834394726829"><ele>509.0</ele><time>2026-03-22T10:31:33Z</time></trkpt><trkpt lat="43.537426548626385" lon="11.332999540032551"><ele>509.0</ele><time>2026-03-22T10:31:34Z</time></trkpt><trkpt lat="43.53738500113638" lon="11.333167464625722"><ele>509.0</ele><time>2026-03-22T10:31:35Z</time></trkpt><trkpt lat="43.53735272838395" lon="11.33332640535303"><ele>509.0</ele><time>2026-03-22T10:31:36Z</time></trkpt><trkpt lat="43.53733426430487" lon="11.333481442487788"><ele>508.79999999999995</ele><time>2026-03-22T10:31:37Z</time></trkpt><trkpt lat="43.53734775243407" lon="11.333642301355473"><ele>508.59999999999997</ele><time>2026-03-22T10:31:38Z</time></trkpt><trkpt lat="43.53740055446903" lon="11.333793205384506"><ele>508.4</ele><time>2026-03-22T10:31:38.999Z</time></trkpt><trkpt lat="43.537408403867595" lon="11.3339414390218"><ele>508.2</ele><time>2026-03-22T10:31:39.999Z</time></trkpt><trkpt lat="43.53739927616146" lon="11.334081329861707"><ele>508.0</ele><time>2026-03-22T10:31:40.999Z</time></trkpt><trkpt lat="43.53737269804358" lon="11.33425375181664"><ele>508.4</ele><time>2026-03-22T10:31:41.999Z</time></trkpt><trkpt lat="43.537354429180674" lon="11.334412583473558"><ele>508.79999999999995</ele><time>2026-03-22T10:31:42.999Z</time></trkpt><trkpt lat="43.53733125786508" lon="11.33456167855829"><ele>509.2</ele><time>2026-03-22T10:31:43.999Z</time></trkpt><trkpt lat="43.5373032745077" lon="11.334695873569432"><ele>509.6</ele><time>2026-03-22T10:31:44.999Z</time></trkpt><trkpt lat="43.53727147494644" lon="11.334825738383898"><ele>510.0</ele><time>2026-03-22T10:31:45.999Z</time></trkpt><trkpt lat="43.537355107130345" lon="11.335028514365758"><ele>511.2</ele><time>2026-03-22T10:31:46.999Z</time></trkpt><trkpt lat="43.537363771327854" lon="11.335173561037033"><ele>512.4</ele><time>2026-03-22T10:31:47.999Z</time></trkpt><trkpt lat="43.53736537724644" lon="11.335318255228753"><ele>513.6</ele><time>2026-03-22T10:31:48.999Z</time></trkpt><trkpt lat="43.53736644707687" lon="11.335459706483645"><ele>514.8</ele><time>2026-03-22T10:31:49.999Z</time></trkpt><trkpt lat="43.53737182606047" lon="11.335599230118484"><ele>516.0</ele><time>2026-03-22T10:31:50.999Z</time></trkpt><trkpt lat="43.537380257665944" lon="11.335712455124172"><ele>517.8</ele><time>2026-03-22T10:31:51.999Z</time></trkpt><trkpt lat="43.53745277687008" lon="11.335842251412089"><ele>519.6</ele><time>2026-03-22T10:31:52.999Z</time></trkpt><trkpt lat="43.537552492287766" lon="11.335909764894035"><ele>521.4</ele><time>2026-03-22T10:31:53.999Z</time></trkpt><trkpt lat="43.53762828303193" lon="11.336004503471093"><ele>523.2</ele><time>2026-03-22T10:31:54.999Z</time></trkpt><trkpt lat="43.53770290835165" lon="11.336103611379261"><ele>525.0</ele><time>2026-03-22T10:31:55.999Z</time></trkpt><trkpt lat="43.53772992243688" lon="11.336256445119602"><ele>525.0</ele><time>2026-03-22T10:31:56.999Z</time></trkpt><trkpt lat="43.537826511246614" lon="11.33637429129428"><ele>525.0</ele><time>2026-03-22T10:31:57.999Z</time></trkpt><trkpt lat="43.53790991216221" lon="11.336454484024653"><ele>525.0</ele><time>2026-03-22T10:31:58.999Z</time></trkpt><trkpt lat="43.5379956969296" lon="11.336528436468745"><ele>525.0</ele><time>2026-03-22T10:31:59.999Z</time></trkpt><trkpt lat="43.5380711103815" lon="11.336588632287402"><ele>525.0</ele><time>2026-03-22T10:32:00.999Z</time></trkpt><trkpt lat="43.538148323190676" lon="11.336648208046844"><ele>526.3333333333334</ele><time>2026-03-22T10:32:01.999Z</time></trkpt><trkpt lat="43.53822424094664" lon="11.336710556656453"><ele>527.6666666666666</ele><time>2026-03-22T10:32:02.999Z</time></trkpt><trkpt lat="43.53827416573301" lon="11.336790122344537"><ele>529.0</ele><time>2026-03-22T10:32:03.999Z</time></trkpt><trkpt lat="43.53829804699611" lon="11.336876658301719"><ele>530.3333333333333</ele><time>2026-03-22T10:32:04.999Z</time></trkpt><trkpt lat="43.53834135497601" lon="11.336984229109063"><ele>531.6666666666666</ele><time>2026-03-22T10:32:05.999Z</time></trkpt><trkpt lat="43.53839674583607" lon="11.33710572526839"><ele>533.0</ele><time>2026-03-22T10:32:06.999Z</time></trkpt><trkpt lat="43.5384405196879" lon="11.337202883160764"><ele>535.0</ele><time>2026-03-22T10:32:07.999Z</time></trkpt><trkpt lat="43.53846684737534" lon="11.337290320503328"><ele>537.0</ele><time>2026-03-22T10:32:08.999Z</time></trkpt><trkpt lat="43.53846472303918" lon="11.337495594910571"><ele>539.0</ele><time>2026-03-22T10:32:10.999Z</time></trkpt><trkpt lat="43.53847029684341" lon="11.337617946311799"><ele>541.0</ele><time>2026-03-22T10:32:11.999Z</time></trkpt><trkpt lat="43.538514681590804" lon="11.337726041403245"><ele>543.0</ele><time>2026-03-22T10:32:12.999Z</time></trkpt><trkpt lat="43.53859015249502" lon="11.337810788045228"><ele>543.0</ele><time>2026-03-22T10:32:13.999Z</time></trkpt><trkpt lat="43.53867837515354" lon="11.337857814456072"><ele>543.0</ele><time>2026-03-22T10:32:14.999Z</time></trkpt><trkpt lat="43.53875625855406" lon="11.33789400951939"><ele>543.0</ele><time>2026-03-22T10:32:15.999Z</time></trkpt><trkpt lat="43.53883023051789" lon="11.33794202872778"><ele>543.0</ele><time>2026-03-22T10:32:16.999Z</time></trkpt><trkpt lat="43.538877984807456" lon="11.338015757764897"><ele>543.0</ele><time>2026-03-22T10:32:17.999Z</time></trkpt><trkpt lat="43.538927369657884" lon="11.338105890773342"><ele>543.0</ele><time>2026-03-22T10:32:18.999Z</time></trkpt><trkpt lat="43.53894713633414" lon="11.33820399203782"><ele>541.8333333333334</ele><time>2026-03-22T10:32:19.999Z</time></trkpt><trkpt lat="43.53895836235084" lon="11.338344508181455"><ele>540.6666666666666</ele><time>2026-03-22T10:32:21.999Z</time></trkpt><trkpt lat="43.538940370463365" lon="11.3384575282427"><ele>539.5</ele><time>2026-03-22T10:32:22.999Z</time></trkpt><trkpt lat="43.5389256204977" lon="11.338557981077036"><ele>538.3333333333333</ele><time>2026-03-22T10:32:23.999Z</time></trkpt><trkpt lat="43.538907270032155" lon="11.338661787162213"><ele>537.1666666666666</ele><time>2026-03-22T10:32:24.999Z</time></trkpt><trkpt lat="43.53889122426344" lon="11.338796190244038"><ele>536.0</ele><time>2026-03-22T10:32:25.999Z</time></trkpt><trkpt lat="43.53889323657436" lon="11.338954577711236"><ele>538.8</ele><time>2026-03-22T10:32:26.999Z</time></trkpt><trkpt lat="43.5389015885497" lon="11.339113550797059"><ele>541.6</ele><time>2026-03-22T10:32:27.999Z</time></trkpt><trkpt lat="43.53891258513756" lon="11.339271635292851"><ele>544.4</ele><time>2026-03-22T10:32:28.999Z</time></trkpt><trkpt lat="43.53892522685689" lon="11.339417518162954"><ele>547.2</ele><time>2026-03-22T10:32:29.999Z</time></trkpt><trkpt lat="43.53894310477393" lon="11.339537033744945"><ele>550.0</ele><time>2026-03-22T10:32:30.999Z</time></trkpt><trkpt lat="43.53897249438644" lon="11.339659937643049"><ele>552.6</ele><time>2026-03-22T10:32:31.999Z</time></trkpt><trkpt lat="43.539030930093865" lon="11.339797481691173"><ele>555.2</ele><time>2026-03-22T10:32:32.999Z</time></trkpt><trkpt lat="43.5391138991406" lon="11.339890065700395"><ele>557.8</ele><time>2026-03-22T10:32:33.999Z</time></trkpt><trkpt lat="43.5391908285116" lon="11.339948704846828"><ele>560.4</ele><time>2026-03-22T10:32:34.999Z</time></trkpt><trkpt lat="43.5392667769482" lon="11.34000048683025"><ele>563.0</ele><time>2026-03-22T10:32:35.999Z</time></trkpt><trkpt lat="43.53933220034751" lon="11.340046358567344"><ele>563.0</ele><time>2026-03-22T10:32:36.999Z</time></trkpt><trkpt lat="43.53940517039771" lon="11.340099083439881"><ele>563.0</ele><time>2026-03-22T10:32:37.999Z</time></trkpt><trkpt lat="43.53947251028067" lon="11.340142230974207"><ele>563.0</ele><time>2026-03-22T10:32:38.999Z</time></trkpt><trkpt lat="43.53953526306056" lon="11.340175086086393"><ele>563.0</ele><time>2026-03-22T10:32:39.999Z</time></trkpt><trkpt lat="43.53961257613935" lon="11.34016217418642"><ele>563.0</ele><time>2026-03-22T10:32:40.999Z</time></trkpt><trkpt lat="43.539695125948796" lon="11.340165385872469"><ele>563.0</ele><time>2026-03-22T10:32:41.999Z</time></trkpt><trkpt lat="43.53977311746779" lon="11.340169248983289"><ele>562.3333333333333</ele><time>2026-03-22T10:32:42.999Z</time></trkpt><trkpt lat="43.53979859311812" lon="11.340260491245722"><ele>561.6666666666666</ele><time>2026-03-22T10:32:43.999Z</time></trkpt><trkpt lat="43.53985825927256" lon="11.34031003691779"><ele>561.0</ele><time>2026-03-22T10:32:48.999Z</time></trkpt><trkpt lat="43.53993377698839" lon="11.340377322506843"><ele>560.3333333333334</ele><time>2026-03-22T10:32:51Z</time></trkpt><trkpt lat="43.540014049308034" lon="11.340453501808238"><ele>559.6666666666667</ele><time>2026-03-22T10:32:53Z</time></trkpt><trkpt lat="43.54010413396183" lon="11.34053899313683"><ele>559.0</ele><time>2026-03-22T10:32:55Z</time></trkpt><trkpt lat="43.540197062393275" lon="11.340636740106829"><ele>561.4</ele><time>2026-03-22T10:32:57Z</time></trkpt><trkpt lat="43.54026533046756" lon="11.340765357146939"><ele>563.8</ele><time>2026-03-22T10:32:59Z</time></trkpt><trkpt lat="43.540319180194075" lon="11.340833719801717"><ele>566.2</ele><time>2026-03-22T10:33:00Z</time></trkpt><trkpt lat="43.540379140971055" lon="11.340882619919249"><ele>568.6</ele><time>2026-03-22T10:33:01Z</time></trkpt><trkpt lat="43.54045672233785" lon="11.340973494610791"><ele>571.0</ele><time>2026-03-22T10:33:03Z</time></trkpt><trkpt lat="43.540517597191304" lon="11.341102295733661"><ele>571.0</ele><time>2026-03-22T10:33:05Z</time></trkpt><trkpt lat="43.54057071653289" lon="11.3411742323538"><ele>571.0</ele><time>2026-03-22T10:33:06Z</time></trkpt><trkpt lat="43.5406110241241" lon="11.341255737272803"><ele>571.0</ele><time>2026-03-22T10:33:07Z</time></trkpt><trkpt lat="43.54070255865401" lon="11.341419705083066"><ele>571.0</ele><time>2026-03-22T10:33:09Z</time></trkpt><trkpt lat="43.54077208211226" lon="11.3415026542831"><ele>571.0</ele><time>2026-03-22T10:33:11Z</time></trkpt><trkpt lat="43.54083173344888" lon="11.341573002795089"><ele>577.0</ele><time>2026-03-22T10:33:12Z</time></trkpt><trkpt lat="43.540877389563086" lon="11.341636148141337"><ele>583.0</ele><time>2026-03-22T10:33:13Z</time></trkpt><trkpt lat="43.540731684626785" lon="11.34218649867862"><ele>583.8</ele><time>2026-03-22T10:33:14Z</time></trkpt><trkpt lat="43.54072789470673" lon="11.34231479383977"><ele>584.5999999999999</ele><time>2026-03-22T10:33:16Z</time></trkpt><trkpt lat="43.54070188130328" lon="11.3424905278339"><ele>585.4000000000001</ele><time>2026-03-22T10:33:18Z</time></trkpt><trkpt lat="43.54064063110986" lon="11.342627674331245"><ele>586.2</ele><time>2026-03-22T10:33:20Z</time></trkpt><trkpt lat="43.54059304140657" lon="11.342690056373526"><ele>587.0</ele><time>2026-03-22T10:33:21Z</time></trkpt><trkpt lat="43.540540584880965" lon="11.342771100181132"><ele>587.0</ele><time>2026-03-22T10:37:37Z</time></trkpt><trkpt lat="43.54049857489611" lon="11.342845090897153"><ele>587.0</ele><time>2026-03-22T10:37:38Z</time></trkpt><trkpt lat="43.54044607704207" lon="11.342924072423962"><ele>587.0</ele><time>2026-03-22T10:37:39Z</time></trkpt><trkpt lat="43.540381664537" lon="11.343007516654207"><ele>587.0</ele><time>2026-03-22T10:37:40Z</time></trkpt><trkpt lat="43.5403083155154" lon="11.343102249956203"><ele>587.0</ele><time>2026-03-22T10:37:41Z</time></trkpt><trkpt lat="43.54023881337956" lon="11.343193763966319"><ele>587.0</ele><time>2026-03-22T10:37:42Z</time></trkpt><trkpt lat="43.540182403930615" lon="11.343278714157979"><ele>588.0</ele><time>2026-03-22T10:37:43Z</time></trkpt><trkpt lat="43.5401349251303" lon="11.343384197626635"><ele>589.0</ele><time>2026-03-22T10:37:44Z</time></trkpt><trkpt lat="43.54009769556244" lon="11.343483588205466"><ele>590.0</ele><time>2026-03-22T10:37:45Z</time></trkpt><trkpt lat="43.540061568187284" lon="11.343564006815269"><ele>591.0</ele><time>2026-03-22T10:37:46Z</time></trkpt><trkpt lat="43.54001981810745" lon="11.343632889154824"><ele>592.0</ele><time>2026-03-22T10:37:47Z</time></trkpt><trkpt lat="43.539964905958435" lon="11.343709815294465"><ele>593.0</ele><time>2026-03-22T10:37:48Z</time></trkpt><trkpt lat="43.53990692392898" lon="11.343776682300295"><ele>588.0</ele><time>2026-03-22T10:37:49Z</time></trkpt><trkpt lat="43.53979847814961" lon="11.343889109516308"><ele>583.0</ele><time>2026-03-22T10:37:51Z</time></trkpt><trkpt lat="43.539722179915664" lon="11.34394309611466"><ele>578.0</ele><time>2026-03-22T10:37:52Z</time></trkpt><trkpt lat="43.53966884587481" lon="11.343992956556917"><ele>573.0</ele><time>2026-03-22T10:37:53Z</time></trkpt><trkpt lat="43.539621897222794" lon="11.344085931151701"><ele>568.0</ele><time>2026-03-22T10:37:54Z</time></trkpt><trkpt lat="43.53958965267567" lon="11.344195992389245"><ele>572.6666666666667</ele><time>2026-03-22T10:37:55Z</time></trkpt><trkpt lat="43.5395367234214" lon="11.344318036015222"><ele>577.3333333333334</ele><time>2026-03-22T10:37:56Z</time></trkpt><trkpt lat="43.539476862596906" lon="11.344423219625138"><ele>582.0</ele><time>2026-03-22T10:37:57Z</time></trkpt><trkpt lat="43.53941717097862" lon="11.344479867642246"><ele>586.6666666666666</ele><time>2026-03-22T10:37:58Z</time></trkpt><trkpt lat="43.539341264227126" lon="11.34452949756246"><ele>591.3333333333333</ele><time>2026-03-22T10:37:59Z</time></trkpt><trkpt lat="43.5392700304002" lon="11.344582661700162"><ele>596.0</ele><time>2026-03-22T10:38:00Z</time></trkpt><trkpt lat="43.53922404129873" lon="11.3446771282022"><ele>592.0</ele><time>2026-03-22T10:38:00.999Z</time></trkpt><trkpt lat="43.53918399063172" lon="11.344788087642025"><ele>588.0</ele><time>2026-03-22T10:38:01.999Z</time></trkpt><trkpt lat="43.53915808918161" lon="11.34488767049623"><ele>584.0</ele><time>2026-03-22T10:38:02.999Z</time></trkpt><trkpt lat="43.53914543201968" lon="11.344978190776795"><ele>580.0</ele><time>2026-03-22T10:38:03.999Z</time></trkpt><trkpt lat="43.539159865474325" lon="11.345064754904852"><ele>576.0</ele><time>2026-03-22T10:38:04.999Z</time></trkpt><trkpt lat="43.53918595333248" lon="11.3451677579831"><ele>572.0</ele><time>2026-03-22T10:38:05.999Z</time></trkpt><trkpt lat="43.53920689683447" lon="11.345265602471644"><ele>572.0</ele><time>2026-03-22T10:38:06.999Z</time></trkpt><trkpt lat="43.53916157830525" lon="11.345402250106728"><ele>572.0</ele><time>2026-03-22T10:38:08.999Z</time></trkpt><trkpt lat="43.5391042207982" lon="11.345449083415318"><ele>572.0</ele><time>2026-03-22T10:38:09.999Z</time></trkpt><trkpt lat="43.53902474667247" lon="11.345496496107154"><ele>572.0</ele><time>2026-03-22T10:38:10.999Z</time></trkpt><trkpt lat="43.53895335345655" lon="11.345533968110816"><ele>572.0</ele><time>2026-03-22T10:38:11.999Z</time></trkpt><trkpt lat="43.53884151316946" lon="11.345514976038052"><ele>572.0</ele><time>2026-03-22T10:38:13.999Z</time></trkpt><trkpt lat="43.53878159612184" lon="11.34546990031925"><ele>572.0</ele><time>2026-03-22T10:38:14.999Z</time></trkpt><trkpt lat="43.53870900888872" lon="11.345434238014924"><ele>572.0</ele><time>2026-03-22T10:38:15.999Z</time></trkpt><trkpt lat="43.53863838699657" lon="11.34544065628313"><ele>572.0</ele><time>2026-03-22T10:38:16.999Z</time></trkpt><trkpt lat="43.53857912634371" lon="11.345485963067246"><ele>572.0</ele><time>2026-03-22T10:38:17.999Z</time></trkpt><trkpt lat="43.53851528188691" lon="11.345602029278613"><ele>572.0</ele><time>2026-03-22T10:38:19.999Z</time></trkpt><trkpt lat="43.53852202505119" lon="11.345703254378243"><ele>573.3333333333333</ele><time>2026-03-22T10:38:20.999Z</time></trkpt><trkpt lat="43.53853402761858" lon="11.345815036057576"><ele>574.6666666666666</ele><time>2026-03-22T10:38:21.999Z</time></trkpt><trkpt lat="43.538531583354676" lon="11.345923961838977"><ele>576.0</ele><time>2026-03-22T10:38:22.999Z</time></trkpt><trkpt lat="43.53850387911614" lon="11.346015033348344"><ele>577.3333333333334</ele><time>2026-03-22T10:38:23.999Z</time></trkpt><trkpt lat="43.538454684587165" lon="11.34608416394572"><ele>578.6666666666667</ele><time>2026-03-22T10:38:24.999Z</time></trkpt><trkpt lat="43.53839744299168" lon="11.34616152520026"><ele>580.0</ele><time>2026-03-22T10:38:25.999Z</time></trkpt><trkpt lat="43.53832425482391" lon="11.346243207291781"><ele>580.0</ele><time>2026-03-22T10:38:26.999Z</time></trkpt><trkpt lat="43.53827798547903" lon="11.346311930661228"><ele>580.0</ele><time>2026-03-22T10:38:27.999Z</time></trkpt><trkpt lat="43.53828010616036" lon="11.34646779655113"><ele>580.0</ele><time>2026-03-22T10:38:29.999Z</time></trkpt><trkpt lat="43.53829094920774" lon="11.34657119264805"><ele>580.0</ele><time>2026-03-22T10:38:30.999Z</time></trkpt><trkpt lat="43.538276704329085" lon="11.346678432401776"><ele>580.0</ele><time>2026-03-22T10:38:31.999Z</time></trkpt><trkpt lat="43.53824092382579" lon="11.346782072364867"><ele>580.0</ele><time>2026-03-22T10:38:32.999Z</time></trkpt><trkpt lat="43.53819245018233" lon="11.346875789659942"><ele>577.3333333333334</ele><time>2026-03-22T10:38:33.999Z</time></trkpt><trkpt lat="43.538117373655865" lon="11.346954449972198"><ele>574.6666666666667</ele><time>2026-03-22T10:38:34.999Z</time></trkpt><trkpt lat="43.538043469170816" lon="11.347037394844614"><ele>572.0</ele><time>2026-03-22T10:38:35.999Z</time></trkpt><trkpt lat="43.53798609994835" lon="11.347108161652391"><ele>569.3333333333334</ele><time>2026-03-22T10:38:36.999Z</time></trkpt><trkpt lat="43.53790950974751" lon="11.347141906549204"><ele>566.6666666666666</ele><time>2026-03-22T10:38:38.999Z</time></trkpt><trkpt lat="43.5378914075621" lon="11.347232437179025"><ele>564.0</ele><time>2026-03-22T10:38:40.999Z</time></trkpt><trkpt lat="43.537938619956556" lon="11.347319645849641"><ele>563.1666666666666</ele><time>2026-03-22T10:38:42.999Z</time></trkpt><trkpt lat="43.53798861146714" lon="11.347385556150334"><ele>562.3333333333334</ele><time>2026-03-22T10:38:43.999Z</time></trkpt><trkpt lat="43.53806306819932" lon="11.347455975225369"><ele>561.5</ele><time>2026-03-22T10:38:44.999Z</time></trkpt><trkpt lat="43.53814421266554" lon="11.347527307227542"><ele>560.6666666666667</ele><time>2026-03-22T10:38:45.999Z</time></trkpt><trkpt lat="43.53821155948648" lon="11.347570946387215"><ele>559.8333333333334</ele><time>2026-03-22T10:38:46.999Z</time></trkpt><trkpt lat="43.53828008418469" lon="11.34770046578647"><ele>559.0</ele><time>2026-03-22T10:38:48.999Z</time></trkpt><trkpt lat="43.53830871082449" lon="11.34778973926278"><ele>559.0</ele><time>2026-03-22T10:38:49.999Z</time></trkpt><trkpt lat="43.538341853493506" lon="11.347876424727538"><ele>559.0</ele><time>2026-03-22T10:38:50.999Z</time></trkpt><trkpt lat="43.53840375172577" lon="11.348005923933087"><ele>559.0</ele><time>2026-03-22T10:38:52.999Z</time></trkpt><trkpt lat="43.53848225120768" lon="11.34816676422836"><ele>559.0</ele><time>2026-03-22T10:38:54.999Z</time></trkpt><trkpt lat="43.53851686169984" lon="11.348257465353718"><ele>559.0</ele><time>2026-03-22T10:38:55.999Z</time></trkpt><trkpt lat="43.538542736967095" lon="11.348351245295584"><ele>558.1666666666667</ele><time>2026-03-22T10:38:56.999Z</time></trkpt><trkpt lat="43.53854602191793" lon="11.348453813293206"><ele>557.3333333333334</ele><time>2026-03-22T10:38:57.999Z</time></trkpt><trkpt lat="43.53854471263433" lon="11.348614784244697"><ele>556.5</ele><time>2026-03-22T10:38:59.999Z</time></trkpt><trkpt lat="43.53851305109767" lon="11.348761667326437"><ele>555.6666666666666</ele><time>2026-03-22T10:39:01.999Z</time></trkpt><trkpt lat="43.53848161147339" lon="11.348841477139013"><ele>554.8333333333333</ele><time>2026-03-22T10:39:02.999Z</time></trkpt><trkpt lat="43.538443754684636" lon="11.348932301530011"><ele>554.0</ele><time>2026-03-22T10:39:03.999Z</time></trkpt><trkpt lat="43.53841104081454" lon="11.349011875975137"><ele>554.0</ele><time>2026-03-22T10:39:04.999Z</time></trkpt><trkpt lat="43.538371970788084" lon="11.349081596959403"><ele>554.0</ele><time>2026-03-22T10:39:05.999Z</time></trkpt><trkpt lat="43.53828408093551" lon="11.349203518824442"><ele>554.0</ele><time>2026-03-22T10:39:08Z</time></trkpt><trkpt lat="43.53820309528906" lon="11.349282085332572"><ele>554.0</ele><time>2026-03-22T10:39:10Z</time></trkpt><trkpt lat="43.53813245903211" lon="11.349325818169087"><ele>554.0</ele><time>2026-03-22T10:39:12Z</time></trkpt><trkpt lat="43.53814269541387" lon="11.349436489899709"><ele>554.0</ele><time>2026-03-22T10:39:14Z</time></trkpt><trkpt lat="43.53816237603028" lon="11.349527200490323"><ele>554.0</ele><time>2026-03-22T10:39:17Z</time></trkpt><trkpt lat="43.53812500336388" lon="11.349665187163836"><ele>554.0</ele><time>2026-03-22T10:39:26Z</time></trkpt><trkpt lat="43.538096052206" lon="11.349746065774365"><ele>554.0</ele><time>2026-03-22T10:39:27Z</time></trkpt><trkpt lat="43.538090644495426" lon="11.349867353572217"><ele>554.0</ele><time>2026-03-22T10:39:29Z</time></trkpt><trkpt lat="43.53815763949472" lon="11.349960635853758"><ele>554.0</ele><time>2026-03-22T10:39:31Z</time></trkpt><trkpt lat="43.538224039879985" lon="11.35005020679919"><ele>554.0</ele><time>2026-03-22T10:39:32Z</time></trkpt><trkpt lat="43.53827590758566" lon="11.350129724970628"><ele>553.1666666666666</ele><time>2026-03-22T10:39:33Z</time></trkpt><trkpt lat="43.53830993118023" lon="11.35023511569514"><ele>552.3333333333333</ele><time>2026-03-22T10:39:34Z</time></trkpt><trkpt lat="43.53835699865388" lon="11.350362719371734"><ele>551.5</ele><time>2026-03-22T10:39:35Z</time></trkpt><trkpt lat="43.53842073444679" lon="11.350460728375865"><ele>550.6666666666666</ele><time>2026-03-22T10:39:36Z</time></trkpt><trkpt lat="43.538476087818474" lon="11.350532025040044"><ele>549.8333333333334</ele><time>2026-03-22T10:39:37Z</time></trkpt><trkpt lat="43.53853060344098" lon="11.350591214928158"><ele>549.0</ele><time>2026-03-22T10:39:38Z</time></trkpt><trkpt lat="43.53858448031435" lon="11.350658066269466"><ele>549.0</ele><time>2026-03-22T10:39:39Z</time></trkpt><trkpt lat="43.53862795982681" lon="11.350738740489982"><ele>549.0</ele><time>2026-03-22T10:39:40Z</time></trkpt><trkpt lat="43.538685171681436" lon="11.350893916353558"><ele>549.0</ele><time>2026-03-22T10:39:42Z</time></trkpt><trkpt lat="43.538689419798075" lon="11.35100955204187"><ele>549.0</ele><time>2026-03-22T10:39:44Z</time></trkpt><trkpt lat="43.53864305735554" lon="11.351165070017608"><ele>549.0</ele><time>2026-03-22T10:39:46Z</time></trkpt><trkpt lat="43.538614294906154" lon="11.351250934798486"><ele>547.6</ele><time>2026-03-22T10:39:47Z</time></trkpt><trkpt lat="43.538623180843196" lon="11.351408595300168"><ele>546.2</ele><time>2026-03-22T10:39:49Z</time></trkpt><trkpt lat="43.53858786014226" lon="11.35156050399266"><ele>544.8000000000001</ele><time>2026-03-22T10:39:51Z</time></trkpt><trkpt lat="43.53854190123366" lon="11.35165640051972"><ele>543.4</ele><time>2026-03-22T10:39:52Z</time></trkpt><trkpt lat="43.538484697087306" lon="11.35177538481319"><ele>542.0</ele><time>2026-03-22T10:39:53Z</time></trkpt><trkpt lat="43.538433979539455" lon="11.351879577065837"><ele>542.0</ele><time>2026-03-22T10:39:54Z</time></trkpt><trkpt lat="43.538346192752705" lon="11.3519822602652"><ele>542.0</ele><time>2026-03-22T10:39:56Z</time></trkpt><trkpt lat="43.538274991387205" lon="11.352008726608332"><ele>542.0</ele><time>2026-03-22T10:39:57Z</time></trkpt><trkpt lat="43.53818908281006" lon="11.352065783939505"><ele>542.0</ele><time>2026-03-22T10:39:59Z</time></trkpt><trkpt lat="43.53819692091816" lon="11.35217457314614"><ele>542.0</ele><time>2026-03-22T10:40:02Z</time></trkpt><trkpt lat="43.53821602196836" lon="11.352306043880537"><ele>540.0</ele><time>2026-03-22T10:40:04Z</time></trkpt><trkpt lat="43.53827145198529" lon="11.352468847411984"><ele>538.0</ele><time>2026-03-22T10:40:05.999Z</time></trkpt><trkpt lat="43.538314798051545" lon="11.352590209003262"><ele>536.0</ele><time>2026-03-22T10:40:06.999Z</time></trkpt><trkpt lat="43.53833927324527" lon="11.352725759081519"><ele>534.0</ele><time>2026-03-22T10:40:07.999Z</time></trkpt><trkpt lat="43.53836188107172" lon="11.352838234491905"><ele>532.0</ele><time>2026-03-22T10:40:08.999Z</time></trkpt><trkpt lat="43.53837933653376" lon="11.352941524264203"><ele>532.0</ele><time>2026-03-22T10:40:09.999Z</time></trkpt><trkpt lat="43.538392965318245" lon="11.353030955927604"><ele>532.0</ele><time>2026-03-22T10:40:10.999Z</time></trkpt><trkpt lat="43.538440549719446" lon="11.353130691392945"><ele>532.0</ele><time>2026-03-22T10:40:12.999Z</time></trkpt><trkpt lat="43.53849580118737" lon="11.35319563222375"><ele>532.0</ele><time>2026-03-22T10:40:13.999Z</time></trkpt><trkpt lat="43.538551766335004" lon="11.353340747709732"><ele>532.0</ele><time>2026-03-22T10:40:15.999Z</time></trkpt><trkpt lat="43.53858387944245" lon="11.353468669439227"><ele>532.0</ele><time>2026-03-22T10:40:16.999Z</time></trkpt><trkpt lat="43.53861204847339" lon="11.353624429081012"><ele>532.4</ele><time>2026-03-22T10:40:17.999Z</time></trkpt><trkpt lat="43.53863072623126" lon="11.353797921673854"><ele>532.8000000000001</ele><time>2026-03-22T10:40:18.999Z</time></trkpt><trkpt lat="43.538658436921146" lon="11.353928402176841"><ele>533.2</ele><time>2026-03-22T10:40:19.999Z</time></trkpt><trkpt lat="43.538668540787974" lon="11.354085597238692"><ele>533.6</ele><time>2026-03-22T10:40:21.999Z</time></trkpt><trkpt lat="43.53860672162818" lon="11.354201833065254"><ele>534.0</ele><time>2026-03-22T10:40:23.999Z</time></trkpt><trkpt lat="43.5385382630601" lon="11.354297952632308"><ele>534.1666666666666</ele><time>2026-03-22T10:40:25.999Z</time></trkpt><trkpt lat="43.53850175915658" lon="11.354442547766554"><ele>534.3333333333334</ele><time>2026-03-22T10:40:27.999Z</time></trkpt><trkpt lat="43.53845024472764" lon="11.354540143212585"><ele>534.5</ele><time>2026-03-22T10:40:28.999Z</time></trkpt><trkpt lat="43.5384041024428" lon="11.354632668364895"><ele>534.6666666666667</ele><time>2026-03-22T10:40:29.999Z</time></trkpt><trkpt lat="43.538366579837756" lon="11.354706344832616"><ele>534.8333333333334</ele><time>2026-03-22T10:40:30.999Z</time></trkpt><trkpt lat="43.53831524546229" lon="11.354796728372156"><ele>535.0</ele><time>2026-03-22T10:40:31.999Z</time></trkpt><trkpt lat="43.538273213769884" lon="11.354885381017217"><ele>534.0</ele><time>2026-03-22T10:40:32.999Z</time></trkpt><trkpt lat="43.538213667993205" lon="11.354993664072925"><ele>533.0</ele><time>2026-03-22T10:40:33.999Z</time></trkpt><trkpt lat="43.53815509382203" lon="11.355098668528424"><ele>532.0</ele><time>2026-03-22T10:40:34.999Z</time></trkpt><trkpt lat="43.538101849742205" lon="11.355190405493644"><ele>531.0</ele><time>2026-03-22T10:40:35.999Z</time></trkpt><trkpt lat="43.538047320609465" lon="11.355264386104405"><ele>530.0</ele><time>2026-03-22T10:40:36.999Z</time></trkpt><trkpt lat="43.538000525863644" lon="11.355353491768339"><ele>529.0</ele><time>2026-03-22T10:40:37.999Z</time></trkpt><trkpt lat="43.53793521976575" lon="11.355450838076086"><ele>531.0</ele><time>2026-03-22T10:40:39.999Z</time></trkpt><trkpt lat="43.53787512783214" lon="11.355496321166111"><ele>533.0</ele><time>2026-03-22T10:40:40.999Z</time></trkpt><trkpt lat="43.53780905622291" lon="11.35552629042275"><ele>535.0</ele><time>2026-03-22T10:40:41.999Z</time></trkpt><trkpt lat="43.53774037070908" lon="11.355560355321904"><ele>537.0</ele><time>2026-03-22T10:40:42.999Z</time></trkpt><trkpt lat="43.53768971450647" lon="11.355615634448998"><ele>539.0</ele><time>2026-03-22T10:40:44.999Z</time></trkpt><trkpt lat="43.537682298737" lon="11.355726977147576"><ele>541.0</ele><time>2026-03-22T10:40:46.999Z</time></trkpt><trkpt lat="43.53775271416011" lon="11.355753954582278"><ele>543.0</ele><time>2026-03-22T10:40:49.999Z</time></trkpt><trkpt lat="43.537836730901425" lon="11.355742644742781"><ele>541.4285714285714</ele><time>2026-03-22T10:40:51.999Z</time></trkpt><trkpt lat="43.53790391711187" lon="11.355733799772699"><ele>539.8571428571429</ele><time>2026-03-22T10:40:52.999Z</time></trkpt><trkpt lat="43.537977288320995" lon="11.355706408626965"><ele>538.2857142857142</ele><time>2026-03-22T10:40:53.999Z</time></trkpt><trkpt lat="43.5380519745789" lon="11.35570185637966"><ele>536.7142857142858</ele><time>2026-03-22T10:40:57.999Z</time></trkpt><trkpt lat="43.53812483281133" lon="11.355658611031627"><ele>535.1428571428571</ele><time>2026-03-22T10:40:59.999Z</time></trkpt><trkpt lat="43.538193821070244" lon="11.355682046279469"><ele>533.5714285714286</ele><time>2026-03-22T10:41:01.999Z</time></trkpt><trkpt lat="43.53826800030856" lon="11.355686229800442"><ele>532.0</ele><time>2026-03-22T10:41:10.999Z</time></trkpt><trkpt lat="43.53830648212885" lon="11.35560076191206"><ele>532.0</ele><time>2026-03-22T10:41:12.999Z</time></trkpt><trkpt lat="43.53836087462295" lon="11.355654049550724"><ele>532.0</ele><time>2026-03-22T10:42:33.999Z</time></trkpt><trkpt lat="43.53843776473245" lon="11.355803818680881"><ele>532.0</ele><time>2026-03-22T10:42:35.999Z</time></trkpt><trkpt lat="43.538502073033285" lon="11.355901882906767"><ele>532.0</ele><time>2026-03-22T10:42:36.999Z</time></trkpt><trkpt lat="43.53859496544293" lon="11.356039310863626"><ele>532.0</ele><time>2026-03-22T10:42:37.999Z</time></trkpt><trkpt lat="43.538679731124496" lon="11.356160458806931"><ele>531.8000000000001</ele><time>2026-03-22T10:42:38.999Z</time></trkpt><trkpt lat="43.53875549684648" lon="11.356258628779969"><ele>531.6</ele><time>2026-03-22T10:42:39.999Z</time></trkpt><trkpt lat="43.53882801178133" lon="11.356326434775116"><ele>531.4000000000001</ele><time>2026-03-22T10:42:40.999Z</time></trkpt><trkpt lat="43.53891082649406" lon="11.356369397586564"><ele>531.2</ele><time>2026-03-22T10:42:42.999Z</time></trkpt><trkpt lat="43.538841876107135" lon="11.356416033945353"><ele>531.0</ele><time>2026-03-22T10:43:22Z</time></trkpt><trkpt lat="43.5387156701587" lon="11.356432098790044"><ele>531.1666666666666</ele><time>2026-03-22T10:43:24Z</time></trkpt><trkpt lat="43.53863183483068" lon="11.356448900531026"><ele>531.3333333333334</ele><time>2026-03-22T10:43:25Z</time></trkpt><trkpt lat="43.538559001547945" lon="11.356448031979875"><ele>531.5</ele><time>2026-03-22T10:43:26Z</time></trkpt><trkpt lat="43.53848588359887" lon="11.35642476792328"><ele>531.6666666666667</ele><time>2026-03-22T10:43:28Z</time></trkpt><trkpt lat="43.53838309176444" lon="11.356406146286844"><ele>531.8333333333334</ele><time>2026-03-22T10:43:45Z</time></trkpt><trkpt lat="43.53830744454189" lon="11.356368530885076"><ele>532.0</ele><time>2026-03-22T10:43:46Z</time></trkpt><trkpt lat="43.538211216456844" lon="11.356304145962623"><ele>532.0</ele><time>2026-03-22T10:43:47Z</time></trkpt><trkpt lat="43.538129815444066" lon="11.356225459246243"><ele>532.0</ele><time>2026-03-22T10:43:48Z</time></trkpt><trkpt lat="43.53806476010036" lon="11.356153393573974"><ele>532.0</ele><time>2026-03-22T10:43:49Z</time></trkpt><trkpt lat="43.53800371067523" lon="11.356096586224716"><ele>532.0</ele><time>2026-03-22T10:43:50Z</time></trkpt><trkpt lat="43.537884058891464" lon="11.35609182665481"><ele>532.0</ele><time>2026-03-22T10:43:52Z</time></trkpt><trkpt lat="43.53781347526307" lon="11.35610967216925"><ele>532.0</ele><time>2026-03-22T10:43:53Z</time></trkpt><trkpt lat="43.53772731780879" lon="11.356138395588138"><ele>533.8333333333334</ele><time>2026-03-22T10:43:54Z</time></trkpt><trkpt lat="43.53763980020841" lon="11.356149448230507"><ele>535.6666666666667</ele><time>2026-03-22T10:43:55Z</time></trkpt><trkpt lat="43.5375312395669" lon="11.356154384270832"><ele>537.5</ele><time>2026-03-22T10:43:56Z</time></trkpt><trkpt lat="43.537429856221685" lon="11.356161399337562"><ele>539.3333333333334</ele><time>2026-03-22T10:43:57Z</time></trkpt><trkpt lat="43.53735502904225" lon="11.356185309199757"><ele>541.1666666666666</ele><time>2026-03-22T10:43:58Z</time></trkpt><trkpt lat="43.537288383214154" lon="11.356219823699174"><ele>543.0</ele><time>2026-03-22T10:43:59Z</time></trkpt><trkpt lat="43.53723794606426" lon="11.356284100092413"><ele>543.0</ele><time>2026-03-22T10:44:08.999Z</time></trkpt><trkpt lat="43.537310819508306" lon="11.356237327739429"><ele>543.0</ele><time>2026-03-22T10:45:12.999Z</time></trkpt><trkpt lat="43.5373708149018" lon="11.356201150866376"><ele>543.0</ele><time>2026-03-22T10:45:13.999Z</time></trkpt><trkpt lat="43.53744590616239" lon="11.35615854777797"><ele>543.0</ele><time>2026-03-22T10:45:14.999Z</time></trkpt><trkpt lat="43.53751878672429" lon="11.356137567959737"><ele>543.0</ele><time>2026-03-22T10:45:15.999Z</time></trkpt><trkpt lat="43.53760835319955" lon="11.356137111807952"><ele>543.0</ele><time>2026-03-22T10:45:16.999Z</time></trkpt><trkpt lat="43.53770127131185" lon="11.356142833475506"><ele>543.0</ele><time>2026-03-22T10:45:17.999Z</time></trkpt><trkpt lat="43.53778251184677" lon="11.356139604167257"><ele>543.0</ele><time>2026-03-22T10:45:18.998Z</time></trkpt><trkpt lat="43.537852528883086" lon="11.356123369503907"><ele>543.0</ele><time>2026-03-22T10:45:19.998Z</time></trkpt><trkpt lat="43.5379151886246" lon="11.356101399542935"><ele>543.0</ele><time>2026-03-22T10:45:20.998Z</time></trkpt><trkpt lat="43.538021437897406" lon="11.356106350486597"><ele>543.0</ele><time>2026-03-22T10:45:22.998Z</time></trkpt><trkpt lat="43.53812103861269" lon="11.35619043242683"><ele>543.0</ele><time>2026-03-22T10:45:25Z</time></trkpt><trkpt lat="43.53818864307691" lon="11.356266797754483"><ele>543.4285714285714</ele><time>2026-03-22T10:45:26Z</time></trkpt><trkpt lat="43.538243862557884" lon="11.356326819753376"><ele>543.8571428571429</ele><time>2026-03-22T10:45:27Z</time></trkpt><trkpt lat="43.538314610701846" lon="11.356378939728016"><ele>544.2857142857142</ele><time>2026-03-22T10:45:28Z</time></trkpt><trkpt lat="43.53837869561948" lon="11.356407471009687"><ele>544.7142857142858</ele><time>2026-03-22T10:45:29Z</time></trkpt><trkpt lat="43.5384449797616" lon="11.356444636575855"><ele>545.1428571428571</ele><time>2026-03-22T10:45:31Z</time></trkpt><trkpt lat="43.53851101988674" lon="11.356458545299503"><ele>545.5714285714286</ele><time>2026-03-22T10:45:43Z</time></trkpt><trkpt lat="43.5385792542136" lon="11.356455842142173"><ele>546.0</ele><time>2026-03-22T10:45:45Z</time></trkpt><trkpt lat="43.5386528399034" lon="11.356458071386687"><ele>546.25</ele><time>2026-03-22T10:45:46Z</time></trkpt><trkpt lat="43.53875825826616" lon="11.35645615064911"><ele>546.5</ele><time>2026-03-22T10:45:47Z</time></trkpt><trkpt lat="43.53888185765756" lon="11.356420953381443"><ele>546.75</ele><time>2026-03-22T10:45:48Z</time></trkpt><trkpt lat="43.53900137614413" lon="11.35636330736957"><ele>547.0</ele><time>2026-03-22T10:45:49Z</time></trkpt><trkpt lat="43.5391377307292" lon="11.356302484157556"><ele>543.0</ele><time>2026-03-22T10:45:50Z</time></trkpt><trkpt lat="43.5392953723123" lon="11.356234015946228"><ele>539.0</ele><time>2026-03-22T10:45:51Z</time></trkpt><trkpt lat="43.539457184240334" lon="11.356168196902358"><ele>535.0</ele><time>2026-03-22T10:45:52Z</time></trkpt><trkpt lat="43.53961894575319" lon="11.356108351589706"><ele>535.0</ele><time>2026-03-22T10:45:53Z</time></trkpt><trkpt lat="43.539777319798" lon="11.356070826166219"><ele>535.0</ele><time>2026-03-22T10:45:54Z</time></trkpt><trkpt lat="43.53992195641624" lon="11.356042262816418"><ele>535.0</ele><time>2026-03-22T10:45:55Z</time></trkpt><trkpt lat="43.5400226359219" lon="11.356026073584273"><ele>535.0</ele><time>2026-03-22T10:45:56Z</time></trkpt><trkpt lat="43.54010430219971" lon="11.356020537475178"><ele>535.0</ele><time>2026-03-22T10:45:57Z</time></trkpt><trkpt lat="43.54016893983565" lon="11.356056067502108"><ele>535.0</ele><time>2026-03-22T10:45:58Z</time></trkpt><trkpt lat="43.54023761582965" lon="11.356131038729051"><ele>535.0</ele><time>2026-03-22T10:45:59Z</time></trkpt><trkpt lat="43.54029364206165" lon="11.356238602631645"><ele>535.0</ele><time>2026-03-22T10:46:00Z</time></trkpt><trkpt lat="43.540358359190044" lon="11.356376681731772"><ele>535.0</ele><time>2026-03-22T10:46:01Z</time></trkpt><trkpt lat="43.54045005225214" lon="11.356507235964104"><ele>537.75</ele><time>2026-03-22T10:46:02Z</time></trkpt><trkpt lat="43.54056147850251" lon="11.356599412336067"><ele>540.5</ele><time>2026-03-22T10:46:03Z</time></trkpt><trkpt lat="43.54068210513533" lon="11.35666657193853"><ele>543.25</ele><time>2026-03-22T10:46:04Z</time></trkpt><trkpt lat="43.54079880479238" lon="11.35672035190293"><ele>546.0</ele><time>2026-03-22T10:46:05Z</time></trkpt><trkpt lat="43.54091000113392" lon="11.356790304283287"><ele>546.0</ele><time>2026-03-22T10:46:06Z</time></trkpt><trkpt lat="43.540990787124755" lon="11.356879577370742"><ele>546.0</ele><time>2026-03-22T10:46:07Z</time></trkpt><trkpt lat="43.541059289009524" lon="11.356962870716352"><ele>546.0</ele><time>2026-03-22T10:46:08Z</time></trkpt><trkpt lat="43.54112211304436" lon="11.357029254903336"><ele>546.0</ele><time>2026-03-22T10:46:09Z</time></trkpt><trkpt lat="43.54118197613092" lon="11.357078969761929"><ele>546.0</ele><time>2026-03-22T10:46:10Z</time></trkpt><trkpt lat="43.541253799026975" lon="11.357131625744993"><ele>546.0</ele><time>2026-03-22T10:46:11.999Z</time></trkpt><trkpt lat="43.541182955840384" lon="11.357220933709309"><ele>548.6666666666666</ele><time>2026-03-22T10:46:16.999Z</time></trkpt><trkpt lat="43.54111666732276" lon="11.3572362002183"><ele>551.3333333333334</ele><time>2026-03-22T10:46:17.999Z</time></trkpt><trkpt lat="43.54105379303118" lon="11.35726120944354"><ele>554.0</ele><time>2026-03-22T10:46:18.999Z</time></trkpt><trkpt lat="43.54098228864512" lon="11.357293003328403"><ele>556.6666666666667</ele><time>2026-03-22T10:46:19.999Z</time></trkpt><trkpt lat="43.54091218287772" lon="11.357316005213141"><ele>559.3333333333334</ele><time>2026-03-22T10:46:20.999Z</time></trkpt><trkpt lat="43.54083230781354" lon="11.357331525390416"><ele>562.0</ele><time>2026-03-22T10:46:21.999Z</time></trkpt><trkpt lat="43.540733614805745" lon="11.357337986879806"><ele>562.0</ele><time>2026-03-22T10:46:22.999Z</time></trkpt><trkpt lat="43.54063437859153" lon="11.357341328591556"><ele>562.0</ele><time>2026-03-22T10:46:23.999Z</time></trkpt><trkpt lat="43.540533103577054" lon="11.357357746986056"><ele>562.0</ele><time>2026-03-22T10:46:24.999Z</time></trkpt><trkpt lat="43.54043436929151" lon="11.357385019194155"><ele>562.0</ele><time>2026-03-22T10:46:25.999Z</time></trkpt><trkpt lat="43.54034336229968" lon="11.35740961544947"><ele>562.0</ele><time>2026-03-22T10:46:26.999Z</time></trkpt><trkpt lat="43.54024751864919" lon="11.357431700047062"><ele>562.4</ele><time>2026-03-22T10:46:27.999Z</time></trkpt><trkpt lat="43.5401555506174" lon="11.357456784555117"><ele>562.8000000000001</ele><time>2026-03-22T10:46:28.999Z</time></trkpt><trkpt lat="43.54007055621085" lon="11.35748055313172"><ele>563.2</ele><time>2026-03-22T10:46:29.999Z</time></trkpt><trkpt lat="43.53997778095936" lon="11.357503738153587"><ele>563.6</ele><time>2026-03-22T10:46:30.999Z</time></trkpt><trkpt lat="43.53988145517233" lon="11.357524338818527"><ele>564.0</ele><time>2026-03-22T10:46:31.999Z</time></trkpt><trkpt lat="43.53979483858594" lon="11.357542368991854"><ele>564.0</ele><time>2026-03-22T10:46:32.999Z</time></trkpt><trkpt lat="43.53971302038294" lon="11.35757118480248"><ele>564.0</ele><time>2026-03-22T10:46:33.999Z</time></trkpt><trkpt lat="43.53964250973444" lon="11.357620953815543"><ele>564.0</ele><time>2026-03-22T10:46:34.999Z</time></trkpt><trkpt lat="43.53956733672438" lon="11.357686226510912"><ele>564.0</ele><time>2026-03-22T10:46:35.999Z</time></trkpt><trkpt lat="43.5394971069016" lon="11.357761874905625"><ele>564.0</ele><time>2026-03-22T10:46:36.999Z</time></trkpt><trkpt lat="43.53942893121851" lon="11.357838640651357"><ele>564.0</ele><time>2026-03-22T10:46:37.999Z</time></trkpt><trkpt lat="43.53935289597854" lon="11.357912299183631"><ele>564.1666666666666</ele><time>2026-03-22T10:46:38.999Z</time></trkpt><trkpt lat="43.53927062767827" lon="11.357942884635952"><ele>564.3333333333334</ele><time>2026-03-22T10:46:39.999Z</time></trkpt><trkpt lat="43.53920846759072" lon="11.357990973509118"><ele>564.5</ele><time>2026-03-22T10:46:40.999Z</time></trkpt><trkpt lat="43.5391613221449" lon="11.358085083359065"><ele>564.6666666666667</ele><time>2026-03-22T10:46:41.999Z</time></trkpt><trkpt lat="43.53909956603462" lon="11.358150234934367"><ele>564.8333333333334</ele><time>2026-03-22T10:46:42.999Z</time></trkpt><trkpt lat="43.539023473154614" lon="11.358188515261043"><ele>565.0</ele><time>2026-03-22T10:46:43.999Z</time></trkpt><trkpt lat="43.538946792342024" lon="11.3582019658271"><ele>567.8</ele><time>2026-03-22T10:46:44.999Z</time></trkpt><trkpt lat="43.538880892177495" lon="11.3582262788157"><ele>570.6</ele><time>2026-03-22T10:46:45.999Z</time></trkpt><trkpt lat="43.538794598944996" lon="11.358334765370863"><ele>573.4</ele><time>2026-03-22T10:46:47.999Z</time></trkpt><trkpt lat="43.53870931451292" lon="11.358444202901598"><ele>576.2</ele><time>2026-03-22T10:46:49.999Z</time></trkpt><trkpt lat="43.538647022244994" lon="11.358492221459185"><ele>579.0</ele><time>2026-03-22T10:46:50.999Z</time></trkpt><trkpt lat="43.538576118137144" lon="11.358536221675664"><ele>579.0</ele><time>2026-03-22T10:46:51.999Z</time></trkpt><trkpt lat="43.53849024324538" lon="11.358593140370928"><ele>579.0</ele><time>2026-03-22T10:46:52.999Z</time></trkpt><trkpt lat="43.53840588908127" lon="11.358648779504055"><ele>579.0</ele><time>2026-03-22T10:46:53.999Z</time></trkpt><trkpt lat="43.53832226051739" lon="11.358692507863967"><ele>579.0</ele><time>2026-03-22T10:46:54.999Z</time></trkpt><trkpt lat="43.53823326568777" lon="11.358728757230521"><ele>579.0</ele><time>2026-03-22T10:46:55.999Z</time></trkpt><trkpt lat="43.53814775190022" lon="11.358753098552027"><ele>579.0</ele><time>2026-03-22T10:46:56.999Z</time></trkpt><trkpt lat="43.538038098368055" lon="11.358783493826996"><ele>579.0</ele><time>2026-03-22T10:46:58.999Z</time></trkpt><trkpt lat="43.53795095859466" lon="11.358822934520182"><ele>579.0</ele><time>2026-03-22T10:47:00.999Z</time></trkpt><trkpt lat="43.53785542194789" lon="11.358861073475904"><ele>579.0</ele><time>2026-03-22T10:47:02.999Z</time></trkpt><trkpt lat="43.53774298487503" lon="11.358908352469802"><ele>579.0</ele><time>2026-03-22T10:47:04.999Z</time></trkpt><trkpt lat="43.53765701671931" lon="11.358916874442532"><ele>582.8</ele><time>2026-03-22T10:47:06.999Z</time></trkpt><trkpt lat="43.537578533802225" lon="11.358921167252545"><ele>586.5999999999999</ele><time>2026-03-22T10:47:08.999Z</time></trkpt><trkpt lat="43.537447654580035" lon="11.35892365844553"><ele>590.4</ele><time>2026-03-22T10:47:10.999Z</time></trkpt><trkpt lat="43.53734508713524" lon="11.358917841755172"><ele>594.1999999999999</ele><time>2026-03-22T10:47:11.999Z</time></trkpt><trkpt lat="43.53723674838764" lon="11.35891132667712"><ele>598.0</ele><time>2026-03-22T10:47:12.999Z</time></trkpt><trkpt lat="43.53711929864893" lon="11.358900107057401"><ele>599.0</ele><time>2026-03-22T10:47:13.999Z</time></trkpt><trkpt lat="43.5370035618698" lon="11.358889474083735"><ele>600.0</ele><time>2026-03-22T10:47:14.999Z</time></trkpt><trkpt lat="43.53689527151186" lon="11.358884623093873"><ele>601.0</ele><time>2026-03-22T10:47:15.999Z</time></trkpt><trkpt lat="43.53679587330258" lon="11.358883436878006"><ele>602.0</ele><time>2026-03-22T10:47:16.999Z</time></trkpt><trkpt lat="43.53670479306251" lon="11.358878689430055"><ele>603.0</ele><time>2026-03-22T10:47:17.999Z</time></trkpt><trkpt lat="43.53662671871653" lon="11.358861978514494"><ele>600.5</ele><time>2026-03-22T10:47:18.999Z</time></trkpt><trkpt lat="43.53655997244538" lon="11.358831061170823"><ele>598.0</ele><time>2026-03-22T10:47:19.999Z</time></trkpt><trkpt lat="43.536495514882944" lon="11.358792425498464"><ele>595.5</ele><time>2026-03-22T10:47:20.999Z</time></trkpt><trkpt lat="43.53641104060345" lon="11.358750848725757"><ele>593.0</ele><time>2026-03-22T10:47:21.999Z</time></trkpt><trkpt lat="43.536320160332885" lon="11.358717223043204"><ele>590.5</ele><time>2026-03-22T10:47:22.998Z</time></trkpt><trkpt lat="43.53622216799457" lon="11.358687796167333"><ele>588.0</ele><time>2026-03-22T10:47:23.998Z</time></trkpt><trkpt lat="43.53612534559928" lon="11.358653607292112"><ele>588.0</ele><time>2026-03-22T10:47:24.998Z</time></trkpt><trkpt lat="43.536024451004316" lon="11.358612455056756"><ele>588.0</ele><time>2026-03-22T10:47:25.998Z</time></trkpt><trkpt lat="43.53593785238582" lon="11.358565313035985"><ele>588.0</ele><time>2026-03-22T10:47:26.998Z</time></trkpt><trkpt lat="43.53585920642972" lon="11.358518922116692"><ele>588.0</ele><time>2026-03-22T10:47:27.998Z</time></trkpt><trkpt lat="43.5357766166952" lon="11.358478208317182"><ele>588.0</ele><time>2026-03-22T10:47:28.998Z</time></trkpt><trkpt lat="43.53568554341334" lon="11.358458480025352"><ele>588.0</ele><time>2026-03-22T10:47:29.998Z</time></trkpt><trkpt lat="43.53558347529174" lon="11.358477208896511"><ele>588.0</ele><time>2026-03-22T10:47:31Z</time></trkpt><trkpt lat="43.53547568288201" lon="11.3585148763541"><ele>588.0</ele><time>2026-03-22T10:47:32Z</time></trkpt><trkpt lat="43.53537202144249" lon="11.358557507168614"><ele>588.0</ele><time>2026-03-22T10:47:33Z</time></trkpt><trkpt lat="43.535284675564256" lon="11.358602059124012"><ele>588.0</ele><time>2026-03-22T10:47:34Z</time></trkpt><trkpt lat="43.53520680501016" lon="11.358638755517084"><ele>587.4</ele><time>2026-03-22T10:47:35Z</time></trkpt><trkpt lat="43.5351504121449" lon="11.358721600176612"><ele>586.8</ele><time>2026-03-22T10:47:36Z</time></trkpt><trkpt lat="43.53510108253769" lon="11.358838371262975"><ele>586.2</ele><time>2026-03-22T10:47:37Z</time></trkpt><trkpt lat="43.53506642261576" lon="11.358964263919486"><ele>585.6</ele><time>2026-03-22T10:47:38Z</time></trkpt><trkpt lat="43.53505765418287" lon="11.359107459276347"><ele>585.0</ele><time>2026-03-22T10:47:39Z</time></trkpt><trkpt lat="43.53506588000707" lon="11.359231624292185"><ele>586.0</ele><time>2026-03-22T10:47:40Z</time></trkpt><trkpt lat="43.53506685034935" lon="11.359328262644743"><ele>587.0</ele><time>2026-03-22T10:47:41Z</time></trkpt><trkpt lat="43.535022575978815" lon="11.359444478968104"><ele>588.0</ele><time>2026-03-22T10:47:43Z</time></trkpt><trkpt lat="43.53495445958038" lon="11.359452964964614"><ele>589.0</ele><time>2026-03-22T10:47:44Z</time></trkpt><trkpt lat="43.534874219216086" lon="11.359427918879716"><ele>590.0</ele><time>2026-03-22T10:47:45Z</time></trkpt><trkpt lat="43.534790036668525" lon="11.359399783704141"><ele>591.0</ele><time>2026-03-22T10:47:46Z</time></trkpt><trkpt lat="43.53468286185359" lon="11.359370333088032"><ele>591.0</ele><time>2026-03-22T10:47:47Z</time></trkpt><trkpt lat="43.534580101002135" lon="11.359350203773984"><ele>591.0</ele><time>2026-03-22T10:47:48Z</time></trkpt><trkpt lat="43.53447117799148" lon="11.359341763111555"><ele>591.0</ele><time>2026-03-22T10:47:49Z</time></trkpt><trkpt lat="43.53435704763525" lon="11.359351276330182"><ele>591.0</ele><time>2026-03-22T10:47:50Z</time></trkpt><trkpt lat="43.53424430787435" lon="11.359378435743034"><ele>591.0</ele><time>2026-03-22T10:47:51Z</time></trkpt><trkpt lat="43.534132849598166" lon="11.359421888831521"><ele>593.0</ele><time>2026-03-22T10:47:52Z</time></trkpt><trkpt lat="43.534032768604646" lon="11.359464303654844"><ele>595.0</ele><time>2026-03-22T10:47:53Z</time></trkpt><trkpt lat="43.53394259756135" lon="11.359499186829549"><ele>597.0</ele><time>2026-03-22T10:47:54Z</time></trkpt><trkpt lat="43.53384286302587" lon="11.359493366148277"><ele>599.0</ele><time>2026-03-22T10:47:55Z</time></trkpt><trkpt lat="43.533735632648074" lon="11.359483786970019"><ele>601.0</ele><time>2026-03-22T10:47:56Z</time></trkpt><trkpt lat="43.533624433216964" lon="11.359450721518332"><ele>601.8</ele><time>2026-03-22T10:47:57Z</time></trkpt><trkpt lat="43.53350982827327" lon="11.35944216657303"><ele>602.6</ele><time>2026-03-22T10:47:58Z</time></trkpt><trkpt lat="43.53339623536712" lon="11.359448347377958"><ele>603.4</ele><time>2026-03-22T10:47:59Z</time></trkpt><trkpt lat="43.533310610578035" lon="11.35944921286023"><ele>604.2</ele><time>2026-03-22T10:48:00Z</time></trkpt><trkpt lat="43.53322865579617" lon="11.3594558590959"><ele>605.0</ele><time>2026-03-22T10:48:02Z</time></trkpt><trkpt lat="43.533149300786334" lon="11.35945784493696"><ele>605.0</ele><time>2026-03-22T10:48:09Z</time></trkpt><trkpt lat="43.5330516866075" lon="11.359477179900454"><ele>605.0</ele><time>2026-03-22T10:48:11Z</time></trkpt><trkpt lat="43.53296034606054" lon="11.35951884824542"><ele>605.0</ele><time>2026-03-22T10:48:13Z</time></trkpt><trkpt lat="43.53287121294062" lon="11.359537984297296"><ele>605.0</ele><time>2026-03-22T10:48:15Z</time></trkpt><trkpt lat="43.53278615096168" lon="11.359518102762616"><ele>605.0</ele><time>2026-03-22T10:48:17Z</time></trkpt><trkpt lat="43.5327051120108" lon="11.35954717126077"><ele>605.75</ele><time>2026-03-22T10:48:20Z</time></trkpt><trkpt lat="43.53263283003792" lon="11.359520852028819"><ele>606.5</ele><time>2026-03-22T10:48:21Z</time></trkpt><trkpt lat="43.532541377030896" lon="11.359487552059187"><ele>607.25</ele><time>2026-03-22T10:48:22Z</time></trkpt><trkpt lat="43.532480464849115" lon="11.35946537278423"><ele>608.0</ele><time>2026-03-22T10:48:22.999Z</time></trkpt><trkpt lat="43.532329586515466" lon="11.359957699195679"><ele>608.8333333333333</ele><time>2026-03-22T10:48:23.999Z</time></trkpt><trkpt lat="43.53224795996116" lon="11.360020313075943"><ele>609.6666666666666</ele><time>2026-03-22T10:48:24.999Z</time></trkpt><trkpt lat="43.53216482337212" lon="11.360081373630717"><ele>610.5</ele><time>2026-03-22T10:48:25.999Z</time></trkpt><trkpt lat="43.532097057877856" lon="11.3601423162527"><ele>611.3333333333334</ele><time>2026-03-22T10:48:26.999Z</time></trkpt><trkpt lat="43.5320115463899" lon="11.36018718443918"><ele>612.1666666666667</ele><time>2026-03-22T10:48:27.999Z</time></trkpt><trkpt lat="43.53192488811052" lon="11.36020200388764"><ele>613.0</ele><time>2026-03-22T10:48:28.999Z</time></trkpt><trkpt lat="43.5318447114104" lon="11.360221043836235"><ele>614.0</ele><time>2026-03-22T10:48:29.999Z</time></trkpt><trkpt lat="43.53177192026211" lon="11.36024621081293"><ele>615.0</ele><time>2026-03-22T10:48:30.999Z</time></trkpt><trkpt lat="43.531695149630714" lon="11.360277696545118"><ele>616.0</ele><time>2026-03-22T10:48:31.999Z</time></trkpt><trkpt lat="43.531615845761124" lon="11.360296414449639"><ele>617.0</ele><time>2026-03-22T10:48:32.999Z</time></trkpt><trkpt lat="43.531540208583564" lon="11.360313676298082"><ele>618.0</ele><time>2026-03-22T10:48:33.999Z</time></trkpt><trkpt lat="43.53145149844255" lon="11.360323621447856"><ele>619.0</ele><time>2026-03-22T10:48:34.999Z</time></trkpt><trkpt lat="43.53136514000768" lon="11.360353197961928"><ele>619.0</ele><time>2026-03-22T10:48:35.999Z</time></trkpt><trkpt lat="43.53129025151706" lon="11.360408432496467"><ele>619.0</ele><time>2026-03-22T10:48:37.999Z</time></trkpt><trkpt lat="43.53122024859322" lon="11.360533626536649"><ele>619.0</ele><time>2026-03-22T10:48:39.999Z</time></trkpt><trkpt lat="43.53114881749426" lon="11.360544537715404"><ele>619.0</ele><time>2026-03-22T10:48:40.999Z</time></trkpt><trkpt lat="43.531033383781356" lon="11.360491386017832"><ele>619.0</ele><time>2026-03-22T10:48:42.999Z</time></trkpt><trkpt lat="43.530930039860166" lon="11.36055602433821"><ele>622.5</ele><time>2026-03-22T10:48:44.999Z</time></trkpt><trkpt lat="43.53091985980801" lon="11.360644540357717"><ele>626.0</ele><time>2026-03-22T10:48:46.999Z</time></trkpt><trkpt lat="43.53094993012058" lon="11.360762294452138"><ele>629.5</ele><time>2026-03-22T10:48:48.999Z</time></trkpt><trkpt lat="43.530970259081066" lon="11.360846127699247"><ele>633.0</ele><time>2026-03-22T10:48:49.999Z</time></trkpt><trkpt lat="43.53102784727494" lon="11.360945734803211"><ele>636.5</ele><time>2026-03-22T10:48:51.999Z</time></trkpt><trkpt lat="43.53110403156374" lon="11.361084344698007"><ele>640.0</ele><time>2026-03-22T10:48:53.999Z</time></trkpt><trkpt lat="43.531133283854764" lon="11.361174097747144"><ele>640.0</ele><time>2026-03-22T10:48:54.999Z</time></trkpt><trkpt lat="43.53116787456024" lon="11.361332570963151"><ele>640.0</ele><time>2026-03-22T10:48:56.999Z</time></trkpt><trkpt lat="43.53117539824951" lon="11.361430760873068"><ele>640.0</ele><time>2026-03-22T10:48:57.999Z</time></trkpt><trkpt lat="43.53118750390729" lon="11.361567138558575"><ele>640.0</ele><time>2026-03-22T10:48:59.999Z</time></trkpt><trkpt lat="43.5312263567708" lon="11.361635872875315"><ele>640.0</ele><time>2026-03-22T10:49:00.999Z</time></trkpt><trkpt lat="43.53132348157212" lon="11.361735679421129"><ele>643.0</ele><time>2026-03-22T10:49:02.999Z</time></trkpt><trkpt lat="43.53140881572608" lon="11.361840215144783"><ele>646.0</ele><time>2026-03-22T10:49:04.999Z</time></trkpt><trkpt lat="43.531468470519805" lon="11.361901522003732"><ele>649.0</ele><time>2026-03-22T10:49:05.999Z</time></trkpt><trkpt lat="43.53156029378888" lon="11.361996812303563"><ele>652.0</ele><time>2026-03-22T10:49:06.999Z</time></trkpt><trkpt lat="43.5316335509523" lon="11.362103038871934"><ele>655.0</ele><time>2026-03-22T10:49:07.999Z</time></trkpt><trkpt lat="43.53168791793636" lon="11.362167399197677"><ele>656.5</ele><time>2026-03-22T10:49:08.999Z</time></trkpt><trkpt lat="43.53173935177635" lon="11.362220125452625"><ele>658.0</ele><time>2026-03-22T10:49:09.999Z</time></trkpt><trkpt lat="43.53182014282343" lon="11.362347923472218"><ele>659.5</ele><time>2026-03-22T10:49:11.999Z</time></trkpt><trkpt lat="43.531872593738754" lon="11.362419896837086"><ele>661.0</ele><time>2026-03-22T10:49:12.999Z</time></trkpt><trkpt lat="43.5319452718029" lon="11.36248558232198"><ele>662.5</ele><time>2026-03-22T10:49:13.999Z</time></trkpt><trkpt lat="43.53203711275546" lon="11.362540996822"><ele>664.0</ele><time>2026-03-22T10:49:14.999Z</time></trkpt><trkpt lat="43.53212482786022" lon="11.362588664352865"><ele>664.0</ele><time>2026-03-22T10:49:15.999Z</time></trkpt><trkpt lat="43.53218969132415" lon="11.362624864876285"><ele>664.0</ele><time>2026-03-22T10:49:16.999Z</time></trkpt><trkpt lat="43.5321984512111" lon="11.362731579395023"><ele>664.0</ele><time>2026-03-22T10:49:19.999Z</time></trkpt><trkpt lat="43.53213216564543" lon="11.362834092894662"><ele>664.0</ele><time>2026-03-22T10:49:21.999Z</time></trkpt><trkpt lat="43.532050679895" lon="11.362906904121958"><ele>664.0</ele><time>2026-03-22T10:49:23.999Z</time></trkpt><trkpt lat="43.53198906411808" lon="11.36295790443497"><ele>664.0</ele><time>2026-03-22T10:49:24.999Z</time></trkpt><trkpt lat="43.53191703431057" lon="11.362987639692642"><ele>665.3333333333334</ele><time>2026-03-22T10:49:25.999Z</time></trkpt><trkpt lat="43.531821691113585" lon="11.363001383923406"><ele>666.6666666666667</ele><time>2026-03-22T10:49:26.999Z</time></trkpt><trkpt lat="43.531755837456366" lon="11.36301781555788"><ele>668.0</ele><time>2026-03-22T10:49:27.999Z</time></trkpt><trkpt lat="43.5316798950217" lon="11.36308481816404"><ele>669.3333333333334</ele><time>2026-03-22T10:49:29.999Z</time></trkpt><trkpt lat="43.53169115693459" lon="11.36321660907739"><ele>670.6666666666666</ele><time>2026-03-22T10:49:31.999Z</time></trkpt><trkpt lat="43.531743193481" lon="11.36329344657836"><ele>672.0</ele><time>2026-03-22T10:49:32.999Z</time></trkpt><trkpt lat="43.53179750649837" lon="11.363366884797484"><ele>674.4000000000001</ele><time>2026-03-22T10:49:33.999Z</time></trkpt><trkpt lat="43.531897444502206" lon="11.363505379658537"><ele>676.8000000000001</ele><time>2026-03-22T10:49:36Z</time></trkpt><trkpt lat="43.53194618328445" lon="11.363581908812689"><ele>679.2</ele><time>2026-03-22T10:49:37Z</time></trkpt><trkpt lat="43.532005626941704" lon="11.363681295205598"><ele>681.6</ele><time>2026-03-22T10:49:38Z</time></trkpt><trkpt lat="43.53207028648869" lon="11.363790684230143"><ele>684.0</ele><time>2026-03-22T10:49:39Z</time></trkpt><trkpt lat="43.5321188136249" lon="11.363882165094324"><ele>686.8333333333334</ele><time>2026-03-22T10:49:40Z</time></trkpt><trkpt lat="43.53217283648725" lon="11.364025143381685"><ele>689.6666666666666</ele><time>2026-03-22T10:49:42Z</time></trkpt><trkpt lat="43.53217781881621" lon="11.364158535199726"><ele>692.5</ele><time>2026-03-22T10:49:43Z</time></trkpt><trkpt lat="43.5321988322006" lon="11.364292051208668"><ele>695.3333333333333</ele><time>2026-03-22T10:49:44Z</time></trkpt><trkpt lat="43.53222619573563" lon="11.364377637947323"><ele>698.1666666666666</ele><time>2026-03-22T10:49:45Z</time></trkpt><trkpt lat="43.532275820868435" lon="11.364437695622536"><ele>701.0</ele><time>2026-03-22T10:49:46Z</time></trkpt><trkpt lat="43.532339783222156" lon="11.364482790404955"><ele>701.0</ele><time>2026-03-22T10:49:47Z</time></trkpt><trkpt lat="43.53240927931662" lon="11.364535772411202"><ele>701.0</ele><time>2026-03-22T10:49:48Z</time></trkpt><trkpt lat="43.532477598484526" lon="11.36461371736769"><ele>701.0</ele><time>2026-03-22T10:49:49Z</time></trkpt><trkpt lat="43.532546240272794" lon="11.364703743496433"><ele>701.0</ele><time>2026-03-22T10:49:50Z</time></trkpt><trkpt lat="43.5326002664864" lon="11.364767442624041"><ele>701.0</ele><time>2026-03-22T10:49:51Z</time></trkpt><trkpt lat="43.53266041187314" lon="11.364840452605565"><ele>701.0</ele><time>2026-03-22T10:49:52Z</time></trkpt><trkpt lat="43.53274877257892" lon="11.36499023759083"><ele>702.0</ele><time>2026-03-22T10:49:54Z</time></trkpt><trkpt lat="43.53280294036726" lon="11.365057531222261"><ele>703.0</ele><time>2026-03-22T10:49:55Z</time></trkpt><trkpt lat="43.53290327098727" lon="11.365166670057222"><ele>704.0</ele><time>2026-03-22T10:49:57Z</time></trkpt><trkpt lat="43.532956099654996" lon="11.365235278494483"><ele>705.0</ele><time>2026-03-22T10:49:58Z</time></trkpt><trkpt lat="43.53302401644227" lon="11.365318254236128"><ele>706.0</ele><time>2026-03-22T10:49:59Z</time></trkpt><trkpt lat="43.53310173241325" lon="11.365401215522501"><ele>707.3333333333334</ele><time>2026-03-22T10:50:00Z</time></trkpt><trkpt lat="43.53316957533193" lon="11.365472772691808"><ele>708.6666666666667</ele><time>2026-03-22T10:50:01Z</time></trkpt><trkpt lat="43.533228364811336" lon="11.365531016024805"><ele>710.0</ele><time>2026-03-22T10:50:02Z</time></trkpt><trkpt lat="43.533296629632915" lon="11.365585463313833"><ele>711.3333333333334</ele><time>2026-03-22T10:50:03Z</time></trkpt><trkpt lat="43.533362296618115" lon="11.365615813938042"><ele>712.6666666666666</ele><time>2026-03-22T10:50:04Z</time></trkpt><trkpt lat="43.53345201923113" lon="11.365670849906822"><ele>714.0</ele><time>2026-03-22T10:50:05Z</time></trkpt><trkpt lat="43.53353596291142" lon="11.365751337053007"><ele>714.6</ele><time>2026-03-22T10:50:06Z</time></trkpt><trkpt lat="43.53359320189427" lon="11.365818010698154"><ele>715.2</ele><time>2026-03-22T10:50:07Z</time></trkpt><trkpt lat="43.53367554830389" lon="11.365884055832268"><ele>715.8000000000001</ele><time>2026-03-22T10:50:08Z</time></trkpt><trkpt lat="43.53377333445628" lon="11.36596195832389"><ele>716.4000000000001</ele><time>2026-03-22T10:50:09Z</time></trkpt><trkpt lat="43.533858051923694" lon="11.366021497372994"><ele>717.0</ele><time>2026-03-22T10:50:10Z</time></trkpt><trkpt lat="43.53394774523114" lon="11.366094603492622"><ele>719.6</ele><time>2026-03-22T10:50:11Z</time></trkpt><trkpt lat="43.534023871735904" lon="11.366164672227654"><ele>722.2</ele><time>2026-03-22T10:50:12Z</time></trkpt><trkpt lat="43.534113131355696" lon="11.366213727606645"><ele>724.8</ele><time>2026-03-22T10:50:13Z</time></trkpt><trkpt lat="43.53421542347644" lon="11.366255153984488"><ele>727.4</ele><time>2026-03-22T10:50:14Z</time></trkpt><trkpt lat="43.5343100496181" lon="11.36630412968863"><ele>730.0</ele><time>2026-03-22T10:50:15Z</time></trkpt><trkpt lat="43.53439312949698" lon="11.366339480884935"><ele>728.4</ele><time>2026-03-22T10:50:16Z</time></trkpt><trkpt lat="43.53447442971992" lon="11.3663967251297"><ele>726.8</ele><time>2026-03-22T10:50:17Z</time></trkpt><trkpt lat="43.534547663506366" lon="11.366463378934016"><ele>725.2</ele><time>2026-03-22T10:50:18Z</time></trkpt><trkpt lat="43.53464105292396" lon="11.366518705087028"><ele>723.6</ele><time>2026-03-22T10:50:19Z</time></trkpt><trkpt lat="43.53474877780936" lon="11.366563785060293"><ele>722.0</ele><time>2026-03-22T10:50:20Z</time></trkpt><trkpt lat="43.53484735008401" lon="11.366600088636408"><ele>725.2</ele><time>2026-03-22T10:50:21Z</time></trkpt><trkpt lat="43.53495027425608" lon="11.36664589647024"><ele>728.4000000000001</ele><time>2026-03-22T10:50:22Z</time></trkpt><trkpt lat="43.535055645935074" lon="11.36671212394279"><ele>731.5999999999999</ele><time>2026-03-22T10:50:23Z</time></trkpt><trkpt lat="43.535148217965094" lon="11.366777401704763"><ele>734.8</ele><time>2026-03-22T10:50:24Z</time></trkpt><trkpt lat="43.53521925496128" lon="11.366828273995097"><ele>738.0</ele><time>2026-03-22T10:50:25Z</time></trkpt><trkpt lat="43.53529091206697" lon="11.36686970922301"><ele>738.0</ele><time>2026-03-22T10:50:26Z</time></trkpt><trkpt lat="43.5353747644319" lon="11.36691917791481"><ele>738.0</ele><time>2026-03-22T10:50:27.999Z</time></trkpt><trkpt lat="43.53537716757588" lon="11.367044271422925"><ele>738.0</ele><time>2026-03-22T10:51:09.999Z</time></trkpt><trkpt lat="43.535419404212256" lon="11.367183205480115"><ele>738.0</ele><time>2026-03-22T10:51:11.999Z</time></trkpt><trkpt lat="43.53550679115292" lon="11.367309867763792"><ele>738.0</ele><time>2026-03-22T10:51:13.999Z</time></trkpt><trkpt lat="43.53559742937239" lon="11.367399894477776"><ele>738.8</ele><time>2026-03-22T10:51:15.999Z</time></trkpt><trkpt lat="43.53566616205138" lon="11.367465596839242"><ele>739.5999999999999</ele><time>2026-03-22T10:51:17.999Z</time></trkpt><trkpt lat="43.53569434566714" lon="11.367597115497036"><ele>740.4000000000001</ele><time>2026-03-22T10:51:19.999Z</time></trkpt><trkpt lat="43.535742809770674" lon="11.367746865901106"><ele>741.2</ele><time>2026-03-22T10:51:21.999Z</time></trkpt><trkpt lat="43.53582082539061" lon="11.367872208123009"><ele>742.0</ele><time>2026-03-22T10:51:23.999Z</time></trkpt><trkpt lat="43.53592958901955" lon="11.367942402724848"><ele>742.0</ele><time>2026-03-22T10:51:25.999Z</time></trkpt><trkpt lat="43.53600200947355" lon="11.367961510280228"><ele>742.0</ele><time>2026-03-22T10:51:26.999Z</time></trkpt><trkpt lat="43.536092352984085" lon="11.368044738090061"><ele>742.0</ele><time>2026-03-22T10:51:28.999Z</time></trkpt><trkpt lat="43.5360736693561" lon="11.368205534847018"><ele>742.0</ele><time>2026-03-22T10:51:30.999Z</time></trkpt><trkpt lat="43.53605918815306" lon="11.368303886739584"><ele>742.0</ele><time>2026-03-22T10:51:31.999Z</time></trkpt><trkpt lat="43.53606367246736" lon="11.36848568113616"><ele>741.0</ele><time>2026-03-22T10:51:33.999Z</time></trkpt><trkpt lat="43.53608229777726" lon="11.368599397915478"><ele>740.0</ele><time>2026-03-22T10:51:34.999Z</time></trkpt><trkpt lat="43.5361174591044" lon="11.368704742141583"><ele>739.0</ele><time>2026-03-22T10:51:35.999Z</time></trkpt><trkpt lat="43.53616277812596" lon="11.368795759846627"><ele>738.0</ele><time>2026-03-22T10:51:36.999Z</time></trkpt><trkpt lat="43.536256217314204" lon="11.368915252277747"><ele>737.0</ele><time>2026-03-22T10:51:38.999Z</time></trkpt><trkpt lat="43.53631598942531" lon="11.368973107825097"><ele>736.0</ele><time>2026-03-22T10:51:39.999Z</time></trkpt><trkpt lat="43.53637930858639" lon="11.369008392523424"><ele>736.0</ele><time>2026-03-22T10:51:40.999Z</time></trkpt><trkpt lat="43.536478386316546" lon="11.369083858636044"><ele>736.0</ele><time>2026-03-22T10:51:43Z</time></trkpt><trkpt lat="43.5365184415068" lon="11.36921175157729"><ele>736.0</ele><time>2026-03-22T10:51:45Z</time></trkpt><trkpt lat="43.536544614279464" lon="11.369337729278579"><ele>736.0</ele><time>2026-03-22T10:51:47Z</time></trkpt><trkpt lat="43.536557532911374" lon="11.36943118174974"><ele>736.0</ele><time>2026-03-22T10:51:48Z</time></trkpt><trkpt lat="43.5365913206739" lon="11.369601153294568"><ele>731.8</ele><time>2026-03-22T10:51:50Z</time></trkpt><trkpt lat="43.53665821509042" lon="11.369767102597368"><ele>727.5999999999999</ele><time>2026-03-22T10:51:52Z</time></trkpt><trkpt lat="43.5366928092971" lon="11.369866065594865"><ele>723.4</ele><time>2026-03-22T10:51:53Z</time></trkpt><trkpt lat="43.536733362879986" lon="11.369946807574017"><ele>719.2</ele><time>2026-03-22T10:51:54Z</time></trkpt><trkpt lat="43.53680250321495" lon="11.370075405421815"><ele>715.0</ele><time>2026-03-22T10:51:56Z</time></trkpt><trkpt lat="43.53685008552386" lon="11.370234219977085"><ele>715.0</ele><time>2026-03-22T10:51:58Z</time></trkpt><trkpt lat="43.53687342933058" lon="11.370330109877917"><ele>715.0</ele><time>2026-03-22T10:51:59Z</time></trkpt><trkpt lat="43.53695139498706" lon="11.370408494738573"><ele>715.0</ele><time>2026-03-22T10:52:01Z</time></trkpt><trkpt lat="43.5370444860076" lon="11.370459821752535"><ele>715.0</ele><time>2026-03-22T10:52:03Z</time></trkpt><trkpt lat="43.53707886535037" lon="11.370593400175748"><ele>715.0</ele><time>2026-03-22T10:52:05Z</time></trkpt><trkpt lat="43.53708068779442" lon="11.37075866313545"><ele>717.4285714285714</ele><time>2026-03-22T10:52:07Z</time></trkpt><trkpt lat="43.537088802420925" lon="11.370847265416039"><ele>719.8571428571428</ele><time>2026-03-22T10:52:08Z</time></trkpt><trkpt lat="43.537119991982635" lon="11.370946020746645"><ele>722.2857142857142</ele><time>2026-03-22T10:52:09Z</time></trkpt><trkpt lat="43.53715907210162" lon="11.371038140997406"><ele>724.7142857142858</ele><time>2026-03-22T10:52:10Z</time></trkpt><trkpt lat="43.537195289495145" lon="11.371133322271639"><ele>727.1428571428571</ele><time>2026-03-22T10:52:11Z</time></trkpt><trkpt lat="43.537227887089486" lon="11.371221541566516"><ele>729.5714285714286</ele><time>2026-03-22T10:52:12Z</time></trkpt><trkpt lat="43.537252634599504" lon="11.37132327051502"><ele>732.0</ele><time>2026-03-22T10:52:15Z</time></trkpt><trkpt lat="43.537294671781375" lon="11.371456002005123"><ele>732.0</ele><time>2026-03-22T10:52:17Z</time></trkpt><trkpt lat="43.537316794804255" lon="11.371555907924934"><ele>732.0</ele><time>2026-03-22T10:52:18Z</time></trkpt><trkpt lat="43.53732058019926" lon="11.371644742153826"><ele>732.0</ele><time>2026-03-22T10:52:19Z</time></trkpt><trkpt lat="43.53731937194638" lon="11.371735186150229"><ele>732.0</ele><time>2026-03-22T10:52:20Z</time></trkpt><trkpt lat="43.53735828022873" lon="11.371868879812423"><ele>732.0</ele><time>2026-03-22T10:52:22Z</time></trkpt><trkpt lat="43.537394550476094" lon="11.371941533132086"><ele>732.0</ele><time>2026-03-22T10:52:23Z</time></trkpt><trkpt lat="43.5374236260951" lon="11.372020870513516"><ele>732.0</ele><time>2026-03-22T10:52:24Z</time></trkpt><trkpt lat="43.537465625157346" lon="11.372153043449348"><ele>731.8</ele><time>2026-03-22T10:52:26Z</time></trkpt><trkpt lat="43.53747358174179" lon="11.372283800842785"><ele>731.6</ele><time>2026-03-22T10:52:28Z</time></trkpt><trkpt lat="43.53750830402857" lon="11.37244927870523"><ele>731.4</ele><time>2026-03-22T10:52:30Z</time></trkpt><trkpt lat="43.537516369519054" lon="11.372603138239993"><ele>731.1999999999999</ele><time>2026-03-22T10:52:32Z</time></trkpt><trkpt lat="43.53758716447423" lon="11.372728053750901"><ele>731.0</ele><time>2026-03-22T10:52:33.999Z</time></trkpt><trkpt lat="43.53764809599646" lon="11.372760186893968"><ele>731.0</ele><time>2026-03-22T10:52:34.999Z</time></trkpt><trkpt lat="43.53770606465862" lon="11.372810708522033"><ele>731.0</ele><time>2026-03-22T10:52:35.999Z</time></trkpt><trkpt lat="43.53775829806697" lon="11.372867651753985"><ele>731.0</ele><time>2026-03-22T10:52:36.999Z</time></trkpt><trkpt lat="43.537792293824886" lon="11.373022449673421"><ele>731.0</ele><time>2026-03-22T10:52:38.999Z</time></trkpt><trkpt lat="43.537862985753335" lon="11.373130721781585"><ele>731.0</ele><time>2026-03-22T10:52:40.999Z</time></trkpt><trkpt lat="43.53785361238226" lon="11.373270976394116"><ele>731.8333333333333</ele><time>2026-03-22T10:52:42.999Z</time></trkpt><trkpt lat="43.5378550905495" lon="11.373374618000167"><ele>732.6666666666666</ele><time>2026-03-22T10:52:43.999Z</time></trkpt><trkpt lat="43.53787245460559" lon="11.373493513261655"><ele>733.5</ele><time>2026-03-22T10:52:44.999Z</time></trkpt><trkpt lat="43.53787860156281" lon="11.373594865468705"><ele>734.3333333333334</ele><time>2026-03-22T10:52:46.999Z</time></trkpt><trkpt lat="43.5378266901867" lon="11.373679955383409"><ele>735.1666666666667</ele><time>2026-03-22T10:53:13.999Z</time></trkpt><trkpt lat="43.53777979000442" lon="11.373794098714137"><ele>736.0</ele><time>2026-03-22T10:53:15.999Z</time></trkpt><trkpt lat="43.53775819661375" lon="11.373918645462709"><ele>737.0</ele><time>2026-03-22T10:53:17.999Z</time></trkpt><trkpt lat="43.537749366896506" lon="11.374057309273521"><ele>738.0</ele><time>2026-03-22T10:53:19.999Z</time></trkpt><trkpt lat="43.53776221066743" lon="11.374236892190538"><ele>739.0</ele><time>2026-03-22T10:53:21.999Z</time></trkpt><trkpt lat="43.537767267753075" lon="11.374325454516054"><ele>740.0</ele><time>2026-03-22T10:53:22.999Z</time></trkpt><trkpt lat="43.53777591328725" lon="11.37447321802782"><ele>741.0</ele><time>2026-03-22T10:53:24.999Z</time></trkpt><trkpt lat="43.53775365493022" lon="11.374631704724173"><ele>741.5</ele><time>2026-03-22T10:53:26.999Z</time></trkpt><trkpt lat="43.53775466436043" lon="11.374722430552914"><ele>742.0</ele><time>2026-03-22T10:53:27.999Z</time></trkpt><trkpt lat="43.537747257664364" lon="11.374840208555598"><ele>742.5</ele><time>2026-03-22T10:53:28.999Z</time></trkpt><trkpt lat="43.53773793523604" lon="11.374932609632518"><ele>743.0</ele><time>2026-03-22T10:53:29.999Z</time></trkpt><trkpt lat="43.53773084517361" lon="11.375038282564956"><ele>743.5</ele><time>2026-03-22T10:53:30.999Z</time></trkpt><trkpt lat="43.537723501793806" lon="11.37513448185915"><ele>744.0</ele><time>2026-03-22T10:53:31.999Z</time></trkpt><trkpt lat="43.53771175735243" lon="11.375292647620618"><ele>744.0</ele><time>2026-03-22T10:53:33.999Z</time></trkpt><trkpt lat="43.53770013084484" lon="11.375379013058506"><ele>744.0</ele><time>2026-03-22T10:53:34.999Z</time></trkpt><trkpt lat="43.53770480069853" lon="11.375528104913936"><ele>744.0</ele><time>2026-03-22T10:53:36.999Z</time></trkpt><trkpt lat="43.53764408973417" lon="11.375625815831953"><ele>744.0</ele><time>2026-03-22T10:53:41.999Z</time></trkpt><trkpt lat="43.537564663754" lon="11.37562914793892"><ele>744.0</ele><time>2026-03-22T10:53:43.999Z</time></trkpt><trkpt lat="43.53750020074808" lon="11.375546255497976"><ele>744.0</ele><time>2026-03-22T10:53:47Z</time></trkpt><trkpt lat="43.53746211318373" lon="11.375418149815884"><ele>744.0</ele><time>2026-03-22T10:53:49Z</time></trkpt><trkpt lat="43.53743567665513" lon="11.375322418852322"><ele>744.0</ele><time>2026-03-22T10:53:50Z</time></trkpt><trkpt lat="43.53741682296172" lon="11.375221171493672"><ele>744.0</ele><time>2026-03-22T10:53:51Z</time></trkpt><trkpt lat="43.53739075794974" lon="11.375068901248907"><ele>744.0</ele><time>2026-03-22T10:53:53Z</time></trkpt><trkpt lat="43.53736265367691" lon="11.374939630940926"><ele>744.0</ele><time>2026-03-22T10:53:55Z</time></trkpt><trkpt lat="43.53731802961879" lon="11.374826836230225"><ele>744.0</ele><time>2026-03-22T10:53:57Z</time></trkpt><trkpt lat="43.53726468108591" lon="11.374708529059163"><ele>744.0</ele><time>2026-03-22T10:53:58Z</time></trkpt><trkpt lat="43.53723951319424" lon="11.374589279387928"><ele>744.0</ele><time>2026-03-22T10:53:59Z</time></trkpt><trkpt lat="43.53719954243471" lon="11.374517172592018"><ele>744.0</ele><time>2026-03-22T10:54:00Z</time></trkpt><trkpt lat="43.53713238961001" lon="11.374421846843747"><ele>744.0</ele><time>2026-03-22T10:54:02Z</time></trkpt><trkpt lat="43.5370523964588" lon="11.374422957417469"><ele>744.0</ele><time>2026-03-22T10:54:04Z</time></trkpt><trkpt lat="43.53693792025751" lon="11.374390718896187"><ele>744.6</ele><time>2026-03-22T10:54:06Z</time></trkpt><trkpt lat="43.53692425238928" lon="11.374251791717816"><ele>745.2</ele><time>2026-03-22T10:54:08Z</time></trkpt><trkpt lat="43.5369095631249" lon="11.374145855386878"><ele>745.8000000000001</ele><time>2026-03-22T10:54:09Z</time></trkpt><trkpt lat="43.53689562341562" lon="11.374038316797417"><ele>746.4000000000001</ele><time>2026-03-22T10:54:10Z</time></trkpt><trkpt lat="43.53688797795769" lon="11.373945381236892"><ele>747.0</ele><time>2026-03-22T10:54:11Z</time></trkpt><trkpt lat="43.53686291772186" lon="11.373754523833194"><ele>747.0</ele><time>2026-03-22T10:54:13Z</time></trkpt><trkpt lat="43.53685046554978" lon="11.37365441022631"><ele>747.0</ele><time>2026-03-22T10:54:14Z</time></trkpt><trkpt lat="43.53679764977942" lon="11.373560659301038"><ele>747.0</ele><time>2026-03-22T10:54:16Z</time></trkpt><trkpt lat="43.536739499679584" lon="11.373501991542511"><ele>747.0</ele><time>2026-03-22T10:54:17Z</time></trkpt><trkpt lat="43.53665773446796" lon="11.3734569556861"><ele>747.0</ele><time>2026-03-22T10:54:18Z</time></trkpt><trkpt lat="43.536574552407764" lon="11.373426329573272"><ele>747.0</ele><time>2026-03-22T10:54:19Z</time></trkpt><trkpt lat="43.53650669318412" lon="11.373397371605678"><ele>747.0</ele><time>2026-03-22T10:54:20Z</time></trkpt><trkpt lat="43.536378654320245" lon="11.373377952985905"><ele>747.0</ele><time>2026-03-22T10:54:22Z</time></trkpt><trkpt lat="43.536312205473784" lon="11.373382525409001"><ele>747.0</ele><time>2026-03-22T10:54:23Z</time></trkpt><trkpt lat="43.536202983946055" lon="11.373449900267774"><ele>747.0</ele><time>2026-03-22T10:54:25Z</time></trkpt><trkpt lat="43.53611687085735" lon="11.373509061274367"><ele>747.0</ele><time>2026-03-22T10:54:27Z</time></trkpt><trkpt lat="43.536040423005446" lon="11.373468376763022"><ele>747.6</ele><time>2026-03-22T10:54:29Z</time></trkpt><trkpt lat="43.53602135725676" lon="11.37332896503287"><ele>748.2</ele><time>2026-03-22T10:54:31Z</time></trkpt><trkpt lat="43.53603267902325" lon="11.373139788844714"><ele>748.8</ele><time>2026-03-22T10:54:33Z</time></trkpt><trkpt lat="43.53604531000406" lon="11.37301368252729"><ele>749.4</ele><time>2026-03-22T10:54:34Z</time></trkpt><trkpt lat="43.53604330249773" lon="11.37291869737233"><ele>750.0</ele><time>2026-03-22T10:54:35Z</time></trkpt><trkpt lat="43.53598426121843" lon="11.372766589783511"><ele>750.0</ele><time>2026-03-22T10:54:37Z</time></trkpt><trkpt lat="43.53593682885038" lon="11.372674567228538"><ele>750.0</ele><time>2026-03-22T10:54:38Z</time></trkpt><trkpt lat="43.53587075546801" lon="11.37260152482365"><ele>750.0</ele><time>2026-03-22T10:54:39Z</time></trkpt><trkpt lat="43.53580197592752" lon="11.372535253257588"><ele>750.0</ele><time>2026-03-22T10:54:40Z</time></trkpt><trkpt lat="43.53572043612365" lon="11.372457284312773"><ele>750.0</ele><time>2026-03-22T10:54:40.999Z</time></trkpt><trkpt lat="43.5356516956037" lon="11.372368416606635"><ele>750.0</ele><time>2026-03-22T10:54:41.999Z</time></trkpt><trkpt lat="43.535577648044715" lon="11.372307172045259"><ele>750.0</ele><time>2026-03-22T10:54:42.999Z</time></trkpt><trkpt lat="43.5354981571498" lon="11.372264331300203"><ele>750.0</ele><time>2026-03-22T10:54:43.999Z</time></trkpt><trkpt lat="43.53540727358331" lon="11.372226940583388"><ele>750.0</ele><time>2026-03-22T10:54:44.999Z</time></trkpt><trkpt lat="43.535317658830074" lon="11.372179979434451"><ele>750.0</ele><time>2026-03-22T10:54:45.999Z</time></trkpt><trkpt lat="43.535245124416114" lon="11.372147834214006"><ele>750.0</ele><time>2026-03-22T10:54:46.999Z</time></trkpt><trkpt lat="43.53517523313431" lon="11.37213207104089"><ele>750.0</ele><time>2026-03-22T10:54:47.999Z</time></trkpt><trkpt lat="43.535109783078894" lon="11.37213732905158"><ele>750.0</ele><time>2026-03-22T10:54:48.999Z</time></trkpt><trkpt lat="43.535048274108114" lon="11.372168535797053"><ele>750.0</ele><time>2026-03-22T10:54:49.999Z</time></trkpt><trkpt lat="43.5349834720645" lon="11.37221071211798"><ele>750.0</ele><time>2026-03-22T10:54:50.999Z</time></trkpt><trkpt lat="43.53491500358428" lon="11.372265192258187"><ele>750.0</ele><time>2026-03-22T10:54:51.999Z</time></trkpt><trkpt lat="43.534827541896874" lon="11.372369040807103"><ele>750.0</ele><time>2026-03-22T10:54:53.999Z</time></trkpt><trkpt lat="43.53474168660566" lon="11.372393944353174"><ele>750.0</ele><time>2026-03-22T10:54:55.999Z</time></trkpt><trkpt lat="43.53469720503303" lon="11.372332267504293"><ele>750.0</ele><time>2026-03-22T10:54:56.999Z</time></trkpt><trkpt lat="43.53465166498716" lon="11.372271404829638"><ele>750.0</ele><time>2026-03-22T10:54:57.999Z</time></trkpt><trkpt lat="43.534593259273855" lon="11.372220803644245"><ele>750.0</ele><time>2026-03-22T10:54:58.999Z</time></trkpt><trkpt lat="43.53452185405501" lon="11.372183993607063"><ele>750.0</ele><time>2026-03-22T10:54:59.999Z</time></trkpt><trkpt lat="43.534436359625396" lon="11.372157854407565"><ele>750.0</ele><time>2026-03-22T10:55:00.999Z</time></trkpt><trkpt lat="43.534364249950585" lon="11.37213937680151"><ele>750.0</ele><time>2026-03-22T10:55:01.999Z</time></trkpt><trkpt lat="43.534291944635555" lon="11.372114968517064"><ele>750.0</ele><time>2026-03-22T10:55:02.999Z</time></trkpt><trkpt lat="43.53426525492294" lon="11.372028295155589"><ele>748.2</ele><time>2026-03-22T10:55:03.999Z</time></trkpt><trkpt lat="43.53424811672113" lon="11.371931367162146"><ele>746.4</ele><time>2026-03-22T10:55:04.999Z</time></trkpt><trkpt lat="43.534225599786396" lon="11.371845463414626"><ele>744.5999999999999</ele><time>2026-03-22T10:55:05.999Z</time></trkpt><trkpt lat="43.5341364839115" lon="11.371745830426928"><ele>742.8</ele><time>2026-03-22T10:55:06.999Z</time></trkpt><trkpt lat="43.534061641376894" lon="11.371642439044413"><ele>741.0</ele><time>2026-03-22T10:55:07.999Z</time></trkpt><trkpt lat="43.53397965271428" lon="11.371561104679595"><ele>741.0</ele><time>2026-03-22T10:55:08.999Z</time></trkpt><trkpt lat="43.533898036981476" lon="11.371490920819676"><ele>741.0</ele><time>2026-03-22T10:55:09.999Z</time></trkpt><trkpt lat="43.53381966719556" lon="11.371429226267397"><ele>741.0</ele><time>2026-03-22T10:55:10.999Z</time></trkpt><trkpt lat="43.53373787356381" lon="11.371379622787277"><ele>741.0</ele><time>2026-03-22T10:55:11.999Z</time></trkpt><trkpt lat="43.533668376942266" lon="11.371344074572194"><ele>741.0</ele><time>2026-03-22T10:55:12.999Z</time></trkpt><trkpt lat="43.53360236164385" lon="11.371344379377629"><ele>741.0</ele><time>2026-03-22T10:55:13.999Z</time></trkpt><trkpt lat="43.533539384798964" lon="11.371339536167525"><ele>740.0</ele><time>2026-03-22T10:55:14.999Z</time></trkpt><trkpt lat="43.53343446419501" lon="11.371239305762732"><ele>739.0</ele><time>2026-03-22T10:55:16.999Z</time></trkpt><trkpt lat="43.53337981685747" lon="11.371189408461447"><ele>738.0</ele><time>2026-03-22T10:55:17.999Z</time></trkpt><trkpt lat="43.53330666780291" lon="11.371135695020497"><ele>737.0</ele><time>2026-03-22T10:55:18.999Z</time></trkpt><trkpt lat="43.53321791575349" lon="11.371087283322622"><ele>736.0</ele><time>2026-03-22T10:55:19.999Z</time></trkpt><trkpt lat="43.53310839763782" lon="11.371035859308464"><ele>736.0</ele><time>2026-03-22T10:55:20.999Z</time></trkpt><trkpt lat="43.53302193137729" lon="11.370991932744245"><ele>736.0</ele><time>2026-03-22T10:55:21.999Z</time></trkpt><trkpt lat="43.53293157561397" lon="11.370928022363506"><ele>736.0</ele><time>2026-03-22T10:55:22.999Z</time></trkpt><trkpt lat="43.532849504304245" lon="11.370862776353173"><ele>736.0</ele><time>2026-03-22T10:55:23.999Z</time></trkpt><trkpt lat="43.532770916457515" lon="11.37079222868476"><ele>736.0</ele><time>2026-03-22T10:55:24.999Z</time></trkpt><trkpt lat="43.53270062297834" lon="11.370729135811958"><ele>735.0</ele><time>2026-03-22T10:55:25.999Z</time></trkpt><trkpt lat="43.532630073542656" lon="11.370660332411447"><ele>734.0</ele><time>2026-03-22T10:55:26.999Z</time></trkpt><trkpt lat="43.532570308708316" lon="11.370591993316332"><ele>733.0</ele><time>2026-03-22T10:55:27.999Z</time></trkpt><trkpt lat="43.53251421356523" lon="11.370513048441147"><ele>732.0</ele><time>2026-03-22T10:55:28.999Z</time></trkpt><trkpt lat="43.53245908457804" lon="11.370433910497237"><ele>731.0</ele><time>2026-03-22T10:55:29.999Z</time></trkpt><trkpt lat="43.53238102129048" lon="11.370358041212372"><ele>730.0</ele><time>2026-03-22T10:55:30.999Z</time></trkpt><trkpt lat="43.53229973692748" lon="11.370297285033077"><ele>730.0</ele><time>2026-03-22T10:55:31.999Z</time></trkpt><trkpt lat="43.53221206740174" lon="11.370234210660618"><ele>730.0</ele><time>2026-03-22T10:55:32.999Z</time></trkpt><trkpt lat="43.53213819694642" lon="11.370175051496386"><ele>730.0</ele><time>2026-03-22T10:55:33.999Z</time></trkpt><trkpt lat="43.53208647433124" lon="11.370112688631666"><ele>730.0</ele><time>2026-03-22T10:55:34.999Z</time></trkpt><trkpt lat="43.53205179082938" lon="11.370006144833132"><ele>730.0</ele><time>2026-03-22T10:55:36.999Z</time></trkpt><trkpt lat="43.53202508943313" lon="11.369899295479911"><ele>730.0</ele><time>2026-03-22T10:56:20Z</time></trkpt><trkpt lat="43.53200116797893" lon="11.369817369465848"><ele>726.4</ele><time>2026-03-22T10:56:21Z</time></trkpt><trkpt lat="43.531963818862714" lon="11.369680389333295"><ele>722.8</ele><time>2026-03-22T10:56:23Z</time></trkpt><trkpt lat="43.53191915855131" lon="11.369595325283969"><ele>719.2</ele><time>2026-03-22T10:56:25Z</time></trkpt><trkpt lat="43.53185388484495" lon="11.369464047493178"><ele>715.6</ele><time>2026-03-22T10:56:27Z</time></trkpt><trkpt lat="43.53177755218348" lon="11.369340085694162"><ele>712.0</ele><time>2026-03-22T10:56:29Z</time></trkpt><trkpt lat="43.53170555578159" lon="11.369244031840632"><ele>712.0</ele><time>2026-03-22T10:56:31Z</time></trkpt><trkpt lat="43.5316588899739" lon="11.36917784392959"><ele>712.0</ele><time>2026-03-22T10:56:32Z</time></trkpt><trkpt lat="43.5315605532436" lon="11.369086484466463"><ele>712.0</ele><time>2026-03-22T10:56:34Z</time></trkpt><trkpt lat="43.531450115665166" lon="11.36905388097222"><ele>712.0</ele><time>2026-03-22T10:56:36Z</time></trkpt><trkpt lat="43.53136717504427" lon="11.369071124053493"><ele>712.0</ele><time>2026-03-22T10:56:38Z</time></trkpt><trkpt lat="43.53131311501492" lon="11.369160325252187"><ele>712.0</ele><time>2026-03-22T10:56:40Z</time></trkpt><trkpt lat="43.53127200891955" lon="11.369312664017112"><ele>712.0</ele><time>2026-03-22T10:56:42Z</time></trkpt><trkpt lat="43.53121528312178" lon="11.369407043380553"><ele>712.0</ele><time>2026-03-22T10:56:43Z</time></trkpt><trkpt lat="43.53115974478745" lon="11.369483001406904"><ele>712.0</ele><time>2026-03-22T10:56:44Z</time></trkpt><trkpt lat="43.53111017884184" lon="11.369551997284033"><ele>712.0</ele><time>2026-03-22T10:56:45Z</time></trkpt><trkpt lat="43.53106542701807" lon="11.369630085790007"><ele>712.0</ele><time>2026-03-22T10:56:45.999Z</time></trkpt><trkpt lat="43.531031581846676" lon="11.369730162688882"><ele>712.6666666666667</ele><time>2026-03-22T10:56:46.999Z</time></trkpt><trkpt lat="43.53100404428538" lon="11.36983375990636"><ele>713.3333333333334</ele><time>2026-03-22T10:56:47.999Z</time></trkpt><trkpt lat="43.530966783040924" lon="11.36994759878085"><ele>714.0</ele><time>2026-03-22T10:56:49.999Z</time></trkpt><trkpt lat="43.53090586978111" lon="11.369983322761428"><ele>714.6666666666666</ele><time>2026-03-22T10:56:50.999Z</time></trkpt><trkpt lat="43.530787339181956" lon="11.369933832113864"><ele>715.3333333333333</ele><time>2026-03-22T10:56:52.999Z</time></trkpt><trkpt lat="43.530712340319695" lon="11.369869873997187"><ele>716.0</ele><time>2026-03-22T10:56:53.999Z</time></trkpt><trkpt lat="43.53060447853326" lon="11.369808205745244"><ele>716.0</ele><time>2026-03-22T10:56:54.999Z</time></trkpt><trkpt lat="43.530479724943675" lon="11.36975507726692"><ele>716.0</ele><time>2026-03-22T10:56:55.999Z</time></trkpt><trkpt lat="43.5303794548067" lon="11.369730104791051"><ele>716.0</ele><time>2026-03-22T10:56:56.999Z</time></trkpt><trkpt lat="43.53031381867371" lon="11.36968032458294"><ele>716.0</ele><time>2026-03-22T10:56:57.999Z</time></trkpt><trkpt lat="43.53025753564076" lon="11.369591916498944"><ele>716.0</ele><time>2026-03-22T10:56:58.999Z</time></trkpt><trkpt lat="43.53019270393665" lon="11.369478740941668"><ele>717.6666666666666</ele><time>2026-03-22T10:56:59.999Z</time></trkpt><trkpt lat="43.53012275567342" lon="11.36938326140759"><ele>719.3333333333333</ele><time>2026-03-22T10:57:00.999Z</time></trkpt><trkpt lat="43.53005105524806" lon="11.369300095414953"><ele>721.0</ele><time>2026-03-22T10:57:01.999Z</time></trkpt><trkpt lat="43.52996675923823" lon="11.36922769778729"><ele>722.6666666666666</ele><time>2026-03-22T10:57:02.999Z</time></trkpt><trkpt lat="43.529907553314054" lon="11.369155016076197"><ele>724.3333333333334</ele><time>2026-03-22T10:57:03.999Z</time></trkpt><trkpt lat="43.52988722272073" lon="11.369062275536505"><ele>726.0</ele><time>2026-03-22T10:57:04.999Z</time></trkpt><trkpt lat="43.529877532416116" lon="11.368938772811077"><ele>724.1999999999999</ele><time>2026-03-22T10:57:05.999Z</time></trkpt><trkpt lat="43.52984730805661" lon="11.368809051830576"><ele>722.4</ele><time>2026-03-22T10:57:06.999Z</time></trkpt><trkpt lat="43.52981478259502" lon="11.368700563081655"><ele>720.6</ele><time>2026-03-22T10:57:07.999Z</time></trkpt><trkpt lat="43.529774208842184" lon="11.368581308580946"><ele>718.8</ele><time>2026-03-22T10:57:08.999Z</time></trkpt><trkpt lat="43.529716722297756" lon="11.368466011444847"><ele>717.0</ele><time>2026-03-22T10:57:09.999Z</time></trkpt><trkpt lat="43.52965124715402" lon="11.368360025097111"><ele>717.0</ele><time>2026-03-22T10:57:10.999Z</time></trkpt><trkpt lat="43.52957851189303" lon="11.368256261529636"><ele>717.0</ele><time>2026-03-22T10:57:11.999Z</time></trkpt><trkpt lat="43.52948825831479" lon="11.368141402156095"><ele>717.0</ele><time>2026-03-22T10:57:12.999Z</time></trkpt><trkpt lat="43.52939697905612" lon="11.368032803962988"><ele>717.0</ele><time>2026-03-22T10:57:13.999Z</time></trkpt><trkpt lat="43.52933003915509" lon="11.367939527144992"><ele>717.0</ele><time>2026-03-22T10:57:14.999Z</time></trkpt><trkpt lat="43.529273397365095" lon="11.367860281109708"><ele>717.6</ele><time>2026-03-22T10:57:15.999Z</time></trkpt><trkpt lat="43.52921646068689" lon="11.367790480770752"><ele>718.2</ele><time>2026-03-22T10:57:16.999Z</time></trkpt><trkpt lat="43.529144537919386" lon="11.367703805445743"><ele>718.8</ele><time>2026-03-22T10:57:17.999Z</time></trkpt><trkpt lat="43.52905235467357" lon="11.367628752644643"><ele>719.4</ele><time>2026-03-22T10:57:18.999Z</time></trkpt><trkpt lat="43.52896079688789" lon="11.367574612141903"><ele>720.0</ele><time>2026-03-22T10:57:19.999Z</time></trkpt><trkpt lat="43.528876111420175" lon="11.367541108346947"><ele>720.0</ele><time>2026-03-22T10:57:20.999Z</time></trkpt><trkpt lat="43.528801767693764" lon="11.367519927113342"><ele>720.0</ele><time>2026-03-22T10:57:21.999Z</time></trkpt><trkpt lat="43.5287330080914" lon="11.367517055405797"><ele>720.0</ele><time>2026-03-22T10:57:22.999Z</time></trkpt><trkpt lat="43.52866780128106" lon="11.367552393640256"><ele>720.0</ele><time>2026-03-22T10:57:23.999Z</time></trkpt><trkpt lat="43.5285880260522" lon="11.367636809928307"><ele>720.0</ele><time>2026-03-22T10:57:24.999Z</time></trkpt><trkpt lat="43.528518053467344" lon="11.367723868335997"><ele>720.0</ele><time>2026-03-22T10:57:25.999Z</time></trkpt><trkpt lat="43.52845059222985" lon="11.367785072541324"><ele>720.0</ele><time>2026-03-22T10:57:26.999Z</time></trkpt><trkpt lat="43.52837720380667" lon="11.367817289535402"><ele>720.0</ele><time>2026-03-22T10:57:27.999Z</time></trkpt><trkpt lat="43.52829467654069" lon="11.367814534064413"><ele>720.0</ele><time>2026-03-22T10:57:28.999Z</time></trkpt><trkpt lat="43.52821217297953" lon="11.367788472934857"><ele>720.0</ele><time>2026-03-22T10:57:29.999Z</time></trkpt><trkpt lat="43.528122401223975" lon="11.367750809380926"><ele>720.0</ele><time>2026-03-22T10:57:30.999Z</time></trkpt><trkpt lat="43.528000143482764" lon="11.367694838419824"><ele>720.0</ele><time>2026-03-22T10:57:31.999Z</time></trkpt><trkpt lat="43.527891282617695" lon="11.367638181844761"><ele>720.0</ele><time>2026-03-22T10:57:32.999Z</time></trkpt><trkpt lat="43.52782370342553" lon="11.367587458534025"><ele>720.0</ele><time>2026-03-22T10:57:33.999Z</time></trkpt><trkpt lat="43.5277843170775" lon="11.367667247950745"><ele>720.0</ele><time>2026-03-22T10:57:37.999Z</time></trkpt><trkpt lat="43.52784232634663" lon="11.367729725935115"><ele>720.0</ele><time>2026-03-22T10:58:11Z</time></trkpt><trkpt lat="43.52788512207159" lon="11.367813180891167"><ele>720.0</ele><time>2026-03-22T10:58:12Z</time></trkpt><trkpt lat="43.52793791147051" lon="11.367921444016362"><ele>721.6666666666666</ele><time>2026-03-22T10:58:13Z</time></trkpt><trkpt lat="43.52799314189061" lon="11.368032645300204"><ele>723.3333333333334</ele><time>2026-03-22T10:58:14Z</time></trkpt><trkpt lat="43.5280311423546" lon="11.368142439287778"><ele>725.0</ele><time>2026-03-22T10:58:15Z</time></trkpt><trkpt lat="43.528071990773256" lon="11.368239812001857"><ele>726.6666666666667</ele><time>2026-03-22T10:58:16Z</time></trkpt><trkpt lat="43.52813364228115" lon="11.368310889065617"><ele>728.3333333333334</ele><time>2026-03-22T10:58:17Z</time></trkpt><trkpt lat="43.52818741946312" lon="11.368381386599141"><ele>730.0</ele><time>2026-03-22T10:58:18Z</time></trkpt><trkpt lat="43.52824396713399" lon="11.368452918125586"><ele>730.0</ele><time>2026-03-22T10:58:19Z</time></trkpt><trkpt lat="43.52831201689329" lon="11.36850210362311"><ele>730.0</ele><time>2026-03-22T10:58:20Z</time></trkpt><trkpt lat="43.52839016604195" lon="11.368531079287777"><ele>730.0</ele><time>2026-03-22T10:58:21Z</time></trkpt><trkpt lat="43.528458208098066" lon="11.368606802572371"><ele>730.0</ele><time>2026-03-22T10:58:22Z</time></trkpt><trkpt lat="43.52851093121544" lon="11.368701278923925"><ele>730.0</ele><time>2026-03-22T10:58:23Z</time></trkpt><trkpt lat="43.52857504287631" lon="11.368812354309455"><ele>730.0</ele><time>2026-03-22T10:58:24Z</time></trkpt><trkpt lat="43.528636043087914" lon="11.368910633416013"><ele>731.1666666666667</ele><time>2026-03-22T10:58:25Z</time></trkpt><trkpt lat="43.52867067419813" lon="11.368997033216992"><ele>732.3333333333334</ele><time>2026-03-22T10:58:26Z</time></trkpt><trkpt lat="43.528712179719655" lon="11.369066271944263"><ele>733.5</ele><time>2026-03-22T10:58:27Z</time></trkpt><trkpt lat="43.528776589356134" lon="11.369122898125754"><ele>734.6666666666666</ele><time>2026-03-22T10:58:28Z</time></trkpt><trkpt lat="43.52883362543116" lon="11.369207223564727"><ele>735.8333333333333</ele><time>2026-03-22T10:58:29Z</time></trkpt><trkpt lat="43.52884894611531" lon="11.369326497125869"><ele>737.0</ele><time>2026-03-22T10:58:30Z</time></trkpt><trkpt lat="43.52885252115504" lon="11.369448430034144"><ele>738.2</ele><time>2026-03-22T10:58:31Z</time></trkpt><trkpt lat="43.528882457926805" lon="11.369569151512273"><ele>739.4000000000001</ele><time>2026-03-22T10:58:32Z</time></trkpt><trkpt lat="43.52895053234567" lon="11.369699361274144"><ele>740.5999999999999</ele><time>2026-03-22T10:58:33Z</time></trkpt><trkpt lat="43.528998319018434" lon="11.369834509296478"><ele>741.8</ele><time>2026-03-22T10:58:34Z</time></trkpt><trkpt lat="43.52903812366166" lon="11.36995417715381"><ele>743.0</ele><time>2026-03-22T10:58:35Z</time></trkpt><trkpt lat="43.52908003071579" lon="11.370053966331993"><ele>744.8</ele><time>2026-03-22T10:58:36Z</time></trkpt><trkpt lat="43.52913216543824" lon="11.370158076528272"><ele>746.5999999999999</ele><time>2026-03-22T10:58:37Z</time></trkpt><trkpt lat="43.52919455939426" lon="11.370238716841367"><ele>748.4000000000001</ele><time>2026-03-22T10:58:38Z</time></trkpt><trkpt lat="43.52924362960369" lon="11.370359728897919"><ele>750.2</ele><time>2026-03-22T10:58:39Z</time></trkpt><trkpt lat="43.52926737759763" lon="11.370477426434887"><ele>752.0</ele><time>2026-03-22T10:58:40Z</time></trkpt><trkpt lat="43.5292784803846" lon="11.37062583697498"><ele>753.2</ele><time>2026-03-22T10:58:41Z</time></trkpt><trkpt lat="43.52928204389471" lon="11.370756512702716"><ele>754.4000000000001</ele><time>2026-03-22T10:58:42Z</time></trkpt><trkpt lat="43.52929329160686" lon="11.370871212073649"><ele>755.5999999999999</ele><time>2026-03-22T10:58:43Z</time></trkpt><trkpt lat="43.52931011642477" lon="11.3709961138603"><ele>756.8</ele><time>2026-03-22T10:58:44Z</time></trkpt><trkpt lat="43.52933077781093" lon="11.371112300895504"><ele>758.0</ele><time>2026-03-22T10:58:45Z</time></trkpt><trkpt lat="43.529360469916426" lon="11.37123445567576"><ele>759.0</ele><time>2026-03-22T10:58:46Z</time></trkpt><trkpt lat="43.52940486601566" lon="11.37136942061918"><ele>760.0</ele><time>2026-03-22T10:58:47Z</time></trkpt><trkpt lat="43.52943500178637" lon="11.37151738443412"><ele>761.0</ele><time>2026-03-22T10:58:48Z</time></trkpt><trkpt lat="43.529458460196864" lon="11.371649711146178"><ele>762.0</ele><time>2026-03-22T10:58:49Z</time></trkpt><trkpt lat="43.52947547411953" lon="11.371777616406462"><ele>763.0</ele><time>2026-03-22T10:58:50Z</time></trkpt><trkpt lat="43.5294901163659" lon="11.371887273681157"><ele>763.0</ele><time>2026-03-22T10:58:51Z</time></trkpt><trkpt lat="43.529509211419615" lon="11.372015977562548"><ele>763.0</ele><time>2026-03-22T10:58:52Z</time></trkpt><trkpt lat="43.529534718679884" lon="11.372160935075124"><ele>763.0</ele><time>2026-03-22T10:58:53Z</time></trkpt><trkpt lat="43.52955926508251" lon="11.37230861254227"><ele>763.0</ele><time>2026-03-22T10:58:54Z</time></trkpt><trkpt lat="43.52958638775369" lon="11.372437130929077"><ele>763.0</ele><time>2026-03-22T10:58:54.999Z</time></trkpt><trkpt lat="43.52963629147479" lon="11.372558781838954"><ele>764.5</ele><time>2026-03-22T10:58:55.999Z</time></trkpt><trkpt lat="43.52968690426912" lon="11.372669570799843"><ele>766.0</ele><time>2026-03-22T10:58:56.999Z</time></trkpt><trkpt lat="43.529737984992074" lon="11.372772439516629"><ele>767.5</ele><time>2026-03-22T10:58:57.999Z</time></trkpt><trkpt lat="43.52979137245034" lon="11.372861868546421"><ele>769.0</ele><time>2026-03-22T10:58:58.999Z</time></trkpt><trkpt lat="43.52985104403504" lon="11.372949903419357"><ele>770.4999999999999</ele><time>2026-03-22T10:58:59.999Z</time></trkpt><trkpt lat="43.52991103125152" lon="11.373043796578267"><ele>772.0</ele><time>2026-03-22T10:59:00.999Z</time></trkpt><trkpt lat="43.529979214612666" lon="11.373103181421065"><ele>773.0</ele><time>2026-03-22T10:59:01.999Z</time></trkpt><trkpt lat="43.530056321872145" lon="11.373145092502197"><ele>774.0</ele><time>2026-03-22T10:59:02.999Z</time></trkpt><trkpt lat="43.53013450732999" lon="11.373195716749382"><ele>775.0</ele><time>2026-03-22T10:59:03.999Z</time></trkpt><trkpt lat="43.530222185225945" lon="11.37325724722012"><ele>776.0</ele><time>2026-03-22T10:59:04.999Z</time></trkpt><trkpt lat="43.53031064131558" lon="11.373312532102286"><ele>777.0</ele><time>2026-03-22T10:59:05.999Z</time></trkpt><trkpt lat="43.530397641327426" lon="11.373356926383861"><ele>777.0</ele><time>2026-03-22T10:59:06.999Z</time></trkpt><trkpt lat="43.53046626745165" lon="11.373415661730716"><ele>777.0</ele><time>2026-03-22T10:59:07.999Z</time></trkpt><trkpt lat="43.53051351417761" lon="11.373513561826755"><ele>777.0</ele><time>2026-03-22T10:59:08.999Z</time></trkpt><trkpt lat="43.53055664050335" lon="11.37364076304184"><ele>777.0</ele><time>2026-03-22T10:59:09.999Z</time></trkpt><trkpt lat="43.530590121669675" lon="11.373756433668913"><ele>777.0</ele><time>2026-03-22T10:59:10.999Z</time></trkpt><trkpt lat="43.530607519397414" lon="11.373859750709123"><ele>777.0</ele><time>2026-03-22T10:59:11.999Z</time></trkpt><trkpt lat="43.53063719910368" lon="11.37399092657778"><ele>779.2</ele><time>2026-03-22T10:59:12.999Z</time></trkpt><trkpt lat="43.53067564020607" lon="11.37410666083871"><ele>781.4000000000001</ele><time>2026-03-22T10:59:13.999Z</time></trkpt><trkpt lat="43.53072098312246" lon="11.374211114992663"><ele>783.5999999999999</ele><time>2026-03-22T10:59:14.999Z</time></trkpt><trkpt lat="43.53078366847059" lon="11.374349837690698"><ele>785.8</ele><time>2026-03-22T10:59:16.999Z</time></trkpt><trkpt lat="43.53079999022626" lon="11.37446838047879"><ele>788.0</ele><time>2026-03-22T10:59:17.999Z</time></trkpt><trkpt lat="43.53080363789459" lon="11.37458922641212"><ele>789.8</ele><time>2026-03-22T10:59:18.999Z</time></trkpt><trkpt lat="43.53080418601104" lon="11.374708984458918"><ele>791.5999999999999</ele><time>2026-03-22T10:59:19.999Z</time></trkpt><trkpt lat="43.53081976586685" lon="11.374830715610178"><ele>793.4000000000001</ele><time>2026-03-22T10:59:20.999Z</time></trkpt><trkpt lat="43.53083578827574" lon="11.37492405158613"><ele>795.2</ele><time>2026-03-22T10:59:21.999Z</time></trkpt><trkpt lat="43.53085911856374" lon="11.375098949432946"><ele>797.0</ele><time>2026-03-22T10:59:23.999Z</time></trkpt><trkpt lat="43.53087273251146" lon="11.37523230699993"><ele>797.0000000000001</ele><time>2026-03-22T10:59:24.999Z</time></trkpt><trkpt lat="43.53087679576641" lon="11.375357583020936"><ele>797.0</ele><time>2026-03-22T10:59:25.999Z</time></trkpt><trkpt lat="43.530846558412826" lon="11.375473817766993"><ele>797.0</ele><time>2026-03-22T10:59:26.999Z</time></trkpt><trkpt lat="43.53082565349856" lon="11.375580852786413"><ele>797.0</ele><time>2026-03-22T10:59:27.999Z</time></trkpt><trkpt lat="43.530812663889314" lon="11.37569976029054"><ele>797.0000000000001</ele><time>2026-03-22T10:59:28.999Z</time></trkpt><trkpt lat="43.53082601199" lon="11.375832739508457"><ele>797.0</ele><time>2026-03-22T10:59:29.999Z</time></trkpt><trkpt lat="43.5308617833798" lon="11.375932992505222"><ele>798.6</ele><time>2026-03-22T10:59:30.999Z</time></trkpt><trkpt lat="43.53087106604185" lon="11.376040264279645"><ele>800.2</ele><time>2026-03-22T10:59:31.999Z</time></trkpt><trkpt lat="43.53086864934916" lon="11.37617143630524"><ele>801.8</ele><time>2026-03-22T10:59:32.999Z</time></trkpt><trkpt lat="43.530892865742935" lon="11.376331474119269"><ele>803.4</ele><time>2026-03-22T10:59:33.999Z</time></trkpt><trkpt lat="43.53094458877757" lon="11.376474387455152"><ele>805.0</ele><time>2026-03-22T10:59:34.999Z</time></trkpt><trkpt lat="43.53100018248062" lon="11.376608282250997"><ele>806.6</ele><time>2026-03-22T10:59:35.999Z</time></trkpt><trkpt lat="43.53104834068067" lon="11.376725292544938"><ele>808.2</ele><time>2026-03-22T10:59:36.999Z</time></trkpt><trkpt lat="43.531095903092506" lon="11.376854885757675"><ele>809.8</ele><time>2026-03-22T10:59:37.999Z</time></trkpt><trkpt lat="43.531152344957256" lon="11.376999995829884"><ele>811.4</ele><time>2026-03-22T10:59:38.999Z</time></trkpt><trkpt lat="43.53121939089141" lon="11.377130847153671"><ele>813.0</ele><time>2026-03-22T10:59:39.999Z</time></trkpt><trkpt lat="43.53128494490032" lon="11.37724471093355"><ele>813.2</ele><time>2026-03-22T10:59:40.999Z</time></trkpt><trkpt lat="43.531349777609144" lon="11.37736814981653"><ele>813.4</ele><time>2026-03-22T10:59:41.999Z</time></trkpt><trkpt lat="43.53141853212226" lon="11.377491172749464"><ele>813.6</ele><time>2026-03-22T10:59:42.999Z</time></trkpt><trkpt lat="43.53148667802874" lon="11.37759707603984"><ele>813.8000000000001</ele><time>2026-03-22T10:59:43.999Z</time></trkpt><trkpt lat="43.53155514242047" lon="11.377690221232703"><ele>814.0</ele><time>2026-03-22T10:59:44.999Z</time></trkpt><trkpt lat="43.53162785002807" lon="11.377779213045772"><ele>813.9999999999999</ele><time>2026-03-22T10:59:45.999Z</time></trkpt><trkpt lat="43.53170769416009" lon="11.377862392533954"><ele>814.0</ele><time>2026-03-22T10:59:46.999Z</time></trkpt><trkpt lat="43.53179338863214" lon="11.37795453761901"><ele>814.0</ele><time>2026-03-22T10:59:47.999Z</time></trkpt><trkpt lat="43.53184793478586" lon="11.378037388516251"><ele>814.0</ele><time>2026-03-22T10:59:48.999Z</time></trkpt><trkpt lat="43.531878102398345" lon="11.378123225918552"><ele>813.9999999999999</ele><time>2026-03-22T10:59:49.999Z</time></trkpt><trkpt lat="43.531909187295575" lon="11.378205297959314"><ele>814.0</ele><time>2026-03-22T10:59:50.999Z</time></trkpt><trkpt lat="43.53198719168805" lon="11.378363107360748"><ele>815.3333333333333</ele><time>2026-03-22T10:59:52.999Z</time></trkpt><trkpt lat="43.53203845752969" lon="11.37846276320639"><ele>816.6666666666666</ele><time>2026-03-22T10:59:53.999Z</time></trkpt><trkpt lat="43.532084402933016" lon="11.378547949815594"><ele>818.0</ele><time>2026-03-22T10:59:54.999Z</time></trkpt><trkpt lat="43.53213582296745" lon="11.378648304715425"><ele>819.3333333333333</ele><time>2026-03-22T10:59:55.999Z</time></trkpt><trkpt lat="43.5321819415258" lon="11.378728509332767"><ele>820.6666666666666</ele><time>2026-03-22T10:59:56.999Z</time></trkpt><trkpt lat="43.532239433480186" lon="11.378832357955895"><ele>822.0</ele><time>2026-03-22T10:59:58.999Z</time></trkpt><trkpt lat="43.532263194613094" lon="11.378966498582933"><ele>822.3333333333334</ele><time>2026-03-22T11:00:00.999Z</time></trkpt><trkpt lat="43.532288653481636" lon="11.379090128169485"><ele>822.6666666666667</ele><time>2026-03-22T11:00:02.999Z</time></trkpt><trkpt lat="43.53226470371446" lon="11.379000648217726"><ele>823.0</ele><time>2026-03-22T11:00:43Z</time></trkpt><trkpt lat="43.53224493513939" lon="11.378888927652836"><ele>823.3333333333334</ele><time>2026-03-22T11:00:46Z</time></trkpt><trkpt lat="43.53226708579734" lon="11.378791205660075"><ele>823.6666666666667</ele><time>2026-03-22T11:00:49Z</time></trkpt><trkpt lat="43.53234991777487" lon="11.378775884502206"><ele>824.0</ele><time>2026-03-22T11:00:51Z</time></trkpt><trkpt lat="43.53247829367446" lon="11.378813097160196"><ele>826.0000000000001</ele><time>2026-03-22T11:00:53Z</time></trkpt><trkpt lat="43.53253696501287" lon="11.378858062798205"><ele>828.0</ele><time>2026-03-22T11:00:54Z</time></trkpt><trkpt lat="43.532619237870705" lon="11.378893469787425"><ele>830.0</ele><time>2026-03-22T11:00:55Z</time></trkpt><trkpt lat="43.532688231885736" lon="11.378915683427357"><ele>832.0</ele><time>2026-03-22T11:00:56Z</time></trkpt><trkpt lat="43.53281463839739" lon="11.378919323022787"><ele>834.0000000000001</ele><time>2026-03-22T11:00:57.999Z</time></trkpt><trkpt lat="43.53288845406249" lon="11.378917866545729"><ele>836.0</ele><time>2026-03-22T11:00:58.999Z</time></trkpt><trkpt lat="43.53297677076702" lon="11.378911491989841"><ele>836.0</ele><time>2026-03-22T11:00:59.999Z</time></trkpt><trkpt lat="43.53305366078108" lon="11.378902987292276"><ele>836.0</ele><time>2026-03-22T11:01:00.999Z</time></trkpt><trkpt lat="43.53317560380545" lon="11.378886266926784"><ele>836.0</ele><time>2026-03-22T11:01:02.999Z</time></trkpt><trkpt lat="43.53324045730693" lon="11.37885123528997"><ele>836.0</ele><time>2026-03-22T11:01:03.999Z</time></trkpt><trkpt lat="43.5333189673104" lon="11.378800417688018"><ele>836.0</ele><time>2026-03-22T11:01:04.999Z</time></trkpt><trkpt lat="43.533407057584995" lon="11.378739281299715"><ele>836.0</ele><time>2026-03-22T11:01:05.999Z</time></trkpt><trkpt lat="43.53347883894893" lon="11.378674832572676"><ele>836.0</ele><time>2026-03-22T11:01:06.999Z</time></trkpt><trkpt lat="43.53355780121158" lon="11.37858632516514"><ele>836.0</ele><time>2026-03-22T11:01:07.999Z</time></trkpt><trkpt lat="43.53363062607256" lon="11.378514197131093"><ele>836.0</ele><time>2026-03-22T11:01:08.999Z</time></trkpt><trkpt lat="43.53370182159999" lon="11.37844086036912"><ele>836.0</ele><time>2026-03-22T11:01:09.999Z</time></trkpt><trkpt lat="43.53377071405816" lon="11.378357325543716"><ele>836.0000000000001</ele><time>2026-03-22T11:01:10.999Z</time></trkpt><trkpt lat="43.53383780888132" lon="11.378274341012252"><ele>836.0</ele><time>2026-03-22T11:01:11.999Z</time></trkpt><trkpt lat="43.533897340208014" lon="11.378185351605316"><ele>836.0</ele><time>2026-03-22T11:01:12.999Z</time></trkpt><trkpt lat="43.533961681919536" lon="11.378160817355312"><ele>836.0</ele><time>2026-03-22T11:01:13.999Z</time></trkpt><trkpt lat="43.53402683160808" lon="11.37817687706984"><ele>836.0000000000001</ele><time>2026-03-22T11:01:14.999Z</time></trkpt><trkpt lat="43.53412143711886" lon="11.37819821566792"><ele>836.0</ele><time>2026-03-22T11:01:15.999Z</time></trkpt><trkpt lat="43.53421383543494" lon="11.378230961482023"><ele>836.0000000000001</ele><time>2026-03-22T11:01:16.999Z</time></trkpt><trkpt lat="43.53431686597392" lon="11.378227540000601"><ele>836.0</ele><time>2026-03-22T11:01:18.999Z</time></trkpt><trkpt lat="43.53437962462143" lon="11.378209293279287"><ele>836.0</ele><time>2026-03-22T11:01:19.999Z</time></trkpt><trkpt lat="43.534450179381466" lon="11.378175384686369"><ele>836.0</ele><time>2026-03-22T11:01:20.999Z</time></trkpt><trkpt lat="43.534511098129464" lon="11.378145109951625"><ele>836.0000000000001</ele><time>2026-03-22T11:01:24.999Z</time></trkpt><trkpt lat="43.53459687884494" lon="11.378261957223986"><ele>836.0</ele><time>2026-03-22T11:01:41.999Z</time></trkpt><trkpt lat="43.53464956786936" lon="11.378388278632688"><ele>835.6666666666667</ele><time>2026-03-22T11:01:42.999Z</time></trkpt><trkpt lat="43.53469225021304" lon="11.378499488916633"><ele>835.3333333333334</ele><time>2026-03-22T11:01:43.999Z</time></trkpt><trkpt lat="43.53472965257615" lon="11.378593010572315"><ele>835.0</ele><time>2026-03-22T11:01:44.999Z</time></trkpt><trkpt lat="43.53477408840003" lon="11.378674838239617"><ele>834.6666666666667</ele><time>2026-03-22T11:01:45.999Z</time></trkpt><trkpt lat="43.534819110173856" lon="11.378754208946708"><ele>834.3333333333334</ele><time>2026-03-22T11:01:46.999Z</time></trkpt><trkpt lat="43.53486755319525" lon="11.378832310173314"><ele>834.0</ele><time>2026-03-22T11:01:47.999Z</time></trkpt><trkpt lat="43.53490516686865" lon="11.378948981977196"><ele>832.6666666666666</ele><time>2026-03-22T11:01:48.999Z</time></trkpt><trkpt lat="43.534945411563996" lon="11.379065838662349"><ele>831.3333333333333</ele><time>2026-03-22T11:01:49.999Z</time></trkpt><trkpt lat="43.534989075416405" lon="11.379179394662565"><ele>830.0</ele><time>2026-03-22T11:01:50.999Z</time></trkpt><trkpt lat="43.53502886638687" lon="11.379289392697423"><ele>828.6666666666666</ele><time>2026-03-22T11:01:51.999Z</time></trkpt><trkpt lat="43.53506600794298" lon="11.379400963665933"><ele>827.3333333333333</ele><time>2026-03-22T11:01:52.999Z</time></trkpt><trkpt lat="43.535105499849834" lon="11.379501417418641"><ele>826.0</ele><time>2026-03-22T11:01:53.999Z</time></trkpt><trkpt lat="43.53514751547523" lon="11.379600162048552"><ele>824.1999999999999</ele><time>2026-03-22T11:01:54.999Z</time></trkpt><trkpt lat="43.53523429576014" lon="11.37969160011926"><ele>822.4</ele><time>2026-03-22T11:01:56.999Z</time></trkpt><trkpt lat="43.53535707428751" lon="11.379696886165558"><ele>820.6</ele><time>2026-03-22T11:01:58.999Z</time></trkpt><trkpt lat="43.53543603922169" lon="11.379709778778597"><ele>818.8</ele><time>2026-03-22T11:01:59.999Z</time></trkpt><trkpt lat="43.53555186250649" lon="11.379738324457081"><ele>817.0</ele><time>2026-03-22T11:02:01.999Z</time></trkpt><trkpt lat="43.53562237438543" lon="11.379735884256291"><ele>816.6666666666666</ele><time>2026-03-22T11:02:03.999Z</time></trkpt><trkpt lat="43.535722891237825" lon="11.379707272969354"><ele>816.3333333333333</ele><time>2026-03-22T11:02:05.999Z</time></trkpt><trkpt lat="43.53579520226232" lon="11.379655853407286"><ele>816.0</ele><time>2026-03-22T11:02:07.999Z</time></trkpt><trkpt lat="43.535848793843655" lon="11.37957766582099"><ele>815.6666666666667</ele><time>2026-03-22T11:02:09.999Z</time></trkpt><trkpt lat="43.53594337137297" lon="11.379499494324197"><ele>815.3333333333334</ele><time>2026-03-22T11:02:12Z</time></trkpt><trkpt lat="43.536005498653374" lon="11.379437272553208"><ele>815.0</ele><time>2026-03-22T11:02:14Z</time></trkpt><trkpt lat="43.536079977987235" lon="11.379387763394083"><ele>815.0000000000001</ele><time>2026-03-22T11:02:17Z</time></trkpt><trkpt lat="43.536147719889094" lon="11.379345947233743"><ele>815.0</ele><time>2026-03-22T11:02:21Z</time></trkpt><trkpt lat="43.5361951186307" lon="11.379208976105119"><ele>815.0</ele><time>2026-03-22T11:02:24Z</time></trkpt><trkpt lat="43.53623572894498" lon="11.379098008258621"><ele>815.0</ele><time>2026-03-22T11:02:26Z</time></trkpt><trkpt lat="43.536281048392304" lon="11.379017924350196"><ele>815.0000000000001</ele><time>2026-03-22T11:02:28Z</time></trkpt><trkpt lat="43.53633365336675" lon="11.378967301780694"><ele>815.0</ele><time>2026-03-22T11:02:32Z</time></trkpt><trkpt lat="43.536369847672844" lon="11.378871756197006"><ele>810.7142857142857</ele><time>2026-03-22T11:02:43Z</time></trkpt><trkpt lat="43.53638206374467" lon="11.378779032679924"><ele>806.4285714285713</ele><time>2026-03-22T11:02:46Z</time></trkpt><trkpt lat="43.53639456765091" lon="11.37867384248894"><ele>802.1428571428571</ele><time>2026-03-22T11:02:58Z</time></trkpt><trkpt lat="43.53640756182368" lon="11.378585550802022"><ele>797.8571428571429</ele><time>2026-03-22T11:03:00Z</time></trkpt><trkpt lat="43.53646530038355" lon="11.378548626862354"><ele>793.5714285714286</ele><time>2026-03-22T11:03:04.999Z</time></trkpt><trkpt lat="43.536465667048155" lon="11.378652936310722"><ele>789.2857142857143</ele><time>2026-03-22T11:03:29.999Z</time></trkpt><trkpt lat="43.53646345796197" lon="11.378761321957363"><ele>785.0</ele><time>2026-03-22T11:03:32.999Z</time></trkpt><trkpt lat="43.53641220817642" lon="11.378845359392983"><ele>786.0</ele><time>2026-03-22T11:03:35.999Z</time></trkpt><trkpt lat="43.536376360850255" lon="11.378926712076403"><ele>787.0</ele><time>2026-03-22T11:03:37.999Z</time></trkpt><trkpt lat="43.5363377428654" lon="11.379015899729023"><ele>788.0</ele><time>2026-03-22T11:03:39.999Z</time></trkpt><trkpt lat="43.53629473855564" lon="11.379111188703463"><ele>789.0</ele><time>2026-03-22T11:03:41.999Z</time></trkpt><trkpt lat="43.53618617689816" lon="11.379326964880534"><ele>790.0</ele><time>2026-03-22T11:03:43.999Z</time></trkpt><trkpt lat="43.53614943773252" lon="11.379406281044375"><ele>794.2</ele><time>2026-03-22T11:03:44.999Z</time></trkpt><trkpt lat="43.536064283165246" lon="11.379519353518118"><ele>798.4</ele><time>2026-03-22T11:03:46.999Z</time></trkpt><trkpt lat="43.535992985118575" lon="11.379551385585877"><ele>802.5999999999999</ele><time>2026-03-22T11:03:47.999Z</time></trkpt><trkpt lat="43.53592689777443" lon="11.379625828638021"><ele>806.8</ele><time>2026-03-22T11:03:48.999Z</time></trkpt><trkpt lat="43.535844788195526" lon="11.379704130825447"><ele>811.0</ele><time>2026-03-22T11:03:49.999Z</time></trkpt><trkpt lat="43.53577199229049" lon="11.379752950101533"><ele>811.0</ele><time>2026-03-22T11:03:50.999Z</time></trkpt><trkpt lat="43.535712984046945" lon="11.379789215925507"><ele>811.0</ele><time>2026-03-22T11:03:51.999Z</time></trkpt><trkpt lat="43.53558241188018" lon="11.379817715725478"><ele>811.0</ele><time>2026-03-22T11:03:53.999Z</time></trkpt><trkpt lat="43.53545439271565" lon="11.379786476869718"><ele>811.0</ele><time>2026-03-22T11:03:55.999Z</time></trkpt><trkpt lat="43.5353897606374" lon="11.379770503964435"><ele>811.0</ele><time>2026-03-22T11:03:56.999Z</time></trkpt><trkpt lat="43.535308143511166" lon="11.37975483107605"><ele>811.9999999999999</ele><time>2026-03-22T11:03:58.999Z</time></trkpt><trkpt lat="43.53524516587547" lon="11.379719110867862"><ele>813.0</ele><time>2026-03-22T11:04:25Z</time></trkpt><trkpt lat="43.53515142188323" lon="11.379669369757737"><ele>814.0</ele><time>2026-03-22T11:04:27Z</time></trkpt><trkpt lat="43.53510982917523" lon="11.379539570076345"><ele>815.0</ele><time>2026-03-22T11:04:29Z</time></trkpt><trkpt lat="43.535081784344264" lon="11.379451702600184"><ele>815.9999999999999</ele><time>2026-03-22T11:04:30Z</time></trkpt><trkpt lat="43.535055417220995" lon="11.379370877262357"><ele>817.0</ele><time>2026-03-22T11:04:31Z</time></trkpt><trkpt lat="43.53500078828641" lon="11.379230457883782"><ele>818.8</ele><time>2026-03-22T11:04:33Z</time></trkpt><trkpt lat="43.534966540164426" lon="11.379131694513257"><ele>820.6</ele><time>2026-03-22T11:04:34Z</time></trkpt><trkpt lat="43.53492133534262" lon="11.379023235939064"><ele>822.4</ele><time>2026-03-22T11:04:35Z</time></trkpt><trkpt lat="43.534871415143556" lon="11.378899980030127"><ele>824.1999999999999</ele><time>2026-03-22T11:04:36Z</time></trkpt><trkpt lat="43.5348240918193" lon="11.37878692587437"><ele>826.0</ele><time>2026-03-22T11:04:37Z</time></trkpt><trkpt lat="43.53477329875944" lon="11.378686270358417"><ele>827.3333333333333</ele><time>2026-03-22T11:04:38Z</time></trkpt><trkpt lat="43.534725006038734" lon="11.378595411479866"><ele>828.6666666666666</ele><time>2026-03-22T11:04:39Z</time></trkpt><trkpt lat="43.534678850270886" lon="11.378495263298813"><ele>830.0</ele><time>2026-03-22T11:04:40Z</time></trkpt><trkpt lat="43.534634490012444" lon="11.37838804943175"><ele>831.3333333333333</ele><time>2026-03-22T11:04:41Z</time></trkpt><trkpt lat="43.534593627224965" lon="11.378276204902424"><ele>832.6666666666666</ele><time>2026-03-22T11:04:42Z</time></trkpt><trkpt lat="43.53453922396331" lon="11.378175112813521"><ele>834.0</ele><time>2026-03-22T11:04:44Z</time></trkpt><trkpt lat="43.53441769393237" lon="11.378233986163067"><ele>834.3333333333334</ele><time>2026-03-22T11:04:52Z</time></trkpt><trkpt lat="43.53430770485" lon="11.37826630298731"><ele>834.6666666666667</ele><time>2026-03-22T11:04:53Z</time></trkpt><trkpt lat="43.534230772419605" lon="11.37827821518132"><ele>835.0</ele><time>2026-03-22T11:04:54Z</time></trkpt><trkpt lat="43.53415846767296" lon="11.378277257432707"><ele>835.3333333333334</ele><time>2026-03-22T11:04:55Z</time></trkpt><trkpt lat="43.53408438901638" lon="11.378265075905805"><ele>835.6666666666667</ele><time>2026-03-22T11:04:56Z</time></trkpt><trkpt lat="43.53399844264268" lon="11.378254217305539"><ele>836.0</ele><time>2026-03-22T11:04:57Z</time></trkpt><trkpt lat="43.53392497835175" lon="11.37824707826814"><ele>836.0</ele><time>2026-03-22T11:04:58Z</time></trkpt><trkpt lat="43.53380223919559" lon="11.378306167710011"><ele>836.0</ele><time>2026-03-22T11:05:00Z</time></trkpt><trkpt lat="43.5337425807847" lon="11.37838662276609"><ele>836.0</ele><time>2026-03-22T11:05:01Z</time></trkpt><trkpt lat="43.53366745327921" lon="11.378490948350768"><ele>836.0</ele><time>2026-03-22T11:05:02Z</time></trkpt><trkpt lat="43.53359418420032" lon="11.37857927397389"><ele>836.0</ele><time>2026-03-22T11:05:03Z</time></trkpt><trkpt lat="43.533514284164646" lon="11.378646879253798"><ele>836.0</ele><time>2026-03-22T11:05:04Z</time></trkpt><trkpt lat="43.53343790717832" lon="11.378711521539145"><ele>836.0</ele><time>2026-03-22T11:05:05Z</time></trkpt><trkpt lat="43.53336210323104" lon="11.378774633772222"><ele>836.0</ele><time>2026-03-22T11:05:06Z</time></trkpt><trkpt lat="43.53328198634672" lon="11.378824967820972"><ele>836.0</ele><time>2026-03-22T11:05:07Z</time></trkpt><trkpt lat="43.533198375166485" lon="11.37885973068508"><ele>836.0</ele><time>2026-03-22T11:05:08Z</time></trkpt><trkpt lat="43.53310466993214" lon="11.37889642992231"><ele>836.0000000000001</ele><time>2026-03-22T11:05:09Z</time></trkpt><trkpt lat="43.53302726893877" lon="11.378915355819538"><ele>836.0</ele><time>2026-03-22T11:05:10Z</time></trkpt><trkpt lat="43.532945068340155" lon="11.378911495986054"><ele>836.0</ele><time>2026-03-22T11:05:10.999Z</time></trkpt><trkpt lat="43.53285744999093" lon="11.378909584360875"><ele>836.0</ele><time>2026-03-22T11:05:11.999Z</time></trkpt><trkpt lat="43.532773097330875" lon="11.378908208281992"><ele>836.0000000000001</ele><time>2026-03-22T11:05:12.999Z</time></trkpt><trkpt lat="43.53270516106029" lon="11.378914048924011"><ele>836.0</ele><time>2026-03-22T11:05:13.999Z</time></trkpt><trkpt lat="43.53256707873166" lon="11.378886589438611"><ele>836.0000000000001</ele><time>2026-03-22T11:05:15.999Z</time></trkpt><trkpt lat="43.532484274815964" lon="11.378847679491248"><ele>836.0</ele><time>2026-03-22T11:05:16.999Z</time></trkpt><trkpt lat="43.53241298284049" lon="11.378808613553096"><ele>836.0</ele><time>2026-03-22T11:05:17.999Z</time></trkpt><trkpt lat="43.532347816866114" lon="11.37878781577581"><ele>836.0</ele><time>2026-03-22T11:05:18.999Z</time></trkpt><trkpt lat="43.53225506615632" lon="11.378812798343485"><ele>836.0000000000001</ele><time>2026-03-22T11:05:20.999Z</time></trkpt><trkpt lat="43.5322457715142" lon="11.37890539529404"><ele>836.0</ele><time>2026-03-22T11:05:22.999Z</time></trkpt><trkpt lat="43.53230367677787" lon="11.379005328257286"><ele>836.0000000000001</ele><time>2026-03-22T11:05:24.999Z</time></trkpt><trkpt lat="43.53233240260683" lon="11.3791455525487"><ele>836.0</ele><time>2026-03-22T11:05:26.999Z</time></trkpt><trkpt lat="43.53237058386719" lon="11.379217008427219"><ele>836.0</ele><time>2026-03-22T11:05:28.999Z</time></trkpt><trkpt lat="43.53242907622302" lon="11.379350258799"><ele>836.0</ele><time>2026-03-22T11:05:30.999Z</time></trkpt><trkpt lat="43.53246816548137" lon="11.379435919900965"><ele>836.0000000000001</ele><time>2026-03-22T11:05:31.999Z</time></trkpt><trkpt lat="43.53248585877041" lon="11.379527501609358"><ele>836.0</ele><time>2026-03-22T11:05:32.999Z</time></trkpt><trkpt lat="43.532490674002574" lon="11.379635580136767"><ele>836.4</ele><time>2026-03-22T11:05:33.999Z</time></trkpt><trkpt lat="43.532496871024904" lon="11.37976766331662"><ele>836.8</ele><time>2026-03-22T11:05:34.999Z</time></trkpt><trkpt lat="43.5324997977632" lon="11.379873343188892"><ele>837.1999999999999</ele><time>2026-03-22T11:05:35.999Z</time></trkpt><trkpt lat="43.532509664044426" lon="11.37998106403288"><ele>837.5999999999999</ele><time>2026-03-22T11:05:36.999Z</time></trkpt><trkpt lat="43.53251868561407" lon="11.380087269463536"><ele>838.0</ele><time>2026-03-22T11:05:37.999Z</time></trkpt><trkpt lat="43.53251913996772" lon="11.380285240178177"><ele>837.9999999999999</ele><time>2026-03-22T11:05:39.999Z</time></trkpt><trkpt lat="43.53252246629272" lon="11.380403348690095"><ele>838.0</ele><time>2026-03-22T11:05:40.999Z</time></trkpt><trkpt lat="43.532529531246844" lon="11.380534031946564"><ele>838.0</ele><time>2026-03-22T11:05:41.999Z</time></trkpt><trkpt lat="43.53253583232481" lon="11.380638658709003"><ele>838.0</ele><time>2026-03-22T11:05:42.999Z</time></trkpt><trkpt lat="43.53256692472594" lon="11.380763613509021"><ele>837.9999999999999</ele><time>2026-03-22T11:05:44.999Z</time></trkpt><trkpt lat="43.532569418015214" lon="11.38085964671511"><ele>838.0</ele><time>2026-03-22T11:05:45.999Z</time></trkpt><trkpt lat="43.532554077464624" lon="11.380957681647654"><ele>837.9999999999999</ele><time>2026-03-22T11:05:46.999Z</time></trkpt><trkpt lat="43.53248163206834" lon="11.381100121246778"><ele>838.0</ele><time>2026-03-22T11:05:48.999Z</time></trkpt><trkpt lat="43.53245456574064" lon="11.381192462641376"><ele>838.0</ele><time>2026-03-22T11:05:49.999Z</time></trkpt><trkpt lat="43.53244558374278" lon="11.381283114753941"><ele>838.0</ele><time>2026-03-22T11:05:50.999Z</time></trkpt><trkpt lat="43.5324397647189" lon="11.381373063761954"><ele>837.9999999999999</ele><time>2026-03-22T11:05:51.999Z</time></trkpt><trkpt lat="43.53244351088408" lon="11.381532625483638"><ele>838.0</ele><time>2026-03-22T11:05:53.999Z</time></trkpt><trkpt lat="43.53251258640656" lon="11.381692046943966"><ele>837.9999999999999</ele><time>2026-03-22T11:05:55.999Z</time></trkpt><trkpt lat="43.53255107752406" lon="11.381780670403918"><ele>838.0</ele><time>2026-03-22T11:05:56.999Z</time></trkpt><trkpt lat="43.53258652632727" lon="11.381882128206053"><ele>838.0</ele><time>2026-03-22T11:05:57.999Z</time></trkpt><trkpt lat="43.53260889002715" lon="11.381970648509029"><ele>838.0</ele><time>2026-03-22T11:05:58.999Z</time></trkpt><trkpt lat="43.53266371587812" lon="11.382109911165513"><ele>837.9999999999999</ele><time>2026-03-22T11:06:00.999Z</time></trkpt><trkpt lat="43.53272471055" lon="11.382154780079496"><ele>838.0</ele><time>2026-03-22T11:06:01.999Z</time></trkpt><trkpt lat="43.53278829696252" lon="11.38217029247207"><ele>837.9999999999999</ele><time>2026-03-22T11:06:02.999Z</time></trkpt><trkpt lat="43.53288551279762" lon="11.382211542602182"><ele>838.0</ele><time>2026-03-22T11:06:04.999Z</time></trkpt><trkpt lat="43.532985760743905" lon="11.382277861483747"><ele>838.0</ele><time>2026-03-22T11:06:06.999Z</time></trkpt><trkpt lat="43.5330653533514" lon="11.382333805691843"><ele>838.0</ele><time>2026-03-22T11:06:07.999Z</time></trkpt><trkpt lat="43.53313195079858" lon="11.38238521899773"><ele>837.9999999999999</ele><time>2026-03-22T11:06:08.999Z</time></trkpt><trkpt lat="43.53318426386296" lon="11.382444954129504"><ele>838.0</ele><time>2026-03-22T11:06:09.999Z</time></trkpt><trkpt lat="43.53323839572134" lon="11.38250722602911"><ele>837.3333333333333</ele><time>2026-03-22T11:06:10.999Z</time></trkpt><trkpt lat="43.53329865109072" lon="11.382546790477342"><ele>836.6666666666666</ele><time>2026-03-22T11:06:11.999Z</time></trkpt><trkpt lat="43.53337532936083" lon="11.382586257435857"><ele>836.0</ele><time>2026-03-22T11:06:12.999Z</time></trkpt><trkpt lat="43.53345334504134" lon="11.382615866210147"><ele>835.3333333333333</ele><time>2026-03-22T11:06:13.999Z</time></trkpt><trkpt lat="43.533533669397784" lon="11.382624729485961"><ele>834.6666666666666</ele><time>2026-03-22T11:06:14.999Z</time></trkpt><trkpt lat="43.53363467750285" lon="11.382654448717576"><ele>834.0</ele><time>2026-03-22T11:06:15.999Z</time></trkpt><trkpt lat="43.533740827620896" lon="11.382665091599174"><ele>831.0</ele><time>2026-03-22T11:06:16.999Z</time></trkpt><trkpt lat="43.533850552357045" lon="11.382660182618556"><ele>828.0</ele><time>2026-03-22T11:06:17.999Z</time></trkpt><trkpt lat="43.53394254113484" lon="11.382655428190073"><ele>825.0</ele><time>2026-03-22T11:06:18.999Z</time></trkpt><trkpt lat="43.534034336850986" lon="11.382661399819165"><ele>822.0</ele><time>2026-03-22T11:06:19.999Z</time></trkpt><trkpt lat="43.5341371282173" lon="11.382680909796749"><ele>819.0</ele><time>2026-03-22T11:06:20.999Z</time></trkpt><trkpt lat="43.5342440101402" lon="11.38269404054571"><ele>819.0</ele><time>2026-03-22T11:06:21.999Z</time></trkpt><trkpt lat="43.534336641029405" lon="11.382719966501867"><ele>819.0</ele><time>2026-03-22T11:06:23Z</time></trkpt><trkpt lat="43.53443257458355" lon="11.382764081300945"><ele>819.0</ele><time>2026-03-22T11:06:24Z</time></trkpt><trkpt lat="43.534502109028914" lon="11.382829714302268"><ele>819.0</ele><time>2026-03-22T11:06:25Z</time></trkpt><trkpt lat="43.53458413950835" lon="11.382898812062077"><ele>819.0</ele><time>2026-03-22T11:06:26Z</time></trkpt><trkpt lat="43.53465205189792" lon="11.382929362222232"><ele>819.0</ele><time>2026-03-22T11:06:27Z</time></trkpt><trkpt lat="43.53474039784836" lon="11.38296976919977"><ele>818.8333333333334</ele><time>2026-03-22T11:06:29Z</time></trkpt><trkpt lat="43.53485022374758" lon="11.383068396483194"><ele>818.6666666666667</ele><time>2026-03-22T11:06:31Z</time></trkpt><trkpt lat="43.53493811733638" lon="11.383085252904221"><ele>818.5</ele><time>2026-03-22T11:06:32Z</time></trkpt><trkpt lat="43.53500800317053" lon="11.383073247053206"><ele>818.3333333333334</ele><time>2026-03-22T11:06:33Z</time></trkpt><trkpt lat="43.535068255631" lon="11.383016412215516"><ele>818.1666666666667</ele><time>2026-03-22T11:06:34Z</time></trkpt><trkpt lat="43.53513880546884" lon="11.382950381526447"><ele>818.0</ele><time>2026-03-22T11:06:35Z</time></trkpt><trkpt lat="43.53521880118169" lon="11.382893290107006"><ele>818.0000000000001</ele><time>2026-03-22T11:06:36Z</time></trkpt><trkpt lat="43.53528643557648" lon="11.382847393324655"><ele>818.0</ele><time>2026-03-22T11:06:37Z</time></trkpt><trkpt lat="43.535344970329774" lon="11.382810275698915"><ele>818.0</ele><time>2026-03-22T11:06:38Z</time></trkpt><trkpt lat="43.535404343634056" lon="11.382729178754774"><ele>818.0</ele><time>2026-03-22T11:06:40Z</time></trkpt><trkpt lat="43.53551106645682" lon="11.382667727043422"><ele>818.0000000000001</ele><time>2026-03-22T11:06:43Z</time></trkpt><trkpt lat="43.53557138867653" lon="11.382619930283012"><ele>818.0</ele><time>2026-03-22T11:06:44Z</time></trkpt><trkpt lat="43.535688843297514" lon="11.382657151328086"><ele>818.0</ele><time>2026-03-22T11:06:46Z</time></trkpt><trkpt lat="43.53579010171211" lon="11.382638399238209"><ele>818.0</ele><time>2026-03-22T11:06:48Z</time></trkpt><trkpt lat="43.5358980554344" lon="11.38264743876894"><ele>818.0</ele><time>2026-03-22T11:06:50Z</time></trkpt><trkpt lat="43.53599662434554" lon="11.382658829514867"><ele>818.0</ele><time>2026-03-22T11:06:52Z</time></trkpt><trkpt lat="43.53611880947783" lon="11.38270627300974"><ele>818.0</ele><time>2026-03-22T11:06:54Z</time></trkpt><trkpt lat="43.53620403525505" lon="11.382746740977618"><ele>817.6666666666667</ele><time>2026-03-22T11:06:55Z</time></trkpt><trkpt lat="43.5362830533871" lon="11.382799190733763"><ele>817.3333333333334</ele><time>2026-03-22T11:06:56Z</time></trkpt><trkpt lat="43.536365389492765" lon="11.382850696010133"><ele>817.0</ele><time>2026-03-22T11:06:57Z</time></trkpt><trkpt lat="43.536447020517286" lon="11.382892586859956"><ele>816.6666666666667</ele><time>2026-03-22T11:06:58Z</time></trkpt><trkpt lat="43.53653847312981" lon="11.382927198840068"><ele>816.3333333333334</ele><time>2026-03-22T11:06:59Z</time></trkpt><trkpt lat="43.53662253600007" lon="11.38295215889004"><ele>816.0</ele><time>2026-03-22T11:07:00Z</time></trkpt><trkpt lat="43.536709581897384" lon="11.382993106157484"><ele>817.0</ele><time>2026-03-22T11:07:01Z</time></trkpt><trkpt lat="43.536794914245945" lon="11.38305051464658"><ele>818.0</ele><time>2026-03-22T11:07:02Z</time></trkpt><trkpt lat="43.536870194602805" lon="11.383118930199354"><ele>819.0</ele><time>2026-03-22T11:07:03Z</time></trkpt><trkpt lat="43.536931133762614" lon="11.383191331099717"><ele>820.0</ele><time>2026-03-22T11:07:04Z</time></trkpt><trkpt lat="43.536994221257125" lon="11.38328082023595"><ele>821.0</ele><time>2026-03-22T11:07:05Z</time></trkpt><trkpt lat="43.53706327152483" lon="11.38333937072238"><ele>822.0</ele><time>2026-03-22T11:07:06Z</time></trkpt><trkpt lat="43.537127609355544" lon="11.383366715832818"><ele>822.0</ele><time>2026-03-22T11:07:07Z</time></trkpt><trkpt lat="43.53724526979998" lon="11.383331213234094"><ele>822.0</ele><time>2026-03-22T11:07:09Z</time></trkpt><trkpt lat="43.53731036489448" lon="11.383314300067802"><ele>822.0</ele><time>2026-03-22T11:07:10Z</time></trkpt><trkpt lat="43.53739122982495" lon="11.383291264890431"><ele>822.0</ele><time>2026-03-22T11:07:11Z</time></trkpt><trkpt lat="43.537480407503885" lon="11.383255094199875"><ele>822.0</ele><time>2026-03-22T11:07:12Z</time></trkpt><trkpt lat="43.53755315845203" lon="11.383223500683876"><ele>822.0</ele><time>2026-03-22T11:07:13Z</time></trkpt><trkpt lat="43.53763209478141" lon="11.383204454899497"><ele>822.0</ele><time>2026-03-22T11:07:14Z</time></trkpt><trkpt lat="43.53770555923999" lon="11.383167071315698"><ele>822.0</ele><time>2026-03-22T11:07:15Z</time></trkpt><trkpt lat="43.53778819679902" lon="11.383093954931379"><ele>822.0</ele><time>2026-03-22T11:07:16Z</time></trkpt><trkpt lat="43.53785999169789" lon="11.383031267347897"><ele>822.0</ele><time>2026-03-22T11:07:17Z</time></trkpt><trkpt lat="43.537916942390055" lon="11.38298727321539"><ele>822.0</ele><time>2026-03-22T11:07:18Z</time></trkpt><trkpt lat="43.53797716231113" lon="11.382908237622207"><ele>822.0</ele><time>2026-03-22T11:07:19.999Z</time></trkpt><trkpt lat="43.53798535167441" lon="11.38281690158648"><ele>822.5</ele><time>2026-03-22T11:07:48.999Z</time></trkpt><trkpt lat="43.5379938772777" lon="11.382720576129909"><ele>823.0</ele><time>2026-03-22T11:07:49.999Z</time></trkpt><trkpt lat="43.53801329649047" lon="11.382613905905455"><ele>823.5</ele><time>2026-03-22T11:07:50.999Z</time></trkpt><trkpt lat="43.53805562128608" lon="11.382539968786798"><ele>824.0</ele><time>2026-03-22T11:07:51.999Z</time></trkpt><trkpt lat="43.53813650336034" lon="11.382493571328945"><ele>824.5</ele><time>2026-03-22T11:07:53.999Z</time></trkpt><trkpt lat="43.53822941278999" lon="11.382440118071509"><ele>825.0</ele><time>2026-03-22T11:07:55.999Z</time></trkpt><trkpt lat="43.538309519892344" lon="11.382413468350057"><ele>825.0</ele><time>2026-03-22T11:07:56.999Z</time></trkpt><trkpt lat="43.5384027626492" lon="11.382365663993594"><ele>825.0</ele><time>2026-03-22T11:07:57.999Z</time></trkpt><trkpt lat="43.53851207976985" lon="11.38230800150184"><ele>825.0</ele><time>2026-03-22T11:07:58.999Z</time></trkpt><trkpt lat="43.538613996684774" lon="11.382243147653812"><ele>825.0</ele><time>2026-03-22T11:07:59.999Z</time></trkpt><trkpt lat="43.538698765263284" lon="11.382196200676118"><ele>825.0</ele><time>2026-03-22T11:08:00.999Z</time></trkpt><trkpt lat="43.5387871587373" lon="11.38217188122404"><ele>823.8</ele><time>2026-03-22T11:08:01.999Z</time></trkpt><trkpt lat="43.53886682678339" lon="11.382124829363764"><ele>822.6</ele><time>2026-03-22T11:08:02.999Z</time></trkpt><trkpt lat="43.53894823678364" lon="11.38205823561606"><ele>821.4000000000001</ele><time>2026-03-22T11:08:03.999Z</time></trkpt><trkpt lat="43.5390415776788" lon="11.381987950618827"><ele>820.2</ele><time>2026-03-22T11:08:04.999Z</time></trkpt><trkpt lat="43.53914000000953" lon="11.381900685563604"><ele>819.0</ele><time>2026-03-22T11:08:05.999Z</time></trkpt><trkpt lat="43.53925493993973" lon="11.381825823187743"><ele>819.0</ele><time>2026-03-22T11:08:06.999Z</time></trkpt><trkpt lat="43.53938611475137" lon="11.381778440456335"><ele>819.0</ele><time>2026-03-22T11:08:07.999Z</time></trkpt><trkpt lat="43.539495907299454" lon="11.381732093870708"><ele>819.0</ele><time>2026-03-22T11:08:08.999Z</time></trkpt><trkpt lat="43.53961233180273" lon="11.381689022136259"><ele>819.0</ele><time>2026-03-22T11:08:09.999Z</time></trkpt><trkpt lat="43.539745106642485" lon="11.38164405236956"><ele>818.8000000000001</ele><time>2026-03-22T11:08:10.999Z</time></trkpt><trkpt lat="43.53987722973772" lon="11.38159451384195"><ele>818.6</ele><time>2026-03-22T11:08:11.999Z</time></trkpt><trkpt lat="43.53999190127968" lon="11.38154825108434"><ele>818.4</ele><time>2026-03-22T11:08:12.999Z</time></trkpt><trkpt lat="43.54008239604713" lon="11.38151604942351"><ele>818.2</ele><time>2026-03-22T11:08:13.999Z</time></trkpt><trkpt lat="43.54017137995921" lon="11.381469244049125"><ele>818.0</ele><time>2026-03-22T11:08:14.999Z</time></trkpt><trkpt lat="43.540271574033" lon="11.381414700339612"><ele>818.0</ele><time>2026-03-22T11:08:15.999Z</time></trkpt><trkpt lat="43.54037287914468" lon="11.381359485488078"><ele>818.0</ele><time>2026-03-22T11:08:16.999Z</time></trkpt><trkpt lat="43.54046904145748" lon="11.381304097387662"><ele>818.0</ele><time>2026-03-22T11:08:17.999Z</time></trkpt><trkpt lat="43.54054692511118" lon="11.381265542766581"><ele>818.0</ele><time>2026-03-22T11:08:18.999Z</time></trkpt><trkpt lat="43.540626612911325" lon="11.381235614876394"><ele>818.0</ele><time>2026-03-22T11:08:19.999Z</time></trkpt><trkpt lat="43.54070095888494" lon="11.381219516363762"><ele>818.0000000000001</ele><time>2026-03-22T11:08:20.999Z</time></trkpt><trkpt lat="43.540754889833345" lon="11.381172345410523"><ele>818.0</ele><time>2026-03-22T11:08:21.999Z</time></trkpt><trkpt lat="43.54079848700009" lon="11.381105022388377"><ele>818.0</ele><time>2026-03-22T11:08:22.999Z</time></trkpt><trkpt lat="43.54084863082381" lon="11.381033936881257"><ele>818.0</ele><time>2026-03-22T11:08:23.999Z</time></trkpt><trkpt lat="43.54090841622895" lon="11.380974241325829"><ele>818.0000000000001</ele><time>2026-03-22T11:08:24.999Z</time></trkpt><trkpt lat="43.540974697230986" lon="11.380893947712108"><ele>818.0</ele><time>2026-03-22T11:08:25.999Z</time></trkpt><trkpt lat="43.54105347821358" lon="11.380806687584709"><ele>818.0</ele><time>2026-03-22T11:08:26.999Z</time></trkpt><trkpt lat="43.54113475565815" lon="11.380724715127425"><ele>818.0</ele><time>2026-03-22T11:08:27.999Z</time></trkpt><trkpt lat="43.54121306879128" lon="11.3806525541909"><ele>818.0</ele><time>2026-03-22T11:08:29Z</time></trkpt><trkpt lat="43.541285859971005" lon="11.380582552303727"><ele>818.0</ele><time>2026-03-22T11:08:30Z</time></trkpt><trkpt lat="43.54135239574527" lon="11.380493355650824"><ele>818.0</ele><time>2026-03-22T11:08:31Z</time></trkpt><trkpt lat="43.541424715346444" lon="11.38039682128917"><ele>819.5999999999999</ele><time>2026-03-22T11:08:32Z</time></trkpt><trkpt lat="43.541503990829085" lon="11.380313562940797"><ele>821.1999999999999</ele><time>2026-03-22T11:08:33Z</time></trkpt><trkpt lat="43.54158480519724" lon="11.380228543799992"><ele>822.8</ele><time>2026-03-22T11:08:34Z</time></trkpt><trkpt lat="43.5416713855656" lon="11.380143546233365"><ele>824.4</ele><time>2026-03-22T11:08:35Z</time></trkpt><trkpt lat="43.541751410933124" lon="11.380061719909849"><ele>826.0</ele><time>2026-03-22T11:08:36Z</time></trkpt><trkpt lat="43.54183347783875" lon="11.379992959378932"><ele>826.0</ele><time>2026-03-22T11:08:37Z</time></trkpt><trkpt lat="43.54193246934341" lon="11.379945376036453"><ele>826.0</ele><time>2026-03-22T11:08:38Z</time></trkpt><trkpt lat="43.54203897252137" lon="11.37992382140778"><ele>826.0</ele><time>2026-03-22T11:08:39Z</time></trkpt><trkpt lat="43.54213733551234" lon="11.379896929854128"><ele>826.0</ele><time>2026-03-22T11:08:40Z</time></trkpt><trkpt lat="43.54223069874728" lon="11.379857088859227"><ele>826.0</ele><time>2026-03-22T11:08:41Z</time></trkpt><trkpt lat="43.54230834961987" lon="11.379783754343771"><ele>827.8</ele><time>2026-03-22T11:08:42Z</time></trkpt><trkpt lat="43.54239369589313" lon="11.379717720468989"><ele>829.5999999999999</ele><time>2026-03-22T11:08:43Z</time></trkpt><trkpt lat="43.542478380406784" lon="11.379656918262407"><ele>831.4</ele><time>2026-03-22T11:08:44Z</time></trkpt><trkpt lat="43.54256631962127" lon="11.379601367609927"><ele>833.2</ele><time>2026-03-22T11:08:45Z</time></trkpt><trkpt lat="43.5426635876013" lon="11.379552383121448"><ele>835.0</ele><time>2026-03-22T11:08:46Z</time></trkpt><trkpt lat="43.54275955911712" lon="11.379514058590575"><ele>835.4</ele><time>2026-03-22T11:08:47Z</time></trkpt><trkpt lat="43.54284787332915" lon="11.379473839697937"><ele>835.8</ele><time>2026-03-22T11:08:48Z</time></trkpt><trkpt lat="43.542938573583506" lon="11.37943049029723"><ele>836.2</ele><time>2026-03-22T11:08:49Z</time></trkpt><trkpt lat="43.54303216159432" lon="11.379381002691588"><ele>836.6</ele><time>2026-03-22T11:08:50Z</time></trkpt><trkpt lat="43.54312540581375" lon="11.379329189786631"><ele>837.0</ele><time>2026-03-22T11:08:51Z</time></trkpt><trkpt lat="43.54320458627393" lon="11.37931116346714"><ele>837.0</ele><time>2026-03-22T11:08:52Z</time></trkpt><trkpt lat="43.543279086408916" lon="11.379306508486339"><ele>837.0</ele><time>2026-03-22T11:08:53Z</time></trkpt><trkpt lat="43.543358208238224" lon="11.379287330382363"><ele>837.0</ele><time>2026-03-22T11:08:54Z</time></trkpt><trkpt lat="43.54342914339101" lon="11.379236713924525"><ele>837.0</ele><time>2026-03-22T11:08:55Z</time></trkpt><trkpt lat="43.54350250162749" lon="11.379178561253132"><ele>837.0</ele><time>2026-03-22T11:08:56Z</time></trkpt><trkpt lat="43.543579843980055" lon="11.379126356153419"><ele>837.0</ele><time>2026-03-22T11:08:57Z</time></trkpt><trkpt lat="43.54365682576436" lon="11.379070458987107"><ele>837.3333333333334</ele><time>2026-03-22T11:08:58Z</time></trkpt><trkpt lat="43.54372781175691" lon="11.379018483429983"><ele>837.6666666666667</ele><time>2026-03-22T11:08:59Z</time></trkpt><trkpt lat="43.54379920071433" lon="11.378964199473632"><ele>838.0</ele><time>2026-03-22T11:09:00Z</time></trkpt><trkpt lat="43.54388780467822" lon="11.378904703226977"><ele>838.3333333333334</ele><time>2026-03-22T11:09:01Z</time></trkpt><trkpt lat="43.5439592105861" lon="11.378882335326045"><ele>838.6666666666667</ele><time>2026-03-22T11:09:02Z</time></trkpt><trkpt lat="43.54403866809774" lon="11.378872255255963"><ele>839.0</ele><time>2026-03-22T11:09:03Z</time></trkpt><trkpt lat="43.54412141099266" lon="11.378859285266815"><ele>839.0000000000001</ele><time>2026-03-22T11:09:04Z</time></trkpt><trkpt lat="43.544218151679885" lon="11.378864211809514"><ele>839.0</ele><time>2026-03-22T11:09:05Z</time></trkpt><trkpt lat="43.54430909004362" lon="11.37887970691144"><ele>839.0</ele><time>2026-03-22T11:09:06Z</time></trkpt><trkpt lat="43.54440470651693" lon="11.378892744838737"><ele>839.0</ele><time>2026-03-22T11:09:07Z</time></trkpt><trkpt lat="43.54446823287513" lon="11.378885768943233"><ele>839.0000000000001</ele><time>2026-03-22T11:09:08Z</time></trkpt><trkpt lat="43.54454262817827" lon="11.378872467892629"><ele>839.0</ele><time>2026-03-22T11:09:10Z</time></trkpt><trkpt lat="43.54461755133264" lon="11.378901291052362"><ele>838.1666666666667</ele><time>2026-03-22T11:09:13Z</time></trkpt><trkpt lat="43.54467062183204" lon="11.378986084611817"><ele>837.3333333333334</ele><time>2026-03-22T11:09:16Z</time></trkpt><trkpt lat="43.544717660252054" lon="11.379053914883311"><ele>836.5</ele><time>2026-03-22T11:09:20Z</time></trkpt><trkpt lat="43.5447669352184" lon="11.37911039476947"><ele>835.6666666666667</ele><time>2026-03-22T11:09:23Z</time></trkpt><trkpt lat="43.544821613210324" lon="11.379192339677338"><ele>834.8333333333334</ele><time>2026-03-22T11:09:31.999Z</time></trkpt><trkpt lat="43.54485137208564" lon="11.37928464724293"><ele>834.0</ele><time>2026-03-22T11:09:32.999Z</time></trkpt><trkpt lat="43.544892311416596" lon="11.379389996239947"><ele>834.0</ele><time>2026-03-22T11:09:33.999Z</time></trkpt><trkpt lat="43.54494873736637" lon="11.379474263719604"><ele>834.0</ele><time>2026-03-22T11:09:34.999Z</time></trkpt><trkpt lat="43.545012867583985" lon="11.379539462301686"><ele>834.0</ele><time>2026-03-22T11:09:35.999Z</time></trkpt><trkpt lat="43.545070887177296" lon="11.379619967862528"><ele>834.0</ele><time>2026-03-22T11:09:36.999Z</time></trkpt><trkpt lat="43.545114346805256" lon="11.379706884090101"><ele>834.0</ele><time>2026-03-22T11:09:37.999Z</time></trkpt><trkpt lat="43.54515666457196" lon="11.379813325026937"><ele>834.0</ele><time>2026-03-22T11:09:38.999Z</time></trkpt><trkpt lat="43.54519699546429" lon="11.379930046857158"><ele>834.6666666666666</ele><time>2026-03-22T11:09:39.999Z</time></trkpt><trkpt lat="43.54523562800853" lon="11.380002509641493"><ele>835.3333333333333</ele><time>2026-03-22T11:09:40.999Z</time></trkpt><trkpt lat="43.54533575314436" lon="11.380025445670505"><ele>836.0</ele><time>2026-03-22T11:09:42.999Z</time></trkpt><trkpt lat="43.54539521227623" lon="11.379988606683135"><ele>836.6666666666666</ele><time>2026-03-22T11:09:43.999Z</time></trkpt><trkpt lat="43.545507923721495" lon="11.379984577769571"><ele>837.3333333333333</ele><time>2026-03-22T11:09:45.999Z</time></trkpt><trkpt lat="43.54555508706964" lon="11.38004442899394"><ele>838.0</ele><time>2026-03-22T11:09:46.999Z</time></trkpt><trkpt lat="43.545613015506255" lon="11.380145435909974"><ele>838.0</ele><time>2026-03-22T11:09:48.999Z</time></trkpt><trkpt lat="43.54567222735013" lon="11.380259699546405"><ele>838.0</ele><time>2026-03-22T11:09:50.999Z</time></trkpt><trkpt lat="43.54574550532311" lon="11.380317967558831"><ele>838.0</ele><time>2026-03-22T11:09:51.999Z</time></trkpt><trkpt lat="43.54581775776046" lon="11.380408147114958"><ele>838.0</ele><time>2026-03-22T11:09:52.999Z</time></trkpt><trkpt lat="43.545892874175955" lon="11.380522381918093"><ele>838.0</ele><time>2026-03-22T11:09:53.999Z</time></trkpt><trkpt lat="43.545951827551995" lon="11.380627774491762"><ele>839.9999999999999</ele><time>2026-03-22T11:09:54.999Z</time></trkpt><trkpt lat="43.54602087931474" lon="11.3806866493851"><ele>842.0</ele><time>2026-03-22T11:09:56.999Z</time></trkpt><trkpt lat="43.54608252033462" lon="11.380752885570244"><ele>844.0</ele><time>2026-03-22T11:09:59.999Z</time></trkpt><trkpt lat="43.54613659156659" lon="11.380830771180488"><ele>846.0</ele><time>2026-03-22T11:10:01.999Z</time></trkpt><trkpt lat="43.5461925949197" lon="11.380932459230682"><ele>847.9999999999999</ele><time>2026-03-22T11:10:03.999Z</time></trkpt><trkpt lat="43.54625379921745" lon="11.380971624387978"><ele>850.0</ele><time>2026-03-22T11:10:04.999Z</time></trkpt><trkpt lat="43.54633006187585" lon="11.381004415457125"><ele>850.2</ele><time>2026-03-22T11:10:05.999Z</time></trkpt><trkpt lat="43.5464089920119" lon="11.381017586977057"><ele>850.4</ele><time>2026-03-22T11:10:06.999Z</time></trkpt><trkpt lat="43.54649224697786" lon="11.381034367474966"><ele>850.5999999999999</ele><time>2026-03-22T11:10:07.999Z</time></trkpt><trkpt lat="43.54656666819114" lon="11.3810558571427"><ele>850.8</ele><time>2026-03-22T11:10:08.999Z</time></trkpt><trkpt lat="43.5466651332155" lon="11.381087484488603"><ele>851.0</ele><time>2026-03-22T11:10:10.999Z</time></trkpt><trkpt lat="43.5467948766039" lon="11.381178445665382"><ele>851.0000000000001</ele><time>2026-03-22T11:10:12.999Z</time></trkpt><trkpt lat="43.54685977440201" lon="11.38122127297255"><ele>851.0</ele><time>2026-03-22T11:10:13.999Z</time></trkpt><trkpt lat="43.546921851386315" lon="11.38126212287457"><ele>851.0</ele><time>2026-03-22T11:10:14.999Z</time></trkpt><trkpt lat="43.547019948629426" lon="11.381365685451676"><ele>851.0</ele><time>2026-03-22T11:10:16.999Z</time></trkpt><trkpt lat="43.54709027331663" lon="11.381434200952384"><ele>851.0000000000001</ele><time>2026-03-22T11:10:17.999Z</time></trkpt><trkpt lat="43.547130312785775" lon="11.381519775468602"><ele>851.0</ele><time>2026-03-22T11:10:18.999Z</time></trkpt><trkpt lat="43.5471537870884" lon="11.381618719468406"><ele>851.5000000000001</ele><time>2026-03-22T11:10:19.999Z</time></trkpt><trkpt lat="43.5471783232215" lon="11.381706720616418"><ele>852.0</ele><time>2026-03-22T11:10:20.999Z</time></trkpt><trkpt lat="43.54723212771694" lon="11.381768630116929"><ele>852.5</ele><time>2026-03-22T11:10:21.999Z</time></trkpt><trkpt lat="43.54731843809122" lon="11.38181016045147"><ele>853.0</ele><time>2026-03-22T11:10:22.999Z</time></trkpt><trkpt lat="43.547387285525005" lon="11.38183307891355"><ele>853.5000000000001</ele><time>2026-03-22T11:10:23.999Z</time></trkpt><trkpt lat="43.54747026836702" lon="11.381893899067192"><ele>854.0</ele><time>2026-03-22T11:10:25.999Z</time></trkpt><trkpt lat="43.547542478284385" lon="11.381961983626766"><ele>854.0000000000001</ele><time>2026-03-22T11:10:27.999Z</time></trkpt><trkpt lat="43.54761446777766" lon="11.381965644706979"><ele>854.0</ele><time>2026-03-22T11:10:28.999Z</time></trkpt><trkpt lat="43.54769294507556" lon="11.3819915704365"><ele>854.0</ele><time>2026-03-22T11:10:29.999Z</time></trkpt><trkpt lat="43.54776616164041" lon="11.382021173005676"><ele>854.0</ele><time>2026-03-22T11:10:30.999Z</time></trkpt><trkpt lat="43.54784070605197" lon="11.38207080694502"><ele>854.0000000000001</ele><time>2026-03-22T11:10:31.999Z</time></trkpt><trkpt lat="43.54791478884279" lon="11.382145602687752"><ele>854.0</ele><time>2026-03-22T11:10:32.999Z</time></trkpt><trkpt lat="43.54797594832472" lon="11.382223920838534"><ele>854.0000000000001</ele><time>2026-03-22T11:10:33.999Z</time></trkpt><trkpt lat="43.548023281928316" lon="11.382311250368478"><ele>854.0</ele><time>2026-03-22T11:10:35Z</time></trkpt><trkpt lat="43.5480581041816" lon="11.382417474125653"><ele>854.0</ele><time>2026-03-22T11:10:36Z</time></trkpt><trkpt lat="43.54810250826613" lon="11.382533668158402"><ele>854.0</ele><time>2026-03-22T11:10:37Z</time></trkpt><trkpt lat="43.548157160271565" lon="11.382653191992564"><ele>854.0000000000001</ele><time>2026-03-22T11:10:38Z</time></trkpt><trkpt lat="43.548189215391346" lon="11.382729647480636"><ele>854.0</ele><time>2026-03-22T11:10:39Z</time></trkpt><trkpt lat="43.54817946430032" lon="11.382890449632734"><ele>854.0000000000001</ele><time>2026-03-22T11:10:41Z</time></trkpt><trkpt lat="43.548171190902174" lon="11.383008246099527"><ele>854.0</ele><time>2026-03-22T11:10:42Z</time></trkpt><trkpt lat="43.54818029689589" lon="11.383104692265256"><ele>854.0</ele><time>2026-03-22T11:10:43Z</time></trkpt><trkpt lat="43.548248435961675" lon="11.383246833806034"><ele>854.0</ele><time>2026-03-22T11:10:45Z</time></trkpt><trkpt lat="43.54827590887371" lon="11.383332516829064"><ele>854.0000000000001</ele><time>2026-03-22T11:10:46Z</time></trkpt><trkpt lat="43.548303997167935" lon="11.38341609945689"><ele>854.0</ele><time>2026-03-22T11:10:47Z</time></trkpt><trkpt lat="43.54834297509" lon="11.383492285356395"><ele>853.6</ele><time>2026-03-22T11:10:48Z</time></trkpt><trkpt lat="43.54839992318742" lon="11.383599235117615"><ele>853.2</ele><time>2026-03-22T11:10:50Z</time></trkpt><trkpt lat="43.54846927588641" lon="11.383670127353163"><ele>852.8000000000001</ele><time>2026-03-22T11:10:52Z</time></trkpt><trkpt lat="43.54855602419567" lon="11.383812144986342"><ele>852.4000000000001</ele><time>2026-03-22T11:10:54Z</time></trkpt><trkpt lat="43.54860212995447" lon="11.383885723386225"><ele>852.0</ele><time>2026-03-22T11:10:55Z</time></trkpt><trkpt lat="43.54866022964209" lon="11.38393627417438"><ele>850.1666666666666</ele><time>2026-03-22T11:10:56Z</time></trkpt><trkpt lat="43.54871308486412" lon="11.383989705015694"><ele>848.3333333333333</ele><time>2026-03-22T11:10:57Z</time></trkpt><trkpt lat="43.54875703390783" lon="11.384061706744623"><ele>846.5</ele><time>2026-03-22T11:10:58Z</time></trkpt><trkpt lat="43.54880363562526" lon="11.384134594420681"><ele>844.6666666666666</ele><time>2026-03-22T11:10:59Z</time></trkpt><trkpt lat="43.54884846281722" lon="11.384211885372581"><ele>842.8333333333333</ele><time>2026-03-22T11:11:00Z</time></trkpt><trkpt lat="43.54890109607237" lon="11.38431519953977"><ele>841.0</ele><time>2026-03-22T11:11:01Z</time></trkpt><trkpt lat="43.548965764829866" lon="11.384408655927679"><ele>841.0</ele><time>2026-03-22T11:11:02Z</time></trkpt><trkpt lat="43.549037795667196" lon="11.384499864954858"><ele>841.0</ele><time>2026-03-22T11:11:03Z</time></trkpt><trkpt lat="43.549109822333975" lon="11.384573788672052"><ele>841.0</ele><time>2026-03-22T11:11:04Z</time></trkpt><trkpt lat="43.549184301615455" lon="11.384663437869278"><ele>841.0</ele><time>2026-03-22T11:11:05Z</time></trkpt><trkpt lat="43.549249421843136" lon="11.384774439777269"><ele>841.0</ele><time>2026-03-22T11:11:06Z</time></trkpt><trkpt lat="43.549304896858395" lon="11.38489766777121"><ele>841.1999999999999</ele><time>2026-03-22T11:11:07Z</time></trkpt><trkpt lat="43.54935929453373" lon="11.385006144452365"><ele>841.4</ele><time>2026-03-22T11:11:08Z</time></trkpt><trkpt lat="43.54941765505166" lon="11.385106687715375"><ele>841.6</ele><time>2026-03-22T11:11:09Z</time></trkpt><trkpt lat="43.54947228989292" lon="11.385199656083707"><ele>841.8</ele><time>2026-03-22T11:11:10Z</time></trkpt><trkpt lat="43.549530390441376" lon="11.385299590643877"><ele>842.0</ele><time>2026-03-22T11:11:11Z</time></trkpt><trkpt lat="43.54958209395192" lon="11.385385618022605"><ele>843.8333333333334</ele><time>2026-03-22T11:11:12Z</time></trkpt><trkpt lat="43.54968537990151" lon="11.38548854271925"><ele>845.6666666666667</ele><time>2026-03-22T11:11:14Z</time></trkpt><trkpt lat="43.549758164968935" lon="11.385514708428282"><ele>847.5</ele><time>2026-03-22T11:11:15Z</time></trkpt><trkpt lat="43.54982788925262" lon="11.385525731162911"><ele>849.3333333333333</ele><time>2026-03-22T11:11:16Z</time></trkpt><trkpt lat="43.54990431213281" lon="11.385546182699978"><ele>851.1666666666666</ele><time>2026-03-22T11:11:17Z</time></trkpt><trkpt lat="43.54996582920627" lon="11.38560148881486"><ele>853.0</ele><time>2026-03-22T11:11:18Z</time></trkpt><trkpt lat="43.550025824981255" lon="11.385668408118086"><ele>854.4999999999999</ele><time>2026-03-22T11:11:19Z</time></trkpt><trkpt lat="43.55009084923409" lon="11.385757155044551"><ele>856.0</ele><time>2026-03-22T11:11:20Z</time></trkpt><trkpt lat="43.55014893412888" lon="11.385837465270304"><ele>857.5</ele><time>2026-03-22T11:11:21Z</time></trkpt><trkpt lat="43.55019926424828" lon="11.385919749578388"><ele>859.0</ele><time>2026-03-22T11:11:22Z</time></trkpt><trkpt lat="43.55024044430505" lon="11.38599123233786"><ele>860.4999999999999</ele><time>2026-03-22T11:11:23Z</time></trkpt><trkpt lat="43.5502888551221" lon="11.386072247377564"><ele>862.0</ele><time>2026-03-22T11:11:25Z</time></trkpt><trkpt lat="43.55034040198978" lon="11.386189637777695"><ele>860.6666666666666</ele><time>2026-03-22T11:11:43.999Z</time></trkpt><trkpt lat="43.55039138954818" lon="11.386285959163452"><ele>859.3333333333333</ele><time>2026-03-22T11:11:44.999Z</time></trkpt><trkpt lat="43.5504395414488" lon="11.386394063958798"><ele>858.0</ele><time>2026-03-22T11:11:45.999Z</time></trkpt><trkpt lat="43.550482402612694" lon="11.386496405310464"><ele>856.6666666666667</ele><time>2026-03-22T11:11:46.999Z</time></trkpt><trkpt lat="43.55051286464994" lon="11.386596590227288"><ele>855.3333333333334</ele><time>2026-03-22T11:11:47.999Z</time></trkpt><trkpt lat="43.55053299113727" lon="11.38671307084797"><ele>854.0</ele><time>2026-03-22T11:11:48.999Z</time></trkpt><trkpt lat="43.55055506839861" lon="11.386811923014985"><ele>857.6</ele><time>2026-03-22T11:11:49.999Z</time></trkpt><trkpt lat="43.55059614263688" lon="11.386917949283488"><ele>861.2</ele><time>2026-03-22T11:11:51.999Z</time></trkpt><trkpt lat="43.550734131163715" lon="11.386891272749398"><ele>864.8000000000001</ele><time>2026-03-22T11:11:53.999Z</time></trkpt><trkpt lat="43.550817899439345" lon="11.386824440679732"><ele>868.4000000000001</ele><time>2026-03-22T11:11:54.999Z</time></trkpt><trkpt lat="43.550885253664234" lon="11.38675434867173"><ele>872.0</ele><time>2026-03-22T11:11:55.999Z</time></trkpt><trkpt lat="43.55094655766708" lon="11.38671174365541"><ele>872.0</ele><time>2026-03-22T11:11:56.999Z</time></trkpt><trkpt lat="43.55102125143101" lon="11.386670735709647"><ele>872.0</ele><time>2026-03-22T11:11:57.999Z</time></trkpt><trkpt lat="43.55111078744435" lon="11.386632430301258"><ele>872.0</ele><time>2026-03-22T11:11:58.999Z</time></trkpt><trkpt lat="43.551220751425994" lon="11.386609012742094"><ele>872.0</ele><time>2026-03-22T11:11:59.999Z</time></trkpt><trkpt lat="43.55131573706443" lon="11.386582362218268"><ele>872.0</ele><time>2026-03-22T11:12:00.999Z</time></trkpt><trkpt lat="43.551387841269324" lon="11.38656062642865"><ele>871.6666666666667</ele><time>2026-03-22T11:12:01.999Z</time></trkpt><trkpt lat="43.55146113155489" lon="11.386549670901799"><ele>871.3333333333334</ele><time>2026-03-22T11:12:02.999Z</time></trkpt><trkpt lat="43.55152961276925" lon="11.386569216652386"><ele>871.0</ele><time>2026-03-22T11:12:03.999Z</time></trkpt><trkpt lat="43.55160846652253" lon="11.38661105236859"><ele>870.6666666666667</ele><time>2026-03-22T11:12:04.999Z</time></trkpt><trkpt lat="43.551692730572775" lon="11.386675945645221"><ele>870.3333333333334</ele><time>2026-03-22T11:12:05.999Z</time></trkpt><trkpt lat="43.551763629977515" lon="11.386736940997913"><ele>870.0</ele><time>2026-03-22T11:12:06.999Z</time></trkpt><trkpt lat="43.551825658345415" lon="11.386824063245692"><ele>870.0</ele><time>2026-03-22T11:12:07.999Z</time></trkpt><trkpt lat="43.5518789151672" lon="11.386917561737663"><ele>870.0</ele><time>2026-03-22T11:12:08.999Z</time></trkpt><trkpt lat="43.551936381558875" lon="11.387013560183949"><ele>870.0</ele><time>2026-03-22T11:12:09.999Z</time></trkpt><trkpt lat="43.552007318120765" lon="11.387064828724622"><ele>870.0</ele><time>2026-03-22T11:12:10.999Z</time></trkpt><trkpt lat="43.55209917354425" lon="11.387085357859135"><ele>870.0</ele><time>2026-03-22T11:12:11.999Z</time></trkpt><trkpt lat="43.55217426668958" lon="11.3870582634767"><ele>870.0</ele><time>2026-03-22T11:12:12.999Z</time></trkpt><trkpt lat="43.552256038961815" lon="11.387027521478588"><ele>870.8333333333334</ele><time>2026-03-22T11:12:13.999Z</time></trkpt><trkpt lat="43.55232882018719" lon="11.387039726317923"><ele>871.6666666666667</ele><time>2026-03-22T11:12:14.999Z</time></trkpt><trkpt lat="43.55239627783458" lon="11.387064126293286"><ele>872.5</ele><time>2026-03-22T11:12:15.999Z</time></trkpt><trkpt lat="43.55247583396063" lon="11.387096907762222"><ele>873.3333333333334</ele><time>2026-03-22T11:12:16.999Z</time></trkpt><trkpt lat="43.552539139689934" lon="11.387114232384542"><ele>874.1666666666667</ele><time>2026-03-22T11:12:17.999Z</time></trkpt><trkpt lat="43.552614404157" lon="11.387093590166193"><ele>875.0</ele><time>2026-03-22T11:12:18.999Z</time></trkpt><trkpt lat="43.552706050906295" lon="11.38705133421873"><ele>875.0</ele><time>2026-03-22T11:12:19.999Z</time></trkpt><trkpt lat="43.55280959726584" lon="11.386971652285466"><ele>875.0</ele><time>2026-03-22T11:12:20.999Z</time></trkpt><trkpt lat="43.552904209290354" lon="11.386916408569725"><ele>875.0</ele><time>2026-03-22T11:12:21.999Z</time></trkpt><trkpt lat="43.55300964515048" lon="11.386882668491811"><ele>875.0</ele><time>2026-03-22T11:12:22.999Z</time></trkpt><trkpt lat="43.553090937334936" lon="11.386854489634295"><ele>875.0</ele><time>2026-03-22T11:12:23.999Z</time></trkpt><trkpt lat="43.55317567659263" lon="11.386836542958944"><ele>875.8</ele><time>2026-03-22T11:12:24.999Z</time></trkpt><trkpt lat="43.5532549428209" lon="11.386835839953294"><ele>876.6</ele><time>2026-03-22T11:12:25.999Z</time></trkpt><trkpt lat="43.5533433817693" lon="11.386842321140888"><ele>877.4000000000001</ele><time>2026-03-22T11:12:26.999Z</time></trkpt><trkpt lat="43.55344827312457" lon="11.38683944260005"><ele>878.2</ele><time>2026-03-22T11:12:27.999Z</time></trkpt><trkpt lat="43.55355749478011" lon="11.386802942909092"><ele>879.0</ele><time>2026-03-22T11:12:28.999Z</time></trkpt><trkpt lat="43.55365158064919" lon="11.386713746204336"><ele>879.4000000000001</ele><time>2026-03-22T11:12:29.999Z</time></trkpt><trkpt lat="43.55373788940625" lon="11.386647762345913"><ele>879.8000000000001</ele><time>2026-03-22T11:12:30.999Z</time></trkpt><trkpt lat="43.553836445853435" lon="11.386591426645344"><ele>880.1999999999999</ele><time>2026-03-22T11:12:31.999Z</time></trkpt><trkpt lat="43.5539494541954" lon="11.386566103119732"><ele>880.5999999999999</ele><time>2026-03-22T11:12:32.999Z</time></trkpt><trkpt lat="43.554061779787254" lon="11.386550600721137"><ele>881.0</ele><time>2026-03-22T11:12:33.999Z</time></trkpt><trkpt lat="43.55415680210281" lon="11.386519307530884"><ele>881.0</ele><time>2026-03-22T11:12:34.999Z</time></trkpt><trkpt lat="43.554244339917005" lon="11.386458491537757"><ele>880.9999999999999</ele><time>2026-03-22T11:12:35.999Z</time></trkpt><trkpt lat="43.55429130933814" lon="11.386352413483197"><ele>880.9999999999999</ele><time>2026-03-22T11:12:36.999Z</time></trkpt><trkpt lat="43.55432364573619" lon="11.386235032724121"><ele>881.0</ele><time>2026-03-22T11:12:37.999Z</time></trkpt><trkpt lat="43.55436048399314" lon="11.386093177807282"><ele>881.0</ele><time>2026-03-22T11:12:38.999Z</time></trkpt><trkpt lat="43.55440999987035" lon="11.385935300325151"><ele>881.75</ele><time>2026-03-22T11:12:40Z</time></trkpt><trkpt lat="43.554481095118305" lon="11.385791141162802"><ele>882.5</ele><time>2026-03-22T11:12:41Z</time></trkpt><trkpt lat="43.55455367977169" lon="11.385652036629569"><ele>883.25</ele><time>2026-03-22T11:12:42Z</time></trkpt><trkpt lat="43.55461946460135" lon="11.385498185033368"><ele>884.0</ele><time>2026-03-22T11:12:43Z</time></trkpt><trkpt lat="43.55467337649073" lon="11.385365338847121"><ele>880.8000000000001</ele><time>2026-03-22T11:12:44Z</time></trkpt><trkpt lat="43.554725053105194" lon="11.38524232696917"><ele>877.6000000000001</ele><time>2026-03-22T11:12:45Z</time></trkpt><trkpt lat="43.55477220190298" lon="11.385127750135622"><ele>874.4</ele><time>2026-03-22T11:12:46Z</time></trkpt><trkpt lat="43.5548156264034" lon="11.385027192767426"><ele>871.2</ele><time>2026-03-22T11:12:47Z</time></trkpt><trkpt lat="43.554857335437326" lon="11.384918330603146"><ele>868.0</ele><time>2026-03-22T11:12:48Z</time></trkpt><trkpt lat="43.55489823647607" lon="11.38481454025987"><ele>868.0</ele><time>2026-03-22T11:12:49Z</time></trkpt><trkpt lat="43.554941405861726" lon="11.384703212275106"><ele>868.0</ele><time>2026-03-22T11:12:50Z</time></trkpt><trkpt lat="43.554989069099776" lon="11.384594321084574"><ele>868.0</ele><time>2026-03-22T11:12:51Z</time></trkpt><trkpt lat="43.55504323606738" lon="11.384502099396084"><ele>868.0</ele><time>2026-03-22T11:12:52Z</time></trkpt><trkpt lat="43.55508686494644" lon="11.384404662545068"><ele>868.0</ele><time>2026-03-22T11:12:53Z</time></trkpt><trkpt lat="43.55520929072409" lon="11.38442185127564"><ele>866.8</ele><time>2026-03-22T11:12:54Z</time></trkpt><trkpt lat="43.55530465316572" lon="11.384404915659893"><ele>865.5999999999999</ele><time>2026-03-22T11:12:55Z</time></trkpt><trkpt lat="43.55541339746367" lon="11.384431552811844"><ele>864.4000000000001</ele><time>2026-03-22T11:12:56Z</time></trkpt><trkpt lat="43.55553305511416" lon="11.384427740143162"><ele>863.2</ele><time>2026-03-22T11:12:57Z</time></trkpt><trkpt lat="43.555641644613935" lon="11.384401497097866"><ele>862.0</ele><time>2026-03-22T11:12:58Z</time></trkpt><trkpt lat="43.55575209506814" lon="11.38434130988127"><ele>862.0</ele><time>2026-03-22T11:12:59Z</time></trkpt><trkpt lat="43.55583987935934" lon="11.384222074403331"><ele>862.0</ele><time>2026-03-22T11:13:00Z</time></trkpt><trkpt lat="43.555933752903535" lon="11.384110682710928"><ele>862.0</ele><time>2026-03-22T11:13:01Z</time></trkpt><trkpt lat="43.55604600893734" lon="11.384037309290688"><ele>862.0</ele><time>2026-03-22T11:13:02Z</time></trkpt><trkpt lat="43.55615575570372" lon="11.383970146731208"><ele>860.0</ele><time>2026-03-22T11:13:03Z</time></trkpt><trkpt lat="43.55626843003312" lon="11.383887534257434"><ele>858.0</ele><time>2026-03-22T11:13:04Z</time></trkpt><trkpt lat="43.55638969789444" lon="11.383829839067012"><ele>856.0</ele><time>2026-03-22T11:13:05Z</time></trkpt><trkpt lat="43.556518178877965" lon="11.383765833965775"><ele>854.0</ele><time>2026-03-22T11:13:06Z</time></trkpt><trkpt lat="43.55663270960332" lon="11.383708806397687"><ele>854.0</ele><time>2026-03-22T11:13:07Z</time></trkpt><trkpt lat="43.5567311181866" lon="11.38366731055834"><ele>854.0000000000001</ele><time>2026-03-22T11:13:08Z</time></trkpt><trkpt lat="43.556825211477644" lon="11.383638601049597"><ele>854.0000000000001</ele><time>2026-03-22T11:13:09Z</time></trkpt><trkpt lat="43.55690329038056" lon="11.383701961953895"><ele>854.0</ele><time>2026-03-22T11:13:10Z</time></trkpt><trkpt lat="43.556991852721175" lon="11.383727896017511"><ele>854.0</ele><time>2026-03-22T11:13:11Z</time></trkpt><trkpt lat="43.55707604652857" lon="11.38375813495798"><ele>854.0</ele><time>2026-03-22T11:13:12Z</time></trkpt><trkpt lat="43.55718661253916" lon="11.383759888559988"><ele>854.0000000000001</ele><time>2026-03-22T11:13:13Z</time></trkpt><trkpt lat="43.55729166946229" lon="11.383786221211583"><ele>854.0000000000001</ele><time>2026-03-22T11:13:14Z</time></trkpt><trkpt lat="43.55740084721234" lon="11.383766997310582"><ele>854.0</ele><time>2026-03-22T11:13:15Z</time></trkpt><trkpt lat="43.557508602631955" lon="11.383714263084443"><ele>854.0</ele><time>2026-03-22T11:13:16Z</time></trkpt><trkpt lat="43.55761498817286" lon="11.383656013971532"><ele>854.0</ele><time>2026-03-22T11:13:17Z</time></trkpt><trkpt lat="43.557733661314465" lon="11.383582824460762"><ele>854.0</ele><time>2026-03-22T11:13:18Z</time></trkpt><trkpt lat="43.5578473070002" lon="11.383517924032466"><ele>854.0</ele><time>2026-03-22T11:13:19Z</time></trkpt><trkpt lat="43.55794329213032" lon="11.383457554289595"><ele>854.0</ele><time>2026-03-22T11:13:20Z</time></trkpt><trkpt lat="43.55803733942902" lon="11.383402453536656"><ele>854.3333333333334</ele><time>2026-03-22T11:13:21Z</time></trkpt><trkpt lat="43.55812020347974" lon="11.38333968194026"><ele>854.6666666666667</ele><time>2026-03-22T11:13:22Z</time></trkpt><trkpt lat="43.558196249961945" lon="11.383277991063373"><ele>855.0</ele><time>2026-03-22T11:13:23Z</time></trkpt><trkpt lat="43.558276876060575" lon="11.383213689452306"><ele>855.3333333333333</ele><time>2026-03-22T11:13:24Z</time></trkpt><trkpt lat="43.55834337641533" lon="11.383134387117165"><ele>855.6666666666666</ele><time>2026-03-22T11:13:25Z</time></trkpt><trkpt lat="43.55839806458186" lon="11.3830776885423"><ele>856.0</ele><time>2026-03-22T11:13:26Z</time></trkpt><trkpt lat="43.55846928597418" lon="11.383026272445349"><ele>854.0</ele><time>2026-03-22T11:13:28Z</time></trkpt><trkpt lat="43.55851585152323" lon="11.382958799601992"><ele>851.9999999999999</ele><time>2026-03-22T11:13:32Z</time></trkpt><trkpt lat="43.55858675534946" lon="11.382916786942786"><ele>850.0</ele><time>2026-03-22T11:13:34Z</time></trkpt><trkpt lat="43.55868623131643" lon="11.382874606637015"><ele>848.0</ele><time>2026-03-22T11:13:36Z</time></trkpt><trkpt lat="43.55881809774035" lon="11.382832216043113"><ele>846.0</ele><time>2026-03-22T11:13:38Z</time></trkpt><trkpt lat="43.558885685734694" lon="11.382808702666074"><ele>845.5999999999999</ele><time>2026-03-22T11:13:39Z</time></trkpt><trkpt lat="43.55896471727519" lon="11.382780180551968"><ele>845.2</ele><time>2026-03-22T11:13:40Z</time></trkpt><trkpt lat="43.559039828821206" lon="11.382770379440402"><ele>844.8</ele><time>2026-03-22T11:13:40.999Z</time></trkpt><trkpt lat="43.55910892115689" lon="11.38269787005323"><ele>844.4000000000001</ele><time>2026-03-22T11:13:41.999Z</time></trkpt><trkpt lat="43.55919564972356" lon="11.382629720267987"><ele>844.0</ele><time>2026-03-22T11:13:42.999Z</time></trkpt><trkpt lat="43.559287088181875" lon="11.382543196916677"><ele>844.0</ele><time>2026-03-22T11:13:43.999Z</time></trkpt><trkpt lat="43.55937095261907" lon="11.382437795335607"><ele>844.0</ele><time>2026-03-22T11:13:44.999Z</time></trkpt><trkpt lat="43.559449337467896" lon="11.382322693112139"><ele>844.0</ele><time>2026-03-22T11:13:45.999Z</time></trkpt><trkpt lat="43.55953354227115" lon="11.382196894945396"><ele>844.0</ele><time>2026-03-22T11:13:46.999Z</time></trkpt><trkpt lat="43.55961674711183" lon="11.382065016900818"><ele>842.75</ele><time>2026-03-22T11:13:47.999Z</time></trkpt><trkpt lat="43.559700374439814" lon="11.381929642242357"><ele>841.5</ele><time>2026-03-22T11:13:48.999Z</time></trkpt><trkpt lat="43.55978003671941" lon="11.38179032620103"><ele>840.25</ele><time>2026-03-22T11:13:49.999Z</time></trkpt><trkpt lat="43.559866259606316" lon="11.381645659677048"><ele>839.0</ele><time>2026-03-22T11:13:50.999Z</time></trkpt><trkpt lat="43.55995368850534" lon="11.381496754468827"><ele>839.0</ele><time>2026-03-22T11:13:51.999Z</time></trkpt><trkpt lat="43.560040617907966" lon="11.381351803189439"><ele>839.0</ele><time>2026-03-22T11:13:52.999Z</time></trkpt><trkpt lat="43.56012187060822" lon="11.381214645630438"><ele>839.0</ele><time>2026-03-22T11:13:53.999Z</time></trkpt><trkpt lat="43.56019216395184" lon="11.38108317364119"><ele>839.0</ele><time>2026-03-22T11:13:54.999Z</time></trkpt><trkpt lat="43.56026322362782" lon="11.38095111840468"><ele>840.4000000000001</ele><time>2026-03-22T11:13:55.999Z</time></trkpt><trkpt lat="43.56033554195802" lon="11.380826116172134"><ele>841.8</ele><time>2026-03-22T11:13:56.999Z</time></trkpt><trkpt lat="43.560408950915935" lon="11.380732396764891"><ele>843.2</ele><time>2026-03-22T11:13:57.999Z</time></trkpt><trkpt lat="43.56049433455008" lon="11.380665935172967"><ele>844.5999999999999</ele><time>2026-03-22T11:13:58.999Z</time></trkpt><trkpt lat="43.56058418657145" lon="11.380637868943852"><ele>846.0</ele><time>2026-03-22T11:13:59.999Z</time></trkpt><trkpt lat="43.560686256269406" lon="11.380617268634435"><ele>846.0</ele><time>2026-03-22T11:14:00.999Z</time></trkpt><trkpt lat="43.56079440252242" lon="11.380583885822132"><ele>846.0</ele><time>2026-03-22T11:14:01.999Z</time></trkpt><trkpt lat="43.560896692013905" lon="11.380535843477888"><ele>846.0</ele><time>2026-03-22T11:14:02.999Z</time></trkpt><trkpt lat="43.5610086882002" lon="11.380475234047568"><ele>846.0</ele><time>2026-03-22T11:14:03.999Z</time></trkpt><trkpt lat="43.56111780095776" lon="11.380420607065261"><ele>847.4</ele><time>2026-03-22T11:14:04.999Z</time></trkpt><trkpt lat="43.561219336163425" lon="11.380367057628314"><ele>848.8</ele><time>2026-03-22T11:14:05.999Z</time></trkpt><trkpt lat="43.56131341299092" lon="11.380308779404508"><ele>850.1999999999999</ele><time>2026-03-22T11:14:06.999Z</time></trkpt><trkpt lat="43.561401116964134" lon="11.38024095019832"><ele>851.5999999999999</ele><time>2026-03-22T11:14:07.999Z</time></trkpt><trkpt lat="43.56148018414792" lon="11.380146551491661"><ele>853.0</ele><time>2026-03-22T11:14:08.999Z</time></trkpt><trkpt lat="43.56154978515968" lon="11.380026552310092"><ele>853.0</ele><time>2026-03-22T11:14:09.999Z</time></trkpt><trkpt lat="43.56161948977984" lon="11.379896821166243"><ele>853.0</ele><time>2026-03-22T11:14:10.999Z</time></trkpt><trkpt lat="43.56168680132365" lon="11.379774875112206"><ele>853.0</ele><time>2026-03-22T11:14:11.999Z</time></trkpt><trkpt lat="43.56176094192948" lon="11.379649830194426"><ele>853.0</ele><time>2026-03-22T11:14:12.999Z</time></trkpt><trkpt lat="43.56184091020186" lon="11.379526858578844"><ele>855.5999999999999</ele><time>2026-03-22T11:14:13.999Z</time></trkpt><trkpt lat="43.56191591176791" lon="11.379414712381392"><ele>858.1999999999999</ele><time>2026-03-22T11:14:14.999Z</time></trkpt><trkpt lat="43.561987794694964" lon="11.379303303198393"><ele>860.8</ele><time>2026-03-22T11:14:15.999Z</time></trkpt><trkpt lat="43.562054780980866" lon="11.37918843441385"><ele>863.4</ele><time>2026-03-22T11:14:16.999Z</time></trkpt><trkpt lat="43.562109500322066" lon="11.379072201854918"><ele>866.0</ele><time>2026-03-22T11:14:17.999Z</time></trkpt><trkpt lat="43.56215958347859" lon="11.37894558097478"><ele>861.4</ele><time>2026-03-22T11:14:18.999Z</time></trkpt><trkpt lat="43.56221155112515" lon="11.3788233429634"><ele>856.8</ele><time>2026-03-22T11:14:19.999Z</time></trkpt><trkpt lat="43.56226165197117" lon="11.378693272253434"><ele>852.1999999999999</ele><time>2026-03-22T11:14:20.999Z</time></trkpt><trkpt lat="43.56233536656228" lon="11.378569429522665"><ele>847.5999999999999</ele><time>2026-03-22T11:14:21.999Z</time></trkpt><trkpt lat="43.56242063905445" lon="11.378460165614053"><ele>843.0</ele><time>2026-03-22T11:14:22.999Z</time></trkpt><trkpt lat="43.56251592262456" lon="11.378358352141756"><ele>843.0</ele><time>2026-03-22T11:14:23.999Z</time></trkpt><trkpt lat="43.562624703358345" lon="11.378287931618024"><ele>843.0</ele><time>2026-03-22T11:14:24.999Z</time></trkpt><trkpt lat="43.56273575607071" lon="11.378223354182238"><ele>843.0</ele><time>2026-03-22T11:14:25.999Z</time></trkpt><trkpt lat="43.56284875555923" lon="11.37817132910056"><ele>843.0</ele><time>2026-03-22T11:14:26.999Z</time></trkpt><trkpt lat="43.56296251266577" lon="11.378127274255881"><ele>841.0</ele><time>2026-03-22T11:14:27.999Z</time></trkpt><trkpt lat="43.56306446824153" lon="11.37808260679071"><ele>839.0</ele><time>2026-03-22T11:14:28.999Z</time></trkpt><trkpt lat="43.56315795619534" lon="11.37802853585442"><ele>837.0</ele><time>2026-03-22T11:14:29.999Z</time></trkpt><trkpt lat="43.56324990792168" lon="11.377978141157104"><ele>835.0</ele><time>2026-03-22T11:14:30.999Z</time></trkpt><trkpt lat="43.56333808716943" lon="11.37793103381339"><ele>833.0</ele><time>2026-03-22T11:14:31.999Z</time></trkpt><trkpt lat="43.56343075497721" lon="11.377899239689953"><ele>832.3333333333334</ele><time>2026-03-22T11:14:32.999Z</time></trkpt><trkpt lat="43.56351468352841" lon="11.377858516967619"><ele>831.6666666666667</ele><time>2026-03-22T11:14:33.999Z</time></trkpt><trkpt lat="43.56359448122705" lon="11.377822044078107"><ele>831.0</ele><time>2026-03-22T11:14:34.999Z</time></trkpt><trkpt lat="43.563673735856376" lon="11.377800697890539"><ele>830.3333333333333</ele><time>2026-03-22T11:14:35.999Z</time></trkpt><trkpt lat="43.563751153278375" lon="11.377798238089008"><ele>829.6666666666666</ele><time>2026-03-22T11:14:36.999Z</time></trkpt><trkpt lat="43.56381954333235" lon="11.377813955148651"><ele>829.0</ele><time>2026-03-22T11:14:37.999Z</time></trkpt><trkpt lat="43.56387520382093" lon="11.377884079479943"><ele>828.1666666666666</ele><time>2026-03-22T11:14:38.999Z</time></trkpt><trkpt lat="43.56390918830007" lon="11.37796215531748"><ele>827.3333333333333</ele><time>2026-03-22T11:14:39.999Z</time></trkpt><trkpt lat="43.5639377234006" lon="11.378040350180267"><ele>826.5</ele><time>2026-03-22T11:14:40.999Z</time></trkpt><trkpt lat="43.563898754783935" lon="11.37818973139299"><ele>825.6666666666667</ele><time>2026-03-22T11:14:42.999Z</time></trkpt><trkpt lat="43.56384639905547" lon="11.378305754422659"><ele>824.8333333333334</ele><time>2026-03-22T11:14:43.999Z</time></trkpt><trkpt lat="43.56381418629329" lon="11.378411889855201"><ele>824.0</ele><time>2026-03-22T11:14:44.999Z</time></trkpt><trkpt lat="43.56380161398046" lon="11.378534101261387"><ele>823.6</ele><time>2026-03-22T11:14:46Z</time></trkpt><trkpt lat="43.56381768267431" lon="11.378654117285862"><ele>823.2</ele><time>2026-03-22T11:14:47Z</time></trkpt><trkpt lat="43.563868962647675" lon="11.378767175638984"><ele>822.8000000000001</ele><time>2026-03-22T11:14:48Z</time></trkpt><trkpt lat="43.56396012170021" lon="11.378830800170173"><ele>822.4000000000001</ele><time>2026-03-22T11:14:49Z</time></trkpt><trkpt lat="43.56404983624277" lon="11.378827579509052"><ele>822.0</ele><time>2026-03-22T11:14:50Z</time></trkpt><trkpt lat="43.56414219578416" lon="11.37883078567825"><ele>822.0</ele><time>2026-03-22T11:14:51Z</time></trkpt><trkpt lat="43.564239731895704" lon="11.378817570755212"><ele>822.0</ele><time>2026-03-22T11:14:52Z</time></trkpt><trkpt lat="43.56434173900199" lon="11.378797097878119"><ele>822.0</ele><time>2026-03-22T11:14:53Z</time></trkpt><trkpt lat="43.56445630548997" lon="11.378768597997249"><ele>822.0</ele><time>2026-03-22T11:14:54Z</time></trkpt><trkpt lat="43.564575731249306" lon="11.378730078385168"><ele>822.0</ele><time>2026-03-22T11:14:55Z</time></trkpt><trkpt lat="43.56469310211786" lon="11.378689268259278"><ele>819.0</ele><time>2026-03-22T11:14:56Z</time></trkpt><trkpt lat="43.56480303801865" lon="11.378644114888615"><ele>816.0</ele><time>2026-03-22T11:14:57Z</time></trkpt><trkpt lat="43.564905617782536" lon="11.378589616903634"><ele>813.0</ele><time>2026-03-22T11:14:58Z</time></trkpt><trkpt lat="43.5650046032903" lon="11.378526541592636"><ele>810.0</ele><time>2026-03-22T11:14:59Z</time></trkpt><trkpt lat="43.56509226701229" lon="11.378458054142873"><ele>807.0</ele><time>2026-03-22T11:15:00Z</time></trkpt><trkpt lat="43.56518086100053" lon="11.378373785730968"><ele>807.0</ele><time>2026-03-22T11:15:01Z</time></trkpt><trkpt lat="43.565261326029045" lon="11.378275569283593"><ele>807.0</ele><time>2026-03-22T11:15:02Z</time></trkpt><trkpt lat="43.56534478607517" lon="11.378169023301753"><ele>807.0</ele><time>2026-03-22T11:15:03Z</time></trkpt><trkpt lat="43.56542589129673" lon="11.378064937396104"><ele>807.0</ele><time>2026-03-22T11:15:04Z</time></trkpt><trkpt lat="43.565506913569216" lon="11.377965340132214"><ele>807.0</ele><time>2026-03-22T11:15:05Z</time></trkpt><trkpt lat="43.565584812404325" lon="11.377875205993814"><ele>804.4000000000001</ele><time>2026-03-22T11:15:06Z</time></trkpt><trkpt lat="43.565662798476616" lon="11.377788301932323"><ele>801.8000000000001</ele><time>2026-03-22T11:15:07Z</time></trkpt><trkpt lat="43.565745602922455" lon="11.377713586912389"><ele>799.2</ele><time>2026-03-22T11:15:08Z</time></trkpt><trkpt lat="43.56583611938765" lon="11.377667157966403"><ele>796.6</ele><time>2026-03-22T11:15:09Z</time></trkpt><trkpt lat="43.56592849220205" lon="11.377647583347049"><ele>794.0</ele><time>2026-03-22T11:15:10Z</time></trkpt><trkpt lat="43.56602844527119" lon="11.377661402400074"><ele>794.0</ele><time>2026-03-22T11:15:11Z</time></trkpt><trkpt lat="43.56611599798205" lon="11.37771683280864"><ele>794.0</ele><time>2026-03-22T11:15:12Z</time></trkpt><trkpt lat="43.56620686771419" lon="11.377776558345616"><ele>794.0</ele><time>2026-03-22T11:15:13Z</time></trkpt><trkpt lat="43.56630276844815" lon="11.377840466628436"><ele>794.0</ele><time>2026-03-22T11:15:14Z</time></trkpt><trkpt lat="43.56640747604905" lon="11.377903025416984"><ele>794.0</ele><time>2026-03-22T11:15:15Z</time></trkpt><trkpt lat="43.5665152693617" lon="11.377961085389154"><ele>792.0</ele><time>2026-03-22T11:15:16Z</time></trkpt><trkpt lat="43.56663564534081" lon="11.378007451917254"><ele>790.0</ele><time>2026-03-22T11:15:17Z</time></trkpt><trkpt lat="43.56675733340469" lon="11.378041383729665"><ele>788.0</ele><time>2026-03-22T11:15:18Z</time></trkpt><trkpt lat="43.566879843883264" lon="11.378052001202136"><ele>786.0</ele><time>2026-03-22T11:15:19Z</time></trkpt><trkpt lat="43.566992379062434" lon="11.378082895876801"><ele>784.0</ele><time>2026-03-22T11:15:20Z</time></trkpt><trkpt lat="43.56710301477229" lon="11.378115799745416"><ele>782.0</ele><time>2026-03-22T11:15:21Z</time></trkpt><trkpt lat="43.56721013834867" lon="11.37814796675882"><ele>780.0</ele><time>2026-03-22T11:15:22Z</time></trkpt><trkpt lat="43.567311663932244" lon="11.378174972077879"><ele>778.0</ele><time>2026-03-22T11:15:23Z</time></trkpt><trkpt lat="43.567409499145015" lon="11.378194940169461"><ele>776.0</ele><time>2026-03-22T11:15:24Z</time></trkpt><trkpt lat="43.56750541407747" lon="11.378204899548109"><ele>776.0</ele><time>2026-03-22T11:15:25Z</time></trkpt><trkpt lat="43.56760151324705" lon="11.37819409000632"><ele>776.0</ele><time>2026-03-22T11:15:26Z</time></trkpt><trkpt lat="43.56769542664959" lon="11.3781596434788"><ele>776.0</ele><time>2026-03-22T11:15:27Z</time></trkpt><trkpt lat="43.567783651014004" lon="11.378101680938245"><ele>776.0</ele><time>2026-03-22T11:15:28Z</time></trkpt><trkpt lat="43.567867156969015" lon="11.378012373810483"><ele>776.0</ele><time>2026-03-22T11:15:29Z</time></trkpt><trkpt lat="43.56794635288036" lon="11.377911427831277"><ele>774.1666666666667</ele><time>2026-03-22T11:15:30Z</time></trkpt><trkpt lat="43.5680109793935" lon="11.37782908574607"><ele>772.3333333333334</ele><time>2026-03-22T11:15:31Z</time></trkpt><trkpt lat="43.568065639749555" lon="11.377750867906588"><ele>770.5</ele><time>2026-03-22T11:15:32Z</time></trkpt><trkpt lat="43.568113080369606" lon="11.377657745292426"><ele>768.6666666666667</ele><time>2026-03-22T11:15:33Z</time></trkpt><trkpt lat="43.56813695260232" lon="11.377556542021987"><ele>766.8333333333334</ele><time>2026-03-22T11:15:34Z</time></trkpt><trkpt lat="43.56814742289568" lon="11.377447912169181"><ele>765.0</ele><time>2026-03-22T11:15:35Z</time></trkpt><trkpt lat="43.56814805632227" lon="11.377350016812901"><ele>765.0</ele><time>2026-03-22T11:15:36Z</time></trkpt><trkpt lat="43.56815309929363" lon="11.377260085228846"><ele>765.0</ele><time>2026-03-22T11:15:37Z</time></trkpt><trkpt lat="43.56822969654908" lon="11.37711826863719"><ele>765.0</ele><time>2026-03-22T11:15:39Z</time></trkpt><trkpt lat="43.568293060508346" lon="11.377090931859453"><ele>765.0</ele><time>2026-03-22T11:15:40Z</time></trkpt><trkpt lat="43.56836261087262" lon="11.377113677956617"><ele>765.0</ele><time>2026-03-22T11:15:41Z</time></trkpt><trkpt lat="43.5684243788064" lon="11.377178716967675"><ele>765.0</ele><time>2026-03-22T11:15:42Z</time></trkpt><trkpt lat="43.56842519582706" lon="11.377311470489294"><ele>765.0</ele><time>2026-03-22T11:15:43Z</time></trkpt><trkpt lat="43.568460575902975" lon="11.377419206638251"><ele>765.0</ele><time>2026-03-22T11:15:44Z</time></trkpt><trkpt lat="43.56849868582338" lon="11.377542968619954"><ele>765.0</ele><time>2026-03-22T11:15:45Z</time></trkpt><trkpt lat="43.56854054638759" lon="11.377683737929631"><ele>765.0</ele><time>2026-03-22T11:15:45.999Z</time></trkpt><trkpt lat="43.568580022894814" lon="11.377825204192012"><ele>765.0</ele><time>2026-03-22T11:15:46.999Z</time></trkpt><trkpt lat="43.568617215331074" lon="11.377961183769921"><ele>764.5</ele><time>2026-03-22T11:15:47.999Z</time></trkpt><trkpt lat="43.568649564258315" lon="11.37807805745174"><ele>764.0</ele><time>2026-03-22T11:15:48.999Z</time></trkpt><trkpt lat="43.56868059169211" lon="11.378174590216233"><ele>763.5</ele><time>2026-03-22T11:15:49.999Z</time></trkpt><trkpt lat="43.568715945409515" lon="11.378265117510878"><ele>763.0</ele><time>2026-03-22T11:15:50.999Z</time></trkpt><trkpt lat="43.56876195971436" lon="11.378338118288854"><ele>762.5</ele><time>2026-03-22T11:15:51.999Z</time></trkpt><trkpt lat="43.568831662224156" lon="11.3783898914844"><ele>762.0</ele><time>2026-03-22T11:15:52.999Z</time></trkpt><trkpt lat="43.568930929039055" lon="11.378348569126532"><ele>759.8333333333334</ele><time>2026-03-22T11:15:53.999Z</time></trkpt><trkpt lat="43.56899928577345" lon="11.378308315528674"><ele>757.6666666666666</ele><time>2026-03-22T11:15:54.999Z</time></trkpt><trkpt lat="43.569060988575465" lon="11.378242987554744"><ele>755.5</ele><time>2026-03-22T11:15:55.999Z</time></trkpt><trkpt lat="43.56912610231889" lon="11.378168660661292"><ele>753.3333333333333</ele><time>2026-03-22T11:15:56.999Z</time></trkpt><trkpt lat="43.56919065221042" lon="11.378092670370702"><ele>751.1666666666666</ele><time>2026-03-22T11:15:57.999Z</time></trkpt><trkpt lat="43.56924620332303" lon="11.378026108161313"><ele>749.0</ele><time>2026-03-22T11:15:58.999Z</time></trkpt><trkpt lat="43.569300940974905" lon="11.377975483325777"><ele>749.0</ele><time>2026-03-22T11:15:59.999Z</time></trkpt><trkpt lat="43.569407710659085" lon="11.377914581907179"><ele>749.0</ele><time>2026-03-22T11:16:01.999Z</time></trkpt><trkpt lat="43.56949066892436" lon="11.377883863049368"><ele>749.0</ele><time>2026-03-22T11:16:03.999Z</time></trkpt><trkpt lat="43.56958837510953" lon="11.37781770874532"><ele>749.0</ele><time>2026-03-22T11:16:05.999Z</time></trkpt><trkpt lat="43.56964814528937" lon="11.377764183759922"><ele>749.0</ele><time>2026-03-22T11:16:06.999Z</time></trkpt><trkpt lat="43.56970881684109" lon="11.377705710517276"><ele>748.3333333333333</ele><time>2026-03-22T11:16:07.999Z</time></trkpt><trkpt lat="43.56977385668566" lon="11.377655014189619"><ele>747.6666666666666</ele><time>2026-03-22T11:16:08.999Z</time></trkpt><trkpt lat="43.56984618021894" lon="11.377605480641424"><ele>747.0</ele><time>2026-03-22T11:16:09.999Z</time></trkpt><trkpt lat="43.56992872631624" lon="11.377558523228245"><ele>746.3333333333334</ele><time>2026-03-22T11:16:10.999Z</time></trkpt><trkpt lat="43.57001791943225" lon="11.377510238340557"><ele>745.6666666666667</ele><time>2026-03-22T11:16:11.999Z</time></trkpt><trkpt lat="43.57011708925618" lon="11.377454214927763"><ele>745.0</ele><time>2026-03-22T11:16:12.999Z</time></trkpt><trkpt lat="43.570224292961996" lon="11.377389126235949"><ele>745.0</ele><time>2026-03-22T11:16:13.999Z</time></trkpt><trkpt lat="43.570338618971086" lon="11.377313776757012"><ele>745.0</ele><time>2026-03-22T11:16:14.999Z</time></trkpt><trkpt lat="43.57045696409496" lon="11.377232779769855"><ele>745.0</ele><time>2026-03-22T11:16:15.999Z</time></trkpt><trkpt lat="43.57057866880673" lon="11.377152496557988"><ele>745.0</ele><time>2026-03-22T11:16:16.999Z</time></trkpt><trkpt lat="43.570708585133595" lon="11.377072281899315"><ele>746.0</ele><time>2026-03-22T11:16:17.999Z</time></trkpt><trkpt lat="43.570836941190876" lon="11.377005184885922"><ele>747.0</ele><time>2026-03-22T11:16:18.999Z</time></trkpt><trkpt lat="43.57096226161471" lon="11.376961639003175"><ele>748.0</ele><time>2026-03-22T11:16:19.999Z</time></trkpt><trkpt lat="43.57110075100407" lon="11.376938044767442"><ele>749.0</ele><time>2026-03-22T11:16:20.999Z</time></trkpt><trkpt lat="43.57123897172276" lon="11.376914921659012"><ele>749.6666666666666</ele><time>2026-03-22T11:16:21.999Z</time></trkpt><trkpt lat="43.57138452808731" lon="11.376876918328001"><ele>750.3333333333334</ele><time>2026-03-22T11:16:22.999Z</time></trkpt><trkpt lat="43.571542125152284" lon="11.376857333260341"><ele>751.0</ele><time>2026-03-22T11:16:23.999Z</time></trkpt><trkpt lat="43.57170387679626" lon="11.376766172602666"><ele>751.0</ele><time>2026-03-22T11:16:24.999Z</time></trkpt><trkpt lat="43.57185698698917" lon="11.376687983468273"><ele>751.0</ele><time>2026-03-22T11:16:25.999Z</time></trkpt><trkpt lat="43.57200265685918" lon="11.376619187238434"><ele>751.0</ele><time>2026-03-22T11:16:26.999Z</time></trkpt><trkpt lat="43.5721470739196" lon="11.376555395716654"><ele>750.25</ele><time>2026-03-22T11:16:27.999Z</time></trkpt><trkpt lat="43.57228760133513" lon="11.376498772120831"><ele>749.5</ele><time>2026-03-22T11:16:28.999Z</time></trkpt><trkpt lat="43.57242262357612" lon="11.376442605008437"><ele>748.75</ele><time>2026-03-22T11:16:29.999Z</time></trkpt><trkpt lat="43.572562805215256" lon="11.376378982572675"><ele>748.0</ele><time>2026-03-22T11:16:30.999Z</time></trkpt><trkpt lat="43.57270303182052" lon="11.376320919143504"><ele>746.75</ele><time>2026-03-22T11:16:31.999Z</time></trkpt><trkpt lat="43.572838640062855" lon="11.376272821635974"><ele>745.5</ele><time>2026-03-22T11:16:32.999Z</time></trkpt><trkpt lat="43.57297884795335" lon="11.376232664624057"><ele>744.25</ele><time>2026-03-22T11:16:33.999Z</time></trkpt><trkpt lat="43.57310659146451" lon="11.376201858300009"><ele>743.0</ele><time>2026-03-22T11:16:34.999Z</time></trkpt><trkpt lat="43.573230204809306" lon="11.376151796137997"><ele>742.5</ele><time>2026-03-22T11:16:35.999Z</time></trkpt><trkpt lat="43.57335410808939" lon="11.37607951053065"><ele>742.0</ele><time>2026-03-22T11:16:36.999Z</time></trkpt><trkpt lat="43.57348276266111" lon="11.375981360836555"><ele>741.5</ele><time>2026-03-22T11:16:37.999Z</time></trkpt><trkpt lat="43.57361707244389" lon="11.375890188788683"><ele>741.0</ele><time>2026-03-22T11:16:38.999Z</time></trkpt><trkpt lat="43.57375829807607" lon="11.375805505350689"><ele>742.25</ele><time>2026-03-22T11:16:39.999Z</time></trkpt><trkpt lat="43.57389409300243" lon="11.375729594644367"><ele>743.5</ele><time>2026-03-22T11:16:40.999Z</time></trkpt><trkpt lat="43.57402912650762" lon="11.375657712772874"><ele>744.75</ele><time>2026-03-22T11:16:41.999Z</time></trkpt><trkpt lat="43.57415548152028" lon="11.375585993835852"><ele>746.0</ele><time>2026-03-22T11:16:42.999Z</time></trkpt><trkpt lat="43.57426691065145" lon="11.375518475602588"><ele>743.5999999999999</ele><time>2026-03-22T11:16:43.999Z</time></trkpt><trkpt lat="43.5743655838079" lon="11.375452395291193"><ele>741.2</ele><time>2026-03-22T11:16:44.999Z</time></trkpt><trkpt lat="43.574456346004524" lon="11.375381431390412"><ele>738.8</ele><time>2026-03-22T11:16:45.999Z</time></trkpt><trkpt lat="43.57453677315141" lon="11.375299556815422"><ele>736.4000000000001</ele><time>2026-03-22T11:16:46.999Z</time></trkpt><trkpt lat="43.57461644003325" lon="11.37519589174427"><ele>734.0</ele><time>2026-03-22T11:16:47.999Z</time></trkpt><trkpt lat="43.574706873082064" lon="11.375063002812151"><ele>734.0</ele><time>2026-03-22T11:16:48.999Z</time></trkpt><trkpt lat="43.57480098054685" lon="11.374925881229641"><ele>734.0</ele><time>2026-03-22T11:16:49.999Z</time></trkpt><trkpt lat="43.57489753923618" lon="11.374786551856008"><ele>734.0</ele><time>2026-03-22T11:16:50.999Z</time></trkpt><trkpt lat="43.57499441639772" lon="11.374649874192109"><ele>734.0</ele><time>2026-03-22T11:16:52Z</time></trkpt><trkpt lat="43.57507899949636" lon="11.374530922756236"><ele>732.2</ele><time>2026-03-22T11:16:53Z</time></trkpt><trkpt lat="43.57516021583644" lon="11.374414248298011"><ele>730.4000000000001</ele><time>2026-03-22T11:16:54Z</time></trkpt><trkpt lat="43.5752348145433" lon="11.374308983558766"><ele>728.6</ele><time>2026-03-22T11:16:55Z</time></trkpt><trkpt lat="43.575305824968915" lon="11.374212435568358"><ele>726.8</ele><time>2026-03-22T11:16:56Z</time></trkpt><trkpt lat="43.57536826657991" lon="11.374124677924941"><ele>725.0</ele><time>2026-03-22T11:16:57Z</time></trkpt><trkpt lat="43.575418736890974" lon="11.374048216106459"><ele>724.8333333333333</ele><time>2026-03-22T11:16:58Z</time></trkpt><trkpt lat="43.5754600111076" lon="11.373977928516096"><ele>724.6666666666666</ele><time>2026-03-22T11:16:59Z</time></trkpt><trkpt lat="43.57553439581633" lon="11.37388511696172"><ele>724.5</ele><time>2026-03-22T11:17:01Z</time></trkpt><trkpt lat="43.575582269421794" lon="11.373823924021927"><ele>724.3333333333334</ele><time>2026-03-22T11:17:04Z</time></trkpt><trkpt lat="43.575624726598406" lon="11.373726406660511"><ele>724.1666666666667</ele><time>2026-03-22T11:18:09.999Z</time></trkpt><trkpt lat="43.575678414316656" lon="11.37361901435262"><ele>724.0</ele><time>2026-03-22T11:18:12.999Z</time></trkpt><trkpt lat="43.57571989570607" lon="11.373546417368173"><ele>723.8333333333334</ele><time>2026-03-22T11:18:13.999Z</time></trkpt><trkpt lat="43.575760889437404" lon="11.373455055120004"><ele>723.6666666666667</ele><time>2026-03-22T11:18:14.999Z</time></trkpt><trkpt lat="43.575805666243866" lon="11.373368700958531"><ele>723.5</ele><time>2026-03-22T11:18:15.999Z</time></trkpt><trkpt lat="43.5758589499819" lon="11.373300957630986"><ele>723.3333333333334</ele><time>2026-03-22T11:18:16.999Z</time></trkpt><trkpt lat="43.57591197881172" lon="11.373253228746412"><ele>723.1666666666666</ele><time>2026-03-22T11:18:17.999Z</time></trkpt><trkpt lat="43.575976829174785" lon="11.373129459741941"><ele>723.0</ele><time>2026-03-22T11:18:19.999Z</time></trkpt><trkpt lat="43.57598569916779" lon="11.372999615212757"><ele>723.5999999999999</ele><time>2026-03-22T11:18:21.999Z</time></trkpt><trkpt lat="43.575946529981934" lon="11.372907896501685"><ele>724.1999999999999</ele><time>2026-03-22T11:18:23.999Z</time></trkpt><trkpt lat="43.575907009725945" lon="11.372800685840533"><ele>724.8</ele><time>2026-03-22T11:18:26.999Z</time></trkpt><trkpt lat="43.57587670960573" lon="11.372620672210703"><ele>725.4</ele><time>2026-03-22T11:18:28.999Z</time></trkpt><trkpt lat="43.57586506228013" lon="11.372475083622065"><ele>726.0</ele><time>2026-03-22T11:18:30.999Z</time></trkpt><trkpt lat="43.575868305506226" lon="11.372332057204902"><ele>726.0</ele><time>2026-03-22T11:18:32.999Z</time></trkpt><trkpt lat="43.575867420092386" lon="11.372221343517507"><ele>726.0</ele><time>2026-03-22T11:18:34.999Z</time></trkpt><trkpt lat="43.57588826449" lon="11.3720951565018"><ele>726.0</ele><time>2026-03-22T11:18:36.999Z</time></trkpt><trkpt lat="43.575893322964426" lon="11.371975505956643"><ele>726.0</ele><time>2026-03-22T11:18:38.999Z</time></trkpt><trkpt lat="43.575917726485415" lon="11.371853727471658"><ele>726.0</ele><time>2026-03-22T11:18:40.999Z</time></trkpt><trkpt lat="43.575938483051125" lon="11.371709863159788"><ele>726.4</ele><time>2026-03-22T11:18:42.999Z</time></trkpt><trkpt lat="43.57596261918112" lon="11.371548087731123"><ele>726.8</ele><time>2026-03-22T11:18:44.999Z</time></trkpt><trkpt lat="43.576002667422166" lon="11.371397768863348"><ele>727.1999999999999</ele><time>2026-03-22T11:18:46.999Z</time></trkpt><trkpt lat="43.5760181114367" lon="11.371269623420508"><ele>727.5999999999999</ele><time>2026-03-22T11:18:48.999Z</time></trkpt><trkpt lat="43.57603461759814" lon="11.37112244694388"><ele>728.0</ele><time>2026-03-22T11:18:50.999Z</time></trkpt><trkpt lat="43.57607797149941" lon="11.370955465473992"><ele>728.4</ele><time>2026-03-22T11:18:52.999Z</time></trkpt><trkpt lat="43.57611718314227" lon="11.37079276990515"><ele>728.8</ele><time>2026-03-22T11:18:54.999Z</time></trkpt><trkpt lat="43.57612126979827" lon="11.37064211441084"><ele>729.2</ele><time>2026-03-22T11:18:56.999Z</time></trkpt><trkpt lat="43.576057640830555" lon="11.37050538055441"><ele>729.6</ele><time>2026-03-22T11:18:59Z</time></trkpt><trkpt lat="43.576012161646965" lon="11.370440136111801"><ele>730.0</ele><time>2026-03-22T11:19:00Z</time></trkpt><trkpt lat="43.57601917183104" lon="11.3703031191834"><ele>730.8333333333334</ele><time>2026-03-22T11:19:02Z</time></trkpt><trkpt lat="43.57603316758057" lon="11.370163005631605"><ele>731.6666666666667</ele><time>2026-03-22T11:19:04Z</time></trkpt><trkpt lat="43.57601839894336" lon="11.370061374520581"><ele>732.5</ele><time>2026-03-22T11:19:06Z</time></trkpt><trkpt lat="43.57599907755525" lon="11.369972286621385"><ele>733.3333333333334</ele><time>2026-03-22T11:19:08Z</time></trkpt><trkpt lat="43.57598608565153" lon="11.369871720455913"><ele>734.1666666666666</ele><time>2026-03-22T11:19:10Z</time></trkpt><trkpt lat="43.57598359017117" lon="11.36977488846755"><ele>735.0</ele><time>2026-03-22T11:19:13Z</time></trkpt><trkpt lat="43.57598128099077" lon="11.369618904781467"><ele>735.0</ele><time>2026-03-22T11:19:15Z</time></trkpt><trkpt lat="43.57599066771412" lon="11.369455607520807"><ele>735.0</ele><time>2026-03-22T11:19:17Z</time></trkpt><trkpt lat="43.57600046993772" lon="11.369362119675067"><ele>735.0</ele><time>2026-03-22T11:19:18Z</time></trkpt><trkpt lat="43.57602344943778" lon="11.369213386152822"><ele>735.0</ele><time>2026-03-22T11:19:20Z</time></trkpt><trkpt lat="43.57605339866421" lon="11.36906535444061"><ele>735.0</ele><time>2026-03-22T11:19:22Z</time></trkpt><trkpt lat="43.57608925762113" lon="11.368925987945198"><ele>734.2</ele><time>2026-03-22T11:19:24Z</time></trkpt><trkpt lat="43.576063398018164" lon="11.368784939615761"><ele>733.4</ele><time>2026-03-22T11:19:26Z</time></trkpt><trkpt lat="43.57602954190484" lon="11.368651493175276"><ele>732.5999999999999</ele><time>2026-03-22T11:19:28Z</time></trkpt><trkpt lat="43.57606490333488" lon="11.368494539419848"><ele>731.8</ele><time>2026-03-22T11:19:30Z</time></trkpt><trkpt lat="43.57606731815782" lon="11.368329022278273"><ele>731.0</ele><time>2026-03-22T11:19:32Z</time></trkpt><trkpt lat="43.57604899350514" lon="11.36824422535633"><ele>731.0</ele><time>2026-03-22T11:19:33Z</time></trkpt><trkpt lat="43.57603103814179" lon="11.36807553338234"><ele>731.0</ele><time>2026-03-22T11:19:35Z</time></trkpt><trkpt lat="43.57599376276078" lon="11.36792247485232"><ele>731.0</ele><time>2026-03-22T11:19:37Z</time></trkpt><trkpt lat="43.57594269766488" lon="11.36784178190891"><ele>731.0</ele><time>2026-03-22T11:19:38Z</time></trkpt><trkpt lat="43.575895416255015" lon="11.367765021180723"><ele>731.0</ele><time>2026-03-22T11:19:39Z</time></trkpt><trkpt lat="43.57580557212659" lon="11.367628138639512"><ele>730.8333333333333</ele><time>2026-03-22T11:19:41Z</time></trkpt><trkpt lat="43.575766014737354" lon="11.36755538453692"><ele>730.6666666666666</ele><time>2026-03-22T11:19:42Z</time></trkpt><trkpt lat="43.57572595075001" lon="11.367479489625245"><ele>730.5</ele><time>2026-03-22T11:19:43Z</time></trkpt><trkpt lat="43.57564500228326" lon="11.367357844881148"><ele>730.3333333333334</ele><time>2026-03-22T11:19:45Z</time></trkpt><trkpt lat="43.57560280088498" lon="11.367288953795759"><ele>730.1666666666667</ele><time>2026-03-22T11:19:46Z</time></trkpt><trkpt lat="43.57555359078409" lon="11.367226299433003"><ele>730.0</ele><time>2026-03-22T11:19:47Z</time></trkpt><trkpt lat="43.57547317396579" lon="11.367095124595425"><ele>729.1666666666667</ele><time>2026-03-22T11:19:49Z</time></trkpt><trkpt lat="43.57544348674451" lon="11.3670180404102"><ele>728.3333333333334</ele><time>2026-03-22T11:19:50Z</time></trkpt><trkpt lat="43.57541721966364" lon="11.366931099502029"><ele>727.5</ele><time>2026-03-22T11:19:51Z</time></trkpt><trkpt lat="43.575353275505016" lon="11.366786165381782"><ele>726.6666666666666</ele><time>2026-03-22T11:19:53Z</time></trkpt><trkpt lat="43.575311088302946" lon="11.366719674167358"><ele>725.8333333333333</ele><time>2026-03-22T11:19:54Z</time></trkpt><trkpt lat="43.57525621373247" lon="11.36658350872983"><ele>725.0</ele><time>2026-03-22T11:19:56Z</time></trkpt><trkpt lat="43.575223686254695" lon="11.366425323131944"><ele>723.0</ele><time>2026-03-22T11:19:58Z</time></trkpt><trkpt lat="43.5751644731755" lon="11.366297629171568"><ele>721.0</ele><time>2026-03-22T11:19:59.999Z</time></trkpt><trkpt lat="43.57509475016242" lon="11.366186963910577"><ele>719.0</ele><time>2026-03-22T11:20:01.999Z</time></trkpt><trkpt lat="43.57503970222833" lon="11.366054710658583"><ele>717.0</ele><time>2026-03-22T11:20:03.999Z</time></trkpt><trkpt lat="43.57498320661378" lon="11.365936059466026"><ele>715.0</ele><time>2026-03-22T11:20:05.999Z</time></trkpt><trkpt lat="43.57497952790854" lon="11.365809857451474"><ele>715.0</ele><time>2026-03-22T11:20:07.999Z</time></trkpt><trkpt lat="43.57492124755906" lon="11.365767019838446"><ele>715.0</ele><time>2026-03-22T11:20:09.999Z</time></trkpt><trkpt lat="43.57486065212179" lon="11.36581294008272"><ele>715.0</ele><time>2026-03-22T11:20:10.999Z</time></trkpt><trkpt lat="43.57478550356164" lon="11.365845815258181"><ele>715.0</ele><time>2026-03-22T11:20:11.999Z</time></trkpt><trkpt lat="43.57468289871465" lon="11.365910463008928"><ele>715.0</ele><time>2026-03-22T11:20:13.999Z</time></trkpt><trkpt lat="43.57458298275802" lon="11.36599399346965"><ele>715.0</ele><time>2026-03-22T11:20:15.999Z</time></trkpt><trkpt lat="43.57450325107516" lon="11.366101594445965"><ele>712.0</ele><time>2026-03-22T11:20:17.999Z</time></trkpt><trkpt lat="43.57443877569367" lon="11.366234049997995"><ele>709.0</ele><time>2026-03-22T11:20:19.999Z</time></trkpt><trkpt lat="43.57436542849572" lon="11.36636832128177"><ele>706.0</ele><time>2026-03-22T11:20:21.999Z</time></trkpt><trkpt lat="43.57431973900897" lon="11.366452127773917"><ele>703.0</ele><time>2026-03-22T11:20:22.999Z</time></trkpt><trkpt lat="43.57426909312917" lon="11.36657272825987"><ele>700.0</ele><time>2026-03-22T11:20:24.999Z</time></trkpt><trkpt lat="43.57421190359077" lon="11.36665900023602"><ele>700.0</ele><time>2026-03-22T11:20:26.999Z</time></trkpt><trkpt lat="43.574150629501354" lon="11.366776524894908"><ele>700.0</ele><time>2026-03-22T11:20:28.999Z</time></trkpt><trkpt lat="43.574115045931016" lon="11.366903033450711"><ele>700.0</ele><time>2026-03-22T11:20:30.999Z</time></trkpt><trkpt lat="43.574097526765975" lon="11.367020537329008"><ele>700.0</ele><time>2026-03-22T11:20:32.999Z</time></trkpt><trkpt lat="43.574057377434485" lon="11.367115782120093"><ele>700.0</ele><time>2026-03-22T11:20:34.999Z</time></trkpt><trkpt lat="43.573984072573936" lon="11.367070931319214"><ele>700.0</ele><time>2026-03-22T11:20:36.999Z</time></trkpt><trkpt lat="43.57396320770671" lon="11.366923244253602"><ele>700.0</ele><time>2026-03-22T11:20:38.999Z</time></trkpt><trkpt lat="43.573976745567386" lon="11.366748971079591"><ele>700.0</ele><time>2026-03-22T11:20:40.999Z</time></trkpt><trkpt lat="43.573981815889795" lon="11.366652501166957"><ele>700.0</ele><time>2026-03-22T11:20:41.999Z</time></trkpt><trkpt lat="43.57398352461673" lon="11.366537782677241"><ele>700.0</ele><time>2026-03-22T11:20:42.999Z</time></trkpt><trkpt lat="43.573981537506306" lon="11.366444562309134"><ele>699.8333333333334</ele><time>2026-03-22T11:20:43.999Z</time></trkpt><trkpt lat="43.57397619225904" lon="11.366351466697992"><ele>699.6666666666667</ele><time>2026-03-22T11:20:44.999Z</time></trkpt><trkpt lat="43.57397612996087" lon="11.366185412916103"><ele>699.5</ele><time>2026-03-22T11:20:46.999Z</time></trkpt><trkpt lat="43.573966284059026" lon="11.366098618025907"><ele>699.3333333333334</ele><time>2026-03-22T11:20:47.999Z</time></trkpt><trkpt lat="43.57395492115318" lon="11.366011119041826"><ele>699.1666666666666</ele><time>2026-03-22T11:20:48.999Z</time></trkpt><trkpt lat="43.573953044315054" lon="11.36591859039616"><ele>699.0</ele><time>2026-03-22T11:20:49.999Z</time></trkpt><trkpt lat="43.57395675496477" lon="11.365811403416624"><ele>699.0</ele><time>2026-03-22T11:20:50.999Z</time></trkpt><trkpt lat="43.573961293287994" lon="11.365696023657025"><ele>699.0</ele><time>2026-03-22T11:20:51.999Z</time></trkpt><trkpt lat="43.57395938251168" lon="11.365576458710501"><ele>699.0</ele><time>2026-03-22T11:20:52.999Z</time></trkpt><trkpt lat="43.57395336019639" lon="11.365478218171221"><ele>699.0</ele><time>2026-03-22T11:20:53.999Z</time></trkpt><trkpt lat="43.57395449027445" lon="11.36538934203234"><ele>699.0</ele><time>2026-03-22T11:20:54.999Z</time></trkpt><trkpt lat="43.57396377748862" lon="11.36525303619948"><ele>699.0</ele><time>2026-03-22T11:20:56.999Z</time></trkpt><trkpt lat="43.57396961141544" lon="11.365082587175397"><ele>697.6</ele><time>2026-03-22T11:20:58.999Z</time></trkpt><trkpt lat="43.57397960774169" lon="11.36494168405796"><ele>696.2</ele><time>2026-03-22T11:21:00.999Z</time></trkpt><trkpt lat="43.574021580345736" lon="11.36480699536407"><ele>694.8000000000001</ele><time>2026-03-22T11:21:03Z</time></trkpt><trkpt lat="43.57407138259485" lon="11.364700462582304"><ele>693.4000000000001</ele><time>2026-03-22T11:21:05Z</time></trkpt><trkpt lat="43.57412632557818" lon="11.364585672734409"><ele>692.0</ele><time>2026-03-22T11:21:08Z</time></trkpt><trkpt lat="43.57416501417703" lon="11.364448852080255"><ele>689.3333333333333</ele><time>2026-03-22T11:21:10Z</time></trkpt><trkpt lat="43.57421065957524" lon="11.364303996509435"><ele>686.6666666666666</ele><time>2026-03-22T11:21:12Z</time></trkpt><trkpt lat="43.574241906099694" lon="11.364218105715334"><ele>684.0</ele><time>2026-03-22T11:21:13Z</time></trkpt><trkpt lat="43.574275508332164" lon="11.36413512604177"><ele>681.3333333333334</ele><time>2026-03-22T11:21:14Z</time></trkpt><trkpt lat="43.57431426691769" lon="11.364060471466999"><ele>678.6666666666667</ele><time>2026-03-22T11:21:15Z</time></trkpt><trkpt lat="43.574354033115085" lon="11.36393142079148"><ele>676.0</ele><time>2026-03-22T11:21:17Z</time></trkpt><trkpt lat="43.57440633222663" lon="11.363788795394983"><ele>672.8333333333334</ele><time>2026-03-22T11:21:19Z</time></trkpt><trkpt lat="43.574440968066625" lon="11.363707167418083"><ele>669.6666666666667</ele><time>2026-03-22T11:21:20Z</time></trkpt><trkpt lat="43.57453397385312" lon="11.363597517541987"><ele>666.5</ele><time>2026-03-22T11:21:22Z</time></trkpt><trkpt lat="43.574595305210536" lon="11.363571456601402"><ele>663.3333333333334</ele><time>2026-03-22T11:21:23Z</time></trkpt><trkpt lat="43.57464939662803" lon="11.363513530315196"><ele>660.1666666666666</ele><time>2026-03-22T11:21:24Z</time></trkpt><trkpt lat="43.57475218159048" lon="11.36342367737202"><ele>657.0</ele><time>2026-03-22T11:21:26Z</time></trkpt><trkpt lat="43.57488093554255" lon="11.363434491028913"><ele>657.0</ele><time>2026-03-22T11:21:28Z</time></trkpt><trkpt lat="43.57494688709149" lon="11.363475623242666"><ele>657.0</ele><time>2026-03-22T11:21:29Z</time></trkpt><trkpt lat="43.575007627886" lon="11.363531446961215"><ele>657.0</ele><time>2026-03-22T11:21:30Z</time></trkpt><trkpt lat="43.57506473161599" lon="11.363599969577301"><ele>657.0</ele><time>2026-03-22T11:21:31Z</time></trkpt><trkpt lat="43.57511053605376" lon="11.363660973930235"><ele>657.0</ele><time>2026-03-22T11:21:32Z</time></trkpt><trkpt lat="43.57519648994729" lon="11.363731030425244"><ele>657.0</ele><time>2026-03-22T11:21:34Z</time></trkpt><trkpt lat="43.575308027747724" lon="11.363804679508796"><ele>658.3333333333334</ele><time>2026-03-22T11:21:36Z</time></trkpt><trkpt lat="43.57538681054671" lon="11.363853287383739"><ele>659.6666666666666</ele><time>2026-03-22T11:21:38Z</time></trkpt><trkpt lat="43.575470093600444" lon="11.363914983701436"><ele>661.0</ele><time>2026-03-22T11:21:40Z</time></trkpt><trkpt lat="43.575584430866066" lon="11.36389241478918"><ele>662.3333333333333</ele><time>2026-03-22T11:21:42Z</time></trkpt><trkpt lat="43.575641422301466" lon="11.363831554889266"><ele>663.6666666666666</ele><time>2026-03-22T11:21:43Z</time></trkpt><trkpt lat="43.57571341439771" lon="11.363797646284686"><ele>665.0</ele><time>2026-03-22T11:21:44Z</time></trkpt><trkpt lat="43.57580211979334" lon="11.363760684101434"><ele>659.6666666666666</ele><time>2026-03-22T11:21:45Z</time></trkpt><trkpt lat="43.575880678664944" lon="11.363716881258947"><ele>654.3333333333333</ele><time>2026-03-22T11:21:46Z</time></trkpt><trkpt lat="43.575942895602836" lon="11.363699999603968"><ele>649.0</ele><time>2026-03-22T11:21:47Z</time></trkpt><trkpt lat="43.576015602261954" lon="11.363694427684205"><ele>643.6666666666666</ele><time>2026-03-22T11:21:48Z</time></trkpt><trkpt lat="43.57609854460593" lon="11.363718528918739"><ele>638.3333333333334</ele><time>2026-03-22T11:21:49Z</time></trkpt><trkpt lat="43.576181332857395" lon="11.363752569724824"><ele>633.0</ele><time>2026-03-22T11:21:50Z</time></trkpt><trkpt lat="43.576268460098376" lon="11.363781555557548"><ele>632.6</ele><time>2026-03-22T11:21:51Z</time></trkpt><trkpt lat="43.57635888731393" lon="11.363815795223037"><ele>632.1999999999999</ele><time>2026-03-22T11:21:52Z</time></trkpt><trkpt lat="43.57646922029995" lon="11.36384913762312"><ele>631.8</ele><time>2026-03-22T11:21:53Z</time></trkpt><trkpt lat="43.576572274187704" lon="11.363871698440986"><ele>631.4</ele><time>2026-03-22T11:21:54Z</time></trkpt><trkpt lat="43.57666402591281" lon="11.363887350641358"><ele>631.0</ele><time>2026-03-22T11:21:55Z</time></trkpt><trkpt lat="43.576741563075025" lon="11.363906932784898"><ele>630.6666666666667</ele><time>2026-03-22T11:21:56Z</time></trkpt><trkpt lat="43.57681001766509" lon="11.36392452944237"><ele>630.3333333333334</ele><time>2026-03-22T11:21:57Z</time></trkpt><trkpt lat="43.576881180924865" lon="11.363934296347932"><ele>630.0</ele><time>2026-03-22T11:21:58Z</time></trkpt><trkpt lat="43.576956627283494" lon="11.36393436623597"><ele>629.6666666666666</ele><time>2026-03-22T11:21:59Z</time></trkpt><trkpt lat="43.57702213800849" lon="11.363919067768638"><ele>629.3333333333333</ele><time>2026-03-22T11:22:00Z</time></trkpt><trkpt lat="43.577129942026886" lon="11.363896987395256"><ele>629.0</ele><time>2026-03-22T11:22:01.999Z</time></trkpt><trkpt lat="43.57722564220005" lon="11.363834259794533"><ele>629.0</ele><time>2026-03-22T11:22:03.999Z</time></trkpt><trkpt lat="43.57726751082605" lon="11.363769096806521"><ele>629.0</ele><time>2026-03-22T11:22:04.999Z</time></trkpt><trkpt lat="43.57738985657772" lon="11.363697379108729"><ele>629.0</ele><time>2026-03-22T11:22:06.999Z</time></trkpt><trkpt lat="43.577453586857466" lon="11.363664107659435"><ele>629.0</ele><time>2026-03-22T11:22:07.999Z</time></trkpt><trkpt lat="43.577517850064844" lon="11.363581708789395"><ele>629.0</ele><time>2026-03-22T11:22:08.999Z</time></trkpt><trkpt lat="43.57758152329921" lon="11.363496442130002"><ele>629.0</ele><time>2026-03-22T11:22:09.999Z</time></trkpt><trkpt lat="43.57764642811173" lon="11.363430480559577"><ele>629.0</ele><time>2026-03-22T11:22:10.999Z</time></trkpt><trkpt lat="43.57771237483933" lon="11.363369616414836"><ele>629.0</ele><time>2026-03-22T11:22:11.999Z</time></trkpt><trkpt lat="43.57777143336643" lon="11.363311278731244"><ele>629.0</ele><time>2026-03-22T11:22:12.999Z</time></trkpt><trkpt lat="43.577821218266855" lon="11.363206116552249"><ele>629.0</ele><time>2026-03-22T11:22:14.999Z</time></trkpt><trkpt lat="43.577853392776554" lon="11.36307349671217"><ele>629.0</ele><time>2026-03-22T11:22:16.999Z</time></trkpt><trkpt lat="43.577913176691354" lon="11.363003672799332"><ele>629.0</ele><time>2026-03-22T11:22:17.999Z</time></trkpt><trkpt lat="43.57798959562698" lon="11.362947680733628"><ele>629.2</ele><time>2026-03-22T11:22:18.999Z</time></trkpt><trkpt lat="43.578062736343895" lon="11.362876950755457"><ele>629.4</ele><time>2026-03-22T11:22:19.999Z</time></trkpt><trkpt lat="43.578098528614646" lon="11.362785349322136"><ele>629.6</ele><time>2026-03-22T11:22:20.999Z</time></trkpt><trkpt lat="43.57816613244423" lon="11.36269505985945"><ele>629.8</ele><time>2026-03-22T11:22:22.999Z</time></trkpt><trkpt lat="43.57823497211242" lon="11.36267026324933"><ele>630.0</ele><time>2026-03-22T11:27:56Z</time></trkpt><trkpt lat="43.57829042308421" lon="11.362516487890963"><ele>630.0</ele><time>2026-03-22T11:27:58Z</time></trkpt><trkpt lat="43.57830937205297" lon="11.362338694173593"><ele>630.0</ele><time>2026-03-22T11:28:00Z</time></trkpt><trkpt lat="43.578299666277815" lon="11.362225913634036"><ele>630.0</ele><time>2026-03-22T11:28:01Z</time></trkpt><trkpt lat="43.57825999716809" lon="11.362112571519017"><ele>630.0</ele><time>2026-03-22T11:28:02Z</time></trkpt><trkpt lat="43.578265143294296" lon="11.362002365433044"><ele>630.0</ele><time>2026-03-22T11:28:03Z</time></trkpt><trkpt lat="43.578265843713595" lon="11.361902195686275"><ele>631.0</ele><time>2026-03-22T11:28:04Z</time></trkpt><trkpt lat="43.57826052865418" lon="11.361797041369021"><ele>632.0</ele><time>2026-03-22T11:28:05Z</time></trkpt><trkpt lat="43.57826042023219" lon="11.36170226341688"><ele>633.0</ele><time>2026-03-22T11:28:06Z</time></trkpt><trkpt lat="43.57822842641681" lon="11.361597285463015"><ele>634.0</ele><time>2026-03-22T11:28:07Z</time></trkpt><trkpt lat="43.578189877821465" lon="11.361482071101232"><ele>635.0</ele><time>2026-03-22T11:28:08Z</time></trkpt><trkpt lat="43.578154515677916" lon="11.36137836456366"><ele>636.0</ele><time>2026-03-22T11:28:09Z</time></trkpt><trkpt lat="43.578123298800676" lon="11.361237705708392"><ele>636.3333333333334</ele><time>2026-03-22T11:28:11Z</time></trkpt><trkpt lat="43.57813982048949" lon="11.36115299299729"><ele>636.6666666666666</ele><time>2026-03-22T11:28:12Z</time></trkpt><trkpt lat="43.57815617032292" lon="11.36106515751582"><ele>637.0</ele><time>2026-03-22T11:28:13Z</time></trkpt><trkpt lat="43.57816622697189" lon="11.360974931597152"><ele>637.3333333333333</ele><time>2026-03-22T11:28:13.999Z</time></trkpt><trkpt lat="43.57816284809674" lon="11.360852358346614"><ele>637.6666666666666</ele><time>2026-03-22T11:28:14.999Z</time></trkpt><trkpt lat="43.57816876581921" lon="11.3607262039532"><ele>638.0</ele><time>2026-03-22T11:28:15.999Z</time></trkpt><trkpt lat="43.57818321568071" lon="11.360613855613432"><ele>638.2857142857143</ele><time>2026-03-22T11:28:16.999Z</time></trkpt><trkpt lat="43.5781665184247" lon="11.36051083303494"><ele>638.5714285714286</ele><time>2026-03-22T11:28:17.999Z</time></trkpt><trkpt lat="43.57813353405067" lon="11.360414922413307"><ele>638.8571428571429</ele><time>2026-03-22T11:28:18.999Z</time></trkpt><trkpt lat="43.57808818802935" lon="11.360330059303344"><ele>639.1428571428571</ele><time>2026-03-22T11:28:19.999Z</time></trkpt><trkpt lat="43.57804096735101" lon="11.360249638558265"><ele>639.4285714285714</ele><time>2026-03-22T11:28:20.999Z</time></trkpt><trkpt lat="43.577998955852806" lon="11.360168940018394"><ele>639.7142857142857</ele><time>2026-03-22T11:28:21.999Z</time></trkpt><trkpt lat="43.57796391575952" lon="11.36008946520916"><ele>640.0</ele><time>2026-03-22T11:28:22.999Z</time></trkpt><trkpt lat="43.5779257134911" lon="11.360000752115955"><ele>640.0</ele><time>2026-03-22T11:28:23.999Z</time></trkpt><trkpt lat="43.57788383608721" lon="11.35990439024337"><ele>640.0</ele><time>2026-03-22T11:28:24.999Z</time></trkpt><trkpt lat="43.57783668273453" lon="11.359789186462132"><ele>640.0</ele><time>2026-03-22T11:28:25.999Z</time></trkpt><trkpt lat="43.57778586665056" lon="11.359674711976023"><ele>640.0</ele><time>2026-03-22T11:28:26.999Z</time></trkpt><trkpt lat="43.57774106546672" lon="11.359572217858405"><ele>640.0</ele><time>2026-03-22T11:28:27.999Z</time></trkpt><trkpt lat="43.57768791305067" lon="11.359446838256153"><ele>642.0</ele><time>2026-03-22T11:28:28.999Z</time></trkpt><trkpt lat="43.57762987099895" lon="11.359327964139135"><ele>644.0</ele><time>2026-03-22T11:28:29.999Z</time></trkpt><trkpt lat="43.57757325778155" lon="11.359210591625384"><ele>646.0</ele><time>2026-03-22T11:28:30.999Z</time></trkpt><trkpt lat="43.57752029307964" lon="11.359098579572223"><ele>648.0</ele><time>2026-03-22T11:28:31.999Z</time></trkpt><trkpt lat="43.577469785938085" lon="11.35899167202524"><ele>650.0</ele><time>2026-03-22T11:28:32.999Z</time></trkpt><trkpt lat="43.577425705933564" lon="11.35888993943326"><ele>650.3333333333333</ele><time>2026-03-22T11:28:33.999Z</time></trkpt><trkpt lat="43.57738681013706" lon="11.358788778678448"><ele>650.6666666666666</ele><time>2026-03-22T11:28:34.999Z</time></trkpt><trkpt lat="43.57734929648306" lon="11.35868304392878"><ele>651.0</ele><time>2026-03-22T11:28:35.999Z</time></trkpt><trkpt lat="43.57729988895901" lon="11.358575553324712"><ele>651.3333333333334</ele><time>2026-03-22T11:28:36.999Z</time></trkpt><trkpt lat="43.57728784739145" lon="11.358448361543427"><ele>651.6666666666667</ele><time>2026-03-22T11:28:37.999Z</time></trkpt><trkpt lat="43.57725166379469" lon="11.358327253024134"><ele>652.0</ele><time>2026-03-22T11:28:38.999Z</time></trkpt><trkpt lat="43.577220464133546" lon="11.358210345213525"><ele>652.0</ele><time>2026-03-22T11:28:39.999Z</time></trkpt><trkpt lat="43.57717332613819" lon="11.35811388739688"><ele>652.0</ele><time>2026-03-22T11:28:40.999Z</time></trkpt><trkpt lat="43.577111979238595" lon="11.35802556908159"><ele>652.0</ele><time>2026-03-22T11:28:41.999Z</time></trkpt><trkpt lat="43.57705040362478" lon="11.357939512644721"><ele>652.0</ele><time>2026-03-22T11:28:42.999Z</time></trkpt><trkpt lat="43.57698741460152" lon="11.357849914770139"><ele>652.0</ele><time>2026-03-22T11:28:43.999Z</time></trkpt><trkpt lat="43.57692767587036" lon="11.35776129398864"><ele>652.0</ele><time>2026-03-22T11:28:44.999Z</time></trkpt><trkpt lat="43.576872944388896" lon="11.35769221337666"><ele>651.0</ele><time>2026-03-22T11:28:45.999Z</time></trkpt><trkpt lat="43.57681771276621" lon="11.357639500237704"><ele>650.0</ele><time>2026-03-22T11:28:46.999Z</time></trkpt><trkpt lat="43.576743497081225" lon="11.357582984072273"><ele>649.0</ele><time>2026-03-22T11:28:47.999Z</time></trkpt><trkpt lat="43.57667249287167" lon="11.357524616308217"><ele>648.0</ele><time>2026-03-22T11:28:48.999Z</time></trkpt><trkpt lat="43.576611603189065" lon="11.357475422296996"><ele>647.0</ele><time>2026-03-22T11:28:49.999Z</time></trkpt><trkpt lat="43.57653773366836" lon="11.357421456304763"><ele>646.0</ele><time>2026-03-22T11:28:50.999Z</time></trkpt><trkpt lat="43.57645677190898" lon="11.357367798090232"><ele>646.0000000000001</ele><time>2026-03-22T11:28:51.999Z</time></trkpt><trkpt lat="43.57637845889962" lon="11.357317773697162"><ele>646.0</ele><time>2026-03-22T11:28:52.999Z</time></trkpt><trkpt lat="43.57632790376066" lon="11.35725592243788"><ele>646.0</ele><time>2026-03-22T11:28:53.999Z</time></trkpt><trkpt lat="43.57626436485262" lon="11.357212188605555"><ele>646.0</ele><time>2026-03-22T11:28:54.999Z</time></trkpt><trkpt lat="43.576206268025295" lon="11.35717756673653"><ele>646.0</ele><time>2026-03-22T11:28:55.999Z</time></trkpt><trkpt lat="43.576148675156304" lon="11.357142020690052"><ele>646.0000000000001</ele><time>2026-03-22T11:28:56.999Z</time></trkpt><trkpt lat="43.57611918225699" lon="11.3570645789334"><ele>646.0</ele><time>2026-03-22T11:28:57.999Z</time></trkpt><trkpt lat="43.57609472993879" lon="11.356931303360186"><ele>643.5999999999999</ele><time>2026-03-22T11:28:59.999Z</time></trkpt><trkpt lat="43.57614586792154" lon="11.356837567371254"><ele>641.1999999999999</ele><time>2026-03-22T11:29:01.999Z</time></trkpt><trkpt lat="43.57627568933359" lon="11.356880449898643"><ele>638.8</ele><time>2026-03-22T11:29:06.999Z</time></trkpt><trkpt lat="43.576341515716216" lon="11.356896952000506"><ele>636.4</ele><time>2026-03-22T11:29:07.999Z</time></trkpt><trkpt lat="43.576410439056296" lon="11.35692040055454"><ele>634.0</ele><time>2026-03-22T11:29:08.999Z</time></trkpt><trkpt lat="43.576498544085794" lon="11.356854647622367"><ele>634.0</ele><time>2026-03-22T11:29:10.999Z</time></trkpt><trkpt lat="43.57656631863873" lon="11.356829905544494"><ele>634.0</ele><time>2026-03-22T11:29:11.999Z</time></trkpt><trkpt lat="43.576644895514974" lon="11.356785119244469"><ele>634.0</ele><time>2026-03-22T11:29:12.999Z</time></trkpt><trkpt lat="43.576716297627215" lon="11.356736493961414"><ele>634.0</ele><time>2026-03-22T11:29:13.999Z</time></trkpt><trkpt lat="43.576783202471574" lon="11.356679222663038"><ele>634.0</ele><time>2026-03-22T11:29:14.999Z</time></trkpt><trkpt lat="43.57683088025545" lon="11.356580929648276"><ele>634.0</ele><time>2026-03-22T11:29:15.999Z</time></trkpt><trkpt lat="43.576888395144735" lon="11.356495164108306"><ele>634.0</ele><time>2026-03-22T11:29:16.999Z</time></trkpt><trkpt lat="43.57695353084841" lon="11.356426489190182"><ele>634.0</ele><time>2026-03-22T11:29:17.999Z</time></trkpt><trkpt lat="43.57702541157165" lon="11.356346739202266"><ele>634.0</ele><time>2026-03-22T11:29:18.999Z</time></trkpt><trkpt lat="43.577099078950255" lon="11.356289685897762"><ele>634.0</ele><time>2026-03-22T11:29:19.998Z</time></trkpt><trkpt lat="43.577168126226766" lon="11.356235261913689"><ele>634.0</ele><time>2026-03-22T11:29:20.998Z</time></trkpt><trkpt lat="43.57723825062817" lon="11.356195955837537"><ele>634.0</ele><time>2026-03-22T11:29:21.998Z</time></trkpt><trkpt lat="43.577313038797016" lon="11.356161102307798"><ele>632.5</ele><time>2026-03-22T11:29:22.998Z</time></trkpt><trkpt lat="43.577385179356334" lon="11.356117306228645"><ele>631.0</ele><time>2026-03-22T11:29:23.998Z</time></trkpt><trkpt lat="43.577457282201856" lon="11.356065932310235"><ele>629.5</ele><time>2026-03-22T11:29:25Z</time></trkpt><trkpt lat="43.57752165537118" lon="11.35600732097978"><ele>628.0</ele><time>2026-03-22T11:29:26Z</time></trkpt><trkpt lat="43.57758410532792" lon="11.355940851127547"><ele>626.5</ele><time>2026-03-22T11:29:27Z</time></trkpt><trkpt lat="43.577660784544086" lon="11.355882986204527"><ele>625.0</ele><time>2026-03-22T11:29:28Z</time></trkpt><trkpt lat="43.57771646471084" lon="11.355804453788028"><ele>625.0</ele><time>2026-03-22T11:29:29Z</time></trkpt><trkpt lat="43.577757607631455" lon="11.355721422855895"><ele>625.0</ele><time>2026-03-22T11:29:30Z</time></trkpt><trkpt lat="43.5778054699393" lon="11.355621027887809"><ele>625.0</ele><time>2026-03-22T11:29:31Z</time></trkpt><trkpt lat="43.57784905864497" lon="11.35551685393251"><ele>625.0</ele><time>2026-03-22T11:29:32Z</time></trkpt><trkpt lat="43.577890615098895" lon="11.355438319722085"><ele>625.0</ele><time>2026-03-22T11:29:33Z</time></trkpt><trkpt lat="43.577945491266135" lon="11.355346073475744"><ele>625.0</ele><time>2026-03-22T11:29:34Z</time></trkpt><trkpt lat="43.57801018014547" lon="11.35528186997582"><ele>623.1666666666667</ele><time>2026-03-22T11:29:35Z</time></trkpt><trkpt lat="43.57806669125009" lon="11.355202006702173"><ele>621.3333333333334</ele><time>2026-03-22T11:29:36Z</time></trkpt><trkpt lat="43.578133581863895" lon="11.355153024727795"><ele>619.5</ele><time>2026-03-22T11:29:37Z</time></trkpt><trkpt lat="43.57820210660346" lon="11.355115567050925"><ele>617.6666666666666</ele><time>2026-03-22T11:29:38Z</time></trkpt><trkpt lat="43.57824807053125" lon="11.355048627133675"><ele>615.8333333333333</ele><time>2026-03-22T11:29:39Z</time></trkpt><trkpt lat="43.57831446390665" lon="11.354967601652072"><ele>614.0</ele><time>2026-03-22T11:29:52Z</time></trkpt><trkpt lat="43.5783712232031" lon="11.3548752280324"><ele>614.0</ele><time>2026-03-22T11:29:53Z</time></trkpt><trkpt lat="43.57843700774135" lon="11.354747809111965"><ele>614.0</ele><time>2026-03-22T11:29:54Z</time></trkpt><trkpt lat="43.5784517610148" lon="11.354628339165377"><ele>614.0</ele><time>2026-03-22T11:29:55Z</time></trkpt><trkpt lat="43.57846101405484" lon="11.35451977701921"><ele>614.0</ele><time>2026-03-22T11:29:56Z</time></trkpt><trkpt lat="43.57847382493102" lon="11.354388995228717"><ele>614.0</ele><time>2026-03-22T11:29:57Z</time></trkpt><trkpt lat="43.5785307165582" lon="11.35426079164723"><ele>613.4</ele><time>2026-03-22T11:29:58Z</time></trkpt><trkpt lat="43.578576358785114" lon="11.354118198608827"><ele>612.8</ele><time>2026-03-22T11:29:59Z</time></trkpt><trkpt lat="43.5786055759714" lon="11.353975230672349"><ele>612.2</ele><time>2026-03-22T11:30:00Z</time></trkpt><trkpt lat="43.578636203071525" lon="11.353864407165217"><ele>611.6</ele><time>2026-03-22T11:30:01Z</time></trkpt><trkpt lat="43.57866364291992" lon="11.353770095433077"><ele>611.0</ele><time>2026-03-22T11:30:02Z</time></trkpt><trkpt lat="43.57872209166891" lon="11.35369648441014"><ele>610.0</ele><time>2026-03-22T11:30:03Z</time></trkpt><trkpt lat="43.57875717358844" lon="11.353541088024995"><ele>609.0</ele><time>2026-03-22T11:30:05Z</time></trkpt><trkpt lat="43.5787368615828" lon="11.353451811594477"><ele>608.0</ele><time>2026-03-22T11:30:06Z</time></trkpt><trkpt lat="43.57867574633306" lon="11.35335865708779"><ele>607.0</ele><time>2026-03-22T11:30:07Z</time></trkpt><trkpt lat="43.57860083946104" lon="11.353251161423158"><ele>606.0</ele><time>2026-03-22T11:30:08Z</time></trkpt><trkpt lat="43.578520499161264" lon="11.353138656053213"><ele>604.4</ele><time>2026-03-22T11:30:09Z</time></trkpt><trkpt lat="43.57845399588901" lon="11.353025518879106"><ele>602.8</ele><time>2026-03-22T11:30:10Z</time></trkpt><trkpt lat="43.578405745343105" lon="11.352904988289012"><ele>601.1999999999999</ele><time>2026-03-22T11:30:11Z</time></trkpt><trkpt lat="43.57835977601117" lon="11.352802134080724"><ele>599.6</ele><time>2026-03-22T11:30:12Z</time></trkpt><trkpt lat="43.578300957254434" lon="11.352704880876308"><ele>598.0</ele><time>2026-03-22T11:30:13Z</time></trkpt><trkpt lat="43.57824290367849" lon="11.352601443080495"><ele>598.0</ele><time>2026-03-22T11:30:14Z</time></trkpt><trkpt lat="43.57819374612591" lon="11.352495924839706"><ele>598.0</ele><time>2026-03-22T11:30:15Z</time></trkpt><trkpt lat="43.57814833479924" lon="11.352390955783275"><ele>598.0</ele><time>2026-03-22T11:30:16Z</time></trkpt><trkpt lat="43.57809740247017" lon="11.352289777424332"><ele>598.0</ele><time>2026-03-22T11:30:16.999Z</time></trkpt><trkpt lat="43.57803841738112" lon="11.35220257146601"><ele>598.0</ele><time>2026-03-22T11:30:17.999Z</time></trkpt><trkpt lat="43.57798295488219" lon="11.35212376992373"><ele>598.0</ele><time>2026-03-22T11:30:18.999Z</time></trkpt><trkpt lat="43.57792448342084" lon="11.352038160079141"><ele>597.0</ele><time>2026-03-22T11:30:19.999Z</time></trkpt><trkpt lat="43.57785339652125" lon="11.351940741409306"><ele>596.0</ele><time>2026-03-22T11:30:20.999Z</time></trkpt><trkpt lat="43.57778426690571" lon="11.35184479118796"><ele>595.0</ele><time>2026-03-22T11:30:21.999Z</time></trkpt><trkpt lat="43.577720433605855" lon="11.351754366285297"><ele>594.0</ele><time>2026-03-22T11:30:22.999Z</time></trkpt><trkpt lat="43.57765725222792" lon="11.35165124068203"><ele>593.0</ele><time>2026-03-22T11:30:23.999Z</time></trkpt><trkpt lat="43.57760262678527" lon="11.351550956420905"><ele>593.0</ele><time>2026-03-22T11:30:24.999Z</time></trkpt><trkpt lat="43.577558288445495" lon="11.351471459845609"><ele>593.0</ele><time>2026-03-22T11:30:25.999Z</time></trkpt><trkpt lat="43.57751223107642" lon="11.351400246794675"><ele>593.0</ele><time>2026-03-22T11:30:26.999Z</time></trkpt><trkpt lat="43.57742462719446" lon="11.351276246026096"><ele>593.0</ele><time>2026-03-22T11:30:28.999Z</time></trkpt><trkpt lat="43.57736622504613" lon="11.351128356839602"><ele>593.0</ele><time>2026-03-22T11:30:30.999Z</time></trkpt><trkpt lat="43.57728871384075" lon="11.351039502039878"><ele>591.8333333333333</ele><time>2026-03-22T11:30:32.999Z</time></trkpt><trkpt lat="43.577210097140075" lon="11.351057417870187"><ele>590.6666666666666</ele><time>2026-03-22T11:30:33.999Z</time></trkpt><trkpt lat="43.57712475182313" lon="11.351108207804376"><ele>589.5</ele><time>2026-03-22T11:30:34.999Z</time></trkpt><trkpt lat="43.57704431696696" lon="11.351156035677773"><ele>588.3333333333334</ele><time>2026-03-22T11:30:35.999Z</time></trkpt><trkpt lat="43.57697793551392" lon="11.351190065651876"><ele>587.1666666666667</ele><time>2026-03-22T11:30:36.999Z</time></trkpt><trkpt lat="43.576874289695276" lon="11.351208662996504"><ele>586.0</ele><time>2026-03-22T11:30:38.999Z</time></trkpt><trkpt lat="43.576747619845534" lon="11.351149102499994"><ele>585.3333333333334</ele><time>2026-03-22T11:30:40.999Z</time></trkpt><trkpt lat="43.57667449554962" lon="11.351116231251506"><ele>584.6666666666667</ele><time>2026-03-22T11:30:41.999Z</time></trkpt><trkpt lat="43.57659896457962" lon="11.351090089188162"><ele>584.0</ele><time>2026-03-22T11:30:42.999Z</time></trkpt><trkpt lat="43.57651661933314" lon="11.351027523473325"><ele>583.3333333333334</ele><time>2026-03-22T11:30:43.999Z</time></trkpt><trkpt lat="43.57642196046059" lon="11.35097550579534"><ele>582.6666666666666</ele><time>2026-03-22T11:30:44.999Z</time></trkpt><trkpt lat="43.57635188519157" lon="11.350929853818334"><ele>582.0</ele><time>2026-03-22T11:30:45.999Z</time></trkpt><trkpt lat="43.57627947316002" lon="11.35090200302574"><ele>582.0</ele><time>2026-03-22T11:30:46.999Z</time></trkpt><trkpt lat="43.57619399821029" lon="11.350864970588878"><ele>582.0</ele><time>2026-03-22T11:30:47.999Z</time></trkpt><trkpt lat="43.57611043344124" lon="11.350824600693143"><ele>582.0</ele><time>2026-03-22T11:30:48.999Z</time></trkpt><trkpt lat="43.57604912301844" lon="11.350744904595063"><ele>582.0</ele><time>2026-03-22T11:30:49.999Z</time></trkpt><trkpt lat="43.57598117939435" lon="11.350695607815384"><ele>582.0</ele><time>2026-03-22T11:30:50.999Z</time></trkpt><trkpt lat="43.575921140234186" lon="11.350627145271533"><ele>582.0</ele><time>2026-03-22T11:30:51.999Z</time></trkpt><trkpt lat="43.57586254608167" lon="11.350567610505479"><ele>579.3333333333334</ele><time>2026-03-22T11:30:52.999Z</time></trkpt><trkpt lat="43.57580351992201" lon="11.350522513381513"><ele>576.6666666666666</ele><time>2026-03-22T11:30:53.999Z</time></trkpt><trkpt lat="43.57574674866121" lon="11.35045968612221"><ele>574.0</ele><time>2026-03-22T11:30:54.999Z</time></trkpt><trkpt lat="43.57567354979467" lon="11.350450376822149"><ele>571.3333333333333</ele><time>2026-03-22T11:30:55.999Z</time></trkpt><trkpt lat="43.57558531466596" lon="11.350306716839071"><ele>568.6666666666666</ele><time>2026-03-22T11:30:57.999Z</time></trkpt><trkpt lat="43.575535464470065" lon="11.350196151794249"><ele>566.0</ele><time>2026-03-22T11:30:58.999Z</time></trkpt><trkpt lat="43.57547008705398" lon="11.35010018459345"><ele>566.0</ele><time>2026-03-22T11:30:59.999Z</time></trkpt><trkpt lat="43.57541473214279" lon="11.350024133741552"><ele>566.0</ele><time>2026-03-22T11:31:00.999Z</time></trkpt><trkpt lat="43.57537649594535" lon="11.349953509371984"><ele>566.0</ele><time>2026-03-22T11:31:01.999Z</time></trkpt><trkpt lat="43.575347964348914" lon="11.349870697745533"><ele>566.0</ele><time>2026-03-22T11:31:02.999Z</time></trkpt><trkpt lat="43.575314609862964" lon="11.34979363588861"><ele>566.0</ele><time>2026-03-22T11:31:03.999Z</time></trkpt><trkpt lat="43.575260700665766" lon="11.349734138596737"><ele>566.0</ele><time>2026-03-22T11:31:04.999Z</time></trkpt><trkpt lat="43.575196188461184" lon="11.349684692774076"><ele>566.0</ele><time>2026-03-22T11:31:05.999Z</time></trkpt><trkpt lat="43.57512997994792" lon="11.349608432466844"><ele>564.0</ele><time>2026-03-22T11:31:06.999Z</time></trkpt><trkpt lat="43.575057173712054" lon="11.349576872404167"><ele>562.0</ele><time>2026-03-22T11:31:07.999Z</time></trkpt><trkpt lat="43.57499073658037" lon="11.349523721735597"><ele>560.0</ele><time>2026-03-22T11:31:08.999Z</time></trkpt><trkpt lat="43.574938010765685" lon="11.34944348590664"><ele>558.0</ele><time>2026-03-22T11:31:09.999Z</time></trkpt><trkpt lat="43.574851205583556" lon="11.34942061845902"><ele>556.0</ele><time>2026-03-22T11:31:10.999Z</time></trkpt><trkpt lat="43.574780743161476" lon="11.349412716895912"><ele>554.0</ele><time>2026-03-22T11:31:11.999Z</time></trkpt><trkpt lat="43.574688606851545" lon="11.349416444733892"><ele>554.0</ele><time>2026-03-22T11:31:13.999Z</time></trkpt><trkpt lat="43.574658000315225" lon="11.34923560921932"><ele>554.0</ele><time>2026-03-22T11:31:15.999Z</time></trkpt><trkpt lat="43.574626120218156" lon="11.349132558207465"><ele>554.0</ele><time>2026-03-22T11:31:16.999Z</time></trkpt><trkpt lat="43.57456993130189" lon="11.349014324786664"><ele>554.0</ele><time>2026-03-22T11:31:17.999Z</time></trkpt><trkpt lat="43.574507459118585" lon="11.348889687285652"><ele>554.0</ele><time>2026-03-22T11:31:18.999Z</time></trkpt><trkpt lat="43.57446813752281" lon="11.348751659604309"><ele>549.0</ele><time>2026-03-22T11:31:19.999Z</time></trkpt><trkpt lat="43.57442998803004" lon="11.348618703693848"><ele>544.0</ele><time>2026-03-22T11:31:20.999Z</time></trkpt><trkpt lat="43.5743969314523" lon="11.348494845605906"><ele>539.0</ele><time>2026-03-22T11:31:21.999Z</time></trkpt><trkpt lat="43.57437139190875" lon="11.348366643212504"><ele>534.0</ele><time>2026-03-22T11:31:22.998Z</time></trkpt><trkpt lat="43.57435660027837" lon="11.348231885460775"><ele>529.0</ele><time>2026-03-22T11:31:23.998Z</time></trkpt><trkpt lat="43.57434245262701" lon="11.348098588651723"><ele>527.4</ele><time>2026-03-22T11:31:24.998Z</time></trkpt><trkpt lat="43.57433837135488" lon="11.347958470013403"><ele>525.8</ele><time>2026-03-22T11:31:25.998Z</time></trkpt><trkpt lat="43.574319757747865" lon="11.3478166189653"><ele>524.2</ele><time>2026-03-22T11:31:26.998Z</time></trkpt><trkpt lat="43.574316997568516" lon="11.347679463129838"><ele>522.6</ele><time>2026-03-22T11:31:27.998Z</time></trkpt><trkpt lat="43.57430947592496" lon="11.347552371066786"><ele>521.0</ele><time>2026-03-22T11:31:28.998Z</time></trkpt><trkpt lat="43.574308283014865" lon="11.347428764676797"><ele>521.0</ele><time>2026-03-22T11:31:29.998Z</time></trkpt><trkpt lat="43.57429614417015" lon="11.34731614785558"><ele>521.0</ele><time>2026-03-22T11:31:31Z</time></trkpt><trkpt lat="43.5742685753936" lon="11.347207995652676"><ele>521.0</ele><time>2026-03-22T11:31:32Z</time></trkpt><trkpt lat="43.57425194657726" lon="11.347118077476436"><ele>521.0</ele><time>2026-03-22T11:31:33Z</time></trkpt><trkpt lat="43.57421439121322" lon="11.346991723527884"><ele>521.0</ele><time>2026-03-22T11:31:35Z</time></trkpt><trkpt lat="43.57414204555597" lon="11.346915658284528"><ele>521.0</ele><time>2026-03-22T11:31:37Z</time></trkpt><trkpt lat="43.57407698846691" lon="11.34692378861376"><ele>518.4</ele><time>2026-03-22T11:31:38Z</time></trkpt><trkpt lat="43.573945574339454" lon="11.34694078929268"><ele>515.8</ele><time>2026-03-22T11:31:40Z</time></trkpt><trkpt lat="43.57384099835152" lon="11.346934350527215"><ele>513.1999999999999</ele><time>2026-03-22T11:31:42Z</time></trkpt><trkpt lat="43.57377826764611" lon="11.34691219806782"><ele>510.59999999999997</ele><time>2026-03-22T11:31:43Z</time></trkpt><trkpt lat="43.57368855885285" lon="11.346888949172351"><ele>508.0</ele><time>2026-03-22T11:31:44Z</time></trkpt><trkpt lat="43.5735934177698" lon="11.346881559629045"><ele>506.79999999999995</ele><time>2026-03-22T11:31:45Z</time></trkpt><trkpt lat="43.57349615240586" lon="11.346877850726358"><ele>505.59999999999997</ele><time>2026-03-22T11:31:46Z</time></trkpt><trkpt lat="43.57339349645137" lon="11.346875930654152"><ele>504.40000000000003</ele><time>2026-03-22T11:31:47Z</time></trkpt><trkpt lat="43.57329553702704" lon="11.346832993179083"><ele>503.20000000000005</ele><time>2026-03-22T11:31:48Z</time></trkpt><trkpt lat="43.5731883966931" lon="11.346799524162954"><ele>502.0</ele><time>2026-03-22T11:31:49Z</time></trkpt><trkpt lat="43.57308306023234" lon="11.34674195213363"><ele>502.0</ele><time>2026-03-22T11:31:50Z</time></trkpt><trkpt lat="43.572978250482095" lon="11.346684968267502"><ele>502.0</ele><time>2026-03-22T11:31:51Z</time></trkpt><trkpt lat="43.57287227683603" lon="11.346626749710184"><ele>502.0</ele><time>2026-03-22T11:31:52Z</time></trkpt><trkpt lat="43.5727713112873" lon="11.34656713226455"><ele>502.0</ele><time>2026-03-22T11:31:53Z</time></trkpt><trkpt lat="43.57267194242093" lon="11.3464860369907"><ele>499.6</ele><time>2026-03-22T11:31:54Z</time></trkpt><trkpt lat="43.572583338927835" lon="11.346387745321358"><ele>497.20000000000005</ele><time>2026-03-22T11:31:55Z</time></trkpt><trkpt lat="43.57250553863939" lon="11.346284510817403"><ele>494.8</ele><time>2026-03-22T11:31:56Z</time></trkpt><trkpt lat="43.57243087636738" lon="11.346179311323004"><ele>492.4</ele><time>2026-03-22T11:31:57Z</time></trkpt><trkpt lat="43.57236207502719" lon="11.346084902451926"><ele>490.0</ele><time>2026-03-22T11:31:58Z</time></trkpt><trkpt lat="43.572302690143594" lon="11.345990206976737"><ele>490.0</ele><time>2026-03-22T11:31:59Z</time></trkpt><trkpt lat="43.57225705309341" lon="11.345885053762801"><ele>490.0</ele><time>2026-03-22T11:32:00Z</time></trkpt><trkpt lat="43.57222658608721" lon="11.345770570708694"><ele>490.0</ele><time>2026-03-22T11:32:01Z</time></trkpt><trkpt lat="43.57218679902171" lon="11.345654010256277"><ele>490.0</ele><time>2026-03-22T11:32:02Z</time></trkpt><trkpt lat="43.572167307009416" lon="11.34551678072548"><ele>490.0</ele><time>2026-03-22T11:32:03Z</time></trkpt><trkpt lat="43.57214888183436" lon="11.345365185040611"><ele>488.6</ele><time>2026-03-22T11:32:04Z</time></trkpt><trkpt lat="43.572128328807494" lon="11.345214312151345"><ele>487.2</ele><time>2026-03-22T11:32:05Z</time></trkpt><trkpt lat="43.572120105769265" lon="11.34507717441129"><ele>485.79999999999995</ele><time>2026-03-22T11:32:06Z</time></trkpt><trkpt lat="43.57208409230412" lon="11.344945397024379"><ele>484.4</ele><time>2026-03-22T11:32:07Z</time></trkpt><trkpt lat="43.572036099389585" lon="11.344819211286095"><ele>483.0</ele><time>2026-03-22T11:32:08Z</time></trkpt><trkpt lat="43.57197771706572" lon="11.344704430061345"><ele>480.0</ele><time>2026-03-22T11:32:09Z</time></trkpt><trkpt lat="43.5719084165952" lon="11.34459290388724"><ele>476.99999999999994</ele><time>2026-03-22T11:32:10Z</time></trkpt><trkpt lat="43.571844726287175" lon="11.344491754603363"><ele>473.99999999999994</ele><time>2026-03-22T11:32:11Z</time></trkpt><trkpt lat="43.571782433196844" lon="11.344391059471928"><ele>471.0</ele><time>2026-03-22T11:32:12Z</time></trkpt><trkpt lat="43.571720292853826" lon="11.344286910683794"><ele>468.0</ele><time>2026-03-22T11:32:13Z</time></trkpt><trkpt lat="43.57166193319068" lon="11.344176331989603"><ele>468.0</ele><time>2026-03-22T11:32:14Z</time></trkpt><trkpt lat="43.57161369385969" lon="11.34405113043213"><ele>467.99999999999994</ele><time>2026-03-22T11:32:15Z</time></trkpt><trkpt lat="43.571561955413614" lon="11.343927813782646"><ele>467.99999999999994</ele><time>2026-03-22T11:32:16Z</time></trkpt><trkpt lat="43.57148945544518" lon="11.343811007796873"><ele>468.0</ele><time>2026-03-22T11:32:17Z</time></trkpt><trkpt lat="43.57140091742868" lon="11.343701941577109"><ele>468.0</ele><time>2026-03-22T11:32:17.999Z</time></trkpt><trkpt lat="43.571303737877855" lon="11.343601812996436"><ele>464.75</ele><time>2026-03-22T11:32:18.999Z</time></trkpt><trkpt lat="43.57120221045469" lon="11.343502184044542"><ele>461.5</ele><time>2026-03-22T11:32:19.999Z</time></trkpt><trkpt lat="43.571107898167476" lon="11.34338999756202"><ele>458.25</ele><time>2026-03-22T11:32:20.999Z</time></trkpt><trkpt lat="43.571024886546724" lon="11.34326845564129"><ele>455.0</ele><time>2026-03-22T11:32:21.999Z</time></trkpt><trkpt lat="43.570947195606976" lon="11.343140150500751"><ele>452.2</ele><time>2026-03-22T11:32:22.999Z</time></trkpt><trkpt lat="43.57087374982821" lon="11.343029357139685"><ele>449.4</ele><time>2026-03-22T11:32:23.999Z</time></trkpt><trkpt lat="43.57079957043393" lon="11.342933477716231"><ele>446.6</ele><time>2026-03-22T11:32:24.999Z</time></trkpt><trkpt lat="43.57072757143101" lon="11.342855336819657"><ele>443.8</ele><time>2026-03-22T11:32:25.999Z</time></trkpt><trkpt lat="43.57066588125639" lon="11.3428013287088"><ele>441.0</ele><time>2026-03-22T11:32:26.999Z</time></trkpt><trkpt lat="43.57058237240623" lon="11.342702823070901"><ele>441.0</ele><time>2026-03-22T11:32:28.999Z</time></trkpt><trkpt lat="43.57056947039427" lon="11.342513394295544"><ele>441.0</ele><time>2026-03-22T11:32:30.999Z</time></trkpt><trkpt lat="43.570687887604784" lon="11.342444868185778"><ele>441.0</ele><time>2026-03-22T11:32:31.999Z</time></trkpt><trkpt lat="43.57077514145578" lon="11.342396059893515"><ele>441.0</ele><time>2026-03-22T11:32:32.999Z</time></trkpt><trkpt lat="43.5708503060881" lon="11.342341169600267"><ele>441.0</ele><time>2026-03-22T11:32:33.999Z</time></trkpt><trkpt lat="43.570923559856524" lon="11.342273239385277"><ele>438.3333333333333</ele><time>2026-03-22T11:32:34.999Z</time></trkpt><trkpt lat="43.570998985074276" lon="11.342207846005522"><ele>435.66666666666663</ele><time>2026-03-22T11:32:35.999Z</time></trkpt><trkpt lat="43.57106266486072" lon="11.342144720000382"><ele>433.0</ele><time>2026-03-22T11:32:36.999Z</time></trkpt><trkpt lat="43.57111982876427" lon="11.342069189761085"><ele>430.3333333333333</ele><time>2026-03-22T11:32:37.999Z</time></trkpt><trkpt lat="43.57115396812772" lon="11.341966161258238"><ele>427.66666666666663</ele><time>2026-03-22T11:32:38.999Z</time></trkpt><trkpt lat="43.571167349906744" lon="11.341841881090813"><ele>425.0</ele><time>2026-03-22T11:32:39.999Z</time></trkpt><trkpt lat="43.571186470751826" lon="11.341690953131879"><ele>425.0</ele><time>2026-03-22T11:32:40.999Z</time></trkpt><trkpt lat="43.571233345007855" lon="11.341554507214282"><ele>425.0</ele><time>2026-03-22T11:32:41.999Z</time></trkpt><trkpt lat="43.57126362174721" lon="11.341424953542354"><ele>425.0</ele><time>2026-03-22T11:32:42.999Z</time></trkpt><trkpt lat="43.57128510236759" lon="11.3413012129252"><ele>425.0</ele><time>2026-03-22T11:32:43.999Z</time></trkpt><trkpt lat="43.57130058765126" lon="11.341178425147985"><ele>425.0</ele><time>2026-03-22T11:32:44.999Z</time></trkpt><trkpt lat="43.57130426468934" lon="11.341057595482619"><ele>423.0</ele><time>2026-03-22T11:32:45.999Z</time></trkpt><trkpt lat="43.57130425967727" lon="11.340928105586412"><ele>421.0</ele><time>2026-03-22T11:32:46.999Z</time></trkpt><trkpt lat="43.571315558907656" lon="11.340790270231217"><ele>419.0</ele><time>2026-03-22T11:32:47.999Z</time></trkpt><trkpt lat="43.57127812727104" lon="11.340659649717173"><ele>417.0</ele><time>2026-03-22T11:32:48.999Z</time></trkpt><trkpt lat="43.57125621036217" lon="11.340517262411195"><ele>415.0</ele><time>2026-03-22T11:32:49.999Z</time></trkpt><trkpt lat="43.57123040525675" lon="11.340355243688391"><ele>413.8</ele><time>2026-03-22T11:32:50.999Z</time></trkpt><trkpt lat="43.571205369254116" lon="11.340218109385939"><ele>412.6</ele><time>2026-03-22T11:32:51.999Z</time></trkpt><trkpt lat="43.571176735708" lon="11.340064756852529"><ele>411.4</ele><time>2026-03-22T11:32:52.999Z</time></trkpt><trkpt lat="43.57115110906409" lon="11.339917600011061"><ele>410.2</ele><time>2026-03-22T11:32:53.999Z</time></trkpt><trkpt lat="43.571129405773554" lon="11.33977279534518"><ele>409.0</ele><time>2026-03-22T11:32:54.999Z</time></trkpt><trkpt lat="43.57111332169332" lon="11.33963415377506"><ele>408.1666666666667</ele><time>2026-03-22T11:32:55.999Z</time></trkpt><trkpt lat="43.57110607515771" lon="11.33951372452113"><ele>407.33333333333337</ele><time>2026-03-22T11:32:56.999Z</time></trkpt><trkpt lat="43.571100259591645" lon="11.339404937436935"><ele>406.5</ele><time>2026-03-22T11:32:57.999Z</time></trkpt><trkpt lat="43.57109527261189" lon="11.33929666321604"><ele>405.66666666666663</ele><time>2026-03-22T11:32:58.999Z</time></trkpt><trkpt lat="43.571089031471196" lon="11.339197467506459"><ele>404.8333333333333</ele><time>2026-03-22T11:32:59.999Z</time></trkpt><trkpt lat="43.57109270128679" lon="11.339105683578339"><ele>404.0</ele><time>2026-03-22T11:33:00.999Z</time></trkpt><trkpt lat="43.57106281195792" lon="11.33902255795415"><ele>403.99999999999994</ele><time>2026-03-22T11:33:01.999Z</time></trkpt><trkpt lat="43.57101633797856" lon="11.338949560464698"><ele>404.0</ele><time>2026-03-22T11:33:02.999Z</time></trkpt><trkpt lat="43.570966463988526" lon="11.338878629875937"><ele>404.0</ele><time>2026-03-22T11:33:03.999Z</time></trkpt><trkpt lat="43.57088623363483" lon="11.338815154476785"><ele>404.0</ele><time>2026-03-22T11:33:04.999Z</time></trkpt><trkpt lat="43.57079973311973" lon="11.33879094315024"><ele>403.99999999999994</ele><time>2026-03-22T11:33:05.999Z</time></trkpt><trkpt lat="43.57073615950703" lon="11.338800006842645"><ele>404.0</ele><time>2026-03-22T11:33:06.999Z</time></trkpt><trkpt lat="43.57064348094844" lon="11.33876031533934"><ele>401.25</ele><time>2026-03-22T11:33:08.999Z</time></trkpt><trkpt lat="43.570581243405805" lon="11.338583802132243"><ele>398.5</ele><time>2026-03-22T11:33:10.999Z</time></trkpt><trkpt lat="43.570612830139055" lon="11.338440489560217"><ele>395.75</ele><time>2026-03-22T11:33:11.999Z</time></trkpt><trkpt lat="43.57063629582701" lon="11.33830176224416"><ele>393.0</ele><time>2026-03-22T11:33:12.999Z</time></trkpt><trkpt lat="43.57066510914852" lon="11.338162641395536"><ele>390.3333333333333</ele><time>2026-03-22T11:33:13.999Z</time></trkpt><trkpt lat="43.57069496702235" lon="11.338033734809947"><ele>387.6666666666667</ele><time>2026-03-22T11:33:14.999Z</time></trkpt><trkpt lat="43.57072300694638" lon="11.337916705660326"><ele>385.0</ele><time>2026-03-22T11:33:15.999Z</time></trkpt><trkpt lat="43.570748210190615" lon="11.337807224875927"><ele>382.33333333333337</ele><time>2026-03-22T11:33:16.999Z</time></trkpt><trkpt lat="43.570770605382776" lon="11.337700872757349"><ele>379.6666666666667</ele><time>2026-03-22T11:33:17.999Z</time></trkpt><trkpt lat="43.57078885162458" lon="11.337600781366502"><ele>377.0</ele><time>2026-03-22T11:33:18.999Z</time></trkpt><trkpt lat="43.5707944523423" lon="11.337502666838798"><ele>377.0</ele><time>2026-03-22T11:33:19.999Z</time></trkpt><trkpt lat="43.57078926931001" lon="11.33740814679907"><ele>377.0</ele><time>2026-03-22T11:33:20.999Z</time></trkpt><trkpt lat="43.57079104251684" lon="11.337303012514582"><ele>377.0</ele><time>2026-03-22T11:33:21.999Z</time></trkpt><trkpt lat="43.57075926311461" lon="11.337210089463014"><ele>377.0</ele><time>2026-03-22T11:33:22.998Z</time></trkpt><trkpt lat="43.570722111072484" lon="11.337120210740919"><ele>377.0</ele><time>2026-03-22T11:33:23.998Z</time></trkpt><trkpt lat="43.57072783211372" lon="11.33699643471152"><ele>377.0</ele><time>2026-03-22T11:33:24.998Z</time></trkpt><trkpt lat="43.57077861009446" lon="11.33688643036957"><ele>375.20000000000005</ele><time>2026-03-22T11:33:25.998Z</time></trkpt><trkpt lat="43.57080569596228" lon="11.336769757737747"><ele>373.4</ele><time>2026-03-22T11:33:26.998Z</time></trkpt><trkpt lat="43.57080720022328" lon="11.336643777966236"><ele>371.6</ele><time>2026-03-22T11:33:27.998Z</time></trkpt><trkpt lat="43.570788458843296" lon="11.336508505745261"><ele>369.79999999999995</ele><time>2026-03-22T11:33:28.998Z</time></trkpt><trkpt lat="43.5707697998063" lon="11.336358704755273"><ele>368.0</ele><time>2026-03-22T11:33:29.998Z</time></trkpt><trkpt lat="43.570751386299" lon="11.336210395491765"><ele>366.2</ele><time>2026-03-22T11:33:30.998Z</time></trkpt><trkpt lat="43.570733245412505" lon="11.33606428190529"><ele>364.4</ele><time>2026-03-22T11:33:31.998Z</time></trkpt><trkpt lat="43.57071473330563" lon="11.335915178399942"><ele>362.59999999999997</ele><time>2026-03-22T11:33:32.998Z</time></trkpt><trkpt lat="43.57069598623198" lon="11.335764198726926"><ele>360.79999999999995</ele><time>2026-03-22T11:33:33.998Z</time></trkpt><trkpt lat="43.570678494207264" lon="11.335615583225582"><ele>359.0</ele><time>2026-03-22T11:33:34.998Z</time></trkpt><trkpt lat="43.57066382343861" lon="11.335483146815392"><ele>357.2</ele><time>2026-03-22T11:33:36Z</time></trkpt><trkpt lat="43.57065174711008" lon="11.335347403678947"><ele>355.4</ele><time>2026-03-22T11:33:37Z</time></trkpt><trkpt lat="43.57064108469838" lon="11.33520975419375"><ele>353.6</ele><time>2026-03-22T11:33:38Z</time></trkpt><trkpt lat="43.570630230160205" lon="11.335069624530256"><ele>351.8</ele><time>2026-03-22T11:33:39Z</time></trkpt><trkpt lat="43.570619333740574" lon="11.334928953991978"><ele>350.0</ele><time>2026-03-22T11:33:40Z</time></trkpt><trkpt lat="43.570606579758255" lon="11.334785925825424"><ele>348.2</ele><time>2026-03-22T11:33:41Z</time></trkpt><trkpt lat="43.570593676150736" lon="11.334644941921301"><ele>346.4</ele><time>2026-03-22T11:33:42Z</time></trkpt><trkpt lat="43.57058237288189" lon="11.334505806317487"><ele>344.6</ele><time>2026-03-22T11:33:43Z</time></trkpt><trkpt lat="43.57057150343336" lon="11.33436055874885"><ele>342.8</ele><time>2026-03-22T11:33:44Z</time></trkpt><trkpt lat="43.57056121326035" lon="11.334215440880714"><ele>341.0</ele><time>2026-03-22T11:33:45Z</time></trkpt><trkpt lat="43.570548010975365" lon="11.334079367335196"><ele>341.0</ele><time>2026-03-22T11:33:46Z</time></trkpt><trkpt lat="43.57053261437331" lon="11.333938263265047"><ele>341.0</ele><time>2026-03-22T11:33:47Z</time></trkpt><trkpt lat="43.57052782613302" lon="11.333803507770893"><ele>341.0</ele><time>2026-03-22T11:33:48Z</time></trkpt><trkpt lat="43.57049380776416" lon="11.333679144616713"><ele>341.0</ele><time>2026-03-22T11:33:49Z</time></trkpt><trkpt lat="43.57045054431902" lon="11.333545218161998"><ele>341.0</ele><time>2026-03-22T11:33:50Z</time></trkpt><trkpt lat="43.57040431595394" lon="11.333427469131168"><ele>339.20000000000005</ele><time>2026-03-22T11:33:51Z</time></trkpt><trkpt lat="43.57034826112865" lon="11.333308864241426"><ele>337.40000000000003</ele><time>2026-03-22T11:33:52Z</time></trkpt><trkpt lat="43.570288700172384" lon="11.333192230092493"><ele>335.6</ele><time>2026-03-22T11:33:53Z</time></trkpt><trkpt lat="43.57022609121283" lon="11.333073031498296"><ele>333.8</ele><time>2026-03-22T11:33:54Z</time></trkpt><trkpt lat="43.57016575867142" lon="11.33295659925584"><ele>332.0</ele><time>2026-03-22T11:33:55Z</time></trkpt><trkpt lat="43.57010391648199" lon="11.332837022241547"><ele>330.6</ele><time>2026-03-22T11:33:56Z</time></trkpt><trkpt lat="43.57004250412151" lon="11.33272007678482"><ele>329.20000000000005</ele><time>2026-03-22T11:33:57Z</time></trkpt><trkpt lat="43.56998044524216" lon="11.332610163540712"><ele>327.8</ele><time>2026-03-22T11:33:58Z</time></trkpt><trkpt lat="43.5699167694436" lon="11.332501426505086"><ele>326.4</ele><time>2026-03-22T11:33:59Z</time></trkpt><trkpt lat="43.56985346035553" lon="11.332391641797543"><ele>325.0</ele><time>2026-03-22T11:34:00Z</time></trkpt><trkpt lat="43.56978977416805" lon="11.332295777299896"><ele>323.66666666666663</ele><time>2026-03-22T11:34:01Z</time></trkpt><trkpt lat="43.56972955568109" lon="11.332214636960227"><ele>322.3333333333333</ele><time>2026-03-22T11:34:02Z</time></trkpt><trkpt lat="43.56967353829058" lon="11.332139265541617"><ele>321.0</ele><time>2026-03-22T11:34:03Z</time></trkpt><trkpt lat="43.56961787141519" lon="11.332062756203923"><ele>319.6666666666667</ele><time>2026-03-22T11:34:04Z</time></trkpt><trkpt lat="43.56957053739754" lon="11.331986898034756"><ele>318.33333333333337</ele><time>2026-03-22T11:34:05Z</time></trkpt><trkpt lat="43.56953098818898" lon="11.331879927105183"><ele>317.0</ele><time>2026-03-22T11:34:06Z</time></trkpt><trkpt lat="43.569506551238355" lon="11.331749961659112"><ele>314.75</ele><time>2026-03-22T11:34:07Z</time></trkpt><trkpt lat="43.5694594654356" lon="11.33159811753814"><ele>312.5</ele><time>2026-03-22T11:34:08Z</time></trkpt><trkpt lat="43.56941935085809" lon="11.33143934319721"><ele>310.25</ele><time>2026-03-22T11:34:09Z</time></trkpt><trkpt lat="43.56937113129948" lon="11.331258922770166"><ele>308.0</ele><time>2026-03-22T11:34:10Z</time></trkpt><trkpt lat="43.56931844898034" lon="11.33108798435163"><ele>307.6</ele><time>2026-03-22T11:34:11Z</time></trkpt><trkpt lat="43.56926814522612" lon="11.330931601174626"><ele>307.20000000000005</ele><time>2026-03-22T11:34:12Z</time></trkpt><trkpt lat="43.56922841592953" lon="11.33078938375889"><ele>306.8</ele><time>2026-03-22T11:34:13Z</time></trkpt><trkpt lat="43.56920007226406" lon="11.330649209764339"><ele>306.40000000000003</ele><time>2026-03-22T11:34:14Z</time></trkpt><trkpt lat="43.569151210828544" lon="11.330520249392436"><ele>306.0</ele><time>2026-03-22T11:34:15Z</time></trkpt><trkpt lat="43.56910697020494" lon="11.330400815519658"><ele>305.2</ele><time>2026-03-22T11:34:16Z</time></trkpt><trkpt lat="43.56905267541676" lon="11.3303005383184"><ele>304.40000000000003</ele><time>2026-03-22T11:34:17Z</time></trkpt><trkpt lat="43.56902495668764" lon="11.330175893886521"><ele>303.6</ele><time>2026-03-22T11:34:18Z</time></trkpt><trkpt lat="43.56903403280296" lon="11.330045041513625"><ele>302.8</ele><time>2026-03-22T11:34:19Z</time></trkpt><trkpt lat="43.56905482188361" lon="11.329917328400851"><ele>302.0</ele><time>2026-03-22T11:34:20Z</time></trkpt><trkpt lat="43.569053408097844" lon="11.329797938803766"><ele>300.5</ele><time>2026-03-22T11:34:20.999Z</time></trkpt><trkpt lat="43.569011948053" lon="11.329661767336974"><ele>299.0</ele><time>2026-03-22T11:34:21.999Z</time></trkpt><trkpt lat="43.568957005435" lon="11.329505898859392"><ele>297.5</ele><time>2026-03-22T11:34:22.999Z</time></trkpt><trkpt lat="43.5689164971845" lon="11.329349775400129"><ele>296.0</ele><time>2026-03-22T11:34:23.999Z</time></trkpt><trkpt lat="43.56885895735843" lon="11.32921596752575"><ele>296.0</ele><time>2026-03-22T11:34:24.999Z</time></trkpt><trkpt lat="43.568820214019425" lon="11.329086578560203"><ele>296.0</ele><time>2026-03-22T11:34:25.999Z</time></trkpt><trkpt lat="43.56878750085564" lon="11.328979093997116"><ele>296.0</ele><time>2026-03-22T11:34:26.999Z</time></trkpt><trkpt lat="43.56876038753054" lon="11.32887172418085"><ele>296.0</ele><time>2026-03-22T11:34:27.999Z</time></trkpt><trkpt lat="43.56872465584731" lon="11.328773641766665"><ele>296.0</ele><time>2026-03-22T11:34:28.999Z</time></trkpt><trkpt lat="43.5686952404423" lon="11.32867258751519"><ele>296.0</ele><time>2026-03-22T11:34:29.999Z</time></trkpt><trkpt lat="43.5686559813639" lon="11.32857416986936"><ele>293.8</ele><time>2026-03-22T11:34:30.999Z</time></trkpt><trkpt lat="43.56864664048899" lon="11.328437218224352"><ele>291.6</ele><time>2026-03-22T11:34:31.999Z</time></trkpt><trkpt lat="43.56866237751928" lon="11.328289622357582"><ele>289.4</ele><time>2026-03-22T11:34:32.999Z</time></trkpt><trkpt lat="43.5686919922356" lon="11.328140954419755"><ele>287.2</ele><time>2026-03-22T11:34:33.999Z</time></trkpt><trkpt lat="43.56871791616809" lon="11.328003588395156"><ele>285.0</ele><time>2026-03-22T11:34:34.999Z</time></trkpt><trkpt lat="43.56873374256202" lon="11.32786307663281"><ele>285.0</ele><time>2026-03-22T11:34:35.999Z</time></trkpt><trkpt lat="43.56873880076373" lon="11.327714964072037"><ele>285.0</ele><time>2026-03-22T11:34:36.999Z</time></trkpt><trkpt lat="43.56874524506022" lon="11.327564767311458"><ele>285.0</ele><time>2026-03-22T11:34:37.999Z</time></trkpt><trkpt lat="43.5686988478279" lon="11.3274151137869"><ele>285.0</ele><time>2026-03-22T11:34:38.999Z</time></trkpt><trkpt lat="43.56867393097387" lon="11.327248682192366"><ele>282.25</ele><time>2026-03-22T11:34:39.999Z</time></trkpt><trkpt lat="43.56862744357794" lon="11.327096770333993"><ele>279.5</ele><time>2026-03-22T11:34:40.999Z</time></trkpt><trkpt lat="43.5685833630549" lon="11.326952687719551"><ele>276.75</ele><time>2026-03-22T11:34:41.999Z</time></trkpt><trkpt lat="43.56852954471311" lon="11.32681707901928"><ele>274.0</ele><time>2026-03-22T11:34:42.999Z</time></trkpt><trkpt lat="43.5684573441168" lon="11.326683768841816"><ele>274.0</ele><time>2026-03-22T11:34:43.999Z</time></trkpt><trkpt lat="43.568374705799386" lon="11.326554929636199"><ele>274.0</ele><time>2026-03-22T11:34:44.999Z</time></trkpt><trkpt lat="43.56828703583535" lon="11.326440274450345"><ele>274.0</ele><time>2026-03-22T11:34:45.999Z</time></trkpt><trkpt lat="43.56820436722527" lon="11.32633794122724"><ele>274.0</ele><time>2026-03-22T11:34:46.999Z</time></trkpt><trkpt lat="43.56812092588193" lon="11.326251596539596"><ele>274.5</ele><time>2026-03-22T11:34:47.999Z</time></trkpt><trkpt lat="43.56805220155396" lon="11.326165258192198"><ele>275.0</ele><time>2026-03-22T11:34:48.999Z</time></trkpt><trkpt lat="43.56800003202298" lon="11.326082551461202"><ele>275.5</ele><time>2026-03-22T11:34:49.999Z</time></trkpt><trkpt lat="43.56796112549224" lon="11.325990169673604"><ele>276.0</ele><time>2026-03-22T11:34:50.999Z</time></trkpt><trkpt lat="43.56792027382434" lon="11.325883605963092"><ele>276.5</ele><time>2026-03-22T11:34:51.999Z</time></trkpt><trkpt lat="43.56789998586786" lon="11.325750780973523"><ele>277.0</ele><time>2026-03-22T11:34:52.999Z</time></trkpt><trkpt lat="43.567886205802814" lon="11.325616810334699"><ele>273.6</ele><time>2026-03-22T11:34:53.999Z</time></trkpt><trkpt lat="43.56787920317276" lon="11.325475283036031"><ele>270.2</ele><time>2026-03-22T11:34:54.999Z</time></trkpt><trkpt lat="43.56787820083125" lon="11.325326831435554"><ele>266.8</ele><time>2026-03-22T11:34:55.999Z</time></trkpt><trkpt lat="43.56789301298431" lon="11.325184361048734"><ele>263.4</ele><time>2026-03-22T11:34:56.999Z</time></trkpt><trkpt lat="43.56791796390758" lon="11.325038704556622"><ele>260.0</ele><time>2026-03-22T11:34:57.999Z</time></trkpt><trkpt lat="43.56796297281267" lon="11.32489597185776"><ele>260.0</ele><time>2026-03-22T11:34:58.999Z</time></trkpt><trkpt lat="43.568001917334215" lon="11.324763861028138"><ele>260.0</ele><time>2026-03-22T11:34:59.999Z</time></trkpt><trkpt lat="43.56803064655693" lon="11.324641919346814"><ele>260.0</ele><time>2026-03-22T11:35:00.999Z</time></trkpt><trkpt lat="43.568045315179305" lon="11.324553855319735"><ele>260.0</ele><time>2026-03-22T11:35:01.999Z</time></trkpt><trkpt lat="43.568043467239015" lon="11.324436613128025"><ele>260.0</ele><time>2026-03-22T11:35:03.999Z</time></trkpt><trkpt lat="43.56812343100907" lon="11.324255016351747"><ele>259.33333333333337</ele><time>2026-03-22T11:35:05.999Z</time></trkpt><trkpt lat="43.56814669572254" lon="11.324136731062405"><ele>258.6666666666667</ele><time>2026-03-22T11:35:06.999Z</time></trkpt><trkpt lat="43.56817465082002" lon="11.32401050183295"><ele>258.0</ele><time>2026-03-22T11:35:07.999Z</time></trkpt><trkpt lat="43.56820022376425" lon="11.323898997400944"><ele>257.3333333333333</ele><time>2026-03-22T11:35:08.999Z</time></trkpt><trkpt lat="43.56822099723346" lon="11.323812434556253"><ele>256.66666666666663</ele><time>2026-03-22T11:35:09.999Z</time></trkpt><trkpt lat="43.56825348678291" lon="11.323684169223302"><ele>256.0</ele><time>2026-03-22T11:35:11.999Z</time></trkpt><trkpt lat="43.56828358149966" lon="11.323590426416756"><ele>256.0</ele><time>2026-03-22T11:35:24.999Z</time></trkpt><trkpt lat="43.568355807745135" lon="11.323424799838133"><ele>256.0</ele><time>2026-03-22T11:35:26.998Z</time></trkpt><trkpt lat="43.56842084285406" lon="11.32333338535381"><ele>256.0</ele><time>2026-03-22T11:35:27.998Z</time></trkpt><trkpt lat="43.568465883354236" lon="11.323210008967134"><ele>256.0</ele><time>2026-03-22T11:35:28.998Z</time></trkpt><trkpt lat="43.56853357226759" lon="11.323090461349679"><ele>256.0</ele><time>2026-03-22T11:35:29.998Z</time></trkpt><trkpt lat="43.56860254713245" lon="11.322979929485228"><ele>255.75</ele><time>2026-03-22T11:35:30.998Z</time></trkpt><trkpt lat="43.568682747871264" lon="11.322860910313585"><ele>255.5</ele><time>2026-03-22T11:35:31.998Z</time></trkpt><trkpt lat="43.56876390106269" lon="11.322741436305988"><ele>255.25</ele><time>2026-03-22T11:35:32.998Z</time></trkpt><trkpt lat="43.568843186835934" lon="11.32262942377718"><ele>255.0</ele><time>2026-03-22T11:35:33.998Z</time></trkpt><trkpt lat="43.56892475958963" lon="11.32251418021208"><ele>255.0</ele><time>2026-03-22T11:35:34.998Z</time></trkpt><trkpt lat="43.5690085305385" lon="11.32239561142295"><ele>255.0</ele><time>2026-03-22T11:35:35.998Z</time></trkpt><trkpt lat="43.56909595055179" lon="11.32227055680109"><ele>255.0</ele><time>2026-03-22T11:35:36.998Z</time></trkpt><trkpt lat="43.569176092097415" lon="11.322149973347802"><ele>255.0</ele><time>2026-03-22T11:35:37.998Z</time></trkpt><trkpt lat="43.56924361981705" lon="11.322024467230834"><ele>256.6</ele><time>2026-03-22T11:35:38.998Z</time></trkpt><trkpt lat="43.569302207826226" lon="11.321888992187153"><ele>258.2</ele><time>2026-03-22T11:35:39.998Z</time></trkpt><trkpt lat="43.569348475333605" lon="11.321747822047522"><ele>259.8</ele><time>2026-03-22T11:35:40.998Z</time></trkpt><trkpt lat="43.569364268490865" lon="11.321603285019519"><ele>261.4</ele><time>2026-03-22T11:35:42Z</time></trkpt><trkpt lat="43.56937470306903" lon="11.321457850863807"><ele>263.0</ele><time>2026-03-22T11:35:43Z</time></trkpt><trkpt lat="43.5693744646817" lon="11.321332536122878"><ele>263.8</ele><time>2026-03-22T11:35:44Z</time></trkpt><trkpt lat="43.56936522885018" lon="11.32122256786395"><ele>264.6</ele><time>2026-03-22T11:35:45Z</time></trkpt><trkpt lat="43.56934963013898" lon="11.321125358165803"><ele>265.4</ele><time>2026-03-22T11:35:46Z</time></trkpt><trkpt lat="43.569326721837925" lon="11.321030231846835"><ele>266.2</ele><time>2026-03-22T11:35:48Z</time></trkpt><trkpt lat="43.56929283027214" lon="11.320925041499734"><ele>267.0</ele><time>2026-03-22T11:35:53Z</time></trkpt><trkpt lat="43.56940994386024" lon="11.320730558646629"><ele>267.0</ele><time>2026-03-22T11:35:55Z</time></trkpt><trkpt lat="43.56950913709915" lon="11.320661798056605"><ele>267.0</ele><time>2026-03-22T11:35:56Z</time></trkpt><trkpt lat="43.5696304288035" lon="11.320610295734827"><ele>267.0</ele><time>2026-03-22T11:35:57Z</time></trkpt><trkpt lat="43.569772615327295" lon="11.32057469345115"><ele>267.0</ele><time>2026-03-22T11:35:58Z</time></trkpt><trkpt lat="43.5699092464901" lon="11.320544139073306"><ele>265.75</ele><time>2026-03-22T11:35:59Z</time></trkpt><trkpt lat="43.57004818408962" lon="11.320509152200165"><ele>264.5</ele><time>2026-03-22T11:36:00Z</time></trkpt><trkpt lat="43.57018628479332" lon="11.320470934875026"><ele>263.25</ele><time>2026-03-22T11:36:01Z</time></trkpt><trkpt lat="43.57032224010563" lon="11.320431004948063"><ele>262.0</ele><time>2026-03-22T11:36:02Z</time></trkpt><trkpt lat="43.570457646577026" lon="11.32039150807077"><ele>261.25</ele><time>2026-03-22T11:36:03Z</time></trkpt><trkpt lat="43.57059522250971" lon="11.320345407617001"><ele>260.5</ele><time>2026-03-22T11:36:04Z</time></trkpt><trkpt lat="43.57073669276709" lon="11.32028987756114"><ele>259.75</ele><time>2026-03-22T11:36:05Z</time></trkpt><trkpt lat="43.57088335692686" lon="11.320220663024266"><ele>259.0</ele><time>2026-03-22T11:36:06Z</time></trkpt><trkpt lat="43.5710285747043" lon="11.320147303323376"><ele>259.0</ele><time>2026-03-22T11:36:07Z</time></trkpt><trkpt lat="43.57118171463204" lon="11.320069834494069"><ele>259.0</ele><time>2026-03-22T11:36:08Z</time></trkpt><trkpt lat="43.571337368458884" lon="11.319994558916965"><ele>259.0</ele><time>2026-03-22T11:36:09Z</time></trkpt><trkpt lat="43.571496395153396" lon="11.319915663729379"><ele>261.66666666666663</ele><time>2026-03-22T11:36:10Z</time></trkpt><trkpt lat="43.5716522293839" lon="11.319835241677355"><ele>264.3333333333333</ele><time>2026-03-22T11:36:11Z</time></trkpt><trkpt lat="43.571808431452034" lon="11.319756204023058"><ele>267.0</ele><time>2026-03-22T11:36:12Z</time></trkpt><trkpt lat="43.5719659565053" lon="11.319678392082258"><ele>264.0</ele><time>2026-03-22T11:36:13Z</time></trkpt><trkpt lat="43.572119915880535" lon="11.319597054971716"><ele>261.0</ele><time>2026-03-22T11:36:14Z</time></trkpt><trkpt lat="43.572275405245215" lon="11.319517447344994"><ele>258.0</ele><time>2026-03-22T11:36:15Z</time></trkpt><trkpt lat="43.5724318283282" lon="11.319438628994492"><ele>258.0</ele><time>2026-03-22T11:36:16Z</time></trkpt><trkpt lat="43.57258949590075" lon="11.319356699659084"><ele>258.0</ele><time>2026-03-22T11:36:17Z</time></trkpt><trkpt lat="43.57274511004164" lon="11.319276610655761"><ele>258.0</ele><time>2026-03-22T11:36:18Z</time></trkpt><trkpt lat="43.57289515444253" lon="11.31920043788138"><ele>255.0</ele><time>2026-03-22T11:36:19Z</time></trkpt><trkpt lat="43.573040443959826" lon="11.319127053227287"><ele>252.0</ele><time>2026-03-22T11:36:20Z</time></trkpt><trkpt lat="43.57318554033329" lon="11.319058092267774"><ele>249.0</ele><time>2026-03-22T11:36:21Z</time></trkpt><trkpt lat="43.57332921807453" lon="11.31898624824979"><ele>249.0</ele><time>2026-03-22T11:36:22Z</time></trkpt><trkpt lat="43.573475556875685" lon="11.318909415616325"><ele>249.0</ele><time>2026-03-22T11:36:23Z</time></trkpt><trkpt lat="43.57362508770155" lon="11.318834826507821"><ele>249.0</ele><time>2026-03-22T11:36:24Z</time></trkpt><trkpt lat="43.57377284179098" lon="11.318764336490865"><ele>252.0</ele><time>2026-03-22T11:36:25Z</time></trkpt><trkpt lat="43.573926928460544" lon="11.318689113584941"><ele>255.0</ele><time>2026-03-22T11:36:26Z</time></trkpt><trkpt lat="43.57406848334811" lon="11.318619285059103"><ele>258.0</ele><time>2026-03-22T11:36:26.999Z</time></trkpt><trkpt lat="43.57421555103334" lon="11.318541819940572"><ele>258.0</ele><time>2026-03-22T11:36:27.999Z</time></trkpt><trkpt lat="43.57436642110461" lon="11.318470680191759"><ele>258.0</ele><time>2026-03-22T11:36:28.999Z</time></trkpt><trkpt lat="43.574522073974656" lon="11.318392174828478"><ele>258.0</ele><time>2026-03-22T11:36:29.999Z</time></trkpt><trkpt lat="43.57467121822581" lon="11.318319507362975"><ele>253.0</ele><time>2026-03-22T11:36:30.999Z</time></trkpt><trkpt lat="43.574821463740996" lon="11.318249796610164"><ele>248.0</ele><time>2026-03-22T11:36:31.999Z</time></trkpt><trkpt lat="43.57496389546303" lon="11.318179910170679"><ele>243.0</ele><time>2026-03-22T11:36:32.999Z</time></trkpt><trkpt lat="43.57511092515285" lon="11.318104946920155"><ele>243.33333333333331</ele><time>2026-03-22T11:36:33.999Z</time></trkpt><trkpt lat="43.57525671079287" lon="11.31802990457645"><ele>243.66666666666666</ele><time>2026-03-22T11:36:34.999Z</time></trkpt><trkpt lat="43.57540092435713" lon="11.317958562464163"><ele>244.0</ele><time>2026-03-22T11:36:35.999Z</time></trkpt><trkpt lat="43.575543605734495" lon="11.31788638970938"><ele>244.0</ele><time>2026-03-22T11:36:36.999Z</time></trkpt><trkpt lat="43.57569509610254" lon="11.317802777298706"><ele>244.0</ele><time>2026-03-22T11:36:37.999Z</time></trkpt><trkpt lat="43.575847625769086" lon="11.317728562616425"><ele>244.0</ele><time>2026-03-22T11:36:38.999Z</time></trkpt><trkpt lat="43.57600716806559" lon="11.317644957275311"><ele>242.66666666666666</ele><time>2026-03-22T11:36:39.999Z</time></trkpt><trkpt lat="43.57618684144007" lon="11.31753637376856"><ele>241.33333333333331</ele><time>2026-03-22T11:36:40.999Z</time></trkpt><trkpt lat="43.57639280216221" lon="11.317419493990634"><ele>240.0</ele><time>2026-03-22T11:36:41.999Z</time></trkpt><trkpt lat="43.5766124746673" lon="11.317316218589328"><ele>241.33333333333331</ele><time>2026-03-22T11:36:42.999Z</time></trkpt><trkpt lat="43.576805535941716" lon="11.317229088748439"><ele>242.66666666666666</ele><time>2026-03-22T11:36:43.999Z</time></trkpt><trkpt lat="43.57698519810341" lon="11.31714869296565"><ele>244.0</ele><time>2026-03-22T11:36:44.999Z</time></trkpt><trkpt lat="43.57716913477655" lon="11.31706377834774"><ele>244.0</ele><time>2026-03-22T11:36:45.999Z</time></trkpt><trkpt lat="43.57735704379653" lon="11.31698595428741"><ele>244.0</ele><time>2026-03-22T11:36:46.999Z</time></trkpt><trkpt lat="43.5775455574893" lon="11.316913200333937"><ele>244.0</ele><time>2026-03-22T11:36:47.999Z</time></trkpt><trkpt lat="43.577738679752244" lon="11.316842032708633"><ele>242.66666666666666</ele><time>2026-03-22T11:36:48.999Z</time></trkpt><trkpt lat="43.57792806562782" lon="11.316774192949083"><ele>241.33333333333331</ele><time>2026-03-22T11:36:49.999Z</time></trkpt><trkpt lat="43.57811348078306" lon="11.316706250921793"><ele>240.0</ele><time>2026-03-22T11:36:50.999Z</time></trkpt><trkpt lat="43.578303317638714" lon="11.31665301934396"><ele>240.0</ele><time>2026-03-22T11:36:51.999Z</time></trkpt><trkpt lat="43.57848757281158" lon="11.316617530927763"><ele>240.0</ele><time>2026-03-22T11:36:52.999Z</time></trkpt><trkpt lat="43.57866195030586" lon="11.316606397475176"><ele>240.0</ele><time>2026-03-22T11:36:53.999Z</time></trkpt><trkpt lat="43.57883477597423" lon="11.316626026899694"><ele>239.75</ele><time>2026-03-22T11:36:54.999Z</time></trkpt><trkpt lat="43.57900238208033" lon="11.316683525418215"><ele>239.5</ele><time>2026-03-22T11:36:55.999Z</time></trkpt><trkpt lat="43.579122050213" lon="11.316738125502546"><ele>239.25</ele><time>2026-03-22T11:36:56.999Z</time></trkpt><trkpt lat="43.57919939083423" lon="11.316774254455545"><ele>239.0</ele><time>2026-03-22T11:36:57.999Z</time></trkpt><trkpt lat="43.579281725180266" lon="11.316807057923281"><ele>239.0</ele><time>2026-03-22T11:36:58.999Z</time></trkpt><trkpt lat="43.579392156353144" lon="11.316843807273937"><ele>239.0</ele><time>2026-03-22T11:36:59.999Z</time></trkpt><trkpt lat="43.57952063365152" lon="11.316887001721467"><ele>239.0</ele><time>2026-03-22T11:37:00.999Z</time></trkpt><trkpt lat="43.57965418616274" lon="11.31694653125111"><ele>239.0</ele><time>2026-03-22T11:37:01.999Z</time></trkpt><trkpt lat="43.579799245717034" lon="11.316998235633182"><ele>238.25</ele><time>2026-03-22T11:37:02.999Z</time></trkpt><trkpt lat="43.579935129168454" lon="11.317041007006218"><ele>237.5</ele><time>2026-03-22T11:37:03.999Z</time></trkpt><trkpt lat="43.58005596225963" lon="11.317085224931512"><ele>236.75</ele><time>2026-03-22T11:37:04.999Z</time></trkpt><trkpt lat="43.58014875005925" lon="11.31717930662074"><ele>236.0</ele><time>2026-03-22T11:37:05.999Z</time></trkpt><trkpt lat="43.58026345011844" lon="11.317265171753883"><ele>236.25</ele><time>2026-03-22T11:37:06.999Z</time></trkpt><trkpt lat="43.58036120994973" lon="11.317406319515925"><ele>236.5</ele><time>2026-03-22T11:37:07.999Z</time></trkpt><trkpt lat="43.580475632901" lon="11.317536251241789"><ele>236.75</ele><time>2026-03-22T11:37:08.999Z</time></trkpt><trkpt lat="43.58060126871639" lon="11.31763620815679"><ele>237.0</ele><time>2026-03-22T11:37:09.999Z</time></trkpt><trkpt lat="43.58072728326472" lon="11.317734113209907"><ele>237.0</ele><time>2026-03-22T11:37:10.999Z</time></trkpt><trkpt lat="43.58084878854653" lon="11.31783252920581"><ele>237.0</ele><time>2026-03-22T11:37:11.999Z</time></trkpt><trkpt lat="43.58096979661553" lon="11.317916041194085"><ele>237.0</ele><time>2026-03-22T11:37:12.999Z</time></trkpt><trkpt lat="43.581084824240214" lon="11.317976575364627"><ele>237.0</ele><time>2026-03-22T11:37:13.999Z</time></trkpt><trkpt lat="43.58120865731958" lon="11.317987354347558"><ele>237.5</ele><time>2026-03-22T11:37:14.999Z</time></trkpt><trkpt lat="43.5813418141816" lon="11.31797248220389"><ele>238.0</ele><time>2026-03-22T11:37:15.999Z</time></trkpt><trkpt lat="43.5814835478962" lon="11.317957950744185"><ele>238.5</ele><time>2026-03-22T11:37:16.999Z</time></trkpt><trkpt lat="43.581615580829876" lon="11.317949943664738"><ele>239.0</ele><time>2026-03-22T11:37:17.999Z</time></trkpt><trkpt lat="43.581739800831684" lon="11.317959420966549"><ele>239.0</ele><time>2026-03-22T11:37:18.999Z</time></trkpt><trkpt lat="43.58186574834403" lon="11.317989748058096"><ele>239.0</ele><time>2026-03-22T11:37:19.999Z</time></trkpt><trkpt lat="43.58199776975616" lon="11.31802532502094"><ele>239.0</ele><time>2026-03-22T11:37:20.999Z</time></trkpt><trkpt lat="43.58212943098893" lon="11.318044648804767"><ele>239.0</ele><time>2026-03-22T11:37:21.999Z</time></trkpt><trkpt lat="43.5822550692438" lon="11.318040204481955"><ele>238.39999999999998</ele><time>2026-03-22T11:37:22.999Z</time></trkpt><trkpt lat="43.58235902199983" lon="11.31801222374914"><ele>237.79999999999998</ele><time>2026-03-22T11:37:23.999Z</time></trkpt><trkpt lat="43.58244057910882" lon="11.317979826692316"><ele>237.20000000000002</ele><time>2026-03-22T11:37:24.999Z</time></trkpt><trkpt lat="43.582529935080025" lon="11.317933400146005"><ele>236.60000000000002</ele><time>2026-03-22T11:37:26.999Z</time></trkpt><trkpt lat="43.5825992785281" lon="11.317883273054031"><ele>236.0</ele><time>2026-03-22T11:37:29.999Z</time></trkpt><trkpt lat="43.582706883377575" lon="11.31785395056455"><ele>236.0</ele><time>2026-03-22T11:37:31.999Z</time></trkpt><trkpt lat="43.58277711907118" lon="11.317824714199404"><ele>236.00000000000003</ele><time>2026-03-22T11:37:32.998Z</time></trkpt><trkpt lat="43.58284438187358" lon="11.31780895025735"><ele>236.00000000000003</ele><time>2026-03-22T11:37:33.998Z</time></trkpt><trkpt lat="43.58294099430923" lon="11.317773749233163"><ele>236.0</ele><time>2026-03-22T11:37:35.998Z</time></trkpt><trkpt lat="43.583073275337334" lon="11.317718831916121"><ele>236.0</ele><time>2026-03-22T11:37:37.998Z</time></trkpt><trkpt lat="43.58314612162478" lon="11.317662418659998"><ele>235.66666666666669</ele><time>2026-03-22T11:37:38.998Z</time></trkpt><trkpt lat="43.58322113958858" lon="11.317600899566246"><ele>235.33333333333334</ele><time>2026-03-22T11:37:39.998Z</time></trkpt><trkpt lat="43.58327833183401" lon="11.31754350386714"><ele>235.0</ele><time>2026-03-22T11:37:40.998Z</time></trkpt><trkpt lat="43.583343163357895" lon="11.317482530205332"><ele>234.66666666666669</ele><time>2026-03-22T11:37:41.998Z</time></trkpt><trkpt lat="43.58340529093381" lon="11.31741614190576"><ele>234.33333333333334</ele><time>2026-03-22T11:37:42.998Z</time></trkpt><trkpt lat="43.58346663879061" lon="11.317340548601196"><ele>234.0</ele><time>2026-03-22T11:37:43.998Z</time></trkpt><trkpt lat="43.58352393592186" lon="11.317248125195267"><ele>234.0</ele><time>2026-03-22T11:37:44.998Z</time></trkpt><trkpt lat="43.58358740237136" lon="11.31713521513307"><ele>233.99999999999997</ele><time>2026-03-22T11:37:45.998Z</time></trkpt><trkpt lat="43.58364777278409" lon="11.317003582799837"><ele>233.99999999999997</ele><time>2026-03-22T11:37:46.998Z</time></trkpt><trkpt lat="43.58370144580427" lon="11.31687788518977"><ele>234.0</ele><time>2026-03-22T11:37:48Z</time></trkpt><trkpt lat="43.583757158040456" lon="11.31675568417846"><ele>234.0</ele><time>2026-03-22T11:37:49Z</time></trkpt><trkpt lat="43.58381599696002" lon="11.316632637344453"><ele>233.39999999999998</ele><time>2026-03-22T11:37:50Z</time></trkpt><trkpt lat="43.583871897121206" lon="11.316508445438444"><ele>232.79999999999998</ele><time>2026-03-22T11:37:51Z</time></trkpt><trkpt lat="43.58392484428421" lon="11.316387608829844"><ele>232.20000000000002</ele><time>2026-03-22T11:37:52Z</time></trkpt><trkpt lat="43.583975353754916" lon="11.316275563115155"><ele>231.60000000000002</ele><time>2026-03-22T11:37:53Z</time></trkpt><trkpt lat="43.58402398258245" lon="11.316175477837225"><ele>231.0</ele><time>2026-03-22T11:37:54Z</time></trkpt><trkpt lat="43.58406823274625" lon="11.31607899437471"><ele>231.0</ele><time>2026-03-22T11:37:55Z</time></trkpt><trkpt lat="43.58411775084215" lon="11.315972922709348"><ele>231.00000000000003</ele><time>2026-03-22T11:37:56Z</time></trkpt><trkpt lat="43.58417452770752" lon="11.315878699822608"><ele>231.00000000000003</ele><time>2026-03-22T11:37:57Z</time></trkpt><trkpt lat="43.58424125294048" lon="11.315796311124162"><ele>231.0</ele><time>2026-03-22T11:37:58Z</time></trkpt><trkpt lat="43.584317450741544" lon="11.315716875866991"><ele>231.0</ele><time>2026-03-22T11:37:59Z</time></trkpt><trkpt lat="43.584415017525885" lon="11.315638672502697"><ele>231.0</ele><time>2026-03-22T11:38:00Z</time></trkpt><trkpt lat="43.584495149639636" lon="11.315621238132593"><ele>231.00000000000003</ele><time>2026-03-22T11:38:01Z</time></trkpt><trkpt lat="43.58459775749" lon="11.315579412411115"><ele>231.00000000000003</ele><time>2026-03-22T11:38:02Z</time></trkpt><trkpt lat="43.58469366451737" lon="11.315537591322842"><ele>231.0</ele><time>2026-03-22T11:38:03Z</time></trkpt><trkpt lat="43.584784401995904" lon="11.31550128823619"><ele>231.0</ele><time>2026-03-22T11:38:04Z</time></trkpt><trkpt lat="43.58487117155141" lon="11.31546445183344"><ele>230.8</ele><time>2026-03-22T11:38:05Z</time></trkpt><trkpt lat="43.58496163452313" lon="11.31543053281853"><ele>230.60000000000002</ele><time>2026-03-22T11:38:06Z</time></trkpt><trkpt lat="43.58505780085105" lon="11.315407005888938"><ele>230.4</ele><time>2026-03-22T11:38:07Z</time></trkpt><trkpt lat="43.585154665945446" lon="11.315387520799922"><ele>230.2</ele><time>2026-03-22T11:38:08Z</time></trkpt><trkpt lat="43.58525476481084" lon="11.315366895427928"><ele>230.0</ele><time>2026-03-22T11:38:09Z</time></trkpt><trkpt lat="43.585349220299875" lon="11.315353260978938"><ele>229.66666666666669</ele><time>2026-03-22T11:38:10Z</time></trkpt><trkpt lat="43.58543051147641" lon="11.315342578806462"><ele>229.33333333333334</ele><time>2026-03-22T11:38:11Z</time></trkpt><trkpt lat="43.58550798713426" lon="11.31532902597046"><ele>229.0</ele><time>2026-03-22T11:38:12Z</time></trkpt><trkpt lat="43.58559035010758" lon="11.315310388548292"><ele>228.66666666666669</ele><time>2026-03-22T11:38:13Z</time></trkpt><trkpt lat="43.5856741526625" lon="11.315290324100076"><ele>228.33333333333334</ele><time>2026-03-22T11:38:14Z</time></trkpt><trkpt lat="43.585764358943045" lon="11.315272398842593"><ele>228.0</ele><time>2026-03-22T11:38:15Z</time></trkpt><trkpt lat="43.58585073438662" lon="11.315262345476222"><ele>228.0</ele><time>2026-03-22T11:38:16Z</time></trkpt><trkpt lat="43.5859224344502" lon="11.315249828652322"><ele>228.0</ele><time>2026-03-22T11:38:17Z</time></trkpt><trkpt lat="43.58598939900348" lon="11.31523840729789"><ele>228.0</ele><time>2026-03-22T11:38:18Z</time></trkpt><trkpt lat="43.58607238386487" lon="11.315223912851033"><ele>228.0</ele><time>2026-03-22T11:38:20Z</time></trkpt><trkpt lat="43.5861569580594" lon="11.315209813282289"><ele>228.0</ele><time>2026-03-22T11:38:23Z</time></trkpt><trkpt lat="43.586256702072916" lon="11.315195940517453"><ele>228.0</ele><time>2026-03-22T11:38:37.999Z</time></trkpt><trkpt lat="43.586320153294714" lon="11.315187106641314"><ele>228.0</ele><time>2026-03-22T11:38:38.999Z</time></trkpt><trkpt lat="43.586398537228064" lon="11.315175936000763"><ele>228.0</ele><time>2026-03-22T11:38:39.999Z</time></trkpt><trkpt lat="43.58647496920604" lon="11.315157171923161"><ele>228.0</ele><time>2026-03-22T11:38:40.999Z</time></trkpt><trkpt lat="43.58658262675584" lon="11.315145036372163"><ele>228.0</ele><time>2026-03-22T11:38:41.999Z</time></trkpt><trkpt lat="43.58669879090595" lon="11.315135235285508"><ele>228.0</ele><time>2026-03-22T11:38:42.999Z</time></trkpt><trkpt lat="43.58680579169831" lon="11.315113775626752"><ele>228.0</ele><time>2026-03-22T11:38:43.999Z</time></trkpt><trkpt lat="43.58691426736283" lon="11.315082406095806"><ele>228.0</ele><time>2026-03-22T11:38:44.999Z</time></trkpt><trkpt lat="43.58700875861045" lon="11.315061699637457"><ele>228.0</ele><time>2026-03-22T11:38:45.999Z</time></trkpt><trkpt lat="43.58710173059007" lon="11.315041614875584"><ele>228.0</ele><time>2026-03-22T11:38:46.999Z</time></trkpt><trkpt lat="43.58718968104529" lon="11.315013314132333"><ele>228.0</ele><time>2026-03-22T11:38:47.999Z</time></trkpt><trkpt lat="43.58727395001066" lon="11.314994743367118"><ele>227.8</ele><time>2026-03-22T11:38:48.999Z</time></trkpt><trkpt lat="43.58733698822715" lon="11.314975318720805"><ele>227.60000000000002</ele><time>2026-03-22T11:38:49.999Z</time></trkpt><trkpt lat="43.587398712377784" lon="11.314946027513704"><ele>227.39999999999998</ele><time>2026-03-22T11:38:52.999Z</time></trkpt><trkpt lat="43.58763237531345" lon="11.314979305902915"><ele>227.2</ele><time>2026-03-22T11:41:45.998Z</time></trkpt><trkpt lat="43.58771326085586" lon="11.31497625059447"><ele>227.0</ele><time>2026-03-22T11:41:46.998Z</time></trkpt><trkpt lat="43.587814874032084" lon="11.314953667551675"><ele>227.00000000000003</ele><time>2026-03-22T11:41:47.998Z</time></trkpt><trkpt lat="43.587891998184595" lon="11.314930889137479"><ele>227.0</ele><time>2026-03-22T11:41:48.998Z</time></trkpt><trkpt lat="43.5879581807614" lon="11.314909207345954"><ele>227.0</ele><time>2026-03-22T11:41:49.998Z</time></trkpt><trkpt lat="43.58803517501058" lon="11.31489619623191"><ele>227.0</ele><time>2026-03-22T11:41:50.998Z</time></trkpt><trkpt lat="43.588110797714776" lon="11.314887577634787"><ele>227.00000000000003</ele><time>2026-03-22T11:41:51.998Z</time></trkpt><trkpt lat="43.58818710183999" lon="11.31487361587656"><ele>227.0</ele><time>2026-03-22T11:41:52.998Z</time></trkpt><trkpt lat="43.58826640124199" lon="11.314856643451154"><ele>227.00000000000003</ele><time>2026-03-22T11:41:53.998Z</time></trkpt><trkpt lat="43.58833682086873" lon="11.31484305246752"><ele>227.0</ele><time>2026-03-22T11:41:54.998Z</time></trkpt><trkpt lat="43.588413359797876" lon="11.314830058569733"><ele>227.0</ele><time>2026-03-22T11:41:55.998Z</time></trkpt><trkpt lat="43.58850268997936" lon="11.3148121253463"><ele>227.0</ele><time>2026-03-22T11:41:56.998Z</time></trkpt><trkpt lat="43.58858910693362" lon="11.314793891959106"><ele>227.00000000000003</ele><time>2026-03-22T11:41:57.998Z</time></trkpt><trkpt lat="43.588673211869555" lon="11.314775596883965"><ele>227.0</ele><time>2026-03-22T11:41:58.998Z</time></trkpt><trkpt lat="43.588756982796994" lon="11.314750569133833"><ele>226.66666666666669</ele><time>2026-03-22T11:42:00Z</time></trkpt><trkpt lat="43.58884418922245" lon="11.31473564971175"><ele>226.33333333333334</ele><time>2026-03-22T11:42:01Z</time></trkpt><trkpt lat="43.58892443219224" lon="11.314718887433243"><ele>226.0</ele><time>2026-03-22T11:42:02Z</time></trkpt><trkpt lat="43.58900322367619" lon="11.314704314121341"><ele>225.66666666666669</ele><time>2026-03-22T11:42:03Z</time></trkpt><trkpt lat="43.58908697200783" lon="11.3146865451722"><ele>225.33333333333334</ele><time>2026-03-22T11:42:04Z</time></trkpt><trkpt lat="43.58917186927875" lon="11.314675121480303"><ele>225.0</ele><time>2026-03-22T11:42:05Z</time></trkpt><trkpt lat="43.589251799308656" lon="11.31466320362358"><ele>225.0</ele><time>2026-03-22T11:42:06Z</time></trkpt><trkpt lat="43.58935069470842" lon="11.31464451056492"><ele>225.0</ele><time>2026-03-22T11:42:08Z</time></trkpt><trkpt lat="43.58942610208646" lon="11.314630339259303"><ele>225.0</ele><time>2026-03-22T11:42:10Z</time></trkpt><trkpt lat="43.58950931908031" lon="11.314615603323535"><ele>225.0</ele><time>2026-03-22T11:42:12Z</time></trkpt><trkpt lat="43.589604638113144" lon="11.3146057768459"><ele>225.0</ele><time>2026-03-22T11:42:14Z</time></trkpt><trkpt lat="43.589722208123135" lon="11.314582258157227"><ele>224.6</ele><time>2026-03-22T11:42:16Z</time></trkpt><trkpt lat="43.58980566361149" lon="11.314561327712692"><ele>224.2</ele><time>2026-03-22T11:42:17Z</time></trkpt><trkpt lat="43.58989572840533" lon="11.31454104215212"><ele>223.8</ele><time>2026-03-22T11:42:18Z</time></trkpt><trkpt lat="43.589991471746345" lon="11.314522175409747"><ele>223.4</ele><time>2026-03-22T11:42:19Z</time></trkpt><trkpt lat="43.590091170299516" lon="11.314505024094151"><ele>223.0</ele><time>2026-03-22T11:42:20Z</time></trkpt><trkpt lat="43.5901950515082" lon="11.314484237295382"><ele>223.0</ele><time>2026-03-22T11:42:21Z</time></trkpt><trkpt lat="43.59030995734736" lon="11.314465924143425"><ele>223.0</ele><time>2026-03-22T11:42:22Z</time></trkpt><trkpt lat="43.590432531279916" lon="11.314452567508836"><ele>223.0</ele><time>2026-03-22T11:42:23Z</time></trkpt><trkpt lat="43.59056254698343" lon="11.314452643311911"><ele>223.0</ele><time>2026-03-22T11:42:24Z</time></trkpt><trkpt lat="43.59068281710945" lon="11.314460040904876"><ele>222.75</ele><time>2026-03-22T11:42:25Z</time></trkpt><trkpt lat="43.59080737754941" lon="11.31447765328702"><ele>222.5</ele><time>2026-03-22T11:42:26Z</time></trkpt><trkpt lat="43.59093554769328" lon="11.314508192113927"><ele>222.25</ele><time>2026-03-22T11:42:27Z</time></trkpt><trkpt lat="43.59106494673127" lon="11.314549015074967"><ele>222.0</ele><time>2026-03-22T11:42:28Z</time></trkpt><trkpt lat="43.5911850890599" lon="11.314598290274223"><ele>222.0</ele><time>2026-03-22T11:42:29Z</time></trkpt><trkpt lat="43.59130227715506" lon="11.314651699169811"><ele>222.0</ele><time>2026-03-22T11:42:30Z</time></trkpt><trkpt lat="43.59140667085585" lon="11.314703127431086"><ele>222.0</ele><time>2026-03-22T11:42:31Z</time></trkpt><trkpt lat="43.591506136181955" lon="11.314758183141901"><ele>222.0</ele><time>2026-03-22T11:42:32Z</time></trkpt><trkpt lat="43.59159875618331" lon="11.314815968355937"><ele>222.0</ele><time>2026-03-22T11:42:33Z</time></trkpt><trkpt lat="43.59166726954081" lon="11.314864271876246"><ele>222.0</ele><time>2026-03-22T11:42:34Z</time></trkpt><trkpt lat="43.591735459815396" lon="11.314911670649579"><ele>222.0</ele><time>2026-03-22T11:42:35Z</time></trkpt><trkpt lat="43.59179749351385" lon="11.314953590402366"><ele>222.0</ele><time>2026-03-22T11:42:36Z</time></trkpt><trkpt lat="43.591899096270836" lon="11.315044306869174"><ele>222.0</ele><time>2026-03-22T11:42:38Z</time></trkpt><trkpt lat="43.59197120710006" lon="11.315175008083814"><ele>222.0</ele><time>2026-03-22T11:42:40Z</time></trkpt><trkpt lat="43.59202023416729" lon="11.315230081209256"><ele>222.0</ele><time>2026-03-22T11:42:41Z</time></trkpt><trkpt lat="43.59213164791975" lon="11.315256475126843"><ele>221.83333333333334</ele><time>2026-03-22T11:42:43Z</time></trkpt><trkpt lat="43.59219553290436" lon="11.315260024387289"><ele>221.66666666666669</ele><time>2026-03-22T11:42:44Z</time></trkpt><trkpt lat="43.592265187863305" lon="11.315287282793053"><ele>221.5</ele><time>2026-03-22T11:42:44.999Z</time></trkpt><trkpt lat="43.59232886462283" lon="11.315358678392249"><ele>221.33333333333334</ele><time>2026-03-22T11:42:45.999Z</time></trkpt><trkpt lat="43.59240268875321" lon="11.315412485757738"><ele>221.16666666666669</ele><time>2026-03-22T11:42:46.999Z</time></trkpt><trkpt lat="43.59248297903479" lon="11.315471016124194"><ele>221.0</ele><time>2026-03-22T11:42:47.999Z</time></trkpt><trkpt lat="43.59257331832133" lon="11.315502178959424"><ele>221.0</ele><time>2026-03-22T11:42:48.999Z</time></trkpt><trkpt lat="43.592663699286184" lon="11.315555337452464"><ele>221.00000000000003</ele><time>2026-03-22T11:42:49.999Z</time></trkpt><trkpt lat="43.5927597731187" lon="11.31559910193943"><ele>221.00000000000003</ele><time>2026-03-22T11:42:50.999Z</time></trkpt><trkpt lat="43.59285239274968" lon="11.315635029235168"><ele>221.0</ele><time>2026-03-22T11:42:51.999Z</time></trkpt><trkpt lat="43.59295127392342" lon="11.315673028114936"><ele>221.0</ele><time>2026-03-22T11:42:52.999Z</time></trkpt><trkpt lat="43.5930584507856" lon="11.31571287202959"><ele>221.75</ele><time>2026-03-22T11:42:53.999Z</time></trkpt><trkpt lat="43.59316704466621" lon="11.315758511993783"><ele>222.5</ele><time>2026-03-22T11:42:54.999Z</time></trkpt><trkpt lat="43.59327568772813" lon="11.315814535014384"><ele>223.25</ele><time>2026-03-22T11:42:55.999Z</time></trkpt><trkpt lat="43.593386649376995" lon="11.31587700350785"><ele>224.0</ele><time>2026-03-22T11:42:56.999Z</time></trkpt><trkpt lat="43.593501288599356" lon="11.315950159712001"><ele>224.0</ele><time>2026-03-22T11:42:57.999Z</time></trkpt><trkpt lat="43.59363130342382" lon="11.31603763638709"><ele>224.0</ele><time>2026-03-22T11:42:58.999Z</time></trkpt><trkpt lat="43.59378040715746" lon="11.31615886770862"><ele>224.0</ele><time>2026-03-22T11:42:59.999Z</time></trkpt><trkpt lat="43.59394406775074" lon="11.316272411394227"><ele>222.66666666666669</ele><time>2026-03-22T11:43:00.999Z</time></trkpt><trkpt lat="43.59409418901545" lon="11.31637665254924"><ele>221.33333333333331</ele><time>2026-03-22T11:43:01.999Z</time></trkpt><trkpt lat="43.59423336147982" lon="11.316456205883227"><ele>220.0</ele><time>2026-03-22T11:43:02.999Z</time></trkpt><trkpt lat="43.59436982062763" lon="11.316553496330597"><ele>220.66666666666666</ele><time>2026-03-22T11:43:03.999Z</time></trkpt><trkpt lat="43.594513665334944" lon="11.316643144131126"><ele>221.33333333333331</ele><time>2026-03-22T11:43:04.999Z</time></trkpt><trkpt lat="43.594659939841854" lon="11.316707020053647"><ele>222.0</ele><time>2026-03-22T11:43:05.999Z</time></trkpt><trkpt lat="43.594809599934464" lon="11.316726064463577"><ele>222.0</ele><time>2026-03-22T11:43:06.999Z</time></trkpt><trkpt lat="43.59497614788838" lon="11.316709548644694"><ele>222.0</ele><time>2026-03-22T11:43:07.999Z</time></trkpt><trkpt lat="43.595144962134704" lon="11.31668075362219"><ele>222.0</ele><time>2026-03-22T11:43:08.999Z</time></trkpt><trkpt lat="43.59530705513159" lon="11.3166701076658"><ele>220.66666666666669</ele><time>2026-03-22T11:43:09.999Z</time></trkpt><trkpt lat="43.59547545191959" lon="11.316693378758265"><ele>219.33333333333334</ele><time>2026-03-22T11:43:10.999Z</time></trkpt><trkpt lat="43.595632510875085" lon="11.31674113508915"><ele>218.0</ele><time>2026-03-22T11:43:11.999Z</time></trkpt><trkpt lat="43.59579323049341" lon="11.316793856179654"><ele>218.0</ele><time>2026-03-22T11:43:12.999Z</time></trkpt><trkpt lat="43.59594805912897" lon="11.316846402243804"><ele>218.0</ele><time>2026-03-22T11:43:13.999Z</time></trkpt><trkpt lat="43.59610019303728" lon="11.316893900057025"><ele>218.0</ele><time>2026-03-22T11:43:14.999Z</time></trkpt><trkpt lat="43.59626446096829" lon="11.316945796480534"><ele>218.0</ele><time>2026-03-22T11:43:15.999Z</time></trkpt><trkpt lat="43.59642488858035" lon="11.316980263694289"><ele>218.0</ele><time>2026-03-22T11:43:16.999Z</time></trkpt><trkpt lat="43.59658781816627" lon="11.316985934568974"><ele>218.0</ele><time>2026-03-22T11:43:17.999Z</time></trkpt><trkpt lat="43.596739549806166" lon="11.316961915639403"><ele>218.0</ele><time>2026-03-22T11:43:18.999Z</time></trkpt><trkpt lat="43.5968948874872" lon="11.316907025944136"><ele>218.0</ele><time>2026-03-22T11:43:19.999Z</time></trkpt><trkpt lat="43.597051764601225" lon="11.316839948126045"><ele>218.0</ele><time>2026-03-22T11:43:20.999Z</time></trkpt><trkpt lat="43.59720435499844" lon="11.316741070434595"><ele>218.66666666666669</ele><time>2026-03-22T11:43:21.999Z</time></trkpt><trkpt lat="43.59735074506953" lon="11.316631161227946"><ele>219.33333333333331</ele><time>2026-03-22T11:43:22.999Z</time></trkpt><trkpt lat="43.59749789795714" lon="11.316531082922575"><ele>220.0</ele><time>2026-03-22T11:43:23.999Z</time></trkpt><trkpt lat="43.59763463518114" lon="11.316441943583056"><ele>220.0</ele><time>2026-03-22T11:43:24.999Z</time></trkpt><trkpt lat="43.597760482690674" lon="11.316353975320927"><ele>220.0</ele><time>2026-03-22T11:43:25.999Z</time></trkpt><trkpt lat="43.5978787095721" lon="11.316253845184699"><ele>220.0</ele><time>2026-03-22T11:43:26.999Z</time></trkpt><trkpt lat="43.597980662390775" lon="11.316144511135528"><ele>220.0</ele><time>2026-03-22T11:43:27.999Z</time></trkpt><trkpt lat="43.59807250270239" lon="11.316020066217014"><ele>220.0</ele><time>2026-03-22T11:43:28.999Z</time></trkpt><trkpt lat="43.598151630581995" lon="11.31588564825009"><ele>220.0</ele><time>2026-03-22T11:43:29.999Z</time></trkpt><trkpt lat="43.59822538288095" lon="11.315741909909406"><ele>220.0</ele><time>2026-03-22T11:43:30.999Z</time></trkpt><trkpt lat="43.59829822004412" lon="11.315597195324019"><ele>220.0</ele><time>2026-03-22T11:43:31.999Z</time></trkpt><trkpt lat="43.598374937945906" lon="11.315450452183207"><ele>219.0</ele><time>2026-03-22T11:43:32.999Z</time></trkpt><trkpt lat="43.598456036718424" lon="11.315303100517493"><ele>218.0</ele><time>2026-03-22T11:43:33.999Z</time></trkpt><trkpt lat="43.598537777072416" lon="11.315156326595266"><ele>217.0</ele><time>2026-03-22T11:43:34.999Z</time></trkpt><trkpt lat="43.598617680943256" lon="11.315014037522054"><ele>216.0</ele><time>2026-03-22T11:43:35.999Z</time></trkpt><trkpt lat="43.5986967309974" lon="11.314866680846391"><ele>216.25</ele><time>2026-03-22T11:43:36.999Z</time></trkpt><trkpt lat="43.598778452638875" lon="11.314719203718932"><ele>216.5</ele><time>2026-03-22T11:43:37.999Z</time></trkpt><trkpt lat="43.598859986939395" lon="11.314570372704091"><ele>216.75</ele><time>2026-03-22T11:43:38.999Z</time></trkpt><trkpt lat="43.5989442172521" lon="11.314416261920979"><ele>217.0</ele><time>2026-03-22T11:43:39.999Z</time></trkpt><trkpt lat="43.59902665041449" lon="11.314257605330829"><ele>217.0</ele><time>2026-03-22T11:43:40.999Z</time></trkpt><trkpt lat="43.599110795662526" lon="11.314100539803402"><ele>217.0</ele><time>2026-03-22T11:43:41.999Z</time></trkpt><trkpt lat="43.59919789672267" lon="11.313945746696856"><ele>217.0</ele><time>2026-03-22T11:43:42.999Z</time></trkpt><trkpt lat="43.59928429599005" lon="11.313792105155708"><ele>217.0</ele><time>2026-03-22T11:43:43.999Z</time></trkpt><trkpt lat="43.599375236932936" lon="11.313637566825992"><ele>216.75</ele><time>2026-03-22T11:43:44.999Z</time></trkpt><trkpt lat="43.59946388107549" lon="11.3134861231926"><ele>216.5</ele><time>2026-03-22T11:43:45.999Z</time></trkpt><trkpt lat="43.59954795180178" lon="11.313330551052335"><ele>216.25</ele><time>2026-03-22T11:43:46.999Z</time></trkpt><trkpt lat="43.59963040491585" lon="11.313180481032028"><ele>216.0</ele><time>2026-03-22T11:43:47.999Z</time></trkpt><trkpt lat="43.59970931501847" lon="11.313034990305132"><ele>215.4</ele><time>2026-03-22T11:43:48.999Z</time></trkpt><trkpt lat="43.59978101620298" lon="11.312907989825572"><ele>214.8</ele><time>2026-03-22T11:43:49.998Z</time></trkpt><trkpt lat="43.599836298016285" lon="11.312810187733602"><ele>214.20000000000002</ele><time>2026-03-22T11:43:50.998Z</time></trkpt><trkpt lat="43.59989250984881" lon="11.312741969385932"><ele>213.60000000000002</ele><time>2026-03-22T11:43:51.998Z</time></trkpt><trkpt lat="43.60001248487169" lon="11.3127098219643"><ele>213.0</ele><time>2026-03-22T11:43:53.998Z</time></trkpt><trkpt lat="43.60012703535847" lon="11.312718700519717"><ele>213.0</ele><time>2026-03-22T11:43:55.998Z</time></trkpt></trkseg></trk></gpx>